<?xml version="1.0" encoding="UTF-8"?>
<gpx version="1.1" creator="https://www.youtrack.es" xsi:schemaLocation="http://www.topografix.com/GPX/1/1 http://www.topografix.com/GPX/1/1/gpx.xsd http://www.garmin.com/xmlschemas/GpxExtensions/v3 http://www.garmin.com/xmlschemas/GpxExtensionsv3.xsd http://www.garmin.com/xmlschemas/TrackPointExtension/v1 http://www.garmin.com/xmlschemas/TrackPointExtensionv1.xsd" xmlns:gpxtpx="http://www.garmin.com/xmlschemas/TrackPointExtension/v1" xmlns:gpxx="http://www.garmin.com/xmlschemas/GpxExtensions/v3" xmlns:xsi="http://www.w3.org/2001/XMLSchema-instance">
  <metadata>
    <link href="https://www.youtrack.es">
      <text>YouTrack.es</text>
    </link>
    <time>2026-05-07T16:27:16Z</time>
  </metadata>
  <trk>
    <src>https://www.youtrack.es</src>
    <link href="https://www.youtrack.es/ruta/27407-moralzalzar">
      <text>YouTrack.es</text>
    </link>
    <trkseg>
      <trkpt lat="40.54324" lon="-3.70171">
        <ele>749.4</ele>
        <time>2021-11-16 09:46:39</time>
      </trkpt>
      <trkpt lat="40.54327" lon="-3.70175">
        <ele>745.8</ele>
        <time>2021-11-16 09:46:40</time>
      </trkpt>
      <trkpt lat="40.54331" lon="-3.70179">
        <ele>745.8</ele>
        <time>2021-11-16 09:46:41</time>
      </trkpt>
      <trkpt lat="40.54334" lon="-3.70183">
        <ele>745.6</ele>
        <time>2021-11-16 09:46:42</time>
      </trkpt>
      <trkpt lat="40.54338" lon="-3.70186">
        <ele>745.6</ele>
        <time>2021-11-16 09:46:43</time>
      </trkpt>
      <trkpt lat="40.54342" lon="-3.7019">
        <ele>745.4</ele>
        <time>2021-11-16 09:46:44</time>
      </trkpt>
      <trkpt lat="40.54345" lon="-3.70194">
        <ele>745.4</ele>
        <time>2021-11-16 09:46:45</time>
      </trkpt>
      <trkpt lat="40.54349" lon="-3.70197">
        <ele>745.2</ele>
        <time>2021-11-16 09:46:46</time>
      </trkpt>
      <trkpt lat="40.54353" lon="-3.70201">
        <ele>745.4</ele>
        <time>2021-11-16 09:46:47</time>
      </trkpt>
      <trkpt lat="40.54356" lon="-3.70204">
        <ele>745.6</ele>
        <time>2021-11-16 09:46:48</time>
      </trkpt>
      <trkpt lat="40.5436" lon="-3.70207">
        <ele>746</ele>
        <time>2021-11-16 09:46:49</time>
      </trkpt>
      <trkpt lat="40.54364" lon="-3.70211">
        <ele>746</ele>
        <time>2021-11-16 09:46:50</time>
      </trkpt>
      <trkpt lat="40.54368" lon="-3.70214">
        <ele>746.2</ele>
        <time>2021-11-16 09:46:51</time>
      </trkpt>
      <trkpt lat="40.54372" lon="-3.70218">
        <ele>746.4</ele>
        <time>2021-11-16 09:46:52</time>
      </trkpt>
      <trkpt lat="40.54376" lon="-3.70221">
        <ele>746.4</ele>
        <time>2021-11-16 09:46:53</time>
      </trkpt>
      <trkpt lat="40.5438" lon="-3.70224">
        <ele>746.6</ele>
        <time>2021-11-16 09:46:54</time>
      </trkpt>
      <trkpt lat="40.54384" lon="-3.70227">
        <ele>746.4</ele>
        <time>2021-11-16 09:46:55</time>
      </trkpt>
      <trkpt lat="40.54388" lon="-3.7023">
        <ele>746.6</ele>
        <time>2021-11-16 09:46:56</time>
      </trkpt>
      <trkpt lat="40.54392" lon="-3.70233">
        <ele>746.6</ele>
        <time>2021-11-16 09:46:57</time>
      </trkpt>
      <trkpt lat="40.54396" lon="-3.70236">
        <ele>746.4</ele>
        <time>2021-11-16 09:46:58</time>
      </trkpt>
      <trkpt lat="40.544" lon="-3.70239">
        <ele>746.4</ele>
        <time>2021-11-16 09:46:59</time>
      </trkpt>
      <trkpt lat="40.54404" lon="-3.70241">
        <ele>746.4</ele>
        <time>2021-11-16 09:47:00</time>
      </trkpt>
      <trkpt lat="40.54408" lon="-3.70244">
        <ele>746.4</ele>
        <time>2021-11-16 09:47:01</time>
      </trkpt>
      <trkpt lat="40.54413" lon="-3.70247">
        <ele>746.4</ele>
        <time>2021-11-16 09:47:02</time>
      </trkpt>
      <trkpt lat="40.54417" lon="-3.70249">
        <ele>746.4</ele>
        <time>2021-11-16 09:47:03</time>
      </trkpt>
      <trkpt lat="40.54421" lon="-3.70252">
        <ele>746.4</ele>
        <time>2021-11-16 09:47:04</time>
      </trkpt>
      <trkpt lat="40.54425" lon="-3.70254">
        <ele>746.6</ele>
        <time>2021-11-16 09:47:05</time>
      </trkpt>
      <trkpt lat="40.54429" lon="-3.70257">
        <ele>746.6</ele>
        <time>2021-11-16 09:47:06</time>
      </trkpt>
      <trkpt lat="40.54433" lon="-3.70259">
        <ele>746.6</ele>
        <time>2021-11-16 09:47:07</time>
      </trkpt>
      <trkpt lat="40.54438" lon="-3.70261">
        <ele>746.6</ele>
        <time>2021-11-16 09:47:08</time>
      </trkpt>
      <trkpt lat="40.54442" lon="-3.70263">
        <ele>746.8</ele>
        <time>2021-11-16 09:47:09</time>
      </trkpt>
      <trkpt lat="40.54446" lon="-3.70266">
        <ele>747</ele>
        <time>2021-11-16 09:47:10</time>
      </trkpt>
      <trkpt lat="40.5445" lon="-3.70268">
        <ele>747</ele>
        <time>2021-11-16 09:47:11</time>
      </trkpt>
      <trkpt lat="40.54454" lon="-3.70271">
        <ele>746.8</ele>
        <time>2021-11-16 09:47:12</time>
      </trkpt>
      <trkpt lat="40.54459" lon="-3.70273">
        <ele>747.2</ele>
        <time>2021-11-16 09:47:13</time>
      </trkpt>
      <trkpt lat="40.54463" lon="-3.70275">
        <ele>747.4</ele>
        <time>2021-11-16 09:47:14</time>
      </trkpt>
      <trkpt lat="40.54467" lon="-3.70278">
        <ele>747.6</ele>
        <time>2021-11-16 09:47:15</time>
      </trkpt>
      <trkpt lat="40.54471" lon="-3.7028">
        <ele>747.6</ele>
        <time>2021-11-16 09:47:16</time>
      </trkpt>
      <trkpt lat="40.54476" lon="-3.70282">
        <ele>747.8</ele>
        <time>2021-11-16 09:47:17</time>
      </trkpt>
      <trkpt lat="40.5448" lon="-3.70284">
        <ele>747.8</ele>
        <time>2021-11-16 09:47:18</time>
      </trkpt>
      <trkpt lat="40.54485" lon="-3.70287">
        <ele>748</ele>
        <time>2021-11-16 09:47:19</time>
      </trkpt>
      <trkpt lat="40.54489" lon="-3.70289">
        <ele>748</ele>
        <time>2021-11-16 09:47:20</time>
      </trkpt>
      <trkpt lat="40.54493" lon="-3.70292">
        <ele>748.2</ele>
        <time>2021-11-16 09:47:21</time>
      </trkpt>
      <trkpt lat="40.54498" lon="-3.70294">
        <ele>748.2</ele>
        <time>2021-11-16 09:47:22</time>
      </trkpt>
      <trkpt lat="40.54502" lon="-3.70296">
        <ele>748.2</ele>
        <time>2021-11-16 09:47:23</time>
      </trkpt>
      <trkpt lat="40.54507" lon="-3.70299">
        <ele>748.2</ele>
        <time>2021-11-16 09:47:24</time>
      </trkpt>
      <trkpt lat="40.54511" lon="-3.70301">
        <ele>748.2</ele>
        <time>2021-11-16 09:47:25</time>
      </trkpt>
      <trkpt lat="40.54515" lon="-3.70304">
        <ele>748.2</ele>
        <time>2021-11-16 09:47:26</time>
      </trkpt>
      <trkpt lat="40.5452" lon="-3.70306">
        <ele>748.4</ele>
        <time>2021-11-16 09:47:27</time>
      </trkpt>
      <trkpt lat="40.54524" lon="-3.70308">
        <ele>748.4</ele>
        <time>2021-11-16 09:47:28</time>
      </trkpt>
      <trkpt lat="40.54529" lon="-3.70311">
        <ele>748.4</ele>
        <time>2021-11-16 09:47:29</time>
      </trkpt>
      <trkpt lat="40.54533" lon="-3.70313">
        <ele>748.6</ele>
        <time>2021-11-16 09:47:30</time>
      </trkpt>
      <trkpt lat="40.54537" lon="-3.70316">
        <ele>748.6</ele>
        <time>2021-11-16 09:47:31</time>
      </trkpt>
      <trkpt lat="40.54542" lon="-3.70318">
        <ele>748.6</ele>
        <time>2021-11-16 09:47:32</time>
      </trkpt>
      <trkpt lat="40.54546" lon="-3.70321">
        <ele>748.6</ele>
        <time>2021-11-16 09:47:33</time>
      </trkpt>
      <trkpt lat="40.54551" lon="-3.70323">
        <ele>748.8</ele>
        <time>2021-11-16 09:47:34</time>
      </trkpt>
      <trkpt lat="40.54556" lon="-3.70325">
        <ele>748.8</ele>
        <time>2021-11-16 09:47:35</time>
      </trkpt>
      <trkpt lat="40.5456" lon="-3.70327">
        <ele>748.8</ele>
        <time>2021-11-16 09:47:36</time>
      </trkpt>
      <trkpt lat="40.54565" lon="-3.7033">
        <ele>749</ele>
        <time>2021-11-16 09:47:37</time>
      </trkpt>
      <trkpt lat="40.54569" lon="-3.70332">
        <ele>749</ele>
        <time>2021-11-16 09:47:38</time>
      </trkpt>
      <trkpt lat="40.54574" lon="-3.70334">
        <ele>749.2</ele>
        <time>2021-11-16 09:47:39</time>
      </trkpt>
      <trkpt lat="40.54578" lon="-3.70336">
        <ele>749.2</ele>
        <time>2021-11-16 09:47:40</time>
      </trkpt>
      <trkpt lat="40.54583" lon="-3.70338">
        <ele>749.4</ele>
        <time>2021-11-16 09:47:41</time>
      </trkpt>
      <trkpt lat="40.54587" lon="-3.7034">
        <ele>749.4</ele>
        <time>2021-11-16 09:47:42</time>
      </trkpt>
      <trkpt lat="40.5459" lon="-3.70342">
        <ele>749.4</ele>
        <time>2021-11-16 09:47:43</time>
      </trkpt>
      <trkpt lat="40.54593" lon="-3.70342">
        <ele>749.6</ele>
        <time>2021-11-16 09:47:44</time>
      </trkpt>
      <trkpt lat="40.54593" lon="-3.70343">
        <ele>749.6</ele>
        <time>2021-11-16 09:47:45</time>
      </trkpt>
      <trkpt lat="40.54743" lon="-3.70392">
        <ele>750.8</ele>
        <time>2021-11-16 09:48:34</time>
      </trkpt>
      <trkpt lat="40.5475" lon="-3.70389">
        <ele>750.4</ele>
        <time>2021-11-16 09:48:35</time>
      </trkpt>
      <trkpt lat="40.54756" lon="-3.70384">
        <ele>750</ele>
        <time>2021-11-16 09:48:36</time>
      </trkpt>
      <trkpt lat="40.54761" lon="-3.70377">
        <ele>750</ele>
        <time>2021-11-16 09:48:37</time>
      </trkpt>
      <trkpt lat="40.54765" lon="-3.70369">
        <ele>749.6</ele>
        <time>2021-11-16 09:48:38</time>
      </trkpt>
      <trkpt lat="40.54769" lon="-3.7036">
        <ele>749</ele>
        <time>2021-11-16 09:48:39</time>
      </trkpt>
      <trkpt lat="40.54774" lon="-3.70351">
        <ele>748.6</ele>
        <time>2021-11-16 09:48:40</time>
      </trkpt>
      <trkpt lat="40.5478" lon="-3.70344">
        <ele>748.2</ele>
        <time>2021-11-16 09:48:41</time>
      </trkpt>
      <trkpt lat="40.54787" lon="-3.7034">
        <ele>747.6</ele>
        <time>2021-11-16 09:48:42</time>
      </trkpt>
      <trkpt lat="40.54795" lon="-3.70341">
        <ele>746.8</ele>
        <time>2021-11-16 09:48:43</time>
      </trkpt>
      <trkpt lat="40.54801" lon="-3.70344">
        <ele>746.2</ele>
        <time>2021-11-16 09:48:44</time>
      </trkpt>
      <trkpt lat="40.54808" lon="-3.70348">
        <ele>745.8</ele>
        <time>2021-11-16 09:48:45</time>
      </trkpt>
      <trkpt lat="40.54812" lon="-3.70354">
        <ele>745.4</ele>
        <time>2021-11-16 09:48:46</time>
      </trkpt>
      <trkpt lat="40.54816" lon="-3.70361">
        <ele>745.2</ele>
        <time>2021-11-16 09:48:47</time>
      </trkpt>
      <trkpt lat="40.54818" lon="-3.70367">
        <ele>745</ele>
        <time>2021-11-16 09:48:48</time>
      </trkpt>
      <trkpt lat="40.54821" lon="-3.70373">
        <ele>745</ele>
        <time>2021-11-16 09:48:49</time>
      </trkpt>
      <trkpt lat="40.54823" lon="-3.7038">
        <ele>745</ele>
        <time>2021-11-16 09:48:50</time>
      </trkpt>
      <trkpt lat="40.54825" lon="-3.70386">
        <ele>745</ele>
        <time>2021-11-16 09:48:51</time>
      </trkpt>
      <trkpt lat="40.54827" lon="-3.70391">
        <ele>745.2</ele>
        <time>2021-11-16 09:48:52</time>
      </trkpt>
      <trkpt lat="40.54828" lon="-3.70397">
        <ele>745</ele>
        <time>2021-11-16 09:48:53</time>
      </trkpt>
      <trkpt lat="40.5483" lon="-3.70402">
        <ele>745</ele>
        <time>2021-11-16 09:48:54</time>
      </trkpt>
      <trkpt lat="40.54832" lon="-3.70407">
        <ele>745</ele>
        <time>2021-11-16 09:48:55</time>
      </trkpt>
      <trkpt lat="40.54834" lon="-3.70413">
        <ele>745.2</ele>
        <time>2021-11-16 09:48:56</time>
      </trkpt>
      <trkpt lat="40.54836" lon="-3.70418">
        <ele>745.4</ele>
        <time>2021-11-16 09:48:57</time>
      </trkpt>
      <trkpt lat="40.54839" lon="-3.70423">
        <ele>746.6</ele>
        <time>2021-11-16 09:48:58</time>
      </trkpt>
      <trkpt lat="40.54841" lon="-3.70429">
        <ele>747.2</ele>
        <time>2021-11-16 09:48:59</time>
      </trkpt>
      <trkpt lat="40.54843" lon="-3.70434">
        <ele>747.8</ele>
        <time>2021-11-16 09:49:00</time>
      </trkpt>
      <trkpt lat="40.54846" lon="-3.7044">
        <ele>748.4</ele>
        <time>2021-11-16 09:49:01</time>
      </trkpt>
      <trkpt lat="40.54848" lon="-3.70445">
        <ele>748.8</ele>
        <time>2021-11-16 09:49:02</time>
      </trkpt>
      <trkpt lat="40.5485" lon="-3.70451">
        <ele>749.2</ele>
        <time>2021-11-16 09:49:03</time>
      </trkpt>
      <trkpt lat="40.54852" lon="-3.70456">
        <ele>749.4</ele>
        <time>2021-11-16 09:49:04</time>
      </trkpt>
      <trkpt lat="40.54855" lon="-3.70461">
        <ele>749.8</ele>
        <time>2021-11-16 09:49:05</time>
      </trkpt>
      <trkpt lat="40.54858" lon="-3.70467">
        <ele>749.8</ele>
        <time>2021-11-16 09:49:06</time>
      </trkpt>
      <trkpt lat="40.54861" lon="-3.70471">
        <ele>749.8</ele>
        <time>2021-11-16 09:49:07</time>
      </trkpt>
      <trkpt lat="40.54865" lon="-3.70475">
        <ele>750</ele>
        <time>2021-11-16 09:49:08</time>
      </trkpt>
      <trkpt lat="40.54869" lon="-3.70477">
        <ele>750.2</ele>
        <time>2021-11-16 09:49:09</time>
      </trkpt>
      <trkpt lat="40.54874" lon="-3.70479">
        <ele>750.2</ele>
        <time>2021-11-16 09:49:10</time>
      </trkpt>
      <trkpt lat="40.54879" lon="-3.7048">
        <ele>750.2</ele>
        <time>2021-11-16 09:49:11</time>
      </trkpt>
      <trkpt lat="40.54884" lon="-3.70481">
        <ele>750</ele>
        <time>2021-11-16 09:49:12</time>
      </trkpt>
      <trkpt lat="40.54889" lon="-3.70482">
        <ele>750</ele>
        <time>2021-11-16 09:49:13</time>
      </trkpt>
      <trkpt lat="40.54894" lon="-3.70483">
        <ele>750.2</ele>
        <time>2021-11-16 09:49:14</time>
      </trkpt>
      <trkpt lat="40.549" lon="-3.70485">
        <ele>750</ele>
        <time>2021-11-16 09:49:15</time>
      </trkpt>
      <trkpt lat="40.54905" lon="-3.70487">
        <ele>750.2</ele>
        <time>2021-11-16 09:49:16</time>
      </trkpt>
      <trkpt lat="40.54911" lon="-3.7049">
        <ele>750</ele>
        <time>2021-11-16 09:49:17</time>
      </trkpt>
      <trkpt lat="40.54916" lon="-3.70493">
        <ele>750</ele>
        <time>2021-11-16 09:49:18</time>
      </trkpt>
      <trkpt lat="40.54922" lon="-3.70496">
        <ele>750</ele>
        <time>2021-11-16 09:49:19</time>
      </trkpt>
      <trkpt lat="40.54927" lon="-3.70499">
        <ele>749.8</ele>
        <time>2021-11-16 09:49:20</time>
      </trkpt>
      <trkpt lat="40.54933" lon="-3.70502">
        <ele>749.6</ele>
        <time>2021-11-16 09:49:21</time>
      </trkpt>
      <trkpt lat="40.54939" lon="-3.70504">
        <ele>749.4</ele>
        <time>2021-11-16 09:49:22</time>
      </trkpt>
      <trkpt lat="40.54945" lon="-3.70507">
        <ele>749.2</ele>
        <time>2021-11-16 09:49:23</time>
      </trkpt>
      <trkpt lat="40.54951" lon="-3.70509">
        <ele>749.2</ele>
        <time>2021-11-16 09:49:24</time>
      </trkpt>
      <trkpt lat="40.54957" lon="-3.70512">
        <ele>749.2</ele>
        <time>2021-11-16 09:49:25</time>
      </trkpt>
      <trkpt lat="40.54963" lon="-3.70514">
        <ele>749</ele>
        <time>2021-11-16 09:49:26</time>
      </trkpt>
      <trkpt lat="40.54969" lon="-3.70516">
        <ele>749.2</ele>
        <time>2021-11-16 09:49:27</time>
      </trkpt>
      <trkpt lat="40.54974" lon="-3.7052">
        <ele>749.2</ele>
        <time>2021-11-16 09:49:28</time>
      </trkpt>
      <trkpt lat="40.54979" lon="-3.70523">
        <ele>749.2</ele>
        <time>2021-11-16 09:49:29</time>
      </trkpt>
      <trkpt lat="40.54983" lon="-3.70525">
        <ele>749</ele>
        <time>2021-11-16 09:49:30</time>
      </trkpt>
      <trkpt lat="40.54985" lon="-3.70527">
        <ele>749</ele>
        <time>2021-11-16 09:49:31</time>
      </trkpt>
      <trkpt lat="40.54985" lon="-3.70527">
        <ele>749</ele>
        <time>2021-11-16 09:49:32</time>
      </trkpt>
      <trkpt lat="40.55039" lon="-3.70547">
        <ele>750</ele>
        <time>2021-11-16 09:50:02</time>
      </trkpt>
      <trkpt lat="40.55043" lon="-3.70548">
        <ele>750</ele>
        <time>2021-11-16 09:50:03</time>
      </trkpt>
      <trkpt lat="40.55048" lon="-3.7055">
        <ele>750</ele>
        <time>2021-11-16 09:50:04</time>
      </trkpt>
      <trkpt lat="40.55053" lon="-3.70553">
        <ele>750</ele>
        <time>2021-11-16 09:50:05</time>
      </trkpt>
      <trkpt lat="40.55057" lon="-3.70555">
        <ele>750</ele>
        <time>2021-11-16 09:50:06</time>
      </trkpt>
      <trkpt lat="40.55062" lon="-3.70557">
        <ele>750</ele>
        <time>2021-11-16 09:50:07</time>
      </trkpt>
      <trkpt lat="40.55067" lon="-3.70559">
        <ele>750</ele>
        <time>2021-11-16 09:50:08</time>
      </trkpt>
      <trkpt lat="40.55071" lon="-3.70561">
        <ele>750</ele>
        <time>2021-11-16 09:50:09</time>
      </trkpt>
      <trkpt lat="40.55076" lon="-3.70563">
        <ele>750</ele>
        <time>2021-11-16 09:50:10</time>
      </trkpt>
      <trkpt lat="40.55081" lon="-3.70565">
        <ele>750</ele>
        <time>2021-11-16 09:50:11</time>
      </trkpt>
      <trkpt lat="40.55085" lon="-3.70567">
        <ele>749.8</ele>
        <time>2021-11-16 09:50:12</time>
      </trkpt>
      <trkpt lat="40.5509" lon="-3.7057">
        <ele>749.8</ele>
        <time>2021-11-16 09:50:13</time>
      </trkpt>
      <trkpt lat="40.55094" lon="-3.70572">
        <ele>750</ele>
        <time>2021-11-16 09:50:14</time>
      </trkpt>
      <trkpt lat="40.55099" lon="-3.70574">
        <ele>750</ele>
        <time>2021-11-16 09:50:15</time>
      </trkpt>
      <trkpt lat="40.55103" lon="-3.70576">
        <ele>750</ele>
        <time>2021-11-16 09:50:16</time>
      </trkpt>
      <trkpt lat="40.55108" lon="-3.70578">
        <ele>750.2</ele>
        <time>2021-11-16 09:50:17</time>
      </trkpt>
      <trkpt lat="40.55112" lon="-3.7058">
        <ele>750.4</ele>
        <time>2021-11-16 09:50:18</time>
      </trkpt>
      <trkpt lat="40.55116" lon="-3.70582">
        <ele>750.6</ele>
        <time>2021-11-16 09:50:19</time>
      </trkpt>
      <trkpt lat="40.55121" lon="-3.70584">
        <ele>750.8</ele>
        <time>2021-11-16 09:50:20</time>
      </trkpt>
      <trkpt lat="40.55125" lon="-3.70586">
        <ele>751</ele>
        <time>2021-11-16 09:50:21</time>
      </trkpt>
      <trkpt lat="40.55129" lon="-3.70588">
        <ele>751</ele>
        <time>2021-11-16 09:50:22</time>
      </trkpt>
      <trkpt lat="40.55133" lon="-3.70591">
        <ele>751.2</ele>
        <time>2021-11-16 09:50:23</time>
      </trkpt>
      <trkpt lat="40.55138" lon="-3.70593">
        <ele>751.2</ele>
        <time>2021-11-16 09:50:24</time>
      </trkpt>
      <trkpt lat="40.55142" lon="-3.70595">
        <ele>751.2</ele>
        <time>2021-11-16 09:50:25</time>
      </trkpt>
      <trkpt lat="40.55147" lon="-3.70597">
        <ele>751.6</ele>
        <time>2021-11-16 09:50:26</time>
      </trkpt>
      <trkpt lat="40.55151" lon="-3.706">
        <ele>752</ele>
        <time>2021-11-16 09:50:27</time>
      </trkpt>
      <trkpt lat="40.55155" lon="-3.70602">
        <ele>752.4</ele>
        <time>2021-11-16 09:50:28</time>
      </trkpt>
      <trkpt lat="40.5516" lon="-3.70604">
        <ele>752.4</ele>
        <time>2021-11-16 09:50:29</time>
      </trkpt>
      <trkpt lat="40.55164" lon="-3.70607">
        <ele>752.8</ele>
        <time>2021-11-16 09:50:30</time>
      </trkpt>
      <trkpt lat="40.55168" lon="-3.70609">
        <ele>753</ele>
        <time>2021-11-16 09:50:31</time>
      </trkpt>
      <trkpt lat="40.55172" lon="-3.70612">
        <ele>753.4</ele>
        <time>2021-11-16 09:50:32</time>
      </trkpt>
      <trkpt lat="40.55176" lon="-3.70615">
        <ele>753.6</ele>
        <time>2021-11-16 09:50:33</time>
      </trkpt>
      <trkpt lat="40.55181" lon="-3.70618">
        <ele>753.8</ele>
        <time>2021-11-16 09:50:34</time>
      </trkpt>
      <trkpt lat="40.55185" lon="-3.70621">
        <ele>754</ele>
        <time>2021-11-16 09:50:35</time>
      </trkpt>
      <trkpt lat="40.55189" lon="-3.70623">
        <ele>754</ele>
        <time>2021-11-16 09:50:36</time>
      </trkpt>
      <trkpt lat="40.55194" lon="-3.70627">
        <ele>754.2</ele>
        <time>2021-11-16 09:50:37</time>
      </trkpt>
      <trkpt lat="40.55198" lon="-3.7063">
        <ele>754</ele>
        <time>2021-11-16 09:50:38</time>
      </trkpt>
      <trkpt lat="40.55202" lon="-3.70634">
        <ele>754.2</ele>
        <time>2021-11-16 09:50:39</time>
      </trkpt>
      <trkpt lat="40.55207" lon="-3.70637">
        <ele>754.4</ele>
        <time>2021-11-16 09:50:40</time>
      </trkpt>
      <trkpt lat="40.55211" lon="-3.70641">
        <ele>754.6</ele>
        <time>2021-11-16 09:50:41</time>
      </trkpt>
      <trkpt lat="40.55216" lon="-3.70645">
        <ele>754.6</ele>
        <time>2021-11-16 09:50:42</time>
      </trkpt>
      <trkpt lat="40.5522" lon="-3.70649">
        <ele>754.4</ele>
        <time>2021-11-16 09:50:43</time>
      </trkpt>
      <trkpt lat="40.55224" lon="-3.70654">
        <ele>754.4</ele>
        <time>2021-11-16 09:50:44</time>
      </trkpt>
      <trkpt lat="40.55229" lon="-3.70658">
        <ele>754.4</ele>
        <time>2021-11-16 09:50:45</time>
      </trkpt>
      <trkpt lat="40.55234" lon="-3.70663">
        <ele>754.6</ele>
        <time>2021-11-16 09:50:46</time>
      </trkpt>
      <trkpt lat="40.55238" lon="-3.70668">
        <ele>754.6</ele>
        <time>2021-11-16 09:50:47</time>
      </trkpt>
      <trkpt lat="40.55243" lon="-3.70673">
        <ele>754.4</ele>
        <time>2021-11-16 09:50:48</time>
      </trkpt>
      <trkpt lat="40.55248" lon="-3.70679">
        <ele>754.6</ele>
        <time>2021-11-16 09:50:49</time>
      </trkpt>
      <trkpt lat="40.55253" lon="-3.70685">
        <ele>754.6</ele>
        <time>2021-11-16 09:50:50</time>
      </trkpt>
      <trkpt lat="40.55258" lon="-3.7069">
        <ele>754.6</ele>
        <time>2021-11-16 09:50:51</time>
      </trkpt>
      <trkpt lat="40.55263" lon="-3.70696">
        <ele>754.6</ele>
        <time>2021-11-16 09:50:52</time>
      </trkpt>
      <trkpt lat="40.55268" lon="-3.70702">
        <ele>754.4</ele>
        <time>2021-11-16 09:50:53</time>
      </trkpt>
      <trkpt lat="40.55273" lon="-3.70709">
        <ele>754.6</ele>
        <time>2021-11-16 09:50:54</time>
      </trkpt>
      <trkpt lat="40.55278" lon="-3.70715">
        <ele>754.4</ele>
        <time>2021-11-16 09:50:55</time>
      </trkpt>
      <trkpt lat="40.55283" lon="-3.70721">
        <ele>754.4</ele>
        <time>2021-11-16 09:50:56</time>
      </trkpt>
      <trkpt lat="40.55289" lon="-3.70728">
        <ele>754</ele>
        <time>2021-11-16 09:50:57</time>
      </trkpt>
      <trkpt lat="40.55294" lon="-3.70735">
        <ele>753.8</ele>
        <time>2021-11-16 09:50:58</time>
      </trkpt>
      <trkpt lat="40.553" lon="-3.70742">
        <ele>753.6</ele>
        <time>2021-11-16 09:50:59</time>
      </trkpt>
      <trkpt lat="40.55306" lon="-3.7075">
        <ele>753.4</ele>
        <time>2021-11-16 09:51:00</time>
      </trkpt>
      <trkpt lat="40.55312" lon="-3.70757">
        <ele>753.4</ele>
        <time>2021-11-16 09:51:01</time>
      </trkpt>
      <trkpt lat="40.55318" lon="-3.70765">
        <ele>752.4</ele>
        <time>2021-11-16 09:51:02</time>
      </trkpt>
      <trkpt lat="40.55324" lon="-3.70772">
        <ele>751.6</ele>
        <time>2021-11-16 09:51:03</time>
      </trkpt>
      <trkpt lat="40.55331" lon="-3.7078">
        <ele>751.2</ele>
        <time>2021-11-16 09:51:04</time>
      </trkpt>
      <trkpt lat="40.55338" lon="-3.70788">
        <ele>750.8</ele>
        <time>2021-11-16 09:51:05</time>
      </trkpt>
      <trkpt lat="40.55345" lon="-3.70796">
        <ele>750.4</ele>
        <time>2021-11-16 09:51:06</time>
      </trkpt>
      <trkpt lat="40.55353" lon="-3.70805">
        <ele>750</ele>
        <time>2021-11-16 09:51:07</time>
      </trkpt>
      <trkpt lat="40.55361" lon="-3.70813">
        <ele>749.8</ele>
        <time>2021-11-16 09:51:08</time>
      </trkpt>
      <trkpt lat="40.55369" lon="-3.70821">
        <ele>748.8</ele>
        <time>2021-11-16 09:51:09</time>
      </trkpt>
      <trkpt lat="40.55377" lon="-3.70829">
        <ele>748</ele>
        <time>2021-11-16 09:51:10</time>
      </trkpt>
      <trkpt lat="40.55385" lon="-3.70837">
        <ele>747.4</ele>
        <time>2021-11-16 09:51:11</time>
      </trkpt>
      <trkpt lat="40.55393" lon="-3.70845">
        <ele>747</ele>
        <time>2021-11-16 09:51:12</time>
      </trkpt>
      <trkpt lat="40.55402" lon="-3.70852">
        <ele>746.2</ele>
        <time>2021-11-16 09:51:13</time>
      </trkpt>
      <trkpt lat="40.5541" lon="-3.7086">
        <ele>745.6</ele>
        <time>2021-11-16 09:51:14</time>
      </trkpt>
      <trkpt lat="40.55419" lon="-3.70867">
        <ele>745.2</ele>
        <time>2021-11-16 09:51:15</time>
      </trkpt>
      <trkpt lat="40.55428" lon="-3.70874">
        <ele>744.6</ele>
        <time>2021-11-16 09:51:16</time>
      </trkpt>
      <trkpt lat="40.55437" lon="-3.70882">
        <ele>743.8</ele>
        <time>2021-11-16 09:51:17</time>
      </trkpt>
      <trkpt lat="40.55446" lon="-3.70889">
        <ele>743.4</ele>
        <time>2021-11-16 09:51:18</time>
      </trkpt>
      <trkpt lat="40.55455" lon="-3.70895">
        <ele>743</ele>
        <time>2021-11-16 09:51:19</time>
      </trkpt>
      <trkpt lat="40.55464" lon="-3.70902">
        <ele>743</ele>
        <time>2021-11-16 09:51:20</time>
      </trkpt>
      <trkpt lat="40.55472" lon="-3.70909">
        <ele>742.8</ele>
        <time>2021-11-16 09:51:21</time>
      </trkpt>
      <trkpt lat="40.5548" lon="-3.70915">
        <ele>742.6</ele>
        <time>2021-11-16 09:51:22</time>
      </trkpt>
      <trkpt lat="40.55487" lon="-3.70921">
        <ele>742.4</ele>
        <time>2021-11-16 09:51:23</time>
      </trkpt>
      <trkpt lat="40.55494" lon="-3.70926">
        <ele>742.4</ele>
        <time>2021-11-16 09:51:24</time>
      </trkpt>
      <trkpt lat="40.555" lon="-3.70931">
        <ele>742.2</ele>
        <time>2021-11-16 09:51:25</time>
      </trkpt>
      <trkpt lat="40.55505" lon="-3.70935">
        <ele>742.2</ele>
        <time>2021-11-16 09:51:26</time>
      </trkpt>
      <trkpt lat="40.5551" lon="-3.70939">
        <ele>742.2</ele>
        <time>2021-11-16 09:51:27</time>
      </trkpt>
      <trkpt lat="40.55514" lon="-3.70942">
        <ele>742</ele>
        <time>2021-11-16 09:51:28</time>
      </trkpt>
      <trkpt lat="40.55518" lon="-3.70946">
        <ele>742.2</ele>
        <time>2021-11-16 09:51:29</time>
      </trkpt>
      <trkpt lat="40.5552" lon="-3.70951">
        <ele>742.2</ele>
        <time>2021-11-16 09:51:30</time>
      </trkpt>
      <trkpt lat="40.55521" lon="-3.70955">
        <ele>742.2</ele>
        <time>2021-11-16 09:51:31</time>
      </trkpt>
      <trkpt lat="40.5552" lon="-3.70961">
        <ele>742</ele>
        <time>2021-11-16 09:51:32</time>
      </trkpt>
      <trkpt lat="40.55519" lon="-3.70966">
        <ele>742</ele>
        <time>2021-11-16 09:51:33</time>
      </trkpt>
      <trkpt lat="40.55518" lon="-3.70972">
        <ele>742.6</ele>
        <time>2021-11-16 09:51:34</time>
      </trkpt>
      <trkpt lat="40.55517" lon="-3.70978">
        <ele>743.4</ele>
        <time>2021-11-16 09:51:35</time>
      </trkpt>
      <trkpt lat="40.55516" lon="-3.70984">
        <ele>743.8</ele>
        <time>2021-11-16 09:51:36</time>
      </trkpt>
      <trkpt lat="40.55515" lon="-3.70989">
        <ele>744.2</ele>
        <time>2021-11-16 09:51:37</time>
      </trkpt>
      <trkpt lat="40.55514" lon="-3.70993">
        <ele>744.2</ele>
        <time>2021-11-16 09:51:38</time>
      </trkpt>
      <trkpt lat="40.55513" lon="-3.70998">
        <ele>744.6</ele>
        <time>2021-11-16 09:51:39</time>
      </trkpt>
      <trkpt lat="40.55513" lon="-3.71003">
        <ele>744.8</ele>
        <time>2021-11-16 09:51:40</time>
      </trkpt>
      <trkpt lat="40.55514" lon="-3.71007">
        <ele>745</ele>
        <time>2021-11-16 09:51:41</time>
      </trkpt>
      <trkpt lat="40.55517" lon="-3.71011">
        <ele>745</ele>
        <time>2021-11-16 09:51:42</time>
      </trkpt>
      <trkpt lat="40.5552" lon="-3.71014">
        <ele>745</ele>
        <time>2021-11-16 09:51:43</time>
      </trkpt>
      <trkpt lat="40.55524" lon="-3.71018">
        <ele>745</ele>
        <time>2021-11-16 09:51:44</time>
      </trkpt>
      <trkpt lat="40.55529" lon="-3.71021">
        <ele>745.2</ele>
        <time>2021-11-16 09:51:45</time>
      </trkpt>
      <trkpt lat="40.55534" lon="-3.71025">
        <ele>745</ele>
        <time>2021-11-16 09:51:46</time>
      </trkpt>
      <trkpt lat="40.5554" lon="-3.7103">
        <ele>745</ele>
        <time>2021-11-16 09:51:47</time>
      </trkpt>
      <trkpt lat="40.55546" lon="-3.71034">
        <ele>745</ele>
        <time>2021-11-16 09:51:48</time>
      </trkpt>
      <trkpt lat="40.55552" lon="-3.71039">
        <ele>745</ele>
        <time>2021-11-16 09:51:49</time>
      </trkpt>
      <trkpt lat="40.55559" lon="-3.71045">
        <ele>744.8</ele>
        <time>2021-11-16 09:51:50</time>
      </trkpt>
      <trkpt lat="40.55566" lon="-3.7105">
        <ele>744.2</ele>
        <time>2021-11-16 09:51:51</time>
      </trkpt>
      <trkpt lat="40.55573" lon="-3.71055">
        <ele>743</ele>
        <time>2021-11-16 09:51:52</time>
      </trkpt>
      <trkpt lat="40.55581" lon="-3.7106">
        <ele>742.6</ele>
        <time>2021-11-16 09:51:53</time>
      </trkpt>
      <trkpt lat="40.55589" lon="-3.71066">
        <ele>742.4</ele>
        <time>2021-11-16 09:51:54</time>
      </trkpt>
      <trkpt lat="40.55598" lon="-3.71071">
        <ele>741.6</ele>
        <time>2021-11-16 09:51:55</time>
      </trkpt>
      <trkpt lat="40.55607" lon="-3.71077">
        <ele>741.2</ele>
        <time>2021-11-16 09:51:56</time>
      </trkpt>
      <trkpt lat="40.55616" lon="-3.71083">
        <ele>740.4</ele>
        <time>2021-11-16 09:51:57</time>
      </trkpt>
      <trkpt lat="40.55625" lon="-3.71088">
        <ele>740.4</ele>
        <time>2021-11-16 09:51:58</time>
      </trkpt>
      <trkpt lat="40.55633" lon="-3.71094">
        <ele>739</ele>
        <time>2021-11-16 09:51:59</time>
      </trkpt>
      <trkpt lat="40.55641" lon="-3.711">
        <ele>738.2</ele>
        <time>2021-11-16 09:52:00</time>
      </trkpt>
      <trkpt lat="40.55649" lon="-3.71106">
        <ele>737.4</ele>
        <time>2021-11-16 09:52:01</time>
      </trkpt>
      <trkpt lat="40.55656" lon="-3.71112">
        <ele>736.2</ele>
        <time>2021-11-16 09:52:02</time>
      </trkpt>
      <trkpt lat="40.55663" lon="-3.71118">
        <ele>735.6</ele>
        <time>2021-11-16 09:52:03</time>
      </trkpt>
      <trkpt lat="40.5567" lon="-3.71123">
        <ele>735.2</ele>
        <time>2021-11-16 09:52:04</time>
      </trkpt>
      <trkpt lat="40.55677" lon="-3.71129">
        <ele>734.8</ele>
        <time>2021-11-16 09:52:05</time>
      </trkpt>
      <trkpt lat="40.55684" lon="-3.71134">
        <ele>735</ele>
        <time>2021-11-16 09:52:06</time>
      </trkpt>
      <trkpt lat="40.5569" lon="-3.71139">
        <ele>734.8</ele>
        <time>2021-11-16 09:52:07</time>
      </trkpt>
      <trkpt lat="40.55697" lon="-3.71144">
        <ele>735</ele>
        <time>2021-11-16 09:52:08</time>
      </trkpt>
      <trkpt lat="40.55703" lon="-3.71149">
        <ele>734.8</ele>
        <time>2021-11-16 09:52:09</time>
      </trkpt>
      <trkpt lat="40.55709" lon="-3.71154">
        <ele>734.8</ele>
        <time>2021-11-16 09:52:10</time>
      </trkpt>
      <trkpt lat="40.55715" lon="-3.71159">
        <ele>735</ele>
        <time>2021-11-16 09:52:11</time>
      </trkpt>
      <trkpt lat="40.55721" lon="-3.71164">
        <ele>734.8</ele>
        <time>2021-11-16 09:52:12</time>
      </trkpt>
      <trkpt lat="40.55728" lon="-3.71169">
        <ele>735</ele>
        <time>2021-11-16 09:52:13</time>
      </trkpt>
      <trkpt lat="40.55734" lon="-3.71173">
        <ele>735</ele>
        <time>2021-11-16 09:52:14</time>
      </trkpt>
      <trkpt lat="40.5574" lon="-3.71178">
        <ele>735.2</ele>
        <time>2021-11-16 09:52:15</time>
      </trkpt>
      <trkpt lat="40.55746" lon="-3.71183">
        <ele>735.2</ele>
        <time>2021-11-16 09:52:16</time>
      </trkpt>
      <trkpt lat="40.55752" lon="-3.71187">
        <ele>735.2</ele>
        <time>2021-11-16 09:52:17</time>
      </trkpt>
      <trkpt lat="40.55757" lon="-3.71192">
        <ele>735.2</ele>
        <time>2021-11-16 09:52:18</time>
      </trkpt>
      <trkpt lat="40.55762" lon="-3.71196">
        <ele>735.2</ele>
        <time>2021-11-16 09:52:19</time>
      </trkpt>
      <trkpt lat="40.55768" lon="-3.712">
        <ele>735.4</ele>
        <time>2021-11-16 09:52:20</time>
      </trkpt>
      <trkpt lat="40.55773" lon="-3.71204">
        <ele>735.6</ele>
        <time>2021-11-16 09:52:21</time>
      </trkpt>
      <trkpt lat="40.55778" lon="-3.71208">
        <ele>735.8</ele>
        <time>2021-11-16 09:52:22</time>
      </trkpt>
      <trkpt lat="40.55783" lon="-3.71213">
        <ele>735.8</ele>
        <time>2021-11-16 09:52:23</time>
      </trkpt>
      <trkpt lat="40.55788" lon="-3.71217">
        <ele>735.8</ele>
        <time>2021-11-16 09:52:24</time>
      </trkpt>
      <trkpt lat="40.55793" lon="-3.71221">
        <ele>736.2</ele>
        <time>2021-11-16 09:52:25</time>
      </trkpt>
      <trkpt lat="40.55798" lon="-3.71226">
        <ele>736.4</ele>
        <time>2021-11-16 09:52:26</time>
      </trkpt>
      <trkpt lat="40.55803" lon="-3.7123">
        <ele>736.6</ele>
        <time>2021-11-16 09:52:27</time>
      </trkpt>
      <trkpt lat="40.55807" lon="-3.71234">
        <ele>736.6</ele>
        <time>2021-11-16 09:52:28</time>
      </trkpt>
      <trkpt lat="40.55812" lon="-3.71239">
        <ele>736.8</ele>
        <time>2021-11-16 09:52:29</time>
      </trkpt>
      <trkpt lat="40.55816" lon="-3.71244">
        <ele>736.8</ele>
        <time>2021-11-16 09:52:30</time>
      </trkpt>
      <trkpt lat="40.5582" lon="-3.71248">
        <ele>737</ele>
        <time>2021-11-16 09:52:31</time>
      </trkpt>
      <trkpt lat="40.55823" lon="-3.71253">
        <ele>737</ele>
        <time>2021-11-16 09:52:32</time>
      </trkpt>
      <trkpt lat="40.55827" lon="-3.71258">
        <ele>737.2</ele>
        <time>2021-11-16 09:52:33</time>
      </trkpt>
      <trkpt lat="40.55831" lon="-3.71263">
        <ele>737.2</ele>
        <time>2021-11-16 09:52:34</time>
      </trkpt>
      <trkpt lat="40.55836" lon="-3.71267">
        <ele>737.4</ele>
        <time>2021-11-16 09:52:35</time>
      </trkpt>
      <trkpt lat="40.55841" lon="-3.7127">
        <ele>737.6</ele>
        <time>2021-11-16 09:52:36</time>
      </trkpt>
      <trkpt lat="40.55846" lon="-3.71274">
        <ele>737.8</ele>
        <time>2021-11-16 09:52:37</time>
      </trkpt>
      <trkpt lat="40.55851" lon="-3.71277">
        <ele>737.8</ele>
        <time>2021-11-16 09:52:38</time>
      </trkpt>
      <trkpt lat="40.55856" lon="-3.71281">
        <ele>737.8</ele>
        <time>2021-11-16 09:52:39</time>
      </trkpt>
      <trkpt lat="40.55862" lon="-3.71285">
        <ele>737.8</ele>
        <time>2021-11-16 09:52:40</time>
      </trkpt>
      <trkpt lat="40.55868" lon="-3.7129">
        <ele>737.8</ele>
        <time>2021-11-16 09:52:41</time>
      </trkpt>
      <trkpt lat="40.55876" lon="-3.71295">
        <ele>737.8</ele>
        <time>2021-11-16 09:52:42</time>
      </trkpt>
      <trkpt lat="40.55883" lon="-3.71299">
        <ele>738</ele>
        <time>2021-11-16 09:52:43</time>
      </trkpt>
      <trkpt lat="40.55891" lon="-3.71304">
        <ele>737.6</ele>
        <time>2021-11-16 09:52:44</time>
      </trkpt>
      <trkpt lat="40.55899" lon="-3.71308">
        <ele>737.4</ele>
        <time>2021-11-16 09:52:45</time>
      </trkpt>
      <trkpt lat="40.55906" lon="-3.71313">
        <ele>737.4</ele>
        <time>2021-11-16 09:52:46</time>
      </trkpt>
      <trkpt lat="40.55913" lon="-3.71317">
        <ele>737.4</ele>
        <time>2021-11-16 09:52:47</time>
      </trkpt>
      <trkpt lat="40.5592" lon="-3.71321">
        <ele>737.2</ele>
        <time>2021-11-16 09:52:48</time>
      </trkpt>
      <trkpt lat="40.55926" lon="-3.71325">
        <ele>737</ele>
        <time>2021-11-16 09:52:49</time>
      </trkpt>
      <trkpt lat="40.55932" lon="-3.71329">
        <ele>736.8</ele>
        <time>2021-11-16 09:52:50</time>
      </trkpt>
      <trkpt lat="40.55937" lon="-3.71332">
        <ele>736.4</ele>
        <time>2021-11-16 09:52:51</time>
      </trkpt>
      <trkpt lat="40.55942" lon="-3.71334">
        <ele>736.4</ele>
        <time>2021-11-16 09:52:52</time>
      </trkpt>
      <trkpt lat="40.55947" lon="-3.71338">
        <ele>736.4</ele>
        <time>2021-11-16 09:52:53</time>
      </trkpt>
      <trkpt lat="40.55951" lon="-3.71341">
        <ele>736.4</ele>
        <time>2021-11-16 09:52:54</time>
      </trkpt>
      <trkpt lat="40.55955" lon="-3.71344">
        <ele>736.2</ele>
        <time>2021-11-16 09:52:55</time>
      </trkpt>
      <trkpt lat="40.55958" lon="-3.71347">
        <ele>736.4</ele>
        <time>2021-11-16 09:52:56</time>
      </trkpt>
      <trkpt lat="40.55962" lon="-3.71351">
        <ele>736.4</ele>
        <time>2021-11-16 09:52:57</time>
      </trkpt>
      <trkpt lat="40.55965" lon="-3.71354">
        <ele>736.2</ele>
        <time>2021-11-16 09:52:58</time>
      </trkpt>
      <trkpt lat="40.55967" lon="-3.71358">
        <ele>736.2</ele>
        <time>2021-11-16 09:52:59</time>
      </trkpt>
      <trkpt lat="40.5597" lon="-3.71362">
        <ele>736.4</ele>
        <time>2021-11-16 09:53:00</time>
      </trkpt>
      <trkpt lat="40.55972" lon="-3.71366">
        <ele>737</ele>
        <time>2021-11-16 09:53:01</time>
      </trkpt>
      <trkpt lat="40.55974" lon="-3.71371">
        <ele>738</ele>
        <time>2021-11-16 09:53:02</time>
      </trkpt>
      <trkpt lat="40.55977" lon="-3.71375">
        <ele>738.8</ele>
        <time>2021-11-16 09:53:03</time>
      </trkpt>
      <trkpt lat="40.55979" lon="-3.71379">
        <ele>739.2</ele>
        <time>2021-11-16 09:53:04</time>
      </trkpt>
      <trkpt lat="40.55982" lon="-3.71383">
        <ele>739.8</ele>
        <time>2021-11-16 09:53:05</time>
      </trkpt>
      <trkpt lat="40.55985" lon="-3.71386">
        <ele>740.2</ele>
        <time>2021-11-16 09:53:06</time>
      </trkpt>
      <trkpt lat="40.55988" lon="-3.71389">
        <ele>740.6</ele>
        <time>2021-11-16 09:53:07</time>
      </trkpt>
      <trkpt lat="40.55991" lon="-3.71393">
        <ele>741.2</ele>
        <time>2021-11-16 09:53:08</time>
      </trkpt>
      <trkpt lat="40.55994" lon="-3.71396">
        <ele>741.4</ele>
        <time>2021-11-16 09:53:09</time>
      </trkpt>
      <trkpt lat="40.55998" lon="-3.71398">
        <ele>742</ele>
        <time>2021-11-16 09:53:10</time>
      </trkpt>
      <trkpt lat="40.56002" lon="-3.714">
        <ele>742</ele>
        <time>2021-11-16 09:53:11</time>
      </trkpt>
      <trkpt lat="40.56005" lon="-3.71402">
        <ele>742.6</ele>
        <time>2021-11-16 09:53:12</time>
      </trkpt>
      <trkpt lat="40.56009" lon="-3.71402">
        <ele>743.2</ele>
        <time>2021-11-16 09:53:13</time>
      </trkpt>
      <trkpt lat="40.56014" lon="-3.71403">
        <ele>743.4</ele>
        <time>2021-11-16 09:53:14</time>
      </trkpt>
      <trkpt lat="40.56018" lon="-3.71404">
        <ele>743.6</ele>
        <time>2021-11-16 09:53:15</time>
      </trkpt>
      <trkpt lat="40.56022" lon="-3.71404">
        <ele>743.8</ele>
        <time>2021-11-16 09:53:16</time>
      </trkpt>
      <trkpt lat="40.56027" lon="-3.71405">
        <ele>744</ele>
        <time>2021-11-16 09:53:17</time>
      </trkpt>
      <trkpt lat="40.56031" lon="-3.71405">
        <ele>744.4</ele>
        <time>2021-11-16 09:53:18</time>
      </trkpt>
      <trkpt lat="40.56036" lon="-3.71406">
        <ele>744.6</ele>
        <time>2021-11-16 09:53:19</time>
      </trkpt>
      <trkpt lat="40.5604" lon="-3.71406">
        <ele>744.8</ele>
        <time>2021-11-16 09:53:20</time>
      </trkpt>
      <trkpt lat="40.56045" lon="-3.71407">
        <ele>745.2</ele>
        <time>2021-11-16 09:53:21</time>
      </trkpt>
      <trkpt lat="40.5605" lon="-3.71407">
        <ele>745.2</ele>
        <time>2021-11-16 09:53:22</time>
      </trkpt>
      <trkpt lat="40.56055" lon="-3.71408">
        <ele>745.4</ele>
        <time>2021-11-16 09:53:23</time>
      </trkpt>
      <trkpt lat="40.5606" lon="-3.71409">
        <ele>745.4</ele>
        <time>2021-11-16 09:53:24</time>
      </trkpt>
      <trkpt lat="40.56065" lon="-3.7141">
        <ele>745.4</ele>
        <time>2021-11-16 09:53:25</time>
      </trkpt>
      <trkpt lat="40.5607" lon="-3.7141">
        <ele>745.4</ele>
        <time>2021-11-16 09:53:26</time>
      </trkpt>
      <trkpt lat="40.56075" lon="-3.71411">
        <ele>745.4</ele>
        <time>2021-11-16 09:53:27</time>
      </trkpt>
      <trkpt lat="40.56081" lon="-3.71412">
        <ele>745.6</ele>
        <time>2021-11-16 09:53:28</time>
      </trkpt>
      <trkpt lat="40.56086" lon="-3.71412">
        <ele>745.6</ele>
        <time>2021-11-16 09:53:29</time>
      </trkpt>
      <trkpt lat="40.56091" lon="-3.71412">
        <ele>745.6</ele>
        <time>2021-11-16 09:53:30</time>
      </trkpt>
      <trkpt lat="40.56097" lon="-3.71412">
        <ele>745.4</ele>
        <time>2021-11-16 09:53:31</time>
      </trkpt>
      <trkpt lat="40.56102" lon="-3.71412">
        <ele>745.4</ele>
        <time>2021-11-16 09:53:32</time>
      </trkpt>
      <trkpt lat="40.56108" lon="-3.71411">
        <ele>745.4</ele>
        <time>2021-11-16 09:53:33</time>
      </trkpt>
      <trkpt lat="40.56113" lon="-3.71411">
        <ele>745.6</ele>
        <time>2021-11-16 09:53:34</time>
      </trkpt>
      <trkpt lat="40.56119" lon="-3.71411">
        <ele>745.4</ele>
        <time>2021-11-16 09:53:35</time>
      </trkpt>
      <trkpt lat="40.56125" lon="-3.71411">
        <ele>745.4</ele>
        <time>2021-11-16 09:53:36</time>
      </trkpt>
      <trkpt lat="40.56131" lon="-3.71411">
        <ele>745.2</ele>
        <time>2021-11-16 09:53:37</time>
      </trkpt>
      <trkpt lat="40.56137" lon="-3.71411">
        <ele>745.4</ele>
        <time>2021-11-16 09:53:38</time>
      </trkpt>
      <trkpt lat="40.56143" lon="-3.71412">
        <ele>745.2</ele>
        <time>2021-11-16 09:53:39</time>
      </trkpt>
      <trkpt lat="40.56149" lon="-3.71412">
        <ele>745</ele>
        <time>2021-11-16 09:53:40</time>
      </trkpt>
      <trkpt lat="40.56155" lon="-3.71413">
        <ele>745</ele>
        <time>2021-11-16 09:53:41</time>
      </trkpt>
      <trkpt lat="40.56161" lon="-3.71413">
        <ele>744.8</ele>
        <time>2021-11-16 09:53:42</time>
      </trkpt>
      <trkpt lat="40.56167" lon="-3.71414">
        <ele>744.8</ele>
        <time>2021-11-16 09:53:43</time>
      </trkpt>
      <trkpt lat="40.56174" lon="-3.71415">
        <ele>744.8</ele>
        <time>2021-11-16 09:53:44</time>
      </trkpt>
      <trkpt lat="40.5618" lon="-3.71416">
        <ele>744.6</ele>
        <time>2021-11-16 09:53:45</time>
      </trkpt>
      <trkpt lat="40.56186" lon="-3.71417">
        <ele>744.6</ele>
        <time>2021-11-16 09:53:46</time>
      </trkpt>
      <trkpt lat="40.56192" lon="-3.71419">
        <ele>744.6</ele>
        <time>2021-11-16 09:53:47</time>
      </trkpt>
      <trkpt lat="40.56198" lon="-3.7142">
        <ele>744.6</ele>
        <time>2021-11-16 09:53:48</time>
      </trkpt>
      <trkpt lat="40.56204" lon="-3.71421">
        <ele>744.6</ele>
        <time>2021-11-16 09:53:49</time>
      </trkpt>
      <trkpt lat="40.5621" lon="-3.71423">
        <ele>744.4</ele>
        <time>2021-11-16 09:53:50</time>
      </trkpt>
      <trkpt lat="40.56216" lon="-3.71425">
        <ele>744.4</ele>
        <time>2021-11-16 09:53:51</time>
      </trkpt>
      <trkpt lat="40.56222" lon="-3.71427">
        <ele>744.6</ele>
        <time>2021-11-16 09:53:52</time>
      </trkpt>
      <trkpt lat="40.56227" lon="-3.71428">
        <ele>744.4</ele>
        <time>2021-11-16 09:53:53</time>
      </trkpt>
      <trkpt lat="40.56232" lon="-3.71429">
        <ele>744.6</ele>
        <time>2021-11-16 09:53:54</time>
      </trkpt>
      <trkpt lat="40.56238" lon="-3.71431">
        <ele>744.6</ele>
        <time>2021-11-16 09:53:55</time>
      </trkpt>
      <trkpt lat="40.56243" lon="-3.71432">
        <ele>744.6</ele>
        <time>2021-11-16 09:53:56</time>
      </trkpt>
      <trkpt lat="40.56248" lon="-3.71433">
        <ele>744.4</ele>
        <time>2021-11-16 09:53:57</time>
      </trkpt>
      <trkpt lat="40.56253" lon="-3.71435">
        <ele>744.6</ele>
        <time>2021-11-16 09:53:58</time>
      </trkpt>
      <trkpt lat="40.56258" lon="-3.71436">
        <ele>744.8</ele>
        <time>2021-11-16 09:53:59</time>
      </trkpt>
      <trkpt lat="40.56263" lon="-3.71438">
        <ele>745</ele>
        <time>2021-11-16 09:54:00</time>
      </trkpt>
      <trkpt lat="40.56268" lon="-3.71439">
        <ele>745</ele>
        <time>2021-11-16 09:54:01</time>
      </trkpt>
      <trkpt lat="40.56273" lon="-3.71441">
        <ele>745.2</ele>
        <time>2021-11-16 09:54:02</time>
      </trkpt>
      <trkpt lat="40.56277" lon="-3.71442">
        <ele>745.6</ele>
        <time>2021-11-16 09:54:03</time>
      </trkpt>
      <trkpt lat="40.56282" lon="-3.71444">
        <ele>745.8</ele>
        <time>2021-11-16 09:54:04</time>
      </trkpt>
      <trkpt lat="40.56287" lon="-3.71445">
        <ele>746.2</ele>
        <time>2021-11-16 09:54:05</time>
      </trkpt>
      <trkpt lat="40.56291" lon="-3.71446">
        <ele>746.2</ele>
        <time>2021-11-16 09:54:06</time>
      </trkpt>
      <trkpt lat="40.56296" lon="-3.71447">
        <ele>746.6</ele>
        <time>2021-11-16 09:54:07</time>
      </trkpt>
      <trkpt lat="40.56301" lon="-3.71447">
        <ele>747</ele>
        <time>2021-11-16 09:54:08</time>
      </trkpt>
      <trkpt lat="40.56305" lon="-3.71448">
        <ele>747.4</ele>
        <time>2021-11-16 09:54:09</time>
      </trkpt>
      <trkpt lat="40.5631" lon="-3.71448">
        <ele>747.4</ele>
        <time>2021-11-16 09:54:10</time>
      </trkpt>
      <trkpt lat="40.56314" lon="-3.71448">
        <ele>747.8</ele>
        <time>2021-11-16 09:54:11</time>
      </trkpt>
      <trkpt lat="40.56319" lon="-3.71447">
        <ele>747.8</ele>
        <time>2021-11-16 09:54:12</time>
      </trkpt>
      <trkpt lat="40.56323" lon="-3.71447">
        <ele>748.2</ele>
        <time>2021-11-16 09:54:13</time>
      </trkpt>
      <trkpt lat="40.56327" lon="-3.71446">
        <ele>748.2</ele>
        <time>2021-11-16 09:54:14</time>
      </trkpt>
      <trkpt lat="40.56332" lon="-3.71446">
        <ele>748.2</ele>
        <time>2021-11-16 09:54:15</time>
      </trkpt>
      <trkpt lat="40.56336" lon="-3.71446">
        <ele>748.4</ele>
        <time>2021-11-16 09:54:16</time>
      </trkpt>
      <trkpt lat="40.56341" lon="-3.71445">
        <ele>748.6</ele>
        <time>2021-11-16 09:54:17</time>
      </trkpt>
      <trkpt lat="40.56345" lon="-3.71445">
        <ele>748.6</ele>
        <time>2021-11-16 09:54:18</time>
      </trkpt>
      <trkpt lat="40.56349" lon="-3.71445">
        <ele>749</ele>
        <time>2021-11-16 09:54:19</time>
      </trkpt>
      <trkpt lat="40.56354" lon="-3.71445">
        <ele>749.4</ele>
        <time>2021-11-16 09:54:20</time>
      </trkpt>
      <trkpt lat="40.56358" lon="-3.71446">
        <ele>749.6</ele>
        <time>2021-11-16 09:54:21</time>
      </trkpt>
      <trkpt lat="40.56363" lon="-3.71446">
        <ele>749.8</ele>
        <time>2021-11-16 09:54:22</time>
      </trkpt>
      <trkpt lat="40.56367" lon="-3.71447">
        <ele>750.2</ele>
        <time>2021-11-16 09:54:23</time>
      </trkpt>
      <trkpt lat="40.56372" lon="-3.71448">
        <ele>750.2</ele>
        <time>2021-11-16 09:54:24</time>
      </trkpt>
      <trkpt lat="40.56376" lon="-3.71448">
        <ele>750.2</ele>
        <time>2021-11-16 09:54:25</time>
      </trkpt>
      <trkpt lat="40.56381" lon="-3.71449">
        <ele>750.6</ele>
        <time>2021-11-16 09:54:26</time>
      </trkpt>
      <trkpt lat="40.56386" lon="-3.7145">
        <ele>750.6</ele>
        <time>2021-11-16 09:54:27</time>
      </trkpt>
      <trkpt lat="40.5639" lon="-3.7145">
        <ele>750.8</ele>
        <time>2021-11-16 09:54:28</time>
      </trkpt>
      <trkpt lat="40.56395" lon="-3.71451">
        <ele>751</ele>
        <time>2021-11-16 09:54:29</time>
      </trkpt>
      <trkpt lat="40.564" lon="-3.71452">
        <ele>751</ele>
        <time>2021-11-16 09:54:30</time>
      </trkpt>
      <trkpt lat="40.56404" lon="-3.71453">
        <ele>751</ele>
        <time>2021-11-16 09:54:31</time>
      </trkpt>
      <trkpt lat="40.56409" lon="-3.71454">
        <ele>751.2</ele>
        <time>2021-11-16 09:54:32</time>
      </trkpt>
      <trkpt lat="40.56414" lon="-3.71455">
        <ele>751.2</ele>
        <time>2021-11-16 09:54:33</time>
      </trkpt>
      <trkpt lat="40.56419" lon="-3.71457">
        <ele>751.4</ele>
        <time>2021-11-16 09:54:34</time>
      </trkpt>
      <trkpt lat="40.56424" lon="-3.71458">
        <ele>751.4</ele>
        <time>2021-11-16 09:54:35</time>
      </trkpt>
      <trkpt lat="40.56429" lon="-3.7146">
        <ele>751.6</ele>
        <time>2021-11-16 09:54:36</time>
      </trkpt>
      <trkpt lat="40.56434" lon="-3.71461">
        <ele>751.6</ele>
        <time>2021-11-16 09:54:37</time>
      </trkpt>
      <trkpt lat="40.56439" lon="-3.71462">
        <ele>751.6</ele>
        <time>2021-11-16 09:54:38</time>
      </trkpt>
      <trkpt lat="40.56444" lon="-3.71462">
        <ele>751.8</ele>
        <time>2021-11-16 09:54:39</time>
      </trkpt>
      <trkpt lat="40.56449" lon="-3.71462">
        <ele>751.8</ele>
        <time>2021-11-16 09:54:40</time>
      </trkpt>
      <trkpt lat="40.56455" lon="-3.71462">
        <ele>751.6</ele>
        <time>2021-11-16 09:54:41</time>
      </trkpt>
      <trkpt lat="40.5646" lon="-3.71461">
        <ele>751.6</ele>
        <time>2021-11-16 09:54:42</time>
      </trkpt>
      <trkpt lat="40.56465" lon="-3.71461">
        <ele>751.8</ele>
        <time>2021-11-16 09:54:43</time>
      </trkpt>
      <trkpt lat="40.56471" lon="-3.71461">
        <ele>752</ele>
        <time>2021-11-16 09:54:44</time>
      </trkpt>
      <trkpt lat="40.56476" lon="-3.71461">
        <ele>752</ele>
        <time>2021-11-16 09:54:45</time>
      </trkpt>
      <trkpt lat="40.56482" lon="-3.71461">
        <ele>752</ele>
        <time>2021-11-16 09:54:46</time>
      </trkpt>
      <trkpt lat="40.56487" lon="-3.71461">
        <ele>752</ele>
        <time>2021-11-16 09:54:47</time>
      </trkpt>
      <trkpt lat="40.56493" lon="-3.71461">
        <ele>752</ele>
        <time>2021-11-16 09:54:48</time>
      </trkpt>
      <trkpt lat="40.56499" lon="-3.7146">
        <ele>752.2</ele>
        <time>2021-11-16 09:54:49</time>
      </trkpt>
      <trkpt lat="40.56504" lon="-3.71459">
        <ele>752.2</ele>
        <time>2021-11-16 09:54:50</time>
      </trkpt>
      <trkpt lat="40.56509" lon="-3.71457">
        <ele>752.2</ele>
        <time>2021-11-16 09:54:51</time>
      </trkpt>
      <trkpt lat="40.56515" lon="-3.71456">
        <ele>752.4</ele>
        <time>2021-11-16 09:54:52</time>
      </trkpt>
      <trkpt lat="40.5652" lon="-3.71455">
        <ele>752.2</ele>
        <time>2021-11-16 09:54:53</time>
      </trkpt>
      <trkpt lat="40.56525" lon="-3.71454">
        <ele>752.4</ele>
        <time>2021-11-16 09:54:54</time>
      </trkpt>
      <trkpt lat="40.5653" lon="-3.71453">
        <ele>752.4</ele>
        <time>2021-11-16 09:54:55</time>
      </trkpt>
      <trkpt lat="40.56535" lon="-3.71452">
        <ele>752.4</ele>
        <time>2021-11-16 09:54:56</time>
      </trkpt>
      <trkpt lat="40.56539" lon="-3.71451">
        <ele>752.4</ele>
        <time>2021-11-16 09:54:57</time>
      </trkpt>
      <trkpt lat="40.56543" lon="-3.7145">
        <ele>752.6</ele>
        <time>2021-11-16 09:54:58</time>
      </trkpt>
      <trkpt lat="40.56547" lon="-3.71448">
        <ele>752.8</ele>
        <time>2021-11-16 09:54:59</time>
      </trkpt>
      <trkpt lat="40.56551" lon="-3.71445">
        <ele>752.8</ele>
        <time>2021-11-16 09:55:00</time>
      </trkpt>
      <trkpt lat="40.56555" lon="-3.71443">
        <ele>752.8</ele>
        <time>2021-11-16 09:55:01</time>
      </trkpt>
      <trkpt lat="40.56559" lon="-3.71441">
        <ele>753</ele>
        <time>2021-11-16 09:55:02</time>
      </trkpt>
      <trkpt lat="40.56563" lon="-3.71438">
        <ele>753</ele>
        <time>2021-11-16 09:55:03</time>
      </trkpt>
      <trkpt lat="40.56567" lon="-3.71436">
        <ele>753</ele>
        <time>2021-11-16 09:55:04</time>
      </trkpt>
      <trkpt lat="40.56571" lon="-3.71433">
        <ele>753.4</ele>
        <time>2021-11-16 09:55:05</time>
      </trkpt>
      <trkpt lat="40.56574" lon="-3.71431">
        <ele>754</ele>
        <time>2021-11-16 09:55:06</time>
      </trkpt>
      <trkpt lat="40.56578" lon="-3.71428">
        <ele>754.4</ele>
        <time>2021-11-16 09:55:07</time>
      </trkpt>
      <trkpt lat="40.56582" lon="-3.71426">
        <ele>755</ele>
        <time>2021-11-16 09:55:08</time>
      </trkpt>
      <trkpt lat="40.56585" lon="-3.71423">
        <ele>755</ele>
        <time>2021-11-16 09:55:09</time>
      </trkpt>
      <trkpt lat="40.56588" lon="-3.7142">
        <ele>755</ele>
        <time>2021-11-16 09:55:10</time>
      </trkpt>
      <trkpt lat="40.56592" lon="-3.71416">
        <ele>755.4</ele>
        <time>2021-11-16 09:55:11</time>
      </trkpt>
      <trkpt lat="40.56595" lon="-3.71413">
        <ele>755.6</ele>
        <time>2021-11-16 09:55:12</time>
      </trkpt>
      <trkpt lat="40.56599" lon="-3.7141">
        <ele>756.2</ele>
        <time>2021-11-16 09:55:13</time>
      </trkpt>
      <trkpt lat="40.56603" lon="-3.71407">
        <ele>756.4</ele>
        <time>2021-11-16 09:55:14</time>
      </trkpt>
      <trkpt lat="40.56607" lon="-3.71404">
        <ele>756.8</ele>
        <time>2021-11-16 09:55:15</time>
      </trkpt>
      <trkpt lat="40.56611" lon="-3.71401">
        <ele>757</ele>
        <time>2021-11-16 09:55:16</time>
      </trkpt>
      <trkpt lat="40.56615" lon="-3.71397">
        <ele>757.4</ele>
        <time>2021-11-16 09:55:17</time>
      </trkpt>
      <trkpt lat="40.56618" lon="-3.71394">
        <ele>757.2</ele>
        <time>2021-11-16 09:55:18</time>
      </trkpt>
      <trkpt lat="40.56622" lon="-3.7139">
        <ele>757.8</ele>
        <time>2021-11-16 09:55:19</time>
      </trkpt>
      <trkpt lat="40.56625" lon="-3.71385">
        <ele>758</ele>
        <time>2021-11-16 09:55:20</time>
      </trkpt>
      <trkpt lat="40.56629" lon="-3.71381">
        <ele>758</ele>
        <time>2021-11-16 09:55:21</time>
      </trkpt>
      <trkpt lat="40.56632" lon="-3.71377">
        <ele>758</ele>
        <time>2021-11-16 09:55:22</time>
      </trkpt>
      <trkpt lat="40.56636" lon="-3.71372">
        <ele>758</ele>
        <time>2021-11-16 09:55:23</time>
      </trkpt>
      <trkpt lat="40.56641" lon="-3.71367">
        <ele>758</ele>
        <time>2021-11-16 09:55:24</time>
      </trkpt>
      <trkpt lat="40.56646" lon="-3.71362">
        <ele>758.2</ele>
        <time>2021-11-16 09:55:25</time>
      </trkpt>
      <trkpt lat="40.56652" lon="-3.71356">
        <ele>758.2</ele>
        <time>2021-11-16 09:55:26</time>
      </trkpt>
      <trkpt lat="40.5666" lon="-3.71349">
        <ele>758.2</ele>
        <time>2021-11-16 09:55:27</time>
      </trkpt>
      <trkpt lat="40.56668" lon="-3.71341">
        <ele>758.2</ele>
        <time>2021-11-16 09:55:28</time>
      </trkpt>
      <trkpt lat="40.56676" lon="-3.71334">
        <ele>758.2</ele>
        <time>2021-11-16 09:55:29</time>
      </trkpt>
      <trkpt lat="40.56684" lon="-3.71327">
        <ele>758.2</ele>
        <time>2021-11-16 09:55:30</time>
      </trkpt>
      <trkpt lat="40.56692" lon="-3.7132">
        <ele>758</ele>
        <time>2021-11-16 09:55:31</time>
      </trkpt>
      <trkpt lat="40.567" lon="-3.71312">
        <ele>757.6</ele>
        <time>2021-11-16 09:55:32</time>
      </trkpt>
      <trkpt lat="40.56707" lon="-3.71305">
        <ele>756.8</ele>
        <time>2021-11-16 09:55:33</time>
      </trkpt>
      <trkpt lat="40.56715" lon="-3.71297">
        <ele>755.8</ele>
        <time>2021-11-16 09:55:34</time>
      </trkpt>
      <trkpt lat="40.56723" lon="-3.71289">
        <ele>754.4</ele>
        <time>2021-11-16 09:55:35</time>
      </trkpt>
      <trkpt lat="40.56731" lon="-3.71281">
        <ele>752.4</ele>
        <time>2021-11-16 09:55:36</time>
      </trkpt>
      <trkpt lat="40.56739" lon="-3.71273">
        <ele>751</ele>
        <time>2021-11-16 09:55:37</time>
      </trkpt>
      <trkpt lat="40.56748" lon="-3.71267">
        <ele>750.2</ele>
        <time>2021-11-16 09:55:38</time>
      </trkpt>
      <trkpt lat="40.56757" lon="-3.7126">
        <ele>750.2</ele>
        <time>2021-11-16 09:55:39</time>
      </trkpt>
      <trkpt lat="40.56765" lon="-3.71254">
        <ele>749</ele>
        <time>2021-11-16 09:55:40</time>
      </trkpt>
      <trkpt lat="40.56774" lon="-3.71248">
        <ele>748.8</ele>
        <time>2021-11-16 09:55:41</time>
      </trkpt>
      <trkpt lat="40.56783" lon="-3.71242">
        <ele>747.8</ele>
        <time>2021-11-16 09:55:42</time>
      </trkpt>
      <trkpt lat="40.56791" lon="-3.71236">
        <ele>747.4</ele>
        <time>2021-11-16 09:55:43</time>
      </trkpt>
      <trkpt lat="40.568" lon="-3.71231">
        <ele>747</ele>
        <time>2021-11-16 09:55:44</time>
      </trkpt>
      <trkpt lat="40.56808" lon="-3.71225">
        <ele>746.4</ele>
        <time>2021-11-16 09:55:45</time>
      </trkpt>
      <trkpt lat="40.56816" lon="-3.7122">
        <ele>746.2</ele>
        <time>2021-11-16 09:55:46</time>
      </trkpt>
      <trkpt lat="40.56824" lon="-3.71215">
        <ele>745.8</ele>
        <time>2021-11-16 09:55:47</time>
      </trkpt>
      <trkpt lat="40.56832" lon="-3.7121">
        <ele>745.6</ele>
        <time>2021-11-16 09:55:48</time>
      </trkpt>
      <trkpt lat="40.56839" lon="-3.71204">
        <ele>745.4</ele>
        <time>2021-11-16 09:55:49</time>
      </trkpt>
      <trkpt lat="40.56847" lon="-3.71199">
        <ele>745.2</ele>
        <time>2021-11-16 09:55:50</time>
      </trkpt>
      <trkpt lat="40.56854" lon="-3.71193">
        <ele>744.8</ele>
        <time>2021-11-16 09:55:51</time>
      </trkpt>
      <trkpt lat="40.56862" lon="-3.71188">
        <ele>744.8</ele>
        <time>2021-11-16 09:55:52</time>
      </trkpt>
      <trkpt lat="40.56869" lon="-3.71183">
        <ele>744.6</ele>
        <time>2021-11-16 09:55:53</time>
      </trkpt>
      <trkpt lat="40.56877" lon="-3.71178">
        <ele>744.4</ele>
        <time>2021-11-16 09:55:54</time>
      </trkpt>
      <trkpt lat="40.56885" lon="-3.71173">
        <ele>744.2</ele>
        <time>2021-11-16 09:55:55</time>
      </trkpt>
      <trkpt lat="40.56893" lon="-3.71169">
        <ele>744.2</ele>
        <time>2021-11-16 09:55:56</time>
      </trkpt>
      <trkpt lat="40.56902" lon="-3.71165">
        <ele>744.2</ele>
        <time>2021-11-16 09:55:57</time>
      </trkpt>
      <trkpt lat="40.5691" lon="-3.71161">
        <ele>744</ele>
        <time>2021-11-16 09:55:58</time>
      </trkpt>
      <trkpt lat="40.56919" lon="-3.71158">
        <ele>744</ele>
        <time>2021-11-16 09:55:59</time>
      </trkpt>
      <trkpt lat="40.56927" lon="-3.71155">
        <ele>744</ele>
        <time>2021-11-16 09:56:00</time>
      </trkpt>
      <trkpt lat="40.56935" lon="-3.71151">
        <ele>744</ele>
        <time>2021-11-16 09:56:01</time>
      </trkpt>
      <trkpt lat="40.56943" lon="-3.71147">
        <ele>743.8</ele>
        <time>2021-11-16 09:56:02</time>
      </trkpt>
      <trkpt lat="40.56951" lon="-3.71143">
        <ele>743.4</ele>
        <time>2021-11-16 09:56:03</time>
      </trkpt>
      <trkpt lat="40.56959" lon="-3.71138">
        <ele>743</ele>
        <time>2021-11-16 09:56:04</time>
      </trkpt>
      <trkpt lat="40.56967" lon="-3.71133">
        <ele>743</ele>
        <time>2021-11-16 09:56:05</time>
      </trkpt>
      <trkpt lat="40.56974" lon="-3.71127">
        <ele>742.6</ele>
        <time>2021-11-16 09:56:06</time>
      </trkpt>
      <trkpt lat="40.56982" lon="-3.71121">
        <ele>742.2</ele>
        <time>2021-11-16 09:56:07</time>
      </trkpt>
      <trkpt lat="40.56989" lon="-3.71116">
        <ele>742.2</ele>
        <time>2021-11-16 09:56:08</time>
      </trkpt>
      <trkpt lat="40.56997" lon="-3.71111">
        <ele>742</ele>
        <time>2021-11-16 09:56:09</time>
      </trkpt>
      <trkpt lat="40.57005" lon="-3.71107">
        <ele>741.8</ele>
        <time>2021-11-16 09:56:10</time>
      </trkpt>
      <trkpt lat="40.57013" lon="-3.71102">
        <ele>741.6</ele>
        <time>2021-11-16 09:56:11</time>
      </trkpt>
      <trkpt lat="40.5702" lon="-3.71097">
        <ele>741.4</ele>
        <time>2021-11-16 09:56:12</time>
      </trkpt>
      <trkpt lat="40.57028" lon="-3.71093">
        <ele>741.2</ele>
        <time>2021-11-16 09:56:13</time>
      </trkpt>
      <trkpt lat="40.57036" lon="-3.71088">
        <ele>741</ele>
        <time>2021-11-16 09:56:14</time>
      </trkpt>
      <trkpt lat="40.57044" lon="-3.71084">
        <ele>741</ele>
        <time>2021-11-16 09:56:15</time>
      </trkpt>
      <trkpt lat="40.57052" lon="-3.71079">
        <ele>740.8</ele>
        <time>2021-11-16 09:56:16</time>
      </trkpt>
      <trkpt lat="40.5706" lon="-3.71074">
        <ele>740.4</ele>
        <time>2021-11-16 09:56:17</time>
      </trkpt>
      <trkpt lat="40.57067" lon="-3.71069">
        <ele>740.4</ele>
        <time>2021-11-16 09:56:18</time>
      </trkpt>
      <trkpt lat="40.57075" lon="-3.71064">
        <ele>740.2</ele>
        <time>2021-11-16 09:56:19</time>
      </trkpt>
      <trkpt lat="40.57083" lon="-3.71059">
        <ele>740</ele>
        <time>2021-11-16 09:56:20</time>
      </trkpt>
      <trkpt lat="40.57091" lon="-3.71054">
        <ele>740</ele>
        <time>2021-11-16 09:56:21</time>
      </trkpt>
      <trkpt lat="40.57098" lon="-3.71049">
        <ele>740</ele>
        <time>2021-11-16 09:56:22</time>
      </trkpt>
      <trkpt lat="40.57106" lon="-3.71045">
        <ele>739.6</ele>
        <time>2021-11-16 09:56:23</time>
      </trkpt>
      <trkpt lat="40.57114" lon="-3.7104">
        <ele>739.6</ele>
        <time>2021-11-16 09:56:24</time>
      </trkpt>
      <trkpt lat="40.57122" lon="-3.71036">
        <ele>739</ele>
        <time>2021-11-16 09:56:25</time>
      </trkpt>
      <trkpt lat="40.57129" lon="-3.71033">
        <ele>738.8</ele>
        <time>2021-11-16 09:56:26</time>
      </trkpt>
      <trkpt lat="40.57137" lon="-3.7103">
        <ele>738.8</ele>
        <time>2021-11-16 09:56:27</time>
      </trkpt>
      <trkpt lat="40.57144" lon="-3.71027">
        <ele>738.6</ele>
        <time>2021-11-16 09:56:28</time>
      </trkpt>
      <trkpt lat="40.57151" lon="-3.71025">
        <ele>738.4</ele>
        <time>2021-11-16 09:56:29</time>
      </trkpt>
      <trkpt lat="40.57158" lon="-3.71022">
        <ele>738.4</ele>
        <time>2021-11-16 09:56:30</time>
      </trkpt>
      <trkpt lat="40.57165" lon="-3.7102">
        <ele>738.4</ele>
        <time>2021-11-16 09:56:31</time>
      </trkpt>
      <trkpt lat="40.57171" lon="-3.71017">
        <ele>738.4</ele>
        <time>2021-11-16 09:56:32</time>
      </trkpt>
      <trkpt lat="40.57177" lon="-3.71015">
        <ele>738.4</ele>
        <time>2021-11-16 09:56:33</time>
      </trkpt>
      <trkpt lat="40.57183" lon="-3.71012">
        <ele>738.6</ele>
        <time>2021-11-16 09:56:34</time>
      </trkpt>
      <trkpt lat="40.57189" lon="-3.7101">
        <ele>738.4</ele>
        <time>2021-11-16 09:56:35</time>
      </trkpt>
      <trkpt lat="40.57195" lon="-3.71008">
        <ele>738.4</ele>
        <time>2021-11-16 09:56:36</time>
      </trkpt>
      <trkpt lat="40.57201" lon="-3.71006">
        <ele>738.6</ele>
        <time>2021-11-16 09:56:37</time>
      </trkpt>
      <trkpt lat="40.57207" lon="-3.71004">
        <ele>738.4</ele>
        <time>2021-11-16 09:56:38</time>
      </trkpt>
      <trkpt lat="40.57213" lon="-3.71002">
        <ele>739</ele>
        <time>2021-11-16 09:56:39</time>
      </trkpt>
      <trkpt lat="40.57218" lon="-3.71">
        <ele>739.6</ele>
        <time>2021-11-16 09:56:40</time>
      </trkpt>
      <trkpt lat="40.57224" lon="-3.70998">
        <ele>740.4</ele>
        <time>2021-11-16 09:56:41</time>
      </trkpt>
      <trkpt lat="40.57229" lon="-3.70996">
        <ele>741</ele>
        <time>2021-11-16 09:56:42</time>
      </trkpt>
      <trkpt lat="40.57234" lon="-3.70995">
        <ele>741.4</ele>
        <time>2021-11-16 09:56:43</time>
      </trkpt>
      <trkpt lat="40.5724" lon="-3.70993">
        <ele>741.8</ele>
        <time>2021-11-16 09:56:44</time>
      </trkpt>
      <trkpt lat="40.57246" lon="-3.70991">
        <ele>742.2</ele>
        <time>2021-11-16 09:56:45</time>
      </trkpt>
      <trkpt lat="40.57251" lon="-3.70989">
        <ele>742.4</ele>
        <time>2021-11-16 09:56:46</time>
      </trkpt>
      <trkpt lat="40.57258" lon="-3.70987">
        <ele>742.4</ele>
        <time>2021-11-16 09:56:47</time>
      </trkpt>
      <trkpt lat="40.57264" lon="-3.70985">
        <ele>742.4</ele>
        <time>2021-11-16 09:56:48</time>
      </trkpt>
      <trkpt lat="40.5727" lon="-3.70983">
        <ele>742.4</ele>
        <time>2021-11-16 09:56:49</time>
      </trkpt>
      <trkpt lat="40.57276" lon="-3.70981">
        <ele>742.6</ele>
        <time>2021-11-16 09:56:50</time>
      </trkpt>
      <trkpt lat="40.57283" lon="-3.70979">
        <ele>742.6</ele>
        <time>2021-11-16 09:56:51</time>
      </trkpt>
      <trkpt lat="40.57289" lon="-3.70978">
        <ele>742.6</ele>
        <time>2021-11-16 09:56:52</time>
      </trkpt>
      <trkpt lat="40.57295" lon="-3.70976">
        <ele>742.6</ele>
        <time>2021-11-16 09:56:53</time>
      </trkpt>
      <trkpt lat="40.57302" lon="-3.70975">
        <ele>742.6</ele>
        <time>2021-11-16 09:56:54</time>
      </trkpt>
      <trkpt lat="40.57308" lon="-3.70974">
        <ele>742.8</ele>
        <time>2021-11-16 09:56:55</time>
      </trkpt>
      <trkpt lat="40.57314" lon="-3.70974">
        <ele>742.6</ele>
        <time>2021-11-16 09:56:56</time>
      </trkpt>
      <trkpt lat="40.57321" lon="-3.70974">
        <ele>742.6</ele>
        <time>2021-11-16 09:56:57</time>
      </trkpt>
      <trkpt lat="40.57327" lon="-3.70975">
        <ele>742.6</ele>
        <time>2021-11-16 09:56:58</time>
      </trkpt>
      <trkpt lat="40.57332" lon="-3.70976">
        <ele>742.8</ele>
        <time>2021-11-16 09:56:59</time>
      </trkpt>
      <trkpt lat="40.57338" lon="-3.70976">
        <ele>742.6</ele>
        <time>2021-11-16 09:57:00</time>
      </trkpt>
      <trkpt lat="40.57343" lon="-3.70977">
        <ele>742.6</ele>
        <time>2021-11-16 09:57:01</time>
      </trkpt>
      <trkpt lat="40.57349" lon="-3.70976">
        <ele>742.6</ele>
        <time>2021-11-16 09:57:02</time>
      </trkpt>
      <trkpt lat="40.57354" lon="-3.70976">
        <ele>742.8</ele>
        <time>2021-11-16 09:57:03</time>
      </trkpt>
      <trkpt lat="40.5736" lon="-3.70975">
        <ele>742.6</ele>
        <time>2021-11-16 09:57:04</time>
      </trkpt>
      <trkpt lat="40.57365" lon="-3.70974">
        <ele>743</ele>
        <time>2021-11-16 09:57:05</time>
      </trkpt>
      <trkpt lat="40.57371" lon="-3.70974">
        <ele>742.8</ele>
        <time>2021-11-16 09:57:06</time>
      </trkpt>
      <trkpt lat="40.57376" lon="-3.70973">
        <ele>743.2</ele>
        <time>2021-11-16 09:57:07</time>
      </trkpt>
      <trkpt lat="40.57382" lon="-3.70972">
        <ele>743.8</ele>
        <time>2021-11-16 09:57:08</time>
      </trkpt>
      <trkpt lat="40.57388" lon="-3.70971">
        <ele>744</ele>
        <time>2021-11-16 09:57:09</time>
      </trkpt>
      <trkpt lat="40.57394" lon="-3.70971">
        <ele>744</ele>
        <time>2021-11-16 09:57:10</time>
      </trkpt>
      <trkpt lat="40.574" lon="-3.7097">
        <ele>744.4</ele>
        <time>2021-11-16 09:57:11</time>
      </trkpt>
      <trkpt lat="40.57406" lon="-3.70968">
        <ele>744.6</ele>
        <time>2021-11-16 09:57:12</time>
      </trkpt>
      <trkpt lat="40.57412" lon="-3.70966">
        <ele>744.6</ele>
        <time>2021-11-16 09:57:13</time>
      </trkpt>
      <trkpt lat="40.57417" lon="-3.70962">
        <ele>744.6</ele>
        <time>2021-11-16 09:57:14</time>
      </trkpt>
      <trkpt lat="40.57423" lon="-3.70958">
        <ele>744.6</ele>
        <time>2021-11-16 09:57:15</time>
      </trkpt>
      <trkpt lat="40.57427" lon="-3.70952">
        <ele>744.6</ele>
        <time>2021-11-16 09:57:16</time>
      </trkpt>
      <trkpt lat="40.57432" lon="-3.70947">
        <ele>744.8</ele>
        <time>2021-11-16 09:57:17</time>
      </trkpt>
      <trkpt lat="40.57437" lon="-3.70941">
        <ele>744.6</ele>
        <time>2021-11-16 09:57:18</time>
      </trkpt>
      <trkpt lat="40.57442" lon="-3.70936">
        <ele>744.8</ele>
        <time>2021-11-16 09:57:19</time>
      </trkpt>
      <trkpt lat="40.57448" lon="-3.70932">
        <ele>744.6</ele>
        <time>2021-11-16 09:57:20</time>
      </trkpt>
      <trkpt lat="40.57454" lon="-3.70928">
        <ele>744.8</ele>
        <time>2021-11-16 09:57:21</time>
      </trkpt>
      <trkpt lat="40.5746" lon="-3.70924">
        <ele>744.6</ele>
        <time>2021-11-16 09:57:22</time>
      </trkpt>
      <trkpt lat="40.57465" lon="-3.70921">
        <ele>744.6</ele>
        <time>2021-11-16 09:57:23</time>
      </trkpt>
      <trkpt lat="40.57471" lon="-3.70918">
        <ele>744.4</ele>
        <time>2021-11-16 09:57:24</time>
      </trkpt>
      <trkpt lat="40.57477" lon="-3.70916">
        <ele>744.4</ele>
        <time>2021-11-16 09:57:25</time>
      </trkpt>
      <trkpt lat="40.57483" lon="-3.70913">
        <ele>744.2</ele>
        <time>2021-11-16 09:57:26</time>
      </trkpt>
      <trkpt lat="40.57489" lon="-3.70911">
        <ele>744.2</ele>
        <time>2021-11-16 09:57:27</time>
      </trkpt>
      <trkpt lat="40.57495" lon="-3.70908">
        <ele>744.2</ele>
        <time>2021-11-16 09:57:28</time>
      </trkpt>
      <trkpt lat="40.57501" lon="-3.70905">
        <ele>744.2</ele>
        <time>2021-11-16 09:57:29</time>
      </trkpt>
      <trkpt lat="40.57507" lon="-3.70901">
        <ele>744.2</ele>
        <time>2021-11-16 09:57:30</time>
      </trkpt>
      <trkpt lat="40.57512" lon="-3.70898">
        <ele>744.2</ele>
        <time>2021-11-16 09:57:31</time>
      </trkpt>
      <trkpt lat="40.57518" lon="-3.70895">
        <ele>744</ele>
        <time>2021-11-16 09:57:32</time>
      </trkpt>
      <trkpt lat="40.57524" lon="-3.70891">
        <ele>744</ele>
        <time>2021-11-16 09:57:33</time>
      </trkpt>
      <trkpt lat="40.5753" lon="-3.70887">
        <ele>744</ele>
        <time>2021-11-16 09:57:34</time>
      </trkpt>
      <trkpt lat="40.57535" lon="-3.70882">
        <ele>744</ele>
        <time>2021-11-16 09:57:35</time>
      </trkpt>
      <trkpt lat="40.57541" lon="-3.70878">
        <ele>743.8</ele>
        <time>2021-11-16 09:57:36</time>
      </trkpt>
      <trkpt lat="40.57547" lon="-3.70873">
        <ele>743.8</ele>
        <time>2021-11-16 09:57:37</time>
      </trkpt>
      <trkpt lat="40.57552" lon="-3.70868">
        <ele>743.6</ele>
        <time>2021-11-16 09:57:38</time>
      </trkpt>
      <trkpt lat="40.57558" lon="-3.70863">
        <ele>743.6</ele>
        <time>2021-11-16 09:57:39</time>
      </trkpt>
      <trkpt lat="40.57563" lon="-3.70858">
        <ele>743.6</ele>
        <time>2021-11-16 09:57:40</time>
      </trkpt>
      <trkpt lat="40.57569" lon="-3.70853">
        <ele>743.4</ele>
        <time>2021-11-16 09:57:41</time>
      </trkpt>
      <trkpt lat="40.57575" lon="-3.70847">
        <ele>743.2</ele>
        <time>2021-11-16 09:57:42</time>
      </trkpt>
      <trkpt lat="40.5758" lon="-3.70842">
        <ele>743.2</ele>
        <time>2021-11-16 09:57:43</time>
      </trkpt>
      <trkpt lat="40.57586" lon="-3.70836">
        <ele>743</ele>
        <time>2021-11-16 09:57:44</time>
      </trkpt>
      <trkpt lat="40.57591" lon="-3.70831">
        <ele>743</ele>
        <time>2021-11-16 09:57:45</time>
      </trkpt>
      <trkpt lat="40.57597" lon="-3.70825">
        <ele>743</ele>
        <time>2021-11-16 09:57:46</time>
      </trkpt>
      <trkpt lat="40.57602" lon="-3.70818">
        <ele>742.8</ele>
        <time>2021-11-16 09:57:47</time>
      </trkpt>
      <trkpt lat="40.57607" lon="-3.70812">
        <ele>742.6</ele>
        <time>2021-11-16 09:57:48</time>
      </trkpt>
      <trkpt lat="40.57613" lon="-3.70805">
        <ele>742.4</ele>
        <time>2021-11-16 09:57:49</time>
      </trkpt>
      <trkpt lat="40.57618" lon="-3.70799">
        <ele>742.4</ele>
        <time>2021-11-16 09:57:50</time>
      </trkpt>
      <trkpt lat="40.57624" lon="-3.70793">
        <ele>742.4</ele>
        <time>2021-11-16 09:57:51</time>
      </trkpt>
      <trkpt lat="40.57629" lon="-3.70787">
        <ele>742.4</ele>
        <time>2021-11-16 09:57:52</time>
      </trkpt>
      <trkpt lat="40.57635" lon="-3.7078">
        <ele>742.4</ele>
        <time>2021-11-16 09:57:53</time>
      </trkpt>
      <trkpt lat="40.5764" lon="-3.70774">
        <ele>742.2</ele>
        <time>2021-11-16 09:57:54</time>
      </trkpt>
      <trkpt lat="40.57646" lon="-3.70768">
        <ele>741.8</ele>
        <time>2021-11-16 09:57:55</time>
      </trkpt>
      <trkpt lat="40.57651" lon="-3.70762">
        <ele>741.8</ele>
        <time>2021-11-16 09:57:56</time>
      </trkpt>
      <trkpt lat="40.57657" lon="-3.70757">
        <ele>741.4</ele>
        <time>2021-11-16 09:57:57</time>
      </trkpt>
      <trkpt lat="40.57664" lon="-3.70753">
        <ele>741.4</ele>
        <time>2021-11-16 09:57:58</time>
      </trkpt>
      <trkpt lat="40.57671" lon="-3.70749">
        <ele>741.4</ele>
        <time>2021-11-16 09:57:59</time>
      </trkpt>
      <trkpt lat="40.57677" lon="-3.70745">
        <ele>741.4</ele>
        <time>2021-11-16 09:58:00</time>
      </trkpt>
      <trkpt lat="40.57684" lon="-3.70741">
        <ele>741.2</ele>
        <time>2021-11-16 09:58:01</time>
      </trkpt>
      <trkpt lat="40.57691" lon="-3.70738">
        <ele>741</ele>
        <time>2021-11-16 09:58:02</time>
      </trkpt>
      <trkpt lat="40.57697" lon="-3.70735">
        <ele>741</ele>
        <time>2021-11-16 09:58:03</time>
      </trkpt>
      <trkpt lat="40.57703" lon="-3.70733">
        <ele>741</ele>
        <time>2021-11-16 09:58:04</time>
      </trkpt>
      <trkpt lat="40.5771" lon="-3.7073">
        <ele>740.8</ele>
        <time>2021-11-16 09:58:05</time>
      </trkpt>
      <trkpt lat="40.57716" lon="-3.70728">
        <ele>740.8</ele>
        <time>2021-11-16 09:58:06</time>
      </trkpt>
      <trkpt lat="40.57722" lon="-3.70725">
        <ele>740.8</ele>
        <time>2021-11-16 09:58:07</time>
      </trkpt>
      <trkpt lat="40.57728" lon="-3.70722">
        <ele>740.8</ele>
        <time>2021-11-16 09:58:08</time>
      </trkpt>
      <trkpt lat="40.57734" lon="-3.70718">
        <ele>741</ele>
        <time>2021-11-16 09:58:09</time>
      </trkpt>
      <trkpt lat="40.57739" lon="-3.70714">
        <ele>741</ele>
        <time>2021-11-16 09:58:10</time>
      </trkpt>
      <trkpt lat="40.57745" lon="-3.70709">
        <ele>741.2</ele>
        <time>2021-11-16 09:58:11</time>
      </trkpt>
      <trkpt lat="40.57751" lon="-3.70705">
        <ele>741.2</ele>
        <time>2021-11-16 09:58:12</time>
      </trkpt>
      <trkpt lat="40.57756" lon="-3.70701">
        <ele>741.2</ele>
        <time>2021-11-16 09:58:13</time>
      </trkpt>
      <trkpt lat="40.57762" lon="-3.70697">
        <ele>741.4</ele>
        <time>2021-11-16 09:58:14</time>
      </trkpt>
      <trkpt lat="40.57767" lon="-3.70692">
        <ele>741.6</ele>
        <time>2021-11-16 09:58:15</time>
      </trkpt>
      <trkpt lat="40.57772" lon="-3.70687">
        <ele>741.8</ele>
        <time>2021-11-16 09:58:16</time>
      </trkpt>
      <trkpt lat="40.57778" lon="-3.70683">
        <ele>742</ele>
        <time>2021-11-16 09:58:17</time>
      </trkpt>
      <trkpt lat="40.57784" lon="-3.70679">
        <ele>742.2</ele>
        <time>2021-11-16 09:58:18</time>
      </trkpt>
      <trkpt lat="40.5779" lon="-3.70675">
        <ele>742.2</ele>
        <time>2021-11-16 09:58:19</time>
      </trkpt>
      <trkpt lat="40.57796" lon="-3.70671">
        <ele>742.2</ele>
        <time>2021-11-16 09:58:20</time>
      </trkpt>
      <trkpt lat="40.57802" lon="-3.70667">
        <ele>742.2</ele>
        <time>2021-11-16 09:58:21</time>
      </trkpt>
      <trkpt lat="40.57808" lon="-3.70664">
        <ele>742.4</ele>
        <time>2021-11-16 09:58:22</time>
      </trkpt>
      <trkpt lat="40.57814" lon="-3.7066">
        <ele>742.4</ele>
        <time>2021-11-16 09:58:23</time>
      </trkpt>
      <trkpt lat="40.57821" lon="-3.70657">
        <ele>742.6</ele>
        <time>2021-11-16 09:58:24</time>
      </trkpt>
      <trkpt lat="40.57827" lon="-3.70653">
        <ele>742.8</ele>
        <time>2021-11-16 09:58:25</time>
      </trkpt>
      <trkpt lat="40.57833" lon="-3.7065">
        <ele>742.8</ele>
        <time>2021-11-16 09:58:26</time>
      </trkpt>
      <trkpt lat="40.57839" lon="-3.70646">
        <ele>742.6</ele>
        <time>2021-11-16 09:58:27</time>
      </trkpt>
      <trkpt lat="40.57845" lon="-3.70643">
        <ele>742.4</ele>
        <time>2021-11-16 09:58:28</time>
      </trkpt>
      <trkpt lat="40.57851" lon="-3.70639">
        <ele>742.4</ele>
        <time>2021-11-16 09:58:29</time>
      </trkpt>
      <trkpt lat="40.57857" lon="-3.70636">
        <ele>742.4</ele>
        <time>2021-11-16 09:58:30</time>
      </trkpt>
      <trkpt lat="40.57863" lon="-3.70632">
        <ele>742.6</ele>
        <time>2021-11-16 09:58:31</time>
      </trkpt>
      <trkpt lat="40.57869" lon="-3.70628">
        <ele>742.4</ele>
        <time>2021-11-16 09:58:32</time>
      </trkpt>
      <trkpt lat="40.57875" lon="-3.70625">
        <ele>742.6</ele>
        <time>2021-11-16 09:58:33</time>
      </trkpt>
      <trkpt lat="40.57881" lon="-3.70621">
        <ele>742.4</ele>
        <time>2021-11-16 09:58:34</time>
      </trkpt>
      <trkpt lat="40.57887" lon="-3.70618">
        <ele>742.2</ele>
        <time>2021-11-16 09:58:35</time>
      </trkpt>
      <trkpt lat="40.57893" lon="-3.70615">
        <ele>742.2</ele>
        <time>2021-11-16 09:58:36</time>
      </trkpt>
      <trkpt lat="40.579" lon="-3.70613">
        <ele>742.2</ele>
        <time>2021-11-16 09:58:37</time>
      </trkpt>
      <trkpt lat="40.57906" lon="-3.7061">
        <ele>742.4</ele>
        <time>2021-11-16 09:58:38</time>
      </trkpt>
      <trkpt lat="40.57913" lon="-3.70608">
        <ele>742.2</ele>
        <time>2021-11-16 09:58:39</time>
      </trkpt>
      <trkpt lat="40.57919" lon="-3.70606">
        <ele>742.4</ele>
        <time>2021-11-16 09:58:40</time>
      </trkpt>
      <trkpt lat="40.57926" lon="-3.70604">
        <ele>742.4</ele>
        <time>2021-11-16 09:58:41</time>
      </trkpt>
      <trkpt lat="40.57932" lon="-3.70602">
        <ele>742.4</ele>
        <time>2021-11-16 09:58:42</time>
      </trkpt>
      <trkpt lat="40.57938" lon="-3.706">
        <ele>742.4</ele>
        <time>2021-11-16 09:58:43</time>
      </trkpt>
      <trkpt lat="40.57945" lon="-3.70598">
        <ele>742.4</ele>
        <time>2021-11-16 09:58:44</time>
      </trkpt>
      <trkpt lat="40.57951" lon="-3.70597">
        <ele>742.2</ele>
        <time>2021-11-16 09:58:45</time>
      </trkpt>
      <trkpt lat="40.57957" lon="-3.70596">
        <ele>742.4</ele>
        <time>2021-11-16 09:58:46</time>
      </trkpt>
      <trkpt lat="40.57963" lon="-3.70596">
        <ele>742.6</ele>
        <time>2021-11-16 09:58:47</time>
      </trkpt>
      <trkpt lat="40.57969" lon="-3.70595">
        <ele>742.6</ele>
        <time>2021-11-16 09:58:48</time>
      </trkpt>
      <trkpt lat="40.57975" lon="-3.70595">
        <ele>742.6</ele>
        <time>2021-11-16 09:58:49</time>
      </trkpt>
      <trkpt lat="40.57981" lon="-3.70595">
        <ele>742.6</ele>
        <time>2021-11-16 09:58:50</time>
      </trkpt>
      <trkpt lat="40.57987" lon="-3.70596">
        <ele>742.8</ele>
        <time>2021-11-16 09:58:51</time>
      </trkpt>
      <trkpt lat="40.57993" lon="-3.70596">
        <ele>743</ele>
        <time>2021-11-16 09:58:52</time>
      </trkpt>
      <trkpt lat="40.57999" lon="-3.70597">
        <ele>743.2</ele>
        <time>2021-11-16 09:58:53</time>
      </trkpt>
      <trkpt lat="40.58004" lon="-3.70597">
        <ele>743.4</ele>
        <time>2021-11-16 09:58:54</time>
      </trkpt>
      <trkpt lat="40.5801" lon="-3.70598">
        <ele>743.4</ele>
        <time>2021-11-16 09:58:55</time>
      </trkpt>
      <trkpt lat="40.58015" lon="-3.70598">
        <ele>743.6</ele>
        <time>2021-11-16 09:58:56</time>
      </trkpt>
      <trkpt lat="40.58021" lon="-3.70599">
        <ele>744</ele>
        <time>2021-11-16 09:58:57</time>
      </trkpt>
      <trkpt lat="40.58027" lon="-3.70599">
        <ele>744</ele>
        <time>2021-11-16 09:58:58</time>
      </trkpt>
      <trkpt lat="40.58032" lon="-3.706">
        <ele>744.2</ele>
        <time>2021-11-16 09:58:59</time>
      </trkpt>
      <trkpt lat="40.58038" lon="-3.706">
        <ele>744.2</ele>
        <time>2021-11-16 09:59:00</time>
      </trkpt>
      <trkpt lat="40.58044" lon="-3.706">
        <ele>744.2</ele>
        <time>2021-11-16 09:59:01</time>
      </trkpt>
      <trkpt lat="40.58051" lon="-3.706">
        <ele>744.4</ele>
        <time>2021-11-16 09:59:02</time>
      </trkpt>
      <trkpt lat="40.58057" lon="-3.706">
        <ele>744.4</ele>
        <time>2021-11-16 09:59:03</time>
      </trkpt>
      <trkpt lat="40.58064" lon="-3.706">
        <ele>744.6</ele>
        <time>2021-11-16 09:59:04</time>
      </trkpt>
      <trkpt lat="40.58071" lon="-3.706">
        <ele>744.4</ele>
        <time>2021-11-16 09:59:05</time>
      </trkpt>
      <trkpt lat="40.58077" lon="-3.706">
        <ele>744.4</ele>
        <time>2021-11-16 09:59:06</time>
      </trkpt>
      <trkpt lat="40.58084" lon="-3.706">
        <ele>744.4</ele>
        <time>2021-11-16 09:59:07</time>
      </trkpt>
      <trkpt lat="40.58091" lon="-3.706">
        <ele>744.4</ele>
        <time>2021-11-16 09:59:08</time>
      </trkpt>
      <trkpt lat="40.58097" lon="-3.706">
        <ele>744.4</ele>
        <time>2021-11-16 09:59:09</time>
      </trkpt>
      <trkpt lat="40.58104" lon="-3.706">
        <ele>744.4</ele>
        <time>2021-11-16 09:59:10</time>
      </trkpt>
      <trkpt lat="40.58111" lon="-3.706">
        <ele>744.4</ele>
        <time>2021-11-16 09:59:11</time>
      </trkpt>
      <trkpt lat="40.58118" lon="-3.70599">
        <ele>744.4</ele>
        <time>2021-11-16 09:59:12</time>
      </trkpt>
      <trkpt lat="40.58124" lon="-3.70599">
        <ele>744.2</ele>
        <time>2021-11-16 09:59:13</time>
      </trkpt>
      <trkpt lat="40.58131" lon="-3.70599">
        <ele>744.2</ele>
        <time>2021-11-16 09:59:14</time>
      </trkpt>
      <trkpt lat="40.58138" lon="-3.70599">
        <ele>744.2</ele>
        <time>2021-11-16 09:59:15</time>
      </trkpt>
      <trkpt lat="40.58144" lon="-3.70599">
        <ele>744.2</ele>
        <time>2021-11-16 09:59:16</time>
      </trkpt>
      <trkpt lat="40.58151" lon="-3.706">
        <ele>744</ele>
        <time>2021-11-16 09:59:17</time>
      </trkpt>
      <trkpt lat="40.58158" lon="-3.706">
        <ele>744.2</ele>
        <time>2021-11-16 09:59:18</time>
      </trkpt>
      <trkpt lat="40.58164" lon="-3.70601">
        <ele>744.2</ele>
        <time>2021-11-16 09:59:19</time>
      </trkpt>
      <trkpt lat="40.58171" lon="-3.70602">
        <ele>744</ele>
        <time>2021-11-16 09:59:20</time>
      </trkpt>
      <trkpt lat="40.58178" lon="-3.70603">
        <ele>744</ele>
        <time>2021-11-16 09:59:21</time>
      </trkpt>
      <trkpt lat="40.58184" lon="-3.70605">
        <ele>744</ele>
        <time>2021-11-16 09:59:22</time>
      </trkpt>
      <trkpt lat="40.58191" lon="-3.70607">
        <ele>743.8</ele>
        <time>2021-11-16 09:59:23</time>
      </trkpt>
      <trkpt lat="40.58198" lon="-3.70609">
        <ele>743.8</ele>
        <time>2021-11-16 09:59:24</time>
      </trkpt>
      <trkpt lat="40.58205" lon="-3.70612">
        <ele>743.6</ele>
        <time>2021-11-16 09:59:25</time>
      </trkpt>
      <trkpt lat="40.58211" lon="-3.70614">
        <ele>743.4</ele>
        <time>2021-11-16 09:59:26</time>
      </trkpt>
      <trkpt lat="40.58218" lon="-3.70617">
        <ele>743.2</ele>
        <time>2021-11-16 09:59:27</time>
      </trkpt>
      <trkpt lat="40.58224" lon="-3.7062">
        <ele>743.2</ele>
        <time>2021-11-16 09:59:28</time>
      </trkpt>
      <trkpt lat="40.5823" lon="-3.70624">
        <ele>743</ele>
        <time>2021-11-16 09:59:29</time>
      </trkpt>
      <trkpt lat="40.58236" lon="-3.70627">
        <ele>743.2</ele>
        <time>2021-11-16 09:59:30</time>
      </trkpt>
      <trkpt lat="40.58241" lon="-3.7063">
        <ele>743.2</ele>
        <time>2021-11-16 09:59:31</time>
      </trkpt>
      <trkpt lat="40.58246" lon="-3.70633">
        <ele>743.2</ele>
        <time>2021-11-16 09:59:32</time>
      </trkpt>
      <trkpt lat="40.58251" lon="-3.70637">
        <ele>743.2</ele>
        <time>2021-11-16 09:59:33</time>
      </trkpt>
      <trkpt lat="40.58255" lon="-3.70641">
        <ele>743.4</ele>
        <time>2021-11-16 09:59:34</time>
      </trkpt>
      <trkpt lat="40.5826" lon="-3.70644">
        <ele>743.4</ele>
        <time>2021-11-16 09:59:35</time>
      </trkpt>
      <trkpt lat="40.58264" lon="-3.70648">
        <ele>743.4</ele>
        <time>2021-11-16 09:59:36</time>
      </trkpt>
      <trkpt lat="40.58268" lon="-3.70652">
        <ele>743.4</ele>
        <time>2021-11-16 09:59:37</time>
      </trkpt>
      <trkpt lat="40.58273" lon="-3.70656">
        <ele>743.4</ele>
        <time>2021-11-16 09:59:38</time>
      </trkpt>
      <trkpt lat="40.58277" lon="-3.7066">
        <ele>743.6</ele>
        <time>2021-11-16 09:59:39</time>
      </trkpt>
      <trkpt lat="40.58281" lon="-3.70665">
        <ele>743.4</ele>
        <time>2021-11-16 09:59:40</time>
      </trkpt>
      <trkpt lat="40.58285" lon="-3.70669">
        <ele>743.6</ele>
        <time>2021-11-16 09:59:41</time>
      </trkpt>
      <trkpt lat="40.5829" lon="-3.70673">
        <ele>743.8</ele>
        <time>2021-11-16 09:59:42</time>
      </trkpt>
      <trkpt lat="40.58294" lon="-3.70678">
        <ele>744</ele>
        <time>2021-11-16 09:59:43</time>
      </trkpt>
      <trkpt lat="40.58298" lon="-3.70682">
        <ele>744.4</ele>
        <time>2021-11-16 09:59:44</time>
      </trkpt>
      <trkpt lat="40.58303" lon="-3.70686">
        <ele>744.6</ele>
        <time>2021-11-16 09:59:45</time>
      </trkpt>
      <trkpt lat="40.58307" lon="-3.70691">
        <ele>745</ele>
        <time>2021-11-16 09:59:46</time>
      </trkpt>
      <trkpt lat="40.58311" lon="-3.70695">
        <ele>745.2</ele>
        <time>2021-11-16 09:59:47</time>
      </trkpt>
      <trkpt lat="40.58315" lon="-3.707">
        <ele>745.4</ele>
        <time>2021-11-16 09:59:48</time>
      </trkpt>
      <trkpt lat="40.58319" lon="-3.70704">
        <ele>745.6</ele>
        <time>2021-11-16 09:59:49</time>
      </trkpt>
      <trkpt lat="40.58324" lon="-3.70708">
        <ele>746</ele>
        <time>2021-11-16 09:59:50</time>
      </trkpt>
      <trkpt lat="40.58329" lon="-3.70712">
        <ele>746.2</ele>
        <time>2021-11-16 09:59:51</time>
      </trkpt>
      <trkpt lat="40.58334" lon="-3.70715">
        <ele>746.6</ele>
        <time>2021-11-16 09:59:52</time>
      </trkpt>
      <trkpt lat="40.58339" lon="-3.70718">
        <ele>746.6</ele>
        <time>2021-11-16 09:59:53</time>
      </trkpt>
      <trkpt lat="40.58344" lon="-3.70721">
        <ele>746.8</ele>
        <time>2021-11-16 09:59:54</time>
      </trkpt>
      <trkpt lat="40.58349" lon="-3.70723">
        <ele>746.6</ele>
        <time>2021-11-16 09:59:55</time>
      </trkpt>
      <trkpt lat="40.58354" lon="-3.70725">
        <ele>746.6</ele>
        <time>2021-11-16 09:59:56</time>
      </trkpt>
      <trkpt lat="40.58359" lon="-3.70726">
        <ele>746.8</ele>
        <time>2021-11-16 09:59:57</time>
      </trkpt>
      <trkpt lat="40.58365" lon="-3.70726">
        <ele>746.8</ele>
        <time>2021-11-16 09:59:58</time>
      </trkpt>
      <trkpt lat="40.5837" lon="-3.70726">
        <ele>747</ele>
        <time>2021-11-16 09:59:59</time>
      </trkpt>
      <trkpt lat="40.58376" lon="-3.70726">
        <ele>747.2</ele>
        <time>2021-11-16 10:00:00</time>
      </trkpt>
      <trkpt lat="40.58381" lon="-3.70726">
        <ele>747.6</ele>
        <time>2021-11-16 10:00:01</time>
      </trkpt>
      <trkpt lat="40.58386" lon="-3.70726">
        <ele>747.8</ele>
        <time>2021-11-16 10:00:02</time>
      </trkpt>
      <trkpt lat="40.58392" lon="-3.70726">
        <ele>748.2</ele>
        <time>2021-11-16 10:00:03</time>
      </trkpt>
      <trkpt lat="40.58397" lon="-3.70724">
        <ele>748.4</ele>
        <time>2021-11-16 10:00:04</time>
      </trkpt>
      <trkpt lat="40.58402" lon="-3.70722">
        <ele>748.6</ele>
        <time>2021-11-16 10:00:05</time>
      </trkpt>
      <trkpt lat="40.58407" lon="-3.7072">
        <ele>748.8</ele>
        <time>2021-11-16 10:00:06</time>
      </trkpt>
      <trkpt lat="40.58412" lon="-3.70718">
        <ele>749</ele>
        <time>2021-11-16 10:00:07</time>
      </trkpt>
      <trkpt lat="40.58418" lon="-3.70715">
        <ele>749</ele>
        <time>2021-11-16 10:00:08</time>
      </trkpt>
      <trkpt lat="40.58423" lon="-3.70712">
        <ele>749</ele>
        <time>2021-11-16 10:00:09</time>
      </trkpt>
      <trkpt lat="40.5843" lon="-3.70708">
        <ele>749</ele>
        <time>2021-11-16 10:00:10</time>
      </trkpt>
      <trkpt lat="40.58435" lon="-3.70702">
        <ele>749</ele>
        <time>2021-11-16 10:00:11</time>
      </trkpt>
      <trkpt lat="40.58441" lon="-3.70696">
        <ele>748.8</ele>
        <time>2021-11-16 10:00:12</time>
      </trkpt>
      <trkpt lat="40.58446" lon="-3.7069">
        <ele>749</ele>
        <time>2021-11-16 10:00:13</time>
      </trkpt>
      <trkpt lat="40.58452" lon="-3.70684">
        <ele>749</ele>
        <time>2021-11-16 10:00:14</time>
      </trkpt>
      <trkpt lat="40.58459" lon="-3.70681">
        <ele>748.8</ele>
        <time>2021-11-16 10:00:15</time>
      </trkpt>
      <trkpt lat="40.58467" lon="-3.70682">
        <ele>748.8</ele>
        <time>2021-11-16 10:00:16</time>
      </trkpt>
      <trkpt lat="40.58474" lon="-3.70684">
        <ele>748.4</ele>
        <time>2021-11-16 10:00:17</time>
      </trkpt>
      <trkpt lat="40.58481" lon="-3.70689">
        <ele>747.6</ele>
        <time>2021-11-16 10:00:18</time>
      </trkpt>
      <trkpt lat="40.58487" lon="-3.70693">
        <ele>747</ele>
        <time>2021-11-16 10:00:19</time>
      </trkpt>
      <trkpt lat="40.58493" lon="-3.70698">
        <ele>746.8</ele>
        <time>2021-11-16 10:00:20</time>
      </trkpt>
      <trkpt lat="40.585" lon="-3.70702">
        <ele>746.6</ele>
        <time>2021-11-16 10:00:21</time>
      </trkpt>
      <trkpt lat="40.58506" lon="-3.70706">
        <ele>746.4</ele>
        <time>2021-11-16 10:00:22</time>
      </trkpt>
      <trkpt lat="40.58513" lon="-3.7071">
        <ele>746</ele>
        <time>2021-11-16 10:00:23</time>
      </trkpt>
      <trkpt lat="40.58519" lon="-3.70714">
        <ele>745.8</ele>
        <time>2021-11-16 10:00:24</time>
      </trkpt>
      <trkpt lat="40.58525" lon="-3.70719">
        <ele>745.6</ele>
        <time>2021-11-16 10:00:25</time>
      </trkpt>
      <trkpt lat="40.58532" lon="-3.70723">
        <ele>745.4</ele>
        <time>2021-11-16 10:00:26</time>
      </trkpt>
      <trkpt lat="40.58538" lon="-3.70727">
        <ele>745.6</ele>
        <time>2021-11-16 10:00:27</time>
      </trkpt>
      <trkpt lat="40.58544" lon="-3.70732">
        <ele>745.4</ele>
        <time>2021-11-16 10:00:28</time>
      </trkpt>
      <trkpt lat="40.5855" lon="-3.70736">
        <ele>745.4</ele>
        <time>2021-11-16 10:00:29</time>
      </trkpt>
      <trkpt lat="40.58556" lon="-3.70741">
        <ele>745.4</ele>
        <time>2021-11-16 10:00:30</time>
      </trkpt>
      <trkpt lat="40.58562" lon="-3.70745">
        <ele>745.2</ele>
        <time>2021-11-16 10:00:31</time>
      </trkpt>
      <trkpt lat="40.58568" lon="-3.70749">
        <ele>745.2</ele>
        <time>2021-11-16 10:00:32</time>
      </trkpt>
      <trkpt lat="40.58574" lon="-3.70754">
        <ele>745</ele>
        <time>2021-11-16 10:00:33</time>
      </trkpt>
      <trkpt lat="40.5858" lon="-3.70758">
        <ele>744.8</ele>
        <time>2021-11-16 10:00:34</time>
      </trkpt>
      <trkpt lat="40.58587" lon="-3.70762">
        <ele>744.4</ele>
        <time>2021-11-16 10:00:35</time>
      </trkpt>
      <trkpt lat="40.58593" lon="-3.70767">
        <ele>744.4</ele>
        <time>2021-11-16 10:00:36</time>
      </trkpt>
      <trkpt lat="40.586" lon="-3.70772">
        <ele>744.2</ele>
        <time>2021-11-16 10:00:37</time>
      </trkpt>
      <trkpt lat="40.58607" lon="-3.70777">
        <ele>744.4</ele>
        <time>2021-11-16 10:00:38</time>
      </trkpt>
      <trkpt lat="40.58614" lon="-3.70782">
        <ele>744.2</ele>
        <time>2021-11-16 10:00:39</time>
      </trkpt>
      <trkpt lat="40.58621" lon="-3.70787">
        <ele>744.2</ele>
        <time>2021-11-16 10:00:40</time>
      </trkpt>
      <trkpt lat="40.58628" lon="-3.70793">
        <ele>743.8</ele>
        <time>2021-11-16 10:00:41</time>
      </trkpt>
      <trkpt lat="40.58634" lon="-3.70798">
        <ele>743.6</ele>
        <time>2021-11-16 10:00:42</time>
      </trkpt>
      <trkpt lat="40.58641" lon="-3.70804">
        <ele>743.4</ele>
        <time>2021-11-16 10:00:43</time>
      </trkpt>
      <trkpt lat="40.58647" lon="-3.7081">
        <ele>743</ele>
        <time>2021-11-16 10:00:44</time>
      </trkpt>
      <trkpt lat="40.58654" lon="-3.70815">
        <ele>742.8</ele>
        <time>2021-11-16 10:00:45</time>
      </trkpt>
      <trkpt lat="40.5866" lon="-3.70821">
        <ele>742.8</ele>
        <time>2021-11-16 10:00:46</time>
      </trkpt>
      <trkpt lat="40.58666" lon="-3.70827">
        <ele>742.6</ele>
        <time>2021-11-16 10:00:47</time>
      </trkpt>
      <trkpt lat="40.58672" lon="-3.70833">
        <ele>742.4</ele>
        <time>2021-11-16 10:00:48</time>
      </trkpt>
      <trkpt lat="40.58678" lon="-3.70839">
        <ele>742.2</ele>
        <time>2021-11-16 10:00:49</time>
      </trkpt>
      <trkpt lat="40.58684" lon="-3.70845">
        <ele>742.2</ele>
        <time>2021-11-16 10:00:50</time>
      </trkpt>
      <trkpt lat="40.5869" lon="-3.70851">
        <ele>742</ele>
        <time>2021-11-16 10:00:51</time>
      </trkpt>
      <trkpt lat="40.58695" lon="-3.70857">
        <ele>742</ele>
        <time>2021-11-16 10:00:52</time>
      </trkpt>
      <trkpt lat="40.58701" lon="-3.70863">
        <ele>741.8</ele>
        <time>2021-11-16 10:00:53</time>
      </trkpt>
      <trkpt lat="40.58706" lon="-3.70869">
        <ele>741.8</ele>
        <time>2021-11-16 10:00:54</time>
      </trkpt>
      <trkpt lat="40.58712" lon="-3.70875">
        <ele>741.6</ele>
        <time>2021-11-16 10:00:55</time>
      </trkpt>
      <trkpt lat="40.58717" lon="-3.70881">
        <ele>741.6</ele>
        <time>2021-11-16 10:00:56</time>
      </trkpt>
      <trkpt lat="40.58723" lon="-3.70888">
        <ele>741.6</ele>
        <time>2021-11-16 10:00:57</time>
      </trkpt>
      <trkpt lat="40.58728" lon="-3.70894">
        <ele>741.6</ele>
        <time>2021-11-16 10:00:58</time>
      </trkpt>
      <trkpt lat="40.58733" lon="-3.709">
        <ele>741.6</ele>
        <time>2021-11-16 10:00:59</time>
      </trkpt>
      <trkpt lat="40.58738" lon="-3.70907">
        <ele>741.6</ele>
        <time>2021-11-16 10:01:00</time>
      </trkpt>
      <trkpt lat="40.58743" lon="-3.70913">
        <ele>741.6</ele>
        <time>2021-11-16 10:01:01</time>
      </trkpt>
      <trkpt lat="40.58748" lon="-3.7092">
        <ele>741.4</ele>
        <time>2021-11-16 10:01:02</time>
      </trkpt>
      <trkpt lat="40.58753" lon="-3.70926">
        <ele>741.4</ele>
        <time>2021-11-16 10:01:03</time>
      </trkpt>
      <trkpt lat="40.58758" lon="-3.70933">
        <ele>741.6</ele>
        <time>2021-11-16 10:01:04</time>
      </trkpt>
      <trkpt lat="40.58763" lon="-3.7094">
        <ele>741.4</ele>
        <time>2021-11-16 10:01:05</time>
      </trkpt>
      <trkpt lat="40.58768" lon="-3.70946">
        <ele>741.6</ele>
        <time>2021-11-16 10:01:06</time>
      </trkpt>
      <trkpt lat="40.58772" lon="-3.70953">
        <ele>741.4</ele>
        <time>2021-11-16 10:01:07</time>
      </trkpt>
      <trkpt lat="40.58777" lon="-3.70959">
        <ele>741.4</ele>
        <time>2021-11-16 10:01:08</time>
      </trkpt>
      <trkpt lat="40.58782" lon="-3.70966">
        <ele>741.6</ele>
        <time>2021-11-16 10:01:09</time>
      </trkpt>
      <trkpt lat="40.58787" lon="-3.70973">
        <ele>741.6</ele>
        <time>2021-11-16 10:01:10</time>
      </trkpt>
      <trkpt lat="40.58791" lon="-3.7098">
        <ele>741.6</ele>
        <time>2021-11-16 10:01:11</time>
      </trkpt>
      <trkpt lat="40.58796" lon="-3.70986">
        <ele>741.6</ele>
        <time>2021-11-16 10:01:12</time>
      </trkpt>
      <trkpt lat="40.588" lon="-3.70993">
        <ele>741.6</ele>
        <time>2021-11-16 10:01:13</time>
      </trkpt>
      <trkpt lat="40.58805" lon="-3.70999">
        <ele>741.8</ele>
        <time>2021-11-16 10:01:14</time>
      </trkpt>
      <trkpt lat="40.5881" lon="-3.71006">
        <ele>741.8</ele>
        <time>2021-11-16 10:01:15</time>
      </trkpt>
      <trkpt lat="40.58814" lon="-3.71013">
        <ele>741.8</ele>
        <time>2021-11-16 10:01:16</time>
      </trkpt>
      <trkpt lat="40.58819" lon="-3.71019">
        <ele>741.8</ele>
        <time>2021-11-16 10:01:17</time>
      </trkpt>
      <trkpt lat="40.58823" lon="-3.71026">
        <ele>741.8</ele>
        <time>2021-11-16 10:01:18</time>
      </trkpt>
      <trkpt lat="40.58828" lon="-3.71033">
        <ele>742</ele>
        <time>2021-11-16 10:01:19</time>
      </trkpt>
      <trkpt lat="40.58833" lon="-3.71039">
        <ele>742</ele>
        <time>2021-11-16 10:01:20</time>
      </trkpt>
      <trkpt lat="40.58837" lon="-3.71046">
        <ele>741.8</ele>
        <time>2021-11-16 10:01:21</time>
      </trkpt>
      <trkpt lat="40.58842" lon="-3.71052">
        <ele>742</ele>
        <time>2021-11-16 10:01:22</time>
      </trkpt>
      <trkpt lat="40.58847" lon="-3.71059">
        <ele>741.8</ele>
        <time>2021-11-16 10:01:23</time>
      </trkpt>
      <trkpt lat="40.58852" lon="-3.71065">
        <ele>741.8</ele>
        <time>2021-11-16 10:01:24</time>
      </trkpt>
      <trkpt lat="40.58856" lon="-3.71071">
        <ele>741.8</ele>
        <time>2021-11-16 10:01:25</time>
      </trkpt>
      <trkpt lat="40.58861" lon="-3.71077">
        <ele>742</ele>
        <time>2021-11-16 10:01:26</time>
      </trkpt>
      <trkpt lat="40.58866" lon="-3.71083">
        <ele>742</ele>
        <time>2021-11-16 10:01:27</time>
      </trkpt>
      <trkpt lat="40.5887" lon="-3.71088">
        <ele>742</ele>
        <time>2021-11-16 10:01:28</time>
      </trkpt>
      <trkpt lat="40.58875" lon="-3.71094">
        <ele>742.2</ele>
        <time>2021-11-16 10:01:29</time>
      </trkpt>
      <trkpt lat="40.58879" lon="-3.71099">
        <ele>742.2</ele>
        <time>2021-11-16 10:01:30</time>
      </trkpt>
      <trkpt lat="40.58884" lon="-3.71104">
        <ele>742.2</ele>
        <time>2021-11-16 10:01:31</time>
      </trkpt>
      <trkpt lat="40.58889" lon="-3.71109">
        <ele>742.2</ele>
        <time>2021-11-16 10:01:32</time>
      </trkpt>
      <trkpt lat="40.58894" lon="-3.71114">
        <ele>742.4</ele>
        <time>2021-11-16 10:01:33</time>
      </trkpt>
      <trkpt lat="40.58899" lon="-3.71119">
        <ele>742.6</ele>
        <time>2021-11-16 10:01:34</time>
      </trkpt>
      <trkpt lat="40.58904" lon="-3.71125">
        <ele>742.8</ele>
        <time>2021-11-16 10:01:35</time>
      </trkpt>
      <trkpt lat="40.58909" lon="-3.7113">
        <ele>743.2</ele>
        <time>2021-11-16 10:01:36</time>
      </trkpt>
      <trkpt lat="40.58915" lon="-3.71135">
        <ele>743.2</ele>
        <time>2021-11-16 10:01:37</time>
      </trkpt>
      <trkpt lat="40.58921" lon="-3.7114">
        <ele>743.2</ele>
        <time>2021-11-16 10:01:38</time>
      </trkpt>
      <trkpt lat="40.58927" lon="-3.71145">
        <ele>743.4</ele>
        <time>2021-11-16 10:01:39</time>
      </trkpt>
      <trkpt lat="40.58933" lon="-3.71151">
        <ele>743.2</ele>
        <time>2021-11-16 10:01:40</time>
      </trkpt>
      <trkpt lat="40.58939" lon="-3.71156">
        <ele>743.4</ele>
        <time>2021-11-16 10:01:41</time>
      </trkpt>
      <trkpt lat="40.58946" lon="-3.71161">
        <ele>743.2</ele>
        <time>2021-11-16 10:01:42</time>
      </trkpt>
      <trkpt lat="40.58952" lon="-3.71166">
        <ele>743.2</ele>
        <time>2021-11-16 10:01:43</time>
      </trkpt>
      <trkpt lat="40.58958" lon="-3.71171">
        <ele>743.2</ele>
        <time>2021-11-16 10:01:44</time>
      </trkpt>
      <trkpt lat="40.58964" lon="-3.71175">
        <ele>743.2</ele>
        <time>2021-11-16 10:01:45</time>
      </trkpt>
      <trkpt lat="40.5897" lon="-3.7118">
        <ele>743.2</ele>
        <time>2021-11-16 10:01:46</time>
      </trkpt>
      <trkpt lat="40.58977" lon="-3.71184">
        <ele>743.2</ele>
        <time>2021-11-16 10:01:47</time>
      </trkpt>
      <trkpt lat="40.58983" lon="-3.71188">
        <ele>743.2</ele>
        <time>2021-11-16 10:01:48</time>
      </trkpt>
      <trkpt lat="40.58989" lon="-3.71192">
        <ele>743</ele>
        <time>2021-11-16 10:01:49</time>
      </trkpt>
      <trkpt lat="40.58995" lon="-3.71196">
        <ele>742.8</ele>
        <time>2021-11-16 10:01:50</time>
      </trkpt>
      <trkpt lat="40.59001" lon="-3.712">
        <ele>742.8</ele>
        <time>2021-11-16 10:01:51</time>
      </trkpt>
      <trkpt lat="40.59007" lon="-3.71204">
        <ele>742.6</ele>
        <time>2021-11-16 10:01:52</time>
      </trkpt>
      <trkpt lat="40.59014" lon="-3.71208">
        <ele>742.6</ele>
        <time>2021-11-16 10:01:53</time>
      </trkpt>
      <trkpt lat="40.5902" lon="-3.71211">
        <ele>742.6</ele>
        <time>2021-11-16 10:01:54</time>
      </trkpt>
      <trkpt lat="40.59026" lon="-3.71215">
        <ele>742.4</ele>
        <time>2021-11-16 10:01:55</time>
      </trkpt>
      <trkpt lat="40.59032" lon="-3.71218">
        <ele>742.6</ele>
        <time>2021-11-16 10:01:56</time>
      </trkpt>
      <trkpt lat="40.59038" lon="-3.71222">
        <ele>742.6</ele>
        <time>2021-11-16 10:01:57</time>
      </trkpt>
      <trkpt lat="40.59045" lon="-3.71225">
        <ele>742.6</ele>
        <time>2021-11-16 10:01:58</time>
      </trkpt>
      <trkpt lat="40.59051" lon="-3.71228">
        <ele>742.6</ele>
        <time>2021-11-16 10:01:59</time>
      </trkpt>
      <trkpt lat="40.59057" lon="-3.71231">
        <ele>742.8</ele>
        <time>2021-11-16 10:02:00</time>
      </trkpt>
      <trkpt lat="40.59063" lon="-3.71234">
        <ele>742.8</ele>
        <time>2021-11-16 10:02:01</time>
      </trkpt>
      <trkpt lat="40.5907" lon="-3.71237">
        <ele>742.8</ele>
        <time>2021-11-16 10:02:02</time>
      </trkpt>
      <trkpt lat="40.59076" lon="-3.7124">
        <ele>742.8</ele>
        <time>2021-11-16 10:02:03</time>
      </trkpt>
      <trkpt lat="40.59082" lon="-3.71243">
        <ele>742.8</ele>
        <time>2021-11-16 10:02:04</time>
      </trkpt>
      <trkpt lat="40.59088" lon="-3.71246">
        <ele>743</ele>
        <time>2021-11-16 10:02:05</time>
      </trkpt>
      <trkpt lat="40.59094" lon="-3.71249">
        <ele>743</ele>
        <time>2021-11-16 10:02:06</time>
      </trkpt>
      <trkpt lat="40.591" lon="-3.71252">
        <ele>743</ele>
        <time>2021-11-16 10:02:07</time>
      </trkpt>
      <trkpt lat="40.59106" lon="-3.71255">
        <ele>743.2</ele>
        <time>2021-11-16 10:02:08</time>
      </trkpt>
      <trkpt lat="40.59111" lon="-3.71258">
        <ele>743.2</ele>
        <time>2021-11-16 10:02:09</time>
      </trkpt>
      <trkpt lat="40.59116" lon="-3.71261">
        <ele>743.2</ele>
        <time>2021-11-16 10:02:10</time>
      </trkpt>
      <trkpt lat="40.59121" lon="-3.71264">
        <ele>743.4</ele>
        <time>2021-11-16 10:02:11</time>
      </trkpt>
      <trkpt lat="40.59126" lon="-3.71267">
        <ele>743.4</ele>
        <time>2021-11-16 10:02:12</time>
      </trkpt>
      <trkpt lat="40.59131" lon="-3.7127">
        <ele>743.6</ele>
        <time>2021-11-16 10:02:13</time>
      </trkpt>
      <trkpt lat="40.59136" lon="-3.71272">
        <ele>743.8</ele>
        <time>2021-11-16 10:02:14</time>
      </trkpt>
      <trkpt lat="40.59141" lon="-3.71274">
        <ele>743.8</ele>
        <time>2021-11-16 10:02:15</time>
      </trkpt>
      <trkpt lat="40.59147" lon="-3.71276">
        <ele>744.2</ele>
        <time>2021-11-16 10:02:16</time>
      </trkpt>
      <trkpt lat="40.59152" lon="-3.71278">
        <ele>744.6</ele>
        <time>2021-11-16 10:02:17</time>
      </trkpt>
      <trkpt lat="40.59157" lon="-3.71281">
        <ele>745.2</ele>
        <time>2021-11-16 10:02:18</time>
      </trkpt>
      <trkpt lat="40.59162" lon="-3.71283">
        <ele>745.6</ele>
        <time>2021-11-16 10:02:19</time>
      </trkpt>
      <trkpt lat="40.59167" lon="-3.71284">
        <ele>745.6</ele>
        <time>2021-11-16 10:02:20</time>
      </trkpt>
      <trkpt lat="40.59172" lon="-3.71286">
        <ele>746.2</ele>
        <time>2021-11-16 10:02:21</time>
      </trkpt>
      <trkpt lat="40.59178" lon="-3.71287">
        <ele>746.4</ele>
        <time>2021-11-16 10:02:22</time>
      </trkpt>
      <trkpt lat="40.59183" lon="-3.71289">
        <ele>746.6</ele>
        <time>2021-11-16 10:02:23</time>
      </trkpt>
      <trkpt lat="40.59188" lon="-3.71291">
        <ele>746.8</ele>
        <time>2021-11-16 10:02:24</time>
      </trkpt>
      <trkpt lat="40.59193" lon="-3.71293">
        <ele>747</ele>
        <time>2021-11-16 10:02:25</time>
      </trkpt>
      <trkpt lat="40.59199" lon="-3.71294">
        <ele>747.2</ele>
        <time>2021-11-16 10:02:26</time>
      </trkpt>
      <trkpt lat="40.59205" lon="-3.71296">
        <ele>747.2</ele>
        <time>2021-11-16 10:02:27</time>
      </trkpt>
      <trkpt lat="40.5921" lon="-3.71298">
        <ele>747.6</ele>
        <time>2021-11-16 10:02:28</time>
      </trkpt>
      <trkpt lat="40.59216" lon="-3.713">
        <ele>747.4</ele>
        <time>2021-11-16 10:02:29</time>
      </trkpt>
      <trkpt lat="40.59222" lon="-3.71302">
        <ele>747.4</ele>
        <time>2021-11-16 10:02:30</time>
      </trkpt>
      <trkpt lat="40.59228" lon="-3.71304">
        <ele>747.4</ele>
        <time>2021-11-16 10:02:31</time>
      </trkpt>
      <trkpt lat="40.59234" lon="-3.71305">
        <ele>747.6</ele>
        <time>2021-11-16 10:02:32</time>
      </trkpt>
      <trkpt lat="40.5924" lon="-3.71307">
        <ele>747.6</ele>
        <time>2021-11-16 10:02:33</time>
      </trkpt>
      <trkpt lat="40.59246" lon="-3.71309">
        <ele>747.8</ele>
        <time>2021-11-16 10:02:34</time>
      </trkpt>
      <trkpt lat="40.59252" lon="-3.7131">
        <ele>747.8</ele>
        <time>2021-11-16 10:02:35</time>
      </trkpt>
      <trkpt lat="40.59258" lon="-3.71312">
        <ele>747.8</ele>
        <time>2021-11-16 10:02:36</time>
      </trkpt>
      <trkpt lat="40.59264" lon="-3.71313">
        <ele>747.8</ele>
        <time>2021-11-16 10:02:37</time>
      </trkpt>
      <trkpt lat="40.5927" lon="-3.71314">
        <ele>747.8</ele>
        <time>2021-11-16 10:02:38</time>
      </trkpt>
      <trkpt lat="40.59276" lon="-3.71316">
        <ele>747.8</ele>
        <time>2021-11-16 10:02:39</time>
      </trkpt>
      <trkpt lat="40.59282" lon="-3.71317">
        <ele>747.8</ele>
        <time>2021-11-16 10:02:40</time>
      </trkpt>
      <trkpt lat="40.59288" lon="-3.71319">
        <ele>747.8</ele>
        <time>2021-11-16 10:02:41</time>
      </trkpt>
      <trkpt lat="40.59294" lon="-3.7132">
        <ele>748</ele>
        <time>2021-11-16 10:02:42</time>
      </trkpt>
      <trkpt lat="40.59301" lon="-3.71322">
        <ele>748</ele>
        <time>2021-11-16 10:02:43</time>
      </trkpt>
      <trkpt lat="40.59307" lon="-3.71324">
        <ele>747.8</ele>
        <time>2021-11-16 10:02:44</time>
      </trkpt>
      <trkpt lat="40.59313" lon="-3.71325">
        <ele>747.8</ele>
        <time>2021-11-16 10:02:45</time>
      </trkpt>
      <trkpt lat="40.59319" lon="-3.71327">
        <ele>748</ele>
        <time>2021-11-16 10:02:46</time>
      </trkpt>
      <trkpt lat="40.59325" lon="-3.71329">
        <ele>748</ele>
        <time>2021-11-16 10:02:47</time>
      </trkpt>
      <trkpt lat="40.59331" lon="-3.7133">
        <ele>748</ele>
        <time>2021-11-16 10:02:48</time>
      </trkpt>
      <trkpt lat="40.59338" lon="-3.71331">
        <ele>748</ele>
        <time>2021-11-16 10:02:49</time>
      </trkpt>
      <trkpt lat="40.59344" lon="-3.71332">
        <ele>748</ele>
        <time>2021-11-16 10:02:50</time>
      </trkpt>
      <trkpt lat="40.5935" lon="-3.71334">
        <ele>747.8</ele>
        <time>2021-11-16 10:02:51</time>
      </trkpt>
      <trkpt lat="40.59357" lon="-3.71337">
        <ele>747.8</ele>
        <time>2021-11-16 10:02:52</time>
      </trkpt>
      <trkpt lat="40.59363" lon="-3.71341">
        <ele>748</ele>
        <time>2021-11-16 10:02:53</time>
      </trkpt>
      <trkpt lat="40.5937" lon="-3.71345">
        <ele>747.8</ele>
        <time>2021-11-16 10:02:54</time>
      </trkpt>
      <trkpt lat="40.59376" lon="-3.71349">
        <ele>747.6</ele>
        <time>2021-11-16 10:02:55</time>
      </trkpt>
      <trkpt lat="40.59382" lon="-3.71353">
        <ele>747.6</ele>
        <time>2021-11-16 10:02:56</time>
      </trkpt>
      <trkpt lat="40.59388" lon="-3.71358">
        <ele>747.4</ele>
        <time>2021-11-16 10:02:57</time>
      </trkpt>
      <trkpt lat="40.59393" lon="-3.71363">
        <ele>747.4</ele>
        <time>2021-11-16 10:02:58</time>
      </trkpt>
      <trkpt lat="40.59399" lon="-3.71367">
        <ele>747.4</ele>
        <time>2021-11-16 10:02:59</time>
      </trkpt>
      <trkpt lat="40.59405" lon="-3.71371">
        <ele>747</ele>
        <time>2021-11-16 10:03:00</time>
      </trkpt>
      <trkpt lat="40.59412" lon="-3.71374">
        <ele>746.8</ele>
        <time>2021-11-16 10:03:01</time>
      </trkpt>
      <trkpt lat="40.59419" lon="-3.71375">
        <ele>746.4</ele>
        <time>2021-11-16 10:03:02</time>
      </trkpt>
      <trkpt lat="40.59425" lon="-3.71378">
        <ele>746.6</ele>
        <time>2021-11-16 10:03:03</time>
      </trkpt>
      <trkpt lat="40.59432" lon="-3.71381">
        <ele>746.4</ele>
        <time>2021-11-16 10:03:04</time>
      </trkpt>
      <trkpt lat="40.59438" lon="-3.71385">
        <ele>746.2</ele>
        <time>2021-11-16 10:03:05</time>
      </trkpt>
      <trkpt lat="40.59443" lon="-3.7139">
        <ele>746.4</ele>
        <time>2021-11-16 10:03:06</time>
      </trkpt>
      <trkpt lat="40.59449" lon="-3.71396">
        <ele>746.2</ele>
        <time>2021-11-16 10:03:07</time>
      </trkpt>
      <trkpt lat="40.59454" lon="-3.71401">
        <ele>746.2</ele>
        <time>2021-11-16 10:03:08</time>
      </trkpt>
      <trkpt lat="40.59459" lon="-3.71407">
        <ele>746</ele>
        <time>2021-11-16 10:03:09</time>
      </trkpt>
      <trkpt lat="40.59465" lon="-3.71413">
        <ele>746</ele>
        <time>2021-11-16 10:03:10</time>
      </trkpt>
      <trkpt lat="40.5947" lon="-3.71418">
        <ele>746</ele>
        <time>2021-11-16 10:03:11</time>
      </trkpt>
      <trkpt lat="40.59475" lon="-3.71424">
        <ele>746</ele>
        <time>2021-11-16 10:03:12</time>
      </trkpt>
      <trkpt lat="40.59481" lon="-3.7143">
        <ele>745.8</ele>
        <time>2021-11-16 10:03:13</time>
      </trkpt>
      <trkpt lat="40.59486" lon="-3.71436">
        <ele>745.8</ele>
        <time>2021-11-16 10:03:14</time>
      </trkpt>
      <trkpt lat="40.59492" lon="-3.71441">
        <ele>745.6</ele>
        <time>2021-11-16 10:03:15</time>
      </trkpt>
      <trkpt lat="40.59497" lon="-3.71447">
        <ele>745.6</ele>
        <time>2021-11-16 10:03:16</time>
      </trkpt>
      <trkpt lat="40.59503" lon="-3.71453">
        <ele>745.6</ele>
        <time>2021-11-16 10:03:17</time>
      </trkpt>
      <trkpt lat="40.59508" lon="-3.71458">
        <ele>745.6</ele>
        <time>2021-11-16 10:03:18</time>
      </trkpt>
      <trkpt lat="40.59514" lon="-3.71465">
        <ele>745.8</ele>
        <time>2021-11-16 10:03:19</time>
      </trkpt>
      <trkpt lat="40.59519" lon="-3.71471">
        <ele>745.6</ele>
        <time>2021-11-16 10:03:20</time>
      </trkpt>
      <trkpt lat="40.59523" lon="-3.71478">
        <ele>745.6</ele>
        <time>2021-11-16 10:03:21</time>
      </trkpt>
      <trkpt lat="40.59528" lon="-3.71485">
        <ele>745.4</ele>
        <time>2021-11-16 10:03:22</time>
      </trkpt>
      <trkpt lat="40.59532" lon="-3.71492">
        <ele>745.4</ele>
        <time>2021-11-16 10:03:23</time>
      </trkpt>
      <trkpt lat="40.59537" lon="-3.71499">
        <ele>745.6</ele>
        <time>2021-11-16 10:03:24</time>
      </trkpt>
      <trkpt lat="40.59541" lon="-3.71506">
        <ele>745.4</ele>
        <time>2021-11-16 10:03:25</time>
      </trkpt>
      <trkpt lat="40.59546" lon="-3.71513">
        <ele>745.2</ele>
        <time>2021-11-16 10:03:26</time>
      </trkpt>
      <trkpt lat="40.5955" lon="-3.7152">
        <ele>745.2</ele>
        <time>2021-11-16 10:03:27</time>
      </trkpt>
      <trkpt lat="40.59555" lon="-3.71527">
        <ele>745.2</ele>
        <time>2021-11-16 10:03:28</time>
      </trkpt>
      <trkpt lat="40.59559" lon="-3.71534">
        <ele>745.2</ele>
        <time>2021-11-16 10:03:29</time>
      </trkpt>
      <trkpt lat="40.59564" lon="-3.71541">
        <ele>745.2</ele>
        <time>2021-11-16 10:03:30</time>
      </trkpt>
      <trkpt lat="40.59568" lon="-3.71547">
        <ele>745.4</ele>
        <time>2021-11-16 10:03:31</time>
      </trkpt>
      <trkpt lat="40.59572" lon="-3.71554">
        <ele>745.4</ele>
        <time>2021-11-16 10:03:32</time>
      </trkpt>
      <trkpt lat="40.59576" lon="-3.71561">
        <ele>745.2</ele>
        <time>2021-11-16 10:03:33</time>
      </trkpt>
      <trkpt lat="40.5958" lon="-3.71568">
        <ele>745.4</ele>
        <time>2021-11-16 10:03:34</time>
      </trkpt>
      <trkpt lat="40.59583" lon="-3.71576">
        <ele>745.4</ele>
        <time>2021-11-16 10:03:35</time>
      </trkpt>
      <trkpt lat="40.59586" lon="-3.71584">
        <ele>745.4</ele>
        <time>2021-11-16 10:03:36</time>
      </trkpt>
      <trkpt lat="40.59588" lon="-3.71592">
        <ele>745.6</ele>
        <time>2021-11-16 10:03:37</time>
      </trkpt>
      <trkpt lat="40.5959" lon="-3.716">
        <ele>745.4</ele>
        <time>2021-11-16 10:03:38</time>
      </trkpt>
      <trkpt lat="40.59592" lon="-3.71609">
        <ele>745.6</ele>
        <time>2021-11-16 10:03:39</time>
      </trkpt>
      <trkpt lat="40.59593" lon="-3.71617">
        <ele>745.6</ele>
        <time>2021-11-16 10:03:40</time>
      </trkpt>
      <trkpt lat="40.59595" lon="-3.71626">
        <ele>745.6</ele>
        <time>2021-11-16 10:03:41</time>
      </trkpt>
      <trkpt lat="40.59597" lon="-3.71634">
        <ele>745.6</ele>
        <time>2021-11-16 10:03:42</time>
      </trkpt>
      <trkpt lat="40.59599" lon="-3.71642">
        <ele>745.8</ele>
        <time>2021-11-16 10:03:43</time>
      </trkpt>
      <trkpt lat="40.59601" lon="-3.71651">
        <ele>745.8</ele>
        <time>2021-11-16 10:03:44</time>
      </trkpt>
      <trkpt lat="40.59604" lon="-3.71659">
        <ele>746.2</ele>
        <time>2021-11-16 10:03:45</time>
      </trkpt>
      <trkpt lat="40.59606" lon="-3.71667">
        <ele>746.4</ele>
        <time>2021-11-16 10:03:46</time>
      </trkpt>
      <trkpt lat="40.59608" lon="-3.71676">
        <ele>746.6</ele>
        <time>2021-11-16 10:03:47</time>
      </trkpt>
      <trkpt lat="40.5961" lon="-3.71684">
        <ele>746.8</ele>
        <time>2021-11-16 10:03:48</time>
      </trkpt>
      <trkpt lat="40.59613" lon="-3.71693">
        <ele>747</ele>
        <time>2021-11-16 10:03:49</time>
      </trkpt>
      <trkpt lat="40.59615" lon="-3.71702">
        <ele>747</ele>
        <time>2021-11-16 10:03:50</time>
      </trkpt>
      <trkpt lat="40.59617" lon="-3.7171">
        <ele>747</ele>
        <time>2021-11-16 10:03:51</time>
      </trkpt>
      <trkpt lat="40.5962" lon="-3.71719">
        <ele>747</ele>
        <time>2021-11-16 10:03:52</time>
      </trkpt>
      <trkpt lat="40.59622" lon="-3.71728">
        <ele>747</ele>
        <time>2021-11-16 10:03:53</time>
      </trkpt>
      <trkpt lat="40.59624" lon="-3.71737">
        <ele>747</ele>
        <time>2021-11-16 10:03:54</time>
      </trkpt>
      <trkpt lat="40.59627" lon="-3.71746">
        <ele>747</ele>
        <time>2021-11-16 10:03:55</time>
      </trkpt>
      <trkpt lat="40.59629" lon="-3.71755">
        <ele>747.2</ele>
        <time>2021-11-16 10:03:56</time>
      </trkpt>
      <trkpt lat="40.59632" lon="-3.71765">
        <ele>747.4</ele>
        <time>2021-11-16 10:03:57</time>
      </trkpt>
      <trkpt lat="40.59634" lon="-3.71774">
        <ele>747.2</ele>
        <time>2021-11-16 10:03:58</time>
      </trkpt>
      <trkpt lat="40.59637" lon="-3.71783">
        <ele>747.2</ele>
        <time>2021-11-16 10:03:59</time>
      </trkpt>
      <trkpt lat="40.5964" lon="-3.71793">
        <ele>747.2</ele>
        <time>2021-11-16 10:04:00</time>
      </trkpt>
      <trkpt lat="40.59644" lon="-3.71802">
        <ele>747.2</ele>
        <time>2021-11-16 10:04:01</time>
      </trkpt>
      <trkpt lat="40.59649" lon="-3.71811">
        <ele>747.2</ele>
        <time>2021-11-16 10:04:02</time>
      </trkpt>
      <trkpt lat="40.59654" lon="-3.71819">
        <ele>747</ele>
        <time>2021-11-16 10:04:03</time>
      </trkpt>
      <trkpt lat="40.59658" lon="-3.71828">
        <ele>747.2</ele>
        <time>2021-11-16 10:04:04</time>
      </trkpt>
      <trkpt lat="40.59661" lon="-3.71837">
        <ele>747</ele>
        <time>2021-11-16 10:04:05</time>
      </trkpt>
      <trkpt lat="40.59664" lon="-3.71847">
        <ele>746.8</ele>
        <time>2021-11-16 10:04:06</time>
      </trkpt>
      <trkpt lat="40.59667" lon="-3.71856">
        <ele>746.6</ele>
        <time>2021-11-16 10:04:07</time>
      </trkpt>
      <trkpt lat="40.5967" lon="-3.71865">
        <ele>746.2</ele>
        <time>2021-11-16 10:04:08</time>
      </trkpt>
      <trkpt lat="40.59673" lon="-3.71873">
        <ele>745.8</ele>
        <time>2021-11-16 10:04:09</time>
      </trkpt>
      <trkpt lat="40.59678" lon="-3.71881">
        <ele>745.6</ele>
        <time>2021-11-16 10:04:10</time>
      </trkpt>
      <trkpt lat="40.59683" lon="-3.71888">
        <ele>745.2</ele>
        <time>2021-11-16 10:04:11</time>
      </trkpt>
      <trkpt lat="40.59689" lon="-3.71894">
        <ele>745</ele>
        <time>2021-11-16 10:04:12</time>
      </trkpt>
      <trkpt lat="40.59697" lon="-3.71896">
        <ele>744.6</ele>
        <time>2021-11-16 10:04:13</time>
      </trkpt>
      <trkpt lat="40.59705" lon="-3.71893">
        <ele>744.6</ele>
        <time>2021-11-16 10:04:14</time>
      </trkpt>
      <trkpt lat="40.59712" lon="-3.71885">
        <ele>744.4</ele>
        <time>2021-11-16 10:04:15</time>
      </trkpt>
      <trkpt lat="40.59719" lon="-3.71877">
        <ele>744</ele>
        <time>2021-11-16 10:04:16</time>
      </trkpt>
      <trkpt lat="40.59726" lon="-3.71868">
        <ele>743.8</ele>
        <time>2021-11-16 10:04:17</time>
      </trkpt>
      <trkpt lat="40.59733" lon="-3.71859">
        <ele>743.8</ele>
        <time>2021-11-16 10:04:18</time>
      </trkpt>
      <trkpt lat="40.59739" lon="-3.71851">
        <ele>743.6</ele>
        <time>2021-11-16 10:04:19</time>
      </trkpt>
      <trkpt lat="40.59747" lon="-3.71847">
        <ele>743.4</ele>
        <time>2021-11-16 10:04:20</time>
      </trkpt>
      <trkpt lat="40.59755" lon="-3.71846">
        <ele>742.8</ele>
        <time>2021-11-16 10:04:21</time>
      </trkpt>
      <trkpt lat="40.59762" lon="-3.71849">
        <ele>741.6</ele>
        <time>2021-11-16 10:04:22</time>
      </trkpt>
      <trkpt lat="40.59767" lon="-3.71854">
        <ele>740.8</ele>
        <time>2021-11-16 10:04:23</time>
      </trkpt>
      <trkpt lat="40.59771" lon="-3.71861">
        <ele>740.2</ele>
        <time>2021-11-16 10:04:24</time>
      </trkpt>
      <trkpt lat="40.59773" lon="-3.71868">
        <ele>740.2</ele>
        <time>2021-11-16 10:04:25</time>
      </trkpt>
      <trkpt lat="40.59776" lon="-3.71876">
        <ele>739.8</ele>
        <time>2021-11-16 10:04:26</time>
      </trkpt>
      <trkpt lat="40.59779" lon="-3.71883">
        <ele>739.8</ele>
        <time>2021-11-16 10:04:27</time>
      </trkpt>
      <trkpt lat="40.59784" lon="-3.71889">
        <ele>739.8</ele>
        <time>2021-11-16 10:04:28</time>
      </trkpt>
      <trkpt lat="40.5979" lon="-3.71894">
        <ele>739.8</ele>
        <time>2021-11-16 10:04:29</time>
      </trkpt>
      <trkpt lat="40.59796" lon="-3.71898">
        <ele>739.8</ele>
        <time>2021-11-16 10:04:30</time>
      </trkpt>
      <trkpt lat="40.59802" lon="-3.71903">
        <ele>739.8</ele>
        <time>2021-11-16 10:04:31</time>
      </trkpt>
      <trkpt lat="40.59808" lon="-3.71907">
        <ele>739.6</ele>
        <time>2021-11-16 10:04:32</time>
      </trkpt>
      <trkpt lat="40.59815" lon="-3.71911">
        <ele>739.6</ele>
        <time>2021-11-16 10:04:33</time>
      </trkpt>
      <trkpt lat="40.59821" lon="-3.71916">
        <ele>739.6</ele>
        <time>2021-11-16 10:04:34</time>
      </trkpt>
      <trkpt lat="40.59827" lon="-3.7192">
        <ele>739.6</ele>
        <time>2021-11-16 10:04:35</time>
      </trkpt>
      <trkpt lat="40.59834" lon="-3.71925">
        <ele>739.6</ele>
        <time>2021-11-16 10:04:36</time>
      </trkpt>
      <trkpt lat="40.5984" lon="-3.71929">
        <ele>739.6</ele>
        <time>2021-11-16 10:04:37</time>
      </trkpt>
      <trkpt lat="40.59847" lon="-3.71934">
        <ele>739.6</ele>
        <time>2021-11-16 10:04:38</time>
      </trkpt>
      <trkpt lat="40.59854" lon="-3.71938">
        <ele>739.6</ele>
        <time>2021-11-16 10:04:39</time>
      </trkpt>
      <trkpt lat="40.59861" lon="-3.71942">
        <ele>739.6</ele>
        <time>2021-11-16 10:04:40</time>
      </trkpt>
      <trkpt lat="40.59867" lon="-3.71947">
        <ele>739.6</ele>
        <time>2021-11-16 10:04:41</time>
      </trkpt>
      <trkpt lat="40.59874" lon="-3.71951">
        <ele>739.6</ele>
        <time>2021-11-16 10:04:42</time>
      </trkpt>
      <trkpt lat="40.59881" lon="-3.71955">
        <ele>739.6</ele>
        <time>2021-11-16 10:04:43</time>
      </trkpt>
      <trkpt lat="40.59888" lon="-3.71959">
        <ele>739.6</ele>
        <time>2021-11-16 10:04:44</time>
      </trkpt>
      <trkpt lat="40.59895" lon="-3.71962">
        <ele>739.6</ele>
        <time>2021-11-16 10:04:45</time>
      </trkpt>
      <trkpt lat="40.59901" lon="-3.71966">
        <ele>739.6</ele>
        <time>2021-11-16 10:04:46</time>
      </trkpt>
      <trkpt lat="40.59908" lon="-3.7197">
        <ele>739.4</ele>
        <time>2021-11-16 10:04:47</time>
      </trkpt>
      <trkpt lat="40.59915" lon="-3.71973">
        <ele>739.2</ele>
        <time>2021-11-16 10:04:48</time>
      </trkpt>
      <trkpt lat="40.59921" lon="-3.71977">
        <ele>738.8</ele>
        <time>2021-11-16 10:04:49</time>
      </trkpt>
      <trkpt lat="40.59928" lon="-3.71981">
        <ele>738.8</ele>
        <time>2021-11-16 10:04:50</time>
      </trkpt>
      <trkpt lat="40.59934" lon="-3.71985">
        <ele>738.6</ele>
        <time>2021-11-16 10:04:51</time>
      </trkpt>
      <trkpt lat="40.5994" lon="-3.71989">
        <ele>738.6</ele>
        <time>2021-11-16 10:04:52</time>
      </trkpt>
      <trkpt lat="40.59947" lon="-3.71992">
        <ele>738.6</ele>
        <time>2021-11-16 10:04:53</time>
      </trkpt>
      <trkpt lat="40.59953" lon="-3.71996">
        <ele>738.4</ele>
        <time>2021-11-16 10:04:54</time>
      </trkpt>
      <trkpt lat="40.59959" lon="-3.71999">
        <ele>738.6</ele>
        <time>2021-11-16 10:04:55</time>
      </trkpt>
      <trkpt lat="40.59965" lon="-3.72003">
        <ele>738.6</ele>
        <time>2021-11-16 10:04:56</time>
      </trkpt>
      <trkpt lat="40.59971" lon="-3.72006">
        <ele>738.4</ele>
        <time>2021-11-16 10:04:57</time>
      </trkpt>
      <trkpt lat="40.59977" lon="-3.7201">
        <ele>738.6</ele>
        <time>2021-11-16 10:04:58</time>
      </trkpt>
      <trkpt lat="40.59983" lon="-3.72013">
        <ele>738.6</ele>
        <time>2021-11-16 10:04:59</time>
      </trkpt>
      <trkpt lat="40.59989" lon="-3.72017">
        <ele>738.6</ele>
        <time>2021-11-16 10:05:00</time>
      </trkpt>
      <trkpt lat="40.59995" lon="-3.7202">
        <ele>738.6</ele>
        <time>2021-11-16 10:05:01</time>
      </trkpt>
      <trkpt lat="40.6" lon="-3.72023">
        <ele>738.6</ele>
        <time>2021-11-16 10:05:02</time>
      </trkpt>
      <trkpt lat="40.60006" lon="-3.72026">
        <ele>739</ele>
        <time>2021-11-16 10:05:03</time>
      </trkpt>
      <trkpt lat="40.60012" lon="-3.72029">
        <ele>739.2</ele>
        <time>2021-11-16 10:05:04</time>
      </trkpt>
      <trkpt lat="40.60018" lon="-3.72031">
        <ele>739.4</ele>
        <time>2021-11-16 10:05:05</time>
      </trkpt>
      <trkpt lat="40.60025" lon="-3.72034">
        <ele>739.4</ele>
        <time>2021-11-16 10:05:06</time>
      </trkpt>
      <trkpt lat="40.60031" lon="-3.72037">
        <ele>739.4</ele>
        <time>2021-11-16 10:05:07</time>
      </trkpt>
      <trkpt lat="40.60037" lon="-3.72039">
        <ele>739.6</ele>
        <time>2021-11-16 10:05:08</time>
      </trkpt>
      <trkpt lat="40.60043" lon="-3.72041">
        <ele>739.6</ele>
        <time>2021-11-16 10:05:09</time>
      </trkpt>
      <trkpt lat="40.6005" lon="-3.72043">
        <ele>739.6</ele>
        <time>2021-11-16 10:05:10</time>
      </trkpt>
      <trkpt lat="40.60057" lon="-3.72045">
        <ele>739.6</ele>
        <time>2021-11-16 10:05:11</time>
      </trkpt>
      <trkpt lat="40.60065" lon="-3.72046">
        <ele>739.6</ele>
        <time>2021-11-16 10:05:12</time>
      </trkpt>
      <trkpt lat="40.60073" lon="-3.72047">
        <ele>739.8</ele>
        <time>2021-11-16 10:05:13</time>
      </trkpt>
      <trkpt lat="40.60081" lon="-3.72048">
        <ele>739.6</ele>
        <time>2021-11-16 10:05:14</time>
      </trkpt>
      <trkpt lat="40.60089" lon="-3.72049">
        <ele>739.6</ele>
        <time>2021-11-16 10:05:15</time>
      </trkpt>
      <trkpt lat="40.60098" lon="-3.7205">
        <ele>739.6</ele>
        <time>2021-11-16 10:05:16</time>
      </trkpt>
      <trkpt lat="40.60107" lon="-3.72051">
        <ele>739.6</ele>
        <time>2021-11-16 10:05:17</time>
      </trkpt>
      <trkpt lat="40.60115" lon="-3.72052">
        <ele>739.2</ele>
        <time>2021-11-16 10:05:18</time>
      </trkpt>
      <trkpt lat="40.60124" lon="-3.72054">
        <ele>739</ele>
        <time>2021-11-16 10:05:19</time>
      </trkpt>
      <trkpt lat="40.60133" lon="-3.72055">
        <ele>738.6</ele>
        <time>2021-11-16 10:05:20</time>
      </trkpt>
      <trkpt lat="40.60141" lon="-3.72056">
        <ele>738.2</ele>
        <time>2021-11-16 10:05:21</time>
      </trkpt>
      <trkpt lat="40.60149" lon="-3.72057">
        <ele>737.8</ele>
        <time>2021-11-16 10:05:22</time>
      </trkpt>
      <trkpt lat="40.60157" lon="-3.72058">
        <ele>737.2</ele>
        <time>2021-11-16 10:05:23</time>
      </trkpt>
      <trkpt lat="40.60165" lon="-3.7206">
        <ele>736.8</ele>
        <time>2021-11-16 10:05:24</time>
      </trkpt>
      <trkpt lat="40.60172" lon="-3.72061">
        <ele>736.6</ele>
        <time>2021-11-16 10:05:25</time>
      </trkpt>
      <trkpt lat="40.6018" lon="-3.72062">
        <ele>736.6</ele>
        <time>2021-11-16 10:05:26</time>
      </trkpt>
      <trkpt lat="40.60187" lon="-3.72063">
        <ele>736.6</ele>
        <time>2021-11-16 10:05:27</time>
      </trkpt>
      <trkpt lat="40.60194" lon="-3.72065">
        <ele>736.4</ele>
        <time>2021-11-16 10:05:28</time>
      </trkpt>
      <trkpt lat="40.60201" lon="-3.72066">
        <ele>736.4</ele>
        <time>2021-11-16 10:05:29</time>
      </trkpt>
      <trkpt lat="40.60208" lon="-3.72067">
        <ele>736.4</ele>
        <time>2021-11-16 10:05:30</time>
      </trkpt>
      <trkpt lat="40.60215" lon="-3.72068">
        <ele>736.4</ele>
        <time>2021-11-16 10:05:31</time>
      </trkpt>
      <trkpt lat="40.60222" lon="-3.72069">
        <ele>736.2</ele>
        <time>2021-11-16 10:05:32</time>
      </trkpt>
      <trkpt lat="40.6023" lon="-3.72071">
        <ele>736.2</ele>
        <time>2021-11-16 10:05:33</time>
      </trkpt>
      <trkpt lat="40.60237" lon="-3.72072">
        <ele>736.2</ele>
        <time>2021-11-16 10:05:34</time>
      </trkpt>
      <trkpt lat="40.60244" lon="-3.72074">
        <ele>736.4</ele>
        <time>2021-11-16 10:05:35</time>
      </trkpt>
      <trkpt lat="40.60251" lon="-3.72075">
        <ele>736.4</ele>
        <time>2021-11-16 10:05:36</time>
      </trkpt>
      <trkpt lat="40.60258" lon="-3.72077">
        <ele>736.4</ele>
        <time>2021-11-16 10:05:37</time>
      </trkpt>
      <trkpt lat="40.60265" lon="-3.72078">
        <ele>736.6</ele>
        <time>2021-11-16 10:05:38</time>
      </trkpt>
      <trkpt lat="40.60272" lon="-3.72079">
        <ele>736.4</ele>
        <time>2021-11-16 10:05:39</time>
      </trkpt>
      <trkpt lat="40.60279" lon="-3.7208">
        <ele>736.6</ele>
        <time>2021-11-16 10:05:40</time>
      </trkpt>
      <trkpt lat="40.60286" lon="-3.72081">
        <ele>736.8</ele>
        <time>2021-11-16 10:05:41</time>
      </trkpt>
      <trkpt lat="40.60293" lon="-3.72082">
        <ele>736.8</ele>
        <time>2021-11-16 10:05:42</time>
      </trkpt>
      <trkpt lat="40.603" lon="-3.72084">
        <ele>737</ele>
        <time>2021-11-16 10:05:43</time>
      </trkpt>
      <trkpt lat="40.60307" lon="-3.72085">
        <ele>737.2</ele>
        <time>2021-11-16 10:05:44</time>
      </trkpt>
      <trkpt lat="40.60314" lon="-3.72087">
        <ele>737.2</ele>
        <time>2021-11-16 10:05:45</time>
      </trkpt>
      <trkpt lat="40.60321" lon="-3.72088">
        <ele>737.2</ele>
        <time>2021-11-16 10:05:46</time>
      </trkpt>
      <trkpt lat="40.60328" lon="-3.7209">
        <ele>737.4</ele>
        <time>2021-11-16 10:05:47</time>
      </trkpt>
      <trkpt lat="40.60335" lon="-3.72091">
        <ele>737.4</ele>
        <time>2021-11-16 10:05:48</time>
      </trkpt>
      <trkpt lat="40.60342" lon="-3.72091">
        <ele>737.4</ele>
        <time>2021-11-16 10:05:49</time>
      </trkpt>
      <trkpt lat="40.60349" lon="-3.72092">
        <ele>737.4</ele>
        <time>2021-11-16 10:05:50</time>
      </trkpt>
      <trkpt lat="40.60356" lon="-3.72093">
        <ele>737.4</ele>
        <time>2021-11-16 10:05:51</time>
      </trkpt>
      <trkpt lat="40.60363" lon="-3.72094">
        <ele>737.4</ele>
        <time>2021-11-16 10:05:52</time>
      </trkpt>
      <trkpt lat="40.6037" lon="-3.72095">
        <ele>737.4</ele>
        <time>2021-11-16 10:05:53</time>
      </trkpt>
      <trkpt lat="40.60376" lon="-3.72096">
        <ele>737.4</ele>
        <time>2021-11-16 10:05:54</time>
      </trkpt>
      <trkpt lat="40.60383" lon="-3.72096">
        <ele>737.4</ele>
        <time>2021-11-16 10:05:55</time>
      </trkpt>
      <trkpt lat="40.6039" lon="-3.72097">
        <ele>737.2</ele>
        <time>2021-11-16 10:05:56</time>
      </trkpt>
      <trkpt lat="40.60397" lon="-3.72098">
        <ele>737.4</ele>
        <time>2021-11-16 10:05:57</time>
      </trkpt>
      <trkpt lat="40.60404" lon="-3.72099">
        <ele>737.4</ele>
        <time>2021-11-16 10:05:58</time>
      </trkpt>
      <trkpt lat="40.60411" lon="-3.72099">
        <ele>737.4</ele>
        <time>2021-11-16 10:05:59</time>
      </trkpt>
      <trkpt lat="40.60418" lon="-3.721">
        <ele>737.4</ele>
        <time>2021-11-16 10:06:00</time>
      </trkpt>
      <trkpt lat="40.60424" lon="-3.72101">
        <ele>737.4</ele>
        <time>2021-11-16 10:06:01</time>
      </trkpt>
      <trkpt lat="40.60431" lon="-3.72102">
        <ele>737.4</ele>
        <time>2021-11-16 10:06:02</time>
      </trkpt>
      <trkpt lat="40.60438" lon="-3.72102">
        <ele>737.4</ele>
        <time>2021-11-16 10:06:03</time>
      </trkpt>
      <trkpt lat="40.60445" lon="-3.72103">
        <ele>737.4</ele>
        <time>2021-11-16 10:06:04</time>
      </trkpt>
      <trkpt lat="40.60452" lon="-3.72104">
        <ele>737.8</ele>
        <time>2021-11-16 10:06:05</time>
      </trkpt>
      <trkpt lat="40.60459" lon="-3.72105">
        <ele>738</ele>
        <time>2021-11-16 10:06:06</time>
      </trkpt>
      <trkpt lat="40.60466" lon="-3.72106">
        <ele>738</ele>
        <time>2021-11-16 10:06:07</time>
      </trkpt>
      <trkpt lat="40.60473" lon="-3.72107">
        <ele>738</ele>
        <time>2021-11-16 10:06:08</time>
      </trkpt>
      <trkpt lat="40.6048" lon="-3.72107">
        <ele>738</ele>
        <time>2021-11-16 10:06:09</time>
      </trkpt>
      <trkpt lat="40.60487" lon="-3.72108">
        <ele>738</ele>
        <time>2021-11-16 10:06:10</time>
      </trkpt>
      <trkpt lat="40.60493" lon="-3.72108">
        <ele>738.2</ele>
        <time>2021-11-16 10:06:11</time>
      </trkpt>
      <trkpt lat="40.605" lon="-3.72109">
        <ele>738.2</ele>
        <time>2021-11-16 10:06:12</time>
      </trkpt>
      <trkpt lat="40.60507" lon="-3.7211">
        <ele>738.4</ele>
        <time>2021-11-16 10:06:13</time>
      </trkpt>
      <trkpt lat="40.60513" lon="-3.7211">
        <ele>738.6</ele>
        <time>2021-11-16 10:06:14</time>
      </trkpt>
      <trkpt lat="40.6052" lon="-3.72111">
        <ele>738.6</ele>
        <time>2021-11-16 10:06:15</time>
      </trkpt>
      <trkpt lat="40.60527" lon="-3.72112">
        <ele>738.6</ele>
        <time>2021-11-16 10:06:16</time>
      </trkpt>
      <trkpt lat="40.60534" lon="-3.72113">
        <ele>738.6</ele>
        <time>2021-11-16 10:06:17</time>
      </trkpt>
      <trkpt lat="40.6054" lon="-3.72114">
        <ele>738.8</ele>
        <time>2021-11-16 10:06:18</time>
      </trkpt>
      <trkpt lat="40.60547" lon="-3.72114">
        <ele>738.8</ele>
        <time>2021-11-16 10:06:19</time>
      </trkpt>
      <trkpt lat="40.60553" lon="-3.72115">
        <ele>739</ele>
        <time>2021-11-16 10:06:20</time>
      </trkpt>
      <trkpt lat="40.6056" lon="-3.72116">
        <ele>739.2</ele>
        <time>2021-11-16 10:06:21</time>
      </trkpt>
      <trkpt lat="40.60567" lon="-3.72116">
        <ele>739</ele>
        <time>2021-11-16 10:06:22</time>
      </trkpt>
      <trkpt lat="40.60573" lon="-3.72117">
        <ele>739.2</ele>
        <time>2021-11-16 10:06:23</time>
      </trkpt>
      <trkpt lat="40.6058" lon="-3.72118">
        <ele>739.4</ele>
        <time>2021-11-16 10:06:24</time>
      </trkpt>
      <trkpt lat="40.60586" lon="-3.72119">
        <ele>739.4</ele>
        <time>2021-11-16 10:06:25</time>
      </trkpt>
      <trkpt lat="40.60593" lon="-3.7212">
        <ele>739.2</ele>
        <time>2021-11-16 10:06:26</time>
      </trkpt>
      <trkpt lat="40.60599" lon="-3.72121">
        <ele>739.4</ele>
        <time>2021-11-16 10:06:27</time>
      </trkpt>
      <trkpt lat="40.60606" lon="-3.72121">
        <ele>739.4</ele>
        <time>2021-11-16 10:06:28</time>
      </trkpt>
      <trkpt lat="40.60612" lon="-3.72122">
        <ele>739.2</ele>
        <time>2021-11-16 10:06:29</time>
      </trkpt>
      <trkpt lat="40.60619" lon="-3.72123">
        <ele>739.4</ele>
        <time>2021-11-16 10:06:30</time>
      </trkpt>
      <trkpt lat="40.60626" lon="-3.72123">
        <ele>739.4</ele>
        <time>2021-11-16 10:06:31</time>
      </trkpt>
      <trkpt lat="40.60633" lon="-3.72124">
        <ele>739.4</ele>
        <time>2021-11-16 10:06:32</time>
      </trkpt>
      <trkpt lat="40.6064" lon="-3.72125">
        <ele>739.4</ele>
        <time>2021-11-16 10:06:33</time>
      </trkpt>
      <trkpt lat="40.60647" lon="-3.72126">
        <ele>739.6</ele>
        <time>2021-11-16 10:06:34</time>
      </trkpt>
      <trkpt lat="40.60654" lon="-3.72127">
        <ele>739.6</ele>
        <time>2021-11-16 10:06:35</time>
      </trkpt>
      <trkpt lat="40.60661" lon="-3.72127">
        <ele>739.6</ele>
        <time>2021-11-16 10:06:36</time>
      </trkpt>
      <trkpt lat="40.60668" lon="-3.72128">
        <ele>739.4</ele>
        <time>2021-11-16 10:06:37</time>
      </trkpt>
      <trkpt lat="40.60675" lon="-3.72129">
        <ele>739.4</ele>
        <time>2021-11-16 10:06:38</time>
      </trkpt>
      <trkpt lat="40.60681" lon="-3.7213">
        <ele>739.4</ele>
        <time>2021-11-16 10:06:39</time>
      </trkpt>
      <trkpt lat="40.60688" lon="-3.7213">
        <ele>739.4</ele>
        <time>2021-11-16 10:06:40</time>
      </trkpt>
      <trkpt lat="40.60695" lon="-3.72131">
        <ele>739.4</ele>
        <time>2021-11-16 10:06:41</time>
      </trkpt>
      <trkpt lat="40.60703" lon="-3.72131">
        <ele>739.4</ele>
        <time>2021-11-16 10:06:42</time>
      </trkpt>
      <trkpt lat="40.60709" lon="-3.72129">
        <ele>739.2</ele>
        <time>2021-11-16 10:06:43</time>
      </trkpt>
      <trkpt lat="40.60716" lon="-3.72126">
        <ele>739.2</ele>
        <time>2021-11-16 10:06:44</time>
      </trkpt>
      <trkpt lat="40.60722" lon="-3.72121">
        <ele>739.4</ele>
        <time>2021-11-16 10:06:45</time>
      </trkpt>
      <trkpt lat="40.60728" lon="-3.72116">
        <ele>739.2</ele>
        <time>2021-11-16 10:06:46</time>
      </trkpt>
      <trkpt lat="40.60734" lon="-3.72113">
        <ele>739</ele>
        <time>2021-11-16 10:06:47</time>
      </trkpt>
      <trkpt lat="40.6074" lon="-3.72112">
        <ele>738.8</ele>
        <time>2021-11-16 10:06:48</time>
      </trkpt>
      <trkpt lat="40.60918" lon="-3.7217">
        <ele>750.6</ele>
        <time>2021-11-16 10:07:41</time>
      </trkpt>
      <trkpt lat="40.60924" lon="-3.72171">
        <ele>750.6</ele>
        <time>2021-11-16 10:07:42</time>
      </trkpt>
      <trkpt lat="40.6093" lon="-3.72171">
        <ele>750.6</ele>
        <time>2021-11-16 10:07:43</time>
      </trkpt>
      <trkpt lat="40.60936" lon="-3.7217">
        <ele>750.8</ele>
        <time>2021-11-16 10:07:44</time>
      </trkpt>
      <trkpt lat="40.60943" lon="-3.72171">
        <ele>750.6</ele>
        <time>2021-11-16 10:07:45</time>
      </trkpt>
      <trkpt lat="40.60949" lon="-3.72172">
        <ele>750.6</ele>
        <time>2021-11-16 10:07:46</time>
      </trkpt>
      <trkpt lat="40.60956" lon="-3.72175">
        <ele>750</ele>
        <time>2021-11-16 10:07:47</time>
      </trkpt>
      <trkpt lat="40.60963" lon="-3.72179">
        <ele>749.6</ele>
        <time>2021-11-16 10:07:48</time>
      </trkpt>
      <trkpt lat="40.6097" lon="-3.72182">
        <ele>749.4</ele>
        <time>2021-11-16 10:07:49</time>
      </trkpt>
      <trkpt lat="40.60977" lon="-3.72186">
        <ele>749.4</ele>
        <time>2021-11-16 10:07:50</time>
      </trkpt>
      <trkpt lat="40.60984" lon="-3.72191">
        <ele>748.2</ele>
        <time>2021-11-16 10:07:51</time>
      </trkpt>
      <trkpt lat="40.6099" lon="-3.72197">
        <ele>747.2</ele>
        <time>2021-11-16 10:07:52</time>
      </trkpt>
      <trkpt lat="40.60996" lon="-3.72203">
        <ele>746.4</ele>
        <time>2021-11-16 10:07:53</time>
      </trkpt>
      <trkpt lat="40.61001" lon="-3.72209">
        <ele>746</ele>
        <time>2021-11-16 10:07:54</time>
      </trkpt>
      <trkpt lat="40.61006" lon="-3.72215">
        <ele>745.4</ele>
        <time>2021-11-16 10:07:55</time>
      </trkpt>
      <trkpt lat="40.61012" lon="-3.72221">
        <ele>745</ele>
        <time>2021-11-16 10:07:56</time>
      </trkpt>
      <trkpt lat="40.61018" lon="-3.72228">
        <ele>744.8</ele>
        <time>2021-11-16 10:07:57</time>
      </trkpt>
      <trkpt lat="40.61024" lon="-3.72234">
        <ele>744.8</ele>
        <time>2021-11-16 10:07:58</time>
      </trkpt>
      <trkpt lat="40.61031" lon="-3.7224">
        <ele>744.4</ele>
        <time>2021-11-16 10:07:59</time>
      </trkpt>
      <trkpt lat="40.61039" lon="-3.72246">
        <ele>744.2</ele>
        <time>2021-11-16 10:08:00</time>
      </trkpt>
      <trkpt lat="40.61047" lon="-3.72253">
        <ele>744.2</ele>
        <time>2021-11-16 10:08:01</time>
      </trkpt>
      <trkpt lat="40.61053" lon="-3.72262">
        <ele>743.8</ele>
        <time>2021-11-16 10:08:02</time>
      </trkpt>
      <trkpt lat="40.61059" lon="-3.72271">
        <ele>743.8</ele>
        <time>2021-11-16 10:08:03</time>
      </trkpt>
      <trkpt lat="40.61065" lon="-3.72281">
        <ele>743.6</ele>
        <time>2021-11-16 10:08:04</time>
      </trkpt>
      <trkpt lat="40.61072" lon="-3.72291">
        <ele>743.4</ele>
        <time>2021-11-16 10:08:05</time>
      </trkpt>
      <trkpt lat="40.61078" lon="-3.72299">
        <ele>743.4</ele>
        <time>2021-11-16 10:08:06</time>
      </trkpt>
      <trkpt lat="40.61086" lon="-3.72304">
        <ele>743.2</ele>
        <time>2021-11-16 10:08:07</time>
      </trkpt>
      <trkpt lat="40.61094" lon="-3.72309">
        <ele>742.6</ele>
        <time>2021-11-16 10:08:08</time>
      </trkpt>
      <trkpt lat="40.61102" lon="-3.72314">
        <ele>741.2</ele>
        <time>2021-11-16 10:08:09</time>
      </trkpt>
      <trkpt lat="40.61109" lon="-3.72319">
        <ele>740.6</ele>
        <time>2021-11-16 10:08:10</time>
      </trkpt>
      <trkpt lat="40.61116" lon="-3.72324">
        <ele>740</ele>
        <time>2021-11-16 10:08:11</time>
      </trkpt>
      <trkpt lat="40.61123" lon="-3.72328">
        <ele>740</ele>
        <time>2021-11-16 10:08:12</time>
      </trkpt>
      <trkpt lat="40.6113" lon="-3.72332">
        <ele>740</ele>
        <time>2021-11-16 10:08:13</time>
      </trkpt>
      <trkpt lat="40.61137" lon="-3.72336">
        <ele>739.8</ele>
        <time>2021-11-16 10:08:14</time>
      </trkpt>
      <trkpt lat="40.61143" lon="-3.72339">
        <ele>739.6</ele>
        <time>2021-11-16 10:08:15</time>
      </trkpt>
      <trkpt lat="40.6115" lon="-3.72342">
        <ele>739.6</ele>
        <time>2021-11-16 10:08:16</time>
      </trkpt>
      <trkpt lat="40.61157" lon="-3.72345">
        <ele>739.4</ele>
        <time>2021-11-16 10:08:17</time>
      </trkpt>
      <trkpt lat="40.61163" lon="-3.72349">
        <ele>739.4</ele>
        <time>2021-11-16 10:08:18</time>
      </trkpt>
      <trkpt lat="40.6117" lon="-3.72352">
        <ele>739.4</ele>
        <time>2021-11-16 10:08:19</time>
      </trkpt>
      <trkpt lat="40.61177" lon="-3.72356">
        <ele>739.4</ele>
        <time>2021-11-16 10:08:20</time>
      </trkpt>
      <trkpt lat="40.61183" lon="-3.72361">
        <ele>739.2</ele>
        <time>2021-11-16 10:08:21</time>
      </trkpt>
      <trkpt lat="40.6119" lon="-3.72366">
        <ele>739.2</ele>
        <time>2021-11-16 10:08:22</time>
      </trkpt>
      <trkpt lat="40.61197" lon="-3.72371">
        <ele>739.2</ele>
        <time>2021-11-16 10:08:23</time>
      </trkpt>
      <trkpt lat="40.61204" lon="-3.72375">
        <ele>739.4</ele>
        <time>2021-11-16 10:08:24</time>
      </trkpt>
      <trkpt lat="40.61212" lon="-3.72381">
        <ele>739.2</ele>
        <time>2021-11-16 10:08:25</time>
      </trkpt>
      <trkpt lat="40.61219" lon="-3.72387">
        <ele>739.2</ele>
        <time>2021-11-16 10:08:26</time>
      </trkpt>
      <trkpt lat="40.61226" lon="-3.72393">
        <ele>739.2</ele>
        <time>2021-11-16 10:08:27</time>
      </trkpt>
      <trkpt lat="40.61233" lon="-3.72399">
        <ele>739.2</ele>
        <time>2021-11-16 10:08:28</time>
      </trkpt>
      <trkpt lat="40.61241" lon="-3.72405">
        <ele>738.8</ele>
        <time>2021-11-16 10:08:29</time>
      </trkpt>
      <trkpt lat="40.61248" lon="-3.72411">
        <ele>738.4</ele>
        <time>2021-11-16 10:08:30</time>
      </trkpt>
      <trkpt lat="40.61256" lon="-3.72417">
        <ele>738</ele>
        <time>2021-11-16 10:08:31</time>
      </trkpt>
      <trkpt lat="40.61263" lon="-3.72424">
        <ele>737.8</ele>
        <time>2021-11-16 10:08:32</time>
      </trkpt>
      <trkpt lat="40.61271" lon="-3.7243">
        <ele>737.4</ele>
        <time>2021-11-16 10:08:33</time>
      </trkpt>
      <trkpt lat="40.61278" lon="-3.72436">
        <ele>737.4</ele>
        <time>2021-11-16 10:08:34</time>
      </trkpt>
      <trkpt lat="40.61286" lon="-3.72442">
        <ele>736.6</ele>
        <time>2021-11-16 10:08:35</time>
      </trkpt>
      <trkpt lat="40.61293" lon="-3.72448">
        <ele>736.2</ele>
        <time>2021-11-16 10:08:36</time>
      </trkpt>
      <trkpt lat="40.61301" lon="-3.72454">
        <ele>735.6</ele>
        <time>2021-11-16 10:08:37</time>
      </trkpt>
      <trkpt lat="40.61309" lon="-3.7246">
        <ele>735.2</ele>
        <time>2021-11-16 10:08:38</time>
      </trkpt>
      <trkpt lat="40.61316" lon="-3.72466">
        <ele>735</ele>
        <time>2021-11-16 10:08:39</time>
      </trkpt>
      <trkpt lat="40.61323" lon="-3.72472">
        <ele>734.6</ele>
        <time>2021-11-16 10:08:40</time>
      </trkpt>
      <trkpt lat="40.61331" lon="-3.72478">
        <ele>734.4</ele>
        <time>2021-11-16 10:08:41</time>
      </trkpt>
      <trkpt lat="40.61337" lon="-3.72483">
        <ele>734.4</ele>
        <time>2021-11-16 10:08:42</time>
      </trkpt>
      <trkpt lat="40.61344" lon="-3.72489">
        <ele>734.4</ele>
        <time>2021-11-16 10:08:43</time>
      </trkpt>
      <trkpt lat="40.61351" lon="-3.72494">
        <ele>734.2</ele>
        <time>2021-11-16 10:08:44</time>
      </trkpt>
      <trkpt lat="40.61357" lon="-3.72499">
        <ele>734.2</ele>
        <time>2021-11-16 10:08:45</time>
      </trkpt>
      <trkpt lat="40.61363" lon="-3.72504">
        <ele>734.4</ele>
        <time>2021-11-16 10:08:46</time>
      </trkpt>
      <trkpt lat="40.61369" lon="-3.72509">
        <ele>734.4</ele>
        <time>2021-11-16 10:08:47</time>
      </trkpt>
      <trkpt lat="40.61374" lon="-3.72513">
        <ele>734.2</ele>
        <time>2021-11-16 10:08:48</time>
      </trkpt>
      <trkpt lat="40.61379" lon="-3.72518">
        <ele>734.4</ele>
        <time>2021-11-16 10:08:49</time>
      </trkpt>
      <trkpt lat="40.61384" lon="-3.72523">
        <ele>734.6</ele>
        <time>2021-11-16 10:08:50</time>
      </trkpt>
      <trkpt lat="40.61388" lon="-3.72527">
        <ele>734.6</ele>
        <time>2021-11-16 10:08:51</time>
      </trkpt>
      <trkpt lat="40.61393" lon="-3.72532">
        <ele>734.6</ele>
        <time>2021-11-16 10:08:52</time>
      </trkpt>
      <trkpt lat="40.61397" lon="-3.72536">
        <ele>734.8</ele>
        <time>2021-11-16 10:08:53</time>
      </trkpt>
      <trkpt lat="40.61401" lon="-3.7254">
        <ele>735.4</ele>
        <time>2021-11-16 10:08:54</time>
      </trkpt>
      <trkpt lat="40.61404" lon="-3.72544">
        <ele>735.4</ele>
        <time>2021-11-16 10:08:55</time>
      </trkpt>
      <trkpt lat="40.61408" lon="-3.72548">
        <ele>736</ele>
        <time>2021-11-16 10:08:56</time>
      </trkpt>
      <trkpt lat="40.61411" lon="-3.72553">
        <ele>736.4</ele>
        <time>2021-11-16 10:08:57</time>
      </trkpt>
      <trkpt lat="40.61414" lon="-3.72557">
        <ele>736.6</ele>
        <time>2021-11-16 10:08:58</time>
      </trkpt>
      <trkpt lat="40.61417" lon="-3.72561">
        <ele>737.2</ele>
        <time>2021-11-16 10:08:59</time>
      </trkpt>
      <trkpt lat="40.61421" lon="-3.72565">
        <ele>738.2</ele>
        <time>2021-11-16 10:09:00</time>
      </trkpt>
      <trkpt lat="40.61424" lon="-3.72569">
        <ele>738.6</ele>
        <time>2021-11-16 10:09:01</time>
      </trkpt>
      <trkpt lat="40.61427" lon="-3.72573">
        <ele>739.8</ele>
        <time>2021-11-16 10:09:02</time>
      </trkpt>
      <trkpt lat="40.61429" lon="-3.72577">
        <ele>740.2</ele>
        <time>2021-11-16 10:09:03</time>
      </trkpt>
      <trkpt lat="40.61431" lon="-3.72582">
        <ele>741</ele>
        <time>2021-11-16 10:09:04</time>
      </trkpt>
      <trkpt lat="40.61433" lon="-3.72586">
        <ele>741.8</ele>
        <time>2021-11-16 10:09:05</time>
      </trkpt>
      <trkpt lat="40.61434" lon="-3.72591">
        <ele>742.4</ele>
        <time>2021-11-16 10:09:06</time>
      </trkpt>
      <trkpt lat="40.61436" lon="-3.72596">
        <ele>742.8</ele>
        <time>2021-11-16 10:09:07</time>
      </trkpt>
      <trkpt lat="40.61437" lon="-3.72601">
        <ele>743.2</ele>
        <time>2021-11-16 10:09:08</time>
      </trkpt>
      <trkpt lat="40.61437" lon="-3.72606">
        <ele>743.8</ele>
        <time>2021-11-16 10:09:09</time>
      </trkpt>
      <trkpt lat="40.61438" lon="-3.72611">
        <ele>743.8</ele>
        <time>2021-11-16 10:09:10</time>
      </trkpt>
      <trkpt lat="40.61438" lon="-3.72617">
        <ele>744.2</ele>
        <time>2021-11-16 10:09:11</time>
      </trkpt>
      <trkpt lat="40.61438" lon="-3.72622">
        <ele>744.8</ele>
        <time>2021-11-16 10:09:12</time>
      </trkpt>
      <trkpt lat="40.61437" lon="-3.72627">
        <ele>744.8</ele>
        <time>2021-11-16 10:09:13</time>
      </trkpt>
      <trkpt lat="40.61437" lon="-3.72633">
        <ele>745.2</ele>
        <time>2021-11-16 10:09:14</time>
      </trkpt>
      <trkpt lat="40.61436" lon="-3.72638">
        <ele>745.2</ele>
        <time>2021-11-16 10:09:15</time>
      </trkpt>
      <trkpt lat="40.61435" lon="-3.72643">
        <ele>745.8</ele>
        <time>2021-11-16 10:09:16</time>
      </trkpt>
      <trkpt lat="40.61434" lon="-3.72648">
        <ele>746</ele>
        <time>2021-11-16 10:09:17</time>
      </trkpt>
      <trkpt lat="40.61433" lon="-3.72653">
        <ele>746.4</ele>
        <time>2021-11-16 10:09:18</time>
      </trkpt>
      <trkpt lat="40.61432" lon="-3.72659">
        <ele>746.8</ele>
        <time>2021-11-16 10:09:19</time>
      </trkpt>
      <trkpt lat="40.61431" lon="-3.72664">
        <ele>747.6</ele>
        <time>2021-11-16 10:09:20</time>
      </trkpt>
      <trkpt lat="40.61431" lon="-3.72669">
        <ele>748</ele>
        <time>2021-11-16 10:09:21</time>
      </trkpt>
      <trkpt lat="40.6143" lon="-3.72674">
        <ele>748.2</ele>
        <time>2021-11-16 10:09:22</time>
      </trkpt>
      <trkpt lat="40.61429" lon="-3.7268">
        <ele>748.4</ele>
        <time>2021-11-16 10:09:23</time>
      </trkpt>
      <trkpt lat="40.61428" lon="-3.72685">
        <ele>748.4</ele>
        <time>2021-11-16 10:09:24</time>
      </trkpt>
      <trkpt lat="40.61427" lon="-3.72691">
        <ele>748.6</ele>
        <time>2021-11-16 10:09:25</time>
      </trkpt>
      <trkpt lat="40.61427" lon="-3.72697">
        <ele>749</ele>
        <time>2021-11-16 10:09:26</time>
      </trkpt>
      <trkpt lat="40.61428" lon="-3.72703">
        <ele>749</ele>
        <time>2021-11-16 10:09:27</time>
      </trkpt>
      <trkpt lat="40.6143" lon="-3.72709">
        <ele>749</ele>
        <time>2021-11-16 10:09:28</time>
      </trkpt>
      <trkpt lat="40.61434" lon="-3.72715">
        <ele>749</ele>
        <time>2021-11-16 10:09:29</time>
      </trkpt>
      <trkpt lat="40.61439" lon="-3.72719">
        <ele>749</ele>
        <time>2021-11-16 10:09:30</time>
      </trkpt>
      <trkpt lat="40.61444" lon="-3.72722">
        <ele>749.2</ele>
        <time>2021-11-16 10:09:31</time>
      </trkpt>
      <trkpt lat="40.6145" lon="-3.72725">
        <ele>749</ele>
        <time>2021-11-16 10:09:32</time>
      </trkpt>
      <trkpt lat="40.61456" lon="-3.72727">
        <ele>749</ele>
        <time>2021-11-16 10:09:33</time>
      </trkpt>
      <trkpt lat="40.61462" lon="-3.72729">
        <ele>749</ele>
        <time>2021-11-16 10:09:34</time>
      </trkpt>
      <trkpt lat="40.61468" lon="-3.72731">
        <ele>749</ele>
        <time>2021-11-16 10:09:35</time>
      </trkpt>
      <trkpt lat="40.61475" lon="-3.72733">
        <ele>749</ele>
        <time>2021-11-16 10:09:36</time>
      </trkpt>
      <trkpt lat="40.61481" lon="-3.72735">
        <ele>748.8</ele>
        <time>2021-11-16 10:09:37</time>
      </trkpt>
      <trkpt lat="40.61487" lon="-3.72737">
        <ele>748.8</ele>
        <time>2021-11-16 10:09:38</time>
      </trkpt>
      <trkpt lat="40.61493" lon="-3.72739">
        <ele>748.6</ele>
        <time>2021-11-16 10:09:39</time>
      </trkpt>
      <trkpt lat="40.61499" lon="-3.72742">
        <ele>748.2</ele>
        <time>2021-11-16 10:09:40</time>
      </trkpt>
      <trkpt lat="40.61504" lon="-3.72745">
        <ele>748</ele>
        <time>2021-11-16 10:09:41</time>
      </trkpt>
      <trkpt lat="40.61509" lon="-3.72749">
        <ele>748.2</ele>
        <time>2021-11-16 10:09:42</time>
      </trkpt>
      <trkpt lat="40.61513" lon="-3.72754">
        <ele>748.2</ele>
        <time>2021-11-16 10:09:43</time>
      </trkpt>
      <trkpt lat="40.61517" lon="-3.72759">
        <ele>748</ele>
        <time>2021-11-16 10:09:44</time>
      </trkpt>
      <trkpt lat="40.6152" lon="-3.72766">
        <ele>748.2</ele>
        <time>2021-11-16 10:09:45</time>
      </trkpt>
      <trkpt lat="40.61523" lon="-3.72772">
        <ele>748</ele>
        <time>2021-11-16 10:09:46</time>
      </trkpt>
      <trkpt lat="40.61526" lon="-3.72779">
        <ele>748</ele>
        <time>2021-11-16 10:09:47</time>
      </trkpt>
      <trkpt lat="40.61528" lon="-3.72785">
        <ele>748</ele>
        <time>2021-11-16 10:09:48</time>
      </trkpt>
      <trkpt lat="40.61531" lon="-3.72792">
        <ele>748</ele>
        <time>2021-11-16 10:09:49</time>
      </trkpt>
      <trkpt lat="40.61534" lon="-3.72799">
        <ele>748</ele>
        <time>2021-11-16 10:09:50</time>
      </trkpt>
      <trkpt lat="40.61537" lon="-3.72805">
        <ele>748.2</ele>
        <time>2021-11-16 10:09:51</time>
      </trkpt>
      <trkpt lat="40.61541" lon="-3.72811">
        <ele>748.2</ele>
        <time>2021-11-16 10:09:52</time>
      </trkpt>
      <trkpt lat="40.61544" lon="-3.72817">
        <ele>748.4</ele>
        <time>2021-11-16 10:09:53</time>
      </trkpt>
      <trkpt lat="40.61547" lon="-3.72824">
        <ele>748.6</ele>
        <time>2021-11-16 10:09:54</time>
      </trkpt>
      <trkpt lat="40.61551" lon="-3.7283">
        <ele>748.8</ele>
        <time>2021-11-16 10:09:55</time>
      </trkpt>
      <trkpt lat="40.61554" lon="-3.72836">
        <ele>748.8</ele>
        <time>2021-11-16 10:09:56</time>
      </trkpt>
      <trkpt lat="40.61558" lon="-3.72842">
        <ele>748.8</ele>
        <time>2021-11-16 10:09:57</time>
      </trkpt>
      <trkpt lat="40.61561" lon="-3.72847">
        <ele>749</ele>
        <time>2021-11-16 10:09:58</time>
      </trkpt>
      <trkpt lat="40.61565" lon="-3.72853">
        <ele>749</ele>
        <time>2021-11-16 10:09:59</time>
      </trkpt>
      <trkpt lat="40.61569" lon="-3.72858">
        <ele>749</ele>
        <time>2021-11-16 10:10:00</time>
      </trkpt>
      <trkpt lat="40.61574" lon="-3.72864">
        <ele>749</ele>
        <time>2021-11-16 10:10:01</time>
      </trkpt>
      <trkpt lat="40.61578" lon="-3.72869">
        <ele>749.2</ele>
        <time>2021-11-16 10:10:02</time>
      </trkpt>
      <trkpt lat="40.61583" lon="-3.72874">
        <ele>749.2</ele>
        <time>2021-11-16 10:10:03</time>
      </trkpt>
      <trkpt lat="40.61587" lon="-3.72879">
        <ele>749</ele>
        <time>2021-11-16 10:10:04</time>
      </trkpt>
      <trkpt lat="40.61592" lon="-3.72884">
        <ele>749.2</ele>
        <time>2021-11-16 10:10:05</time>
      </trkpt>
      <trkpt lat="40.61597" lon="-3.72889">
        <ele>749.2</ele>
        <time>2021-11-16 10:10:06</time>
      </trkpt>
      <trkpt lat="40.61602" lon="-3.72893">
        <ele>749</ele>
        <time>2021-11-16 10:10:07</time>
      </trkpt>
      <trkpt lat="40.61607" lon="-3.72898">
        <ele>749.2</ele>
        <time>2021-11-16 10:10:08</time>
      </trkpt>
      <trkpt lat="40.61612" lon="-3.72902">
        <ele>749.2</ele>
        <time>2021-11-16 10:10:09</time>
      </trkpt>
      <trkpt lat="40.61618" lon="-3.72906">
        <ele>749.4</ele>
        <time>2021-11-16 10:10:10</time>
      </trkpt>
      <trkpt lat="40.61623" lon="-3.7291">
        <ele>749.2</ele>
        <time>2021-11-16 10:10:11</time>
      </trkpt>
      <trkpt lat="40.61629" lon="-3.72914">
        <ele>749.4</ele>
        <time>2021-11-16 10:10:12</time>
      </trkpt>
      <trkpt lat="40.61635" lon="-3.72917">
        <ele>749.4</ele>
        <time>2021-11-16 10:10:13</time>
      </trkpt>
      <trkpt lat="40.6164" lon="-3.72922">
        <ele>749.6</ele>
        <time>2021-11-16 10:10:14</time>
      </trkpt>
      <trkpt lat="40.61645" lon="-3.72926">
        <ele>749.6</ele>
        <time>2021-11-16 10:10:15</time>
      </trkpt>
      <trkpt lat="40.6165" lon="-3.72931">
        <ele>749.8</ele>
        <time>2021-11-16 10:10:16</time>
      </trkpt>
      <trkpt lat="40.61655" lon="-3.72935">
        <ele>749.8</ele>
        <time>2021-11-16 10:10:17</time>
      </trkpt>
      <trkpt lat="40.61661" lon="-3.72938">
        <ele>749.8</ele>
        <time>2021-11-16 10:10:18</time>
      </trkpt>
      <trkpt lat="40.61666" lon="-3.72941">
        <ele>749.8</ele>
        <time>2021-11-16 10:10:19</time>
      </trkpt>
      <trkpt lat="40.61671" lon="-3.72944">
        <ele>750</ele>
        <time>2021-11-16 10:10:20</time>
      </trkpt>
      <trkpt lat="40.61677" lon="-3.72947">
        <ele>750</ele>
        <time>2021-11-16 10:10:21</time>
      </trkpt>
      <trkpt lat="40.61682" lon="-3.72951">
        <ele>750</ele>
        <time>2021-11-16 10:10:22</time>
      </trkpt>
      <trkpt lat="40.61687" lon="-3.72955">
        <ele>750</ele>
        <time>2021-11-16 10:10:23</time>
      </trkpt>
      <trkpt lat="40.61693" lon="-3.72958">
        <ele>750</ele>
        <time>2021-11-16 10:10:24</time>
      </trkpt>
      <trkpt lat="40.61699" lon="-3.7296">
        <ele>750.2</ele>
        <time>2021-11-16 10:10:25</time>
      </trkpt>
      <trkpt lat="40.61705" lon="-3.72962">
        <ele>750.2</ele>
        <time>2021-11-16 10:10:26</time>
      </trkpt>
      <trkpt lat="40.61712" lon="-3.72964">
        <ele>750.2</ele>
        <time>2021-11-16 10:10:27</time>
      </trkpt>
      <trkpt lat="40.61718" lon="-3.72967">
        <ele>750.4</ele>
        <time>2021-11-16 10:10:28</time>
      </trkpt>
      <trkpt lat="40.61724" lon="-3.7297">
        <ele>750.4</ele>
        <time>2021-11-16 10:10:29</time>
      </trkpt>
      <trkpt lat="40.6173" lon="-3.72972">
        <ele>750.4</ele>
        <time>2021-11-16 10:10:30</time>
      </trkpt>
      <trkpt lat="40.61735" lon="-3.72975">
        <ele>750.6</ele>
        <time>2021-11-16 10:10:31</time>
      </trkpt>
      <trkpt lat="40.61741" lon="-3.72977">
        <ele>750.6</ele>
        <time>2021-11-16 10:10:32</time>
      </trkpt>
      <trkpt lat="40.61747" lon="-3.72979">
        <ele>750.8</ele>
        <time>2021-11-16 10:10:33</time>
      </trkpt>
      <trkpt lat="40.61753" lon="-3.72981">
        <ele>751</ele>
        <time>2021-11-16 10:10:34</time>
      </trkpt>
      <trkpt lat="40.61758" lon="-3.72983">
        <ele>751.4</ele>
        <time>2021-11-16 10:10:35</time>
      </trkpt>
      <trkpt lat="40.61763" lon="-3.72985">
        <ele>751.4</ele>
        <time>2021-11-16 10:10:36</time>
      </trkpt>
      <trkpt lat="40.61769" lon="-3.72987">
        <ele>751.4</ele>
        <time>2021-11-16 10:10:37</time>
      </trkpt>
      <trkpt lat="40.61774" lon="-3.72989">
        <ele>751.4</ele>
        <time>2021-11-16 10:10:38</time>
      </trkpt>
      <trkpt lat="40.6178" lon="-3.72991">
        <ele>751.4</ele>
        <time>2021-11-16 10:10:39</time>
      </trkpt>
      <trkpt lat="40.61787" lon="-3.72993">
        <ele>751.4</ele>
        <time>2021-11-16 10:10:40</time>
      </trkpt>
      <trkpt lat="40.61794" lon="-3.72995">
        <ele>751.4</ele>
        <time>2021-11-16 10:10:41</time>
      </trkpt>
      <trkpt lat="40.61802" lon="-3.72998">
        <ele>751.4</ele>
        <time>2021-11-16 10:10:42</time>
      </trkpt>
      <trkpt lat="40.6181" lon="-3.73">
        <ele>751.4</ele>
        <time>2021-11-16 10:10:43</time>
      </trkpt>
      <trkpt lat="40.61818" lon="-3.73003">
        <ele>751.4</ele>
        <time>2021-11-16 10:10:44</time>
      </trkpt>
      <trkpt lat="40.61826" lon="-3.73005">
        <ele>751.4</ele>
        <time>2021-11-16 10:10:45</time>
      </trkpt>
      <trkpt lat="40.61835" lon="-3.73008">
        <ele>751.4</ele>
        <time>2021-11-16 10:10:46</time>
      </trkpt>
      <trkpt lat="40.61843" lon="-3.7301">
        <ele>751.4</ele>
        <time>2021-11-16 10:10:47</time>
      </trkpt>
      <trkpt lat="40.61852" lon="-3.73011">
        <ele>751.4</ele>
        <time>2021-11-16 10:10:48</time>
      </trkpt>
      <trkpt lat="40.6186" lon="-3.73012">
        <ele>751.2</ele>
        <time>2021-11-16 10:10:49</time>
      </trkpt>
      <trkpt lat="40.61868" lon="-3.73012">
        <ele>750.6</ele>
        <time>2021-11-16 10:10:50</time>
      </trkpt>
      <trkpt lat="40.61875" lon="-3.73014">
        <ele>750.4</ele>
        <time>2021-11-16 10:10:51</time>
      </trkpt>
      <trkpt lat="40.61881" lon="-3.73016">
        <ele>750.2</ele>
        <time>2021-11-16 10:10:52</time>
      </trkpt>
      <trkpt lat="40.61887" lon="-3.73017">
        <ele>750</ele>
        <time>2021-11-16 10:10:53</time>
      </trkpt>
      <trkpt lat="40.61893" lon="-3.73019">
        <ele>750</ele>
        <time>2021-11-16 10:10:54</time>
      </trkpt>
      <trkpt lat="40.61899" lon="-3.73021">
        <ele>749.8</ele>
        <time>2021-11-16 10:10:55</time>
      </trkpt>
      <trkpt lat="40.61905" lon="-3.73023">
        <ele>750</ele>
        <time>2021-11-16 10:10:56</time>
      </trkpt>
      <trkpt lat="40.61911" lon="-3.73026">
        <ele>749.8</ele>
        <time>2021-11-16 10:10:57</time>
      </trkpt>
      <trkpt lat="40.61917" lon="-3.73029">
        <ele>749.8</ele>
        <time>2021-11-16 10:10:58</time>
      </trkpt>
      <trkpt lat="40.61923" lon="-3.73032">
        <ele>749.8</ele>
        <time>2021-11-16 10:10:59</time>
      </trkpt>
      <trkpt lat="40.61929" lon="-3.73035">
        <ele>750.2</ele>
        <time>2021-11-16 10:11:00</time>
      </trkpt>
      <trkpt lat="40.61936" lon="-3.73039">
        <ele>750.4</ele>
        <time>2021-11-16 10:11:01</time>
      </trkpt>
      <trkpt lat="40.61942" lon="-3.73042">
        <ele>750.4</ele>
        <time>2021-11-16 10:11:02</time>
      </trkpt>
      <trkpt lat="40.61949" lon="-3.73045">
        <ele>750.4</ele>
        <time>2021-11-16 10:11:03</time>
      </trkpt>
      <trkpt lat="40.61956" lon="-3.73047">
        <ele>750.6</ele>
        <time>2021-11-16 10:11:04</time>
      </trkpt>
      <trkpt lat="40.61963" lon="-3.73048">
        <ele>750.4</ele>
        <time>2021-11-16 10:11:05</time>
      </trkpt>
      <trkpt lat="40.6197" lon="-3.7305">
        <ele>750.6</ele>
        <time>2021-11-16 10:11:06</time>
      </trkpt>
      <trkpt lat="40.61977" lon="-3.73051">
        <ele>750.6</ele>
        <time>2021-11-16 10:11:07</time>
      </trkpt>
      <trkpt lat="40.61984" lon="-3.73052">
        <ele>750.6</ele>
        <time>2021-11-16 10:11:08</time>
      </trkpt>
      <trkpt lat="40.61991" lon="-3.73054">
        <ele>750.6</ele>
        <time>2021-11-16 10:11:09</time>
      </trkpt>
      <trkpt lat="40.61999" lon="-3.73057">
        <ele>750.6</ele>
        <time>2021-11-16 10:11:10</time>
      </trkpt>
      <trkpt lat="40.62006" lon="-3.73061">
        <ele>750.2</ele>
        <time>2021-11-16 10:11:11</time>
      </trkpt>
      <trkpt lat="40.62013" lon="-3.73067">
        <ele>750.2</ele>
        <time>2021-11-16 10:11:12</time>
      </trkpt>
      <trkpt lat="40.6202" lon="-3.73073">
        <ele>750</ele>
        <time>2021-11-16 10:11:13</time>
      </trkpt>
      <trkpt lat="40.62028" lon="-3.73078">
        <ele>749.6</ele>
        <time>2021-11-16 10:11:14</time>
      </trkpt>
      <trkpt lat="40.62037" lon="-3.73082">
        <ele>749.6</ele>
        <time>2021-11-16 10:11:15</time>
      </trkpt>
      <trkpt lat="40.62046" lon="-3.73087">
        <ele>749.4</ele>
        <time>2021-11-16 10:11:16</time>
      </trkpt>
      <trkpt lat="40.62054" lon="-3.73091">
        <ele>749.2</ele>
        <time>2021-11-16 10:11:17</time>
      </trkpt>
      <trkpt lat="40.62063" lon="-3.73095">
        <ele>748.8</ele>
        <time>2021-11-16 10:11:18</time>
      </trkpt>
      <trkpt lat="40.62073" lon="-3.73099">
        <ele>748.6</ele>
        <time>2021-11-16 10:11:19</time>
      </trkpt>
      <trkpt lat="40.62084" lon="-3.731">
        <ele>748.6</ele>
        <time>2021-11-16 10:11:20</time>
      </trkpt>
      <trkpt lat="40.62094" lon="-3.73099">
        <ele>748</ele>
        <time>2021-11-16 10:11:21</time>
      </trkpt>
      <trkpt lat="40.62103" lon="-3.73096">
        <ele>747.6</ele>
        <time>2021-11-16 10:11:22</time>
      </trkpt>
      <trkpt lat="40.62112" lon="-3.7309">
        <ele>747.4</ele>
        <time>2021-11-16 10:11:23</time>
      </trkpt>
      <trkpt lat="40.6212" lon="-3.73085">
        <ele>747.2</ele>
        <time>2021-11-16 10:11:24</time>
      </trkpt>
      <trkpt lat="40.62128" lon="-3.7308">
        <ele>747</ele>
        <time>2021-11-16 10:11:25</time>
      </trkpt>
      <trkpt lat="40.62136" lon="-3.73077">
        <ele>746.6</ele>
        <time>2021-11-16 10:11:26</time>
      </trkpt>
      <trkpt lat="40.62145" lon="-3.73076">
        <ele>746.4</ele>
        <time>2021-11-16 10:11:27</time>
      </trkpt>
      <trkpt lat="40.62154" lon="-3.73076">
        <ele>746.2</ele>
        <time>2021-11-16 10:11:28</time>
      </trkpt>
      <trkpt lat="40.62163" lon="-3.73077">
        <ele>746</ele>
        <time>2021-11-16 10:11:29</time>
      </trkpt>
      <trkpt lat="40.62173" lon="-3.73078">
        <ele>745.4</ele>
        <time>2021-11-16 10:11:30</time>
      </trkpt>
      <trkpt lat="40.62182" lon="-3.73078">
        <ele>744.8</ele>
        <time>2021-11-16 10:11:31</time>
      </trkpt>
      <trkpt lat="40.62191" lon="-3.73079">
        <ele>744.4</ele>
        <time>2021-11-16 10:11:32</time>
      </trkpt>
      <trkpt lat="40.622" lon="-3.7308">
        <ele>744</ele>
        <time>2021-11-16 10:11:33</time>
      </trkpt>
      <trkpt lat="40.6221" lon="-3.73081">
        <ele>743.8</ele>
        <time>2021-11-16 10:11:34</time>
      </trkpt>
      <trkpt lat="40.62219" lon="-3.73081">
        <ele>743.8</ele>
        <time>2021-11-16 10:11:35</time>
      </trkpt>
      <trkpt lat="40.62228" lon="-3.73082">
        <ele>743.6</ele>
        <time>2021-11-16 10:11:36</time>
      </trkpt>
      <trkpt lat="40.62237" lon="-3.73083">
        <ele>743.2</ele>
        <time>2021-11-16 10:11:37</time>
      </trkpt>
      <trkpt lat="40.62246" lon="-3.73083">
        <ele>743</ele>
        <time>2021-11-16 10:11:38</time>
      </trkpt>
      <trkpt lat="40.62255" lon="-3.73084">
        <ele>743</ele>
        <time>2021-11-16 10:11:39</time>
      </trkpt>
      <trkpt lat="40.62263" lon="-3.73085">
        <ele>742.8</ele>
        <time>2021-11-16 10:11:40</time>
      </trkpt>
      <trkpt lat="40.62272" lon="-3.73085">
        <ele>742.8</ele>
        <time>2021-11-16 10:11:41</time>
      </trkpt>
      <trkpt lat="40.62279" lon="-3.73085">
        <ele>742.8</ele>
        <time>2021-11-16 10:11:42</time>
      </trkpt>
      <trkpt lat="40.62286" lon="-3.73083">
        <ele>742.8</ele>
        <time>2021-11-16 10:11:43</time>
      </trkpt>
      <trkpt lat="40.62293" lon="-3.73081">
        <ele>742.6</ele>
        <time>2021-11-16 10:11:44</time>
      </trkpt>
      <trkpt lat="40.62299" lon="-3.73079">
        <ele>742.6</ele>
        <time>2021-11-16 10:11:45</time>
      </trkpt>
      <trkpt lat="40.62305" lon="-3.73077">
        <ele>742.6</ele>
        <time>2021-11-16 10:11:46</time>
      </trkpt>
      <trkpt lat="40.6231" lon="-3.73075">
        <ele>742.6</ele>
        <time>2021-11-16 10:11:47</time>
      </trkpt>
      <trkpt lat="40.62315" lon="-3.73073">
        <ele>742.6</ele>
        <time>2021-11-16 10:11:48</time>
      </trkpt>
      <trkpt lat="40.6232" lon="-3.73071">
        <ele>742.6</ele>
        <time>2021-11-16 10:11:49</time>
      </trkpt>
      <trkpt lat="40.62325" lon="-3.73069">
        <ele>743</ele>
        <time>2021-11-16 10:11:50</time>
      </trkpt>
      <trkpt lat="40.6233" lon="-3.73067">
        <ele>743.8</ele>
        <time>2021-11-16 10:11:51</time>
      </trkpt>
      <trkpt lat="40.62335" lon="-3.73065">
        <ele>744</ele>
        <time>2021-11-16 10:11:52</time>
      </trkpt>
      <trkpt lat="40.6234" lon="-3.73064">
        <ele>744.8</ele>
        <time>2021-11-16 10:11:53</time>
      </trkpt>
      <trkpt lat="40.62344" lon="-3.73063">
        <ele>745.6</ele>
        <time>2021-11-16 10:11:54</time>
      </trkpt>
      <trkpt lat="40.62349" lon="-3.73062">
        <ele>746.6</ele>
        <time>2021-11-16 10:11:55</time>
      </trkpt>
      <trkpt lat="40.62353" lon="-3.73062">
        <ele>746.6</ele>
        <time>2021-11-16 10:11:56</time>
      </trkpt>
      <trkpt lat="40.62358" lon="-3.73061">
        <ele>747</ele>
        <time>2021-11-16 10:11:57</time>
      </trkpt>
      <trkpt lat="40.62362" lon="-3.73061">
        <ele>747.6</ele>
        <time>2021-11-16 10:11:58</time>
      </trkpt>
      <trkpt lat="40.62367" lon="-3.73061">
        <ele>747.8</ele>
        <time>2021-11-16 10:11:59</time>
      </trkpt>
      <trkpt lat="40.62371" lon="-3.73062">
        <ele>748.6</ele>
        <time>2021-11-16 10:12:00</time>
      </trkpt>
      <trkpt lat="40.62376" lon="-3.73063">
        <ele>749.2</ele>
        <time>2021-11-16 10:12:01</time>
      </trkpt>
      <trkpt lat="40.6238" lon="-3.73063">
        <ele>749.6</ele>
        <time>2021-11-16 10:12:02</time>
      </trkpt>
      <trkpt lat="40.62384" lon="-3.73064">
        <ele>750.2</ele>
        <time>2021-11-16 10:12:03</time>
      </trkpt>
      <trkpt lat="40.62388" lon="-3.73064">
        <ele>750.6</ele>
        <time>2021-11-16 10:12:04</time>
      </trkpt>
      <trkpt lat="40.62393" lon="-3.73065">
        <ele>751</ele>
        <time>2021-11-16 10:12:05</time>
      </trkpt>
      <trkpt lat="40.62397" lon="-3.73065">
        <ele>751.2</ele>
        <time>2021-11-16 10:12:06</time>
      </trkpt>
      <trkpt lat="40.62401" lon="-3.73065">
        <ele>751.4</ele>
        <time>2021-11-16 10:12:07</time>
      </trkpt>
      <trkpt lat="40.62406" lon="-3.73065">
        <ele>751.8</ele>
        <time>2021-11-16 10:12:08</time>
      </trkpt>
      <trkpt lat="40.62411" lon="-3.73064">
        <ele>751.8</ele>
        <time>2021-11-16 10:12:09</time>
      </trkpt>
      <trkpt lat="40.62417" lon="-3.73063">
        <ele>751.8</ele>
        <time>2021-11-16 10:12:10</time>
      </trkpt>
      <trkpt lat="40.62423" lon="-3.73061">
        <ele>751.8</ele>
        <time>2021-11-16 10:12:11</time>
      </trkpt>
      <trkpt lat="40.62429" lon="-3.73059">
        <ele>752</ele>
        <time>2021-11-16 10:12:12</time>
      </trkpt>
      <trkpt lat="40.62436" lon="-3.73056">
        <ele>751.8</ele>
        <time>2021-11-16 10:12:13</time>
      </trkpt>
      <trkpt lat="40.62443" lon="-3.73053">
        <ele>751.8</ele>
        <time>2021-11-16 10:12:14</time>
      </trkpt>
      <trkpt lat="40.62451" lon="-3.73051">
        <ele>751.8</ele>
        <time>2021-11-16 10:12:15</time>
      </trkpt>
      <trkpt lat="40.62459" lon="-3.7305">
        <ele>751.8</ele>
        <time>2021-11-16 10:12:16</time>
      </trkpt>
      <trkpt lat="40.62467" lon="-3.73049">
        <ele>751.8</ele>
        <time>2021-11-16 10:12:17</time>
      </trkpt>
      <trkpt lat="40.62476" lon="-3.73049">
        <ele>751.8</ele>
        <time>2021-11-16 10:12:18</time>
      </trkpt>
      <trkpt lat="40.62486" lon="-3.73049">
        <ele>751.8</ele>
        <time>2021-11-16 10:12:19</time>
      </trkpt>
      <trkpt lat="40.62495" lon="-3.73049">
        <ele>751.2</ele>
        <time>2021-11-16 10:12:20</time>
      </trkpt>
      <trkpt lat="40.62504" lon="-3.73049">
        <ele>750.4</ele>
        <time>2021-11-16 10:12:21</time>
      </trkpt>
      <trkpt lat="40.62513" lon="-3.7305">
        <ele>749.6</ele>
        <time>2021-11-16 10:12:22</time>
      </trkpt>
      <trkpt lat="40.62522" lon="-3.73051">
        <ele>749</ele>
        <time>2021-11-16 10:12:23</time>
      </trkpt>
      <trkpt lat="40.62531" lon="-3.73053">
        <ele>748.4</ele>
        <time>2021-11-16 10:12:24</time>
      </trkpt>
      <trkpt lat="40.62539" lon="-3.73054">
        <ele>747.6</ele>
        <time>2021-11-16 10:12:25</time>
      </trkpt>
      <trkpt lat="40.62547" lon="-3.73055">
        <ele>746.4</ele>
        <time>2021-11-16 10:12:26</time>
      </trkpt>
      <trkpt lat="40.62555" lon="-3.73056">
        <ele>745.8</ele>
        <time>2021-11-16 10:12:27</time>
      </trkpt>
      <trkpt lat="40.62563" lon="-3.73058">
        <ele>745.2</ele>
        <time>2021-11-16 10:12:28</time>
      </trkpt>
      <trkpt lat="40.62571" lon="-3.7306">
        <ele>745</ele>
        <time>2021-11-16 10:12:29</time>
      </trkpt>
      <trkpt lat="40.62578" lon="-3.73061">
        <ele>744.8</ele>
        <time>2021-11-16 10:12:30</time>
      </trkpt>
      <trkpt lat="40.62586" lon="-3.73063">
        <ele>744.8</ele>
        <time>2021-11-16 10:12:31</time>
      </trkpt>
      <trkpt lat="40.62593" lon="-3.73065">
        <ele>744.8</ele>
        <time>2021-11-16 10:12:32</time>
      </trkpt>
      <trkpt lat="40.62602" lon="-3.73066">
        <ele>744.6</ele>
        <time>2021-11-16 10:12:33</time>
      </trkpt>
      <trkpt lat="40.6261" lon="-3.73067">
        <ele>744.4</ele>
        <time>2021-11-16 10:12:34</time>
      </trkpt>
      <trkpt lat="40.62618" lon="-3.73066">
        <ele>744.2</ele>
        <time>2021-11-16 10:12:35</time>
      </trkpt>
      <trkpt lat="40.62627" lon="-3.73063">
        <ele>744</ele>
        <time>2021-11-16 10:12:36</time>
      </trkpt>
      <trkpt lat="40.62636" lon="-3.73059">
        <ele>744</ele>
        <time>2021-11-16 10:12:37</time>
      </trkpt>
      <trkpt lat="40.62644" lon="-3.73055">
        <ele>743.8</ele>
        <time>2021-11-16 10:12:38</time>
      </trkpt>
      <trkpt lat="40.62652" lon="-3.73053">
        <ele>743.6</ele>
        <time>2021-11-16 10:12:39</time>
      </trkpt>
      <trkpt lat="40.6266" lon="-3.73052">
        <ele>743.6</ele>
        <time>2021-11-16 10:12:40</time>
      </trkpt>
      <trkpt lat="40.62669" lon="-3.73052">
        <ele>743.4</ele>
        <time>2021-11-16 10:12:41</time>
      </trkpt>
      <trkpt lat="40.62677" lon="-3.73053">
        <ele>743.6</ele>
        <time>2021-11-16 10:12:42</time>
      </trkpt>
      <trkpt lat="40.62685" lon="-3.73055">
        <ele>743.6</ele>
        <time>2021-11-16 10:12:43</time>
      </trkpt>
      <trkpt lat="40.62693" lon="-3.73056">
        <ele>743.4</ele>
        <time>2021-11-16 10:12:44</time>
      </trkpt>
      <trkpt lat="40.62701" lon="-3.73057">
        <ele>743.2</ele>
        <time>2021-11-16 10:12:45</time>
      </trkpt>
      <trkpt lat="40.62709" lon="-3.73059">
        <ele>743.2</ele>
        <time>2021-11-16 10:12:46</time>
      </trkpt>
      <trkpt lat="40.62717" lon="-3.7306">
        <ele>743.2</ele>
        <time>2021-11-16 10:12:47</time>
      </trkpt>
      <trkpt lat="40.62724" lon="-3.73062">
        <ele>743</ele>
        <time>2021-11-16 10:12:48</time>
      </trkpt>
      <trkpt lat="40.62732" lon="-3.73063">
        <ele>743</ele>
        <time>2021-11-16 10:12:49</time>
      </trkpt>
      <trkpt lat="40.62739" lon="-3.73064">
        <ele>743</ele>
        <time>2021-11-16 10:12:50</time>
      </trkpt>
      <trkpt lat="40.62746" lon="-3.73066">
        <ele>742.8</ele>
        <time>2021-11-16 10:12:51</time>
      </trkpt>
      <trkpt lat="40.62752" lon="-3.73066">
        <ele>742.8</ele>
        <time>2021-11-16 10:12:52</time>
      </trkpt>
      <trkpt lat="40.62759" lon="-3.73067">
        <ele>742.8</ele>
        <time>2021-11-16 10:12:53</time>
      </trkpt>
      <trkpt lat="40.62765" lon="-3.73067">
        <ele>743</ele>
        <time>2021-11-16 10:12:54</time>
      </trkpt>
      <trkpt lat="40.62772" lon="-3.73067">
        <ele>743</ele>
        <time>2021-11-16 10:12:55</time>
      </trkpt>
      <trkpt lat="40.62778" lon="-3.73067">
        <ele>743.2</ele>
        <time>2021-11-16 10:12:56</time>
      </trkpt>
      <trkpt lat="40.62784" lon="-3.73067">
        <ele>743.4</ele>
        <time>2021-11-16 10:12:57</time>
      </trkpt>
      <trkpt lat="40.6279" lon="-3.73067">
        <ele>743.6</ele>
        <time>2021-11-16 10:12:58</time>
      </trkpt>
      <trkpt lat="40.62795" lon="-3.73067">
        <ele>743.6</ele>
        <time>2021-11-16 10:12:59</time>
      </trkpt>
      <trkpt lat="40.62801" lon="-3.73067">
        <ele>743.8</ele>
        <time>2021-11-16 10:13:00</time>
      </trkpt>
      <trkpt lat="40.62807" lon="-3.73067">
        <ele>744</ele>
        <time>2021-11-16 10:13:01</time>
      </trkpt>
      <trkpt lat="40.62813" lon="-3.73067">
        <ele>744.8</ele>
        <time>2021-11-16 10:13:02</time>
      </trkpt>
      <trkpt lat="40.62818" lon="-3.73067">
        <ele>745.2</ele>
        <time>2021-11-16 10:13:03</time>
      </trkpt>
      <trkpt lat="40.62824" lon="-3.73068">
        <ele>745.6</ele>
        <time>2021-11-16 10:13:04</time>
      </trkpt>
      <trkpt lat="40.6283" lon="-3.7307">
        <ele>745.8</ele>
        <time>2021-11-16 10:13:05</time>
      </trkpt>
      <trkpt lat="40.62836" lon="-3.73071">
        <ele>746.2</ele>
        <time>2021-11-16 10:13:06</time>
      </trkpt>
      <trkpt lat="40.62842" lon="-3.73072">
        <ele>746.6</ele>
        <time>2021-11-16 10:13:07</time>
      </trkpt>
      <trkpt lat="40.62848" lon="-3.73072">
        <ele>746.6</ele>
        <time>2021-11-16 10:13:08</time>
      </trkpt>
      <trkpt lat="40.62855" lon="-3.73072">
        <ele>747</ele>
        <time>2021-11-16 10:13:09</time>
      </trkpt>
      <trkpt lat="40.62861" lon="-3.73071">
        <ele>747.2</ele>
        <time>2021-11-16 10:13:10</time>
      </trkpt>
      <trkpt lat="40.62867" lon="-3.7307">
        <ele>747.2</ele>
        <time>2021-11-16 10:13:11</time>
      </trkpt>
      <trkpt lat="40.62873" lon="-3.73068">
        <ele>747.4</ele>
        <time>2021-11-16 10:13:12</time>
      </trkpt>
      <trkpt lat="40.62879" lon="-3.73066">
        <ele>747.4</ele>
        <time>2021-11-16 10:13:13</time>
      </trkpt>
      <trkpt lat="40.62886" lon="-3.73063">
        <ele>747.4</ele>
        <time>2021-11-16 10:13:14</time>
      </trkpt>
      <trkpt lat="40.62892" lon="-3.73061">
        <ele>747.4</ele>
        <time>2021-11-16 10:13:15</time>
      </trkpt>
      <trkpt lat="40.62898" lon="-3.73059">
        <ele>747.4</ele>
        <time>2021-11-16 10:13:16</time>
      </trkpt>
      <trkpt lat="40.62904" lon="-3.73057">
        <ele>747.6</ele>
        <time>2021-11-16 10:13:17</time>
      </trkpt>
      <trkpt lat="40.6291" lon="-3.73055">
        <ele>747.6</ele>
        <time>2021-11-16 10:13:18</time>
      </trkpt>
      <trkpt lat="40.62916" lon="-3.73054">
        <ele>747.6</ele>
        <time>2021-11-16 10:13:19</time>
      </trkpt>
      <trkpt lat="40.62922" lon="-3.73052">
        <ele>747.8</ele>
        <time>2021-11-16 10:13:20</time>
      </trkpt>
      <trkpt lat="40.62928" lon="-3.73051">
        <ele>748</ele>
        <time>2021-11-16 10:13:21</time>
      </trkpt>
      <trkpt lat="40.62934" lon="-3.73051">
        <ele>748.2</ele>
        <time>2021-11-16 10:13:22</time>
      </trkpt>
      <trkpt lat="40.62939" lon="-3.7305">
        <ele>748.2</ele>
        <time>2021-11-16 10:13:23</time>
      </trkpt>
      <trkpt lat="40.62945" lon="-3.73049">
        <ele>748.4</ele>
        <time>2021-11-16 10:13:24</time>
      </trkpt>
      <trkpt lat="40.6295" lon="-3.73048">
        <ele>748.4</ele>
        <time>2021-11-16 10:13:25</time>
      </trkpt>
      <trkpt lat="40.62955" lon="-3.73047">
        <ele>748.4</ele>
        <time>2021-11-16 10:13:26</time>
      </trkpt>
      <trkpt lat="40.6296" lon="-3.73046">
        <ele>748.4</ele>
        <time>2021-11-16 10:13:27</time>
      </trkpt>
      <trkpt lat="40.62965" lon="-3.73046">
        <ele>748.6</ele>
        <time>2021-11-16 10:13:28</time>
      </trkpt>
      <trkpt lat="40.62971" lon="-3.73045">
        <ele>748.6</ele>
        <time>2021-11-16 10:13:29</time>
      </trkpt>
      <trkpt lat="40.62976" lon="-3.73044">
        <ele>748.6</ele>
        <time>2021-11-16 10:13:30</time>
      </trkpt>
      <trkpt lat="40.62981" lon="-3.73044">
        <ele>748.8</ele>
        <time>2021-11-16 10:13:31</time>
      </trkpt>
      <trkpt lat="40.62986" lon="-3.73043">
        <ele>748.8</ele>
        <time>2021-11-16 10:13:32</time>
      </trkpt>
      <trkpt lat="40.62991" lon="-3.73042">
        <ele>749</ele>
        <time>2021-11-16 10:13:33</time>
      </trkpt>
      <trkpt lat="40.62996" lon="-3.73041">
        <ele>749.4</ele>
        <time>2021-11-16 10:13:34</time>
      </trkpt>
      <trkpt lat="40.63001" lon="-3.7304">
        <ele>749.8</ele>
        <time>2021-11-16 10:13:35</time>
      </trkpt>
      <trkpt lat="40.63006" lon="-3.73039">
        <ele>749.8</ele>
        <time>2021-11-16 10:13:36</time>
      </trkpt>
      <trkpt lat="40.63011" lon="-3.73039">
        <ele>749.8</ele>
        <time>2021-11-16 10:13:37</time>
      </trkpt>
      <trkpt lat="40.63016" lon="-3.73038">
        <ele>750.4</ele>
        <time>2021-11-16 10:13:38</time>
      </trkpt>
      <trkpt lat="40.63022" lon="-3.73037">
        <ele>750.4</ele>
        <time>2021-11-16 10:13:39</time>
      </trkpt>
      <trkpt lat="40.63027" lon="-3.73036">
        <ele>750.6</ele>
        <time>2021-11-16 10:13:40</time>
      </trkpt>
      <trkpt lat="40.63032" lon="-3.73036">
        <ele>750.8</ele>
        <time>2021-11-16 10:13:41</time>
      </trkpt>
      <trkpt lat="40.63036" lon="-3.73035">
        <ele>750.8</ele>
        <time>2021-11-16 10:13:42</time>
      </trkpt>
      <trkpt lat="40.63041" lon="-3.73035">
        <ele>750.8</ele>
        <time>2021-11-16 10:13:43</time>
      </trkpt>
      <trkpt lat="40.63046" lon="-3.73034">
        <ele>750.8</ele>
        <time>2021-11-16 10:13:44</time>
      </trkpt>
      <trkpt lat="40.63051" lon="-3.73033">
        <ele>751</ele>
        <time>2021-11-16 10:13:45</time>
      </trkpt>
      <trkpt lat="40.63056" lon="-3.73032">
        <ele>751.2</ele>
        <time>2021-11-16 10:13:46</time>
      </trkpt>
      <trkpt lat="40.63061" lon="-3.73031">
        <ele>751.2</ele>
        <time>2021-11-16 10:13:47</time>
      </trkpt>
      <trkpt lat="40.63066" lon="-3.7303">
        <ele>751.2</ele>
        <time>2021-11-16 10:13:48</time>
      </trkpt>
      <trkpt lat="40.63071" lon="-3.73029">
        <ele>751.4</ele>
        <time>2021-11-16 10:13:49</time>
      </trkpt>
      <trkpt lat="40.63076" lon="-3.73028">
        <ele>751.2</ele>
        <time>2021-11-16 10:13:50</time>
      </trkpt>
      <trkpt lat="40.63081" lon="-3.73027">
        <ele>751.6</ele>
        <time>2021-11-16 10:13:51</time>
      </trkpt>
      <trkpt lat="40.63087" lon="-3.73026">
        <ele>751.8</ele>
        <time>2021-11-16 10:13:52</time>
      </trkpt>
      <trkpt lat="40.63092" lon="-3.73025">
        <ele>751.8</ele>
        <time>2021-11-16 10:13:53</time>
      </trkpt>
      <trkpt lat="40.63097" lon="-3.73024">
        <ele>751.8</ele>
        <time>2021-11-16 10:13:54</time>
      </trkpt>
      <trkpt lat="40.63103" lon="-3.73023">
        <ele>751.8</ele>
        <time>2021-11-16 10:13:55</time>
      </trkpt>
      <trkpt lat="40.63108" lon="-3.73022">
        <ele>752</ele>
        <time>2021-11-16 10:13:56</time>
      </trkpt>
      <trkpt lat="40.63114" lon="-3.73021">
        <ele>752.2</ele>
        <time>2021-11-16 10:13:57</time>
      </trkpt>
      <trkpt lat="40.63119" lon="-3.73021">
        <ele>752.2</ele>
        <time>2021-11-16 10:13:58</time>
      </trkpt>
      <trkpt lat="40.63125" lon="-3.7302">
        <ele>752.6</ele>
        <time>2021-11-16 10:13:59</time>
      </trkpt>
      <trkpt lat="40.63131" lon="-3.73019">
        <ele>752.4</ele>
        <time>2021-11-16 10:14:00</time>
      </trkpt>
      <trkpt lat="40.63137" lon="-3.73018">
        <ele>752.4</ele>
        <time>2021-11-16 10:14:01</time>
      </trkpt>
      <trkpt lat="40.63143" lon="-3.73017">
        <ele>752.4</ele>
        <time>2021-11-16 10:14:02</time>
      </trkpt>
      <trkpt lat="40.63149" lon="-3.73016">
        <ele>752.6</ele>
        <time>2021-11-16 10:14:03</time>
      </trkpt>
      <trkpt lat="40.63155" lon="-3.73016">
        <ele>752.4</ele>
        <time>2021-11-16 10:14:04</time>
      </trkpt>
      <trkpt lat="40.63162" lon="-3.73015">
        <ele>752.6</ele>
        <time>2021-11-16 10:14:05</time>
      </trkpt>
      <trkpt lat="40.63168" lon="-3.73014">
        <ele>752.4</ele>
        <time>2021-11-16 10:14:06</time>
      </trkpt>
      <trkpt lat="40.63175" lon="-3.73014">
        <ele>752.2</ele>
        <time>2021-11-16 10:14:07</time>
      </trkpt>
      <trkpt lat="40.63181" lon="-3.73013">
        <ele>752.2</ele>
        <time>2021-11-16 10:14:08</time>
      </trkpt>
      <trkpt lat="40.63188" lon="-3.73012">
        <ele>752</ele>
        <time>2021-11-16 10:14:09</time>
      </trkpt>
      <trkpt lat="40.63195" lon="-3.73011">
        <ele>752</ele>
        <time>2021-11-16 10:14:10</time>
      </trkpt>
      <trkpt lat="40.63201" lon="-3.73011">
        <ele>751.6</ele>
        <time>2021-11-16 10:14:11</time>
      </trkpt>
      <trkpt lat="40.63208" lon="-3.7301">
        <ele>751.6</ele>
        <time>2021-11-16 10:14:12</time>
      </trkpt>
      <trkpt lat="40.63215" lon="-3.73009">
        <ele>751.2</ele>
        <time>2021-11-16 10:14:13</time>
      </trkpt>
      <trkpt lat="40.63222" lon="-3.73008">
        <ele>751</ele>
        <time>2021-11-16 10:14:14</time>
      </trkpt>
      <trkpt lat="40.63228" lon="-3.73007">
        <ele>751</ele>
        <time>2021-11-16 10:14:15</time>
      </trkpt>
      <trkpt lat="40.63235" lon="-3.73005">
        <ele>751</ele>
        <time>2021-11-16 10:14:16</time>
      </trkpt>
      <trkpt lat="40.63242" lon="-3.73005">
        <ele>751</ele>
        <time>2021-11-16 10:14:17</time>
      </trkpt>
      <trkpt lat="40.63249" lon="-3.73004">
        <ele>750.8</ele>
        <time>2021-11-16 10:14:18</time>
      </trkpt>
      <trkpt lat="40.63255" lon="-3.73003">
        <ele>750.6</ele>
        <time>2021-11-16 10:14:19</time>
      </trkpt>
      <trkpt lat="40.63262" lon="-3.73002">
        <ele>750.6</ele>
        <time>2021-11-16 10:14:20</time>
      </trkpt>
      <trkpt lat="40.63269" lon="-3.73001">
        <ele>750.6</ele>
        <time>2021-11-16 10:14:21</time>
      </trkpt>
      <trkpt lat="40.63275" lon="-3.73">
        <ele>750.6</ele>
        <time>2021-11-16 10:14:22</time>
      </trkpt>
      <trkpt lat="40.63282" lon="-3.72999">
        <ele>750.6</ele>
        <time>2021-11-16 10:14:23</time>
      </trkpt>
      <trkpt lat="40.63288" lon="-3.72997">
        <ele>750.6</ele>
        <time>2021-11-16 10:14:24</time>
      </trkpt>
      <trkpt lat="40.63295" lon="-3.72997">
        <ele>750.6</ele>
        <time>2021-11-16 10:14:25</time>
      </trkpt>
      <trkpt lat="40.63301" lon="-3.72996">
        <ele>750.8</ele>
        <time>2021-11-16 10:14:26</time>
      </trkpt>
      <trkpt lat="40.63306" lon="-3.72995">
        <ele>750.8</ele>
        <time>2021-11-16 10:14:27</time>
      </trkpt>
      <trkpt lat="40.63312" lon="-3.72994">
        <ele>750.8</ele>
        <time>2021-11-16 10:14:28</time>
      </trkpt>
      <trkpt lat="40.63317" lon="-3.72994">
        <ele>751</ele>
        <time>2021-11-16 10:14:29</time>
      </trkpt>
      <trkpt lat="40.63323" lon="-3.72993">
        <ele>751</ele>
        <time>2021-11-16 10:14:30</time>
      </trkpt>
      <trkpt lat="40.63329" lon="-3.72992">
        <ele>751.4</ele>
        <time>2021-11-16 10:14:31</time>
      </trkpt>
      <trkpt lat="40.63334" lon="-3.72992">
        <ele>751.4</ele>
        <time>2021-11-16 10:14:32</time>
      </trkpt>
      <trkpt lat="40.63341" lon="-3.72991">
        <ele>751.6</ele>
        <time>2021-11-16 10:14:33</time>
      </trkpt>
      <trkpt lat="40.63347" lon="-3.72991">
        <ele>751.8</ele>
        <time>2021-11-16 10:14:34</time>
      </trkpt>
      <trkpt lat="40.63353" lon="-3.72991">
        <ele>752</ele>
        <time>2021-11-16 10:14:35</time>
      </trkpt>
      <trkpt lat="40.63359" lon="-3.72991">
        <ele>752.2</ele>
        <time>2021-11-16 10:14:36</time>
      </trkpt>
      <trkpt lat="40.63366" lon="-3.72991">
        <ele>752</ele>
        <time>2021-11-16 10:14:37</time>
      </trkpt>
      <trkpt lat="40.63372" lon="-3.7299">
        <ele>752.2</ele>
        <time>2021-11-16 10:14:38</time>
      </trkpt>
      <trkpt lat="40.63378" lon="-3.7299">
        <ele>752</ele>
        <time>2021-11-16 10:14:39</time>
      </trkpt>
      <trkpt lat="40.63384" lon="-3.7299">
        <ele>752.2</ele>
        <time>2021-11-16 10:14:40</time>
      </trkpt>
      <trkpt lat="40.6339" lon="-3.7299">
        <ele>752.2</ele>
        <time>2021-11-16 10:14:41</time>
      </trkpt>
      <trkpt lat="40.63396" lon="-3.72991">
        <ele>752.2</ele>
        <time>2021-11-16 10:14:42</time>
      </trkpt>
      <trkpt lat="40.63402" lon="-3.72991">
        <ele>752.4</ele>
        <time>2021-11-16 10:14:43</time>
      </trkpt>
      <trkpt lat="40.63408" lon="-3.72992">
        <ele>752.4</ele>
        <time>2021-11-16 10:14:44</time>
      </trkpt>
      <trkpt lat="40.63413" lon="-3.72992">
        <ele>752.6</ele>
        <time>2021-11-16 10:14:45</time>
      </trkpt>
      <trkpt lat="40.63419" lon="-3.72993">
        <ele>752.6</ele>
        <time>2021-11-16 10:14:46</time>
      </trkpt>
      <trkpt lat="40.63424" lon="-3.72994">
        <ele>752.8</ele>
        <time>2021-11-16 10:14:47</time>
      </trkpt>
      <trkpt lat="40.63429" lon="-3.72995">
        <ele>752.8</ele>
        <time>2021-11-16 10:14:48</time>
      </trkpt>
      <trkpt lat="40.63435" lon="-3.72995">
        <ele>753</ele>
        <time>2021-11-16 10:14:49</time>
      </trkpt>
      <trkpt lat="40.6344" lon="-3.72996">
        <ele>752.8</ele>
        <time>2021-11-16 10:14:50</time>
      </trkpt>
      <trkpt lat="40.63446" lon="-3.72997">
        <ele>752.8</ele>
        <time>2021-11-16 10:14:51</time>
      </trkpt>
      <trkpt lat="40.63452" lon="-3.72999">
        <ele>752.8</ele>
        <time>2021-11-16 10:14:52</time>
      </trkpt>
      <trkpt lat="40.63459" lon="-3.73">
        <ele>753</ele>
        <time>2021-11-16 10:14:53</time>
      </trkpt>
      <trkpt lat="40.63466" lon="-3.73002">
        <ele>753</ele>
        <time>2021-11-16 10:14:54</time>
      </trkpt>
      <trkpt lat="40.63473" lon="-3.73004">
        <ele>753.2</ele>
        <time>2021-11-16 10:14:55</time>
      </trkpt>
      <trkpt lat="40.6348" lon="-3.73007">
        <ele>753</ele>
        <time>2021-11-16 10:14:56</time>
      </trkpt>
      <trkpt lat="40.63488" lon="-3.73009">
        <ele>753</ele>
        <time>2021-11-16 10:14:57</time>
      </trkpt>
      <trkpt lat="40.63495" lon="-3.73012">
        <ele>753</ele>
        <time>2021-11-16 10:14:58</time>
      </trkpt>
      <trkpt lat="40.63502" lon="-3.73014">
        <ele>753</ele>
        <time>2021-11-16 10:14:59</time>
      </trkpt>
      <trkpt lat="40.63509" lon="-3.73016">
        <ele>753</ele>
        <time>2021-11-16 10:15:00</time>
      </trkpt>
      <trkpt lat="40.63516" lon="-3.73018">
        <ele>752.8</ele>
        <time>2021-11-16 10:15:01</time>
      </trkpt>
      <trkpt lat="40.63524" lon="-3.73021">
        <ele>753</ele>
        <time>2021-11-16 10:15:02</time>
      </trkpt>
      <trkpt lat="40.63531" lon="-3.73023">
        <ele>752.8</ele>
        <time>2021-11-16 10:15:03</time>
      </trkpt>
      <trkpt lat="40.63538" lon="-3.73025">
        <ele>752.8</ele>
        <time>2021-11-16 10:15:04</time>
      </trkpt>
      <trkpt lat="40.63544" lon="-3.73027">
        <ele>752.8</ele>
        <time>2021-11-16 10:15:05</time>
      </trkpt>
      <trkpt lat="40.6355" lon="-3.73029">
        <ele>752.6</ele>
        <time>2021-11-16 10:15:06</time>
      </trkpt>
      <trkpt lat="40.63556" lon="-3.73031">
        <ele>752.6</ele>
        <time>2021-11-16 10:15:07</time>
      </trkpt>
      <trkpt lat="40.63562" lon="-3.73033">
        <ele>752.8</ele>
        <time>2021-11-16 10:15:08</time>
      </trkpt>
      <trkpt lat="40.63908" lon="-3.7325">
        <ele>771.6</ele>
        <time>2021-11-16 10:16:43</time>
      </trkpt>
      <trkpt lat="40.63912" lon="-3.73247">
        <ele>770.2</ele>
        <time>2021-11-16 10:16:44</time>
      </trkpt>
      <trkpt lat="40.63916" lon="-3.73244">
        <ele>770.4</ele>
        <time>2021-11-16 10:16:45</time>
      </trkpt>
      <trkpt lat="40.6392" lon="-3.7324">
        <ele>770.4</ele>
        <time>2021-11-16 10:16:46</time>
      </trkpt>
      <trkpt lat="40.63924" lon="-3.73236">
        <ele>770.6</ele>
        <time>2021-11-16 10:16:47</time>
      </trkpt>
      <trkpt lat="40.63928" lon="-3.73233">
        <ele>770.8</ele>
        <time>2021-11-16 10:16:48</time>
      </trkpt>
      <trkpt lat="40.63931" lon="-3.7323">
        <ele>770.8</ele>
        <time>2021-11-16 10:16:49</time>
      </trkpt>
      <trkpt lat="40.63935" lon="-3.73226">
        <ele>771</ele>
        <time>2021-11-16 10:16:50</time>
      </trkpt>
      <trkpt lat="40.63939" lon="-3.73223">
        <ele>771</ele>
        <time>2021-11-16 10:16:51</time>
      </trkpt>
      <trkpt lat="40.63942" lon="-3.73219">
        <ele>771</ele>
        <time>2021-11-16 10:16:52</time>
      </trkpt>
      <trkpt lat="40.63946" lon="-3.73216">
        <ele>771</ele>
        <time>2021-11-16 10:16:53</time>
      </trkpt>
      <trkpt lat="40.6395" lon="-3.73213">
        <ele>771</ele>
        <time>2021-11-16 10:16:54</time>
      </trkpt>
      <trkpt lat="40.63953" lon="-3.73209">
        <ele>771.2</ele>
        <time>2021-11-16 10:16:55</time>
      </trkpt>
      <trkpt lat="40.63957" lon="-3.73206">
        <ele>771.4</ele>
        <time>2021-11-16 10:16:56</time>
      </trkpt>
      <trkpt lat="40.63961" lon="-3.73203">
        <ele>771.6</ele>
        <time>2021-11-16 10:16:57</time>
      </trkpt>
      <trkpt lat="40.63965" lon="-3.732">
        <ele>771.8</ele>
        <time>2021-11-16 10:16:58</time>
      </trkpt>
      <trkpt lat="40.63969" lon="-3.73197">
        <ele>772</ele>
        <time>2021-11-16 10:16:59</time>
      </trkpt>
      <trkpt lat="40.63973" lon="-3.73193">
        <ele>772</ele>
        <time>2021-11-16 10:17:00</time>
      </trkpt>
      <trkpt lat="40.63977" lon="-3.73189">
        <ele>772.2</ele>
        <time>2021-11-16 10:17:01</time>
      </trkpt>
      <trkpt lat="40.63981" lon="-3.73185">
        <ele>772.4</ele>
        <time>2021-11-16 10:17:02</time>
      </trkpt>
      <trkpt lat="40.63985" lon="-3.73181">
        <ele>772.4</ele>
        <time>2021-11-16 10:17:03</time>
      </trkpt>
      <trkpt lat="40.6399" lon="-3.73178">
        <ele>772.6</ele>
        <time>2021-11-16 10:17:04</time>
      </trkpt>
      <trkpt lat="40.63995" lon="-3.73175">
        <ele>772.6</ele>
        <time>2021-11-16 10:17:05</time>
      </trkpt>
      <trkpt lat="40.64" lon="-3.73173">
        <ele>772.6</ele>
        <time>2021-11-16 10:17:06</time>
      </trkpt>
      <trkpt lat="40.64006" lon="-3.73171">
        <ele>772.8</ele>
        <time>2021-11-16 10:17:07</time>
      </trkpt>
      <trkpt lat="40.64012" lon="-3.7317">
        <ele>772.8</ele>
        <time>2021-11-16 10:17:08</time>
      </trkpt>
      <trkpt lat="40.64018" lon="-3.73169">
        <ele>772.8</ele>
        <time>2021-11-16 10:17:09</time>
      </trkpt>
      <trkpt lat="40.64024" lon="-3.73168">
        <ele>772.8</ele>
        <time>2021-11-16 10:17:10</time>
      </trkpt>
      <trkpt lat="40.6403" lon="-3.73167">
        <ele>772.8</ele>
        <time>2021-11-16 10:17:11</time>
      </trkpt>
      <trkpt lat="40.64036" lon="-3.73166">
        <ele>772.8</ele>
        <time>2021-11-16 10:17:12</time>
      </trkpt>
      <trkpt lat="40.64042" lon="-3.73165">
        <ele>772.8</ele>
        <time>2021-11-16 10:17:13</time>
      </trkpt>
      <trkpt lat="40.64047" lon="-3.73165">
        <ele>773</ele>
        <time>2021-11-16 10:17:14</time>
      </trkpt>
      <trkpt lat="40.64052" lon="-3.73163">
        <ele>773</ele>
        <time>2021-11-16 10:17:15</time>
      </trkpt>
      <trkpt lat="40.64057" lon="-3.73161">
        <ele>773.2</ele>
        <time>2021-11-16 10:17:16</time>
      </trkpt>
      <trkpt lat="40.64062" lon="-3.73159">
        <ele>773.2</ele>
        <time>2021-11-16 10:17:17</time>
      </trkpt>
      <trkpt lat="40.64066" lon="-3.73157">
        <ele>773.2</ele>
        <time>2021-11-16 10:17:18</time>
      </trkpt>
      <trkpt lat="40.64071" lon="-3.73156">
        <ele>773.4</ele>
        <time>2021-11-16 10:17:19</time>
      </trkpt>
      <trkpt lat="40.64075" lon="-3.73154">
        <ele>773.4</ele>
        <time>2021-11-16 10:17:20</time>
      </trkpt>
      <trkpt lat="40.6408" lon="-3.73153">
        <ele>773.4</ele>
        <time>2021-11-16 10:17:21</time>
      </trkpt>
      <trkpt lat="40.64085" lon="-3.73151">
        <ele>773.2</ele>
        <time>2021-11-16 10:17:22</time>
      </trkpt>
      <trkpt lat="40.6409" lon="-3.7315">
        <ele>773.4</ele>
        <time>2021-11-16 10:17:23</time>
      </trkpt>
      <trkpt lat="40.64095" lon="-3.73148">
        <ele>773.8</ele>
        <time>2021-11-16 10:17:24</time>
      </trkpt>
      <trkpt lat="40.64099" lon="-3.73146">
        <ele>774.2</ele>
        <time>2021-11-16 10:17:25</time>
      </trkpt>
      <trkpt lat="40.64104" lon="-3.73144">
        <ele>774.2</ele>
        <time>2021-11-16 10:17:26</time>
      </trkpt>
      <trkpt lat="40.64108" lon="-3.73142">
        <ele>774.4</ele>
        <time>2021-11-16 10:17:27</time>
      </trkpt>
      <trkpt lat="40.64113" lon="-3.73141">
        <ele>774.4</ele>
        <time>2021-11-16 10:17:28</time>
      </trkpt>
      <trkpt lat="40.64117" lon="-3.7314">
        <ele>774.8</ele>
        <time>2021-11-16 10:17:29</time>
      </trkpt>
      <trkpt lat="40.64122" lon="-3.73139">
        <ele>775</ele>
        <time>2021-11-16 10:17:30</time>
      </trkpt>
      <trkpt lat="40.64127" lon="-3.73137">
        <ele>775</ele>
        <time>2021-11-16 10:17:31</time>
      </trkpt>
      <trkpt lat="40.64132" lon="-3.73137">
        <ele>775</ele>
        <time>2021-11-16 10:17:32</time>
      </trkpt>
      <trkpt lat="40.64137" lon="-3.73137">
        <ele>775</ele>
        <time>2021-11-16 10:17:33</time>
      </trkpt>
      <trkpt lat="40.64142" lon="-3.73136">
        <ele>775.2</ele>
        <time>2021-11-16 10:17:34</time>
      </trkpt>
      <trkpt lat="40.64147" lon="-3.73135">
        <ele>775.4</ele>
        <time>2021-11-16 10:17:35</time>
      </trkpt>
      <trkpt lat="40.64152" lon="-3.73134">
        <ele>775.4</ele>
        <time>2021-11-16 10:17:36</time>
      </trkpt>
      <trkpt lat="40.64156" lon="-3.73133">
        <ele>775.6</ele>
        <time>2021-11-16 10:17:37</time>
      </trkpt>
      <trkpt lat="40.64161" lon="-3.73132">
        <ele>775.6</ele>
        <time>2021-11-16 10:17:38</time>
      </trkpt>
      <trkpt lat="40.64165" lon="-3.7313">
        <ele>775.6</ele>
        <time>2021-11-16 10:17:39</time>
      </trkpt>
      <trkpt lat="40.64169" lon="-3.73129">
        <ele>775.8</ele>
        <time>2021-11-16 10:17:40</time>
      </trkpt>
      <trkpt lat="40.64172" lon="-3.73127">
        <ele>776</ele>
        <time>2021-11-16 10:17:41</time>
      </trkpt>
      <trkpt lat="40.64176" lon="-3.73126">
        <ele>776.4</ele>
        <time>2021-11-16 10:17:42</time>
      </trkpt>
      <trkpt lat="40.6418" lon="-3.73125">
        <ele>777.2</ele>
        <time>2021-11-16 10:17:43</time>
      </trkpt>
      <trkpt lat="40.64184" lon="-3.73123">
        <ele>777.4</ele>
        <time>2021-11-16 10:17:44</time>
      </trkpt>
      <trkpt lat="40.64188" lon="-3.73122">
        <ele>777.8</ele>
        <time>2021-11-16 10:17:45</time>
      </trkpt>
      <trkpt lat="40.64192" lon="-3.7312">
        <ele>778.2</ele>
        <time>2021-11-16 10:17:46</time>
      </trkpt>
      <trkpt lat="40.64196" lon="-3.73119">
        <ele>778.6</ele>
        <time>2021-11-16 10:17:47</time>
      </trkpt>
      <trkpt lat="40.642" lon="-3.73118">
        <ele>778.6</ele>
        <time>2021-11-16 10:17:48</time>
      </trkpt>
      <trkpt lat="40.64204" lon="-3.73117">
        <ele>779.4</ele>
        <time>2021-11-16 10:17:49</time>
      </trkpt>
      <trkpt lat="40.64209" lon="-3.73116">
        <ele>779.8</ele>
        <time>2021-11-16 10:17:50</time>
      </trkpt>
      <trkpt lat="40.64213" lon="-3.73115">
        <ele>780</ele>
        <time>2021-11-16 10:17:51</time>
      </trkpt>
      <trkpt lat="40.64217" lon="-3.73113">
        <ele>780.4</ele>
        <time>2021-11-16 10:17:52</time>
      </trkpt>
      <trkpt lat="40.64221" lon="-3.73111">
        <ele>780.6</ele>
        <time>2021-11-16 10:17:53</time>
      </trkpt>
      <trkpt lat="40.64226" lon="-3.7311">
        <ele>780.6</ele>
        <time>2021-11-16 10:17:54</time>
      </trkpt>
      <trkpt lat="40.6423" lon="-3.73108">
        <ele>780.8</ele>
        <time>2021-11-16 10:17:55</time>
      </trkpt>
      <trkpt lat="40.64234" lon="-3.73107">
        <ele>781</ele>
        <time>2021-11-16 10:17:56</time>
      </trkpt>
      <trkpt lat="40.64238" lon="-3.73105">
        <ele>781.4</ele>
        <time>2021-11-16 10:17:57</time>
      </trkpt>
      <trkpt lat="40.64243" lon="-3.73104">
        <ele>782</ele>
        <time>2021-11-16 10:17:58</time>
      </trkpt>
      <trkpt lat="40.64247" lon="-3.73102">
        <ele>782.4</ele>
        <time>2021-11-16 10:17:59</time>
      </trkpt>
      <trkpt lat="40.64251" lon="-3.73101">
        <ele>782.4</ele>
        <time>2021-11-16 10:18:00</time>
      </trkpt>
      <trkpt lat="40.64256" lon="-3.731">
        <ele>782.8</ele>
        <time>2021-11-16 10:18:01</time>
      </trkpt>
      <trkpt lat="40.6426" lon="-3.73099">
        <ele>782.8</ele>
        <time>2021-11-16 10:18:02</time>
      </trkpt>
      <trkpt lat="40.64265" lon="-3.73098">
        <ele>783.2</ele>
        <time>2021-11-16 10:18:03</time>
      </trkpt>
      <trkpt lat="40.64269" lon="-3.73097">
        <ele>783.4</ele>
        <time>2021-11-16 10:18:04</time>
      </trkpt>
      <trkpt lat="40.64274" lon="-3.73096">
        <ele>783.6</ele>
        <time>2021-11-16 10:18:05</time>
      </trkpt>
      <trkpt lat="40.64278" lon="-3.73095">
        <ele>783.6</ele>
        <time>2021-11-16 10:18:06</time>
      </trkpt>
      <trkpt lat="40.64283" lon="-3.73094">
        <ele>783.8</ele>
        <time>2021-11-16 10:18:07</time>
      </trkpt>
      <trkpt lat="40.64287" lon="-3.73093">
        <ele>783.8</ele>
        <time>2021-11-16 10:18:08</time>
      </trkpt>
      <trkpt lat="40.64292" lon="-3.73092">
        <ele>783.8</ele>
        <time>2021-11-16 10:18:09</time>
      </trkpt>
      <trkpt lat="40.64297" lon="-3.73092">
        <ele>783.8</ele>
        <time>2021-11-16 10:18:10</time>
      </trkpt>
      <trkpt lat="40.64301" lon="-3.73091">
        <ele>783.8</ele>
        <time>2021-11-16 10:18:11</time>
      </trkpt>
      <trkpt lat="40.64306" lon="-3.73091">
        <ele>783.8</ele>
        <time>2021-11-16 10:18:12</time>
      </trkpt>
      <trkpt lat="40.6431" lon="-3.73091">
        <ele>784</ele>
        <time>2021-11-16 10:18:13</time>
      </trkpt>
      <trkpt lat="40.64315" lon="-3.73091">
        <ele>784</ele>
        <time>2021-11-16 10:18:14</time>
      </trkpt>
      <trkpt lat="40.64319" lon="-3.73092">
        <ele>784</ele>
        <time>2021-11-16 10:18:15</time>
      </trkpt>
      <trkpt lat="40.64324" lon="-3.73092">
        <ele>784</ele>
        <time>2021-11-16 10:18:16</time>
      </trkpt>
      <trkpt lat="40.64328" lon="-3.73092">
        <ele>784.2</ele>
        <time>2021-11-16 10:18:17</time>
      </trkpt>
      <trkpt lat="40.64333" lon="-3.73093">
        <ele>784</ele>
        <time>2021-11-16 10:18:18</time>
      </trkpt>
      <trkpt lat="40.64337" lon="-3.73094">
        <ele>784.2</ele>
        <time>2021-11-16 10:18:19</time>
      </trkpt>
      <trkpt lat="40.64342" lon="-3.73095">
        <ele>784.2</ele>
        <time>2021-11-16 10:18:20</time>
      </trkpt>
      <trkpt lat="40.64347" lon="-3.73095">
        <ele>784.2</ele>
        <time>2021-11-16 10:18:21</time>
      </trkpt>
      <trkpt lat="40.64352" lon="-3.73096">
        <ele>784.2</ele>
        <time>2021-11-16 10:18:22</time>
      </trkpt>
      <trkpt lat="40.64357" lon="-3.73098">
        <ele>784.2</ele>
        <time>2021-11-16 10:18:23</time>
      </trkpt>
      <trkpt lat="40.64361" lon="-3.73099">
        <ele>784.4</ele>
        <time>2021-11-16 10:18:24</time>
      </trkpt>
      <trkpt lat="40.64366" lon="-3.73102">
        <ele>784.6</ele>
        <time>2021-11-16 10:18:25</time>
      </trkpt>
      <trkpt lat="40.64371" lon="-3.73104">
        <ele>784.8</ele>
        <time>2021-11-16 10:18:26</time>
      </trkpt>
      <trkpt lat="40.64376" lon="-3.73106">
        <ele>784.8</ele>
        <time>2021-11-16 10:18:27</time>
      </trkpt>
      <trkpt lat="40.64381" lon="-3.73108">
        <ele>785</ele>
        <time>2021-11-16 10:18:28</time>
      </trkpt>
      <trkpt lat="40.64385" lon="-3.7311">
        <ele>785</ele>
        <time>2021-11-16 10:18:29</time>
      </trkpt>
      <trkpt lat="40.6439" lon="-3.73112">
        <ele>785</ele>
        <time>2021-11-16 10:18:30</time>
      </trkpt>
      <trkpt lat="40.64395" lon="-3.73115">
        <ele>785</ele>
        <time>2021-11-16 10:18:31</time>
      </trkpt>
      <trkpt lat="40.644" lon="-3.73118">
        <ele>785.2</ele>
        <time>2021-11-16 10:18:32</time>
      </trkpt>
      <trkpt lat="40.64404" lon="-3.73121">
        <ele>785.2</ele>
        <time>2021-11-16 10:18:33</time>
      </trkpt>
      <trkpt lat="40.64409" lon="-3.73124">
        <ele>785.2</ele>
        <time>2021-11-16 10:18:34</time>
      </trkpt>
      <trkpt lat="40.64413" lon="-3.73127">
        <ele>785.4</ele>
        <time>2021-11-16 10:18:35</time>
      </trkpt>
      <trkpt lat="40.64418" lon="-3.7313">
        <ele>785.4</ele>
        <time>2021-11-16 10:18:36</time>
      </trkpt>
      <trkpt lat="40.64422" lon="-3.73134">
        <ele>785.4</ele>
        <time>2021-11-16 10:18:37</time>
      </trkpt>
      <trkpt lat="40.64426" lon="-3.73137">
        <ele>785.6</ele>
        <time>2021-11-16 10:18:38</time>
      </trkpt>
      <trkpt lat="40.64431" lon="-3.73141">
        <ele>785.6</ele>
        <time>2021-11-16 10:18:39</time>
      </trkpt>
      <trkpt lat="40.64435" lon="-3.73145">
        <ele>785.6</ele>
        <time>2021-11-16 10:18:40</time>
      </trkpt>
      <trkpt lat="40.64439" lon="-3.73149">
        <ele>785.6</ele>
        <time>2021-11-16 10:18:41</time>
      </trkpt>
      <trkpt lat="40.64443" lon="-3.73154">
        <ele>785.8</ele>
        <time>2021-11-16 10:18:42</time>
      </trkpt>
      <trkpt lat="40.64447" lon="-3.73158">
        <ele>785.8</ele>
        <time>2021-11-16 10:18:43</time>
      </trkpt>
      <trkpt lat="40.64452" lon="-3.73163">
        <ele>785.8</ele>
        <time>2021-11-16 10:18:44</time>
      </trkpt>
      <trkpt lat="40.64456" lon="-3.73168">
        <ele>786</ele>
        <time>2021-11-16 10:18:45</time>
      </trkpt>
      <trkpt lat="40.6446" lon="-3.73172">
        <ele>785.8</ele>
        <time>2021-11-16 10:18:46</time>
      </trkpt>
      <trkpt lat="40.64464" lon="-3.73177">
        <ele>785.8</ele>
        <time>2021-11-16 10:18:47</time>
      </trkpt>
      <trkpt lat="40.64468" lon="-3.73183">
        <ele>785.8</ele>
        <time>2021-11-16 10:18:48</time>
      </trkpt>
      <trkpt lat="40.64472" lon="-3.73187">
        <ele>785.8</ele>
        <time>2021-11-16 10:18:49</time>
      </trkpt>
      <trkpt lat="40.64476" lon="-3.73192">
        <ele>786</ele>
        <time>2021-11-16 10:18:50</time>
      </trkpt>
      <trkpt lat="40.6448" lon="-3.73197">
        <ele>786</ele>
        <time>2021-11-16 10:18:51</time>
      </trkpt>
      <trkpt lat="40.64484" lon="-3.73201">
        <ele>786</ele>
        <time>2021-11-16 10:18:52</time>
      </trkpt>
      <trkpt lat="40.64488" lon="-3.73206">
        <ele>786.2</ele>
        <time>2021-11-16 10:18:53</time>
      </trkpt>
      <trkpt lat="40.64491" lon="-3.73211">
        <ele>786.4</ele>
        <time>2021-11-16 10:18:54</time>
      </trkpt>
      <trkpt lat="40.64495" lon="-3.73215">
        <ele>786.4</ele>
        <time>2021-11-16 10:18:55</time>
      </trkpt>
      <trkpt lat="40.64499" lon="-3.7322">
        <ele>786.4</ele>
        <time>2021-11-16 10:18:56</time>
      </trkpt>
      <trkpt lat="40.64502" lon="-3.73224">
        <ele>786.6</ele>
        <time>2021-11-16 10:18:57</time>
      </trkpt>
      <trkpt lat="40.64506" lon="-3.73229">
        <ele>786.6</ele>
        <time>2021-11-16 10:18:58</time>
      </trkpt>
      <trkpt lat="40.6451" lon="-3.73234">
        <ele>786.8</ele>
        <time>2021-11-16 10:18:59</time>
      </trkpt>
      <trkpt lat="40.64514" lon="-3.73239">
        <ele>786.8</ele>
        <time>2021-11-16 10:19:00</time>
      </trkpt>
      <trkpt lat="40.64518" lon="-3.73244">
        <ele>786.8</ele>
        <time>2021-11-16 10:19:01</time>
      </trkpt>
      <trkpt lat="40.64522" lon="-3.73249">
        <ele>787</ele>
        <time>2021-11-16 10:19:02</time>
      </trkpt>
      <trkpt lat="40.64526" lon="-3.73254">
        <ele>787</ele>
        <time>2021-11-16 10:19:03</time>
      </trkpt>
      <trkpt lat="40.6453" lon="-3.73259">
        <ele>786.8</ele>
        <time>2021-11-16 10:19:04</time>
      </trkpt>
      <trkpt lat="40.64534" lon="-3.73265">
        <ele>786.8</ele>
        <time>2021-11-16 10:19:05</time>
      </trkpt>
      <trkpt lat="40.64539" lon="-3.7327">
        <ele>786.8</ele>
        <time>2021-11-16 10:19:06</time>
      </trkpt>
      <trkpt lat="40.64543" lon="-3.73276">
        <ele>787</ele>
        <time>2021-11-16 10:19:07</time>
      </trkpt>
      <trkpt lat="40.64547" lon="-3.73281">
        <ele>787</ele>
        <time>2021-11-16 10:19:08</time>
      </trkpt>
      <trkpt lat="40.64551" lon="-3.73287">
        <ele>786.8</ele>
        <time>2021-11-16 10:19:09</time>
      </trkpt>
      <trkpt lat="40.64555" lon="-3.73293">
        <ele>786.8</ele>
        <time>2021-11-16 10:19:10</time>
      </trkpt>
      <trkpt lat="40.64559" lon="-3.73299">
        <ele>787</ele>
        <time>2021-11-16 10:19:11</time>
      </trkpt>
      <trkpt lat="40.64563" lon="-3.73305">
        <ele>786.8</ele>
        <time>2021-11-16 10:19:12</time>
      </trkpt>
      <trkpt lat="40.64567" lon="-3.73311">
        <ele>786.8</ele>
        <time>2021-11-16 10:19:13</time>
      </trkpt>
      <trkpt lat="40.6457" lon="-3.73317">
        <ele>787</ele>
        <time>2021-11-16 10:19:14</time>
      </trkpt>
      <trkpt lat="40.64573" lon="-3.73323">
        <ele>786.8</ele>
        <time>2021-11-16 10:19:15</time>
      </trkpt>
      <trkpt lat="40.64576" lon="-3.73329">
        <ele>786.8</ele>
        <time>2021-11-16 10:19:16</time>
      </trkpt>
      <trkpt lat="40.64579" lon="-3.73335">
        <ele>786.8</ele>
        <time>2021-11-16 10:19:17</time>
      </trkpt>
      <trkpt lat="40.64582" lon="-3.73341">
        <ele>786.8</ele>
        <time>2021-11-16 10:19:18</time>
      </trkpt>
      <trkpt lat="40.64585" lon="-3.73348">
        <ele>786.8</ele>
        <time>2021-11-16 10:19:19</time>
      </trkpt>
      <trkpt lat="40.64587" lon="-3.73354">
        <ele>786.8</ele>
        <time>2021-11-16 10:19:20</time>
      </trkpt>
      <trkpt lat="40.6459" lon="-3.7336">
        <ele>786.8</ele>
        <time>2021-11-16 10:19:21</time>
      </trkpt>
      <trkpt lat="40.64592" lon="-3.73366">
        <ele>787</ele>
        <time>2021-11-16 10:19:22</time>
      </trkpt>
      <trkpt lat="40.64595" lon="-3.73373">
        <ele>787</ele>
        <time>2021-11-16 10:19:23</time>
      </trkpt>
      <trkpt lat="40.64597" lon="-3.73379">
        <ele>787</ele>
        <time>2021-11-16 10:19:24</time>
      </trkpt>
      <trkpt lat="40.646" lon="-3.73385">
        <ele>787.2</ele>
        <time>2021-11-16 10:19:25</time>
      </trkpt>
      <trkpt lat="40.64603" lon="-3.73391">
        <ele>787.4</ele>
        <time>2021-11-16 10:19:26</time>
      </trkpt>
      <trkpt lat="40.64605" lon="-3.73397">
        <ele>787.4</ele>
        <time>2021-11-16 10:19:27</time>
      </trkpt>
      <trkpt lat="40.64608" lon="-3.73403">
        <ele>787.6</ele>
        <time>2021-11-16 10:19:28</time>
      </trkpt>
      <trkpt lat="40.6461" lon="-3.73409">
        <ele>787.8</ele>
        <time>2021-11-16 10:19:29</time>
      </trkpt>
      <trkpt lat="40.64613" lon="-3.73415">
        <ele>788.6</ele>
        <time>2021-11-16 10:19:30</time>
      </trkpt>
      <trkpt lat="40.64615" lon="-3.7342">
        <ele>788.8</ele>
        <time>2021-11-16 10:19:31</time>
      </trkpt>
      <trkpt lat="40.64618" lon="-3.73426">
        <ele>789</ele>
        <time>2021-11-16 10:19:32</time>
      </trkpt>
      <trkpt lat="40.64621" lon="-3.73431">
        <ele>789.4</ele>
        <time>2021-11-16 10:19:33</time>
      </trkpt>
      <trkpt lat="40.64625" lon="-3.73436">
        <ele>789.4</ele>
        <time>2021-11-16 10:19:34</time>
      </trkpt>
      <trkpt lat="40.64628" lon="-3.73441">
        <ele>789.8</ele>
        <time>2021-11-16 10:19:35</time>
      </trkpt>
      <trkpt lat="40.64632" lon="-3.73445">
        <ele>789.8</ele>
        <time>2021-11-16 10:19:36</time>
      </trkpt>
      <trkpt lat="40.64635" lon="-3.73449">
        <ele>790</ele>
        <time>2021-11-16 10:19:37</time>
      </trkpt>
      <trkpt lat="40.6464" lon="-3.73453">
        <ele>790.2</ele>
        <time>2021-11-16 10:19:38</time>
      </trkpt>
      <trkpt lat="40.64644" lon="-3.73457">
        <ele>790.6</ele>
        <time>2021-11-16 10:19:39</time>
      </trkpt>
      <trkpt lat="40.64648" lon="-3.73461">
        <ele>790.6</ele>
        <time>2021-11-16 10:19:40</time>
      </trkpt>
      <trkpt lat="40.64652" lon="-3.73464">
        <ele>790.8</ele>
        <time>2021-11-16 10:19:41</time>
      </trkpt>
      <trkpt lat="40.64657" lon="-3.73466">
        <ele>790.8</ele>
        <time>2021-11-16 10:19:42</time>
      </trkpt>
      <trkpt lat="40.64661" lon="-3.73469">
        <ele>790.8</ele>
        <time>2021-11-16 10:19:43</time>
      </trkpt>
      <trkpt lat="40.64666" lon="-3.73471">
        <ele>791</ele>
        <time>2021-11-16 10:19:44</time>
      </trkpt>
      <trkpt lat="40.64671" lon="-3.73473">
        <ele>791</ele>
        <time>2021-11-16 10:19:45</time>
      </trkpt>
      <trkpt lat="40.64675" lon="-3.73475">
        <ele>791</ele>
        <time>2021-11-16 10:19:46</time>
      </trkpt>
      <trkpt lat="40.6468" lon="-3.73477">
        <ele>791</ele>
        <time>2021-11-16 10:19:47</time>
      </trkpt>
      <trkpt lat="40.64685" lon="-3.73479">
        <ele>791</ele>
        <time>2021-11-16 10:19:48</time>
      </trkpt>
      <trkpt lat="40.6469" lon="-3.7348">
        <ele>791.2</ele>
        <time>2021-11-16 10:19:49</time>
      </trkpt>
      <trkpt lat="40.64695" lon="-3.73481">
        <ele>791.4</ele>
        <time>2021-11-16 10:19:50</time>
      </trkpt>
      <trkpt lat="40.64699" lon="-3.73483">
        <ele>791.6</ele>
        <time>2021-11-16 10:19:51</time>
      </trkpt>
      <trkpt lat="40.64704" lon="-3.73484">
        <ele>791.8</ele>
        <time>2021-11-16 10:19:52</time>
      </trkpt>
      <trkpt lat="40.64709" lon="-3.73485">
        <ele>791.8</ele>
        <time>2021-11-16 10:19:53</time>
      </trkpt>
      <trkpt lat="40.64714" lon="-3.73487">
        <ele>791.8</ele>
        <time>2021-11-16 10:19:54</time>
      </trkpt>
      <trkpt lat="40.64718" lon="-3.73488">
        <ele>792</ele>
        <time>2021-11-16 10:19:55</time>
      </trkpt>
      <trkpt lat="40.64723" lon="-3.7349">
        <ele>792.2</ele>
        <time>2021-11-16 10:19:56</time>
      </trkpt>
      <trkpt lat="40.64727" lon="-3.73491">
        <ele>792.6</ele>
        <time>2021-11-16 10:19:57</time>
      </trkpt>
      <trkpt lat="40.64732" lon="-3.73492">
        <ele>792.8</ele>
        <time>2021-11-16 10:19:58</time>
      </trkpt>
      <trkpt lat="40.64736" lon="-3.73494">
        <ele>793</ele>
        <time>2021-11-16 10:19:59</time>
      </trkpt>
      <trkpt lat="40.64741" lon="-3.73495">
        <ele>793.2</ele>
        <time>2021-11-16 10:20:00</time>
      </trkpt>
      <trkpt lat="40.64745" lon="-3.73496">
        <ele>793.2</ele>
        <time>2021-11-16 10:20:01</time>
      </trkpt>
      <trkpt lat="40.64749" lon="-3.73498">
        <ele>793.4</ele>
        <time>2021-11-16 10:20:02</time>
      </trkpt>
      <trkpt lat="40.64753" lon="-3.73499">
        <ele>793.2</ele>
        <time>2021-11-16 10:20:03</time>
      </trkpt>
      <trkpt lat="40.64758" lon="-3.735">
        <ele>793.2</ele>
        <time>2021-11-16 10:20:04</time>
      </trkpt>
      <trkpt lat="40.64762" lon="-3.73501">
        <ele>794.2</ele>
        <time>2021-11-16 10:20:05</time>
      </trkpt>
      <trkpt lat="40.64767" lon="-3.73503">
        <ele>794.6</ele>
        <time>2021-11-16 10:20:06</time>
      </trkpt>
      <trkpt lat="40.64771" lon="-3.73504">
        <ele>794.8</ele>
        <time>2021-11-16 10:20:07</time>
      </trkpt>
      <trkpt lat="40.64775" lon="-3.73505">
        <ele>795</ele>
        <time>2021-11-16 10:20:08</time>
      </trkpt>
      <trkpt lat="40.64779" lon="-3.73507">
        <ele>795</ele>
        <time>2021-11-16 10:20:09</time>
      </trkpt>
      <trkpt lat="40.64784" lon="-3.73508">
        <ele>795.2</ele>
        <time>2021-11-16 10:20:10</time>
      </trkpt>
      <trkpt lat="40.64788" lon="-3.73509">
        <ele>795.2</ele>
        <time>2021-11-16 10:20:11</time>
      </trkpt>
      <trkpt lat="40.64792" lon="-3.7351">
        <ele>795.2</ele>
        <time>2021-11-16 10:20:12</time>
      </trkpt>
      <trkpt lat="40.64796" lon="-3.73512">
        <ele>795.4</ele>
        <time>2021-11-16 10:20:13</time>
      </trkpt>
      <trkpt lat="40.64801" lon="-3.73513">
        <ele>795.4</ele>
        <time>2021-11-16 10:20:14</time>
      </trkpt>
      <trkpt lat="40.64805" lon="-3.73515">
        <ele>795.6</ele>
        <time>2021-11-16 10:20:15</time>
      </trkpt>
      <trkpt lat="40.6481" lon="-3.73516">
        <ele>795.8</ele>
        <time>2021-11-16 10:20:16</time>
      </trkpt>
      <trkpt lat="40.64814" lon="-3.73517">
        <ele>795.8</ele>
        <time>2021-11-16 10:20:17</time>
      </trkpt>
      <trkpt lat="40.64819" lon="-3.73518">
        <ele>795.8</ele>
        <time>2021-11-16 10:20:18</time>
      </trkpt>
      <trkpt lat="40.64823" lon="-3.73519">
        <ele>796.2</ele>
        <time>2021-11-16 10:20:19</time>
      </trkpt>
      <trkpt lat="40.64828" lon="-3.7352">
        <ele>796.4</ele>
        <time>2021-11-16 10:20:20</time>
      </trkpt>
      <trkpt lat="40.64832" lon="-3.73521">
        <ele>796.8</ele>
        <time>2021-11-16 10:20:21</time>
      </trkpt>
      <trkpt lat="40.64836" lon="-3.73523">
        <ele>797</ele>
        <time>2021-11-16 10:20:22</time>
      </trkpt>
      <trkpt lat="40.64841" lon="-3.73524">
        <ele>797.2</ele>
        <time>2021-11-16 10:20:23</time>
      </trkpt>
      <trkpt lat="40.64845" lon="-3.73525">
        <ele>797.2</ele>
        <time>2021-11-16 10:20:24</time>
      </trkpt>
      <trkpt lat="40.6485" lon="-3.73527">
        <ele>797.6</ele>
        <time>2021-11-16 10:20:25</time>
      </trkpt>
      <trkpt lat="40.64854" lon="-3.73528">
        <ele>797.8</ele>
        <time>2021-11-16 10:20:26</time>
      </trkpt>
      <trkpt lat="40.64859" lon="-3.73529">
        <ele>797.8</ele>
        <time>2021-11-16 10:20:27</time>
      </trkpt>
      <trkpt lat="40.64863" lon="-3.73531">
        <ele>798.2</ele>
        <time>2021-11-16 10:20:28</time>
      </trkpt>
      <trkpt lat="40.64867" lon="-3.73532">
        <ele>798.2</ele>
        <time>2021-11-16 10:20:29</time>
      </trkpt>
      <trkpt lat="40.64872" lon="-3.73533">
        <ele>798.6</ele>
        <time>2021-11-16 10:20:30</time>
      </trkpt>
      <trkpt lat="40.64876" lon="-3.73535">
        <ele>798.6</ele>
        <time>2021-11-16 10:20:31</time>
      </trkpt>
      <trkpt lat="40.6488" lon="-3.73536">
        <ele>798.8</ele>
        <time>2021-11-16 10:20:32</time>
      </trkpt>
      <trkpt lat="40.64885" lon="-3.73537">
        <ele>798.8</ele>
        <time>2021-11-16 10:20:33</time>
      </trkpt>
      <trkpt lat="40.64889" lon="-3.73539">
        <ele>799</ele>
        <time>2021-11-16 10:20:34</time>
      </trkpt>
      <trkpt lat="40.64893" lon="-3.7354">
        <ele>799</ele>
        <time>2021-11-16 10:20:35</time>
      </trkpt>
      <trkpt lat="40.64897" lon="-3.73541">
        <ele>799.4</ele>
        <time>2021-11-16 10:20:36</time>
      </trkpt>
      <trkpt lat="40.64901" lon="-3.73543">
        <ele>799.4</ele>
        <time>2021-11-16 10:20:37</time>
      </trkpt>
      <trkpt lat="40.64905" lon="-3.73544">
        <ele>799.6</ele>
        <time>2021-11-16 10:20:38</time>
      </trkpt>
      <trkpt lat="40.64909" lon="-3.73546">
        <ele>799.6</ele>
        <time>2021-11-16 10:20:39</time>
      </trkpt>
      <trkpt lat="40.64912" lon="-3.73547">
        <ele>800.2</ele>
        <time>2021-11-16 10:20:40</time>
      </trkpt>
      <trkpt lat="40.64916" lon="-3.73548">
        <ele>800.2</ele>
        <time>2021-11-16 10:20:41</time>
      </trkpt>
      <trkpt lat="40.6492" lon="-3.73549">
        <ele>800.2</ele>
        <time>2021-11-16 10:20:42</time>
      </trkpt>
      <trkpt lat="40.64923" lon="-3.73551">
        <ele>800.6</ele>
        <time>2021-11-16 10:20:43</time>
      </trkpt>
      <trkpt lat="40.64927" lon="-3.73552">
        <ele>800.6</ele>
        <time>2021-11-16 10:20:44</time>
      </trkpt>
      <trkpt lat="40.6493" lon="-3.73554">
        <ele>800.8</ele>
        <time>2021-11-16 10:20:45</time>
      </trkpt>
      <trkpt lat="40.64933" lon="-3.73555">
        <ele>801.2</ele>
        <time>2021-11-16 10:20:46</time>
      </trkpt>
      <trkpt lat="40.64937" lon="-3.73557">
        <ele>801.6</ele>
        <time>2021-11-16 10:20:47</time>
      </trkpt>
      <trkpt lat="40.6494" lon="-3.73559">
        <ele>802</ele>
        <time>2021-11-16 10:20:48</time>
      </trkpt>
      <trkpt lat="40.64944" lon="-3.73561">
        <ele>802.2</ele>
        <time>2021-11-16 10:20:49</time>
      </trkpt>
      <trkpt lat="40.64947" lon="-3.73563">
        <ele>802.6</ele>
        <time>2021-11-16 10:20:50</time>
      </trkpt>
      <trkpt lat="40.64951" lon="-3.73566">
        <ele>803</ele>
        <time>2021-11-16 10:20:51</time>
      </trkpt>
      <trkpt lat="40.64955" lon="-3.73568">
        <ele>803.2</ele>
        <time>2021-11-16 10:20:52</time>
      </trkpt>
      <trkpt lat="40.64958" lon="-3.7357">
        <ele>803.6</ele>
        <time>2021-11-16 10:20:53</time>
      </trkpt>
      <trkpt lat="40.64962" lon="-3.73573">
        <ele>803.8</ele>
        <time>2021-11-16 10:20:54</time>
      </trkpt>
      <trkpt lat="40.64965" lon="-3.73575">
        <ele>804.2</ele>
        <time>2021-11-16 10:20:55</time>
      </trkpt>
      <trkpt lat="40.64969" lon="-3.73578">
        <ele>804.6</ele>
        <time>2021-11-16 10:20:56</time>
      </trkpt>
      <trkpt lat="40.64972" lon="-3.7358">
        <ele>805.2</ele>
        <time>2021-11-16 10:20:57</time>
      </trkpt>
      <trkpt lat="40.64976" lon="-3.73583">
        <ele>805.6</ele>
        <time>2021-11-16 10:20:58</time>
      </trkpt>
      <trkpt lat="40.6498" lon="-3.73586">
        <ele>805.8</ele>
        <time>2021-11-16 10:20:59</time>
      </trkpt>
      <trkpt lat="40.64983" lon="-3.73589">
        <ele>805.8</ele>
        <time>2021-11-16 10:21:00</time>
      </trkpt>
      <trkpt lat="40.64987" lon="-3.73592">
        <ele>806</ele>
        <time>2021-11-16 10:21:01</time>
      </trkpt>
      <trkpt lat="40.64991" lon="-3.73594">
        <ele>806.2</ele>
        <time>2021-11-16 10:21:02</time>
      </trkpt>
      <trkpt lat="40.64995" lon="-3.73598">
        <ele>806.2</ele>
        <time>2021-11-16 10:21:03</time>
      </trkpt>
      <trkpt lat="40.64999" lon="-3.73601">
        <ele>806.2</ele>
        <time>2021-11-16 10:21:04</time>
      </trkpt>
      <trkpt lat="40.65004" lon="-3.73604">
        <ele>806.4</ele>
        <time>2021-11-16 10:21:05</time>
      </trkpt>
      <trkpt lat="40.65008" lon="-3.73607">
        <ele>806.2</ele>
        <time>2021-11-16 10:21:06</time>
      </trkpt>
      <trkpt lat="40.65012" lon="-3.73611">
        <ele>806.4</ele>
        <time>2021-11-16 10:21:07</time>
      </trkpt>
      <trkpt lat="40.65017" lon="-3.73615">
        <ele>806.4</ele>
        <time>2021-11-16 10:21:08</time>
      </trkpt>
      <trkpt lat="40.65021" lon="-3.73618">
        <ele>806.6</ele>
        <time>2021-11-16 10:21:09</time>
      </trkpt>
      <trkpt lat="40.65026" lon="-3.73622">
        <ele>806.6</ele>
        <time>2021-11-16 10:21:10</time>
      </trkpt>
      <trkpt lat="40.6503" lon="-3.73625">
        <ele>806.8</ele>
        <time>2021-11-16 10:21:11</time>
      </trkpt>
      <trkpt lat="40.65034" lon="-3.73628">
        <ele>806.8</ele>
        <time>2021-11-16 10:21:12</time>
      </trkpt>
      <trkpt lat="40.65038" lon="-3.73631">
        <ele>807</ele>
        <time>2021-11-16 10:21:13</time>
      </trkpt>
      <trkpt lat="40.65042" lon="-3.73635">
        <ele>807</ele>
        <time>2021-11-16 10:21:14</time>
      </trkpt>
      <trkpt lat="40.65046" lon="-3.73638">
        <ele>807</ele>
        <time>2021-11-16 10:21:15</time>
      </trkpt>
      <trkpt lat="40.6505" lon="-3.73641">
        <ele>807</ele>
        <time>2021-11-16 10:21:16</time>
      </trkpt>
      <trkpt lat="40.65054" lon="-3.73644">
        <ele>807.2</ele>
        <time>2021-11-16 10:21:17</time>
      </trkpt>
      <trkpt lat="40.65057" lon="-3.73647">
        <ele>807.2</ele>
        <time>2021-11-16 10:21:18</time>
      </trkpt>
      <trkpt lat="40.65061" lon="-3.73649">
        <ele>807.2</ele>
        <time>2021-11-16 10:21:19</time>
      </trkpt>
      <trkpt lat="40.65064" lon="-3.73652">
        <ele>807.4</ele>
        <time>2021-11-16 10:21:20</time>
      </trkpt>
      <trkpt lat="40.65068" lon="-3.73655">
        <ele>807.4</ele>
        <time>2021-11-16 10:21:21</time>
      </trkpt>
      <trkpt lat="40.65071" lon="-3.73658">
        <ele>807.8</ele>
        <time>2021-11-16 10:21:22</time>
      </trkpt>
      <trkpt lat="40.65075" lon="-3.73661">
        <ele>808</ele>
        <time>2021-11-16 10:21:23</time>
      </trkpt>
      <trkpt lat="40.65079" lon="-3.73664">
        <ele>808.2</ele>
        <time>2021-11-16 10:21:24</time>
      </trkpt>
      <trkpt lat="40.65082" lon="-3.73667">
        <ele>808.6</ele>
        <time>2021-11-16 10:21:25</time>
      </trkpt>
      <trkpt lat="40.65086" lon="-3.73669">
        <ele>808.6</ele>
        <time>2021-11-16 10:21:26</time>
      </trkpt>
      <trkpt lat="40.6509" lon="-3.73672">
        <ele>809.4</ele>
        <time>2021-11-16 10:21:27</time>
      </trkpt>
      <trkpt lat="40.65094" lon="-3.73675">
        <ele>810</ele>
        <time>2021-11-16 10:21:28</time>
      </trkpt>
      <trkpt lat="40.65098" lon="-3.73678">
        <ele>810</ele>
        <time>2021-11-16 10:21:29</time>
      </trkpt>
      <trkpt lat="40.65102" lon="-3.73681">
        <ele>810.4</ele>
        <time>2021-11-16 10:21:30</time>
      </trkpt>
      <trkpt lat="40.65106" lon="-3.73684">
        <ele>810.6</ele>
        <time>2021-11-16 10:21:31</time>
      </trkpt>
      <trkpt lat="40.6511" lon="-3.73688">
        <ele>810.8</ele>
        <time>2021-11-16 10:21:32</time>
      </trkpt>
      <trkpt lat="40.65115" lon="-3.73691">
        <ele>810.6</ele>
        <time>2021-11-16 10:21:33</time>
      </trkpt>
      <trkpt lat="40.65119" lon="-3.73694">
        <ele>810.8</ele>
        <time>2021-11-16 10:21:34</time>
      </trkpt>
      <trkpt lat="40.65123" lon="-3.73698">
        <ele>811</ele>
        <time>2021-11-16 10:21:35</time>
      </trkpt>
      <trkpt lat="40.65128" lon="-3.73702">
        <ele>811</ele>
        <time>2021-11-16 10:21:36</time>
      </trkpt>
      <trkpt lat="40.65133" lon="-3.73705">
        <ele>811</ele>
        <time>2021-11-16 10:21:37</time>
      </trkpt>
      <trkpt lat="40.65137" lon="-3.73709">
        <ele>811</ele>
        <time>2021-11-16 10:21:38</time>
      </trkpt>
      <trkpt lat="40.65142" lon="-3.73714">
        <ele>811</ele>
        <time>2021-11-16 10:21:39</time>
      </trkpt>
      <trkpt lat="40.65147" lon="-3.73718">
        <ele>811</ele>
        <time>2021-11-16 10:21:40</time>
      </trkpt>
      <trkpt lat="40.65151" lon="-3.73721">
        <ele>810.8</ele>
        <time>2021-11-16 10:21:41</time>
      </trkpt>
      <trkpt lat="40.65156" lon="-3.73726">
        <ele>810.8</ele>
        <time>2021-11-16 10:21:42</time>
      </trkpt>
      <trkpt lat="40.6516" lon="-3.7373">
        <ele>810.8</ele>
        <time>2021-11-16 10:21:43</time>
      </trkpt>
      <trkpt lat="40.65165" lon="-3.73735">
        <ele>810.8</ele>
        <time>2021-11-16 10:21:44</time>
      </trkpt>
      <trkpt lat="40.6517" lon="-3.73741">
        <ele>810.8</ele>
        <time>2021-11-16 10:21:45</time>
      </trkpt>
      <trkpt lat="40.65175" lon="-3.73746">
        <ele>810.8</ele>
        <time>2021-11-16 10:21:46</time>
      </trkpt>
      <trkpt lat="40.6518" lon="-3.73751">
        <ele>810.6</ele>
        <time>2021-11-16 10:21:47</time>
      </trkpt>
      <trkpt lat="40.65185" lon="-3.73758">
        <ele>810.6</ele>
        <time>2021-11-16 10:21:48</time>
      </trkpt>
      <trkpt lat="40.6519" lon="-3.73764">
        <ele>810.4</ele>
        <time>2021-11-16 10:21:49</time>
      </trkpt>
      <trkpt lat="40.65195" lon="-3.7377">
        <ele>810.2</ele>
        <time>2021-11-16 10:21:50</time>
      </trkpt>
      <trkpt lat="40.652" lon="-3.73777">
        <ele>810.2</ele>
        <time>2021-11-16 10:21:51</time>
      </trkpt>
      <trkpt lat="40.65205" lon="-3.73784">
        <ele>810.2</ele>
        <time>2021-11-16 10:21:52</time>
      </trkpt>
      <trkpt lat="40.65209" lon="-3.73792">
        <ele>810</ele>
        <time>2021-11-16 10:21:53</time>
      </trkpt>
      <trkpt lat="40.65214" lon="-3.738">
        <ele>809.8</ele>
        <time>2021-11-16 10:21:54</time>
      </trkpt>
      <trkpt lat="40.65219" lon="-3.73808">
        <ele>809.8</ele>
        <time>2021-11-16 10:21:55</time>
      </trkpt>
      <trkpt lat="40.65223" lon="-3.73816">
        <ele>809.4</ele>
        <time>2021-11-16 10:21:56</time>
      </trkpt>
      <trkpt lat="40.65228" lon="-3.73824">
        <ele>809.4</ele>
        <time>2021-11-16 10:21:57</time>
      </trkpt>
      <trkpt lat="40.65232" lon="-3.73832">
        <ele>809.4</ele>
        <time>2021-11-16 10:21:58</time>
      </trkpt>
      <trkpt lat="40.65237" lon="-3.7384">
        <ele>809</ele>
        <time>2021-11-16 10:21:59</time>
      </trkpt>
      <trkpt lat="40.65241" lon="-3.73848">
        <ele>808.6</ele>
        <time>2021-11-16 10:22:00</time>
      </trkpt>
      <trkpt lat="40.65244" lon="-3.73857">
        <ele>808.6</ele>
        <time>2021-11-16 10:22:01</time>
      </trkpt>
      <trkpt lat="40.65247" lon="-3.73865">
        <ele>808.4</ele>
        <time>2021-11-16 10:22:02</time>
      </trkpt>
      <trkpt lat="40.65251" lon="-3.73874">
        <ele>808.4</ele>
        <time>2021-11-16 10:22:03</time>
      </trkpt>
      <trkpt lat="40.65254" lon="-3.73882">
        <ele>808.2</ele>
        <time>2021-11-16 10:22:04</time>
      </trkpt>
      <trkpt lat="40.65257" lon="-3.7389">
        <ele>808.2</ele>
        <time>2021-11-16 10:22:05</time>
      </trkpt>
      <trkpt lat="40.6526" lon="-3.73898">
        <ele>808.2</ele>
        <time>2021-11-16 10:22:06</time>
      </trkpt>
      <trkpt lat="40.65263" lon="-3.73905">
        <ele>808.2</ele>
        <time>2021-11-16 10:22:07</time>
      </trkpt>
      <trkpt lat="40.65266" lon="-3.73913">
        <ele>808</ele>
        <time>2021-11-16 10:22:08</time>
      </trkpt>
      <trkpt lat="40.65268" lon="-3.7392">
        <ele>808.2</ele>
        <time>2021-11-16 10:22:09</time>
      </trkpt>
      <trkpt lat="40.65271" lon="-3.73927">
        <ele>808</ele>
        <time>2021-11-16 10:22:10</time>
      </trkpt>
      <trkpt lat="40.65274" lon="-3.73934">
        <ele>808.2</ele>
        <time>2021-11-16 10:22:11</time>
      </trkpt>
      <trkpt lat="40.65276" lon="-3.73941">
        <ele>808.2</ele>
        <time>2021-11-16 10:22:12</time>
      </trkpt>
      <trkpt lat="40.65278" lon="-3.73948">
        <ele>808.2</ele>
        <time>2021-11-16 10:22:13</time>
      </trkpt>
      <trkpt lat="40.65281" lon="-3.73955">
        <ele>808</ele>
        <time>2021-11-16 10:22:14</time>
      </trkpt>
      <trkpt lat="40.65283" lon="-3.73961">
        <ele>808</ele>
        <time>2021-11-16 10:22:15</time>
      </trkpt>
      <trkpt lat="40.65286" lon="-3.73968">
        <ele>808.2</ele>
        <time>2021-11-16 10:22:16</time>
      </trkpt>
      <trkpt lat="40.65288" lon="-3.73974">
        <ele>808.4</ele>
        <time>2021-11-16 10:22:17</time>
      </trkpt>
      <trkpt lat="40.6529" lon="-3.73981">
        <ele>808.6</ele>
        <time>2021-11-16 10:22:18</time>
      </trkpt>
      <trkpt lat="40.65293" lon="-3.73987">
        <ele>808.6</ele>
        <time>2021-11-16 10:22:19</time>
      </trkpt>
      <trkpt lat="40.65295" lon="-3.73993">
        <ele>808.8</ele>
        <time>2021-11-16 10:22:20</time>
      </trkpt>
      <trkpt lat="40.65297" lon="-3.73999">
        <ele>809</ele>
        <time>2021-11-16 10:22:21</time>
      </trkpt>
      <trkpt lat="40.653" lon="-3.74006">
        <ele>809.6</ele>
        <time>2021-11-16 10:22:22</time>
      </trkpt>
      <trkpt lat="40.65302" lon="-3.74012">
        <ele>810</ele>
        <time>2021-11-16 10:22:23</time>
      </trkpt>
      <trkpt lat="40.65304" lon="-3.74018">
        <ele>811</ele>
        <time>2021-11-16 10:22:24</time>
      </trkpt>
      <trkpt lat="40.65307" lon="-3.74024">
        <ele>811.8</ele>
        <time>2021-11-16 10:22:25</time>
      </trkpt>
      <trkpt lat="40.65309" lon="-3.7403">
        <ele>812.4</ele>
        <time>2021-11-16 10:22:26</time>
      </trkpt>
      <trkpt lat="40.65312" lon="-3.74036">
        <ele>812.6</ele>
        <time>2021-11-16 10:22:27</time>
      </trkpt>
      <trkpt lat="40.65315" lon="-3.74042">
        <ele>812.8</ele>
        <time>2021-11-16 10:22:28</time>
      </trkpt>
      <trkpt lat="40.65317" lon="-3.74049">
        <ele>812.8</ele>
        <time>2021-11-16 10:22:29</time>
      </trkpt>
      <trkpt lat="40.65319" lon="-3.74055">
        <ele>813</ele>
        <time>2021-11-16 10:22:30</time>
      </trkpt>
      <trkpt lat="40.65321" lon="-3.74061">
        <ele>813</ele>
        <time>2021-11-16 10:22:31</time>
      </trkpt>
      <trkpt lat="40.65323" lon="-3.74067">
        <ele>813</ele>
        <time>2021-11-16 10:22:32</time>
      </trkpt>
      <trkpt lat="40.65325" lon="-3.74073">
        <ele>813</ele>
        <time>2021-11-16 10:22:33</time>
      </trkpt>
      <trkpt lat="40.65327" lon="-3.74079">
        <ele>813.4</ele>
        <time>2021-11-16 10:22:34</time>
      </trkpt>
      <trkpt lat="40.65329" lon="-3.74085">
        <ele>813.6</ele>
        <time>2021-11-16 10:22:35</time>
      </trkpt>
      <trkpt lat="40.65331" lon="-3.74091">
        <ele>813.8</ele>
        <time>2021-11-16 10:22:36</time>
      </trkpt>
      <trkpt lat="40.65334" lon="-3.74097">
        <ele>813.8</ele>
        <time>2021-11-16 10:22:37</time>
      </trkpt>
      <trkpt lat="40.65336" lon="-3.74102">
        <ele>813.8</ele>
        <time>2021-11-16 10:22:38</time>
      </trkpt>
      <trkpt lat="40.65338" lon="-3.74108">
        <ele>813.8</ele>
        <time>2021-11-16 10:22:39</time>
      </trkpt>
      <trkpt lat="40.6534" lon="-3.74114">
        <ele>814</ele>
        <time>2021-11-16 10:22:40</time>
      </trkpt>
      <trkpt lat="40.65343" lon="-3.7412">
        <ele>813.8</ele>
        <time>2021-11-16 10:22:41</time>
      </trkpt>
      <trkpt lat="40.65345" lon="-3.74126">
        <ele>814</ele>
        <time>2021-11-16 10:22:42</time>
      </trkpt>
      <trkpt lat="40.65347" lon="-3.74132">
        <ele>814.6</ele>
        <time>2021-11-16 10:22:43</time>
      </trkpt>
      <trkpt lat="40.65349" lon="-3.74137">
        <ele>815</ele>
        <time>2021-11-16 10:22:44</time>
      </trkpt>
      <trkpt lat="40.65352" lon="-3.74143">
        <ele>815.2</ele>
        <time>2021-11-16 10:22:45</time>
      </trkpt>
      <trkpt lat="40.65354" lon="-3.74149">
        <ele>815.2</ele>
        <time>2021-11-16 10:22:46</time>
      </trkpt>
      <trkpt lat="40.65356" lon="-3.74155">
        <ele>815.6</ele>
        <time>2021-11-16 10:22:47</time>
      </trkpt>
      <trkpt lat="40.65359" lon="-3.74161">
        <ele>816</ele>
        <time>2021-11-16 10:22:48</time>
      </trkpt>
      <trkpt lat="40.65361" lon="-3.74167">
        <ele>816.2</ele>
        <time>2021-11-16 10:22:49</time>
      </trkpt>
      <trkpt lat="40.65363" lon="-3.74173">
        <ele>816.2</ele>
        <time>2021-11-16 10:22:50</time>
      </trkpt>
      <trkpt lat="40.65366" lon="-3.74179">
        <ele>816.2</ele>
        <time>2021-11-16 10:22:51</time>
      </trkpt>
      <trkpt lat="40.65368" lon="-3.74185">
        <ele>816.4</ele>
        <time>2021-11-16 10:22:52</time>
      </trkpt>
      <trkpt lat="40.65371" lon="-3.74191">
        <ele>816.4</ele>
        <time>2021-11-16 10:22:53</time>
      </trkpt>
      <trkpt lat="40.65373" lon="-3.74197">
        <ele>816.6</ele>
        <time>2021-11-16 10:22:54</time>
      </trkpt>
      <trkpt lat="40.65376" lon="-3.74204">
        <ele>816.6</ele>
        <time>2021-11-16 10:22:55</time>
      </trkpt>
      <trkpt lat="40.65379" lon="-3.7421">
        <ele>816.8</ele>
        <time>2021-11-16 10:22:56</time>
      </trkpt>
      <trkpt lat="40.65382" lon="-3.74216">
        <ele>817</ele>
        <time>2021-11-16 10:22:57</time>
      </trkpt>
      <trkpt lat="40.65384" lon="-3.74222">
        <ele>817.2</ele>
        <time>2021-11-16 10:22:58</time>
      </trkpt>
      <trkpt lat="40.65387" lon="-3.74228">
        <ele>817.2</ele>
        <time>2021-11-16 10:22:59</time>
      </trkpt>
      <trkpt lat="40.65391" lon="-3.74234">
        <ele>817.2</ele>
        <time>2021-11-16 10:23:00</time>
      </trkpt>
      <trkpt lat="40.65394" lon="-3.74241">
        <ele>817.2</ele>
        <time>2021-11-16 10:23:01</time>
      </trkpt>
      <trkpt lat="40.65397" lon="-3.74247">
        <ele>817.4</ele>
        <time>2021-11-16 10:23:02</time>
      </trkpt>
      <trkpt lat="40.654" lon="-3.74254">
        <ele>817.2</ele>
        <time>2021-11-16 10:23:03</time>
      </trkpt>
      <trkpt lat="40.65404" lon="-3.74261">
        <ele>817.2</ele>
        <time>2021-11-16 10:23:04</time>
      </trkpt>
      <trkpt lat="40.65407" lon="-3.74268">
        <ele>817.2</ele>
        <time>2021-11-16 10:23:05</time>
      </trkpt>
      <trkpt lat="40.65411" lon="-3.74276">
        <ele>817.2</ele>
        <time>2021-11-16 10:23:06</time>
      </trkpt>
      <trkpt lat="40.65415" lon="-3.74283">
        <ele>816.8</ele>
        <time>2021-11-16 10:23:07</time>
      </trkpt>
      <trkpt lat="40.65419" lon="-3.7429">
        <ele>816.6</ele>
        <time>2021-11-16 10:23:08</time>
      </trkpt>
      <trkpt lat="40.65424" lon="-3.74298">
        <ele>816.4</ele>
        <time>2021-11-16 10:23:09</time>
      </trkpt>
      <trkpt lat="40.65428" lon="-3.74306">
        <ele>816.4</ele>
        <time>2021-11-16 10:23:10</time>
      </trkpt>
      <trkpt lat="40.65432" lon="-3.74313">
        <ele>816.2</ele>
        <time>2021-11-16 10:23:11</time>
      </trkpt>
      <trkpt lat="40.65436" lon="-3.74321">
        <ele>816</ele>
        <time>2021-11-16 10:23:12</time>
      </trkpt>
      <trkpt lat="40.6544" lon="-3.74329">
        <ele>815.6</ele>
        <time>2021-11-16 10:23:13</time>
      </trkpt>
      <trkpt lat="40.65445" lon="-3.74337">
        <ele>815.6</ele>
        <time>2021-11-16 10:23:14</time>
      </trkpt>
      <trkpt lat="40.65449" lon="-3.74345">
        <ele>815.6</ele>
        <time>2021-11-16 10:23:15</time>
      </trkpt>
      <trkpt lat="40.65454" lon="-3.74352">
        <ele>815.2</ele>
        <time>2021-11-16 10:23:16</time>
      </trkpt>
      <trkpt lat="40.65459" lon="-3.7436">
        <ele>815</ele>
        <time>2021-11-16 10:23:17</time>
      </trkpt>
      <trkpt lat="40.65463" lon="-3.74368">
        <ele>814.8</ele>
        <time>2021-11-16 10:23:18</time>
      </trkpt>
      <trkpt lat="40.65468" lon="-3.74376">
        <ele>814.8</ele>
        <time>2021-11-16 10:23:19</time>
      </trkpt>
      <trkpt lat="40.65472" lon="-3.74384">
        <ele>814.4</ele>
        <time>2021-11-16 10:23:20</time>
      </trkpt>
      <trkpt lat="40.65476" lon="-3.74392">
        <ele>814.4</ele>
        <time>2021-11-16 10:23:21</time>
      </trkpt>
      <trkpt lat="40.6548" lon="-3.74399">
        <ele>814.4</ele>
        <time>2021-11-16 10:23:22</time>
      </trkpt>
      <trkpt lat="40.65485" lon="-3.74407">
        <ele>814.2</ele>
        <time>2021-11-16 10:23:23</time>
      </trkpt>
      <trkpt lat="40.65489" lon="-3.74414">
        <ele>814.2</ele>
        <time>2021-11-16 10:23:24</time>
      </trkpt>
      <trkpt lat="40.65493" lon="-3.74421">
        <ele>814.2</ele>
        <time>2021-11-16 10:23:25</time>
      </trkpt>
      <trkpt lat="40.65497" lon="-3.74429">
        <ele>814.2</ele>
        <time>2021-11-16 10:23:26</time>
      </trkpt>
      <trkpt lat="40.65501" lon="-3.74436">
        <ele>814.2</ele>
        <time>2021-11-16 10:23:27</time>
      </trkpt>
      <trkpt lat="40.65505" lon="-3.74443">
        <ele>814.2</ele>
        <time>2021-11-16 10:23:28</time>
      </trkpt>
      <trkpt lat="40.65509" lon="-3.7445">
        <ele>814.2</ele>
        <time>2021-11-16 10:23:29</time>
      </trkpt>
      <trkpt lat="40.65512" lon="-3.74457">
        <ele>814.2</ele>
        <time>2021-11-16 10:23:30</time>
      </trkpt>
      <trkpt lat="40.65516" lon="-3.74464">
        <ele>814.4</ele>
        <time>2021-11-16 10:23:31</time>
      </trkpt>
      <trkpt lat="40.6552" lon="-3.7447">
        <ele>814.6</ele>
        <time>2021-11-16 10:23:32</time>
      </trkpt>
      <trkpt lat="40.65524" lon="-3.74477">
        <ele>814.8</ele>
        <time>2021-11-16 10:23:33</time>
      </trkpt>
      <trkpt lat="40.65528" lon="-3.74484">
        <ele>815</ele>
        <time>2021-11-16 10:23:34</time>
      </trkpt>
      <trkpt lat="40.65531" lon="-3.7449">
        <ele>815.2</ele>
        <time>2021-11-16 10:23:35</time>
      </trkpt>
      <trkpt lat="40.65535" lon="-3.74497">
        <ele>815.4</ele>
        <time>2021-11-16 10:23:36</time>
      </trkpt>
      <trkpt lat="40.65538" lon="-3.74503">
        <ele>815.4</ele>
        <time>2021-11-16 10:23:37</time>
      </trkpt>
      <trkpt lat="40.65542" lon="-3.74509">
        <ele>815.8</ele>
        <time>2021-11-16 10:23:38</time>
      </trkpt>
      <trkpt lat="40.65546" lon="-3.74516">
        <ele>815.6</ele>
        <time>2021-11-16 10:23:39</time>
      </trkpt>
      <trkpt lat="40.65549" lon="-3.74522">
        <ele>815.8</ele>
        <time>2021-11-16 10:23:40</time>
      </trkpt>
      <trkpt lat="40.65553" lon="-3.74528">
        <ele>815.8</ele>
        <time>2021-11-16 10:23:41</time>
      </trkpt>
      <trkpt lat="40.65556" lon="-3.74534">
        <ele>815.8</ele>
        <time>2021-11-16 10:23:42</time>
      </trkpt>
      <trkpt lat="40.65559" lon="-3.7454">
        <ele>816.4</ele>
        <time>2021-11-16 10:23:43</time>
      </trkpt>
      <trkpt lat="40.65562" lon="-3.74546">
        <ele>816.4</ele>
        <time>2021-11-16 10:23:44</time>
      </trkpt>
      <trkpt lat="40.65566" lon="-3.74551">
        <ele>816.6</ele>
        <time>2021-11-16 10:23:45</time>
      </trkpt>
      <trkpt lat="40.65569" lon="-3.74556">
        <ele>816.6</ele>
        <time>2021-11-16 10:23:46</time>
      </trkpt>
      <trkpt lat="40.65572" lon="-3.74562">
        <ele>816.8</ele>
        <time>2021-11-16 10:23:47</time>
      </trkpt>
      <trkpt lat="40.65575" lon="-3.74567">
        <ele>816.8</ele>
        <time>2021-11-16 10:23:48</time>
      </trkpt>
      <trkpt lat="40.65578" lon="-3.74572">
        <ele>816.8</ele>
        <time>2021-11-16 10:23:49</time>
      </trkpt>
      <trkpt lat="40.65581" lon="-3.74577">
        <ele>817</ele>
        <time>2021-11-16 10:23:50</time>
      </trkpt>
      <trkpt lat="40.65584" lon="-3.74582">
        <ele>817.2</ele>
        <time>2021-11-16 10:23:51</time>
      </trkpt>
      <trkpt lat="40.65587" lon="-3.74587">
        <ele>817.2</ele>
        <time>2021-11-16 10:23:52</time>
      </trkpt>
      <trkpt lat="40.65589" lon="-3.74592">
        <ele>817.4</ele>
        <time>2021-11-16 10:23:53</time>
      </trkpt>
      <trkpt lat="40.65592" lon="-3.74597">
        <ele>817.6</ele>
        <time>2021-11-16 10:23:54</time>
      </trkpt>
      <trkpt lat="40.65595" lon="-3.74601">
        <ele>818</ele>
        <time>2021-11-16 10:23:55</time>
      </trkpt>
      <trkpt lat="40.65598" lon="-3.74606">
        <ele>818</ele>
        <time>2021-11-16 10:23:56</time>
      </trkpt>
      <trkpt lat="40.656" lon="-3.74611">
        <ele>818.2</ele>
        <time>2021-11-16 10:23:57</time>
      </trkpt>
      <trkpt lat="40.65603" lon="-3.74615">
        <ele>818.2</ele>
        <time>2021-11-16 10:23:58</time>
      </trkpt>
      <trkpt lat="40.65606" lon="-3.7462">
        <ele>818.6</ele>
        <time>2021-11-16 10:23:59</time>
      </trkpt>
      <trkpt lat="40.65609" lon="-3.74625">
        <ele>820</ele>
        <time>2021-11-16 10:24:00</time>
      </trkpt>
      <trkpt lat="40.65611" lon="-3.74629">
        <ele>821</ele>
        <time>2021-11-16 10:24:01</time>
      </trkpt>
      <trkpt lat="40.65614" lon="-3.74633">
        <ele>821.2</ele>
        <time>2021-11-16 10:24:02</time>
      </trkpt>
      <trkpt lat="40.65617" lon="-3.74638">
        <ele>821.6</ele>
        <time>2021-11-16 10:24:03</time>
      </trkpt>
      <trkpt lat="40.65619" lon="-3.74642">
        <ele>821.8</ele>
        <time>2021-11-16 10:24:04</time>
      </trkpt>
      <trkpt lat="40.65622" lon="-3.74647">
        <ele>822.4</ele>
        <time>2021-11-16 10:24:05</time>
      </trkpt>
      <trkpt lat="40.65624" lon="-3.74651">
        <ele>822.4</ele>
        <time>2021-11-16 10:24:06</time>
      </trkpt>
      <trkpt lat="40.65627" lon="-3.74655">
        <ele>823</ele>
        <time>2021-11-16 10:24:07</time>
      </trkpt>
      <trkpt lat="40.65629" lon="-3.74659">
        <ele>823.2</ele>
        <time>2021-11-16 10:24:08</time>
      </trkpt>
      <trkpt lat="40.65632" lon="-3.74663">
        <ele>823.6</ele>
        <time>2021-11-16 10:24:09</time>
      </trkpt>
      <trkpt lat="40.65634" lon="-3.74667">
        <ele>823.8</ele>
        <time>2021-11-16 10:24:10</time>
      </trkpt>
      <trkpt lat="40.65637" lon="-3.74671">
        <ele>823.8</ele>
        <time>2021-11-16 10:24:11</time>
      </trkpt>
      <trkpt lat="40.65639" lon="-3.74675">
        <ele>823.8</ele>
        <time>2021-11-16 10:24:12</time>
      </trkpt>
      <trkpt lat="40.65641" lon="-3.74679">
        <ele>824.4</ele>
        <time>2021-11-16 10:24:13</time>
      </trkpt>
      <trkpt lat="40.65643" lon="-3.74683">
        <ele>824.6</ele>
        <time>2021-11-16 10:24:14</time>
      </trkpt>
      <trkpt lat="40.65646" lon="-3.74687">
        <ele>825</ele>
        <time>2021-11-16 10:24:15</time>
      </trkpt>
      <trkpt lat="40.65648" lon="-3.74691">
        <ele>825.4</ele>
        <time>2021-11-16 10:24:16</time>
      </trkpt>
      <trkpt lat="40.65651" lon="-3.74695">
        <ele>825.8</ele>
        <time>2021-11-16 10:24:17</time>
      </trkpt>
      <trkpt lat="40.65653" lon="-3.74699">
        <ele>826.4</ele>
        <time>2021-11-16 10:24:18</time>
      </trkpt>
      <trkpt lat="40.65656" lon="-3.74703">
        <ele>827</ele>
        <time>2021-11-16 10:24:19</time>
      </trkpt>
      <trkpt lat="40.65658" lon="-3.74707">
        <ele>827.2</ele>
        <time>2021-11-16 10:24:20</time>
      </trkpt>
      <trkpt lat="40.65661" lon="-3.74711">
        <ele>827.4</ele>
        <time>2021-11-16 10:24:21</time>
      </trkpt>
      <trkpt lat="40.65663" lon="-3.74715">
        <ele>827.6</ele>
        <time>2021-11-16 10:24:22</time>
      </trkpt>
      <trkpt lat="40.65666" lon="-3.7472">
        <ele>827.6</ele>
        <time>2021-11-16 10:24:23</time>
      </trkpt>
      <trkpt lat="40.65669" lon="-3.74724">
        <ele>827.6</ele>
        <time>2021-11-16 10:24:24</time>
      </trkpt>
      <trkpt lat="40.65671" lon="-3.74729">
        <ele>827.8</ele>
        <time>2021-11-16 10:24:25</time>
      </trkpt>
      <trkpt lat="40.65675" lon="-3.74734">
        <ele>827.8</ele>
        <time>2021-11-16 10:24:26</time>
      </trkpt>
      <trkpt lat="40.65678" lon="-3.74739">
        <ele>827.8</ele>
        <time>2021-11-16 10:24:27</time>
      </trkpt>
      <trkpt lat="40.65681" lon="-3.74745">
        <ele>827.8</ele>
        <time>2021-11-16 10:24:28</time>
      </trkpt>
      <trkpt lat="40.65685" lon="-3.74751">
        <ele>828</ele>
        <time>2021-11-16 10:24:29</time>
      </trkpt>
      <trkpt lat="40.6569" lon="-3.74757">
        <ele>828</ele>
        <time>2021-11-16 10:24:30</time>
      </trkpt>
      <trkpt lat="40.65694" lon="-3.74764">
        <ele>827.8</ele>
        <time>2021-11-16 10:24:31</time>
      </trkpt>
      <trkpt lat="40.65698" lon="-3.74772">
        <ele>827.6</ele>
        <time>2021-11-16 10:24:32</time>
      </trkpt>
      <trkpt lat="40.65702" lon="-3.7478">
        <ele>827.6</ele>
        <time>2021-11-16 10:24:33</time>
      </trkpt>
      <trkpt lat="40.65706" lon="-3.74789">
        <ele>827.4</ele>
        <time>2021-11-16 10:24:34</time>
      </trkpt>
      <trkpt lat="40.6571" lon="-3.74798">
        <ele>827</ele>
        <time>2021-11-16 10:24:35</time>
      </trkpt>
      <trkpt lat="40.65713" lon="-3.74807">
        <ele>826.6</ele>
        <time>2021-11-16 10:24:36</time>
      </trkpt>
      <trkpt lat="40.65714" lon="-3.74817">
        <ele>825.6</ele>
        <time>2021-11-16 10:24:37</time>
      </trkpt>
      <trkpt lat="40.65715" lon="-3.74826">
        <ele>825.4</ele>
        <time>2021-11-16 10:24:38</time>
      </trkpt>
      <trkpt lat="40.65716" lon="-3.74835">
        <ele>825.2</ele>
        <time>2021-11-16 10:24:39</time>
      </trkpt>
      <trkpt lat="40.65717" lon="-3.74843">
        <ele>824.8</ele>
        <time>2021-11-16 10:24:40</time>
      </trkpt>
      <trkpt lat="40.65718" lon="-3.7485">
        <ele>825</ele>
        <time>2021-11-16 10:24:41</time>
      </trkpt>
      <trkpt lat="40.6572" lon="-3.74856">
        <ele>825</ele>
        <time>2021-11-16 10:24:42</time>
      </trkpt>
      <trkpt lat="40.65722" lon="-3.74862">
        <ele>824.8</ele>
        <time>2021-11-16 10:24:43</time>
      </trkpt>
      <trkpt lat="40.65726" lon="-3.74866">
        <ele>824.8</ele>
        <time>2021-11-16 10:24:44</time>
      </trkpt>
      <trkpt lat="40.6573" lon="-3.74869">
        <ele>824.8</ele>
        <time>2021-11-16 10:24:45</time>
      </trkpt>
      <trkpt lat="40.65735" lon="-3.7487">
        <ele>824.8</ele>
        <time>2021-11-16 10:24:46</time>
      </trkpt>
      <trkpt lat="40.6574" lon="-3.74871">
        <ele>824.8</ele>
        <time>2021-11-16 10:24:47</time>
      </trkpt>
      <trkpt lat="40.65745" lon="-3.74872">
        <ele>825</ele>
        <time>2021-11-16 10:24:48</time>
      </trkpt>
      <trkpt lat="40.6575" lon="-3.74873">
        <ele>824.8</ele>
        <time>2021-11-16 10:24:49</time>
      </trkpt>
      <trkpt lat="40.65755" lon="-3.74874">
        <ele>825.4</ele>
        <time>2021-11-16 10:24:50</time>
      </trkpt>
      <trkpt lat="40.6576" lon="-3.74874">
        <ele>826</ele>
        <time>2021-11-16 10:24:51</time>
      </trkpt>
      <trkpt lat="40.65765" lon="-3.74874">
        <ele>826.2</ele>
        <time>2021-11-16 10:24:52</time>
      </trkpt>
      <trkpt lat="40.65771" lon="-3.74875">
        <ele>826.4</ele>
        <time>2021-11-16 10:24:53</time>
      </trkpt>
      <trkpt lat="40.65777" lon="-3.74876">
        <ele>826.6</ele>
        <time>2021-11-16 10:24:54</time>
      </trkpt>
      <trkpt lat="40.65784" lon="-3.74877">
        <ele>826.6</ele>
        <time>2021-11-16 10:24:55</time>
      </trkpt>
      <trkpt lat="40.6579" lon="-3.74879">
        <ele>826.6</ele>
        <time>2021-11-16 10:24:56</time>
      </trkpt>
      <trkpt lat="40.65798" lon="-3.74882">
        <ele>826.6</ele>
        <time>2021-11-16 10:24:57</time>
      </trkpt>
      <trkpt lat="40.65806" lon="-3.74882">
        <ele>826.6</ele>
        <time>2021-11-16 10:24:58</time>
      </trkpt>
      <trkpt lat="40.65814" lon="-3.74881">
        <ele>826.6</ele>
        <time>2021-11-16 10:24:59</time>
      </trkpt>
      <trkpt lat="40.65823" lon="-3.7488">
        <ele>826.6</ele>
        <time>2021-11-16 10:25:00</time>
      </trkpt>
      <trkpt lat="40.6583" lon="-3.74878">
        <ele>826.6</ele>
        <time>2021-11-16 10:25:01</time>
      </trkpt>
      <trkpt lat="40.65838" lon="-3.74879">
        <ele>826.4</ele>
        <time>2021-11-16 10:25:02</time>
      </trkpt>
      <trkpt lat="40.65845" lon="-3.7488">
        <ele>826</ele>
        <time>2021-11-16 10:25:03</time>
      </trkpt>
      <trkpt lat="40.65851" lon="-3.74883">
        <ele>825.4</ele>
        <time>2021-11-16 10:25:04</time>
      </trkpt>
      <trkpt lat="40.65857" lon="-3.74887">
        <ele>824.2</ele>
        <time>2021-11-16 10:25:05</time>
      </trkpt>
      <trkpt lat="40.65863" lon="-3.74891">
        <ele>823.8</ele>
        <time>2021-11-16 10:25:06</time>
      </trkpt>
      <trkpt lat="40.6587" lon="-3.74895">
        <ele>823.4</ele>
        <time>2021-11-16 10:25:07</time>
      </trkpt>
      <trkpt lat="40.65876" lon="-3.74898">
        <ele>823.4</ele>
        <time>2021-11-16 10:25:08</time>
      </trkpt>
      <trkpt lat="40.65883" lon="-3.749">
        <ele>823.4</ele>
        <time>2021-11-16 10:25:09</time>
      </trkpt>
      <trkpt lat="40.65889" lon="-3.74901">
        <ele>823.2</ele>
        <time>2021-11-16 10:25:10</time>
      </trkpt>
      <trkpt lat="40.65896" lon="-3.74902">
        <ele>823.2</ele>
        <time>2021-11-16 10:25:11</time>
      </trkpt>
      <trkpt lat="40.65902" lon="-3.74904">
        <ele>823.2</ele>
        <time>2021-11-16 10:25:12</time>
      </trkpt>
      <trkpt lat="40.65909" lon="-3.74906">
        <ele>823.4</ele>
        <time>2021-11-16 10:25:13</time>
      </trkpt>
      <trkpt lat="40.65915" lon="-3.7491">
        <ele>823.2</ele>
        <time>2021-11-16 10:25:14</time>
      </trkpt>
      <trkpt lat="40.6592" lon="-3.74914">
        <ele>823.2</ele>
        <time>2021-11-16 10:25:15</time>
      </trkpt>
      <trkpt lat="40.65925" lon="-3.7492">
        <ele>823.4</ele>
        <time>2021-11-16 10:25:16</time>
      </trkpt>
      <trkpt lat="40.6593" lon="-3.74924">
        <ele>823.6</ele>
        <time>2021-11-16 10:25:17</time>
      </trkpt>
      <trkpt lat="40.65936" lon="-3.74929">
        <ele>823.6</ele>
        <time>2021-11-16 10:25:18</time>
      </trkpt>
      <trkpt lat="40.65941" lon="-3.74933">
        <ele>823.6</ele>
        <time>2021-11-16 10:25:19</time>
      </trkpt>
      <trkpt lat="40.65946" lon="-3.74936">
        <ele>824</ele>
        <time>2021-11-16 10:25:20</time>
      </trkpt>
      <trkpt lat="40.65951" lon="-3.74938">
        <ele>824.4</ele>
        <time>2021-11-16 10:25:21</time>
      </trkpt>
      <trkpt lat="40.65956" lon="-3.7494">
        <ele>824.8</ele>
        <time>2021-11-16 10:25:22</time>
      </trkpt>
      <trkpt lat="40.65961" lon="-3.74941">
        <ele>825</ele>
        <time>2021-11-16 10:25:23</time>
      </trkpt>
      <trkpt lat="40.65966" lon="-3.74942">
        <ele>825.4</ele>
        <time>2021-11-16 10:25:24</time>
      </trkpt>
      <trkpt lat="40.6597" lon="-3.74943">
        <ele>825.8</ele>
        <time>2021-11-16 10:25:25</time>
      </trkpt>
      <trkpt lat="40.65975" lon="-3.74943">
        <ele>826.2</ele>
        <time>2021-11-16 10:25:26</time>
      </trkpt>
      <trkpt lat="40.65979" lon="-3.74943">
        <ele>826.8</ele>
        <time>2021-11-16 10:25:27</time>
      </trkpt>
      <trkpt lat="40.65983" lon="-3.74943">
        <ele>826.8</ele>
        <time>2021-11-16 10:25:28</time>
      </trkpt>
      <trkpt lat="40.65986" lon="-3.74942">
        <ele>827</ele>
        <time>2021-11-16 10:25:29</time>
      </trkpt>
      <trkpt lat="40.6599" lon="-3.74942">
        <ele>827.2</ele>
        <time>2021-11-16 10:25:30</time>
      </trkpt>
      <trkpt lat="40.65994" lon="-3.74941">
        <ele>827.6</ele>
        <time>2021-11-16 10:25:31</time>
      </trkpt>
      <trkpt lat="40.65998" lon="-3.74941">
        <ele>828.4</ele>
        <time>2021-11-16 10:25:32</time>
      </trkpt>
      <trkpt lat="40.66001" lon="-3.74941">
        <ele>828.8</ele>
        <time>2021-11-16 10:25:33</time>
      </trkpt>
      <trkpt lat="40.66005" lon="-3.74941">
        <ele>829.2</ele>
        <time>2021-11-16 10:25:34</time>
      </trkpt>
      <trkpt lat="40.66009" lon="-3.74942">
        <ele>829.8</ele>
        <time>2021-11-16 10:25:35</time>
      </trkpt>
      <trkpt lat="40.66012" lon="-3.74942">
        <ele>830.6</ele>
        <time>2021-11-16 10:25:36</time>
      </trkpt>
      <trkpt lat="40.66016" lon="-3.74943">
        <ele>830.6</ele>
        <time>2021-11-16 10:25:37</time>
      </trkpt>
      <trkpt lat="40.66019" lon="-3.74944">
        <ele>831</ele>
        <time>2021-11-16 10:25:38</time>
      </trkpt>
      <trkpt lat="40.66023" lon="-3.74945">
        <ele>831.6</ele>
        <time>2021-11-16 10:25:39</time>
      </trkpt>
      <trkpt lat="40.66026" lon="-3.74947">
        <ele>831.8</ele>
        <time>2021-11-16 10:25:40</time>
      </trkpt>
      <trkpt lat="40.66029" lon="-3.74949">
        <ele>832</ele>
        <time>2021-11-16 10:25:41</time>
      </trkpt>
      <trkpt lat="40.66033" lon="-3.74951">
        <ele>832.2</ele>
        <time>2021-11-16 10:25:42</time>
      </trkpt>
      <trkpt lat="40.66036" lon="-3.74954">
        <ele>832.4</ele>
        <time>2021-11-16 10:25:43</time>
      </trkpt>
      <trkpt lat="40.66038" lon="-3.74956">
        <ele>832.6</ele>
        <time>2021-11-16 10:25:44</time>
      </trkpt>
      <trkpt lat="40.66041" lon="-3.74959">
        <ele>832.8</ele>
        <time>2021-11-16 10:25:45</time>
      </trkpt>
      <trkpt lat="40.66044" lon="-3.74962">
        <ele>833.2</ele>
        <time>2021-11-16 10:25:46</time>
      </trkpt>
      <trkpt lat="40.66047" lon="-3.74966">
        <ele>833.4</ele>
        <time>2021-11-16 10:25:47</time>
      </trkpt>
      <trkpt lat="40.6605" lon="-3.74969">
        <ele>833.6</ele>
        <time>2021-11-16 10:25:48</time>
      </trkpt>
      <trkpt lat="40.66052" lon="-3.74972">
        <ele>833.8</ele>
        <time>2021-11-16 10:25:49</time>
      </trkpt>
      <trkpt lat="40.66055" lon="-3.74976">
        <ele>833.8</ele>
        <time>2021-11-16 10:25:50</time>
      </trkpt>
      <trkpt lat="40.66058" lon="-3.74979">
        <ele>834.4</ele>
        <time>2021-11-16 10:25:51</time>
      </trkpt>
      <trkpt lat="40.66061" lon="-3.74983">
        <ele>834.6</ele>
        <time>2021-11-16 10:25:52</time>
      </trkpt>
      <trkpt lat="40.66065" lon="-3.74986">
        <ele>834.8</ele>
        <time>2021-11-16 10:25:53</time>
      </trkpt>
      <trkpt lat="40.66068" lon="-3.7499">
        <ele>835</ele>
        <time>2021-11-16 10:25:54</time>
      </trkpt>
      <trkpt lat="40.66071" lon="-3.74994">
        <ele>835</ele>
        <time>2021-11-16 10:25:55</time>
      </trkpt>
      <trkpt lat="40.66075" lon="-3.74998">
        <ele>835.2</ele>
        <time>2021-11-16 10:25:56</time>
      </trkpt>
      <trkpt lat="40.66078" lon="-3.75002">
        <ele>835.2</ele>
        <time>2021-11-16 10:25:57</time>
      </trkpt>
      <trkpt lat="40.66082" lon="-3.75006">
        <ele>835.2</ele>
        <time>2021-11-16 10:25:58</time>
      </trkpt>
      <trkpt lat="40.66085" lon="-3.7501">
        <ele>835.4</ele>
        <time>2021-11-16 10:25:59</time>
      </trkpt>
      <trkpt lat="40.66089" lon="-3.75014">
        <ele>835.4</ele>
        <time>2021-11-16 10:26:00</time>
      </trkpt>
      <trkpt lat="40.66092" lon="-3.75018">
        <ele>835.4</ele>
        <time>2021-11-16 10:26:01</time>
      </trkpt>
      <trkpt lat="40.66096" lon="-3.75022">
        <ele>835.6</ele>
        <time>2021-11-16 10:26:02</time>
      </trkpt>
      <trkpt lat="40.66099" lon="-3.75026">
        <ele>835.8</ele>
        <time>2021-11-16 10:26:03</time>
      </trkpt>
      <trkpt lat="40.66102" lon="-3.7503">
        <ele>835.8</ele>
        <time>2021-11-16 10:26:04</time>
      </trkpt>
      <trkpt lat="40.66105" lon="-3.75034">
        <ele>836.2</ele>
        <time>2021-11-16 10:26:05</time>
      </trkpt>
      <trkpt lat="40.66109" lon="-3.75038">
        <ele>836.2</ele>
        <time>2021-11-16 10:26:06</time>
      </trkpt>
      <trkpt lat="40.66112" lon="-3.75043">
        <ele>836.4</ele>
        <time>2021-11-16 10:26:07</time>
      </trkpt>
      <trkpt lat="40.66115" lon="-3.75047">
        <ele>836.4</ele>
        <time>2021-11-16 10:26:08</time>
      </trkpt>
      <trkpt lat="40.66117" lon="-3.75051">
        <ele>836.4</ele>
        <time>2021-11-16 10:26:09</time>
      </trkpt>
      <trkpt lat="40.6612" lon="-3.75056">
        <ele>836.6</ele>
        <time>2021-11-16 10:26:10</time>
      </trkpt>
      <trkpt lat="40.66122" lon="-3.7506">
        <ele>836.8</ele>
        <time>2021-11-16 10:26:11</time>
      </trkpt>
      <trkpt lat="40.66126" lon="-3.75063">
        <ele>837</ele>
        <time>2021-11-16 10:26:12</time>
      </trkpt>
      <trkpt lat="40.66129" lon="-3.75067">
        <ele>837</ele>
        <time>2021-11-16 10:26:13</time>
      </trkpt>
      <trkpt lat="40.66132" lon="-3.75069">
        <ele>837.2</ele>
        <time>2021-11-16 10:26:14</time>
      </trkpt>
      <trkpt lat="40.66135" lon="-3.75072">
        <ele>837.2</ele>
        <time>2021-11-16 10:26:15</time>
      </trkpt>
      <trkpt lat="40.66138" lon="-3.75075">
        <ele>837.6</ele>
        <time>2021-11-16 10:26:16</time>
      </trkpt>
      <trkpt lat="40.66141" lon="-3.75078">
        <ele>837.8</ele>
        <time>2021-11-16 10:26:17</time>
      </trkpt>
      <trkpt lat="40.66144" lon="-3.75081">
        <ele>838.2</ele>
        <time>2021-11-16 10:26:18</time>
      </trkpt>
      <trkpt lat="40.66147" lon="-3.75083">
        <ele>838.8</ele>
        <time>2021-11-16 10:26:19</time>
      </trkpt>
      <trkpt lat="40.6615" lon="-3.75086">
        <ele>839.4</ele>
        <time>2021-11-16 10:26:20</time>
      </trkpt>
      <trkpt lat="40.66152" lon="-3.75089">
        <ele>839.4</ele>
        <time>2021-11-16 10:26:21</time>
      </trkpt>
      <trkpt lat="40.66155" lon="-3.75092">
        <ele>839.8</ele>
        <time>2021-11-16 10:26:22</time>
      </trkpt>
      <trkpt lat="40.66158" lon="-3.75094">
        <ele>839.8</ele>
        <time>2021-11-16 10:26:23</time>
      </trkpt>
      <trkpt lat="40.66161" lon="-3.75097">
        <ele>840</ele>
        <time>2021-11-16 10:26:24</time>
      </trkpt>
      <trkpt lat="40.66164" lon="-3.751">
        <ele>840</ele>
        <time>2021-11-16 10:26:25</time>
      </trkpt>
      <trkpt lat="40.66167" lon="-3.75102">
        <ele>840</ele>
        <time>2021-11-16 10:26:26</time>
      </trkpt>
      <trkpt lat="40.6617" lon="-3.75105">
        <ele>840.6</ele>
        <time>2021-11-16 10:26:27</time>
      </trkpt>
      <trkpt lat="40.66173" lon="-3.75108">
        <ele>840.8</ele>
        <time>2021-11-16 10:26:28</time>
      </trkpt>
      <trkpt lat="40.66176" lon="-3.75111">
        <ele>841.2</ele>
        <time>2021-11-16 10:26:29</time>
      </trkpt>
      <trkpt lat="40.6618" lon="-3.75114">
        <ele>841.6</ele>
        <time>2021-11-16 10:26:30</time>
      </trkpt>
      <trkpt lat="40.66183" lon="-3.75116">
        <ele>841.6</ele>
        <time>2021-11-16 10:26:31</time>
      </trkpt>
      <trkpt lat="40.66186" lon="-3.75118">
        <ele>841.6</ele>
        <time>2021-11-16 10:26:32</time>
      </trkpt>
      <trkpt lat="40.6619" lon="-3.75121">
        <ele>841.8</ele>
        <time>2021-11-16 10:26:33</time>
      </trkpt>
      <trkpt lat="40.66193" lon="-3.75124">
        <ele>842</ele>
        <time>2021-11-16 10:26:34</time>
      </trkpt>
      <trkpt lat="40.66197" lon="-3.75127">
        <ele>842.2</ele>
        <time>2021-11-16 10:26:35</time>
      </trkpt>
      <trkpt lat="40.662" lon="-3.7513">
        <ele>842.4</ele>
        <time>2021-11-16 10:26:36</time>
      </trkpt>
      <trkpt lat="40.66204" lon="-3.75132">
        <ele>842.8</ele>
        <time>2021-11-16 10:26:37</time>
      </trkpt>
      <trkpt lat="40.66207" lon="-3.75135">
        <ele>842.8</ele>
        <time>2021-11-16 10:26:38</time>
      </trkpt>
      <trkpt lat="40.66211" lon="-3.75138">
        <ele>842.8</ele>
        <time>2021-11-16 10:26:39</time>
      </trkpt>
      <trkpt lat="40.66215" lon="-3.75142">
        <ele>843</ele>
        <time>2021-11-16 10:26:40</time>
      </trkpt>
      <trkpt lat="40.66218" lon="-3.75145">
        <ele>843.2</ele>
        <time>2021-11-16 10:26:41</time>
      </trkpt>
      <trkpt lat="40.66222" lon="-3.75147">
        <ele>843.4</ele>
        <time>2021-11-16 10:26:42</time>
      </trkpt>
      <trkpt lat="40.66226" lon="-3.7515">
        <ele>843.6</ele>
        <time>2021-11-16 10:26:43</time>
      </trkpt>
      <trkpt lat="40.6623" lon="-3.75153">
        <ele>843.6</ele>
        <time>2021-11-16 10:26:44</time>
      </trkpt>
      <trkpt lat="40.66234" lon="-3.75156">
        <ele>843.8</ele>
        <time>2021-11-16 10:26:45</time>
      </trkpt>
      <trkpt lat="40.66238" lon="-3.7516">
        <ele>843.6</ele>
        <time>2021-11-16 10:26:46</time>
      </trkpt>
      <trkpt lat="40.66241" lon="-3.75163">
        <ele>843.8</ele>
        <time>2021-11-16 10:26:47</time>
      </trkpt>
      <trkpt lat="40.66245" lon="-3.75166">
        <ele>844</ele>
        <time>2021-11-16 10:26:48</time>
      </trkpt>
      <trkpt lat="40.66249" lon="-3.75169">
        <ele>844</ele>
        <time>2021-11-16 10:26:49</time>
      </trkpt>
      <trkpt lat="40.66254" lon="-3.75172">
        <ele>844.2</ele>
        <time>2021-11-16 10:26:50</time>
      </trkpt>
      <trkpt lat="40.66258" lon="-3.75175">
        <ele>844.2</ele>
        <time>2021-11-16 10:26:51</time>
      </trkpt>
      <trkpt lat="40.66262" lon="-3.75178">
        <ele>844.4</ele>
        <time>2021-11-16 10:26:52</time>
      </trkpt>
      <trkpt lat="40.66266" lon="-3.75181">
        <ele>844.4</ele>
        <time>2021-11-16 10:26:53</time>
      </trkpt>
      <trkpt lat="40.6627" lon="-3.75185">
        <ele>844.4</ele>
        <time>2021-11-16 10:26:54</time>
      </trkpt>
      <trkpt lat="40.66274" lon="-3.75188">
        <ele>844.6</ele>
        <time>2021-11-16 10:26:55</time>
      </trkpt>
      <trkpt lat="40.66278" lon="-3.75191">
        <ele>844.8</ele>
        <time>2021-11-16 10:26:56</time>
      </trkpt>
      <trkpt lat="40.66282" lon="-3.75194">
        <ele>844.6</ele>
        <time>2021-11-16 10:26:57</time>
      </trkpt>
      <trkpt lat="40.66286" lon="-3.75197">
        <ele>844.8</ele>
        <time>2021-11-16 10:26:58</time>
      </trkpt>
      <trkpt lat="40.6629" lon="-3.75201">
        <ele>845.2</ele>
        <time>2021-11-16 10:26:59</time>
      </trkpt>
      <trkpt lat="40.66293" lon="-3.75204">
        <ele>845.2</ele>
        <time>2021-11-16 10:27:00</time>
      </trkpt>
      <trkpt lat="40.66297" lon="-3.75207">
        <ele>845.4</ele>
        <time>2021-11-16 10:27:01</time>
      </trkpt>
      <trkpt lat="40.66301" lon="-3.7521">
        <ele>845.6</ele>
        <time>2021-11-16 10:27:02</time>
      </trkpt>
      <trkpt lat="40.66305" lon="-3.75214">
        <ele>845.8</ele>
        <time>2021-11-16 10:27:03</time>
      </trkpt>
      <trkpt lat="40.66309" lon="-3.75217">
        <ele>846</ele>
        <time>2021-11-16 10:27:04</time>
      </trkpt>
      <trkpt lat="40.66313" lon="-3.75221">
        <ele>846</ele>
        <time>2021-11-16 10:27:05</time>
      </trkpt>
      <trkpt lat="40.66316" lon="-3.75225">
        <ele>846</ele>
        <time>2021-11-16 10:27:06</time>
      </trkpt>
      <trkpt lat="40.6632" lon="-3.75228">
        <ele>846.2</ele>
        <time>2021-11-16 10:27:07</time>
      </trkpt>
      <trkpt lat="40.66324" lon="-3.75232">
        <ele>846.6</ele>
        <time>2021-11-16 10:27:08</time>
      </trkpt>
      <trkpt lat="40.66328" lon="-3.75235">
        <ele>846.6</ele>
        <time>2021-11-16 10:27:09</time>
      </trkpt>
      <trkpt lat="40.66332" lon="-3.75239">
        <ele>846.6</ele>
        <time>2021-11-16 10:27:10</time>
      </trkpt>
      <trkpt lat="40.66336" lon="-3.75243">
        <ele>846.8</ele>
        <time>2021-11-16 10:27:11</time>
      </trkpt>
      <trkpt lat="40.6634" lon="-3.75246">
        <ele>846.8</ele>
        <time>2021-11-16 10:27:12</time>
      </trkpt>
      <trkpt lat="40.66344" lon="-3.7525">
        <ele>846.8</ele>
        <time>2021-11-16 10:27:13</time>
      </trkpt>
      <trkpt lat="40.66348" lon="-3.75254">
        <ele>847</ele>
        <time>2021-11-16 10:27:14</time>
      </trkpt>
      <trkpt lat="40.66352" lon="-3.75258">
        <ele>847</ele>
        <time>2021-11-16 10:27:15</time>
      </trkpt>
      <trkpt lat="40.66356" lon="-3.75262">
        <ele>847.2</ele>
        <time>2021-11-16 10:27:16</time>
      </trkpt>
      <trkpt lat="40.6636" lon="-3.75266">
        <ele>847</ele>
        <time>2021-11-16 10:27:17</time>
      </trkpt>
      <trkpt lat="40.66364" lon="-3.7527">
        <ele>847</ele>
        <time>2021-11-16 10:27:18</time>
      </trkpt>
      <trkpt lat="40.66368" lon="-3.75274">
        <ele>847.2</ele>
        <time>2021-11-16 10:27:19</time>
      </trkpt>
      <trkpt lat="40.66372" lon="-3.75278">
        <ele>847</ele>
        <time>2021-11-16 10:27:20</time>
      </trkpt>
      <trkpt lat="40.66376" lon="-3.75282">
        <ele>847.2</ele>
        <time>2021-11-16 10:27:21</time>
      </trkpt>
      <trkpt lat="40.66379" lon="-3.75286">
        <ele>847.4</ele>
        <time>2021-11-16 10:27:22</time>
      </trkpt>
      <trkpt lat="40.66383" lon="-3.75291">
        <ele>847.4</ele>
        <time>2021-11-16 10:27:23</time>
      </trkpt>
      <trkpt lat="40.66387" lon="-3.75296">
        <ele>847.8</ele>
        <time>2021-11-16 10:27:24</time>
      </trkpt>
      <trkpt lat="40.6639" lon="-3.75301">
        <ele>848</ele>
        <time>2021-11-16 10:27:25</time>
      </trkpt>
      <trkpt lat="40.66393" lon="-3.75306">
        <ele>848.2</ele>
        <time>2021-11-16 10:27:26</time>
      </trkpt>
      <trkpt lat="40.66396" lon="-3.75312">
        <ele>848.2</ele>
        <time>2021-11-16 10:27:27</time>
      </trkpt>
      <trkpt lat="40.66398" lon="-3.75318">
        <ele>848.2</ele>
        <time>2021-11-16 10:27:28</time>
      </trkpt>
      <trkpt lat="40.664" lon="-3.75325">
        <ele>848.2</ele>
        <time>2021-11-16 10:27:29</time>
      </trkpt>
      <trkpt lat="40.66402" lon="-3.75332">
        <ele>848.2</ele>
        <time>2021-11-16 10:27:30</time>
      </trkpt>
      <trkpt lat="40.66404" lon="-3.7534">
        <ele>848.6</ele>
        <time>2021-11-16 10:27:31</time>
      </trkpt>
      <trkpt lat="40.66405" lon="-3.75347">
        <ele>848.4</ele>
        <time>2021-11-16 10:27:32</time>
      </trkpt>
      <trkpt lat="40.66405" lon="-3.75354">
        <ele>848.4</ele>
        <time>2021-11-16 10:27:33</time>
      </trkpt>
      <trkpt lat="40.66405" lon="-3.75362">
        <ele>848.6</ele>
        <time>2021-11-16 10:27:34</time>
      </trkpt>
      <trkpt lat="40.66405" lon="-3.75369">
        <ele>848.6</ele>
        <time>2021-11-16 10:27:35</time>
      </trkpt>
      <trkpt lat="40.66405" lon="-3.75377">
        <ele>848.6</ele>
        <time>2021-11-16 10:27:36</time>
      </trkpt>
      <trkpt lat="40.66405" lon="-3.75385">
        <ele>848.6</ele>
        <time>2021-11-16 10:27:37</time>
      </trkpt>
      <trkpt lat="40.66405" lon="-3.75393">
        <ele>848.6</ele>
        <time>2021-11-16 10:27:38</time>
      </trkpt>
      <trkpt lat="40.66405" lon="-3.75401">
        <ele>848.8</ele>
        <time>2021-11-16 10:27:39</time>
      </trkpt>
      <trkpt lat="40.66405" lon="-3.75409">
        <ele>848.8</ele>
        <time>2021-11-16 10:27:40</time>
      </trkpt>
      <trkpt lat="40.66405" lon="-3.75417">
        <ele>848.8</ele>
        <time>2021-11-16 10:27:41</time>
      </trkpt>
      <trkpt lat="40.66406" lon="-3.75425">
        <ele>848.8</ele>
        <time>2021-11-16 10:27:42</time>
      </trkpt>
      <trkpt lat="40.66408" lon="-3.75432">
        <ele>848.8</ele>
        <time>2021-11-16 10:27:43</time>
      </trkpt>
      <trkpt lat="40.66411" lon="-3.75439">
        <ele>848.6</ele>
        <time>2021-11-16 10:27:44</time>
      </trkpt>
      <trkpt lat="40.66414" lon="-3.75445">
        <ele>848.6</ele>
        <time>2021-11-16 10:27:45</time>
      </trkpt>
      <trkpt lat="40.66419" lon="-3.7545">
        <ele>848.4</ele>
        <time>2021-11-16 10:27:46</time>
      </trkpt>
      <trkpt lat="40.66423" lon="-3.75454">
        <ele>848.4</ele>
        <time>2021-11-16 10:27:47</time>
      </trkpt>
      <trkpt lat="40.66428" lon="-3.75458">
        <ele>848.4</ele>
        <time>2021-11-16 10:27:48</time>
      </trkpt>
      <trkpt lat="40.66433" lon="-3.7546">
        <ele>848.4</ele>
        <time>2021-11-16 10:27:49</time>
      </trkpt>
      <trkpt lat="40.66439" lon="-3.75459">
        <ele>848.4</ele>
        <time>2021-11-16 10:27:50</time>
      </trkpt>
      <trkpt lat="40.66445" lon="-3.75457">
        <ele>848.2</ele>
        <time>2021-11-16 10:27:51</time>
      </trkpt>
      <trkpt lat="40.66451" lon="-3.75454">
        <ele>848.2</ele>
        <time>2021-11-16 10:27:52</time>
      </trkpt>
      <trkpt lat="40.66457" lon="-3.75451">
        <ele>848.2</ele>
        <time>2021-11-16 10:27:53</time>
      </trkpt>
      <trkpt lat="40.66462" lon="-3.75448">
        <ele>848.2</ele>
        <time>2021-11-16 10:27:54</time>
      </trkpt>
      <trkpt lat="40.66467" lon="-3.75444">
        <ele>848.2</ele>
        <time>2021-11-16 10:27:55</time>
      </trkpt>
      <trkpt lat="40.66471" lon="-3.75441">
        <ele>848.2</ele>
        <time>2021-11-16 10:27:56</time>
      </trkpt>
      <trkpt lat="40.66476" lon="-3.75437">
        <ele>848.2</ele>
        <time>2021-11-16 10:27:57</time>
      </trkpt>
      <trkpt lat="40.6648" lon="-3.75434">
        <ele>848.2</ele>
        <time>2021-11-16 10:27:58</time>
      </trkpt>
      <trkpt lat="40.66484" lon="-3.7543">
        <ele>848.2</ele>
        <time>2021-11-16 10:27:59</time>
      </trkpt>
      <trkpt lat="40.66488" lon="-3.75427">
        <ele>848.4</ele>
        <time>2021-11-16 10:28:00</time>
      </trkpt>
      <trkpt lat="40.66493" lon="-3.75425">
        <ele>848.6</ele>
        <time>2021-11-16 10:28:01</time>
      </trkpt>
      <trkpt lat="40.66497" lon="-3.75422">
        <ele>848.6</ele>
        <time>2021-11-16 10:28:02</time>
      </trkpt>
      <trkpt lat="40.66501" lon="-3.75421">
        <ele>848.6</ele>
        <time>2021-11-16 10:28:03</time>
      </trkpt>
      <trkpt lat="40.66506" lon="-3.75419">
        <ele>848.8</ele>
        <time>2021-11-16 10:28:04</time>
      </trkpt>
      <trkpt lat="40.66511" lon="-3.75418">
        <ele>849.2</ele>
        <time>2021-11-16 10:28:05</time>
      </trkpt>
      <trkpt lat="40.66516" lon="-3.75417">
        <ele>849.6</ele>
        <time>2021-11-16 10:28:06</time>
      </trkpt>
      <trkpt lat="40.66521" lon="-3.75417">
        <ele>850</ele>
        <time>2021-11-16 10:28:07</time>
      </trkpt>
      <trkpt lat="40.66525" lon="-3.75418">
        <ele>850.2</ele>
        <time>2021-11-16 10:28:08</time>
      </trkpt>
      <trkpt lat="40.6653" lon="-3.75419">
        <ele>851</ele>
        <time>2021-11-16 10:28:09</time>
      </trkpt>
      <trkpt lat="40.66535" lon="-3.7542">
        <ele>851.8</ele>
        <time>2021-11-16 10:28:10</time>
      </trkpt>
      <trkpt lat="40.6654" lon="-3.75421">
        <ele>852.2</ele>
        <time>2021-11-16 10:28:11</time>
      </trkpt>
      <trkpt lat="40.66545" lon="-3.75423">
        <ele>852.6</ele>
        <time>2021-11-16 10:28:12</time>
      </trkpt>
      <trkpt lat="40.6655" lon="-3.75424">
        <ele>852.8</ele>
        <time>2021-11-16 10:28:13</time>
      </trkpt>
      <trkpt lat="40.66555" lon="-3.75427">
        <ele>853.4</ele>
        <time>2021-11-16 10:28:14</time>
      </trkpt>
      <trkpt lat="40.6656" lon="-3.75429">
        <ele>853.8</ele>
        <time>2021-11-16 10:28:15</time>
      </trkpt>
      <trkpt lat="40.66565" lon="-3.75431">
        <ele>854</ele>
        <time>2021-11-16 10:28:16</time>
      </trkpt>
      <trkpt lat="40.6657" lon="-3.75434">
        <ele>854</ele>
        <time>2021-11-16 10:28:17</time>
      </trkpt>
      <trkpt lat="40.66576" lon="-3.75437">
        <ele>854.2</ele>
        <time>2021-11-16 10:28:18</time>
      </trkpt>
      <trkpt lat="40.66581" lon="-3.75439">
        <ele>854.4</ele>
        <time>2021-11-16 10:28:19</time>
      </trkpt>
      <trkpt lat="40.66586" lon="-3.75442">
        <ele>854.4</ele>
        <time>2021-11-16 10:28:20</time>
      </trkpt>
      <trkpt lat="40.66591" lon="-3.75444">
        <ele>854.4</ele>
        <time>2021-11-16 10:28:21</time>
      </trkpt>
      <trkpt lat="40.66597" lon="-3.75447">
        <ele>854.4</ele>
        <time>2021-11-16 10:28:22</time>
      </trkpt>
      <trkpt lat="40.66602" lon="-3.7545">
        <ele>854.4</ele>
        <time>2021-11-16 10:28:23</time>
      </trkpt>
      <trkpt lat="40.66607" lon="-3.75453">
        <ele>854.4</ele>
        <time>2021-11-16 10:28:24</time>
      </trkpt>
      <trkpt lat="40.66612" lon="-3.75456">
        <ele>854.4</ele>
        <time>2021-11-16 10:28:25</time>
      </trkpt>
      <trkpt lat="40.66617" lon="-3.75459">
        <ele>854.4</ele>
        <time>2021-11-16 10:28:26</time>
      </trkpt>
      <trkpt lat="40.66622" lon="-3.75462">
        <ele>854.8</ele>
        <time>2021-11-16 10:28:27</time>
      </trkpt>
      <trkpt lat="40.66626" lon="-3.75465">
        <ele>854.8</ele>
        <time>2021-11-16 10:28:28</time>
      </trkpt>
      <trkpt lat="40.66631" lon="-3.75468">
        <ele>855</ele>
        <time>2021-11-16 10:28:29</time>
      </trkpt>
      <trkpt lat="40.66636" lon="-3.75471">
        <ele>855</ele>
        <time>2021-11-16 10:28:30</time>
      </trkpt>
      <trkpt lat="40.6664" lon="-3.75474">
        <ele>855</ele>
        <time>2021-11-16 10:28:31</time>
      </trkpt>
      <trkpt lat="40.66645" lon="-3.75478">
        <ele>855.2</ele>
        <time>2021-11-16 10:28:32</time>
      </trkpt>
      <trkpt lat="40.66649" lon="-3.75481">
        <ele>855.2</ele>
        <time>2021-11-16 10:28:33</time>
      </trkpt>
      <trkpt lat="40.66653" lon="-3.75484">
        <ele>855.2</ele>
        <time>2021-11-16 10:28:34</time>
      </trkpt>
      <trkpt lat="40.66658" lon="-3.75487">
        <ele>855.6</ele>
        <time>2021-11-16 10:28:35</time>
      </trkpt>
      <trkpt lat="40.66662" lon="-3.7549">
        <ele>855.8</ele>
        <time>2021-11-16 10:28:36</time>
      </trkpt>
      <trkpt lat="40.66667" lon="-3.75493">
        <ele>856</ele>
        <time>2021-11-16 10:28:37</time>
      </trkpt>
      <trkpt lat="40.66671" lon="-3.75497">
        <ele>856.2</ele>
        <time>2021-11-16 10:28:38</time>
      </trkpt>
      <trkpt lat="40.66675" lon="-3.755">
        <ele>856.6</ele>
        <time>2021-11-16 10:28:39</time>
      </trkpt>
      <trkpt lat="40.66679" lon="-3.75503">
        <ele>856.8</ele>
        <time>2021-11-16 10:28:40</time>
      </trkpt>
      <trkpt lat="40.66683" lon="-3.75506">
        <ele>857.2</ele>
        <time>2021-11-16 10:28:41</time>
      </trkpt>
      <trkpt lat="40.66687" lon="-3.75509">
        <ele>857.2</ele>
        <time>2021-11-16 10:28:42</time>
      </trkpt>
      <trkpt lat="40.66691" lon="-3.75512">
        <ele>857.6</ele>
        <time>2021-11-16 10:28:43</time>
      </trkpt>
      <trkpt lat="40.66695" lon="-3.75514">
        <ele>858</ele>
        <time>2021-11-16 10:28:44</time>
      </trkpt>
      <trkpt lat="40.667" lon="-3.75517">
        <ele>858</ele>
        <time>2021-11-16 10:28:45</time>
      </trkpt>
      <trkpt lat="40.66704" lon="-3.7552">
        <ele>858.2</ele>
        <time>2021-11-16 10:28:46</time>
      </trkpt>
      <trkpt lat="40.66708" lon="-3.75523">
        <ele>858.2</ele>
        <time>2021-11-16 10:28:47</time>
      </trkpt>
      <trkpt lat="40.66712" lon="-3.75526">
        <ele>858.6</ele>
        <time>2021-11-16 10:28:48</time>
      </trkpt>
      <trkpt lat="40.66716" lon="-3.75528">
        <ele>858.8</ele>
        <time>2021-11-16 10:28:49</time>
      </trkpt>
      <trkpt lat="40.6672" lon="-3.75531">
        <ele>859</ele>
        <time>2021-11-16 10:28:50</time>
      </trkpt>
      <trkpt lat="40.66724" lon="-3.75534">
        <ele>859.2</ele>
        <time>2021-11-16 10:28:51</time>
      </trkpt>
      <trkpt lat="40.66728" lon="-3.75536">
        <ele>859.2</ele>
        <time>2021-11-16 10:28:52</time>
      </trkpt>
      <trkpt lat="40.66732" lon="-3.75539">
        <ele>859.6</ele>
        <time>2021-11-16 10:28:53</time>
      </trkpt>
      <trkpt lat="40.66736" lon="-3.75542">
        <ele>860</ele>
        <time>2021-11-16 10:28:54</time>
      </trkpt>
      <trkpt lat="40.67101" lon="-3.75794">
        <ele>883</ele>
        <time>2021-11-16 10:32:01</time>
      </trkpt>
      <trkpt lat="40.67106" lon="-3.75797">
        <ele>882.8</ele>
        <time>2021-11-16 10:32:02</time>
      </trkpt>
      <trkpt lat="40.6711" lon="-3.75801">
        <ele>882.8</ele>
        <time>2021-11-16 10:32:03</time>
      </trkpt>
      <trkpt lat="40.67115" lon="-3.75804">
        <ele>882.6</ele>
        <time>2021-11-16 10:32:04</time>
      </trkpt>
      <trkpt lat="40.6712" lon="-3.75808">
        <ele>882.6</ele>
        <time>2021-11-16 10:32:05</time>
      </trkpt>
      <trkpt lat="40.67124" lon="-3.75812">
        <ele>882.6</ele>
        <time>2021-11-16 10:32:06</time>
      </trkpt>
      <trkpt lat="40.67129" lon="-3.75816">
        <ele>882.4</ele>
        <time>2021-11-16 10:32:07</time>
      </trkpt>
      <trkpt lat="40.67134" lon="-3.7582">
        <ele>882.4</ele>
        <time>2021-11-16 10:32:08</time>
      </trkpt>
      <trkpt lat="40.67139" lon="-3.75823">
        <ele>882.4</ele>
        <time>2021-11-16 10:32:09</time>
      </trkpt>
      <trkpt lat="40.67144" lon="-3.75827">
        <ele>882</ele>
        <time>2021-11-16 10:32:10</time>
      </trkpt>
      <trkpt lat="40.67149" lon="-3.75831">
        <ele>881.6</ele>
        <time>2021-11-16 10:32:11</time>
      </trkpt>
      <trkpt lat="40.67154" lon="-3.75834">
        <ele>881.4</ele>
        <time>2021-11-16 10:32:12</time>
      </trkpt>
      <trkpt lat="40.67157" lon="-3.75836">
        <ele>881.4</ele>
        <time>2021-11-16 10:32:13</time>
      </trkpt>
      <trkpt lat="40.67159" lon="-3.75838">
        <ele>881.4</ele>
        <time>2021-11-16 10:32:14</time>
      </trkpt>
      <trkpt lat="40.67163" lon="-3.7584">
        <ele>881.6</ele>
        <time>2021-11-16 10:32:26</time>
      </trkpt>
      <trkpt lat="40.67165" lon="-3.75842">
        <ele>881.8</ele>
        <time>2021-11-16 10:32:27</time>
      </trkpt>
      <trkpt lat="40.67167" lon="-3.75844">
        <ele>881.8</ele>
        <time>2021-11-16 10:32:28</time>
      </trkpt>
      <trkpt lat="40.6717" lon="-3.75846">
        <ele>881.6</ele>
        <time>2021-11-16 10:32:29</time>
      </trkpt>
      <trkpt lat="40.67174" lon="-3.75849">
        <ele>881.6</ele>
        <time>2021-11-16 10:32:30</time>
      </trkpt>
      <trkpt lat="40.67178" lon="-3.75853">
        <ele>881.6</ele>
        <time>2021-11-16 10:32:31</time>
      </trkpt>
      <trkpt lat="40.67182" lon="-3.75856">
        <ele>881.8</ele>
        <time>2021-11-16 10:32:32</time>
      </trkpt>
      <trkpt lat="40.67186" lon="-3.7586">
        <ele>881.8</ele>
        <time>2021-11-16 10:32:33</time>
      </trkpt>
      <trkpt lat="40.67191" lon="-3.75863">
        <ele>881.8</ele>
        <time>2021-11-16 10:32:34</time>
      </trkpt>
      <trkpt lat="40.67196" lon="-3.75867">
        <ele>881.6</ele>
        <time>2021-11-16 10:32:35</time>
      </trkpt>
      <trkpt lat="40.67201" lon="-3.75871">
        <ele>881.6</ele>
        <time>2021-11-16 10:32:36</time>
      </trkpt>
      <trkpt lat="40.67206" lon="-3.75875">
        <ele>881.2</ele>
        <time>2021-11-16 10:32:37</time>
      </trkpt>
      <trkpt lat="40.67211" lon="-3.75878">
        <ele>881.2</ele>
        <time>2021-11-16 10:32:38</time>
      </trkpt>
      <trkpt lat="40.67216" lon="-3.75882">
        <ele>881</ele>
        <time>2021-11-16 10:32:39</time>
      </trkpt>
      <trkpt lat="40.67221" lon="-3.75886">
        <ele>881</ele>
        <time>2021-11-16 10:32:40</time>
      </trkpt>
      <trkpt lat="40.67226" lon="-3.7589">
        <ele>881</ele>
        <time>2021-11-16 10:32:41</time>
      </trkpt>
      <trkpt lat="40.67231" lon="-3.75894">
        <ele>880.8</ele>
        <time>2021-11-16 10:32:42</time>
      </trkpt>
      <trkpt lat="40.67236" lon="-3.75898">
        <ele>880.8</ele>
        <time>2021-11-16 10:32:43</time>
      </trkpt>
      <trkpt lat="40.67241" lon="-3.75902">
        <ele>880.8</ele>
        <time>2021-11-16 10:32:44</time>
      </trkpt>
      <trkpt lat="40.67246" lon="-3.75906">
        <ele>881</ele>
        <time>2021-11-16 10:32:45</time>
      </trkpt>
      <trkpt lat="40.67252" lon="-3.7591">
        <ele>881</ele>
        <time>2021-11-16 10:32:46</time>
      </trkpt>
      <trkpt lat="40.67257" lon="-3.75913">
        <ele>880.6</ele>
        <time>2021-11-16 10:32:47</time>
      </trkpt>
      <trkpt lat="40.67262" lon="-3.75917">
        <ele>880.6</ele>
        <time>2021-11-16 10:32:48</time>
      </trkpt>
      <trkpt lat="40.67267" lon="-3.75921">
        <ele>880.6</ele>
        <time>2021-11-16 10:32:49</time>
      </trkpt>
      <trkpt lat="40.67272" lon="-3.75925">
        <ele>880.6</ele>
        <time>2021-11-16 10:32:50</time>
      </trkpt>
      <trkpt lat="40.67277" lon="-3.75929">
        <ele>880.6</ele>
        <time>2021-11-16 10:32:51</time>
      </trkpt>
      <trkpt lat="40.67283" lon="-3.75934">
        <ele>880.6</ele>
        <time>2021-11-16 10:32:52</time>
      </trkpt>
      <trkpt lat="40.67288" lon="-3.75938">
        <ele>880.6</ele>
        <time>2021-11-16 10:32:53</time>
      </trkpt>
      <trkpt lat="40.67294" lon="-3.75942">
        <ele>880.4</ele>
        <time>2021-11-16 10:32:54</time>
      </trkpt>
      <trkpt lat="40.673" lon="-3.75947">
        <ele>880.4</ele>
        <time>2021-11-16 10:32:55</time>
      </trkpt>
      <trkpt lat="40.67306" lon="-3.75952">
        <ele>880.2</ele>
        <time>2021-11-16 10:32:56</time>
      </trkpt>
      <trkpt lat="40.67312" lon="-3.75956">
        <ele>880.4</ele>
        <time>2021-11-16 10:32:57</time>
      </trkpt>
      <trkpt lat="40.67319" lon="-3.75961">
        <ele>880.4</ele>
        <time>2021-11-16 10:32:58</time>
      </trkpt>
      <trkpt lat="40.67325" lon="-3.75965">
        <ele>880.2</ele>
        <time>2021-11-16 10:32:59</time>
      </trkpt>
      <trkpt lat="40.67331" lon="-3.7597">
        <ele>880</ele>
        <time>2021-11-16 10:33:00</time>
      </trkpt>
      <trkpt lat="40.67336" lon="-3.75974">
        <ele>879.8</ele>
        <time>2021-11-16 10:33:01</time>
      </trkpt>
      <trkpt lat="40.67342" lon="-3.75978">
        <ele>879.8</ele>
        <time>2021-11-16 10:33:02</time>
      </trkpt>
      <trkpt lat="40.67348" lon="-3.75983">
        <ele>879.4</ele>
        <time>2021-11-16 10:33:03</time>
      </trkpt>
      <trkpt lat="40.67353" lon="-3.75988">
        <ele>879.4</ele>
        <time>2021-11-16 10:33:04</time>
      </trkpt>
      <trkpt lat="40.67358" lon="-3.75992">
        <ele>879.2</ele>
        <time>2021-11-16 10:33:05</time>
      </trkpt>
      <trkpt lat="40.67364" lon="-3.75996">
        <ele>879.2</ele>
        <time>2021-11-16 10:33:06</time>
      </trkpt>
      <trkpt lat="40.67369" lon="-3.76">
        <ele>879.2</ele>
        <time>2021-11-16 10:33:07</time>
      </trkpt>
      <trkpt lat="40.67375" lon="-3.76004">
        <ele>879</ele>
        <time>2021-11-16 10:33:08</time>
      </trkpt>
      <trkpt lat="40.6738" lon="-3.76007">
        <ele>879</ele>
        <time>2021-11-16 10:33:09</time>
      </trkpt>
      <trkpt lat="40.67385" lon="-3.76011">
        <ele>879.2</ele>
        <time>2021-11-16 10:33:10</time>
      </trkpt>
      <trkpt lat="40.67391" lon="-3.76015">
        <ele>879.2</ele>
        <time>2021-11-16 10:33:11</time>
      </trkpt>
      <trkpt lat="40.67396" lon="-3.76019">
        <ele>879</ele>
        <time>2021-11-16 10:33:12</time>
      </trkpt>
      <trkpt lat="40.67401" lon="-3.76023">
        <ele>879.4</ele>
        <time>2021-11-16 10:33:13</time>
      </trkpt>
      <trkpt lat="40.67406" lon="-3.76027">
        <ele>879.4</ele>
        <time>2021-11-16 10:33:14</time>
      </trkpt>
      <trkpt lat="40.67411" lon="-3.7603">
        <ele>879.4</ele>
        <time>2021-11-16 10:33:15</time>
      </trkpt>
      <trkpt lat="40.67416" lon="-3.76034">
        <ele>879.6</ele>
        <time>2021-11-16 10:33:16</time>
      </trkpt>
      <trkpt lat="40.67421" lon="-3.76038">
        <ele>880</ele>
        <time>2021-11-16 10:33:17</time>
      </trkpt>
      <trkpt lat="40.67425" lon="-3.76042">
        <ele>880.4</ele>
        <time>2021-11-16 10:33:18</time>
      </trkpt>
      <trkpt lat="40.6743" lon="-3.76045">
        <ele>880.6</ele>
        <time>2021-11-16 10:33:19</time>
      </trkpt>
      <trkpt lat="40.67434" lon="-3.76049">
        <ele>880.8</ele>
        <time>2021-11-16 10:33:20</time>
      </trkpt>
      <trkpt lat="40.67438" lon="-3.76052">
        <ele>881</ele>
        <time>2021-11-16 10:33:21</time>
      </trkpt>
      <trkpt lat="40.67442" lon="-3.76055">
        <ele>881.2</ele>
        <time>2021-11-16 10:33:22</time>
      </trkpt>
      <trkpt lat="40.67446" lon="-3.76058">
        <ele>881.2</ele>
        <time>2021-11-16 10:33:23</time>
      </trkpt>
      <trkpt lat="40.6745" lon="-3.76061">
        <ele>881.2</ele>
        <time>2021-11-16 10:33:24</time>
      </trkpt>
      <trkpt lat="40.67454" lon="-3.76064">
        <ele>881.4</ele>
        <time>2021-11-16 10:33:25</time>
      </trkpt>
      <trkpt lat="40.67458" lon="-3.76067">
        <ele>881.8</ele>
        <time>2021-11-16 10:33:26</time>
      </trkpt>
      <trkpt lat="40.67462" lon="-3.7607">
        <ele>882</ele>
        <time>2021-11-16 10:33:27</time>
      </trkpt>
      <trkpt lat="40.67466" lon="-3.76073">
        <ele>882.2</ele>
        <time>2021-11-16 10:33:28</time>
      </trkpt>
      <trkpt lat="40.67469" lon="-3.76076">
        <ele>882.8</ele>
        <time>2021-11-16 10:33:29</time>
      </trkpt>
      <trkpt lat="40.67473" lon="-3.76079">
        <ele>883</ele>
        <time>2021-11-16 10:33:30</time>
      </trkpt>
      <trkpt lat="40.67477" lon="-3.76083">
        <ele>883.4</ele>
        <time>2021-11-16 10:33:31</time>
      </trkpt>
      <trkpt lat="40.6748" lon="-3.76086">
        <ele>883.8</ele>
        <time>2021-11-16 10:33:32</time>
      </trkpt>
      <trkpt lat="40.67484" lon="-3.7609">
        <ele>884</ele>
        <time>2021-11-16 10:33:33</time>
      </trkpt>
      <trkpt lat="40.67488" lon="-3.76094">
        <ele>884.4</ele>
        <time>2021-11-16 10:33:34</time>
      </trkpt>
      <trkpt lat="40.67491" lon="-3.76097">
        <ele>885</ele>
        <time>2021-11-16 10:33:35</time>
      </trkpt>
      <trkpt lat="40.67495" lon="-3.761">
        <ele>885.2</ele>
        <time>2021-11-16 10:33:36</time>
      </trkpt>
      <trkpt lat="40.67499" lon="-3.76103">
        <ele>885.6</ele>
        <time>2021-11-16 10:33:37</time>
      </trkpt>
      <trkpt lat="40.67503" lon="-3.76106">
        <ele>886</ele>
        <time>2021-11-16 10:33:38</time>
      </trkpt>
      <trkpt lat="40.67507" lon="-3.76109">
        <ele>886.2</ele>
        <time>2021-11-16 10:33:39</time>
      </trkpt>
      <trkpt lat="40.67511" lon="-3.76112">
        <ele>886.4</ele>
        <time>2021-11-16 10:33:40</time>
      </trkpt>
      <trkpt lat="40.67515" lon="-3.76115">
        <ele>886.6</ele>
        <time>2021-11-16 10:33:41</time>
      </trkpt>
      <trkpt lat="40.67518" lon="-3.76118">
        <ele>886.6</ele>
        <time>2021-11-16 10:33:42</time>
      </trkpt>
      <trkpt lat="40.67522" lon="-3.7612">
        <ele>886.8</ele>
        <time>2021-11-16 10:33:43</time>
      </trkpt>
      <trkpt lat="40.67526" lon="-3.76123">
        <ele>887</ele>
        <time>2021-11-16 10:33:44</time>
      </trkpt>
      <trkpt lat="40.67529" lon="-3.76126">
        <ele>887.2</ele>
        <time>2021-11-16 10:33:45</time>
      </trkpt>
      <trkpt lat="40.67533" lon="-3.7613">
        <ele>887.2</ele>
        <time>2021-11-16 10:33:46</time>
      </trkpt>
      <trkpt lat="40.67536" lon="-3.76133">
        <ele>887.4</ele>
        <time>2021-11-16 10:33:47</time>
      </trkpt>
      <trkpt lat="40.6754" lon="-3.76135">
        <ele>887.6</ele>
        <time>2021-11-16 10:33:48</time>
      </trkpt>
      <trkpt lat="40.67543" lon="-3.76138">
        <ele>887.8</ele>
        <time>2021-11-16 10:33:49</time>
      </trkpt>
      <trkpt lat="40.67547" lon="-3.76141">
        <ele>888</ele>
        <time>2021-11-16 10:33:50</time>
      </trkpt>
      <trkpt lat="40.6755" lon="-3.76144">
        <ele>888.2</ele>
        <time>2021-11-16 10:33:51</time>
      </trkpt>
      <trkpt lat="40.67554" lon="-3.76147">
        <ele>888.2</ele>
        <time>2021-11-16 10:33:52</time>
      </trkpt>
      <trkpt lat="40.67557" lon="-3.7615">
        <ele>888.6</ele>
        <time>2021-11-16 10:33:53</time>
      </trkpt>
      <trkpt lat="40.67561" lon="-3.76154">
        <ele>888.8</ele>
        <time>2021-11-16 10:33:54</time>
      </trkpt>
      <trkpt lat="40.67564" lon="-3.76157">
        <ele>889.2</ele>
        <time>2021-11-16 10:33:55</time>
      </trkpt>
      <trkpt lat="40.67567" lon="-3.7616">
        <ele>889.6</ele>
        <time>2021-11-16 10:33:56</time>
      </trkpt>
      <trkpt lat="40.67571" lon="-3.76163">
        <ele>889.6</ele>
        <time>2021-11-16 10:33:57</time>
      </trkpt>
      <trkpt lat="40.67574" lon="-3.76167">
        <ele>890</ele>
        <time>2021-11-16 10:33:58</time>
      </trkpt>
      <trkpt lat="40.67577" lon="-3.7617">
        <ele>890.2</ele>
        <time>2021-11-16 10:33:59</time>
      </trkpt>
      <trkpt lat="40.67581" lon="-3.76173">
        <ele>890.2</ele>
        <time>2021-11-16 10:34:00</time>
      </trkpt>
      <trkpt lat="40.67584" lon="-3.76176">
        <ele>890</ele>
        <time>2021-11-16 10:34:01</time>
      </trkpt>
      <trkpt lat="40.67588" lon="-3.7618">
        <ele>890.2</ele>
        <time>2021-11-16 10:34:02</time>
      </trkpt>
      <trkpt lat="40.67591" lon="-3.76183">
        <ele>890.4</ele>
        <time>2021-11-16 10:34:03</time>
      </trkpt>
      <trkpt lat="40.67594" lon="-3.76186">
        <ele>890.4</ele>
        <time>2021-11-16 10:34:04</time>
      </trkpt>
      <trkpt lat="40.67598" lon="-3.76189">
        <ele>890.6</ele>
        <time>2021-11-16 10:34:05</time>
      </trkpt>
      <trkpt lat="40.67601" lon="-3.76192">
        <ele>890.6</ele>
        <time>2021-11-16 10:34:06</time>
      </trkpt>
      <trkpt lat="40.67604" lon="-3.76195">
        <ele>890.8</ele>
        <time>2021-11-16 10:34:07</time>
      </trkpt>
      <trkpt lat="40.67607" lon="-3.76198">
        <ele>891.2</ele>
        <time>2021-11-16 10:34:08</time>
      </trkpt>
      <trkpt lat="40.6761" lon="-3.76201">
        <ele>891.2</ele>
        <time>2021-11-16 10:34:09</time>
      </trkpt>
      <trkpt lat="40.67614" lon="-3.76204">
        <ele>891.4</ele>
        <time>2021-11-16 10:34:10</time>
      </trkpt>
      <trkpt lat="40.67617" lon="-3.76208">
        <ele>891.6</ele>
        <time>2021-11-16 10:34:11</time>
      </trkpt>
      <trkpt lat="40.6762" lon="-3.76211">
        <ele>891.6</ele>
        <time>2021-11-16 10:34:12</time>
      </trkpt>
      <trkpt lat="40.67623" lon="-3.76213">
        <ele>891.8</ele>
        <time>2021-11-16 10:34:13</time>
      </trkpt>
      <trkpt lat="40.67626" lon="-3.76217">
        <ele>891.8</ele>
        <time>2021-11-16 10:34:14</time>
      </trkpt>
      <trkpt lat="40.67629" lon="-3.7622">
        <ele>892</ele>
        <time>2021-11-16 10:34:15</time>
      </trkpt>
      <trkpt lat="40.67632" lon="-3.76223">
        <ele>892.4</ele>
        <time>2021-11-16 10:34:16</time>
      </trkpt>
      <trkpt lat="40.67635" lon="-3.76227">
        <ele>892.6</ele>
        <time>2021-11-16 10:34:17</time>
      </trkpt>
      <trkpt lat="40.67638" lon="-3.7623">
        <ele>893.2</ele>
        <time>2021-11-16 10:34:18</time>
      </trkpt>
      <trkpt lat="40.67641" lon="-3.76233">
        <ele>893.2</ele>
        <time>2021-11-16 10:34:19</time>
      </trkpt>
      <trkpt lat="40.67644" lon="-3.76237">
        <ele>893.2</ele>
        <time>2021-11-16 10:34:20</time>
      </trkpt>
      <trkpt lat="40.67647" lon="-3.7624">
        <ele>893.6</ele>
        <time>2021-11-16 10:34:21</time>
      </trkpt>
      <trkpt lat="40.67651" lon="-3.76244">
        <ele>893.8</ele>
        <time>2021-11-16 10:34:22</time>
      </trkpt>
      <trkpt lat="40.67654" lon="-3.76247">
        <ele>893.8</ele>
        <time>2021-11-16 10:34:23</time>
      </trkpt>
      <trkpt lat="40.67657" lon="-3.7625">
        <ele>894</ele>
        <time>2021-11-16 10:34:24</time>
      </trkpt>
      <trkpt lat="40.6766" lon="-3.76254">
        <ele>894.2</ele>
        <time>2021-11-16 10:34:25</time>
      </trkpt>
      <trkpt lat="40.67663" lon="-3.76257">
        <ele>894.4</ele>
        <time>2021-11-16 10:34:26</time>
      </trkpt>
      <trkpt lat="40.67666" lon="-3.76261">
        <ele>894.8</ele>
        <time>2021-11-16 10:34:27</time>
      </trkpt>
      <trkpt lat="40.67669" lon="-3.76264">
        <ele>895</ele>
        <time>2021-11-16 10:34:28</time>
      </trkpt>
      <trkpt lat="40.67672" lon="-3.76268">
        <ele>895</ele>
        <time>2021-11-16 10:34:29</time>
      </trkpt>
      <trkpt lat="40.67675" lon="-3.76271">
        <ele>895.6</ele>
        <time>2021-11-16 10:34:30</time>
      </trkpt>
      <trkpt lat="40.67678" lon="-3.76274">
        <ele>896</ele>
        <time>2021-11-16 10:34:31</time>
      </trkpt>
      <trkpt lat="40.6768" lon="-3.76277">
        <ele>896</ele>
        <time>2021-11-16 10:34:32</time>
      </trkpt>
      <trkpt lat="40.67683" lon="-3.76281">
        <ele>896.2</ele>
        <time>2021-11-16 10:34:33</time>
      </trkpt>
      <trkpt lat="40.67686" lon="-3.76284">
        <ele>896.4</ele>
        <time>2021-11-16 10:34:34</time>
      </trkpt>
      <trkpt lat="40.67689" lon="-3.76288">
        <ele>896.4</ele>
        <time>2021-11-16 10:34:35</time>
      </trkpt>
      <trkpt lat="40.67692" lon="-3.76291">
        <ele>896.8</ele>
        <time>2021-11-16 10:34:36</time>
      </trkpt>
      <trkpt lat="40.67695" lon="-3.76295">
        <ele>896.8</ele>
        <time>2021-11-16 10:34:37</time>
      </trkpt>
      <trkpt lat="40.67698" lon="-3.76298">
        <ele>896.8</ele>
        <time>2021-11-16 10:34:38</time>
      </trkpt>
      <trkpt lat="40.67701" lon="-3.76302">
        <ele>897.2</ele>
        <time>2021-11-16 10:34:39</time>
      </trkpt>
      <trkpt lat="40.67704" lon="-3.76305">
        <ele>897.2</ele>
        <time>2021-11-16 10:34:40</time>
      </trkpt>
      <trkpt lat="40.67707" lon="-3.76309">
        <ele>897.4</ele>
        <time>2021-11-16 10:34:41</time>
      </trkpt>
      <trkpt lat="40.67711" lon="-3.76313">
        <ele>897.6</ele>
        <time>2021-11-16 10:34:42</time>
      </trkpt>
      <trkpt lat="40.67714" lon="-3.76317">
        <ele>897.6</ele>
        <time>2021-11-16 10:34:43</time>
      </trkpt>
      <trkpt lat="40.67717" lon="-3.7632">
        <ele>897.8</ele>
        <time>2021-11-16 10:34:44</time>
      </trkpt>
      <trkpt lat="40.6772" lon="-3.76324">
        <ele>897.8</ele>
        <time>2021-11-16 10:34:45</time>
      </trkpt>
      <trkpt lat="40.67724" lon="-3.76328">
        <ele>898</ele>
        <time>2021-11-16 10:34:46</time>
      </trkpt>
      <trkpt lat="40.67727" lon="-3.76332">
        <ele>898.2</ele>
        <time>2021-11-16 10:34:47</time>
      </trkpt>
      <trkpt lat="40.6773" lon="-3.76336">
        <ele>898.2</ele>
        <time>2021-11-16 10:34:48</time>
      </trkpt>
      <trkpt lat="40.67733" lon="-3.7634">
        <ele>898.2</ele>
        <time>2021-11-16 10:34:49</time>
      </trkpt>
      <trkpt lat="40.67736" lon="-3.76344">
        <ele>898.2</ele>
        <time>2021-11-16 10:34:50</time>
      </trkpt>
      <trkpt lat="40.6774" lon="-3.76348">
        <ele>898.4</ele>
        <time>2021-11-16 10:34:51</time>
      </trkpt>
      <trkpt lat="40.67743" lon="-3.76353">
        <ele>898.2</ele>
        <time>2021-11-16 10:34:52</time>
      </trkpt>
      <trkpt lat="40.67746" lon="-3.76357">
        <ele>898.4</ele>
        <time>2021-11-16 10:34:53</time>
      </trkpt>
      <trkpt lat="40.67749" lon="-3.76362">
        <ele>898.6</ele>
        <time>2021-11-16 10:34:54</time>
      </trkpt>
      <trkpt lat="40.67752" lon="-3.76366">
        <ele>898.6</ele>
        <time>2021-11-16 10:34:55</time>
      </trkpt>
      <trkpt lat="40.67756" lon="-3.7637">
        <ele>898.6</ele>
        <time>2021-11-16 10:34:56</time>
      </trkpt>
      <trkpt lat="40.67759" lon="-3.76375">
        <ele>898.8</ele>
        <time>2021-11-16 10:34:57</time>
      </trkpt>
      <trkpt lat="40.67762" lon="-3.76379">
        <ele>898.8</ele>
        <time>2021-11-16 10:34:58</time>
      </trkpt>
      <trkpt lat="40.67766" lon="-3.76384">
        <ele>899</ele>
        <time>2021-11-16 10:34:59</time>
      </trkpt>
      <trkpt lat="40.67769" lon="-3.76389">
        <ele>899.2</ele>
        <time>2021-11-16 10:35:00</time>
      </trkpt>
      <trkpt lat="40.67772" lon="-3.76394">
        <ele>899</ele>
        <time>2021-11-16 10:35:01</time>
      </trkpt>
      <trkpt lat="40.67776" lon="-3.76398">
        <ele>899.2</ele>
        <time>2021-11-16 10:35:02</time>
      </trkpt>
      <trkpt lat="40.67779" lon="-3.76403">
        <ele>899.2</ele>
        <time>2021-11-16 10:35:03</time>
      </trkpt>
      <trkpt lat="40.67783" lon="-3.76408">
        <ele>899.2</ele>
        <time>2021-11-16 10:35:04</time>
      </trkpt>
      <trkpt lat="40.67786" lon="-3.76413">
        <ele>899.2</ele>
        <time>2021-11-16 10:35:05</time>
      </trkpt>
      <trkpt lat="40.67789" lon="-3.76418">
        <ele>899.4</ele>
        <time>2021-11-16 10:35:06</time>
      </trkpt>
      <trkpt lat="40.67793" lon="-3.76423">
        <ele>899.4</ele>
        <time>2021-11-16 10:35:07</time>
      </trkpt>
      <trkpt lat="40.67796" lon="-3.76427">
        <ele>899.6</ele>
        <time>2021-11-16 10:35:08</time>
      </trkpt>
      <trkpt lat="40.67799" lon="-3.76432">
        <ele>899.8</ele>
        <time>2021-11-16 10:35:09</time>
      </trkpt>
      <trkpt lat="40.67802" lon="-3.76437">
        <ele>899.8</ele>
        <time>2021-11-16 10:35:10</time>
      </trkpt>
      <trkpt lat="40.67805" lon="-3.76442">
        <ele>900</ele>
        <time>2021-11-16 10:35:11</time>
      </trkpt>
      <trkpt lat="40.67809" lon="-3.76447">
        <ele>899.8</ele>
        <time>2021-11-16 10:35:12</time>
      </trkpt>
      <trkpt lat="40.67812" lon="-3.76452">
        <ele>900</ele>
        <time>2021-11-16 10:35:13</time>
      </trkpt>
      <trkpt lat="40.67815" lon="-3.76457">
        <ele>900</ele>
        <time>2021-11-16 10:35:14</time>
      </trkpt>
      <trkpt lat="40.67818" lon="-3.76461">
        <ele>900</ele>
        <time>2021-11-16 10:35:15</time>
      </trkpt>
      <trkpt lat="40.67821" lon="-3.76466">
        <ele>900</ele>
        <time>2021-11-16 10:35:16</time>
      </trkpt>
      <trkpt lat="40.67824" lon="-3.76472">
        <ele>900.6</ele>
        <time>2021-11-16 10:35:17</time>
      </trkpt>
      <trkpt lat="40.67827" lon="-3.76477">
        <ele>901</ele>
        <time>2021-11-16 10:35:18</time>
      </trkpt>
      <trkpt lat="40.6783" lon="-3.76482">
        <ele>901.4</ele>
        <time>2021-11-16 10:35:19</time>
      </trkpt>
      <trkpt lat="40.67833" lon="-3.76487">
        <ele>901.6</ele>
        <time>2021-11-16 10:35:20</time>
      </trkpt>
      <trkpt lat="40.67836" lon="-3.76492">
        <ele>902</ele>
        <time>2021-11-16 10:35:21</time>
      </trkpt>
      <trkpt lat="40.67839" lon="-3.76498">
        <ele>902.4</ele>
        <time>2021-11-16 10:35:22</time>
      </trkpt>
      <trkpt lat="40.67842" lon="-3.76503">
        <ele>902.4</ele>
        <time>2021-11-16 10:35:23</time>
      </trkpt>
      <trkpt lat="40.67846" lon="-3.76508">
        <ele>902.6</ele>
        <time>2021-11-16 10:35:24</time>
      </trkpt>
      <trkpt lat="40.6785" lon="-3.76513">
        <ele>902.6</ele>
        <time>2021-11-16 10:35:25</time>
      </trkpt>
      <trkpt lat="40.67853" lon="-3.76517">
        <ele>902.8</ele>
        <time>2021-11-16 10:35:26</time>
      </trkpt>
      <trkpt lat="40.67856" lon="-3.76523">
        <ele>903</ele>
        <time>2021-11-16 10:35:27</time>
      </trkpt>
      <trkpt lat="40.6786" lon="-3.76528">
        <ele>903</ele>
        <time>2021-11-16 10:35:28</time>
      </trkpt>
      <trkpt lat="40.67863" lon="-3.76533">
        <ele>903</ele>
        <time>2021-11-16 10:35:29</time>
      </trkpt>
      <trkpt lat="40.67866" lon="-3.76539">
        <ele>903</ele>
        <time>2021-11-16 10:35:30</time>
      </trkpt>
      <trkpt lat="40.67869" lon="-3.76544">
        <ele>903.2</ele>
        <time>2021-11-16 10:35:31</time>
      </trkpt>
      <trkpt lat="40.67872" lon="-3.76549">
        <ele>903.2</ele>
        <time>2021-11-16 10:35:32</time>
      </trkpt>
      <trkpt lat="40.67875" lon="-3.76555">
        <ele>903.2</ele>
        <time>2021-11-16 10:35:33</time>
      </trkpt>
      <trkpt lat="40.67878" lon="-3.7656">
        <ele>903.2</ele>
        <time>2021-11-16 10:35:34</time>
      </trkpt>
      <trkpt lat="40.67881" lon="-3.76565">
        <ele>903.2</ele>
        <time>2021-11-16 10:35:35</time>
      </trkpt>
      <trkpt lat="40.67884" lon="-3.76571">
        <ele>903.2</ele>
        <time>2021-11-16 10:35:36</time>
      </trkpt>
      <trkpt lat="40.67887" lon="-3.76576">
        <ele>903.4</ele>
        <time>2021-11-16 10:35:37</time>
      </trkpt>
      <trkpt lat="40.67889" lon="-3.76581">
        <ele>903.4</ele>
        <time>2021-11-16 10:35:38</time>
      </trkpt>
      <trkpt lat="40.67892" lon="-3.76587">
        <ele>903.4</ele>
        <time>2021-11-16 10:35:39</time>
      </trkpt>
      <trkpt lat="40.67895" lon="-3.76592">
        <ele>903.6</ele>
        <time>2021-11-16 10:35:40</time>
      </trkpt>
      <trkpt lat="40.67899" lon="-3.76597">
        <ele>904</ele>
        <time>2021-11-16 10:35:41</time>
      </trkpt>
      <trkpt lat="40.67901" lon="-3.76603">
        <ele>904</ele>
        <time>2021-11-16 10:35:42</time>
      </trkpt>
      <trkpt lat="40.67904" lon="-3.76608">
        <ele>904</ele>
        <time>2021-11-16 10:35:43</time>
      </trkpt>
      <trkpt lat="40.67907" lon="-3.76614">
        <ele>904.2</ele>
        <time>2021-11-16 10:35:44</time>
      </trkpt>
      <trkpt lat="40.6791" lon="-3.76619">
        <ele>904.2</ele>
        <time>2021-11-16 10:35:45</time>
      </trkpt>
      <trkpt lat="40.67912" lon="-3.76625">
        <ele>904.6</ele>
        <time>2021-11-16 10:35:46</time>
      </trkpt>
      <trkpt lat="40.67915" lon="-3.7663">
        <ele>904.8</ele>
        <time>2021-11-16 10:35:47</time>
      </trkpt>
      <trkpt lat="40.67918" lon="-3.76636">
        <ele>904.8</ele>
        <time>2021-11-16 10:35:48</time>
      </trkpt>
      <trkpt lat="40.67921" lon="-3.76641">
        <ele>905</ele>
        <time>2021-11-16 10:35:49</time>
      </trkpt>
      <trkpt lat="40.67923" lon="-3.76647">
        <ele>905</ele>
        <time>2021-11-16 10:35:50</time>
      </trkpt>
      <trkpt lat="40.67926" lon="-3.76652">
        <ele>905</ele>
        <time>2021-11-16 10:35:51</time>
      </trkpt>
      <trkpt lat="40.67929" lon="-3.76657">
        <ele>905.2</ele>
        <time>2021-11-16 10:35:52</time>
      </trkpt>
      <trkpt lat="40.67931" lon="-3.76663">
        <ele>905.2</ele>
        <time>2021-11-16 10:35:53</time>
      </trkpt>
      <trkpt lat="40.67934" lon="-3.76669">
        <ele>905.2</ele>
        <time>2021-11-16 10:35:54</time>
      </trkpt>
      <trkpt lat="40.67936" lon="-3.76674">
        <ele>905.4</ele>
        <time>2021-11-16 10:35:55</time>
      </trkpt>
      <trkpt lat="40.67939" lon="-3.7668">
        <ele>905.6</ele>
        <time>2021-11-16 10:35:56</time>
      </trkpt>
      <trkpt lat="40.67941" lon="-3.76686">
        <ele>905.6</ele>
        <time>2021-11-16 10:35:57</time>
      </trkpt>
      <trkpt lat="40.67943" lon="-3.76691">
        <ele>905.8</ele>
        <time>2021-11-16 10:35:58</time>
      </trkpt>
      <trkpt lat="40.67946" lon="-3.76697">
        <ele>906</ele>
        <time>2021-11-16 10:35:59</time>
      </trkpt>
      <trkpt lat="40.67948" lon="-3.76703">
        <ele>906</ele>
        <time>2021-11-16 10:36:00</time>
      </trkpt>
      <trkpt lat="40.67951" lon="-3.76709">
        <ele>906.2</ele>
        <time>2021-11-16 10:36:01</time>
      </trkpt>
      <trkpt lat="40.67953" lon="-3.76715">
        <ele>906</ele>
        <time>2021-11-16 10:36:02</time>
      </trkpt>
      <trkpt lat="40.67955" lon="-3.76721">
        <ele>906.2</ele>
        <time>2021-11-16 10:36:03</time>
      </trkpt>
      <trkpt lat="40.67957" lon="-3.76727">
        <ele>906.2</ele>
        <time>2021-11-16 10:36:04</time>
      </trkpt>
      <trkpt lat="40.6796" lon="-3.76732">
        <ele>906.4</ele>
        <time>2021-11-16 10:36:05</time>
      </trkpt>
      <trkpt lat="40.67962" lon="-3.76738">
        <ele>906.4</ele>
        <time>2021-11-16 10:36:06</time>
      </trkpt>
      <trkpt lat="40.67964" lon="-3.76744">
        <ele>906.6</ele>
        <time>2021-11-16 10:36:07</time>
      </trkpt>
      <trkpt lat="40.67966" lon="-3.7675">
        <ele>906.6</ele>
        <time>2021-11-16 10:36:08</time>
      </trkpt>
      <trkpt lat="40.67968" lon="-3.76755">
        <ele>906.8</ele>
        <time>2021-11-16 10:36:09</time>
      </trkpt>
      <trkpt lat="40.6797" lon="-3.76761">
        <ele>906.8</ele>
        <time>2021-11-16 10:36:10</time>
      </trkpt>
      <trkpt lat="40.67973" lon="-3.76767">
        <ele>907</ele>
        <time>2021-11-16 10:36:11</time>
      </trkpt>
      <trkpt lat="40.67974" lon="-3.76772">
        <ele>907</ele>
        <time>2021-11-16 10:36:12</time>
      </trkpt>
      <trkpt lat="40.67976" lon="-3.76778">
        <ele>907.8</ele>
        <time>2021-11-16 10:36:13</time>
      </trkpt>
      <trkpt lat="40.67978" lon="-3.76783">
        <ele>908</ele>
        <time>2021-11-16 10:36:14</time>
      </trkpt>
      <trkpt lat="40.6798" lon="-3.76789">
        <ele>908.4</ele>
        <time>2021-11-16 10:36:15</time>
      </trkpt>
      <trkpt lat="40.67981" lon="-3.76794">
        <ele>908.4</ele>
        <time>2021-11-16 10:36:16</time>
      </trkpt>
      <trkpt lat="40.67982" lon="-3.768">
        <ele>909</ele>
        <time>2021-11-16 10:36:17</time>
      </trkpt>
      <trkpt lat="40.67982" lon="-3.76806">
        <ele>909.4</ele>
        <time>2021-11-16 10:36:18</time>
      </trkpt>
      <trkpt lat="40.67982" lon="-3.76812">
        <ele>909.6</ele>
        <time>2021-11-16 10:36:19</time>
      </trkpt>
      <trkpt lat="40.67982" lon="-3.76818">
        <ele>909.8</ele>
        <time>2021-11-16 10:36:20</time>
      </trkpt>
      <trkpt lat="40.67981" lon="-3.76824">
        <ele>909.8</ele>
        <time>2021-11-16 10:36:21</time>
      </trkpt>
      <trkpt lat="40.6798" lon="-3.7683">
        <ele>909.8</ele>
        <time>2021-11-16 10:36:22</time>
      </trkpt>
      <trkpt lat="40.67979" lon="-3.76836">
        <ele>910</ele>
        <time>2021-11-16 10:36:23</time>
      </trkpt>
      <trkpt lat="40.67977" lon="-3.76841">
        <ele>910.2</ele>
        <time>2021-11-16 10:36:24</time>
      </trkpt>
      <trkpt lat="40.67974" lon="-3.76846">
        <ele>910.4</ele>
        <time>2021-11-16 10:36:25</time>
      </trkpt>
      <trkpt lat="40.67971" lon="-3.76851">
        <ele>910.6</ele>
        <time>2021-11-16 10:36:26</time>
      </trkpt>
      <trkpt lat="40.67968" lon="-3.76856">
        <ele>911</ele>
        <time>2021-11-16 10:36:27</time>
      </trkpt>
      <trkpt lat="40.67965" lon="-3.7686">
        <ele>911.2</ele>
        <time>2021-11-16 10:36:28</time>
      </trkpt>
      <trkpt lat="40.67962" lon="-3.76865">
        <ele>911.2</ele>
        <time>2021-11-16 10:36:29</time>
      </trkpt>
      <trkpt lat="40.67958" lon="-3.76868">
        <ele>911.4</ele>
        <time>2021-11-16 10:36:30</time>
      </trkpt>
      <trkpt lat="40.67955" lon="-3.76872">
        <ele>911.4</ele>
        <time>2021-11-16 10:36:31</time>
      </trkpt>
      <trkpt lat="40.67951" lon="-3.76875">
        <ele>911.4</ele>
        <time>2021-11-16 10:36:32</time>
      </trkpt>
      <trkpt lat="40.67947" lon="-3.76878">
        <ele>911.4</ele>
        <time>2021-11-16 10:36:33</time>
      </trkpt>
      <trkpt lat="40.67943" lon="-3.76881">
        <ele>911.8</ele>
        <time>2021-11-16 10:36:34</time>
      </trkpt>
      <trkpt lat="40.67939" lon="-3.76885">
        <ele>912.2</ele>
        <time>2021-11-16 10:36:35</time>
      </trkpt>
      <trkpt lat="40.67935" lon="-3.76888">
        <ele>912.4</ele>
        <time>2021-11-16 10:36:36</time>
      </trkpt>
      <trkpt lat="40.67931" lon="-3.76891">
        <ele>912.6</ele>
        <time>2021-11-16 10:36:37</time>
      </trkpt>
      <trkpt lat="40.67928" lon="-3.76895">
        <ele>912.8</ele>
        <time>2021-11-16 10:36:38</time>
      </trkpt>
      <trkpt lat="40.67925" lon="-3.769">
        <ele>912.8</ele>
        <time>2021-11-16 10:36:39</time>
      </trkpt>
      <trkpt lat="40.67923" lon="-3.76906">
        <ele>913</ele>
        <time>2021-11-16 10:36:40</time>
      </trkpt>
      <trkpt lat="40.67921" lon="-3.76911">
        <ele>913</ele>
        <time>2021-11-16 10:36:41</time>
      </trkpt>
      <trkpt lat="40.6792" lon="-3.76917">
        <ele>913</ele>
        <time>2021-11-16 10:36:42</time>
      </trkpt>
      <trkpt lat="40.6792" lon="-3.76922">
        <ele>913</ele>
        <time>2021-11-16 10:36:43</time>
      </trkpt>
      <trkpt lat="40.6792" lon="-3.76928">
        <ele>913.4</ele>
        <time>2021-11-16 10:36:44</time>
      </trkpt>
      <trkpt lat="40.6792" lon="-3.76934">
        <ele>913.6</ele>
        <time>2021-11-16 10:36:45</time>
      </trkpt>
      <trkpt lat="40.6792" lon="-3.7694">
        <ele>913.8</ele>
        <time>2021-11-16 10:36:46</time>
      </trkpt>
      <trkpt lat="40.67921" lon="-3.76947">
        <ele>913.8</ele>
        <time>2021-11-16 10:36:47</time>
      </trkpt>
      <trkpt lat="40.67923" lon="-3.76954">
        <ele>913.8</ele>
        <time>2021-11-16 10:36:48</time>
      </trkpt>
      <trkpt lat="40.67926" lon="-3.76961">
        <ele>914</ele>
        <time>2021-11-16 10:36:49</time>
      </trkpt>
      <trkpt lat="40.67929" lon="-3.76967">
        <ele>914.2</ele>
        <time>2021-11-16 10:36:50</time>
      </trkpt>
      <trkpt lat="40.67932" lon="-3.76973">
        <ele>914</ele>
        <time>2021-11-16 10:36:51</time>
      </trkpt>
      <trkpt lat="40.67936" lon="-3.76978">
        <ele>914.2</ele>
        <time>2021-11-16 10:36:52</time>
      </trkpt>
      <trkpt lat="40.6794" lon="-3.76984">
        <ele>914</ele>
        <time>2021-11-16 10:36:53</time>
      </trkpt>
      <trkpt lat="40.67944" lon="-3.76988">
        <ele>914.2</ele>
        <time>2021-11-16 10:36:54</time>
      </trkpt>
      <trkpt lat="40.67948" lon="-3.76992">
        <ele>914.4</ele>
        <time>2021-11-16 10:36:55</time>
      </trkpt>
      <trkpt lat="40.67952" lon="-3.76996">
        <ele>914.6</ele>
        <time>2021-11-16 10:36:56</time>
      </trkpt>
      <trkpt lat="40.67956" lon="-3.77">
        <ele>914.8</ele>
        <time>2021-11-16 10:36:57</time>
      </trkpt>
      <trkpt lat="40.6796" lon="-3.77004">
        <ele>914.8</ele>
        <time>2021-11-16 10:36:58</time>
      </trkpt>
      <trkpt lat="40.67964" lon="-3.77007">
        <ele>915</ele>
        <time>2021-11-16 10:36:59</time>
      </trkpt>
      <trkpt lat="40.67967" lon="-3.7701">
        <ele>915.2</ele>
        <time>2021-11-16 10:37:00</time>
      </trkpt>
      <trkpt lat="40.67971" lon="-3.77013">
        <ele>915.2</ele>
        <time>2021-11-16 10:37:01</time>
      </trkpt>
      <trkpt lat="40.67975" lon="-3.77016">
        <ele>915.2</ele>
        <time>2021-11-16 10:37:02</time>
      </trkpt>
      <trkpt lat="40.67979" lon="-3.77018">
        <ele>915</ele>
        <time>2021-11-16 10:37:03</time>
      </trkpt>
      <trkpt lat="40.67983" lon="-3.77021">
        <ele>915.2</ele>
        <time>2021-11-16 10:37:04</time>
      </trkpt>
      <trkpt lat="40.67987" lon="-3.77022">
        <ele>915.2</ele>
        <time>2021-11-16 10:37:05</time>
      </trkpt>
      <trkpt lat="40.67991" lon="-3.77024">
        <ele>915.2</ele>
        <time>2021-11-16 10:37:06</time>
      </trkpt>
      <trkpt lat="40.67995" lon="-3.77026">
        <ele>915.4</ele>
        <time>2021-11-16 10:37:07</time>
      </trkpt>
      <trkpt lat="40.67999" lon="-3.77027">
        <ele>915.6</ele>
        <time>2021-11-16 10:37:08</time>
      </trkpt>
      <trkpt lat="40.68004" lon="-3.77028">
        <ele>916</ele>
        <time>2021-11-16 10:37:09</time>
      </trkpt>
      <trkpt lat="40.68008" lon="-3.7703">
        <ele>916.2</ele>
        <time>2021-11-16 10:37:10</time>
      </trkpt>
      <trkpt lat="40.68012" lon="-3.77031">
        <ele>916.6</ele>
        <time>2021-11-16 10:37:11</time>
      </trkpt>
      <trkpt lat="40.68016" lon="-3.77032">
        <ele>917</ele>
        <time>2021-11-16 10:37:12</time>
      </trkpt>
      <trkpt lat="40.68021" lon="-3.77034">
        <ele>917.2</ele>
        <time>2021-11-16 10:37:13</time>
      </trkpt>
      <trkpt lat="40.68025" lon="-3.77035">
        <ele>917.4</ele>
        <time>2021-11-16 10:37:14</time>
      </trkpt>
      <trkpt lat="40.68029" lon="-3.77037">
        <ele>917.8</ele>
        <time>2021-11-16 10:37:15</time>
      </trkpt>
      <trkpt lat="40.68033" lon="-3.77038">
        <ele>918</ele>
        <time>2021-11-16 10:37:16</time>
      </trkpt>
      <trkpt lat="40.68037" lon="-3.7704">
        <ele>918.2</ele>
        <time>2021-11-16 10:37:17</time>
      </trkpt>
      <trkpt lat="40.68042" lon="-3.77042">
        <ele>918.2</ele>
        <time>2021-11-16 10:37:18</time>
      </trkpt>
      <trkpt lat="40.68046" lon="-3.77043">
        <ele>918.4</ele>
        <time>2021-11-16 10:37:19</time>
      </trkpt>
      <trkpt lat="40.6805" lon="-3.77045">
        <ele>918.6</ele>
        <time>2021-11-16 10:37:20</time>
      </trkpt>
      <trkpt lat="40.68054" lon="-3.77048">
        <ele>918.8</ele>
        <time>2021-11-16 10:37:21</time>
      </trkpt>
      <trkpt lat="40.68057" lon="-3.7705">
        <ele>919</ele>
        <time>2021-11-16 10:37:22</time>
      </trkpt>
      <trkpt lat="40.68061" lon="-3.77053">
        <ele>919.2</ele>
        <time>2021-11-16 10:37:23</time>
      </trkpt>
      <trkpt lat="40.68065" lon="-3.77056">
        <ele>919.4</ele>
        <time>2021-11-16 10:37:24</time>
      </trkpt>
      <trkpt lat="40.68068" lon="-3.7706">
        <ele>919.4</ele>
        <time>2021-11-16 10:37:25</time>
      </trkpt>
      <trkpt lat="40.68071" lon="-3.77064">
        <ele>919.4</ele>
        <time>2021-11-16 10:37:26</time>
      </trkpt>
      <trkpt lat="40.68074" lon="-3.77068">
        <ele>919.6</ele>
        <time>2021-11-16 10:37:27</time>
      </trkpt>
      <trkpt lat="40.68076" lon="-3.77072">
        <ele>920</ele>
        <time>2021-11-16 10:37:28</time>
      </trkpt>
      <trkpt lat="40.68079" lon="-3.77077">
        <ele>920.2</ele>
        <time>2021-11-16 10:37:29</time>
      </trkpt>
      <trkpt lat="40.68081" lon="-3.77081">
        <ele>920.4</ele>
        <time>2021-11-16 10:37:30</time>
      </trkpt>
      <trkpt lat="40.68083" lon="-3.77086">
        <ele>920.6</ele>
        <time>2021-11-16 10:37:31</time>
      </trkpt>
      <trkpt lat="40.68085" lon="-3.77091">
        <ele>920.6</ele>
        <time>2021-11-16 10:37:32</time>
      </trkpt>
      <trkpt lat="40.68087" lon="-3.77095">
        <ele>920.8</ele>
        <time>2021-11-16 10:37:33</time>
      </trkpt>
      <trkpt lat="40.68225" lon="-3.77545">
        <ele>944.2</ele>
        <time>2021-11-16 10:39:16</time>
      </trkpt>
      <trkpt lat="40.68227" lon="-3.77552">
        <ele>944</ele>
        <time>2021-11-16 10:39:17</time>
      </trkpt>
      <trkpt lat="40.6823" lon="-3.7756">
        <ele>943.8</ele>
        <time>2021-11-16 10:39:18</time>
      </trkpt>
      <trkpt lat="40.68232" lon="-3.77568">
        <ele>943.4</ele>
        <time>2021-11-16 10:39:19</time>
      </trkpt>
      <trkpt lat="40.68235" lon="-3.77576">
        <ele>943.2</ele>
        <time>2021-11-16 10:39:20</time>
      </trkpt>
      <trkpt lat="40.68237" lon="-3.77584">
        <ele>942.8</ele>
        <time>2021-11-16 10:39:21</time>
      </trkpt>
      <trkpt lat="40.68239" lon="-3.77591">
        <ele>942.2</ele>
        <time>2021-11-16 10:39:22</time>
      </trkpt>
      <trkpt lat="40.68242" lon="-3.77599">
        <ele>942.2</ele>
        <time>2021-11-16 10:39:23</time>
      </trkpt>
      <trkpt lat="40.68244" lon="-3.77607">
        <ele>941.8</ele>
        <time>2021-11-16 10:39:24</time>
      </trkpt>
      <trkpt lat="40.68247" lon="-3.77615">
        <ele>941.4</ele>
        <time>2021-11-16 10:39:25</time>
      </trkpt>
      <trkpt lat="40.68249" lon="-3.77623">
        <ele>941.2</ele>
        <time>2021-11-16 10:39:26</time>
      </trkpt>
      <trkpt lat="40.68252" lon="-3.77631">
        <ele>941.2</ele>
        <time>2021-11-16 10:39:27</time>
      </trkpt>
      <trkpt lat="40.68254" lon="-3.77638">
        <ele>941</ele>
        <time>2021-11-16 10:39:28</time>
      </trkpt>
      <trkpt lat="40.68256" lon="-3.77646">
        <ele>940.8</ele>
        <time>2021-11-16 10:39:29</time>
      </trkpt>
      <trkpt lat="40.68259" lon="-3.77653">
        <ele>940.6</ele>
        <time>2021-11-16 10:39:30</time>
      </trkpt>
      <trkpt lat="40.68261" lon="-3.77661">
        <ele>940.6</ele>
        <time>2021-11-16 10:39:31</time>
      </trkpt>
      <trkpt lat="40.68264" lon="-3.77668">
        <ele>940.6</ele>
        <time>2021-11-16 10:39:32</time>
      </trkpt>
      <trkpt lat="40.68266" lon="-3.77675">
        <ele>940.4</ele>
        <time>2021-11-16 10:39:33</time>
      </trkpt>
      <trkpt lat="40.68269" lon="-3.77682">
        <ele>940.4</ele>
        <time>2021-11-16 10:39:34</time>
      </trkpt>
      <trkpt lat="40.68271" lon="-3.77689">
        <ele>940.4</ele>
        <time>2021-11-16 10:39:35</time>
      </trkpt>
      <trkpt lat="40.68274" lon="-3.77696">
        <ele>940.4</ele>
        <time>2021-11-16 10:39:36</time>
      </trkpt>
      <trkpt lat="40.68276" lon="-3.77703">
        <ele>940.2</ele>
        <time>2021-11-16 10:39:37</time>
      </trkpt>
      <trkpt lat="40.68278" lon="-3.77711">
        <ele>940.2</ele>
        <time>2021-11-16 10:39:38</time>
      </trkpt>
      <trkpt lat="40.6828" lon="-3.77718">
        <ele>940.2</ele>
        <time>2021-11-16 10:39:39</time>
      </trkpt>
      <trkpt lat="40.68283" lon="-3.77726">
        <ele>940.4</ele>
        <time>2021-11-16 10:39:40</time>
      </trkpt>
      <trkpt lat="40.68285" lon="-3.77733">
        <ele>940.4</ele>
        <time>2021-11-16 10:39:41</time>
      </trkpt>
      <trkpt lat="40.68287" lon="-3.77741">
        <ele>940.6</ele>
        <time>2021-11-16 10:39:42</time>
      </trkpt>
      <trkpt lat="40.6829" lon="-3.77749">
        <ele>940.6</ele>
        <time>2021-11-16 10:39:43</time>
      </trkpt>
      <trkpt lat="40.68292" lon="-3.77756">
        <ele>940.6</ele>
        <time>2021-11-16 10:39:44</time>
      </trkpt>
      <trkpt lat="40.68294" lon="-3.77764">
        <ele>940.6</ele>
        <time>2021-11-16 10:39:45</time>
      </trkpt>
      <trkpt lat="40.68297" lon="-3.77772">
        <ele>940.6</ele>
        <time>2021-11-16 10:39:46</time>
      </trkpt>
      <trkpt lat="40.68299" lon="-3.7778">
        <ele>940.8</ele>
        <time>2021-11-16 10:39:47</time>
      </trkpt>
      <trkpt lat="40.68302" lon="-3.77788">
        <ele>940.6</ele>
        <time>2021-11-16 10:39:48</time>
      </trkpt>
      <trkpt lat="40.68304" lon="-3.77796">
        <ele>940.8</ele>
        <time>2021-11-16 10:39:49</time>
      </trkpt>
      <trkpt lat="40.68307" lon="-3.77804">
        <ele>940.6</ele>
        <time>2021-11-16 10:39:50</time>
      </trkpt>
      <trkpt lat="40.68309" lon="-3.77813">
        <ele>940.6</ele>
        <time>2021-11-16 10:39:51</time>
      </trkpt>
      <trkpt lat="40.68312" lon="-3.77821">
        <ele>940.6</ele>
        <time>2021-11-16 10:39:52</time>
      </trkpt>
      <trkpt lat="40.68314" lon="-3.7783">
        <ele>940.6</ele>
        <time>2021-11-16 10:39:53</time>
      </trkpt>
      <trkpt lat="40.68317" lon="-3.77838">
        <ele>940.6</ele>
        <time>2021-11-16 10:39:54</time>
      </trkpt>
      <trkpt lat="40.68319" lon="-3.77847">
        <ele>940.6</ele>
        <time>2021-11-16 10:39:55</time>
      </trkpt>
      <trkpt lat="40.68322" lon="-3.77856">
        <ele>940.2</ele>
        <time>2021-11-16 10:39:56</time>
      </trkpt>
      <trkpt lat="40.68324" lon="-3.77865">
        <ele>939.8</ele>
        <time>2021-11-16 10:39:57</time>
      </trkpt>
      <trkpt lat="40.68327" lon="-3.77873">
        <ele>939.6</ele>
        <time>2021-11-16 10:39:58</time>
      </trkpt>
      <trkpt lat="40.6833" lon="-3.77882">
        <ele>939.2</ele>
        <time>2021-11-16 10:39:59</time>
      </trkpt>
      <trkpt lat="40.68336" lon="-3.77899">
        <ele>938.8</ele>
        <time>2021-11-16 10:40:00</time>
      </trkpt>
      <trkpt lat="40.68336" lon="-3.77899">
        <ele>938.4</ele>
        <time>2021-11-16 10:40:01</time>
      </trkpt>
      <trkpt lat="40.68338" lon="-3.77908">
        <ele>938.4</ele>
        <time>2021-11-16 10:40:02</time>
      </trkpt>
      <trkpt lat="40.68341" lon="-3.77917">
        <ele>938.2</ele>
        <time>2021-11-16 10:40:03</time>
      </trkpt>
      <trkpt lat="40.68344" lon="-3.77926">
        <ele>938</ele>
        <time>2021-11-16 10:40:04</time>
      </trkpt>
      <trkpt lat="40.68346" lon="-3.77935">
        <ele>938</ele>
        <time>2021-11-16 10:40:05</time>
      </trkpt>
      <trkpt lat="40.68349" lon="-3.77944">
        <ele>938</ele>
        <time>2021-11-16 10:40:06</time>
      </trkpt>
      <trkpt lat="40.68351" lon="-3.77953">
        <ele>938</ele>
        <time>2021-11-16 10:40:07</time>
      </trkpt>
      <trkpt lat="40.68354" lon="-3.77962">
        <ele>938</ele>
        <time>2021-11-16 10:40:08</time>
      </trkpt>
      <trkpt lat="40.68357" lon="-3.7797">
        <ele>937.8</ele>
        <time>2021-11-16 10:40:09</time>
      </trkpt>
      <trkpt lat="40.6836" lon="-3.77979">
        <ele>937.6</ele>
        <time>2021-11-16 10:40:10</time>
      </trkpt>
      <trkpt lat="40.68363" lon="-3.77988">
        <ele>937.8</ele>
        <time>2021-11-16 10:40:11</time>
      </trkpt>
      <trkpt lat="40.68366" lon="-3.77997">
        <ele>937.8</ele>
        <time>2021-11-16 10:40:12</time>
      </trkpt>
      <trkpt lat="40.68368" lon="-3.78006">
        <ele>937.6</ele>
        <time>2021-11-16 10:40:13</time>
      </trkpt>
      <trkpt lat="40.68371" lon="-3.78015">
        <ele>937.8</ele>
        <time>2021-11-16 10:40:14</time>
      </trkpt>
      <trkpt lat="40.68374" lon="-3.78024">
        <ele>937.6</ele>
        <time>2021-11-16 10:40:15</time>
      </trkpt>
      <trkpt lat="40.68376" lon="-3.78033">
        <ele>937.6</ele>
        <time>2021-11-16 10:40:16</time>
      </trkpt>
      <trkpt lat="40.68379" lon="-3.78043">
        <ele>937.4</ele>
        <time>2021-11-16 10:40:17</time>
      </trkpt>
      <trkpt lat="40.68382" lon="-3.78052">
        <ele>937</ele>
        <time>2021-11-16 10:40:18</time>
      </trkpt>
      <trkpt lat="40.68385" lon="-3.78061">
        <ele>937</ele>
        <time>2021-11-16 10:40:19</time>
      </trkpt>
      <trkpt lat="40.68388" lon="-3.7807">
        <ele>937</ele>
        <time>2021-11-16 10:40:20</time>
      </trkpt>
      <trkpt lat="40.68391" lon="-3.7808">
        <ele>937</ele>
        <time>2021-11-16 10:40:21</time>
      </trkpt>
      <trkpt lat="40.68394" lon="-3.7809">
        <ele>937</ele>
        <time>2021-11-16 10:40:22</time>
      </trkpt>
      <trkpt lat="40.68397" lon="-3.78099">
        <ele>937</ele>
        <time>2021-11-16 10:40:23</time>
      </trkpt>
      <trkpt lat="40.68401" lon="-3.78109">
        <ele>936.8</ele>
        <time>2021-11-16 10:40:24</time>
      </trkpt>
      <trkpt lat="40.68404" lon="-3.78119">
        <ele>936.8</ele>
        <time>2021-11-16 10:40:25</time>
      </trkpt>
      <trkpt lat="40.68407" lon="-3.78129">
        <ele>936.8</ele>
        <time>2021-11-16 10:40:26</time>
      </trkpt>
      <trkpt lat="40.6841" lon="-3.7814">
        <ele>936.6</ele>
        <time>2021-11-16 10:40:27</time>
      </trkpt>
      <trkpt lat="40.68414" lon="-3.78151">
        <ele>936.2</ele>
        <time>2021-11-16 10:40:28</time>
      </trkpt>
      <trkpt lat="40.68418" lon="-3.78162">
        <ele>936.2</ele>
        <time>2021-11-16 10:40:29</time>
      </trkpt>
      <trkpt lat="40.68421" lon="-3.78173">
        <ele>936.2</ele>
        <time>2021-11-16 10:40:30</time>
      </trkpt>
      <trkpt lat="40.68425" lon="-3.78185">
        <ele>935</ele>
        <time>2021-11-16 10:40:31</time>
      </trkpt>
      <trkpt lat="40.68428" lon="-3.78197">
        <ele>934.4</ele>
        <time>2021-11-16 10:40:32</time>
      </trkpt>
      <trkpt lat="40.68432" lon="-3.78209">
        <ele>933.8</ele>
        <time>2021-11-16 10:40:33</time>
      </trkpt>
      <trkpt lat="40.68435" lon="-3.78221">
        <ele>933.2</ele>
        <time>2021-11-16 10:40:34</time>
      </trkpt>
      <trkpt lat="40.68439" lon="-3.78233">
        <ele>932.4</ele>
        <time>2021-11-16 10:40:35</time>
      </trkpt>
      <trkpt lat="40.68442" lon="-3.78245">
        <ele>931.6</ele>
        <time>2021-11-16 10:40:36</time>
      </trkpt>
      <trkpt lat="40.68445" lon="-3.78257">
        <ele>931</ele>
        <time>2021-11-16 10:40:37</time>
      </trkpt>
      <trkpt lat="40.68448" lon="-3.7827">
        <ele>930.4</ele>
        <time>2021-11-16 10:40:38</time>
      </trkpt>
      <trkpt lat="40.68451" lon="-3.78282">
        <ele>929.4</ele>
        <time>2021-11-16 10:40:39</time>
      </trkpt>
      <trkpt lat="40.68454" lon="-3.78294">
        <ele>929</ele>
        <time>2021-11-16 10:40:40</time>
      </trkpt>
      <trkpt lat="40.68456" lon="-3.78307">
        <ele>928.6</ele>
        <time>2021-11-16 10:40:41</time>
      </trkpt>
      <trkpt lat="40.68459" lon="-3.78319">
        <ele>928.2</ele>
        <time>2021-11-16 10:40:42</time>
      </trkpt>
      <trkpt lat="40.68461" lon="-3.78332">
        <ele>927.8</ele>
        <time>2021-11-16 10:40:43</time>
      </trkpt>
      <trkpt lat="40.68463" lon="-3.78345">
        <ele>927.4</ele>
        <time>2021-11-16 10:40:44</time>
      </trkpt>
      <trkpt lat="40.68465" lon="-3.78358">
        <ele>927</ele>
        <time>2021-11-16 10:40:45</time>
      </trkpt>
      <trkpt lat="40.68466" lon="-3.78371">
        <ele>927</ele>
        <time>2021-11-16 10:40:46</time>
      </trkpt>
      <trkpt lat="40.68468" lon="-3.78384">
        <ele>926.6</ele>
        <time>2021-11-16 10:40:47</time>
      </trkpt>
      <trkpt lat="40.68469" lon="-3.78397">
        <ele>926.6</ele>
        <time>2021-11-16 10:40:48</time>
      </trkpt>
      <trkpt lat="40.68471" lon="-3.78411">
        <ele>926.2</ele>
        <time>2021-11-16 10:40:49</time>
      </trkpt>
      <trkpt lat="40.68472" lon="-3.78424">
        <ele>926</ele>
        <time>2021-11-16 10:40:50</time>
      </trkpt>
      <trkpt lat="40.68473" lon="-3.78438">
        <ele>925.8</ele>
        <time>2021-11-16 10:40:51</time>
      </trkpt>
      <trkpt lat="40.68471" lon="-3.78451">
        <ele>925.6</ele>
        <time>2021-11-16 10:40:52</time>
      </trkpt>
      <trkpt lat="40.68467" lon="-3.78464">
        <ele>925.4</ele>
        <time>2021-11-16 10:40:53</time>
      </trkpt>
      <trkpt lat="40.68461" lon="-3.78475">
        <ele>924.8</ele>
        <time>2021-11-16 10:40:54</time>
      </trkpt>
      <trkpt lat="40.68454" lon="-3.78486">
        <ele>924.2</ele>
        <time>2021-11-16 10:40:55</time>
      </trkpt>
      <trkpt lat="40.68448" lon="-3.78498">
        <ele>923.6</ele>
        <time>2021-11-16 10:40:56</time>
      </trkpt>
      <trkpt lat="40.68443" lon="-3.7851">
        <ele>922.6</ele>
        <time>2021-11-16 10:40:57</time>
      </trkpt>
      <trkpt lat="40.6844" lon="-3.78523">
        <ele>922</ele>
        <time>2021-11-16 10:40:58</time>
      </trkpt>
      <trkpt lat="40.68437" lon="-3.78536">
        <ele>921.2</ele>
        <time>2021-11-16 10:40:59</time>
      </trkpt>
      <trkpt lat="40.68434" lon="-3.78549">
        <ele>920.6</ele>
        <time>2021-11-16 10:41:00</time>
      </trkpt>
      <trkpt lat="40.6843" lon="-3.78561">
        <ele>920.4</ele>
        <time>2021-11-16 10:41:01</time>
      </trkpt>
      <trkpt lat="40.68427" lon="-3.78572">
        <ele>920.2</ele>
        <time>2021-11-16 10:41:02</time>
      </trkpt>
      <trkpt lat="40.68425" lon="-3.78582">
        <ele>920</ele>
        <time>2021-11-16 10:41:03</time>
      </trkpt>
      <trkpt lat="40.68424" lon="-3.78593">
        <ele>920</ele>
        <time>2021-11-16 10:41:04</time>
      </trkpt>
      <trkpt lat="40.68424" lon="-3.78603">
        <ele>920</ele>
        <time>2021-11-16 10:41:05</time>
      </trkpt>
      <trkpt lat="40.68424" lon="-3.78613">
        <ele>920</ele>
        <time>2021-11-16 10:41:06</time>
      </trkpt>
      <trkpt lat="40.68424" lon="-3.78622">
        <ele>920</ele>
        <time>2021-11-16 10:41:07</time>
      </trkpt>
      <trkpt lat="40.68424" lon="-3.78631">
        <ele>920</ele>
        <time>2021-11-16 10:41:08</time>
      </trkpt>
      <trkpt lat="40.68425" lon="-3.7864">
        <ele>919.8</ele>
        <time>2021-11-16 10:41:09</time>
      </trkpt>
      <trkpt lat="40.68426" lon="-3.78649">
        <ele>920</ele>
        <time>2021-11-16 10:41:10</time>
      </trkpt>
      <trkpt lat="40.68426" lon="-3.78658">
        <ele>920</ele>
        <time>2021-11-16 10:41:11</time>
      </trkpt>
      <trkpt lat="40.68427" lon="-3.78667">
        <ele>920.6</ele>
        <time>2021-11-16 10:41:12</time>
      </trkpt>
      <trkpt lat="40.68427" lon="-3.78675">
        <ele>921</ele>
        <time>2021-11-16 10:41:13</time>
      </trkpt>
      <trkpt lat="40.68428" lon="-3.78683">
        <ele>921.4</ele>
        <time>2021-11-16 10:41:14</time>
      </trkpt>
      <trkpt lat="40.68429" lon="-3.78691">
        <ele>922</ele>
        <time>2021-11-16 10:41:15</time>
      </trkpt>
      <trkpt lat="40.68433" lon="-3.78698">
        <ele>922.4</ele>
        <time>2021-11-16 10:41:16</time>
      </trkpt>
      <trkpt lat="40.68437" lon="-3.78703">
        <ele>922.8</ele>
        <time>2021-11-16 10:41:17</time>
      </trkpt>
      <trkpt lat="40.68443" lon="-3.78707">
        <ele>923</ele>
        <time>2021-11-16 10:41:18</time>
      </trkpt>
      <trkpt lat="40.68449" lon="-3.78709">
        <ele>923.2</ele>
        <time>2021-11-16 10:41:19</time>
      </trkpt>
      <trkpt lat="40.68456" lon="-3.78711">
        <ele>923.2</ele>
        <time>2021-11-16 10:41:20</time>
      </trkpt>
      <trkpt lat="40.68463" lon="-3.78712">
        <ele>923.4</ele>
        <time>2021-11-16 10:41:21</time>
      </trkpt>
      <trkpt lat="40.6847" lon="-3.78714">
        <ele>923.4</ele>
        <time>2021-11-16 10:41:22</time>
      </trkpt>
      <trkpt lat="40.68477" lon="-3.78716">
        <ele>923.4</ele>
        <time>2021-11-16 10:41:23</time>
      </trkpt>
      <trkpt lat="40.68484" lon="-3.78717">
        <ele>923.6</ele>
        <time>2021-11-16 10:41:24</time>
      </trkpt>
      <trkpt lat="40.6849" lon="-3.78714">
        <ele>923.6</ele>
        <time>2021-11-16 10:41:25</time>
      </trkpt>
      <trkpt lat="40.68496" lon="-3.78708">
        <ele>923.4</ele>
        <time>2021-11-16 10:41:26</time>
      </trkpt>
      <trkpt lat="40.685" lon="-3.78699">
        <ele>923.6</ele>
        <time>2021-11-16 10:41:27</time>
      </trkpt>
      <trkpt lat="40.68503" lon="-3.78689">
        <ele>923.4</ele>
        <time>2021-11-16 10:41:28</time>
      </trkpt>
      <trkpt lat="40.68506" lon="-3.78679">
        <ele>923.4</ele>
        <time>2021-11-16 10:41:29</time>
      </trkpt>
      <trkpt lat="40.68509" lon="-3.78669">
        <ele>923.2</ele>
        <time>2021-11-16 10:41:30</time>
      </trkpt>
      <trkpt lat="40.68512" lon="-3.7866">
        <ele>922.8</ele>
        <time>2021-11-16 10:41:31</time>
      </trkpt>
      <trkpt lat="40.68515" lon="-3.78651">
        <ele>922.4</ele>
        <time>2021-11-16 10:41:32</time>
      </trkpt>
      <trkpt lat="40.68518" lon="-3.78642">
        <ele>922.4</ele>
        <time>2021-11-16 10:41:33</time>
      </trkpt>
      <trkpt lat="40.68521" lon="-3.78634">
        <ele>922.2</ele>
        <time>2021-11-16 10:41:34</time>
      </trkpt>
      <trkpt lat="40.68524" lon="-3.78626">
        <ele>922.2</ele>
        <time>2021-11-16 10:41:35</time>
      </trkpt>
      <trkpt lat="40.68528" lon="-3.78619">
        <ele>922</ele>
        <time>2021-11-16 10:41:36</time>
      </trkpt>
      <trkpt lat="40.68532" lon="-3.78613">
        <ele>922</ele>
        <time>2021-11-16 10:41:37</time>
      </trkpt>
      <trkpt lat="40.68536" lon="-3.78608">
        <ele>922</ele>
        <time>2021-11-16 10:41:38</time>
      </trkpt>
      <trkpt lat="40.68541" lon="-3.78603">
        <ele>922</ele>
        <time>2021-11-16 10:41:39</time>
      </trkpt>
      <trkpt lat="40.68545" lon="-3.78599">
        <ele>922</ele>
        <time>2021-11-16 10:41:40</time>
      </trkpt>
      <trkpt lat="40.68549" lon="-3.78595">
        <ele>922</ele>
        <time>2021-11-16 10:41:41</time>
      </trkpt>
      <trkpt lat="40.68554" lon="-3.78591">
        <ele>921.8</ele>
        <time>2021-11-16 10:41:42</time>
      </trkpt>
      <trkpt lat="40.68558" lon="-3.78588">
        <ele>921.8</ele>
        <time>2021-11-16 10:41:43</time>
      </trkpt>
      <trkpt lat="40.68563" lon="-3.78585">
        <ele>922.2</ele>
        <time>2021-11-16 10:41:44</time>
      </trkpt>
      <trkpt lat="40.68567" lon="-3.78583">
        <ele>922.2</ele>
        <time>2021-11-16 10:41:45</time>
      </trkpt>
      <trkpt lat="40.68572" lon="-3.7858">
        <ele>922.6</ele>
        <time>2021-11-16 10:41:46</time>
      </trkpt>
      <trkpt lat="40.68577" lon="-3.78578">
        <ele>922.8</ele>
        <time>2021-11-16 10:41:47</time>
      </trkpt>
      <trkpt lat="40.68581" lon="-3.78575">
        <ele>923.6</ele>
        <time>2021-11-16 10:41:48</time>
      </trkpt>
      <trkpt lat="40.68586" lon="-3.78573">
        <ele>924</ele>
        <time>2021-11-16 10:41:49</time>
      </trkpt>
      <trkpt lat="40.6859" lon="-3.7857">
        <ele>924.4</ele>
        <time>2021-11-16 10:41:50</time>
      </trkpt>
      <trkpt lat="40.68595" lon="-3.78567">
        <ele>924.8</ele>
        <time>2021-11-16 10:41:51</time>
      </trkpt>
      <trkpt lat="40.68599" lon="-3.78565">
        <ele>925</ele>
        <time>2021-11-16 10:41:52</time>
      </trkpt>
      <trkpt lat="40.68603" lon="-3.78563">
        <ele>925.2</ele>
        <time>2021-11-16 10:41:53</time>
      </trkpt>
      <trkpt lat="40.68608" lon="-3.78561">
        <ele>925.4</ele>
        <time>2021-11-16 10:41:54</time>
      </trkpt>
      <trkpt lat="40.68611" lon="-3.78559">
        <ele>926.2</ele>
        <time>2021-11-16 10:41:55</time>
      </trkpt>
      <trkpt lat="40.68615" lon="-3.78558">
        <ele>926.6</ele>
        <time>2021-11-16 10:41:56</time>
      </trkpt>
      <trkpt lat="40.68618" lon="-3.78556">
        <ele>926.8</ele>
        <time>2021-11-16 10:41:57</time>
      </trkpt>
      <trkpt lat="40.68621" lon="-3.78556">
        <ele>927.2</ele>
        <time>2021-11-16 10:41:58</time>
      </trkpt>
      <trkpt lat="40.68623" lon="-3.78556">
        <ele>927.4</ele>
        <time>2021-11-16 10:41:59</time>
      </trkpt>
      <trkpt lat="40.68624" lon="-3.78556">
        <ele>927.6</ele>
        <time>2021-11-16 10:42:00</time>
      </trkpt>
      <trkpt lat="40.68637" lon="-3.78561">
        <ele>932</ele>
        <time>2021-11-16 10:48:01</time>
      </trkpt>
      <trkpt lat="40.6864" lon="-3.78561">
        <ele>929.6</ele>
        <time>2021-11-16 10:48:02</time>
      </trkpt>
      <trkpt lat="40.68644" lon="-3.78562">
        <ele>929.4</ele>
        <time>2021-11-16 10:48:03</time>
      </trkpt>
      <trkpt lat="40.68647" lon="-3.78563">
        <ele>929.4</ele>
        <time>2021-11-16 10:48:04</time>
      </trkpt>
      <trkpt lat="40.68651" lon="-3.78564">
        <ele>929.4</ele>
        <time>2021-11-16 10:48:05</time>
      </trkpt>
      <trkpt lat="40.68655" lon="-3.78565">
        <ele>929.4</ele>
        <time>2021-11-16 10:48:06</time>
      </trkpt>
      <trkpt lat="40.6866" lon="-3.78566">
        <ele>929.6</ele>
        <time>2021-11-16 10:48:07</time>
      </trkpt>
      <trkpt lat="40.68664" lon="-3.78568">
        <ele>929.2</ele>
        <time>2021-11-16 10:48:08</time>
      </trkpt>
      <trkpt lat="40.68669" lon="-3.78569">
        <ele>929</ele>
        <time>2021-11-16 10:48:09</time>
      </trkpt>
      <trkpt lat="40.68674" lon="-3.7857">
        <ele>929.4</ele>
        <time>2021-11-16 10:48:10</time>
      </trkpt>
      <trkpt lat="40.6868" lon="-3.78571">
        <ele>929.2</ele>
        <time>2021-11-16 10:48:11</time>
      </trkpt>
      <trkpt lat="40.68685" lon="-3.78573">
        <ele>928.8</ele>
        <time>2021-11-16 10:48:12</time>
      </trkpt>
      <trkpt lat="40.6869" lon="-3.78574">
        <ele>929.2</ele>
        <time>2021-11-16 10:48:13</time>
      </trkpt>
      <trkpt lat="40.68696" lon="-3.78576">
        <ele>929</ele>
        <time>2021-11-16 10:48:14</time>
      </trkpt>
      <trkpt lat="40.68702" lon="-3.78577">
        <ele>928.2</ele>
        <time>2021-11-16 10:48:15</time>
      </trkpt>
      <trkpt lat="40.68708" lon="-3.78579">
        <ele>928.4</ele>
        <time>2021-11-16 10:48:16</time>
      </trkpt>
      <trkpt lat="40.68714" lon="-3.78581">
        <ele>928</ele>
        <time>2021-11-16 10:48:17</time>
      </trkpt>
      <trkpt lat="40.6872" lon="-3.78583">
        <ele>927.8</ele>
        <time>2021-11-16 10:48:18</time>
      </trkpt>
      <trkpt lat="40.68726" lon="-3.78584">
        <ele>927.8</ele>
        <time>2021-11-16 10:48:19</time>
      </trkpt>
      <trkpt lat="40.68732" lon="-3.78586">
        <ele>928.2</ele>
        <time>2021-11-16 10:48:20</time>
      </trkpt>
      <trkpt lat="40.68739" lon="-3.78588">
        <ele>928.4</ele>
        <time>2021-11-16 10:48:21</time>
      </trkpt>
      <trkpt lat="40.68745" lon="-3.78589">
        <ele>928.6</ele>
        <time>2021-11-16 10:48:22</time>
      </trkpt>
      <trkpt lat="40.68751" lon="-3.78591">
        <ele>928.6</ele>
        <time>2021-11-16 10:48:23</time>
      </trkpt>
      <trkpt lat="40.68758" lon="-3.78593">
        <ele>928.6</ele>
        <time>2021-11-16 10:48:24</time>
      </trkpt>
      <trkpt lat="40.68764" lon="-3.78595">
        <ele>928.4</ele>
        <time>2021-11-16 10:48:25</time>
      </trkpt>
      <trkpt lat="40.6877" lon="-3.78596">
        <ele>928</ele>
        <time>2021-11-16 10:48:26</time>
      </trkpt>
      <trkpt lat="40.68777" lon="-3.78598">
        <ele>928</ele>
        <time>2021-11-16 10:48:27</time>
      </trkpt>
      <trkpt lat="40.68783" lon="-3.786">
        <ele>928</ele>
        <time>2021-11-16 10:48:28</time>
      </trkpt>
      <trkpt lat="40.6879" lon="-3.78602">
        <ele>927.8</ele>
        <time>2021-11-16 10:48:29</time>
      </trkpt>
      <trkpt lat="40.68797" lon="-3.78603">
        <ele>927.8</ele>
        <time>2021-11-16 10:48:30</time>
      </trkpt>
      <trkpt lat="40.68803" lon="-3.78605">
        <ele>928</ele>
        <time>2021-11-16 10:48:31</time>
      </trkpt>
      <trkpt lat="40.68809" lon="-3.78607">
        <ele>927.8</ele>
        <time>2021-11-16 10:48:32</time>
      </trkpt>
      <trkpt lat="40.68816" lon="-3.78609">
        <ele>927.6</ele>
        <time>2021-11-16 10:48:33</time>
      </trkpt>
      <trkpt lat="40.68823" lon="-3.7861">
        <ele>927.8</ele>
        <time>2021-11-16 10:48:34</time>
      </trkpt>
      <trkpt lat="40.68829" lon="-3.78612">
        <ele>927.8</ele>
        <time>2021-11-16 10:48:35</time>
      </trkpt>
      <trkpt lat="40.68836" lon="-3.78614">
        <ele>927.6</ele>
        <time>2021-11-16 10:48:36</time>
      </trkpt>
      <trkpt lat="40.68842" lon="-3.78616">
        <ele>927.6</ele>
        <time>2021-11-16 10:48:37</time>
      </trkpt>
      <trkpt lat="40.68849" lon="-3.78618">
        <ele>927.6</ele>
        <time>2021-11-16 10:48:38</time>
      </trkpt>
      <trkpt lat="40.68856" lon="-3.7862">
        <ele>927.6</ele>
        <time>2021-11-16 10:48:39</time>
      </trkpt>
      <trkpt lat="40.68862" lon="-3.78621">
        <ele>927.6</ele>
        <time>2021-11-16 10:48:40</time>
      </trkpt>
      <trkpt lat="40.68869" lon="-3.78623">
        <ele>927.4</ele>
        <time>2021-11-16 10:48:41</time>
      </trkpt>
      <trkpt lat="40.68875" lon="-3.78625">
        <ele>927.4</ele>
        <time>2021-11-16 10:48:42</time>
      </trkpt>
      <trkpt lat="40.68882" lon="-3.78627">
        <ele>927.4</ele>
        <time>2021-11-16 10:48:43</time>
      </trkpt>
      <trkpt lat="40.68889" lon="-3.78629">
        <ele>927.4</ele>
        <time>2021-11-16 10:48:44</time>
      </trkpt>
      <trkpt lat="40.68895" lon="-3.78631">
        <ele>927.6</ele>
        <time>2021-11-16 10:48:45</time>
      </trkpt>
      <trkpt lat="40.68902" lon="-3.78633">
        <ele>927.4</ele>
        <time>2021-11-16 10:48:46</time>
      </trkpt>
      <trkpt lat="40.68909" lon="-3.78634">
        <ele>927.4</ele>
        <time>2021-11-16 10:48:47</time>
      </trkpt>
      <trkpt lat="40.68915" lon="-3.78636">
        <ele>927.6</ele>
        <time>2021-11-16 10:48:48</time>
      </trkpt>
      <trkpt lat="40.68922" lon="-3.78638">
        <ele>927.6</ele>
        <time>2021-11-16 10:48:49</time>
      </trkpt>
      <trkpt lat="40.68928" lon="-3.7864">
        <ele>927.4</ele>
        <time>2021-11-16 10:48:50</time>
      </trkpt>
      <trkpt lat="40.68935" lon="-3.78642">
        <ele>927.2</ele>
        <time>2021-11-16 10:48:51</time>
      </trkpt>
      <trkpt lat="40.68942" lon="-3.78643">
        <ele>927</ele>
        <time>2021-11-16 10:48:52</time>
      </trkpt>
      <trkpt lat="40.68948" lon="-3.78645">
        <ele>927</ele>
        <time>2021-11-16 10:48:53</time>
      </trkpt>
      <trkpt lat="40.68955" lon="-3.78647">
        <ele>927.2</ele>
        <time>2021-11-16 10:48:54</time>
      </trkpt>
      <trkpt lat="40.68961" lon="-3.78648">
        <ele>927</ele>
        <time>2021-11-16 10:48:55</time>
      </trkpt>
      <trkpt lat="40.68968" lon="-3.7865">
        <ele>927.2</ele>
        <time>2021-11-16 10:48:56</time>
      </trkpt>
      <trkpt lat="40.68974" lon="-3.78652">
        <ele>927</ele>
        <time>2021-11-16 10:48:57</time>
      </trkpt>
      <trkpt lat="40.68981" lon="-3.78654">
        <ele>927</ele>
        <time>2021-11-16 10:48:58</time>
      </trkpt>
      <trkpt lat="40.68988" lon="-3.78656">
        <ele>927</ele>
        <time>2021-11-16 10:48:59</time>
      </trkpt>
      <trkpt lat="40.68994" lon="-3.78658">
        <ele>927</ele>
        <time>2021-11-16 10:49:00</time>
      </trkpt>
      <trkpt lat="40.69001" lon="-3.7866">
        <ele>927</ele>
        <time>2021-11-16 10:49:01</time>
      </trkpt>
      <trkpt lat="40.69007" lon="-3.78661">
        <ele>927.2</ele>
        <time>2021-11-16 10:49:02</time>
      </trkpt>
      <trkpt lat="40.69014" lon="-3.78663">
        <ele>927</ele>
        <time>2021-11-16 10:49:03</time>
      </trkpt>
      <trkpt lat="40.69021" lon="-3.78665">
        <ele>927.2</ele>
        <time>2021-11-16 10:49:04</time>
      </trkpt>
      <trkpt lat="40.69028" lon="-3.78667">
        <ele>927.2</ele>
        <time>2021-11-16 10:49:05</time>
      </trkpt>
      <trkpt lat="40.69034" lon="-3.78669">
        <ele>927.2</ele>
        <time>2021-11-16 10:49:06</time>
      </trkpt>
      <trkpt lat="40.69041" lon="-3.78671">
        <ele>927.2</ele>
        <time>2021-11-16 10:49:07</time>
      </trkpt>
      <trkpt lat="40.69047" lon="-3.78672">
        <ele>927.2</ele>
        <time>2021-11-16 10:49:08</time>
      </trkpt>
      <trkpt lat="40.69054" lon="-3.78674">
        <ele>927</ele>
        <time>2021-11-16 10:49:09</time>
      </trkpt>
      <trkpt lat="40.69061" lon="-3.78676">
        <ele>927.2</ele>
        <time>2021-11-16 10:49:10</time>
      </trkpt>
      <trkpt lat="40.69068" lon="-3.78678">
        <ele>927.2</ele>
        <time>2021-11-16 10:49:11</time>
      </trkpt>
      <trkpt lat="40.69074" lon="-3.7868">
        <ele>927.2</ele>
        <time>2021-11-16 10:49:12</time>
      </trkpt>
      <trkpt lat="40.69081" lon="-3.78682">
        <ele>927.2</ele>
        <time>2021-11-16 10:49:13</time>
      </trkpt>
      <trkpt lat="40.69088" lon="-3.78684">
        <ele>927</ele>
        <time>2021-11-16 10:49:14</time>
      </trkpt>
      <trkpt lat="40.69094" lon="-3.78686">
        <ele>927.2</ele>
        <time>2021-11-16 10:49:15</time>
      </trkpt>
      <trkpt lat="40.69101" lon="-3.78688">
        <ele>927.2</ele>
        <time>2021-11-16 10:49:16</time>
      </trkpt>
      <trkpt lat="40.69108" lon="-3.7869">
        <ele>927.2</ele>
        <time>2021-11-16 10:49:17</time>
      </trkpt>
      <trkpt lat="40.69114" lon="-3.78692">
        <ele>927.2</ele>
        <time>2021-11-16 10:49:18</time>
      </trkpt>
      <trkpt lat="40.69121" lon="-3.78694">
        <ele>927</ele>
        <time>2021-11-16 10:49:19</time>
      </trkpt>
      <trkpt lat="40.69127" lon="-3.78697">
        <ele>927.2</ele>
        <time>2021-11-16 10:49:20</time>
      </trkpt>
      <trkpt lat="40.69134" lon="-3.78699">
        <ele>927.2</ele>
        <time>2021-11-16 10:49:21</time>
      </trkpt>
      <trkpt lat="40.6914" lon="-3.78702">
        <ele>927</ele>
        <time>2021-11-16 10:49:22</time>
      </trkpt>
      <trkpt lat="40.69147" lon="-3.78705">
        <ele>927</ele>
        <time>2021-11-16 10:49:23</time>
      </trkpt>
      <trkpt lat="40.69154" lon="-3.78708">
        <ele>927</ele>
        <time>2021-11-16 10:49:24</time>
      </trkpt>
      <trkpt lat="40.6916" lon="-3.7871">
        <ele>927</ele>
        <time>2021-11-16 10:49:25</time>
      </trkpt>
      <trkpt lat="40.69167" lon="-3.78713">
        <ele>926.8</ele>
        <time>2021-11-16 10:49:26</time>
      </trkpt>
      <trkpt lat="40.69173" lon="-3.78716">
        <ele>927</ele>
        <time>2021-11-16 10:49:27</time>
      </trkpt>
      <trkpt lat="40.69179" lon="-3.78719">
        <ele>927</ele>
        <time>2021-11-16 10:49:28</time>
      </trkpt>
      <trkpt lat="40.69186" lon="-3.78722">
        <ele>927</ele>
        <time>2021-11-16 10:49:29</time>
      </trkpt>
      <trkpt lat="40.69192" lon="-3.78725">
        <ele>926.8</ele>
        <time>2021-11-16 10:49:30</time>
      </trkpt>
      <trkpt lat="40.69198" lon="-3.78727">
        <ele>927</ele>
        <time>2021-11-16 10:49:31</time>
      </trkpt>
      <trkpt lat="40.69205" lon="-3.7873">
        <ele>926.8</ele>
        <time>2021-11-16 10:49:32</time>
      </trkpt>
      <trkpt lat="40.69211" lon="-3.78733">
        <ele>926.8</ele>
        <time>2021-11-16 10:49:33</time>
      </trkpt>
      <trkpt lat="40.69217" lon="-3.78736">
        <ele>927</ele>
        <time>2021-11-16 10:49:34</time>
      </trkpt>
      <trkpt lat="40.69223" lon="-3.78738">
        <ele>926.8</ele>
        <time>2021-11-16 10:49:35</time>
      </trkpt>
      <trkpt lat="40.6923" lon="-3.78741">
        <ele>927</ele>
        <time>2021-11-16 10:49:36</time>
      </trkpt>
      <trkpt lat="40.69236" lon="-3.78744">
        <ele>927</ele>
        <time>2021-11-16 10:49:37</time>
      </trkpt>
      <trkpt lat="40.69242" lon="-3.78746">
        <ele>927</ele>
        <time>2021-11-16 10:49:38</time>
      </trkpt>
      <trkpt lat="40.69249" lon="-3.78749">
        <ele>927</ele>
        <time>2021-11-16 10:49:39</time>
      </trkpt>
      <trkpt lat="40.69255" lon="-3.78752">
        <ele>927</ele>
        <time>2021-11-16 10:49:40</time>
      </trkpt>
      <trkpt lat="40.69261" lon="-3.78755">
        <ele>927.2</ele>
        <time>2021-11-16 10:49:41</time>
      </trkpt>
      <trkpt lat="40.69267" lon="-3.78758">
        <ele>927.4</ele>
        <time>2021-11-16 10:49:42</time>
      </trkpt>
      <trkpt lat="40.69273" lon="-3.78761">
        <ele>927.4</ele>
        <time>2021-11-16 10:49:43</time>
      </trkpt>
      <trkpt lat="40.69279" lon="-3.78764">
        <ele>927.4</ele>
        <time>2021-11-16 10:49:44</time>
      </trkpt>
      <trkpt lat="40.69285" lon="-3.78767">
        <ele>927.6</ele>
        <time>2021-11-16 10:49:45</time>
      </trkpt>
      <trkpt lat="40.69291" lon="-3.7877">
        <ele>927.8</ele>
        <time>2021-11-16 10:49:46</time>
      </trkpt>
      <trkpt lat="40.69297" lon="-3.78772">
        <ele>927.8</ele>
        <time>2021-11-16 10:49:47</time>
      </trkpt>
      <trkpt lat="40.69303" lon="-3.78775">
        <ele>928</ele>
        <time>2021-11-16 10:49:48</time>
      </trkpt>
      <trkpt lat="40.69309" lon="-3.78778">
        <ele>928</ele>
        <time>2021-11-16 10:49:49</time>
      </trkpt>
      <trkpt lat="40.69315" lon="-3.7878">
        <ele>928</ele>
        <time>2021-11-16 10:49:50</time>
      </trkpt>
      <trkpt lat="40.69321" lon="-3.78783">
        <ele>928.2</ele>
        <time>2021-11-16 10:49:51</time>
      </trkpt>
      <trkpt lat="40.69327" lon="-3.78785">
        <ele>928.2</ele>
        <time>2021-11-16 10:49:52</time>
      </trkpt>
      <trkpt lat="40.69334" lon="-3.78788">
        <ele>928.2</ele>
        <time>2021-11-16 10:49:53</time>
      </trkpt>
      <trkpt lat="40.6934" lon="-3.7879">
        <ele>928.4</ele>
        <time>2021-11-16 10:49:54</time>
      </trkpt>
      <trkpt lat="40.69346" lon="-3.78793">
        <ele>928.6</ele>
        <time>2021-11-16 10:49:55</time>
      </trkpt>
      <trkpt lat="40.69352" lon="-3.78795">
        <ele>928.6</ele>
        <time>2021-11-16 10:49:56</time>
      </trkpt>
      <trkpt lat="40.69358" lon="-3.78797">
        <ele>928.6</ele>
        <time>2021-11-16 10:49:57</time>
      </trkpt>
      <trkpt lat="40.69365" lon="-3.788">
        <ele>928.8</ele>
        <time>2021-11-16 10:49:58</time>
      </trkpt>
      <trkpt lat="40.69371" lon="-3.78802">
        <ele>928.8</ele>
        <time>2021-11-16 10:49:59</time>
      </trkpt>
      <trkpt lat="40.69377" lon="-3.78804">
        <ele>929</ele>
        <time>2021-11-16 10:50:00</time>
      </trkpt>
      <trkpt lat="40.69384" lon="-3.78806">
        <ele>929</ele>
        <time>2021-11-16 10:50:01</time>
      </trkpt>
      <trkpt lat="40.6939" lon="-3.78809">
        <ele>929</ele>
        <time>2021-11-16 10:50:02</time>
      </trkpt>
      <trkpt lat="40.69396" lon="-3.78811">
        <ele>929.2</ele>
        <time>2021-11-16 10:50:03</time>
      </trkpt>
      <trkpt lat="40.69403" lon="-3.78813">
        <ele>929.4</ele>
        <time>2021-11-16 10:50:04</time>
      </trkpt>
      <trkpt lat="40.69409" lon="-3.78816">
        <ele>929.6</ele>
        <time>2021-11-16 10:50:05</time>
      </trkpt>
      <trkpt lat="40.69416" lon="-3.78818">
        <ele>929.4</ele>
        <time>2021-11-16 10:50:06</time>
      </trkpt>
      <trkpt lat="40.69422" lon="-3.78821">
        <ele>929.4</ele>
        <time>2021-11-16 10:50:07</time>
      </trkpt>
      <trkpt lat="40.69428" lon="-3.78824">
        <ele>929.4</ele>
        <time>2021-11-16 10:50:08</time>
      </trkpt>
      <trkpt lat="40.69434" lon="-3.78829">
        <ele>929.6</ele>
        <time>2021-11-16 10:50:09</time>
      </trkpt>
      <trkpt lat="40.69437" lon="-3.78835">
        <ele>929.4</ele>
        <time>2021-11-16 10:50:10</time>
      </trkpt>
      <trkpt lat="40.69441" lon="-3.78841">
        <ele>929.4</ele>
        <time>2021-11-16 10:50:11</time>
      </trkpt>
      <trkpt lat="40.69445" lon="-3.78846">
        <ele>929.4</ele>
        <time>2021-11-16 10:50:12</time>
      </trkpt>
      <trkpt lat="40.6945" lon="-3.78849">
        <ele>929.6</ele>
        <time>2021-11-16 10:50:13</time>
      </trkpt>
      <trkpt lat="40.69456" lon="-3.78849">
        <ele>929.6</ele>
        <time>2021-11-16 10:50:14</time>
      </trkpt>
      <trkpt lat="40.69461" lon="-3.78847">
        <ele>929.4</ele>
        <time>2021-11-16 10:50:15</time>
      </trkpt>
      <trkpt lat="40.69466" lon="-3.78844">
        <ele>929.4</ele>
        <time>2021-11-16 10:50:16</time>
      </trkpt>
      <trkpt lat="40.69471" lon="-3.78842">
        <ele>929.4</ele>
        <time>2021-11-16 10:50:17</time>
      </trkpt>
      <trkpt lat="40.69476" lon="-3.78842">
        <ele>929.4</ele>
        <time>2021-11-16 10:50:18</time>
      </trkpt>
      <trkpt lat="40.69482" lon="-3.78844">
        <ele>929.4</ele>
        <time>2021-11-16 10:50:19</time>
      </trkpt>
      <trkpt lat="40.69488" lon="-3.78846">
        <ele>929.4</ele>
        <time>2021-11-16 10:50:20</time>
      </trkpt>
      <trkpt lat="40.69493" lon="-3.78848">
        <ele>929.4</ele>
        <time>2021-11-16 10:50:21</time>
      </trkpt>
      <trkpt lat="40.69499" lon="-3.7885">
        <ele>929.4</ele>
        <time>2021-11-16 10:50:22</time>
      </trkpt>
      <trkpt lat="40.69505" lon="-3.78851">
        <ele>929.2</ele>
        <time>2021-11-16 10:50:23</time>
      </trkpt>
      <trkpt lat="40.69511" lon="-3.78853">
        <ele>929.2</ele>
        <time>2021-11-16 10:50:24</time>
      </trkpt>
      <trkpt lat="40.69517" lon="-3.78856">
        <ele>929.2</ele>
        <time>2021-11-16 10:50:25</time>
      </trkpt>
      <trkpt lat="40.69523" lon="-3.78858">
        <ele>929.2</ele>
        <time>2021-11-16 10:50:26</time>
      </trkpt>
      <trkpt lat="40.69529" lon="-3.7886">
        <ele>929</ele>
        <time>2021-11-16 10:50:27</time>
      </trkpt>
      <trkpt lat="40.69535" lon="-3.78862">
        <ele>929.2</ele>
        <time>2021-11-16 10:50:28</time>
      </trkpt>
      <trkpt lat="40.69541" lon="-3.78864">
        <ele>929</ele>
        <time>2021-11-16 10:50:29</time>
      </trkpt>
      <trkpt lat="40.69547" lon="-3.78866">
        <ele>929</ele>
        <time>2021-11-16 10:50:30</time>
      </trkpt>
      <trkpt lat="40.69553" lon="-3.78868">
        <ele>929</ele>
        <time>2021-11-16 10:50:31</time>
      </trkpt>
      <trkpt lat="40.69559" lon="-3.78871">
        <ele>929</ele>
        <time>2021-11-16 10:50:32</time>
      </trkpt>
      <trkpt lat="40.69566" lon="-3.78873">
        <ele>929</ele>
        <time>2021-11-16 10:50:33</time>
      </trkpt>
      <trkpt lat="40.69572" lon="-3.78875">
        <ele>929</ele>
        <time>2021-11-16 10:50:34</time>
      </trkpt>
      <trkpt lat="40.69578" lon="-3.78877">
        <ele>928.8</ele>
        <time>2021-11-16 10:50:35</time>
      </trkpt>
      <trkpt lat="40.69584" lon="-3.78879">
        <ele>928.8</ele>
        <time>2021-11-16 10:50:36</time>
      </trkpt>
      <trkpt lat="40.6959" lon="-3.78881">
        <ele>928.6</ele>
        <time>2021-11-16 10:50:37</time>
      </trkpt>
      <trkpt lat="40.69597" lon="-3.78883">
        <ele>928.8</ele>
        <time>2021-11-16 10:50:38</time>
      </trkpt>
      <trkpt lat="40.69603" lon="-3.78885">
        <ele>928.8</ele>
        <time>2021-11-16 10:50:39</time>
      </trkpt>
      <trkpt lat="40.69609" lon="-3.78887">
        <ele>928.8</ele>
        <time>2021-11-16 10:50:40</time>
      </trkpt>
      <trkpt lat="40.69616" lon="-3.78889">
        <ele>928.8</ele>
        <time>2021-11-16 10:50:41</time>
      </trkpt>
      <trkpt lat="40.69622" lon="-3.78891">
        <ele>929</ele>
        <time>2021-11-16 10:50:42</time>
      </trkpt>
      <trkpt lat="40.69628" lon="-3.78892">
        <ele>928.8</ele>
        <time>2021-11-16 10:50:43</time>
      </trkpt>
      <trkpt lat="40.69635" lon="-3.78894">
        <ele>929</ele>
        <time>2021-11-16 10:50:44</time>
      </trkpt>
      <trkpt lat="40.69641" lon="-3.78896">
        <ele>929</ele>
        <time>2021-11-16 10:50:45</time>
      </trkpt>
      <trkpt lat="40.69648" lon="-3.78898">
        <ele>928.8</ele>
        <time>2021-11-16 10:50:46</time>
      </trkpt>
      <trkpt lat="40.69654" lon="-3.789">
        <ele>928.8</ele>
        <time>2021-11-16 10:50:47</time>
      </trkpt>
      <trkpt lat="40.69661" lon="-3.78903">
        <ele>928.8</ele>
        <time>2021-11-16 10:50:48</time>
      </trkpt>
      <trkpt lat="40.69667" lon="-3.78905">
        <ele>929</ele>
        <time>2021-11-16 10:50:49</time>
      </trkpt>
      <trkpt lat="40.69674" lon="-3.78907">
        <ele>929</ele>
        <time>2021-11-16 10:50:50</time>
      </trkpt>
      <trkpt lat="40.6968" lon="-3.78909">
        <ele>929</ele>
        <time>2021-11-16 10:50:51</time>
      </trkpt>
      <trkpt lat="40.69687" lon="-3.78911">
        <ele>929</ele>
        <time>2021-11-16 10:50:52</time>
      </trkpt>
      <trkpt lat="40.69693" lon="-3.78914">
        <ele>929</ele>
        <time>2021-11-16 10:50:53</time>
      </trkpt>
      <trkpt lat="40.69699" lon="-3.78916">
        <ele>929</ele>
        <time>2021-11-16 10:50:54</time>
      </trkpt>
      <trkpt lat="40.69706" lon="-3.78918">
        <ele>929</ele>
        <time>2021-11-16 10:50:55</time>
      </trkpt>
      <trkpt lat="40.69712" lon="-3.78921">
        <ele>929</ele>
        <time>2021-11-16 10:50:56</time>
      </trkpt>
      <trkpt lat="40.69719" lon="-3.78923">
        <ele>929</ele>
        <time>2021-11-16 10:50:57</time>
      </trkpt>
      <trkpt lat="40.69725" lon="-3.78925">
        <ele>929</ele>
        <time>2021-11-16 10:50:58</time>
      </trkpt>
      <trkpt lat="40.69732" lon="-3.78927">
        <ele>929</ele>
        <time>2021-11-16 10:50:59</time>
      </trkpt>
      <trkpt lat="40.69738" lon="-3.7893">
        <ele>928.8</ele>
        <time>2021-11-16 10:51:00</time>
      </trkpt>
      <trkpt lat="40.69744" lon="-3.78932">
        <ele>929</ele>
        <time>2021-11-16 10:51:01</time>
      </trkpt>
      <trkpt lat="40.69751" lon="-3.78934">
        <ele>928.8</ele>
        <time>2021-11-16 10:51:02</time>
      </trkpt>
      <trkpt lat="40.69757" lon="-3.78937">
        <ele>929</ele>
        <time>2021-11-16 10:51:03</time>
      </trkpt>
      <trkpt lat="40.69764" lon="-3.78939">
        <ele>929</ele>
        <time>2021-11-16 10:51:04</time>
      </trkpt>
      <trkpt lat="40.6977" lon="-3.78941">
        <ele>928.8</ele>
        <time>2021-11-16 10:51:05</time>
      </trkpt>
      <trkpt lat="40.69777" lon="-3.78944">
        <ele>929</ele>
        <time>2021-11-16 10:51:06</time>
      </trkpt>
      <trkpt lat="40.69783" lon="-3.78946">
        <ele>929</ele>
        <time>2021-11-16 10:51:07</time>
      </trkpt>
      <trkpt lat="40.69789" lon="-3.78948">
        <ele>929</ele>
        <time>2021-11-16 10:51:08</time>
      </trkpt>
      <trkpt lat="40.69796" lon="-3.7895">
        <ele>929</ele>
        <time>2021-11-16 10:51:09</time>
      </trkpt>
      <trkpt lat="40.69802" lon="-3.78953">
        <ele>928.8</ele>
        <time>2021-11-16 10:51:10</time>
      </trkpt>
      <trkpt lat="40.69809" lon="-3.78955">
        <ele>929.2</ele>
        <time>2021-11-16 10:51:11</time>
      </trkpt>
      <trkpt lat="40.69815" lon="-3.78958">
        <ele>929</ele>
        <time>2021-11-16 10:51:12</time>
      </trkpt>
      <trkpt lat="40.69821" lon="-3.7896">
        <ele>929</ele>
        <time>2021-11-16 10:51:13</time>
      </trkpt>
      <trkpt lat="40.69828" lon="-3.78962">
        <ele>929.2</ele>
        <time>2021-11-16 10:51:14</time>
      </trkpt>
      <trkpt lat="40.69834" lon="-3.78964">
        <ele>929.4</ele>
        <time>2021-11-16 10:51:15</time>
      </trkpt>
      <trkpt lat="40.6984" lon="-3.78967">
        <ele>929.4</ele>
        <time>2021-11-16 10:51:16</time>
      </trkpt>
      <trkpt lat="40.69846" lon="-3.78969">
        <ele>929.4</ele>
        <time>2021-11-16 10:51:17</time>
      </trkpt>
      <trkpt lat="40.69852" lon="-3.78971">
        <ele>929.2</ele>
        <time>2021-11-16 10:51:18</time>
      </trkpt>
      <trkpt lat="40.69858" lon="-3.78973">
        <ele>929.4</ele>
        <time>2021-11-16 10:51:19</time>
      </trkpt>
      <trkpt lat="40.69864" lon="-3.78976">
        <ele>929.4</ele>
        <time>2021-11-16 10:51:20</time>
      </trkpt>
      <trkpt lat="40.69871" lon="-3.78978">
        <ele>929.4</ele>
        <time>2021-11-16 10:51:21</time>
      </trkpt>
      <trkpt lat="40.69877" lon="-3.7898">
        <ele>929.4</ele>
        <time>2021-11-16 10:51:22</time>
      </trkpt>
      <trkpt lat="40.69882" lon="-3.78982">
        <ele>929.6</ele>
        <time>2021-11-16 10:51:23</time>
      </trkpt>
      <trkpt lat="40.69888" lon="-3.78985">
        <ele>929.6</ele>
        <time>2021-11-16 10:51:24</time>
      </trkpt>
      <trkpt lat="40.69894" lon="-3.78987">
        <ele>929.6</ele>
        <time>2021-11-16 10:51:25</time>
      </trkpt>
      <trkpt lat="40.699" lon="-3.7899">
        <ele>929.4</ele>
        <time>2021-11-16 10:51:26</time>
      </trkpt>
      <trkpt lat="40.69906" lon="-3.78992">
        <ele>929.4</ele>
        <time>2021-11-16 10:51:27</time>
      </trkpt>
      <trkpt lat="40.69912" lon="-3.78995">
        <ele>929.4</ele>
        <time>2021-11-16 10:51:28</time>
      </trkpt>
      <trkpt lat="40.69918" lon="-3.78998">
        <ele>929.4</ele>
        <time>2021-11-16 10:51:29</time>
      </trkpt>
      <trkpt lat="40.69924" lon="-3.79001">
        <ele>929.4</ele>
        <time>2021-11-16 10:51:30</time>
      </trkpt>
      <trkpt lat="40.69931" lon="-3.79004">
        <ele>929.4</ele>
        <time>2021-11-16 10:51:31</time>
      </trkpt>
      <trkpt lat="40.69936" lon="-3.79007">
        <ele>929.4</ele>
        <time>2021-11-16 10:51:32</time>
      </trkpt>
      <trkpt lat="40.69942" lon="-3.79011">
        <ele>929.2</ele>
        <time>2021-11-16 10:51:33</time>
      </trkpt>
      <trkpt lat="40.69948" lon="-3.79014">
        <ele>929.4</ele>
        <time>2021-11-16 10:51:34</time>
      </trkpt>
      <trkpt lat="40.69954" lon="-3.79017">
        <ele>929</ele>
        <time>2021-11-16 10:51:35</time>
      </trkpt>
      <trkpt lat="40.6996" lon="-3.79021">
        <ele>929</ele>
        <time>2021-11-16 10:51:36</time>
      </trkpt>
      <trkpt lat="40.69966" lon="-3.79025">
        <ele>929</ele>
        <time>2021-11-16 10:51:37</time>
      </trkpt>
      <trkpt lat="40.69972" lon="-3.79028">
        <ele>929</ele>
        <time>2021-11-16 10:51:38</time>
      </trkpt>
      <trkpt lat="40.69978" lon="-3.79032">
        <ele>928.8</ele>
        <time>2021-11-16 10:51:39</time>
      </trkpt>
      <trkpt lat="40.69984" lon="-3.79036">
        <ele>928.8</ele>
        <time>2021-11-16 10:51:40</time>
      </trkpt>
      <trkpt lat="40.6999" lon="-3.7904">
        <ele>928.8</ele>
        <time>2021-11-16 10:51:41</time>
      </trkpt>
      <trkpt lat="40.69996" lon="-3.79044">
        <ele>928.8</ele>
        <time>2021-11-16 10:51:42</time>
      </trkpt>
      <trkpt lat="40.70003" lon="-3.79049">
        <ele>928.6</ele>
        <time>2021-11-16 10:51:43</time>
      </trkpt>
      <trkpt lat="40.70009" lon="-3.79054">
        <ele>928.6</ele>
        <time>2021-11-16 10:51:44</time>
      </trkpt>
      <trkpt lat="40.70015" lon="-3.79058">
        <ele>928.6</ele>
        <time>2021-11-16 10:51:45</time>
      </trkpt>
      <trkpt lat="40.70021" lon="-3.79063">
        <ele>928.2</ele>
        <time>2021-11-16 10:51:46</time>
      </trkpt>
      <trkpt lat="40.70028" lon="-3.79068">
        <ele>928.4</ele>
        <time>2021-11-16 10:51:47</time>
      </trkpt>
      <trkpt lat="40.70034" lon="-3.79074">
        <ele>928.2</ele>
        <time>2021-11-16 10:51:48</time>
      </trkpt>
      <trkpt lat="40.7004" lon="-3.79079">
        <ele>927.8</ele>
        <time>2021-11-16 10:51:49</time>
      </trkpt>
      <trkpt lat="40.70047" lon="-3.79084">
        <ele>927.8</ele>
        <time>2021-11-16 10:51:50</time>
      </trkpt>
      <trkpt lat="40.70054" lon="-3.79089">
        <ele>927.6</ele>
        <time>2021-11-16 10:51:51</time>
      </trkpt>
      <trkpt lat="40.7006" lon="-3.79095">
        <ele>927.4</ele>
        <time>2021-11-16 10:51:52</time>
      </trkpt>
      <trkpt lat="40.70067" lon="-3.79101">
        <ele>927.2</ele>
        <time>2021-11-16 10:51:53</time>
      </trkpt>
      <trkpt lat="40.70074" lon="-3.79106">
        <ele>927.2</ele>
        <time>2021-11-16 10:51:54</time>
      </trkpt>
      <trkpt lat="40.70081" lon="-3.79112">
        <ele>927.2</ele>
        <time>2021-11-16 10:51:55</time>
      </trkpt>
      <trkpt lat="40.70088" lon="-3.79118">
        <ele>926.8</ele>
        <time>2021-11-16 10:51:56</time>
      </trkpt>
      <trkpt lat="40.70096" lon="-3.79124">
        <ele>926.6</ele>
        <time>2021-11-16 10:51:57</time>
      </trkpt>
      <trkpt lat="40.70103" lon="-3.7913">
        <ele>926.4</ele>
        <time>2021-11-16 10:51:58</time>
      </trkpt>
      <trkpt lat="40.7011" lon="-3.79136">
        <ele>926.2</ele>
        <time>2021-11-16 10:51:59</time>
      </trkpt>
      <trkpt lat="40.70117" lon="-3.79142">
        <ele>925.8</ele>
        <time>2021-11-16 10:52:00</time>
      </trkpt>
      <trkpt lat="40.70125" lon="-3.79148">
        <ele>925.4</ele>
        <time>2021-11-16 10:52:01</time>
      </trkpt>
      <trkpt lat="40.70132" lon="-3.79155">
        <ele>925.2</ele>
        <time>2021-11-16 10:52:02</time>
      </trkpt>
      <trkpt lat="40.70139" lon="-3.79161">
        <ele>924.8</ele>
        <time>2021-11-16 10:52:03</time>
      </trkpt>
      <trkpt lat="40.70146" lon="-3.79167">
        <ele>924.8</ele>
        <time>2021-11-16 10:52:04</time>
      </trkpt>
      <trkpt lat="40.70153" lon="-3.79173">
        <ele>924.2</ele>
        <time>2021-11-16 10:52:05</time>
      </trkpt>
      <trkpt lat="40.70161" lon="-3.79179">
        <ele>923.6</ele>
        <time>2021-11-16 10:52:06</time>
      </trkpt>
      <trkpt lat="40.70168" lon="-3.79185">
        <ele>923.2</ele>
        <time>2021-11-16 10:52:07</time>
      </trkpt>
      <trkpt lat="40.70175" lon="-3.79191">
        <ele>923</ele>
        <time>2021-11-16 10:52:08</time>
      </trkpt>
      <trkpt lat="40.70183" lon="-3.79197">
        <ele>922.6</ele>
        <time>2021-11-16 10:52:09</time>
      </trkpt>
      <trkpt lat="40.7019" lon="-3.79203">
        <ele>922.2</ele>
        <time>2021-11-16 10:52:10</time>
      </trkpt>
      <trkpt lat="40.70197" lon="-3.79209">
        <ele>922</ele>
        <time>2021-11-16 10:52:11</time>
      </trkpt>
      <trkpt lat="40.70205" lon="-3.79215">
        <ele>921.6</ele>
        <time>2021-11-16 10:52:12</time>
      </trkpt>
      <trkpt lat="40.70212" lon="-3.79221">
        <ele>921.6</ele>
        <time>2021-11-16 10:52:13</time>
      </trkpt>
      <trkpt lat="40.7022" lon="-3.79226">
        <ele>921.6</ele>
        <time>2021-11-16 10:52:14</time>
      </trkpt>
      <trkpt lat="40.70227" lon="-3.79232">
        <ele>921.2</ele>
        <time>2021-11-16 10:52:15</time>
      </trkpt>
      <trkpt lat="40.70235" lon="-3.79238">
        <ele>921</ele>
        <time>2021-11-16 10:52:16</time>
      </trkpt>
      <trkpt lat="40.70242" lon="-3.79243">
        <ele>920.6</ele>
        <time>2021-11-16 10:52:17</time>
      </trkpt>
      <trkpt lat="40.7025" lon="-3.79249">
        <ele>920.6</ele>
        <time>2021-11-16 10:52:18</time>
      </trkpt>
      <trkpt lat="40.70257" lon="-3.79255">
        <ele>920.4</ele>
        <time>2021-11-16 10:52:19</time>
      </trkpt>
      <trkpt lat="40.70265" lon="-3.7926">
        <ele>920</ele>
        <time>2021-11-16 10:52:20</time>
      </trkpt>
      <trkpt lat="40.70272" lon="-3.79266">
        <ele>919.8</ele>
        <time>2021-11-16 10:52:21</time>
      </trkpt>
      <trkpt lat="40.70279" lon="-3.79272">
        <ele>919.8</ele>
        <time>2021-11-16 10:52:22</time>
      </trkpt>
      <trkpt lat="40.70287" lon="-3.79277">
        <ele>919.6</ele>
        <time>2021-11-16 10:52:23</time>
      </trkpt>
      <trkpt lat="40.70294" lon="-3.79282">
        <ele>919.6</ele>
        <time>2021-11-16 10:52:24</time>
      </trkpt>
      <trkpt lat="40.70301" lon="-3.79287">
        <ele>919.4</ele>
        <time>2021-11-16 10:52:25</time>
      </trkpt>
      <trkpt lat="40.70309" lon="-3.79291">
        <ele>919.2</ele>
        <time>2021-11-16 10:52:26</time>
      </trkpt>
      <trkpt lat="40.70316" lon="-3.79295">
        <ele>919</ele>
        <time>2021-11-16 10:52:27</time>
      </trkpt>
      <trkpt lat="40.70323" lon="-3.79299">
        <ele>918.8</ele>
        <time>2021-11-16 10:52:28</time>
      </trkpt>
      <trkpt lat="40.70329" lon="-3.79303">
        <ele>918.6</ele>
        <time>2021-11-16 10:52:29</time>
      </trkpt>
      <trkpt lat="40.70335" lon="-3.79308">
        <ele>918.6</ele>
        <time>2021-11-16 10:52:30</time>
      </trkpt>
      <trkpt lat="40.7034" lon="-3.79313">
        <ele>918.6</ele>
        <time>2021-11-16 10:52:31</time>
      </trkpt>
      <trkpt lat="40.70345" lon="-3.79317">
        <ele>918.4</ele>
        <time>2021-11-16 10:52:32</time>
      </trkpt>
      <trkpt lat="40.7035" lon="-3.79321">
        <ele>917.8</ele>
        <time>2021-11-16 10:52:33</time>
      </trkpt>
      <trkpt lat="40.70356" lon="-3.79323">
        <ele>917.4</ele>
        <time>2021-11-16 10:52:34</time>
      </trkpt>
      <trkpt lat="40.70362" lon="-3.79324">
        <ele>917</ele>
        <time>2021-11-16 10:52:35</time>
      </trkpt>
      <trkpt lat="40.70368" lon="-3.79322">
        <ele>916.8</ele>
        <time>2021-11-16 10:52:36</time>
      </trkpt>
      <trkpt lat="40.70375" lon="-3.79319">
        <ele>916.6</ele>
        <time>2021-11-16 10:52:37</time>
      </trkpt>
      <trkpt lat="40.70383" lon="-3.79317">
        <ele>916.6</ele>
        <time>2021-11-16 10:52:38</time>
      </trkpt>
      <trkpt lat="40.70391" lon="-3.79315">
        <ele>916.4</ele>
        <time>2021-11-16 10:52:39</time>
      </trkpt>
      <trkpt lat="40.70399" lon="-3.79315">
        <ele>916.2</ele>
        <time>2021-11-16 10:52:40</time>
      </trkpt>
      <trkpt lat="40.70408" lon="-3.79315">
        <ele>916.2</ele>
        <time>2021-11-16 10:52:41</time>
      </trkpt>
      <trkpt lat="40.70417" lon="-3.79316">
        <ele>916</ele>
        <time>2021-11-16 10:52:42</time>
      </trkpt>
      <trkpt lat="40.70426" lon="-3.79317">
        <ele>915.8</ele>
        <time>2021-11-16 10:52:43</time>
      </trkpt>
      <trkpt lat="40.70435" lon="-3.79318">
        <ele>915.8</ele>
        <time>2021-11-16 10:52:44</time>
      </trkpt>
      <trkpt lat="40.70445" lon="-3.79319">
        <ele>915.6</ele>
        <time>2021-11-16 10:52:45</time>
      </trkpt>
      <trkpt lat="40.70454" lon="-3.7932">
        <ele>915.4</ele>
        <time>2021-11-16 10:52:46</time>
      </trkpt>
      <trkpt lat="40.70464" lon="-3.79321">
        <ele>914.2</ele>
        <time>2021-11-16 10:52:47</time>
      </trkpt>
      <trkpt lat="40.70474" lon="-3.79322">
        <ele>913.4</ele>
        <time>2021-11-16 10:52:48</time>
      </trkpt>
      <trkpt lat="40.70484" lon="-3.79323">
        <ele>913.4</ele>
        <time>2021-11-16 10:52:49</time>
      </trkpt>
      <trkpt lat="40.70494" lon="-3.79324">
        <ele>912.8</ele>
        <time>2021-11-16 10:52:50</time>
      </trkpt>
      <trkpt lat="40.70504" lon="-3.79325">
        <ele>911.6</ele>
        <time>2021-11-16 10:52:51</time>
      </trkpt>
      <trkpt lat="40.70515" lon="-3.79325">
        <ele>910.6</ele>
        <time>2021-11-16 10:52:52</time>
      </trkpt>
      <trkpt lat="40.70525" lon="-3.79326">
        <ele>910.2</ele>
        <time>2021-11-16 10:52:53</time>
      </trkpt>
      <trkpt lat="40.70536" lon="-3.79327">
        <ele>909.4</ele>
        <time>2021-11-16 10:52:54</time>
      </trkpt>
      <trkpt lat="40.70546" lon="-3.79329">
        <ele>908.8</ele>
        <time>2021-11-16 10:52:55</time>
      </trkpt>
      <trkpt lat="40.70557" lon="-3.7933">
        <ele>908.6</ele>
        <time>2021-11-16 10:52:56</time>
      </trkpt>
      <trkpt lat="40.70567" lon="-3.79331">
        <ele>907.6</ele>
        <time>2021-11-16 10:52:57</time>
      </trkpt>
      <trkpt lat="40.70578" lon="-3.79332">
        <ele>907</ele>
        <time>2021-11-16 10:52:58</time>
      </trkpt>
      <trkpt lat="40.70589" lon="-3.79333">
        <ele>906.2</ele>
        <time>2021-11-16 10:52:59</time>
      </trkpt>
      <trkpt lat="40.70599" lon="-3.79334">
        <ele>905.6</ele>
        <time>2021-11-16 10:53:00</time>
      </trkpt>
      <trkpt lat="40.70609" lon="-3.79335">
        <ele>905.2</ele>
        <time>2021-11-16 10:53:01</time>
      </trkpt>
      <trkpt lat="40.7062" lon="-3.79336">
        <ele>904.4</ele>
        <time>2021-11-16 10:53:02</time>
      </trkpt>
      <trkpt lat="40.7063" lon="-3.79337">
        <ele>904</ele>
        <time>2021-11-16 10:53:03</time>
      </trkpt>
      <trkpt lat="40.7064" lon="-3.79338">
        <ele>903.2</ele>
        <time>2021-11-16 10:53:04</time>
      </trkpt>
      <trkpt lat="40.70649" lon="-3.79339">
        <ele>903</ele>
        <time>2021-11-16 10:53:05</time>
      </trkpt>
      <trkpt lat="40.70659" lon="-3.79341">
        <ele>902.6</ele>
        <time>2021-11-16 10:53:06</time>
      </trkpt>
      <trkpt lat="40.70669" lon="-3.79342">
        <ele>902.4</ele>
        <time>2021-11-16 10:53:07</time>
      </trkpt>
      <trkpt lat="40.70678" lon="-3.79343">
        <ele>902</ele>
        <time>2021-11-16 10:53:08</time>
      </trkpt>
      <trkpt lat="40.70688" lon="-3.79344">
        <ele>902</ele>
        <time>2021-11-16 10:53:09</time>
      </trkpt>
      <trkpt lat="40.70697" lon="-3.79345">
        <ele>902</ele>
        <time>2021-11-16 10:53:10</time>
      </trkpt>
      <trkpt lat="40.70707" lon="-3.79345">
        <ele>901.8</ele>
        <time>2021-11-16 10:53:11</time>
      </trkpt>
      <trkpt lat="40.70716" lon="-3.79346">
        <ele>901.6</ele>
        <time>2021-11-16 10:53:12</time>
      </trkpt>
      <trkpt lat="40.70725" lon="-3.79347">
        <ele>901.4</ele>
        <time>2021-11-16 10:53:13</time>
      </trkpt>
      <trkpt lat="40.70735" lon="-3.79348">
        <ele>901.4</ele>
        <time>2021-11-16 10:53:14</time>
      </trkpt>
      <trkpt lat="40.70744" lon="-3.79349">
        <ele>901.2</ele>
        <time>2021-11-16 10:53:15</time>
      </trkpt>
      <trkpt lat="40.70753" lon="-3.7935">
        <ele>901</ele>
        <time>2021-11-16 10:53:16</time>
      </trkpt>
      <trkpt lat="40.70762" lon="-3.79351">
        <ele>901</ele>
        <time>2021-11-16 10:53:17</time>
      </trkpt>
      <trkpt lat="40.70771" lon="-3.79352">
        <ele>900.8</ele>
        <time>2021-11-16 10:53:18</time>
      </trkpt>
      <trkpt lat="40.7078" lon="-3.79353">
        <ele>900.8</ele>
        <time>2021-11-16 10:53:19</time>
      </trkpt>
      <trkpt lat="40.70788" lon="-3.79354">
        <ele>900.8</ele>
        <time>2021-11-16 10:53:20</time>
      </trkpt>
      <trkpt lat="40.70797" lon="-3.79355">
        <ele>900.8</ele>
        <time>2021-11-16 10:53:21</time>
      </trkpt>
      <trkpt lat="40.70806" lon="-3.79356">
        <ele>900.8</ele>
        <time>2021-11-16 10:53:22</time>
      </trkpt>
      <trkpt lat="40.70815" lon="-3.79357">
        <ele>900.6</ele>
        <time>2021-11-16 10:53:23</time>
      </trkpt>
      <trkpt lat="40.70824" lon="-3.79358">
        <ele>900.6</ele>
        <time>2021-11-16 10:53:24</time>
      </trkpt>
      <trkpt lat="40.70832" lon="-3.79359">
        <ele>900.6</ele>
        <time>2021-11-16 10:53:25</time>
      </trkpt>
      <trkpt lat="40.70841" lon="-3.7936">
        <ele>900.6</ele>
        <time>2021-11-16 10:53:26</time>
      </trkpt>
      <trkpt lat="40.7085" lon="-3.7936">
        <ele>900.6</ele>
        <time>2021-11-16 10:53:27</time>
      </trkpt>
      <trkpt lat="40.70859" lon="-3.79361">
        <ele>900.4</ele>
        <time>2021-11-16 10:53:28</time>
      </trkpt>
      <trkpt lat="40.70867" lon="-3.79361">
        <ele>900.4</ele>
        <time>2021-11-16 10:53:29</time>
      </trkpt>
      <trkpt lat="40.70876" lon="-3.79362">
        <ele>900.4</ele>
        <time>2021-11-16 10:53:30</time>
      </trkpt>
      <trkpt lat="40.70885" lon="-3.79363">
        <ele>900.2</ele>
        <time>2021-11-16 10:53:31</time>
      </trkpt>
      <trkpt lat="40.70893" lon="-3.79364">
        <ele>900</ele>
        <time>2021-11-16 10:53:32</time>
      </trkpt>
      <trkpt lat="40.70902" lon="-3.79365">
        <ele>899.8</ele>
        <time>2021-11-16 10:53:33</time>
      </trkpt>
      <trkpt lat="40.70911" lon="-3.79366">
        <ele>899.6</ele>
        <time>2021-11-16 10:53:34</time>
      </trkpt>
      <trkpt lat="40.70919" lon="-3.79367">
        <ele>899.4</ele>
        <time>2021-11-16 10:53:35</time>
      </trkpt>
      <trkpt lat="40.70928" lon="-3.79368">
        <ele>899.2</ele>
        <time>2021-11-16 10:53:36</time>
      </trkpt>
      <trkpt lat="40.70937" lon="-3.79368">
        <ele>899.2</ele>
        <time>2021-11-16 10:53:37</time>
      </trkpt>
      <trkpt lat="40.70945" lon="-3.79369">
        <ele>899.2</ele>
        <time>2021-11-16 10:53:38</time>
      </trkpt>
      <trkpt lat="40.70954" lon="-3.7937">
        <ele>899</ele>
        <time>2021-11-16 10:53:39</time>
      </trkpt>
      <trkpt lat="40.70963" lon="-3.79371">
        <ele>899</ele>
        <time>2021-11-16 10:53:40</time>
      </trkpt>
      <trkpt lat="40.70971" lon="-3.79371">
        <ele>899</ele>
        <time>2021-11-16 10:53:41</time>
      </trkpt>
      <trkpt lat="40.7098" lon="-3.79372">
        <ele>898.8</ele>
        <time>2021-11-16 10:53:42</time>
      </trkpt>
      <trkpt lat="40.70989" lon="-3.79373">
        <ele>898.4</ele>
        <time>2021-11-16 10:53:43</time>
      </trkpt>
      <trkpt lat="40.70997" lon="-3.79373">
        <ele>898.2</ele>
        <time>2021-11-16 10:53:44</time>
      </trkpt>
      <trkpt lat="40.71006" lon="-3.79374">
        <ele>898.2</ele>
        <time>2021-11-16 10:53:45</time>
      </trkpt>
      <trkpt lat="40.71014" lon="-3.79375">
        <ele>898.2</ele>
        <time>2021-11-16 10:53:46</time>
      </trkpt>
      <trkpt lat="40.71023" lon="-3.79375">
        <ele>898.2</ele>
        <time>2021-11-16 10:53:47</time>
      </trkpt>
      <trkpt lat="40.71031" lon="-3.79376">
        <ele>898.2</ele>
        <time>2021-11-16 10:53:48</time>
      </trkpt>
      <trkpt lat="40.71039" lon="-3.79376">
        <ele>898</ele>
        <time>2021-11-16 10:53:49</time>
      </trkpt>
      <trkpt lat="40.71048" lon="-3.79377">
        <ele>898</ele>
        <time>2021-11-16 10:53:50</time>
      </trkpt>
      <trkpt lat="40.71056" lon="-3.79377">
        <ele>898.2</ele>
        <time>2021-11-16 10:53:51</time>
      </trkpt>
      <trkpt lat="40.71064" lon="-3.79378">
        <ele>898.2</ele>
        <time>2021-11-16 10:53:52</time>
      </trkpt>
      <trkpt lat="40.71072" lon="-3.79379">
        <ele>898</ele>
        <time>2021-11-16 10:53:53</time>
      </trkpt>
      <trkpt lat="40.7108" lon="-3.79379">
        <ele>898</ele>
        <time>2021-11-16 10:53:54</time>
      </trkpt>
      <trkpt lat="40.71088" lon="-3.79379">
        <ele>898.2</ele>
        <time>2021-11-16 10:53:55</time>
      </trkpt>
      <trkpt lat="40.71096" lon="-3.7938">
        <ele>898</ele>
        <time>2021-11-16 10:53:56</time>
      </trkpt>
      <trkpt lat="40.71104" lon="-3.7938">
        <ele>898</ele>
        <time>2021-11-16 10:53:57</time>
      </trkpt>
      <trkpt lat="40.71112" lon="-3.79381">
        <ele>898.2</ele>
        <time>2021-11-16 10:53:58</time>
      </trkpt>
      <trkpt lat="40.7112" lon="-3.79381">
        <ele>898.2</ele>
        <time>2021-11-16 10:53:59</time>
      </trkpt>
      <trkpt lat="40.71127" lon="-3.79381">
        <ele>898.2</ele>
        <time>2021-11-16 10:54:00</time>
      </trkpt>
      <trkpt lat="40.71135" lon="-3.79382">
        <ele>898.2</ele>
        <time>2021-11-16 10:54:01</time>
      </trkpt>
      <trkpt lat="40.71142" lon="-3.79382">
        <ele>898.4</ele>
        <time>2021-11-16 10:54:02</time>
      </trkpt>
      <trkpt lat="40.7115" lon="-3.79383">
        <ele>898.4</ele>
        <time>2021-11-16 10:54:03</time>
      </trkpt>
      <trkpt lat="40.71157" lon="-3.79383">
        <ele>898.4</ele>
        <time>2021-11-16 10:54:04</time>
      </trkpt>
      <trkpt lat="40.71165" lon="-3.79384">
        <ele>898.4</ele>
        <time>2021-11-16 10:54:05</time>
      </trkpt>
      <trkpt lat="40.71172" lon="-3.79384">
        <ele>898.6</ele>
        <time>2021-11-16 10:54:06</time>
      </trkpt>
      <trkpt lat="40.71179" lon="-3.79385">
        <ele>898.6</ele>
        <time>2021-11-16 10:54:07</time>
      </trkpt>
      <trkpt lat="40.71186" lon="-3.79385">
        <ele>898.6</ele>
        <time>2021-11-16 10:54:08</time>
      </trkpt>
      <trkpt lat="40.71193" lon="-3.79385">
        <ele>898.8</ele>
        <time>2021-11-16 10:54:09</time>
      </trkpt>
      <trkpt lat="40.712" lon="-3.79385">
        <ele>898.8</ele>
        <time>2021-11-16 10:54:10</time>
      </trkpt>
      <trkpt lat="40.71207" lon="-3.79386">
        <ele>899</ele>
        <time>2021-11-16 10:54:11</time>
      </trkpt>
      <trkpt lat="40.71214" lon="-3.79388">
        <ele>899</ele>
        <time>2021-11-16 10:54:12</time>
      </trkpt>
      <trkpt lat="40.71221" lon="-3.79389">
        <ele>899.2</ele>
        <time>2021-11-16 10:54:13</time>
      </trkpt>
      <trkpt lat="40.71228" lon="-3.79392">
        <ele>899.2</ele>
        <time>2021-11-16 10:54:14</time>
      </trkpt>
      <trkpt lat="40.71234" lon="-3.79395">
        <ele>899.2</ele>
        <time>2021-11-16 10:54:15</time>
      </trkpt>
      <trkpt lat="40.7124" lon="-3.79398">
        <ele>899.4</ele>
        <time>2021-11-16 10:54:16</time>
      </trkpt>
      <trkpt lat="40.71247" lon="-3.79401">
        <ele>899.4</ele>
        <time>2021-11-16 10:54:17</time>
      </trkpt>
      <trkpt lat="40.71253" lon="-3.79403">
        <ele>899.6</ele>
        <time>2021-11-16 10:54:18</time>
      </trkpt>
      <trkpt lat="40.71259" lon="-3.79405">
        <ele>899.8</ele>
        <time>2021-11-16 10:54:19</time>
      </trkpt>
      <trkpt lat="40.71265" lon="-3.79407">
        <ele>900</ele>
        <time>2021-11-16 10:54:20</time>
      </trkpt>
      <trkpt lat="40.71271" lon="-3.79408">
        <ele>900.2</ele>
        <time>2021-11-16 10:54:21</time>
      </trkpt>
      <trkpt lat="40.71277" lon="-3.7941">
        <ele>900.2</ele>
        <time>2021-11-16 10:54:22</time>
      </trkpt>
      <trkpt lat="40.71283" lon="-3.79411">
        <ele>900.6</ele>
        <time>2021-11-16 10:54:23</time>
      </trkpt>
      <trkpt lat="40.71289" lon="-3.79413">
        <ele>900.6</ele>
        <time>2021-11-16 10:54:24</time>
      </trkpt>
      <trkpt lat="40.71295" lon="-3.79414">
        <ele>900.6</ele>
        <time>2021-11-16 10:54:25</time>
      </trkpt>
      <trkpt lat="40.71301" lon="-3.79415">
        <ele>901</ele>
        <time>2021-11-16 10:54:26</time>
      </trkpt>
      <trkpt lat="40.71307" lon="-3.79416">
        <ele>901.4</ele>
        <time>2021-11-16 10:54:27</time>
      </trkpt>
      <trkpt lat="40.71313" lon="-3.79416">
        <ele>901.8</ele>
        <time>2021-11-16 10:54:28</time>
      </trkpt>
      <trkpt lat="40.71319" lon="-3.79417">
        <ele>902</ele>
        <time>2021-11-16 10:54:29</time>
      </trkpt>
      <trkpt lat="40.71324" lon="-3.79417">
        <ele>902</ele>
        <time>2021-11-16 10:54:30</time>
      </trkpt>
      <trkpt lat="40.7133" lon="-3.79417">
        <ele>902.4</ele>
        <time>2021-11-16 10:54:31</time>
      </trkpt>
      <trkpt lat="40.71336" lon="-3.79417">
        <ele>902.6</ele>
        <time>2021-11-16 10:54:32</time>
      </trkpt>
      <trkpt lat="40.71341" lon="-3.79417">
        <ele>902.8</ele>
        <time>2021-11-16 10:54:33</time>
      </trkpt>
      <trkpt lat="40.71347" lon="-3.79417">
        <ele>903</ele>
        <time>2021-11-16 10:54:34</time>
      </trkpt>
      <trkpt lat="40.71352" lon="-3.79417">
        <ele>903.2</ele>
        <time>2021-11-16 10:54:35</time>
      </trkpt>
      <trkpt lat="40.71357" lon="-3.79417">
        <ele>903.4</ele>
        <time>2021-11-16 10:54:36</time>
      </trkpt>
      <trkpt lat="40.71363" lon="-3.79417">
        <ele>903.6</ele>
        <time>2021-11-16 10:54:37</time>
      </trkpt>
      <trkpt lat="40.71368" lon="-3.79418">
        <ele>904</ele>
        <time>2021-11-16 10:54:38</time>
      </trkpt>
      <trkpt lat="40.71374" lon="-3.79418">
        <ele>904.2</ele>
        <time>2021-11-16 10:54:39</time>
      </trkpt>
      <trkpt lat="40.71379" lon="-3.79418">
        <ele>904.4</ele>
        <time>2021-11-16 10:54:40</time>
      </trkpt>
      <trkpt lat="40.71384" lon="-3.79418">
        <ele>904.6</ele>
        <time>2021-11-16 10:54:41</time>
      </trkpt>
      <trkpt lat="40.7139" lon="-3.79418">
        <ele>904.8</ele>
        <time>2021-11-16 10:54:42</time>
      </trkpt>
      <trkpt lat="40.71395" lon="-3.79418">
        <ele>904.8</ele>
        <time>2021-11-16 10:54:43</time>
      </trkpt>
      <trkpt lat="40.71401" lon="-3.79418">
        <ele>905</ele>
        <time>2021-11-16 10:54:44</time>
      </trkpt>
      <trkpt lat="40.71407" lon="-3.79417">
        <ele>905</ele>
        <time>2021-11-16 10:54:45</time>
      </trkpt>
      <trkpt lat="40.71413" lon="-3.79417">
        <ele>905.2</ele>
        <time>2021-11-16 10:54:46</time>
      </trkpt>
      <trkpt lat="40.71419" lon="-3.79417">
        <ele>905.2</ele>
        <time>2021-11-16 10:54:47</time>
      </trkpt>
      <trkpt lat="40.71424" lon="-3.79416">
        <ele>905.4</ele>
        <time>2021-11-16 10:54:48</time>
      </trkpt>
      <trkpt lat="40.7143" lon="-3.79415">
        <ele>905.6</ele>
        <time>2021-11-16 10:54:49</time>
      </trkpt>
      <trkpt lat="40.71436" lon="-3.79415">
        <ele>905.8</ele>
        <time>2021-11-16 10:54:50</time>
      </trkpt>
      <trkpt lat="40.71442" lon="-3.79414">
        <ele>905.8</ele>
        <time>2021-11-16 10:54:51</time>
      </trkpt>
      <trkpt lat="40.71448" lon="-3.79412">
        <ele>905.8</ele>
        <time>2021-11-16 10:54:52</time>
      </trkpt>
      <trkpt lat="40.71454" lon="-3.7941">
        <ele>905.8</ele>
        <time>2021-11-16 10:54:53</time>
      </trkpt>
      <trkpt lat="40.7146" lon="-3.79408">
        <ele>905.8</ele>
        <time>2021-11-16 10:54:54</time>
      </trkpt>
      <trkpt lat="40.71465" lon="-3.79406">
        <ele>905.8</ele>
        <time>2021-11-16 10:54:55</time>
      </trkpt>
      <trkpt lat="40.71471" lon="-3.79405">
        <ele>906</ele>
        <time>2021-11-16 10:54:56</time>
      </trkpt>
      <trkpt lat="40.71477" lon="-3.79403">
        <ele>906</ele>
        <time>2021-11-16 10:54:57</time>
      </trkpt>
      <trkpt lat="40.71483" lon="-3.79401">
        <ele>906</ele>
        <time>2021-11-16 10:54:58</time>
      </trkpt>
      <trkpt lat="40.71489" lon="-3.79399">
        <ele>905.8</ele>
        <time>2021-11-16 10:54:59</time>
      </trkpt>
      <trkpt lat="40.71494" lon="-3.79396">
        <ele>906</ele>
        <time>2021-11-16 10:55:00</time>
      </trkpt>
      <trkpt lat="40.715" lon="-3.79394">
        <ele>906</ele>
        <time>2021-11-16 10:55:01</time>
      </trkpt>
      <trkpt lat="40.71506" lon="-3.79391">
        <ele>906</ele>
        <time>2021-11-16 10:55:02</time>
      </trkpt>
      <trkpt lat="40.71513" lon="-3.79388">
        <ele>906</ele>
        <time>2021-11-16 10:55:03</time>
      </trkpt>
      <trkpt lat="40.71519" lon="-3.79385">
        <ele>906</ele>
        <time>2021-11-16 10:55:04</time>
      </trkpt>
      <trkpt lat="40.71526" lon="-3.79382">
        <ele>906</ele>
        <time>2021-11-16 10:55:05</time>
      </trkpt>
      <trkpt lat="40.71532" lon="-3.79379">
        <ele>906</ele>
        <time>2021-11-16 10:55:06</time>
      </trkpt>
      <trkpt lat="40.71539" lon="-3.79376">
        <ele>906</ele>
        <time>2021-11-16 10:55:07</time>
      </trkpt>
      <trkpt lat="40.71545" lon="-3.79373">
        <ele>906</ele>
        <time>2021-11-16 10:55:08</time>
      </trkpt>
      <trkpt lat="40.71551" lon="-3.7937">
        <ele>905.8</ele>
        <time>2021-11-16 10:55:09</time>
      </trkpt>
      <trkpt lat="40.71557" lon="-3.79367">
        <ele>905.8</ele>
        <time>2021-11-16 10:55:10</time>
      </trkpt>
      <trkpt lat="40.71563" lon="-3.79364">
        <ele>905.8</ele>
        <time>2021-11-16 10:55:11</time>
      </trkpt>
      <trkpt lat="40.71569" lon="-3.79361">
        <ele>906</ele>
        <time>2021-11-16 10:55:12</time>
      </trkpt>
      <trkpt lat="40.71575" lon="-3.79358">
        <ele>906</ele>
        <time>2021-11-16 10:55:13</time>
      </trkpt>
      <trkpt lat="40.7158" lon="-3.79354">
        <ele>905.8</ele>
        <time>2021-11-16 10:55:14</time>
      </trkpt>
      <trkpt lat="40.71586" lon="-3.79351">
        <ele>905.8</ele>
        <time>2021-11-16 10:55:15</time>
      </trkpt>
      <trkpt lat="40.71592" lon="-3.79349">
        <ele>905.6</ele>
        <time>2021-11-16 10:55:16</time>
      </trkpt>
      <trkpt lat="40.71598" lon="-3.79346">
        <ele>906</ele>
        <time>2021-11-16 10:55:17</time>
      </trkpt>
      <trkpt lat="40.71604" lon="-3.79345">
        <ele>905.8</ele>
        <time>2021-11-16 10:55:18</time>
      </trkpt>
      <trkpt lat="40.7161" lon="-3.79344">
        <ele>905.8</ele>
        <time>2021-11-16 10:55:19</time>
      </trkpt>
      <trkpt lat="40.71616" lon="-3.79343">
        <ele>905.8</ele>
        <time>2021-11-16 10:55:20</time>
      </trkpt>
      <trkpt lat="40.71622" lon="-3.79342">
        <ele>905.8</ele>
        <time>2021-11-16 10:55:21</time>
      </trkpt>
      <trkpt lat="40.71628" lon="-3.79341">
        <ele>905.8</ele>
        <time>2021-11-16 10:55:22</time>
      </trkpt>
      <trkpt lat="40.71634" lon="-3.79339">
        <ele>905.8</ele>
        <time>2021-11-16 10:55:23</time>
      </trkpt>
      <trkpt lat="40.71639" lon="-3.79338">
        <ele>905.8</ele>
        <time>2021-11-16 10:55:24</time>
      </trkpt>
      <trkpt lat="40.71645" lon="-3.79337">
        <ele>905.8</ele>
        <time>2021-11-16 10:55:25</time>
      </trkpt>
      <trkpt lat="40.71651" lon="-3.79336">
        <ele>906</ele>
        <time>2021-11-16 10:55:26</time>
      </trkpt>
      <trkpt lat="40.71657" lon="-3.79335">
        <ele>906.4</ele>
        <time>2021-11-16 10:55:27</time>
      </trkpt>
      <trkpt lat="40.71663" lon="-3.79334">
        <ele>906.6</ele>
        <time>2021-11-16 10:55:28</time>
      </trkpt>
      <trkpt lat="40.71669" lon="-3.79333">
        <ele>906.6</ele>
        <time>2021-11-16 10:55:29</time>
      </trkpt>
      <trkpt lat="40.71674" lon="-3.79332">
        <ele>907</ele>
        <time>2021-11-16 10:55:30</time>
      </trkpt>
      <trkpt lat="40.7168" lon="-3.79331">
        <ele>907.2</ele>
        <time>2021-11-16 10:55:31</time>
      </trkpt>
      <trkpt lat="40.71686" lon="-3.7933">
        <ele>907.2</ele>
        <time>2021-11-16 10:55:32</time>
      </trkpt>
      <trkpt lat="40.71692" lon="-3.79329">
        <ele>907.2</ele>
        <time>2021-11-16 10:55:33</time>
      </trkpt>
      <trkpt lat="40.71698" lon="-3.79328">
        <ele>907.2</ele>
        <time>2021-11-16 10:55:34</time>
      </trkpt>
      <trkpt lat="40.71704" lon="-3.79327">
        <ele>907.4</ele>
        <time>2021-11-16 10:55:35</time>
      </trkpt>
      <trkpt lat="40.71709" lon="-3.79326">
        <ele>907.4</ele>
        <time>2021-11-16 10:55:36</time>
      </trkpt>
      <trkpt lat="40.71715" lon="-3.79325">
        <ele>907.4</ele>
        <time>2021-11-16 10:55:37</time>
      </trkpt>
      <trkpt lat="40.71721" lon="-3.79324">
        <ele>907.6</ele>
        <time>2021-11-16 10:55:38</time>
      </trkpt>
      <trkpt lat="40.71727" lon="-3.79323">
        <ele>907.8</ele>
        <time>2021-11-16 10:55:39</time>
      </trkpt>
      <trkpt lat="40.71732" lon="-3.79322">
        <ele>907.8</ele>
        <time>2021-11-16 10:55:40</time>
      </trkpt>
      <trkpt lat="40.71738" lon="-3.79321">
        <ele>908.2</ele>
        <time>2021-11-16 10:55:41</time>
      </trkpt>
      <trkpt lat="40.71744" lon="-3.79321">
        <ele>908.2</ele>
        <time>2021-11-16 10:55:42</time>
      </trkpt>
      <trkpt lat="40.71749" lon="-3.7932">
        <ele>908.2</ele>
        <time>2021-11-16 10:55:43</time>
      </trkpt>
      <trkpt lat="40.71755" lon="-3.79319">
        <ele>908.6</ele>
        <time>2021-11-16 10:55:44</time>
      </trkpt>
      <trkpt lat="40.7176" lon="-3.79317">
        <ele>908.6</ele>
        <time>2021-11-16 10:55:45</time>
      </trkpt>
      <trkpt lat="40.71766" lon="-3.79316">
        <ele>908.8</ele>
        <time>2021-11-16 10:55:46</time>
      </trkpt>
      <trkpt lat="40.71772" lon="-3.79315">
        <ele>908.8</ele>
        <time>2021-11-16 10:55:47</time>
      </trkpt>
      <trkpt lat="40.71778" lon="-3.79314">
        <ele>909</ele>
        <time>2021-11-16 10:55:48</time>
      </trkpt>
      <trkpt lat="40.71783" lon="-3.79313">
        <ele>909.2</ele>
        <time>2021-11-16 10:55:49</time>
      </trkpt>
      <trkpt lat="40.71789" lon="-3.79311">
        <ele>909.2</ele>
        <time>2021-11-16 10:55:50</time>
      </trkpt>
      <trkpt lat="40.71795" lon="-3.7931">
        <ele>909.4</ele>
        <time>2021-11-16 10:55:51</time>
      </trkpt>
      <trkpt lat="40.71801" lon="-3.79309">
        <ele>909.4</ele>
        <time>2021-11-16 10:55:52</time>
      </trkpt>
      <trkpt lat="40.71806" lon="-3.79308">
        <ele>909.2</ele>
        <time>2021-11-16 10:55:53</time>
      </trkpt>
      <trkpt lat="40.71812" lon="-3.79307">
        <ele>909.6</ele>
        <time>2021-11-16 10:55:54</time>
      </trkpt>
      <trkpt lat="40.71818" lon="-3.79306">
        <ele>909.6</ele>
        <time>2021-11-16 10:55:55</time>
      </trkpt>
      <trkpt lat="40.71823" lon="-3.79305">
        <ele>909.6</ele>
        <time>2021-11-16 10:55:56</time>
      </trkpt>
      <trkpt lat="40.71829" lon="-3.79304">
        <ele>909.8</ele>
        <time>2021-11-16 10:55:57</time>
      </trkpt>
      <trkpt lat="40.71835" lon="-3.79303">
        <ele>909.6</ele>
        <time>2021-11-16 10:55:58</time>
      </trkpt>
      <trkpt lat="40.7184" lon="-3.79302">
        <ele>910</ele>
        <time>2021-11-16 10:55:59</time>
      </trkpt>
      <trkpt lat="40.71846" lon="-3.79301">
        <ele>910</ele>
        <time>2021-11-16 10:56:00</time>
      </trkpt>
      <trkpt lat="40.71852" lon="-3.793">
        <ele>910.2</ele>
        <time>2021-11-16 10:56:01</time>
      </trkpt>
      <trkpt lat="40.71857" lon="-3.79299">
        <ele>910.4</ele>
        <time>2021-11-16 10:56:02</time>
      </trkpt>
      <trkpt lat="40.71863" lon="-3.79298">
        <ele>910.6</ele>
        <time>2021-11-16 10:56:03</time>
      </trkpt>
      <trkpt lat="40.71869" lon="-3.79297">
        <ele>911</ele>
        <time>2021-11-16 10:56:04</time>
      </trkpt>
      <trkpt lat="40.71874" lon="-3.79296">
        <ele>911.2</ele>
        <time>2021-11-16 10:56:05</time>
      </trkpt>
      <trkpt lat="40.7188" lon="-3.79295">
        <ele>911.2</ele>
        <time>2021-11-16 10:56:06</time>
      </trkpt>
      <trkpt lat="40.71885" lon="-3.79294">
        <ele>911.6</ele>
        <time>2021-11-16 10:56:07</time>
      </trkpt>
      <trkpt lat="40.71891" lon="-3.79293">
        <ele>911.6</ele>
        <time>2021-11-16 10:56:08</time>
      </trkpt>
      <trkpt lat="40.71896" lon="-3.79292">
        <ele>911.6</ele>
        <time>2021-11-16 10:56:09</time>
      </trkpt>
      <trkpt lat="40.71902" lon="-3.79291">
        <ele>911.6</ele>
        <time>2021-11-16 10:56:10</time>
      </trkpt>
      <trkpt lat="40.71907" lon="-3.7929">
        <ele>912.2</ele>
        <time>2021-11-16 10:56:11</time>
      </trkpt>
      <trkpt lat="40.71912" lon="-3.79289">
        <ele>912.4</ele>
        <time>2021-11-16 10:56:12</time>
      </trkpt>
      <trkpt lat="40.71918" lon="-3.79288">
        <ele>912.4</ele>
        <time>2021-11-16 10:56:13</time>
      </trkpt>
      <trkpt lat="40.71923" lon="-3.79287">
        <ele>912.4</ele>
        <time>2021-11-16 10:56:14</time>
      </trkpt>
      <trkpt lat="40.71929" lon="-3.79286">
        <ele>912.6</ele>
        <time>2021-11-16 10:56:15</time>
      </trkpt>
      <trkpt lat="40.71934" lon="-3.79285">
        <ele>912.6</ele>
        <time>2021-11-16 10:56:16</time>
      </trkpt>
      <trkpt lat="40.7194" lon="-3.79284">
        <ele>912.6</ele>
        <time>2021-11-16 10:56:17</time>
      </trkpt>
      <trkpt lat="40.71945" lon="-3.79284">
        <ele>912.6</ele>
        <time>2021-11-16 10:56:18</time>
      </trkpt>
      <trkpt lat="40.7195" lon="-3.79282">
        <ele>912.8</ele>
        <time>2021-11-16 10:56:19</time>
      </trkpt>
      <trkpt lat="40.71956" lon="-3.79281">
        <ele>913</ele>
        <time>2021-11-16 10:56:20</time>
      </trkpt>
      <trkpt lat="40.71961" lon="-3.7928">
        <ele>913</ele>
        <time>2021-11-16 10:56:21</time>
      </trkpt>
      <trkpt lat="40.71966" lon="-3.7928">
        <ele>913.2</ele>
        <time>2021-11-16 10:56:22</time>
      </trkpt>
      <trkpt lat="40.71972" lon="-3.79279">
        <ele>913.4</ele>
        <time>2021-11-16 10:56:23</time>
      </trkpt>
      <trkpt lat="40.71977" lon="-3.79278">
        <ele>913.6</ele>
        <time>2021-11-16 10:56:24</time>
      </trkpt>
      <trkpt lat="40.71982" lon="-3.79277">
        <ele>913.6</ele>
        <time>2021-11-16 10:56:25</time>
      </trkpt>
      <trkpt lat="40.71988" lon="-3.79276">
        <ele>913.8</ele>
        <time>2021-11-16 10:56:26</time>
      </trkpt>
      <trkpt lat="40.71993" lon="-3.79275">
        <ele>913.8</ele>
        <time>2021-11-16 10:56:27</time>
      </trkpt>
      <trkpt lat="40.71998" lon="-3.79274">
        <ele>914.6</ele>
        <time>2021-11-16 10:56:28</time>
      </trkpt>
      <trkpt lat="40.72004" lon="-3.79274">
        <ele>915</ele>
        <time>2021-11-16 10:56:29</time>
      </trkpt>
      <trkpt lat="40.7201" lon="-3.79273">
        <ele>915</ele>
        <time>2021-11-16 10:56:30</time>
      </trkpt>
      <trkpt lat="40.72015" lon="-3.79273">
        <ele>915.2</ele>
        <time>2021-11-16 10:56:31</time>
      </trkpt>
      <trkpt lat="40.72021" lon="-3.79272">
        <ele>915.2</ele>
        <time>2021-11-16 10:56:32</time>
      </trkpt>
      <trkpt lat="40.72027" lon="-3.79272">
        <ele>915.2</ele>
        <time>2021-11-16 10:56:33</time>
      </trkpt>
      <trkpt lat="40.72032" lon="-3.79272">
        <ele>915.4</ele>
        <time>2021-11-16 10:56:34</time>
      </trkpt>
      <trkpt lat="40.72038" lon="-3.79272">
        <ele>915.6</ele>
        <time>2021-11-16 10:56:35</time>
      </trkpt>
      <trkpt lat="40.72044" lon="-3.79272">
        <ele>915.8</ele>
        <time>2021-11-16 10:56:36</time>
      </trkpt>
      <trkpt lat="40.7205" lon="-3.79272">
        <ele>915.8</ele>
        <time>2021-11-16 10:56:37</time>
      </trkpt>
      <trkpt lat="40.72055" lon="-3.79272">
        <ele>915.8</ele>
        <time>2021-11-16 10:56:38</time>
      </trkpt>
      <trkpt lat="40.72061" lon="-3.79272">
        <ele>915.8</ele>
        <time>2021-11-16 10:56:39</time>
      </trkpt>
      <trkpt lat="40.72067" lon="-3.79272">
        <ele>915.8</ele>
        <time>2021-11-16 10:56:40</time>
      </trkpt>
      <trkpt lat="40.72072" lon="-3.79272">
        <ele>916</ele>
        <time>2021-11-16 10:56:41</time>
      </trkpt>
      <trkpt lat="40.72078" lon="-3.79272">
        <ele>916</ele>
        <time>2021-11-16 10:56:42</time>
      </trkpt>
      <trkpt lat="40.72083" lon="-3.79272">
        <ele>916</ele>
        <time>2021-11-16 10:56:43</time>
      </trkpt>
      <trkpt lat="40.72089" lon="-3.79272">
        <ele>916</ele>
        <time>2021-11-16 10:56:44</time>
      </trkpt>
      <trkpt lat="40.72094" lon="-3.79272">
        <ele>916.2</ele>
        <time>2021-11-16 10:56:45</time>
      </trkpt>
      <trkpt lat="40.721" lon="-3.79272">
        <ele>916.4</ele>
        <time>2021-11-16 10:56:46</time>
      </trkpt>
      <trkpt lat="40.72105" lon="-3.79273">
        <ele>916.4</ele>
        <time>2021-11-16 10:56:47</time>
      </trkpt>
      <trkpt lat="40.72111" lon="-3.79274">
        <ele>916.6</ele>
        <time>2021-11-16 10:56:48</time>
      </trkpt>
      <trkpt lat="40.72116" lon="-3.79276">
        <ele>916.6</ele>
        <time>2021-11-16 10:56:49</time>
      </trkpt>
      <trkpt lat="40.72121" lon="-3.79279">
        <ele>916.6</ele>
        <time>2021-11-16 10:56:50</time>
      </trkpt>
      <trkpt lat="40.72126" lon="-3.79282">
        <ele>916.6</ele>
        <time>2021-11-16 10:56:51</time>
      </trkpt>
      <trkpt lat="40.72131" lon="-3.79285">
        <ele>916.8</ele>
        <time>2021-11-16 10:56:52</time>
      </trkpt>
      <trkpt lat="40.72136" lon="-3.79288">
        <ele>916.8</ele>
        <time>2021-11-16 10:56:53</time>
      </trkpt>
      <trkpt lat="40.7214" lon="-3.79292">
        <ele>917.2</ele>
        <time>2021-11-16 10:56:54</time>
      </trkpt>
      <trkpt lat="40.72145" lon="-3.79295">
        <ele>917.6</ele>
        <time>2021-11-16 10:56:55</time>
      </trkpt>
      <trkpt lat="40.7215" lon="-3.79298">
        <ele>917.8</ele>
        <time>2021-11-16 10:56:56</time>
      </trkpt>
      <trkpt lat="40.72155" lon="-3.79301">
        <ele>917.8</ele>
        <time>2021-11-16 10:56:57</time>
      </trkpt>
      <trkpt lat="40.7216" lon="-3.79304">
        <ele>918.2</ele>
        <time>2021-11-16 10:56:58</time>
      </trkpt>
      <trkpt lat="40.72165" lon="-3.79308">
        <ele>918.4</ele>
        <time>2021-11-16 10:56:59</time>
      </trkpt>
      <trkpt lat="40.7217" lon="-3.79311">
        <ele>918.6</ele>
        <time>2021-11-16 10:57:00</time>
      </trkpt>
      <trkpt lat="40.72175" lon="-3.79314">
        <ele>918.6</ele>
        <time>2021-11-16 10:57:01</time>
      </trkpt>
      <trkpt lat="40.7218" lon="-3.79317">
        <ele>918.6</ele>
        <time>2021-11-16 10:57:02</time>
      </trkpt>
      <trkpt lat="40.72185" lon="-3.7932">
        <ele>918.6</ele>
        <time>2021-11-16 10:57:03</time>
      </trkpt>
      <trkpt lat="40.72191" lon="-3.79323">
        <ele>918.6</ele>
        <time>2021-11-16 10:57:04</time>
      </trkpt>
      <trkpt lat="40.72196" lon="-3.79326">
        <ele>918.6</ele>
        <time>2021-11-16 10:57:05</time>
      </trkpt>
      <trkpt lat="40.72201" lon="-3.79328">
        <ele>918.8</ele>
        <time>2021-11-16 10:57:06</time>
      </trkpt>
      <trkpt lat="40.72207" lon="-3.79331">
        <ele>918.8</ele>
        <time>2021-11-16 10:57:07</time>
      </trkpt>
      <trkpt lat="40.72212" lon="-3.79333">
        <ele>918.6</ele>
        <time>2021-11-16 10:57:08</time>
      </trkpt>
      <trkpt lat="40.72218" lon="-3.79335">
        <ele>918.6</ele>
        <time>2021-11-16 10:57:09</time>
      </trkpt>
      <trkpt lat="40.72224" lon="-3.79338">
        <ele>918.6</ele>
        <time>2021-11-16 10:57:10</time>
      </trkpt>
      <trkpt lat="40.72229" lon="-3.7934">
        <ele>918.4</ele>
        <time>2021-11-16 10:57:11</time>
      </trkpt>
      <trkpt lat="40.72235" lon="-3.79342">
        <ele>918.4</ele>
        <time>2021-11-16 10:57:12</time>
      </trkpt>
      <trkpt lat="40.72241" lon="-3.79344">
        <ele>918.2</ele>
        <time>2021-11-16 10:57:13</time>
      </trkpt>
      <trkpt lat="40.72247" lon="-3.79346">
        <ele>918.2</ele>
        <time>2021-11-16 10:57:14</time>
      </trkpt>
      <trkpt lat="40.72254" lon="-3.79347">
        <ele>918</ele>
        <time>2021-11-16 10:57:15</time>
      </trkpt>
      <trkpt lat="40.7226" lon="-3.79349">
        <ele>918.2</ele>
        <time>2021-11-16 10:57:16</time>
      </trkpt>
      <trkpt lat="40.72267" lon="-3.7935">
        <ele>918</ele>
        <time>2021-11-16 10:57:17</time>
      </trkpt>
      <trkpt lat="40.72273" lon="-3.79352">
        <ele>917.8</ele>
        <time>2021-11-16 10:57:18</time>
      </trkpt>
      <trkpt lat="40.7228" lon="-3.79352">
        <ele>918</ele>
        <time>2021-11-16 10:57:19</time>
      </trkpt>
      <trkpt lat="40.72287" lon="-3.79353">
        <ele>917.8</ele>
        <time>2021-11-16 10:57:20</time>
      </trkpt>
      <trkpt lat="40.72294" lon="-3.79354">
        <ele>917.8</ele>
        <time>2021-11-16 10:57:21</time>
      </trkpt>
      <trkpt lat="40.72301" lon="-3.79354">
        <ele>917.6</ele>
        <time>2021-11-16 10:57:22</time>
      </trkpt>
      <trkpt lat="40.72308" lon="-3.79354">
        <ele>917.4</ele>
        <time>2021-11-16 10:57:23</time>
      </trkpt>
      <trkpt lat="40.72315" lon="-3.79354">
        <ele>917.4</ele>
        <time>2021-11-16 10:57:24</time>
      </trkpt>
      <trkpt lat="40.72322" lon="-3.79354">
        <ele>917.2</ele>
        <time>2021-11-16 10:57:25</time>
      </trkpt>
      <trkpt lat="40.72328" lon="-3.79354">
        <ele>917.2</ele>
        <time>2021-11-16 10:57:26</time>
      </trkpt>
      <trkpt lat="40.72335" lon="-3.79353">
        <ele>917.2</ele>
        <time>2021-11-16 10:57:27</time>
      </trkpt>
      <trkpt lat="40.72342" lon="-3.79353">
        <ele>917.2</ele>
        <time>2021-11-16 10:57:28</time>
      </trkpt>
      <trkpt lat="40.72348" lon="-3.79352">
        <ele>917</ele>
        <time>2021-11-16 10:57:29</time>
      </trkpt>
      <trkpt lat="40.72355" lon="-3.79351">
        <ele>916.8</ele>
        <time>2021-11-16 10:57:30</time>
      </trkpt>
      <trkpt lat="40.72362" lon="-3.7935">
        <ele>916.2</ele>
        <time>2021-11-16 10:57:31</time>
      </trkpt>
      <trkpt lat="40.72368" lon="-3.79348">
        <ele>916.2</ele>
        <time>2021-11-16 10:57:32</time>
      </trkpt>
      <trkpt lat="40.72375" lon="-3.79347">
        <ele>916</ele>
        <time>2021-11-16 10:57:33</time>
      </trkpt>
      <trkpt lat="40.72381" lon="-3.79345">
        <ele>915.8</ele>
        <time>2021-11-16 10:57:34</time>
      </trkpt>
      <trkpt lat="40.72388" lon="-3.79343">
        <ele>915.6</ele>
        <time>2021-11-16 10:57:35</time>
      </trkpt>
      <trkpt lat="40.72395" lon="-3.79341">
        <ele>915.6</ele>
        <time>2021-11-16 10:57:36</time>
      </trkpt>
      <trkpt lat="40.72401" lon="-3.79339">
        <ele>915.4</ele>
        <time>2021-11-16 10:57:37</time>
      </trkpt>
      <trkpt lat="40.72408" lon="-3.79337">
        <ele>915.4</ele>
        <time>2021-11-16 10:57:38</time>
      </trkpt>
      <trkpt lat="40.72414" lon="-3.79335">
        <ele>915.2</ele>
        <time>2021-11-16 10:57:39</time>
      </trkpt>
      <trkpt lat="40.72421" lon="-3.79333">
        <ele>915.2</ele>
        <time>2021-11-16 10:57:40</time>
      </trkpt>
      <trkpt lat="40.72427" lon="-3.79331">
        <ele>915.2</ele>
        <time>2021-11-16 10:57:41</time>
      </trkpt>
      <trkpt lat="40.72434" lon="-3.79329">
        <ele>915</ele>
        <time>2021-11-16 10:57:42</time>
      </trkpt>
      <trkpt lat="40.72441" lon="-3.79326">
        <ele>915.2</ele>
        <time>2021-11-16 10:57:43</time>
      </trkpt>
      <trkpt lat="40.72447" lon="-3.79322">
        <ele>915.2</ele>
        <time>2021-11-16 10:57:44</time>
      </trkpt>
      <trkpt lat="40.72454" lon="-3.79318">
        <ele>915.2</ele>
        <time>2021-11-16 10:57:45</time>
      </trkpt>
      <trkpt lat="40.7246" lon="-3.79313">
        <ele>915.2</ele>
        <time>2021-11-16 10:57:46</time>
      </trkpt>
      <trkpt lat="40.72466" lon="-3.79308">
        <ele>915</ele>
        <time>2021-11-16 10:57:47</time>
      </trkpt>
      <trkpt lat="40.72472" lon="-3.79302">
        <ele>914.8</ele>
        <time>2021-11-16 10:57:48</time>
      </trkpt>
      <trkpt lat="40.72478" lon="-3.79295">
        <ele>914.6</ele>
        <time>2021-11-16 10:57:49</time>
      </trkpt>
      <trkpt lat="40.72484" lon="-3.79289">
        <ele>914.4</ele>
        <time>2021-11-16 10:57:50</time>
      </trkpt>
      <trkpt lat="40.7249" lon="-3.79284">
        <ele>914.2</ele>
        <time>2021-11-16 10:57:51</time>
      </trkpt>
      <trkpt lat="40.72497" lon="-3.79278">
        <ele>914</ele>
        <time>2021-11-16 10:57:52</time>
      </trkpt>
      <trkpt lat="40.72504" lon="-3.79272">
        <ele>913.8</ele>
        <time>2021-11-16 10:57:53</time>
      </trkpt>
      <trkpt lat="40.7251" lon="-3.79267">
        <ele>913.6</ele>
        <time>2021-11-16 10:57:54</time>
      </trkpt>
      <trkpt lat="40.72517" lon="-3.79261">
        <ele>913.8</ele>
        <time>2021-11-16 10:57:55</time>
      </trkpt>
      <trkpt lat="40.72524" lon="-3.79255">
        <ele>913.6</ele>
        <time>2021-11-16 10:57:56</time>
      </trkpt>
      <trkpt lat="40.7253" lon="-3.79249">
        <ele>913.4</ele>
        <time>2021-11-16 10:57:57</time>
      </trkpt>
      <trkpt lat="40.72537" lon="-3.79243">
        <ele>913.2</ele>
        <time>2021-11-16 10:57:58</time>
      </trkpt>
      <trkpt lat="40.72544" lon="-3.79237">
        <ele>912.8</ele>
        <time>2021-11-16 10:57:59</time>
      </trkpt>
      <trkpt lat="40.72551" lon="-3.79231">
        <ele>912.8</ele>
        <time>2021-11-16 10:58:00</time>
      </trkpt>
      <trkpt lat="40.72557" lon="-3.79225">
        <ele>912.4</ele>
        <time>2021-11-16 10:58:01</time>
      </trkpt>
      <trkpt lat="40.72564" lon="-3.79219">
        <ele>912</ele>
        <time>2021-11-16 10:58:02</time>
      </trkpt>
      <trkpt lat="40.72571" lon="-3.79213">
        <ele>912</ele>
        <time>2021-11-16 10:58:03</time>
      </trkpt>
      <trkpt lat="40.72578" lon="-3.79207">
        <ele>912</ele>
        <time>2021-11-16 10:58:04</time>
      </trkpt>
      <trkpt lat="40.72585" lon="-3.79201">
        <ele>911.8</ele>
        <time>2021-11-16 10:58:05</time>
      </trkpt>
      <trkpt lat="40.72592" lon="-3.79195">
        <ele>911.6</ele>
        <time>2021-11-16 10:58:06</time>
      </trkpt>
      <trkpt lat="40.72599" lon="-3.7919">
        <ele>911.4</ele>
        <time>2021-11-16 10:58:07</time>
      </trkpt>
      <trkpt lat="40.72606" lon="-3.79184">
        <ele>911.2</ele>
        <time>2021-11-16 10:58:08</time>
      </trkpt>
      <trkpt lat="40.72613" lon="-3.79178">
        <ele>911</ele>
        <time>2021-11-16 10:58:09</time>
      </trkpt>
      <trkpt lat="40.72619" lon="-3.79173">
        <ele>910.6</ele>
        <time>2021-11-16 10:58:10</time>
      </trkpt>
      <trkpt lat="40.72626" lon="-3.79168">
        <ele>910.6</ele>
        <time>2021-11-16 10:58:11</time>
      </trkpt>
      <trkpt lat="40.72633" lon="-3.79163">
        <ele>910.2</ele>
        <time>2021-11-16 10:58:12</time>
      </trkpt>
      <trkpt lat="40.7264" lon="-3.79157">
        <ele>910.2</ele>
        <time>2021-11-16 10:58:13</time>
      </trkpt>
      <trkpt lat="40.72647" lon="-3.79152">
        <ele>910.2</ele>
        <time>2021-11-16 10:58:14</time>
      </trkpt>
      <trkpt lat="40.72654" lon="-3.79148">
        <ele>910</ele>
        <time>2021-11-16 10:58:15</time>
      </trkpt>
      <trkpt lat="40.72661" lon="-3.79143">
        <ele>910</ele>
        <time>2021-11-16 10:58:16</time>
      </trkpt>
      <trkpt lat="40.72668" lon="-3.79139">
        <ele>910</ele>
        <time>2021-11-16 10:58:17</time>
      </trkpt>
      <trkpt lat="40.72675" lon="-3.79134">
        <ele>910</ele>
        <time>2021-11-16 10:58:18</time>
      </trkpt>
      <trkpt lat="40.72682" lon="-3.7913">
        <ele>910</ele>
        <time>2021-11-16 10:58:19</time>
      </trkpt>
      <trkpt lat="40.72689" lon="-3.79127">
        <ele>910</ele>
        <time>2021-11-16 10:58:20</time>
      </trkpt>
      <trkpt lat="40.72696" lon="-3.79123">
        <ele>910</ele>
        <time>2021-11-16 10:58:21</time>
      </trkpt>
      <trkpt lat="40.72703" lon="-3.79119">
        <ele>910</ele>
        <time>2021-11-16 10:58:22</time>
      </trkpt>
      <trkpt lat="40.7271" lon="-3.79116">
        <ele>910</ele>
        <time>2021-11-16 10:58:23</time>
      </trkpt>
      <trkpt lat="40.72717" lon="-3.79113">
        <ele>910</ele>
        <time>2021-11-16 10:58:24</time>
      </trkpt>
      <trkpt lat="40.72724" lon="-3.7911">
        <ele>910</ele>
        <time>2021-11-16 10:58:25</time>
      </trkpt>
      <trkpt lat="40.72731" lon="-3.79107">
        <ele>910.2</ele>
        <time>2021-11-16 10:58:26</time>
      </trkpt>
      <trkpt lat="40.72738" lon="-3.79105">
        <ele>910</ele>
        <time>2021-11-16 10:58:27</time>
      </trkpt>
      <trkpt lat="40.72745" lon="-3.79102">
        <ele>910.2</ele>
        <time>2021-11-16 10:58:28</time>
      </trkpt>
      <trkpt lat="40.72751" lon="-3.791">
        <ele>910.2</ele>
        <time>2021-11-16 10:58:29</time>
      </trkpt>
      <trkpt lat="40.72758" lon="-3.79097">
        <ele>910.2</ele>
        <time>2021-11-16 10:58:30</time>
      </trkpt>
      <trkpt lat="40.72765" lon="-3.79095">
        <ele>910.2</ele>
        <time>2021-11-16 10:58:31</time>
      </trkpt>
      <trkpt lat="40.72771" lon="-3.79093">
        <ele>910.4</ele>
        <time>2021-11-16 10:58:32</time>
      </trkpt>
      <trkpt lat="40.72778" lon="-3.79091">
        <ele>910.4</ele>
        <time>2021-11-16 10:58:33</time>
      </trkpt>
      <trkpt lat="40.72784" lon="-3.79089">
        <ele>910.4</ele>
        <time>2021-11-16 10:58:34</time>
      </trkpt>
      <trkpt lat="40.72791" lon="-3.79087">
        <ele>910.4</ele>
        <time>2021-11-16 10:58:35</time>
      </trkpt>
      <trkpt lat="40.72797" lon="-3.79085">
        <ele>910.8</ele>
        <time>2021-11-16 10:58:36</time>
      </trkpt>
      <trkpt lat="40.72803" lon="-3.79083">
        <ele>911</ele>
        <time>2021-11-16 10:58:37</time>
      </trkpt>
      <trkpt lat="40.72809" lon="-3.79081">
        <ele>911.2</ele>
        <time>2021-11-16 10:58:38</time>
      </trkpt>
      <trkpt lat="40.72815" lon="-3.79079">
        <ele>911.4</ele>
        <time>2021-11-16 10:58:39</time>
      </trkpt>
      <trkpt lat="40.72821" lon="-3.79078">
        <ele>911.4</ele>
        <time>2021-11-16 10:58:40</time>
      </trkpt>
      <trkpt lat="40.72827" lon="-3.79076">
        <ele>911.6</ele>
        <time>2021-11-16 10:58:41</time>
      </trkpt>
      <trkpt lat="40.72833" lon="-3.79074">
        <ele>911.8</ele>
        <time>2021-11-16 10:58:42</time>
      </trkpt>
      <trkpt lat="40.72839" lon="-3.79072">
        <ele>912.2</ele>
        <time>2021-11-16 10:58:43</time>
      </trkpt>
      <trkpt lat="40.72844" lon="-3.79071">
        <ele>912.6</ele>
        <time>2021-11-16 10:58:44</time>
      </trkpt>
      <trkpt lat="40.7285" lon="-3.7907">
        <ele>912.8</ele>
        <time>2021-11-16 10:58:45</time>
      </trkpt>
      <trkpt lat="40.72856" lon="-3.79068">
        <ele>913</ele>
        <time>2021-11-16 10:58:46</time>
      </trkpt>
      <trkpt lat="40.72861" lon="-3.79066">
        <ele>913.2</ele>
        <time>2021-11-16 10:58:47</time>
      </trkpt>
      <trkpt lat="40.72867" lon="-3.79065">
        <ele>913.2</ele>
        <time>2021-11-16 10:58:48</time>
      </trkpt>
      <trkpt lat="40.72872" lon="-3.79063">
        <ele>913.6</ele>
        <time>2021-11-16 10:58:49</time>
      </trkpt>
      <trkpt lat="40.72878" lon="-3.79062">
        <ele>913.6</ele>
        <time>2021-11-16 10:58:50</time>
      </trkpt>
      <trkpt lat="40.72883" lon="-3.7906">
        <ele>913.8</ele>
        <time>2021-11-16 10:58:51</time>
      </trkpt>
      <trkpt lat="40.72889" lon="-3.79059">
        <ele>914</ele>
        <time>2021-11-16 10:58:52</time>
      </trkpt>
      <trkpt lat="40.72894" lon="-3.79057">
        <ele>914.4</ele>
        <time>2021-11-16 10:58:53</time>
      </trkpt>
      <trkpt lat="40.729" lon="-3.79056">
        <ele>914.8</ele>
        <time>2021-11-16 10:58:54</time>
      </trkpt>
      <trkpt lat="40.72905" lon="-3.79054">
        <ele>914.8</ele>
        <time>2021-11-16 10:58:55</time>
      </trkpt>
      <trkpt lat="40.72911" lon="-3.79053">
        <ele>915</ele>
        <time>2021-11-16 10:58:56</time>
      </trkpt>
      <trkpt lat="40.72916" lon="-3.79051">
        <ele>915</ele>
        <time>2021-11-16 10:58:57</time>
      </trkpt>
      <trkpt lat="40.72921" lon="-3.79049">
        <ele>915.4</ele>
        <time>2021-11-16 10:58:58</time>
      </trkpt>
      <trkpt lat="40.72927" lon="-3.79048">
        <ele>915.4</ele>
        <time>2021-11-16 10:58:59</time>
      </trkpt>
      <trkpt lat="40.72932" lon="-3.79046">
        <ele>916</ele>
        <time>2021-11-16 10:59:00</time>
      </trkpt>
      <trkpt lat="40.72937" lon="-3.79044">
        <ele>916.2</ele>
        <time>2021-11-16 10:59:01</time>
      </trkpt>
      <trkpt lat="40.72942" lon="-3.79043">
        <ele>916.6</ele>
        <time>2021-11-16 10:59:02</time>
      </trkpt>
      <trkpt lat="40.72947" lon="-3.79041">
        <ele>916.8</ele>
        <time>2021-11-16 10:59:03</time>
      </trkpt>
      <trkpt lat="40.72951" lon="-3.7904">
        <ele>917</ele>
        <time>2021-11-16 10:59:04</time>
      </trkpt>
      <trkpt lat="40.72956" lon="-3.79038">
        <ele>917.2</ele>
        <time>2021-11-16 10:59:05</time>
      </trkpt>
      <trkpt lat="40.72961" lon="-3.79037">
        <ele>917.4</ele>
        <time>2021-11-16 10:59:06</time>
      </trkpt>
      <trkpt lat="40.72965" lon="-3.79035">
        <ele>917.6</ele>
        <time>2021-11-16 10:59:07</time>
      </trkpt>
      <trkpt lat="40.7297" lon="-3.79033">
        <ele>917.8</ele>
        <time>2021-11-16 10:59:08</time>
      </trkpt>
      <trkpt lat="40.72974" lon="-3.79031">
        <ele>917.8</ele>
        <time>2021-11-16 10:59:09</time>
      </trkpt>
      <trkpt lat="40.72979" lon="-3.7903">
        <ele>918</ele>
        <time>2021-11-16 10:59:10</time>
      </trkpt>
      <trkpt lat="40.72984" lon="-3.79028">
        <ele>918</ele>
        <time>2021-11-16 10:59:11</time>
      </trkpt>
      <trkpt lat="40.72989" lon="-3.79026">
        <ele>918.2</ele>
        <time>2021-11-16 10:59:12</time>
      </trkpt>
      <trkpt lat="40.72994" lon="-3.79024">
        <ele>918.2</ele>
        <time>2021-11-16 10:59:13</time>
      </trkpt>
      <trkpt lat="40.72999" lon="-3.79021">
        <ele>918.2</ele>
        <time>2021-11-16 10:59:14</time>
      </trkpt>
      <trkpt lat="40.73005" lon="-3.7902">
        <ele>918.2</ele>
        <time>2021-11-16 10:59:15</time>
      </trkpt>
      <trkpt lat="40.7301" lon="-3.79019">
        <ele>918.2</ele>
        <time>2021-11-16 10:59:16</time>
      </trkpt>
      <trkpt lat="40.73016" lon="-3.79018">
        <ele>918.2</ele>
        <time>2021-11-16 10:59:17</time>
      </trkpt>
      <trkpt lat="40.73022" lon="-3.79017">
        <ele>918.2</ele>
        <time>2021-11-16 10:59:18</time>
      </trkpt>
      <trkpt lat="40.73027" lon="-3.79015">
        <ele>918.2</ele>
        <time>2021-11-16 10:59:19</time>
      </trkpt>
      <trkpt lat="40.73033" lon="-3.79013">
        <ele>918</ele>
        <time>2021-11-16 10:59:20</time>
      </trkpt>
      <trkpt lat="40.73039" lon="-3.7901">
        <ele>917.8</ele>
        <time>2021-11-16 10:59:21</time>
      </trkpt>
      <trkpt lat="40.73045" lon="-3.79006">
        <ele>917.8</ele>
        <time>2021-11-16 10:59:22</time>
      </trkpt>
      <trkpt lat="40.7305" lon="-3.79002">
        <ele>917.8</ele>
        <time>2021-11-16 10:59:23</time>
      </trkpt>
      <trkpt lat="40.73056" lon="-3.78997">
        <ele>917.4</ele>
        <time>2021-11-16 10:59:24</time>
      </trkpt>
      <trkpt lat="40.73063" lon="-3.78993">
        <ele>917.2</ele>
        <time>2021-11-16 10:59:25</time>
      </trkpt>
      <trkpt lat="40.73069" lon="-3.7899">
        <ele>917</ele>
        <time>2021-11-16 10:59:26</time>
      </trkpt>
      <trkpt lat="40.73076" lon="-3.78988">
        <ele>916.8</ele>
        <time>2021-11-16 10:59:27</time>
      </trkpt>
      <trkpt lat="40.73083" lon="-3.78986">
        <ele>916.4</ele>
        <time>2021-11-16 10:59:28</time>
      </trkpt>
      <trkpt lat="40.73091" lon="-3.78983">
        <ele>916.2</ele>
        <time>2021-11-16 10:59:29</time>
      </trkpt>
      <trkpt lat="40.73098" lon="-3.7898">
        <ele>915.8</ele>
        <time>2021-11-16 10:59:30</time>
      </trkpt>
      <trkpt lat="40.73105" lon="-3.78978">
        <ele>915.6</ele>
        <time>2021-11-16 10:59:31</time>
      </trkpt>
      <trkpt lat="40.73113" lon="-3.78975">
        <ele>915.4</ele>
        <time>2021-11-16 10:59:32</time>
      </trkpt>
      <trkpt lat="40.7312" lon="-3.78973">
        <ele>915.2</ele>
        <time>2021-11-16 10:59:33</time>
      </trkpt>
      <trkpt lat="40.73128" lon="-3.7897">
        <ele>915.2</ele>
        <time>2021-11-16 10:59:34</time>
      </trkpt>
      <trkpt lat="40.73136" lon="-3.78967">
        <ele>914.6</ele>
        <time>2021-11-16 10:59:35</time>
      </trkpt>
      <trkpt lat="40.73143" lon="-3.78963">
        <ele>914</ele>
        <time>2021-11-16 10:59:36</time>
      </trkpt>
      <trkpt lat="40.73151" lon="-3.7896">
        <ele>914</ele>
        <time>2021-11-16 10:59:37</time>
      </trkpt>
      <trkpt lat="40.73159" lon="-3.78956">
        <ele>913.4</ele>
        <time>2021-11-16 10:59:38</time>
      </trkpt>
      <trkpt lat="40.73166" lon="-3.78953">
        <ele>913</ele>
        <time>2021-11-16 10:59:39</time>
      </trkpt>
      <trkpt lat="40.73173" lon="-3.78949">
        <ele>912.8</ele>
        <time>2021-11-16 10:59:40</time>
      </trkpt>
      <trkpt lat="40.73179" lon="-3.78947">
        <ele>912.8</ele>
        <time>2021-11-16 10:59:41</time>
      </trkpt>
      <trkpt lat="40.73185" lon="-3.78946">
        <ele>912.6</ele>
        <time>2021-11-16 10:59:42</time>
      </trkpt>
      <trkpt lat="40.73191" lon="-3.78946">
        <ele>911.8</ele>
        <time>2021-11-16 10:59:43</time>
      </trkpt>
      <trkpt lat="40.73195" lon="-3.78947">
        <ele>911.4</ele>
        <time>2021-11-16 10:59:44</time>
      </trkpt>
      <trkpt lat="40.73199" lon="-3.78949">
        <ele>911</ele>
        <time>2021-11-16 10:59:45</time>
      </trkpt>
      <trkpt lat="40.73203" lon="-3.78949">
        <ele>910.8</ele>
        <time>2021-11-16 10:59:46</time>
      </trkpt>
      <trkpt lat="40.73207" lon="-3.78948">
        <ele>910.4</ele>
        <time>2021-11-16 10:59:47</time>
      </trkpt>
      <trkpt lat="40.7321" lon="-3.78944">
        <ele>910.6</ele>
        <time>2021-11-16 10:59:48</time>
      </trkpt>
      <trkpt lat="40.73212" lon="-3.78938">
        <ele>910.4</ele>
        <time>2021-11-16 10:59:49</time>
      </trkpt>
      <trkpt lat="40.73215" lon="-3.78933">
        <ele>910.2</ele>
        <time>2021-11-16 10:59:50</time>
      </trkpt>
      <trkpt lat="40.73218" lon="-3.78928">
        <ele>910.2</ele>
        <time>2021-11-16 10:59:51</time>
      </trkpt>
      <trkpt lat="40.73222" lon="-3.78924">
        <ele>910</ele>
        <time>2021-11-16 10:59:52</time>
      </trkpt>
      <trkpt lat="40.73227" lon="-3.7892">
        <ele>910</ele>
        <time>2021-11-16 10:59:53</time>
      </trkpt>
      <trkpt lat="40.73233" lon="-3.78917">
        <ele>909.8</ele>
        <time>2021-11-16 10:59:54</time>
      </trkpt>
      <trkpt lat="40.73238" lon="-3.78914">
        <ele>909.8</ele>
        <time>2021-11-16 10:59:55</time>
      </trkpt>
      <trkpt lat="40.73244" lon="-3.78911">
        <ele>909.8</ele>
        <time>2021-11-16 10:59:56</time>
      </trkpt>
      <trkpt lat="40.7325" lon="-3.78908">
        <ele>909.6</ele>
        <time>2021-11-16 10:59:57</time>
      </trkpt>
      <trkpt lat="40.73255" lon="-3.78904">
        <ele>909.6</ele>
        <time>2021-11-16 10:59:58</time>
      </trkpt>
      <trkpt lat="40.73261" lon="-3.78901">
        <ele>909.6</ele>
        <time>2021-11-16 10:59:59</time>
      </trkpt>
      <trkpt lat="40.73267" lon="-3.78898">
        <ele>909.4</ele>
        <time>2021-11-16 11:00:00</time>
      </trkpt>
      <trkpt lat="40.73274" lon="-3.78894">
        <ele>909.4</ele>
        <time>2021-11-16 11:00:01</time>
      </trkpt>
      <trkpt lat="40.7328" lon="-3.78891">
        <ele>909</ele>
        <time>2021-11-16 11:00:02</time>
      </trkpt>
      <trkpt lat="40.73287" lon="-3.78888">
        <ele>908.6</ele>
        <time>2021-11-16 11:00:03</time>
      </trkpt>
      <trkpt lat="40.73293" lon="-3.78884">
        <ele>908.2</ele>
        <time>2021-11-16 11:00:04</time>
      </trkpt>
      <trkpt lat="40.733" lon="-3.78881">
        <ele>907.6</ele>
        <time>2021-11-16 11:00:05</time>
      </trkpt>
      <trkpt lat="40.73306" lon="-3.78878">
        <ele>907.4</ele>
        <time>2021-11-16 11:00:06</time>
      </trkpt>
      <trkpt lat="40.73313" lon="-3.78875">
        <ele>907.2</ele>
        <time>2021-11-16 11:00:07</time>
      </trkpt>
      <trkpt lat="40.7332" lon="-3.78872">
        <ele>906.8</ele>
        <time>2021-11-16 11:00:08</time>
      </trkpt>
      <trkpt lat="40.73327" lon="-3.78869">
        <ele>906.4</ele>
        <time>2021-11-16 11:00:09</time>
      </trkpt>
      <trkpt lat="40.73334" lon="-3.78865">
        <ele>906.4</ele>
        <time>2021-11-16 11:00:10</time>
      </trkpt>
      <trkpt lat="40.73341" lon="-3.78862">
        <ele>906.2</ele>
        <time>2021-11-16 11:00:11</time>
      </trkpt>
      <trkpt lat="40.73348" lon="-3.78859">
        <ele>905.8</ele>
        <time>2021-11-16 11:00:12</time>
      </trkpt>
      <trkpt lat="40.73355" lon="-3.78856">
        <ele>905.6</ele>
        <time>2021-11-16 11:00:13</time>
      </trkpt>
      <trkpt lat="40.73362" lon="-3.78853">
        <ele>905.6</ele>
        <time>2021-11-16 11:00:14</time>
      </trkpt>
      <trkpt lat="40.73369" lon="-3.78849">
        <ele>905.4</ele>
        <time>2021-11-16 11:00:15</time>
      </trkpt>
      <trkpt lat="40.73377" lon="-3.78846">
        <ele>905.2</ele>
        <time>2021-11-16 11:00:16</time>
      </trkpt>
      <trkpt lat="40.73384" lon="-3.78843">
        <ele>904.8</ele>
        <time>2021-11-16 11:00:17</time>
      </trkpt>
      <trkpt lat="40.73392" lon="-3.78839">
        <ele>904.8</ele>
        <time>2021-11-16 11:00:18</time>
      </trkpt>
      <trkpt lat="40.73399" lon="-3.78836">
        <ele>904.6</ele>
        <time>2021-11-16 11:00:19</time>
      </trkpt>
      <trkpt lat="40.73407" lon="-3.78832">
        <ele>904.6</ele>
        <time>2021-11-16 11:00:20</time>
      </trkpt>
      <trkpt lat="40.73415" lon="-3.78829">
        <ele>904.4</ele>
        <time>2021-11-16 11:00:21</time>
      </trkpt>
      <trkpt lat="40.73423" lon="-3.78825">
        <ele>904.4</ele>
        <time>2021-11-16 11:00:22</time>
      </trkpt>
      <trkpt lat="40.73432" lon="-3.78821">
        <ele>904.2</ele>
        <time>2021-11-16 11:00:23</time>
      </trkpt>
      <trkpt lat="40.7344" lon="-3.78817">
        <ele>903.8</ele>
        <time>2021-11-16 11:00:24</time>
      </trkpt>
      <trkpt lat="40.73449" lon="-3.78813">
        <ele>903.8</ele>
        <time>2021-11-16 11:00:25</time>
      </trkpt>
      <trkpt lat="40.73457" lon="-3.78809">
        <ele>903.4</ele>
        <time>2021-11-16 11:00:26</time>
      </trkpt>
      <trkpt lat="40.73466" lon="-3.78805">
        <ele>903.2</ele>
        <time>2021-11-16 11:00:27</time>
      </trkpt>
      <trkpt lat="40.73475" lon="-3.78801">
        <ele>903.2</ele>
        <time>2021-11-16 11:00:28</time>
      </trkpt>
      <trkpt lat="40.73484" lon="-3.78797">
        <ele>902.8</ele>
        <time>2021-11-16 11:00:29</time>
      </trkpt>
      <trkpt lat="40.73493" lon="-3.78792">
        <ele>902.4</ele>
        <time>2021-11-16 11:00:30</time>
      </trkpt>
      <trkpt lat="40.73502" lon="-3.78788">
        <ele>902</ele>
        <time>2021-11-16 11:00:31</time>
      </trkpt>
      <trkpt lat="40.73511" lon="-3.78784">
        <ele>902</ele>
        <time>2021-11-16 11:00:32</time>
      </trkpt>
      <trkpt lat="40.7352" lon="-3.7878">
        <ele>902</ele>
        <time>2021-11-16 11:00:33</time>
      </trkpt>
      <trkpt lat="40.73529" lon="-3.78776">
        <ele>901.4</ele>
        <time>2021-11-16 11:00:34</time>
      </trkpt>
      <trkpt lat="40.73538" lon="-3.78771">
        <ele>901</ele>
        <time>2021-11-16 11:00:35</time>
      </trkpt>
      <trkpt lat="40.73547" lon="-3.78767">
        <ele>900.2</ele>
        <time>2021-11-16 11:00:36</time>
      </trkpt>
      <trkpt lat="40.73555" lon="-3.78763">
        <ele>899.6</ele>
        <time>2021-11-16 11:00:37</time>
      </trkpt>
      <trkpt lat="40.73564" lon="-3.78759">
        <ele>899</ele>
        <time>2021-11-16 11:00:38</time>
      </trkpt>
      <trkpt lat="40.73573" lon="-3.78755">
        <ele>898.6</ele>
        <time>2021-11-16 11:00:39</time>
      </trkpt>
      <trkpt lat="40.73582" lon="-3.78751">
        <ele>898</ele>
        <time>2021-11-16 11:00:40</time>
      </trkpt>
      <trkpt lat="40.73591" lon="-3.78747">
        <ele>897.8</ele>
        <time>2021-11-16 11:00:41</time>
      </trkpt>
      <trkpt lat="40.73599" lon="-3.78743">
        <ele>897.2</ele>
        <time>2021-11-16 11:00:42</time>
      </trkpt>
      <trkpt lat="40.73608" lon="-3.78739">
        <ele>897</ele>
        <time>2021-11-16 11:00:43</time>
      </trkpt>
      <trkpt lat="40.73616" lon="-3.78736">
        <ele>897</ele>
        <time>2021-11-16 11:00:44</time>
      </trkpt>
      <trkpt lat="40.73624" lon="-3.78732">
        <ele>896.8</ele>
        <time>2021-11-16 11:00:45</time>
      </trkpt>
      <trkpt lat="40.73632" lon="-3.78728">
        <ele>896.8</ele>
        <time>2021-11-16 11:00:46</time>
      </trkpt>
      <trkpt lat="40.73641" lon="-3.78724">
        <ele>896.8</ele>
        <time>2021-11-16 11:00:47</time>
      </trkpt>
      <trkpt lat="40.73649" lon="-3.7872">
        <ele>896.8</ele>
        <time>2021-11-16 11:00:48</time>
      </trkpt>
      <trkpt lat="40.73656" lon="-3.78717">
        <ele>896.6</ele>
        <time>2021-11-16 11:00:49</time>
      </trkpt>
      <trkpt lat="40.73664" lon="-3.78713">
        <ele>896.4</ele>
        <time>2021-11-16 11:00:50</time>
      </trkpt>
      <trkpt lat="40.73672" lon="-3.78709">
        <ele>896.4</ele>
        <time>2021-11-16 11:00:51</time>
      </trkpt>
      <trkpt lat="40.73679" lon="-3.78706">
        <ele>896.4</ele>
        <time>2021-11-16 11:00:52</time>
      </trkpt>
      <trkpt lat="40.73687" lon="-3.78702">
        <ele>896.4</ele>
        <time>2021-11-16 11:00:53</time>
      </trkpt>
      <trkpt lat="40.73694" lon="-3.78699">
        <ele>896.4</ele>
        <time>2021-11-16 11:00:54</time>
      </trkpt>
      <trkpt lat="40.73702" lon="-3.78695">
        <ele>896.2</ele>
        <time>2021-11-16 11:00:55</time>
      </trkpt>
      <trkpt lat="40.73709" lon="-3.78691">
        <ele>896</ele>
        <time>2021-11-16 11:00:56</time>
      </trkpt>
      <trkpt lat="40.73716" lon="-3.78688">
        <ele>896.2</ele>
        <time>2021-11-16 11:00:57</time>
      </trkpt>
      <trkpt lat="40.73723" lon="-3.78684">
        <ele>896.2</ele>
        <time>2021-11-16 11:00:58</time>
      </trkpt>
      <trkpt lat="40.73731" lon="-3.78681">
        <ele>896.2</ele>
        <time>2021-11-16 11:00:59</time>
      </trkpt>
      <trkpt lat="40.73738" lon="-3.78678">
        <ele>896.2</ele>
        <time>2021-11-16 11:01:00</time>
      </trkpt>
      <trkpt lat="40.73745" lon="-3.78674">
        <ele>896.2</ele>
        <time>2021-11-16 11:01:01</time>
      </trkpt>
      <trkpt lat="40.73752" lon="-3.78671">
        <ele>896</ele>
        <time>2021-11-16 11:01:02</time>
      </trkpt>
      <trkpt lat="40.73759" lon="-3.78668">
        <ele>896.2</ele>
        <time>2021-11-16 11:01:03</time>
      </trkpt>
      <trkpt lat="40.73767" lon="-3.78665">
        <ele>896.2</ele>
        <time>2021-11-16 11:01:04</time>
      </trkpt>
      <trkpt lat="40.73774" lon="-3.78662">
        <ele>896.2</ele>
        <time>2021-11-16 11:01:05</time>
      </trkpt>
      <trkpt lat="40.73781" lon="-3.78659">
        <ele>896.2</ele>
        <time>2021-11-16 11:01:06</time>
      </trkpt>
      <trkpt lat="40.73789" lon="-3.78656">
        <ele>896.2</ele>
        <time>2021-11-16 11:01:07</time>
      </trkpt>
      <trkpt lat="40.73796" lon="-3.78653">
        <ele>896</ele>
        <time>2021-11-16 11:01:08</time>
      </trkpt>
      <trkpt lat="40.73804" lon="-3.7865">
        <ele>896.2</ele>
        <time>2021-11-16 11:01:09</time>
      </trkpt>
      <trkpt lat="40.73811" lon="-3.78648">
        <ele>896.2</ele>
        <time>2021-11-16 11:01:10</time>
      </trkpt>
      <trkpt lat="40.73819" lon="-3.78646">
        <ele>896.2</ele>
        <time>2021-11-16 11:01:11</time>
      </trkpt>
      <trkpt lat="40.73826" lon="-3.78645">
        <ele>896.2</ele>
        <time>2021-11-16 11:01:12</time>
      </trkpt>
      <trkpt lat="40.73833" lon="-3.78643">
        <ele>896.4</ele>
        <time>2021-11-16 11:01:13</time>
      </trkpt>
      <trkpt lat="40.73841" lon="-3.78642">
        <ele>896.6</ele>
        <time>2021-11-16 11:01:14</time>
      </trkpt>
      <trkpt lat="40.73848" lon="-3.78642">
        <ele>896.6</ele>
        <time>2021-11-16 11:01:15</time>
      </trkpt>
      <trkpt lat="40.73855" lon="-3.78641">
        <ele>896.6</ele>
        <time>2021-11-16 11:01:16</time>
      </trkpt>
      <trkpt lat="40.73863" lon="-3.7864">
        <ele>896.6</ele>
        <time>2021-11-16 11:01:17</time>
      </trkpt>
      <trkpt lat="40.7387" lon="-3.78639">
        <ele>896.6</ele>
        <time>2021-11-16 11:01:18</time>
      </trkpt>
      <trkpt lat="40.73877" lon="-3.78639">
        <ele>896.8</ele>
        <time>2021-11-16 11:01:19</time>
      </trkpt>
      <trkpt lat="40.73884" lon="-3.78638">
        <ele>896.8</ele>
        <time>2021-11-16 11:01:20</time>
      </trkpt>
      <trkpt lat="40.73892" lon="-3.78638">
        <ele>896.8</ele>
        <time>2021-11-16 11:01:21</time>
      </trkpt>
      <trkpt lat="40.73899" lon="-3.78638">
        <ele>896.8</ele>
        <time>2021-11-16 11:01:22</time>
      </trkpt>
      <trkpt lat="40.73906" lon="-3.78638">
        <ele>896.8</ele>
        <time>2021-11-16 11:01:23</time>
      </trkpt>
      <trkpt lat="40.73913" lon="-3.78638">
        <ele>897</ele>
        <time>2021-11-16 11:01:24</time>
      </trkpt>
      <trkpt lat="40.7392" lon="-3.78638">
        <ele>897</ele>
        <time>2021-11-16 11:01:25</time>
      </trkpt>
      <trkpt lat="40.73927" lon="-3.78638">
        <ele>897.2</ele>
        <time>2021-11-16 11:01:26</time>
      </trkpt>
      <trkpt lat="40.73934" lon="-3.78638">
        <ele>897.2</ele>
        <time>2021-11-16 11:01:27</time>
      </trkpt>
      <trkpt lat="40.73941" lon="-3.78637">
        <ele>897.2</ele>
        <time>2021-11-16 11:01:28</time>
      </trkpt>
      <trkpt lat="40.73949" lon="-3.78637">
        <ele>897.2</ele>
        <time>2021-11-16 11:01:29</time>
      </trkpt>
      <trkpt lat="40.73956" lon="-3.78636">
        <ele>897.4</ele>
        <time>2021-11-16 11:01:30</time>
      </trkpt>
      <trkpt lat="40.73963" lon="-3.78636">
        <ele>897.4</ele>
        <time>2021-11-16 11:01:31</time>
      </trkpt>
      <trkpt lat="40.73969" lon="-3.78636">
        <ele>897.4</ele>
        <time>2021-11-16 11:01:32</time>
      </trkpt>
      <trkpt lat="40.73976" lon="-3.78636">
        <ele>897.6</ele>
        <time>2021-11-16 11:01:33</time>
      </trkpt>
      <trkpt lat="40.73983" lon="-3.78636">
        <ele>897.6</ele>
        <time>2021-11-16 11:01:34</time>
      </trkpt>
      <trkpt lat="40.7399" lon="-3.78635">
        <ele>897.6</ele>
        <time>2021-11-16 11:01:35</time>
      </trkpt>
      <trkpt lat="40.73996" lon="-3.78635">
        <ele>897.6</ele>
        <time>2021-11-16 11:01:36</time>
      </trkpt>
      <trkpt lat="40.74003" lon="-3.78635">
        <ele>897.8</ele>
        <time>2021-11-16 11:01:37</time>
      </trkpt>
      <trkpt lat="40.74009" lon="-3.78634">
        <ele>898</ele>
        <time>2021-11-16 11:01:38</time>
      </trkpt>
      <trkpt lat="40.74016" lon="-3.78634">
        <ele>898</ele>
        <time>2021-11-16 11:01:39</time>
      </trkpt>
      <trkpt lat="40.74023" lon="-3.78634">
        <ele>898</ele>
        <time>2021-11-16 11:01:40</time>
      </trkpt>
      <trkpt lat="40.7403" lon="-3.78633">
        <ele>898</ele>
        <time>2021-11-16 11:01:41</time>
      </trkpt>
      <trkpt lat="40.74037" lon="-3.78633">
        <ele>898.2</ele>
        <time>2021-11-16 11:01:42</time>
      </trkpt>
      <trkpt lat="40.74043" lon="-3.78633">
        <ele>898.2</ele>
        <time>2021-11-16 11:01:43</time>
      </trkpt>
      <trkpt lat="40.7405" lon="-3.78633">
        <ele>898.2</ele>
        <time>2021-11-16 11:01:44</time>
      </trkpt>
      <trkpt lat="40.74057" lon="-3.78632">
        <ele>898.2</ele>
        <time>2021-11-16 11:01:45</time>
      </trkpt>
      <trkpt lat="40.74064" lon="-3.78632">
        <ele>898.4</ele>
        <time>2021-11-16 11:01:46</time>
      </trkpt>
      <trkpt lat="40.7407" lon="-3.78632">
        <ele>898.4</ele>
        <time>2021-11-16 11:01:47</time>
      </trkpt>
      <trkpt lat="40.74077" lon="-3.78632">
        <ele>898.4</ele>
        <time>2021-11-16 11:01:48</time>
      </trkpt>
      <trkpt lat="40.74084" lon="-3.78631">
        <ele>898.4</ele>
        <time>2021-11-16 11:01:49</time>
      </trkpt>
      <trkpt lat="40.74091" lon="-3.78631">
        <ele>898.6</ele>
        <time>2021-11-16 11:01:50</time>
      </trkpt>
      <trkpt lat="40.74098" lon="-3.78631">
        <ele>898.8</ele>
        <time>2021-11-16 11:01:51</time>
      </trkpt>
      <trkpt lat="40.74105" lon="-3.78631">
        <ele>898.8</ele>
        <time>2021-11-16 11:01:52</time>
      </trkpt>
      <trkpt lat="40.74112" lon="-3.78631">
        <ele>899</ele>
        <time>2021-11-16 11:01:53</time>
      </trkpt>
      <trkpt lat="40.74118" lon="-3.7863">
        <ele>899</ele>
        <time>2021-11-16 11:01:54</time>
      </trkpt>
      <trkpt lat="40.74125" lon="-3.7863">
        <ele>899.4</ele>
        <time>2021-11-16 11:01:55</time>
      </trkpt>
      <trkpt lat="40.74132" lon="-3.78629">
        <ele>899.4</ele>
        <time>2021-11-16 11:01:56</time>
      </trkpt>
      <trkpt lat="40.74138" lon="-3.78629">
        <ele>899.4</ele>
        <time>2021-11-16 11:01:57</time>
      </trkpt>
      <trkpt lat="40.74145" lon="-3.78629">
        <ele>899.6</ele>
        <time>2021-11-16 11:01:58</time>
      </trkpt>
      <trkpt lat="40.74151" lon="-3.78629">
        <ele>899.4</ele>
        <time>2021-11-16 11:01:59</time>
      </trkpt>
      <trkpt lat="40.74158" lon="-3.78629">
        <ele>899.6</ele>
        <time>2021-11-16 11:02:00</time>
      </trkpt>
      <trkpt lat="40.74165" lon="-3.78629">
        <ele>899.6</ele>
        <time>2021-11-16 11:02:01</time>
      </trkpt>
      <trkpt lat="40.74172" lon="-3.78628">
        <ele>899.6</ele>
        <time>2021-11-16 11:02:02</time>
      </trkpt>
      <trkpt lat="40.74178" lon="-3.78628">
        <ele>899.8</ele>
        <time>2021-11-16 11:02:03</time>
      </trkpt>
      <trkpt lat="40.74184" lon="-3.78628">
        <ele>899.8</ele>
        <time>2021-11-16 11:02:04</time>
      </trkpt>
      <trkpt lat="40.74191" lon="-3.78627">
        <ele>899.6</ele>
        <time>2021-11-16 11:02:05</time>
      </trkpt>
      <trkpt lat="40.74197" lon="-3.78626">
        <ele>899.6</ele>
        <time>2021-11-16 11:02:06</time>
      </trkpt>
      <trkpt lat="40.74203" lon="-3.78624">
        <ele>899.8</ele>
        <time>2021-11-16 11:02:07</time>
      </trkpt>
      <trkpt lat="40.7421" lon="-3.78622">
        <ele>899.8</ele>
        <time>2021-11-16 11:02:08</time>
      </trkpt>
      <trkpt lat="40.74216" lon="-3.7862">
        <ele>900</ele>
        <time>2021-11-16 11:02:09</time>
      </trkpt>
      <trkpt lat="40.74222" lon="-3.78617">
        <ele>899.8</ele>
        <time>2021-11-16 11:02:10</time>
      </trkpt>
      <trkpt lat="40.74228" lon="-3.78613">
        <ele>899.8</ele>
        <time>2021-11-16 11:02:11</time>
      </trkpt>
      <trkpt lat="40.74234" lon="-3.78609">
        <ele>899.8</ele>
        <time>2021-11-16 11:02:12</time>
      </trkpt>
      <trkpt lat="40.74241" lon="-3.78604">
        <ele>899.8</ele>
        <time>2021-11-16 11:02:13</time>
      </trkpt>
      <trkpt lat="40.74247" lon="-3.78599">
        <ele>900.2</ele>
        <time>2021-11-16 11:02:14</time>
      </trkpt>
      <trkpt lat="40.74253" lon="-3.78594">
        <ele>900</ele>
        <time>2021-11-16 11:02:15</time>
      </trkpt>
      <trkpt lat="40.74259" lon="-3.7859">
        <ele>900</ele>
        <time>2021-11-16 11:02:16</time>
      </trkpt>
      <trkpt lat="40.74265" lon="-3.78585">
        <ele>900.2</ele>
        <time>2021-11-16 11:02:17</time>
      </trkpt>
      <trkpt lat="40.74271" lon="-3.78579">
        <ele>900.2</ele>
        <time>2021-11-16 11:02:18</time>
      </trkpt>
      <trkpt lat="40.74277" lon="-3.78574">
        <ele>900.2</ele>
        <time>2021-11-16 11:02:19</time>
      </trkpt>
      <trkpt lat="40.74283" lon="-3.78569">
        <ele>900.2</ele>
        <time>2021-11-16 11:02:20</time>
      </trkpt>
      <trkpt lat="40.74289" lon="-3.78564">
        <ele>900.2</ele>
        <time>2021-11-16 11:02:21</time>
      </trkpt>
      <trkpt lat="40.74294" lon="-3.78559">
        <ele>900</ele>
        <time>2021-11-16 11:02:22</time>
      </trkpt>
      <trkpt lat="40.743" lon="-3.78554">
        <ele>900.2</ele>
        <time>2021-11-16 11:02:23</time>
      </trkpt>
      <trkpt lat="40.74305" lon="-3.78549">
        <ele>900.2</ele>
        <time>2021-11-16 11:02:24</time>
      </trkpt>
      <trkpt lat="40.74311" lon="-3.78544">
        <ele>900.2</ele>
        <time>2021-11-16 11:02:25</time>
      </trkpt>
      <trkpt lat="40.74316" lon="-3.78538">
        <ele>900.2</ele>
        <time>2021-11-16 11:02:26</time>
      </trkpt>
      <trkpt lat="40.74322" lon="-3.78533">
        <ele>900</ele>
        <time>2021-11-16 11:02:27</time>
      </trkpt>
      <trkpt lat="40.74327" lon="-3.78528">
        <ele>900.2</ele>
        <time>2021-11-16 11:02:28</time>
      </trkpt>
      <trkpt lat="40.74333" lon="-3.78524">
        <ele>900.2</ele>
        <time>2021-11-16 11:02:29</time>
      </trkpt>
      <trkpt lat="40.74338" lon="-3.78519">
        <ele>900.2</ele>
        <time>2021-11-16 11:02:30</time>
      </trkpt>
      <trkpt lat="40.74343" lon="-3.78514">
        <ele>900.4</ele>
        <time>2021-11-16 11:02:31</time>
      </trkpt>
      <trkpt lat="40.74349" lon="-3.78509">
        <ele>900.4</ele>
        <time>2021-11-16 11:02:32</time>
      </trkpt>
      <trkpt lat="40.74354" lon="-3.78505">
        <ele>900.6</ele>
        <time>2021-11-16 11:02:33</time>
      </trkpt>
      <trkpt lat="40.7436" lon="-3.785">
        <ele>900.6</ele>
        <time>2021-11-16 11:02:34</time>
      </trkpt>
      <trkpt lat="40.74365" lon="-3.78495">
        <ele>900.8</ele>
        <time>2021-11-16 11:02:35</time>
      </trkpt>
      <trkpt lat="40.74371" lon="-3.78491">
        <ele>900.8</ele>
        <time>2021-11-16 11:02:36</time>
      </trkpt>
      <trkpt lat="40.74377" lon="-3.78487">
        <ele>900.8</ele>
        <time>2021-11-16 11:02:37</time>
      </trkpt>
      <trkpt lat="40.74383" lon="-3.78483">
        <ele>900.8</ele>
        <time>2021-11-16 11:02:38</time>
      </trkpt>
      <trkpt lat="40.74389" lon="-3.78479">
        <ele>900.8</ele>
        <time>2021-11-16 11:02:39</time>
      </trkpt>
      <trkpt lat="40.74395" lon="-3.78476">
        <ele>900.8</ele>
        <time>2021-11-16 11:02:40</time>
      </trkpt>
      <trkpt lat="40.74402" lon="-3.78472">
        <ele>901</ele>
        <time>2021-11-16 11:02:41</time>
      </trkpt>
      <trkpt lat="40.74408" lon="-3.7847">
        <ele>900.8</ele>
        <time>2021-11-16 11:02:42</time>
      </trkpt>
      <trkpt lat="40.74414" lon="-3.78467">
        <ele>900.8</ele>
        <time>2021-11-16 11:02:43</time>
      </trkpt>
      <trkpt lat="40.74421" lon="-3.78464">
        <ele>900.8</ele>
        <time>2021-11-16 11:02:44</time>
      </trkpt>
      <trkpt lat="40.74427" lon="-3.78462">
        <ele>900.8</ele>
        <time>2021-11-16 11:02:45</time>
      </trkpt>
      <trkpt lat="40.74433" lon="-3.7846">
        <ele>900.8</ele>
        <time>2021-11-16 11:02:46</time>
      </trkpt>
      <trkpt lat="40.74439" lon="-3.78459">
        <ele>901</ele>
        <time>2021-11-16 11:02:47</time>
      </trkpt>
      <trkpt lat="40.74445" lon="-3.78458">
        <ele>901</ele>
        <time>2021-11-16 11:02:48</time>
      </trkpt>
      <trkpt lat="40.74451" lon="-3.78456">
        <ele>901</ele>
        <time>2021-11-16 11:02:49</time>
      </trkpt>
      <trkpt lat="40.74457" lon="-3.78454">
        <ele>901</ele>
        <time>2021-11-16 11:02:50</time>
      </trkpt>
      <trkpt lat="40.74464" lon="-3.78453">
        <ele>901</ele>
        <time>2021-11-16 11:02:51</time>
      </trkpt>
      <trkpt lat="40.7447" lon="-3.78452">
        <ele>901</ele>
        <time>2021-11-16 11:02:52</time>
      </trkpt>
      <trkpt lat="40.74476" lon="-3.78452">
        <ele>901</ele>
        <time>2021-11-16 11:02:53</time>
      </trkpt>
      <trkpt lat="40.74483" lon="-3.78452">
        <ele>901.2</ele>
        <time>2021-11-16 11:02:54</time>
      </trkpt>
      <trkpt lat="40.74489" lon="-3.78452">
        <ele>901.2</ele>
        <time>2021-11-16 11:02:55</time>
      </trkpt>
      <trkpt lat="40.74495" lon="-3.78451">
        <ele>901.4</ele>
        <time>2021-11-16 11:02:56</time>
      </trkpt>
      <trkpt lat="40.74501" lon="-3.7845">
        <ele>901.4</ele>
        <time>2021-11-16 11:02:57</time>
      </trkpt>
      <trkpt lat="40.74507" lon="-3.78449">
        <ele>901.2</ele>
        <time>2021-11-16 11:02:58</time>
      </trkpt>
      <trkpt lat="40.74513" lon="-3.78447">
        <ele>901.6</ele>
        <time>2021-11-16 11:02:59</time>
      </trkpt>
      <trkpt lat="40.74519" lon="-3.78445">
        <ele>901.4</ele>
        <time>2021-11-16 11:03:00</time>
      </trkpt>
      <trkpt lat="40.74524" lon="-3.78444">
        <ele>901.6</ele>
        <time>2021-11-16 11:03:01</time>
      </trkpt>
      <trkpt lat="40.7453" lon="-3.78442">
        <ele>901.8</ele>
        <time>2021-11-16 11:03:02</time>
      </trkpt>
      <trkpt lat="40.74535" lon="-3.78441">
        <ele>901.8</ele>
        <time>2021-11-16 11:03:03</time>
      </trkpt>
      <trkpt lat="40.74541" lon="-3.78439">
        <ele>901.8</ele>
        <time>2021-11-16 11:03:04</time>
      </trkpt>
      <trkpt lat="40.74546" lon="-3.78438">
        <ele>901.8</ele>
        <time>2021-11-16 11:03:05</time>
      </trkpt>
      <trkpt lat="40.74552" lon="-3.78436">
        <ele>901.8</ele>
        <time>2021-11-16 11:03:06</time>
      </trkpt>
      <trkpt lat="40.74558" lon="-3.78435">
        <ele>902</ele>
        <time>2021-11-16 11:03:07</time>
      </trkpt>
      <trkpt lat="40.74563" lon="-3.78433">
        <ele>901.8</ele>
        <time>2021-11-16 11:03:08</time>
      </trkpt>
      <trkpt lat="40.74569" lon="-3.78432">
        <ele>902.2</ele>
        <time>2021-11-16 11:03:09</time>
      </trkpt>
      <trkpt lat="40.74574" lon="-3.78431">
        <ele>902.2</ele>
        <time>2021-11-16 11:03:10</time>
      </trkpt>
      <trkpt lat="40.7458" lon="-3.7843">
        <ele>902.6</ele>
        <time>2021-11-16 11:03:11</time>
      </trkpt>
      <trkpt lat="40.74585" lon="-3.78431">
        <ele>902.8</ele>
        <time>2021-11-16 11:03:12</time>
      </trkpt>
      <trkpt lat="40.7459" lon="-3.7843">
        <ele>903</ele>
        <time>2021-11-16 11:03:13</time>
      </trkpt>
      <trkpt lat="40.74596" lon="-3.78428">
        <ele>903.4</ele>
        <time>2021-11-16 11:03:14</time>
      </trkpt>
      <trkpt lat="40.74601" lon="-3.78426">
        <ele>903.4</ele>
        <time>2021-11-16 11:03:15</time>
      </trkpt>
      <trkpt lat="40.74606" lon="-3.78424">
        <ele>903.6</ele>
        <time>2021-11-16 11:03:16</time>
      </trkpt>
      <trkpt lat="40.74612" lon="-3.78422">
        <ele>903.8</ele>
        <time>2021-11-16 11:03:17</time>
      </trkpt>
      <trkpt lat="40.74617" lon="-3.78421">
        <ele>903.8</ele>
        <time>2021-11-16 11:03:18</time>
      </trkpt>
      <trkpt lat="40.74623" lon="-3.7842">
        <ele>904.4</ele>
        <time>2021-11-16 11:03:19</time>
      </trkpt>
      <trkpt lat="40.74628" lon="-3.78418">
        <ele>904.8</ele>
        <time>2021-11-16 11:03:20</time>
      </trkpt>
      <trkpt lat="40.74634" lon="-3.78417">
        <ele>905</ele>
        <time>2021-11-16 11:03:21</time>
      </trkpt>
      <trkpt lat="40.74639" lon="-3.78415">
        <ele>905.2</ele>
        <time>2021-11-16 11:03:22</time>
      </trkpt>
      <trkpt lat="40.74644" lon="-3.78414">
        <ele>905.2</ele>
        <time>2021-11-16 11:03:23</time>
      </trkpt>
      <trkpt lat="40.7465" lon="-3.78412">
        <ele>905.2</ele>
        <time>2021-11-16 11:03:24</time>
      </trkpt>
      <trkpt lat="40.74655" lon="-3.78411">
        <ele>905.4</ele>
        <time>2021-11-16 11:03:25</time>
      </trkpt>
      <trkpt lat="40.7466" lon="-3.78412">
        <ele>905.2</ele>
        <time>2021-11-16 11:03:26</time>
      </trkpt>
      <trkpt lat="40.74666" lon="-3.78413">
        <ele>905.4</ele>
        <time>2021-11-16 11:03:27</time>
      </trkpt>
      <trkpt lat="40.74671" lon="-3.78414">
        <ele>905.2</ele>
        <time>2021-11-16 11:03:28</time>
      </trkpt>
      <trkpt lat="40.74676" lon="-3.78414">
        <ele>905.4</ele>
        <time>2021-11-16 11:03:29</time>
      </trkpt>
      <trkpt lat="40.74682" lon="-3.78413">
        <ele>905.4</ele>
        <time>2021-11-16 11:03:30</time>
      </trkpt>
      <trkpt lat="40.74687" lon="-3.78412">
        <ele>905.4</ele>
        <time>2021-11-16 11:03:31</time>
      </trkpt>
      <trkpt lat="40.74692" lon="-3.78409">
        <ele>905.4</ele>
        <time>2021-11-16 11:03:32</time>
      </trkpt>
      <trkpt lat="40.74698" lon="-3.78407">
        <ele>905.6</ele>
        <time>2021-11-16 11:03:33</time>
      </trkpt>
      <trkpt lat="40.74703" lon="-3.78405">
        <ele>905.8</ele>
        <time>2021-11-16 11:03:34</time>
      </trkpt>
      <trkpt lat="40.74709" lon="-3.78403">
        <ele>905.8</ele>
        <time>2021-11-16 11:03:35</time>
      </trkpt>
      <trkpt lat="40.74715" lon="-3.78401">
        <ele>906</ele>
        <time>2021-11-16 11:03:36</time>
      </trkpt>
      <trkpt lat="40.7472" lon="-3.78397">
        <ele>906</ele>
        <time>2021-11-16 11:03:37</time>
      </trkpt>
      <trkpt lat="40.74725" lon="-3.78393">
        <ele>906</ele>
        <time>2021-11-16 11:03:38</time>
      </trkpt>
      <trkpt lat="40.7473" lon="-3.78389">
        <ele>906.2</ele>
        <time>2021-11-16 11:03:39</time>
      </trkpt>
      <trkpt lat="40.74735" lon="-3.78384">
        <ele>906.4</ele>
        <time>2021-11-16 11:03:40</time>
      </trkpt>
      <trkpt lat="40.7474" lon="-3.7838">
        <ele>906.4</ele>
        <time>2021-11-16 11:03:41</time>
      </trkpt>
      <trkpt lat="40.74745" lon="-3.78377">
        <ele>906.4</ele>
        <time>2021-11-16 11:03:42</time>
      </trkpt>
      <trkpt lat="40.74751" lon="-3.78375">
        <ele>906.2</ele>
        <time>2021-11-16 11:03:43</time>
      </trkpt>
      <trkpt lat="40.74756" lon="-3.78374">
        <ele>906.4</ele>
        <time>2021-11-16 11:03:44</time>
      </trkpt>
      <trkpt lat="40.74762" lon="-3.78372">
        <ele>906.4</ele>
        <time>2021-11-16 11:03:45</time>
      </trkpt>
      <trkpt lat="40.74768" lon="-3.7837">
        <ele>906.4</ele>
        <time>2021-11-16 11:03:46</time>
      </trkpt>
      <trkpt lat="40.74774" lon="-3.78368">
        <ele>906.2</ele>
        <time>2021-11-16 11:03:47</time>
      </trkpt>
      <trkpt lat="40.74779" lon="-3.78366">
        <ele>906.4</ele>
        <time>2021-11-16 11:03:48</time>
      </trkpt>
      <trkpt lat="40.74785" lon="-3.78364">
        <ele>906.4</ele>
        <time>2021-11-16 11:03:49</time>
      </trkpt>
      <trkpt lat="40.74791" lon="-3.78362">
        <ele>906.2</ele>
        <time>2021-11-16 11:03:50</time>
      </trkpt>
      <trkpt lat="40.74796" lon="-3.7836">
        <ele>906.2</ele>
        <time>2021-11-16 11:03:51</time>
      </trkpt>
      <trkpt lat="40.74802" lon="-3.78359">
        <ele>906.4</ele>
        <time>2021-11-16 11:03:52</time>
      </trkpt>
      <trkpt lat="40.74808" lon="-3.78357">
        <ele>906.2</ele>
        <time>2021-11-16 11:03:53</time>
      </trkpt>
      <trkpt lat="40.74814" lon="-3.78355">
        <ele>906.4</ele>
        <time>2021-11-16 11:03:54</time>
      </trkpt>
      <trkpt lat="40.7482" lon="-3.78353">
        <ele>906.4</ele>
        <time>2021-11-16 11:03:55</time>
      </trkpt>
      <trkpt lat="40.74826" lon="-3.78351">
        <ele>906.2</ele>
        <time>2021-11-16 11:03:56</time>
      </trkpt>
      <trkpt lat="40.74832" lon="-3.78349">
        <ele>906.4</ele>
        <time>2021-11-16 11:03:57</time>
      </trkpt>
      <trkpt lat="40.74838" lon="-3.78347">
        <ele>906.4</ele>
        <time>2021-11-16 11:03:58</time>
      </trkpt>
      <trkpt lat="40.74843" lon="-3.78345">
        <ele>906.4</ele>
        <time>2021-11-16 11:03:59</time>
      </trkpt>
      <trkpt lat="40.74849" lon="-3.78343">
        <ele>906.4</ele>
        <time>2021-11-16 11:04:00</time>
      </trkpt>
      <trkpt lat="40.74855" lon="-3.78341">
        <ele>906.4</ele>
        <time>2021-11-16 11:04:01</time>
      </trkpt>
      <trkpt lat="40.74861" lon="-3.78339">
        <ele>906.4</ele>
        <time>2021-11-16 11:04:02</time>
      </trkpt>
      <trkpt lat="40.74866" lon="-3.78338">
        <ele>906.4</ele>
        <time>2021-11-16 11:04:03</time>
      </trkpt>
      <trkpt lat="40.74871" lon="-3.78336">
        <ele>906.6</ele>
        <time>2021-11-16 11:04:04</time>
      </trkpt>
      <trkpt lat="40.74876" lon="-3.78334">
        <ele>906.6</ele>
        <time>2021-11-16 11:04:05</time>
      </trkpt>
      <trkpt lat="40.74881" lon="-3.78331">
        <ele>906.6</ele>
        <time>2021-11-16 11:04:06</time>
      </trkpt>
      <trkpt lat="40.74886" lon="-3.78329">
        <ele>906.8</ele>
        <time>2021-11-16 11:04:07</time>
      </trkpt>
      <trkpt lat="40.74891" lon="-3.78327">
        <ele>906.8</ele>
        <time>2021-11-16 11:04:08</time>
      </trkpt>
      <trkpt lat="40.74896" lon="-3.78325">
        <ele>907</ele>
        <time>2021-11-16 11:04:09</time>
      </trkpt>
      <trkpt lat="40.74901" lon="-3.78324">
        <ele>907.2</ele>
        <time>2021-11-16 11:04:10</time>
      </trkpt>
      <trkpt lat="40.74907" lon="-3.78323">
        <ele>907.2</ele>
        <time>2021-11-16 11:04:11</time>
      </trkpt>
      <trkpt lat="40.74912" lon="-3.78322">
        <ele>907.4</ele>
        <time>2021-11-16 11:04:12</time>
      </trkpt>
      <trkpt lat="40.74917" lon="-3.78321">
        <ele>907.6</ele>
        <time>2021-11-16 11:04:13</time>
      </trkpt>
      <trkpt lat="40.74922" lon="-3.7832">
        <ele>907.6</ele>
        <time>2021-11-16 11:04:14</time>
      </trkpt>
      <trkpt lat="40.74925" lon="-3.78319">
        <ele>907.8</ele>
        <time>2021-11-16 11:04:15</time>
      </trkpt>
      <trkpt lat="40.74929" lon="-3.78319">
        <ele>907.8</ele>
        <time>2021-11-16 11:04:16</time>
      </trkpt>
      <trkpt lat="40.74932" lon="-3.78319">
        <ele>907.8</ele>
        <time>2021-11-16 11:04:17</time>
      </trkpt>
      <trkpt lat="40.74935" lon="-3.78321">
        <ele>908</ele>
        <time>2021-11-16 11:04:18</time>
      </trkpt>
      <trkpt lat="40.74964" lon="-3.78312">
        <ele>909.6</ele>
        <time>2021-11-16 11:04:29</time>
      </trkpt>
      <trkpt lat="40.74964" lon="-3.78312">
        <ele>909.6</ele>
        <time>2021-11-16 11:04:30</time>
      </trkpt>
      <trkpt lat="40.7496" lon="-3.78312">
        <ele>909.6</ele>
        <time>2021-11-16 11:04:31</time>
      </trkpt>
      <trkpt lat="40.74956" lon="-3.78313">
        <ele>909.8</ele>
        <time>2021-11-16 11:04:32</time>
      </trkpt>
      <trkpt lat="40.74951" lon="-3.78313">
        <ele>910</ele>
        <time>2021-11-16 11:04:33</time>
      </trkpt>
      <trkpt lat="40.74946" lon="-3.78311">
        <ele>910</ele>
        <time>2021-11-16 11:04:34</time>
      </trkpt>
      <trkpt lat="40.74941" lon="-3.78307">
        <ele>909.8</ele>
        <time>2021-11-16 11:04:35</time>
      </trkpt>
      <trkpt lat="40.74938" lon="-3.78301">
        <ele>909.8</ele>
        <time>2021-11-16 11:04:36</time>
      </trkpt>
      <trkpt lat="40.74936" lon="-3.78294">
        <ele>909.8</ele>
        <time>2021-11-16 11:04:37</time>
      </trkpt>
      <trkpt lat="40.74936" lon="-3.78287">
        <ele>909.6</ele>
        <time>2021-11-16 11:04:38</time>
      </trkpt>
      <trkpt lat="40.74939" lon="-3.78281">
        <ele>909.6</ele>
        <time>2021-11-16 11:04:39</time>
      </trkpt>
      <trkpt lat="40.74943" lon="-3.78276">
        <ele>909.6</ele>
        <time>2021-11-16 11:04:40</time>
      </trkpt>
      <trkpt lat="40.74948" lon="-3.78273">
        <ele>909.6</ele>
        <time>2021-11-16 11:04:41</time>
      </trkpt>
      <trkpt lat="40.74954" lon="-3.78272">
        <ele>909.6</ele>
        <time>2021-11-16 11:04:42</time>
      </trkpt>
      <trkpt lat="40.7496" lon="-3.78272">
        <ele>909.6</ele>
        <time>2021-11-16 11:04:43</time>
      </trkpt>
      <trkpt lat="40.74966" lon="-3.78272">
        <ele>909.6</ele>
        <time>2021-11-16 11:04:44</time>
      </trkpt>
      <trkpt lat="40.74972" lon="-3.78272">
        <ele>909.6</ele>
        <time>2021-11-16 11:04:45</time>
      </trkpt>
      <trkpt lat="40.74978" lon="-3.78271">
        <ele>909.6</ele>
        <time>2021-11-16 11:04:46</time>
      </trkpt>
      <trkpt lat="40.74984" lon="-3.78271">
        <ele>909.6</ele>
        <time>2021-11-16 11:04:47</time>
      </trkpt>
      <trkpt lat="40.7499" lon="-3.7827">
        <ele>909.6</ele>
        <time>2021-11-16 11:04:48</time>
      </trkpt>
      <trkpt lat="40.74996" lon="-3.78269">
        <ele>909.6</ele>
        <time>2021-11-16 11:04:49</time>
      </trkpt>
      <trkpt lat="40.75001" lon="-3.78267">
        <ele>909.6</ele>
        <time>2021-11-16 11:04:50</time>
      </trkpt>
      <trkpt lat="40.75007" lon="-3.78266">
        <ele>909.6</ele>
        <time>2021-11-16 11:04:51</time>
      </trkpt>
      <trkpt lat="40.75013" lon="-3.78264">
        <ele>909.6</ele>
        <time>2021-11-16 11:04:52</time>
      </trkpt>
      <trkpt lat="40.75019" lon="-3.78263">
        <ele>909.6</ele>
        <time>2021-11-16 11:04:53</time>
      </trkpt>
      <trkpt lat="40.75024" lon="-3.78261">
        <ele>909.6</ele>
        <time>2021-11-16 11:04:54</time>
      </trkpt>
      <trkpt lat="40.7503" lon="-3.78259">
        <ele>909.8</ele>
        <time>2021-11-16 11:04:55</time>
      </trkpt>
      <trkpt lat="40.75035" lon="-3.78257">
        <ele>909.6</ele>
        <time>2021-11-16 11:04:56</time>
      </trkpt>
      <trkpt lat="40.75041" lon="-3.78255">
        <ele>909.8</ele>
        <time>2021-11-16 11:04:57</time>
      </trkpt>
      <trkpt lat="40.75046" lon="-3.78253">
        <ele>909.8</ele>
        <time>2021-11-16 11:04:58</time>
      </trkpt>
      <trkpt lat="40.75052" lon="-3.78251">
        <ele>909.8</ele>
        <time>2021-11-16 11:04:59</time>
      </trkpt>
      <trkpt lat="40.75057" lon="-3.78249">
        <ele>909.8</ele>
        <time>2021-11-16 11:05:00</time>
      </trkpt>
      <trkpt lat="40.75063" lon="-3.78248">
        <ele>910</ele>
        <time>2021-11-16 11:05:01</time>
      </trkpt>
      <trkpt lat="40.75069" lon="-3.78246">
        <ele>909.8</ele>
        <time>2021-11-16 11:05:02</time>
      </trkpt>
      <trkpt lat="40.75074" lon="-3.78244">
        <ele>910</ele>
        <time>2021-11-16 11:05:03</time>
      </trkpt>
      <trkpt lat="40.7508" lon="-3.78242">
        <ele>910.4</ele>
        <time>2021-11-16 11:05:04</time>
      </trkpt>
      <trkpt lat="40.75085" lon="-3.7824">
        <ele>910.6</ele>
        <time>2021-11-16 11:05:05</time>
      </trkpt>
      <trkpt lat="40.7509" lon="-3.78238">
        <ele>910.6</ele>
        <time>2021-11-16 11:05:06</time>
      </trkpt>
      <trkpt lat="40.75095" lon="-3.78236">
        <ele>911</ele>
        <time>2021-11-16 11:05:07</time>
      </trkpt>
      <trkpt lat="40.75101" lon="-3.78234">
        <ele>911</ele>
        <time>2021-11-16 11:05:08</time>
      </trkpt>
      <trkpt lat="40.75106" lon="-3.78232">
        <ele>911.2</ele>
        <time>2021-11-16 11:05:09</time>
      </trkpt>
      <trkpt lat="40.75111" lon="-3.78231">
        <ele>911.4</ele>
        <time>2021-11-16 11:05:10</time>
      </trkpt>
      <trkpt lat="40.75116" lon="-3.78229">
        <ele>911.4</ele>
        <time>2021-11-16 11:05:11</time>
      </trkpt>
      <trkpt lat="40.75121" lon="-3.78227">
        <ele>911.6</ele>
        <time>2021-11-16 11:05:12</time>
      </trkpt>
      <trkpt lat="40.75127" lon="-3.78225">
        <ele>911.6</ele>
        <time>2021-11-16 11:05:13</time>
      </trkpt>
      <trkpt lat="40.75132" lon="-3.78224">
        <ele>912</ele>
        <time>2021-11-16 11:05:14</time>
      </trkpt>
      <trkpt lat="40.75137" lon="-3.78222">
        <ele>912</ele>
        <time>2021-11-16 11:05:15</time>
      </trkpt>
      <trkpt lat="40.75142" lon="-3.7822">
        <ele>912</ele>
        <time>2021-11-16 11:05:16</time>
      </trkpt>
      <trkpt lat="40.75147" lon="-3.78218">
        <ele>912</ele>
        <time>2021-11-16 11:05:17</time>
      </trkpt>
      <trkpt lat="40.75152" lon="-3.78217">
        <ele>912.2</ele>
        <time>2021-11-16 11:05:18</time>
      </trkpt>
      <trkpt lat="40.75157" lon="-3.78215">
        <ele>912.2</ele>
        <time>2021-11-16 11:05:19</time>
      </trkpt>
      <trkpt lat="40.75162" lon="-3.78213">
        <ele>912.2</ele>
        <time>2021-11-16 11:05:20</time>
      </trkpt>
      <trkpt lat="40.75167" lon="-3.78212">
        <ele>912.6</ele>
        <time>2021-11-16 11:05:21</time>
      </trkpt>
      <trkpt lat="40.75172" lon="-3.7821">
        <ele>912.8</ele>
        <time>2021-11-16 11:05:22</time>
      </trkpt>
      <trkpt lat="40.75177" lon="-3.78208">
        <ele>913</ele>
        <time>2021-11-16 11:05:23</time>
      </trkpt>
      <trkpt lat="40.75182" lon="-3.78207">
        <ele>913.2</ele>
        <time>2021-11-16 11:05:24</time>
      </trkpt>
      <trkpt lat="40.75186" lon="-3.78205">
        <ele>913.2</ele>
        <time>2021-11-16 11:05:25</time>
      </trkpt>
      <trkpt lat="40.75191" lon="-3.78204">
        <ele>913.4</ele>
        <time>2021-11-16 11:05:26</time>
      </trkpt>
      <trkpt lat="40.75196" lon="-3.78203">
        <ele>913.6</ele>
        <time>2021-11-16 11:05:27</time>
      </trkpt>
      <trkpt lat="40.75201" lon="-3.78202">
        <ele>913.6</ele>
        <time>2021-11-16 11:05:28</time>
      </trkpt>
      <trkpt lat="40.75205" lon="-3.78201">
        <ele>913.8</ele>
        <time>2021-11-16 11:05:29</time>
      </trkpt>
      <trkpt lat="40.7521" lon="-3.782">
        <ele>914.2</ele>
        <time>2021-11-16 11:05:30</time>
      </trkpt>
      <trkpt lat="40.75214" lon="-3.782">
        <ele>914.4</ele>
        <time>2021-11-16 11:05:31</time>
      </trkpt>
      <trkpt lat="40.75219" lon="-3.78201">
        <ele>914.8</ele>
        <time>2021-11-16 11:05:32</time>
      </trkpt>
      <trkpt lat="40.75223" lon="-3.78202">
        <ele>914.8</ele>
        <time>2021-11-16 11:05:33</time>
      </trkpt>
      <trkpt lat="40.75228" lon="-3.78204">
        <ele>915.2</ele>
        <time>2021-11-16 11:05:34</time>
      </trkpt>
      <trkpt lat="40.75233" lon="-3.78206">
        <ele>915.2</ele>
        <time>2021-11-16 11:05:35</time>
      </trkpt>
      <trkpt lat="40.75238" lon="-3.78208">
        <ele>915.4</ele>
        <time>2021-11-16 11:05:36</time>
      </trkpt>
      <trkpt lat="40.75248" lon="-3.78214">
        <ele>915.6</ele>
        <time>2021-11-16 11:05:37</time>
      </trkpt>
      <trkpt lat="40.75248" lon="-3.78214">
        <ele>915.6</ele>
        <time>2021-11-16 11:05:38</time>
      </trkpt>
      <trkpt lat="40.75253" lon="-3.78218">
        <ele>915.8</ele>
        <time>2021-11-16 11:05:39</time>
      </trkpt>
      <trkpt lat="40.75258" lon="-3.78221">
        <ele>916</ele>
        <time>2021-11-16 11:05:40</time>
      </trkpt>
      <trkpt lat="40.75264" lon="-3.78224">
        <ele>915.8</ele>
        <time>2021-11-16 11:05:41</time>
      </trkpt>
      <trkpt lat="40.75269" lon="-3.78227">
        <ele>915.8</ele>
        <time>2021-11-16 11:05:42</time>
      </trkpt>
      <trkpt lat="40.75274" lon="-3.78231">
        <ele>915.8</ele>
        <time>2021-11-16 11:05:43</time>
      </trkpt>
      <trkpt lat="40.7528" lon="-3.78234">
        <ele>916</ele>
        <time>2021-11-16 11:05:44</time>
      </trkpt>
      <trkpt lat="40.75285" lon="-3.78237">
        <ele>915.8</ele>
        <time>2021-11-16 11:05:45</time>
      </trkpt>
      <trkpt lat="40.7529" lon="-3.78241">
        <ele>916</ele>
        <time>2021-11-16 11:05:46</time>
      </trkpt>
      <trkpt lat="40.75295" lon="-3.78244">
        <ele>916</ele>
        <time>2021-11-16 11:05:47</time>
      </trkpt>
      <trkpt lat="40.753" lon="-3.78248">
        <ele>916.2</ele>
        <time>2021-11-16 11:05:48</time>
      </trkpt>
      <trkpt lat="40.75305" lon="-3.78251">
        <ele>916.4</ele>
        <time>2021-11-16 11:05:49</time>
      </trkpt>
      <trkpt lat="40.7531" lon="-3.78255">
        <ele>916.2</ele>
        <time>2021-11-16 11:05:50</time>
      </trkpt>
      <trkpt lat="40.75315" lon="-3.78258">
        <ele>916.2</ele>
        <time>2021-11-16 11:05:51</time>
      </trkpt>
      <trkpt lat="40.7532" lon="-3.78261">
        <ele>916.2</ele>
        <time>2021-11-16 11:05:52</time>
      </trkpt>
      <trkpt lat="40.75325" lon="-3.78264">
        <ele>916.2</ele>
        <time>2021-11-16 11:05:53</time>
      </trkpt>
      <trkpt lat="40.7533" lon="-3.78267">
        <ele>916.2</ele>
        <time>2021-11-16 11:05:54</time>
      </trkpt>
      <trkpt lat="40.75335" lon="-3.7827">
        <ele>916</ele>
        <time>2021-11-16 11:05:55</time>
      </trkpt>
      <trkpt lat="40.75339" lon="-3.78273">
        <ele>916.2</ele>
        <time>2021-11-16 11:05:56</time>
      </trkpt>
      <trkpt lat="40.75344" lon="-3.78276">
        <ele>916.4</ele>
        <time>2021-11-16 11:05:57</time>
      </trkpt>
      <trkpt lat="40.75348" lon="-3.78279">
        <ele>916.6</ele>
        <time>2021-11-16 11:05:58</time>
      </trkpt>
      <trkpt lat="40.75353" lon="-3.78282">
        <ele>916.6</ele>
        <time>2021-11-16 11:05:59</time>
      </trkpt>
      <trkpt lat="40.75357" lon="-3.78285">
        <ele>916.8</ele>
        <time>2021-11-16 11:06:00</time>
      </trkpt>
      <trkpt lat="40.75362" lon="-3.78288">
        <ele>917</ele>
        <time>2021-11-16 11:06:01</time>
      </trkpt>
      <trkpt lat="40.75366" lon="-3.78291">
        <ele>917.4</ele>
        <time>2021-11-16 11:06:02</time>
      </trkpt>
      <trkpt lat="40.75371" lon="-3.78294">
        <ele>917.4</ele>
        <time>2021-11-16 11:06:03</time>
      </trkpt>
      <trkpt lat="40.75375" lon="-3.78297">
        <ele>917.8</ele>
        <time>2021-11-16 11:06:04</time>
      </trkpt>
      <trkpt lat="40.7538" lon="-3.783">
        <ele>917.8</ele>
        <time>2021-11-16 11:06:05</time>
      </trkpt>
      <trkpt lat="40.75384" lon="-3.78303">
        <ele>917.8</ele>
        <time>2021-11-16 11:06:06</time>
      </trkpt>
      <trkpt lat="40.75389" lon="-3.78306">
        <ele>918.2</ele>
        <time>2021-11-16 11:06:07</time>
      </trkpt>
      <trkpt lat="40.75394" lon="-3.78309">
        <ele>918</ele>
        <time>2021-11-16 11:06:08</time>
      </trkpt>
      <trkpt lat="40.75398" lon="-3.78312">
        <ele>918.2</ele>
        <time>2021-11-16 11:06:09</time>
      </trkpt>
      <trkpt lat="40.75403" lon="-3.78314">
        <ele>918.6</ele>
        <time>2021-11-16 11:06:10</time>
      </trkpt>
      <trkpt lat="40.75407" lon="-3.78316">
        <ele>918.8</ele>
        <time>2021-11-16 11:06:11</time>
      </trkpt>
      <trkpt lat="40.75412" lon="-3.78317">
        <ele>918.8</ele>
        <time>2021-11-16 11:06:12</time>
      </trkpt>
      <trkpt lat="40.75416" lon="-3.78318">
        <ele>919</ele>
        <time>2021-11-16 11:06:13</time>
      </trkpt>
      <trkpt lat="40.75421" lon="-3.78318">
        <ele>919</ele>
        <time>2021-11-16 11:06:14</time>
      </trkpt>
      <trkpt lat="40.75425" lon="-3.78319">
        <ele>919.4</ele>
        <time>2021-11-16 11:06:15</time>
      </trkpt>
      <trkpt lat="40.75429" lon="-3.7832">
        <ele>919.4</ele>
        <time>2021-11-16 11:06:16</time>
      </trkpt>
      <trkpt lat="40.75432" lon="-3.78323">
        <ele>919.6</ele>
        <time>2021-11-16 11:06:17</time>
      </trkpt>
      <trkpt lat="40.75434" lon="-3.78328">
        <ele>920.2</ele>
        <time>2021-11-16 11:06:18</time>
      </trkpt>
      <trkpt lat="40.75433" lon="-3.78333">
        <ele>920.4</ele>
        <time>2021-11-16 11:06:19</time>
      </trkpt>
      <trkpt lat="40.75431" lon="-3.78339">
        <ele>920.6</ele>
        <time>2021-11-16 11:06:20</time>
      </trkpt>
      <trkpt lat="40.75428" lon="-3.78344">
        <ele>920.6</ele>
        <time>2021-11-16 11:06:21</time>
      </trkpt>
      <trkpt lat="40.75424" lon="-3.78348">
        <ele>920.8</ele>
        <time>2021-11-16 11:06:22</time>
      </trkpt>
      <trkpt lat="40.7542" lon="-3.78354">
        <ele>920.6</ele>
        <time>2021-11-16 11:06:23</time>
      </trkpt>
      <trkpt lat="40.75417" lon="-3.78359">
        <ele>920.6</ele>
        <time>2021-11-16 11:06:24</time>
      </trkpt>
      <trkpt lat="40.75413" lon="-3.78366">
        <ele>920.8</ele>
        <time>2021-11-16 11:06:25</time>
      </trkpt>
      <trkpt lat="40.75409" lon="-3.78372">
        <ele>920.8</ele>
        <time>2021-11-16 11:06:26</time>
      </trkpt>
      <trkpt lat="40.75405" lon="-3.78379">
        <ele>920.8</ele>
        <time>2021-11-16 11:06:27</time>
      </trkpt>
      <trkpt lat="40.75402" lon="-3.78384">
        <ele>920.8</ele>
        <time>2021-11-16 11:06:28</time>
      </trkpt>
      <trkpt lat="40.75399" lon="-3.78389">
        <ele>920.8</ele>
        <time>2021-11-16 11:06:29</time>
      </trkpt>
      <trkpt lat="40.75397" lon="-3.78393">
        <ele>920.8</ele>
        <time>2021-11-16 11:06:30</time>
      </trkpt>
      <trkpt lat="40.75394" lon="-3.78398">
        <ele>920.6</ele>
        <time>2021-11-16 11:06:31</time>
      </trkpt>
      <trkpt lat="40.75391" lon="-3.78403">
        <ele>920.6</ele>
        <time>2021-11-16 11:06:32</time>
      </trkpt>
      <trkpt lat="40.75388" lon="-3.78407">
        <ele>920.6</ele>
        <time>2021-11-16 11:06:33</time>
      </trkpt>
      <trkpt lat="40.75385" lon="-3.78412">
        <ele>920.4</ele>
        <time>2021-11-16 11:06:34</time>
      </trkpt>
      <trkpt lat="40.75382" lon="-3.78416">
        <ele>920.4</ele>
        <time>2021-11-16 11:06:35</time>
      </trkpt>
      <trkpt lat="40.75379" lon="-3.78421">
        <ele>920.2</ele>
        <time>2021-11-16 11:06:36</time>
      </trkpt>
      <trkpt lat="40.75376" lon="-3.78425">
        <ele>920.4</ele>
        <time>2021-11-16 11:06:37</time>
      </trkpt>
      <trkpt lat="40.75373" lon="-3.7843">
        <ele>920</ele>
        <time>2021-11-16 11:06:38</time>
      </trkpt>
      <trkpt lat="40.75369" lon="-3.78435">
        <ele>920</ele>
        <time>2021-11-16 11:06:39</time>
      </trkpt>
      <trkpt lat="40.75366" lon="-3.7844">
        <ele>920</ele>
        <time>2021-11-16 11:06:40</time>
      </trkpt>
      <trkpt lat="40.75363" lon="-3.78445">
        <ele>920</ele>
        <time>2021-11-16 11:06:41</time>
      </trkpt>
      <trkpt lat="40.7536" lon="-3.78449">
        <ele>920</ele>
        <time>2021-11-16 11:06:42</time>
      </trkpt>
      <trkpt lat="40.75358" lon="-3.78453">
        <ele>920</ele>
        <time>2021-11-16 11:06:43</time>
      </trkpt>
      <trkpt lat="40.75356" lon="-3.78456">
        <ele>920</ele>
        <time>2021-11-16 11:06:44</time>
      </trkpt>
      <trkpt lat="40.75354" lon="-3.7846">
        <ele>920</ele>
        <time>2021-11-16 11:06:45</time>
      </trkpt>
      <trkpt lat="40.75351" lon="-3.78464">
        <ele>919.8</ele>
        <time>2021-11-16 11:06:46</time>
      </trkpt>
      <trkpt lat="40.75349" lon="-3.78469">
        <ele>919.8</ele>
        <time>2021-11-16 11:06:47</time>
      </trkpt>
      <trkpt lat="40.75346" lon="-3.78474">
        <ele>919.6</ele>
        <time>2021-11-16 11:06:48</time>
      </trkpt>
      <trkpt lat="40.75342" lon="-3.78481">
        <ele>919.6</ele>
        <time>2021-11-16 11:06:49</time>
      </trkpt>
      <trkpt lat="40.75339" lon="-3.78487">
        <ele>919.6</ele>
        <time>2021-11-16 11:06:50</time>
      </trkpt>
      <trkpt lat="40.75335" lon="-3.78494">
        <ele>919.6</ele>
        <time>2021-11-16 11:06:51</time>
      </trkpt>
      <trkpt lat="40.75331" lon="-3.78501">
        <ele>919.6</ele>
        <time>2021-11-16 11:06:52</time>
      </trkpt>
      <trkpt lat="40.75327" lon="-3.78508">
        <ele>919.6</ele>
        <time>2021-11-16 11:06:53</time>
      </trkpt>
      <trkpt lat="40.75323" lon="-3.78516">
        <ele>919.4</ele>
        <time>2021-11-16 11:06:54</time>
      </trkpt>
      <trkpt lat="40.75319" lon="-3.78523">
        <ele>919.2</ele>
        <time>2021-11-16 11:06:55</time>
      </trkpt>
      <trkpt lat="40.75315" lon="-3.7853">
        <ele>919</ele>
        <time>2021-11-16 11:06:56</time>
      </trkpt>
      <trkpt lat="40.7531" lon="-3.78537">
        <ele>918.4</ele>
        <time>2021-11-16 11:06:57</time>
      </trkpt>
      <trkpt lat="40.75306" lon="-3.78544">
        <ele>918.2</ele>
        <time>2021-11-16 11:06:58</time>
      </trkpt>
      <trkpt lat="40.75302" lon="-3.78551">
        <ele>918</ele>
        <time>2021-11-16 11:06:59</time>
      </trkpt>
      <trkpt lat="40.75297" lon="-3.78559">
        <ele>917.8</ele>
        <time>2021-11-16 11:07:00</time>
      </trkpt>
      <trkpt lat="40.75293" lon="-3.78566">
        <ele>917.4</ele>
        <time>2021-11-16 11:07:01</time>
      </trkpt>
      <trkpt lat="40.75289" lon="-3.78574">
        <ele>917.4</ele>
        <time>2021-11-16 11:07:02</time>
      </trkpt>
      <trkpt lat="40.75284" lon="-3.78581">
        <ele>917.2</ele>
        <time>2021-11-16 11:07:03</time>
      </trkpt>
      <trkpt lat="40.7528" lon="-3.78588">
        <ele>916.8</ele>
        <time>2021-11-16 11:07:04</time>
      </trkpt>
      <trkpt lat="40.75275" lon="-3.78596">
        <ele>916.6</ele>
        <time>2021-11-16 11:07:05</time>
      </trkpt>
      <trkpt lat="40.7527" lon="-3.78603">
        <ele>916.4</ele>
        <time>2021-11-16 11:07:06</time>
      </trkpt>
      <trkpt lat="40.75266" lon="-3.78611">
        <ele>916</ele>
        <time>2021-11-16 11:07:07</time>
      </trkpt>
      <trkpt lat="40.75262" lon="-3.78619">
        <ele>916</ele>
        <time>2021-11-16 11:07:08</time>
      </trkpt>
      <trkpt lat="40.75257" lon="-3.78626">
        <ele>916</ele>
        <time>2021-11-16 11:07:09</time>
      </trkpt>
      <trkpt lat="40.75252" lon="-3.78634">
        <ele>915.8</ele>
        <time>2021-11-16 11:07:10</time>
      </trkpt>
      <trkpt lat="40.75248" lon="-3.78641">
        <ele>916</ele>
        <time>2021-11-16 11:07:11</time>
      </trkpt>
      <trkpt lat="40.75243" lon="-3.78649">
        <ele>915.6</ele>
        <time>2021-11-16 11:07:12</time>
      </trkpt>
      <trkpt lat="40.75239" lon="-3.78657">
        <ele>915.4</ele>
        <time>2021-11-16 11:07:13</time>
      </trkpt>
      <trkpt lat="40.75234" lon="-3.78665">
        <ele>915.6</ele>
        <time>2021-11-16 11:07:14</time>
      </trkpt>
      <trkpt lat="40.75229" lon="-3.78673">
        <ele>915.4</ele>
        <time>2021-11-16 11:07:15</time>
      </trkpt>
      <trkpt lat="40.75225" lon="-3.78681">
        <ele>915.4</ele>
        <time>2021-11-16 11:07:16</time>
      </trkpt>
      <trkpt lat="40.7522" lon="-3.78689">
        <ele>915</ele>
        <time>2021-11-16 11:07:17</time>
      </trkpt>
      <trkpt lat="40.75215" lon="-3.78696">
        <ele>915.2</ele>
        <time>2021-11-16 11:07:18</time>
      </trkpt>
      <trkpt lat="40.75211" lon="-3.78705">
        <ele>914.8</ele>
        <time>2021-11-16 11:07:19</time>
      </trkpt>
      <trkpt lat="40.75206" lon="-3.78713">
        <ele>914.8</ele>
        <time>2021-11-16 11:07:20</time>
      </trkpt>
      <trkpt lat="40.75202" lon="-3.78721">
        <ele>914.8</ele>
        <time>2021-11-16 11:07:21</time>
      </trkpt>
      <trkpt lat="40.75197" lon="-3.78729">
        <ele>914.6</ele>
        <time>2021-11-16 11:07:22</time>
      </trkpt>
      <trkpt lat="40.75192" lon="-3.78737">
        <ele>914.4</ele>
        <time>2021-11-16 11:07:23</time>
      </trkpt>
      <trkpt lat="40.75187" lon="-3.78745">
        <ele>914.2</ele>
        <time>2021-11-16 11:07:24</time>
      </trkpt>
      <trkpt lat="40.75183" lon="-3.78753">
        <ele>914.2</ele>
        <time>2021-11-16 11:07:25</time>
      </trkpt>
      <trkpt lat="40.75178" lon="-3.78761">
        <ele>914.2</ele>
        <time>2021-11-16 11:07:26</time>
      </trkpt>
      <trkpt lat="40.75174" lon="-3.78768">
        <ele>914.2</ele>
        <time>2021-11-16 11:07:27</time>
      </trkpt>
      <trkpt lat="40.75169" lon="-3.78776">
        <ele>914</ele>
        <time>2021-11-16 11:07:28</time>
      </trkpt>
      <trkpt lat="40.75164" lon="-3.78784">
        <ele>914</ele>
        <time>2021-11-16 11:07:29</time>
      </trkpt>
      <trkpt lat="40.75159" lon="-3.78792">
        <ele>914</ele>
        <time>2021-11-16 11:07:30</time>
      </trkpt>
      <trkpt lat="40.75154" lon="-3.788">
        <ele>914</ele>
        <time>2021-11-16 11:07:31</time>
      </trkpt>
      <trkpt lat="40.7515" lon="-3.78808">
        <ele>914</ele>
        <time>2021-11-16 11:07:32</time>
      </trkpt>
      <trkpt lat="40.75145" lon="-3.78817">
        <ele>914</ele>
        <time>2021-11-16 11:07:33</time>
      </trkpt>
      <trkpt lat="40.7514" lon="-3.78825">
        <ele>914</ele>
        <time>2021-11-16 11:07:34</time>
      </trkpt>
      <trkpt lat="40.75135" lon="-3.78832">
        <ele>914</ele>
        <time>2021-11-16 11:07:35</time>
      </trkpt>
      <trkpt lat="40.7513" lon="-3.7884">
        <ele>914</ele>
        <time>2021-11-16 11:07:36</time>
      </trkpt>
      <trkpt lat="40.75126" lon="-3.78847">
        <ele>913.8</ele>
        <time>2021-11-16 11:07:37</time>
      </trkpt>
      <trkpt lat="40.75121" lon="-3.78855">
        <ele>913.6</ele>
        <time>2021-11-16 11:07:38</time>
      </trkpt>
      <trkpt lat="40.75117" lon="-3.78863">
        <ele>913.8</ele>
        <time>2021-11-16 11:07:39</time>
      </trkpt>
      <trkpt lat="40.75114" lon="-3.78871">
        <ele>913.6</ele>
        <time>2021-11-16 11:07:40</time>
      </trkpt>
      <trkpt lat="40.75111" lon="-3.7888">
        <ele>913.4</ele>
        <time>2021-11-16 11:07:41</time>
      </trkpt>
      <trkpt lat="40.75109" lon="-3.78888">
        <ele>913.2</ele>
        <time>2021-11-16 11:07:42</time>
      </trkpt>
      <trkpt lat="40.75107" lon="-3.78897">
        <ele>913.2</ele>
        <time>2021-11-16 11:07:43</time>
      </trkpt>
      <trkpt lat="40.75106" lon="-3.78906">
        <ele>913.6</ele>
        <time>2021-11-16 11:07:44</time>
      </trkpt>
      <trkpt lat="40.75106" lon="-3.78914">
        <ele>913.8</ele>
        <time>2021-11-16 11:07:45</time>
      </trkpt>
      <trkpt lat="40.75105" lon="-3.78923">
        <ele>913.8</ele>
        <time>2021-11-16 11:07:46</time>
      </trkpt>
      <trkpt lat="40.75105" lon="-3.78932">
        <ele>913.8</ele>
        <time>2021-11-16 11:07:47</time>
      </trkpt>
      <trkpt lat="40.75104" lon="-3.7894">
        <ele>914</ele>
        <time>2021-11-16 11:07:48</time>
      </trkpt>
      <trkpt lat="40.75103" lon="-3.78949">
        <ele>914.2</ele>
        <time>2021-11-16 11:07:49</time>
      </trkpt>
      <trkpt lat="40.75102" lon="-3.78958">
        <ele>914.4</ele>
        <time>2021-11-16 11:07:50</time>
      </trkpt>
      <trkpt lat="40.75101" lon="-3.78966">
        <ele>914.6</ele>
        <time>2021-11-16 11:07:51</time>
      </trkpt>
      <trkpt lat="40.751" lon="-3.78975">
        <ele>914.8</ele>
        <time>2021-11-16 11:07:52</time>
      </trkpt>
      <trkpt lat="40.75099" lon="-3.78984">
        <ele>915</ele>
        <time>2021-11-16 11:07:53</time>
      </trkpt>
      <trkpt lat="40.75098" lon="-3.78992">
        <ele>915.2</ele>
        <time>2021-11-16 11:07:54</time>
      </trkpt>
      <trkpt lat="40.75097" lon="-3.79">
        <ele>915.2</ele>
        <time>2021-11-16 11:07:55</time>
      </trkpt>
      <trkpt lat="40.75096" lon="-3.79009">
        <ele>915.4</ele>
        <time>2021-11-16 11:07:56</time>
      </trkpt>
      <trkpt lat="40.75095" lon="-3.79017">
        <ele>915.8</ele>
        <time>2021-11-16 11:07:57</time>
      </trkpt>
      <trkpt lat="40.75094" lon="-3.79025">
        <ele>915.8</ele>
        <time>2021-11-16 11:07:58</time>
      </trkpt>
      <trkpt lat="40.75093" lon="-3.79033">
        <ele>915.8</ele>
        <time>2021-11-16 11:07:59</time>
      </trkpt>
      <trkpt lat="40.75092" lon="-3.79042">
        <ele>915.8</ele>
        <time>2021-11-16 11:08:00</time>
      </trkpt>
      <trkpt lat="40.75091" lon="-3.7905">
        <ele>916</ele>
        <time>2021-11-16 11:08:01</time>
      </trkpt>
      <trkpt lat="40.7509" lon="-3.79059">
        <ele>915.8</ele>
        <time>2021-11-16 11:08:02</time>
      </trkpt>
      <trkpt lat="40.7509" lon="-3.79068">
        <ele>916</ele>
        <time>2021-11-16 11:08:03</time>
      </trkpt>
      <trkpt lat="40.75089" lon="-3.79077">
        <ele>916</ele>
        <time>2021-11-16 11:08:04</time>
      </trkpt>
      <trkpt lat="40.75088" lon="-3.79086">
        <ele>915.8</ele>
        <time>2021-11-16 11:08:05</time>
      </trkpt>
      <trkpt lat="40.75087" lon="-3.79095">
        <ele>915.8</ele>
        <time>2021-11-16 11:08:06</time>
      </trkpt>
      <trkpt lat="40.75086" lon="-3.79104">
        <ele>916</ele>
        <time>2021-11-16 11:08:07</time>
      </trkpt>
      <trkpt lat="40.75085" lon="-3.79113">
        <ele>916</ele>
        <time>2021-11-16 11:08:08</time>
      </trkpt>
      <trkpt lat="40.75084" lon="-3.79122">
        <ele>915.8</ele>
        <time>2021-11-16 11:08:09</time>
      </trkpt>
      <trkpt lat="40.75083" lon="-3.79131">
        <ele>915.8</ele>
        <time>2021-11-16 11:08:10</time>
      </trkpt>
      <trkpt lat="40.75082" lon="-3.7914">
        <ele>915.8</ele>
        <time>2021-11-16 11:08:11</time>
      </trkpt>
      <trkpt lat="40.75081" lon="-3.79149">
        <ele>915.8</ele>
        <time>2021-11-16 11:08:12</time>
      </trkpt>
      <trkpt lat="40.75079" lon="-3.79158">
        <ele>915.8</ele>
        <time>2021-11-16 11:08:13</time>
      </trkpt>
      <trkpt lat="40.75078" lon="-3.79167">
        <ele>915.8</ele>
        <time>2021-11-16 11:08:14</time>
      </trkpt>
      <trkpt lat="40.75077" lon="-3.79176">
        <ele>915.8</ele>
        <time>2021-11-16 11:08:15</time>
      </trkpt>
      <trkpt lat="40.75075" lon="-3.79185">
        <ele>915.8</ele>
        <time>2021-11-16 11:08:16</time>
      </trkpt>
      <trkpt lat="40.75073" lon="-3.79194">
        <ele>915.8</ele>
        <time>2021-11-16 11:08:17</time>
      </trkpt>
      <trkpt lat="40.75071" lon="-3.79203">
        <ele>915.6</ele>
        <time>2021-11-16 11:08:18</time>
      </trkpt>
      <trkpt lat="40.75068" lon="-3.79212">
        <ele>915.6</ele>
        <time>2021-11-16 11:08:19</time>
      </trkpt>
      <trkpt lat="40.75066" lon="-3.79221">
        <ele>915.6</ele>
        <time>2021-11-16 11:08:20</time>
      </trkpt>
      <trkpt lat="40.75063" lon="-3.7923">
        <ele>915.8</ele>
        <time>2021-11-16 11:08:21</time>
      </trkpt>
      <trkpt lat="40.7506" lon="-3.79239">
        <ele>915.6</ele>
        <time>2021-11-16 11:08:22</time>
      </trkpt>
      <trkpt lat="40.75057" lon="-3.79247">
        <ele>915.6</ele>
        <time>2021-11-16 11:08:23</time>
      </trkpt>
      <trkpt lat="40.75054" lon="-3.79256">
        <ele>915.8</ele>
        <time>2021-11-16 11:08:24</time>
      </trkpt>
      <trkpt lat="40.7505" lon="-3.79264">
        <ele>915.8</ele>
        <time>2021-11-16 11:08:25</time>
      </trkpt>
      <trkpt lat="40.75047" lon="-3.79272">
        <ele>915.8</ele>
        <time>2021-11-16 11:08:26</time>
      </trkpt>
      <trkpt lat="40.75044" lon="-3.79281">
        <ele>915.8</ele>
        <time>2021-11-16 11:08:27</time>
      </trkpt>
      <trkpt lat="40.7504" lon="-3.79289">
        <ele>915.6</ele>
        <time>2021-11-16 11:08:28</time>
      </trkpt>
      <trkpt lat="40.75037" lon="-3.79298">
        <ele>915.8</ele>
        <time>2021-11-16 11:08:29</time>
      </trkpt>
      <trkpt lat="40.75033" lon="-3.79306">
        <ele>915.6</ele>
        <time>2021-11-16 11:08:30</time>
      </trkpt>
      <trkpt lat="40.7503" lon="-3.79314">
        <ele>915.6</ele>
        <time>2021-11-16 11:08:31</time>
      </trkpt>
      <trkpt lat="40.75027" lon="-3.79323">
        <ele>915.6</ele>
        <time>2021-11-16 11:08:32</time>
      </trkpt>
      <trkpt lat="40.75023" lon="-3.79331">
        <ele>915.6</ele>
        <time>2021-11-16 11:08:33</time>
      </trkpt>
      <trkpt lat="40.7502" lon="-3.79339">
        <ele>915.6</ele>
        <time>2021-11-16 11:08:34</time>
      </trkpt>
      <trkpt lat="40.75017" lon="-3.79348">
        <ele>915.4</ele>
        <time>2021-11-16 11:08:35</time>
      </trkpt>
      <trkpt lat="40.75013" lon="-3.79356">
        <ele>915.4</ele>
        <time>2021-11-16 11:08:36</time>
      </trkpt>
      <trkpt lat="40.7501" lon="-3.79364">
        <ele>915.4</ele>
        <time>2021-11-16 11:08:37</time>
      </trkpt>
      <trkpt lat="40.75006" lon="-3.79372">
        <ele>915.4</ele>
        <time>2021-11-16 11:08:38</time>
      </trkpt>
      <trkpt lat="40.75003" lon="-3.7938">
        <ele>915.2</ele>
        <time>2021-11-16 11:08:39</time>
      </trkpt>
      <trkpt lat="40.75" lon="-3.79389">
        <ele>915.2</ele>
        <time>2021-11-16 11:08:40</time>
      </trkpt>
      <trkpt lat="40.74996" lon="-3.79397">
        <ele>915.2</ele>
        <time>2021-11-16 11:08:41</time>
      </trkpt>
      <trkpt lat="40.74993" lon="-3.79405">
        <ele>915.2</ele>
        <time>2021-11-16 11:08:42</time>
      </trkpt>
      <trkpt lat="40.7499" lon="-3.79413">
        <ele>915.2</ele>
        <time>2021-11-16 11:08:43</time>
      </trkpt>
      <trkpt lat="40.74986" lon="-3.79421">
        <ele>915</ele>
        <time>2021-11-16 11:08:44</time>
      </trkpt>
      <trkpt lat="40.74983" lon="-3.7943">
        <ele>914.8</ele>
        <time>2021-11-16 11:08:45</time>
      </trkpt>
      <trkpt lat="40.7498" lon="-3.79438">
        <ele>915</ele>
        <time>2021-11-16 11:08:46</time>
      </trkpt>
      <trkpt lat="40.74976" lon="-3.79446">
        <ele>914.6</ele>
        <time>2021-11-16 11:08:47</time>
      </trkpt>
      <trkpt lat="40.74973" lon="-3.79454">
        <ele>914.6</ele>
        <time>2021-11-16 11:08:48</time>
      </trkpt>
      <trkpt lat="40.74969" lon="-3.79462">
        <ele>914.4</ele>
        <time>2021-11-16 11:08:49</time>
      </trkpt>
      <trkpt lat="40.74965" lon="-3.7947">
        <ele>914.4</ele>
        <time>2021-11-16 11:08:50</time>
      </trkpt>
      <trkpt lat="40.74961" lon="-3.79477">
        <ele>914.4</ele>
        <time>2021-11-16 11:08:51</time>
      </trkpt>
      <trkpt lat="40.74958" lon="-3.79485">
        <ele>914.4</ele>
        <time>2021-11-16 11:08:52</time>
      </trkpt>
      <trkpt lat="40.74954" lon="-3.79493">
        <ele>914.4</ele>
        <time>2021-11-16 11:08:53</time>
      </trkpt>
      <trkpt lat="40.74949" lon="-3.79501">
        <ele>914.2</ele>
        <time>2021-11-16 11:08:54</time>
      </trkpt>
      <trkpt lat="40.74945" lon="-3.79509">
        <ele>914.4</ele>
        <time>2021-11-16 11:08:55</time>
      </trkpt>
      <trkpt lat="40.74941" lon="-3.79517">
        <ele>914.4</ele>
        <time>2021-11-16 11:08:56</time>
      </trkpt>
      <trkpt lat="40.74937" lon="-3.79525">
        <ele>914.6</ele>
        <time>2021-11-16 11:08:57</time>
      </trkpt>
      <trkpt lat="40.74932" lon="-3.79533">
        <ele>914.4</ele>
        <time>2021-11-16 11:08:58</time>
      </trkpt>
      <trkpt lat="40.74928" lon="-3.79541">
        <ele>914.6</ele>
        <time>2021-11-16 11:08:59</time>
      </trkpt>
      <trkpt lat="40.74924" lon="-3.79549">
        <ele>914.6</ele>
        <time>2021-11-16 11:09:00</time>
      </trkpt>
      <trkpt lat="40.7492" lon="-3.79557">
        <ele>914.6</ele>
        <time>2021-11-16 11:09:01</time>
      </trkpt>
      <trkpt lat="40.74916" lon="-3.79565">
        <ele>914.6</ele>
        <time>2021-11-16 11:09:02</time>
      </trkpt>
      <trkpt lat="40.74911" lon="-3.79574">
        <ele>914.6</ele>
        <time>2021-11-16 11:09:03</time>
      </trkpt>
      <trkpt lat="40.74907" lon="-3.79582">
        <ele>914.6</ele>
        <time>2021-11-16 11:09:04</time>
      </trkpt>
      <trkpt lat="40.74902" lon="-3.7959">
        <ele>914.8</ele>
        <time>2021-11-16 11:09:05</time>
      </trkpt>
      <trkpt lat="40.74898" lon="-3.79599">
        <ele>914.8</ele>
        <time>2021-11-16 11:09:06</time>
      </trkpt>
      <trkpt lat="40.74893" lon="-3.79608">
        <ele>914.8</ele>
        <time>2021-11-16 11:09:07</time>
      </trkpt>
      <trkpt lat="40.74889" lon="-3.79616">
        <ele>914.8</ele>
        <time>2021-11-16 11:09:08</time>
      </trkpt>
      <trkpt lat="40.74884" lon="-3.79625">
        <ele>915</ele>
        <time>2021-11-16 11:09:09</time>
      </trkpt>
      <trkpt lat="40.7488" lon="-3.79633">
        <ele>914.8</ele>
        <time>2021-11-16 11:09:10</time>
      </trkpt>
      <trkpt lat="40.74875" lon="-3.79641">
        <ele>914.8</ele>
        <time>2021-11-16 11:09:11</time>
      </trkpt>
      <trkpt lat="40.7487" lon="-3.7965">
        <ele>914.6</ele>
        <time>2021-11-16 11:09:12</time>
      </trkpt>
      <trkpt lat="40.74866" lon="-3.79658">
        <ele>914.6</ele>
        <time>2021-11-16 11:09:13</time>
      </trkpt>
      <trkpt lat="40.74861" lon="-3.79667">
        <ele>914.6</ele>
        <time>2021-11-16 11:09:14</time>
      </trkpt>
      <trkpt lat="40.74857" lon="-3.79676">
        <ele>914.6</ele>
        <time>2021-11-16 11:09:15</time>
      </trkpt>
      <trkpt lat="40.74853" lon="-3.79685">
        <ele>914.6</ele>
        <time>2021-11-16 11:09:16</time>
      </trkpt>
      <trkpt lat="40.74848" lon="-3.79694">
        <ele>914.6</ele>
        <time>2021-11-16 11:09:17</time>
      </trkpt>
      <trkpt lat="40.74844" lon="-3.79702">
        <ele>914.6</ele>
        <time>2021-11-16 11:09:18</time>
      </trkpt>
      <trkpt lat="40.74839" lon="-3.79711">
        <ele>914.6</ele>
        <time>2021-11-16 11:09:19</time>
      </trkpt>
      <trkpt lat="40.74834" lon="-3.7972">
        <ele>914.4</ele>
        <time>2021-11-16 11:09:20</time>
      </trkpt>
      <trkpt lat="40.7483" lon="-3.79729">
        <ele>914.2</ele>
        <time>2021-11-16 11:09:21</time>
      </trkpt>
      <trkpt lat="40.74825" lon="-3.79737">
        <ele>914.2</ele>
        <time>2021-11-16 11:09:22</time>
      </trkpt>
      <trkpt lat="40.74821" lon="-3.79746">
        <ele>914</ele>
        <time>2021-11-16 11:09:23</time>
      </trkpt>
      <trkpt lat="40.74816" lon="-3.79754">
        <ele>914.2</ele>
        <time>2021-11-16 11:09:24</time>
      </trkpt>
      <trkpt lat="40.74811" lon="-3.79763">
        <ele>914</ele>
        <time>2021-11-16 11:09:25</time>
      </trkpt>
      <trkpt lat="40.74806" lon="-3.79771">
        <ele>913.6</ele>
        <time>2021-11-16 11:09:26</time>
      </trkpt>
      <trkpt lat="40.74802" lon="-3.7978">
        <ele>913.2</ele>
        <time>2021-11-16 11:09:27</time>
      </trkpt>
      <trkpt lat="40.74798" lon="-3.79789">
        <ele>913.2</ele>
        <time>2021-11-16 11:09:28</time>
      </trkpt>
      <trkpt lat="40.74793" lon="-3.79798">
        <ele>913</ele>
        <time>2021-11-16 11:09:29</time>
      </trkpt>
      <trkpt lat="40.74789" lon="-3.79806">
        <ele>913</ele>
        <time>2021-11-16 11:09:30</time>
      </trkpt>
      <trkpt lat="40.74784" lon="-3.79815">
        <ele>912.8</ele>
        <time>2021-11-16 11:09:31</time>
      </trkpt>
      <trkpt lat="40.7478" lon="-3.79824">
        <ele>912.8</ele>
        <time>2021-11-16 11:09:32</time>
      </trkpt>
      <trkpt lat="40.74775" lon="-3.79832">
        <ele>912.6</ele>
        <time>2021-11-16 11:09:33</time>
      </trkpt>
      <trkpt lat="40.74771" lon="-3.79841">
        <ele>912.2</ele>
        <time>2021-11-16 11:09:34</time>
      </trkpt>
      <trkpt lat="40.74766" lon="-3.7985">
        <ele>912.2</ele>
        <time>2021-11-16 11:09:35</time>
      </trkpt>
      <trkpt lat="40.74762" lon="-3.79858">
        <ele>912.4</ele>
        <time>2021-11-16 11:09:36</time>
      </trkpt>
      <trkpt lat="40.74757" lon="-3.79867">
        <ele>912.2</ele>
        <time>2021-11-16 11:09:37</time>
      </trkpt>
      <trkpt lat="40.74753" lon="-3.79875">
        <ele>912.2</ele>
        <time>2021-11-16 11:09:38</time>
      </trkpt>
      <trkpt lat="40.74748" lon="-3.79884">
        <ele>912</ele>
        <time>2021-11-16 11:09:39</time>
      </trkpt>
      <trkpt lat="40.74744" lon="-3.79892">
        <ele>912</ele>
        <time>2021-11-16 11:09:40</time>
      </trkpt>
      <trkpt lat="40.74739" lon="-3.79901">
        <ele>912</ele>
        <time>2021-11-16 11:09:41</time>
      </trkpt>
      <trkpt lat="40.74735" lon="-3.79909">
        <ele>912</ele>
        <time>2021-11-16 11:09:42</time>
      </trkpt>
      <trkpt lat="40.7473" lon="-3.79918">
        <ele>911.8</ele>
        <time>2021-11-16 11:09:43</time>
      </trkpt>
      <trkpt lat="40.74726" lon="-3.79926">
        <ele>911.8</ele>
        <time>2021-11-16 11:09:44</time>
      </trkpt>
      <trkpt lat="40.74721" lon="-3.79935">
        <ele>911.8</ele>
        <time>2021-11-16 11:09:45</time>
      </trkpt>
      <trkpt lat="40.74717" lon="-3.79944">
        <ele>911.6</ele>
        <time>2021-11-16 11:09:46</time>
      </trkpt>
      <trkpt lat="40.74712" lon="-3.79953">
        <ele>911.6</ele>
        <time>2021-11-16 11:09:47</time>
      </trkpt>
      <trkpt lat="40.74708" lon="-3.79961">
        <ele>911.6</ele>
        <time>2021-11-16 11:09:48</time>
      </trkpt>
      <trkpt lat="40.74703" lon="-3.79969">
        <ele>911.4</ele>
        <time>2021-11-16 11:09:49</time>
      </trkpt>
      <trkpt lat="40.74699" lon="-3.79978">
        <ele>911.4</ele>
        <time>2021-11-16 11:09:50</time>
      </trkpt>
      <trkpt lat="40.74694" lon="-3.79986">
        <ele>911.2</ele>
        <time>2021-11-16 11:09:51</time>
      </trkpt>
      <trkpt lat="40.7469" lon="-3.79995">
        <ele>910.8</ele>
        <time>2021-11-16 11:09:52</time>
      </trkpt>
      <trkpt lat="40.74685" lon="-3.80003">
        <ele>910.8</ele>
        <time>2021-11-16 11:09:53</time>
      </trkpt>
      <trkpt lat="40.74681" lon="-3.80011">
        <ele>910.6</ele>
        <time>2021-11-16 11:09:54</time>
      </trkpt>
      <trkpt lat="40.74677" lon="-3.80019">
        <ele>910.4</ele>
        <time>2021-11-16 11:09:55</time>
      </trkpt>
      <trkpt lat="40.74672" lon="-3.80028">
        <ele>910.4</ele>
        <time>2021-11-16 11:09:56</time>
      </trkpt>
      <trkpt lat="40.74668" lon="-3.80036">
        <ele>910.4</ele>
        <time>2021-11-16 11:09:57</time>
      </trkpt>
      <trkpt lat="40.74664" lon="-3.80044">
        <ele>910.4</ele>
        <time>2021-11-16 11:09:58</time>
      </trkpt>
      <trkpt lat="40.7466" lon="-3.80052">
        <ele>910.2</ele>
        <time>2021-11-16 11:09:59</time>
      </trkpt>
      <trkpt lat="40.74655" lon="-3.8006">
        <ele>910.2</ele>
        <time>2021-11-16 11:10:00</time>
      </trkpt>
      <trkpt lat="40.74651" lon="-3.80068">
        <ele>910.2</ele>
        <time>2021-11-16 11:10:01</time>
      </trkpt>
      <trkpt lat="40.74647" lon="-3.80076">
        <ele>910.2</ele>
        <time>2021-11-16 11:10:02</time>
      </trkpt>
      <trkpt lat="40.74642" lon="-3.80084">
        <ele>910.2</ele>
        <time>2021-11-16 11:10:03</time>
      </trkpt>
      <trkpt lat="40.74638" lon="-3.80092">
        <ele>909.8</ele>
        <time>2021-11-16 11:10:04</time>
      </trkpt>
      <trkpt lat="40.74633" lon="-3.801">
        <ele>910</ele>
        <time>2021-11-16 11:10:05</time>
      </trkpt>
      <trkpt lat="40.74629" lon="-3.80108">
        <ele>910</ele>
        <time>2021-11-16 11:10:06</time>
      </trkpt>
      <trkpt lat="40.74625" lon="-3.80116">
        <ele>910</ele>
        <time>2021-11-16 11:10:07</time>
      </trkpt>
      <trkpt lat="40.74621" lon="-3.80124">
        <ele>910.2</ele>
        <time>2021-11-16 11:10:08</time>
      </trkpt>
      <trkpt lat="40.74617" lon="-3.80132">
        <ele>910.2</ele>
        <time>2021-11-16 11:10:09</time>
      </trkpt>
      <trkpt lat="40.74613" lon="-3.8014">
        <ele>910.2</ele>
        <time>2021-11-16 11:10:10</time>
      </trkpt>
      <trkpt lat="40.74609" lon="-3.80147">
        <ele>910.4</ele>
        <time>2021-11-16 11:10:11</time>
      </trkpt>
      <trkpt lat="40.74605" lon="-3.80155">
        <ele>910.2</ele>
        <time>2021-11-16 11:10:12</time>
      </trkpt>
      <trkpt lat="40.74601" lon="-3.80163">
        <ele>910.4</ele>
        <time>2021-11-16 11:10:13</time>
      </trkpt>
      <trkpt lat="40.74597" lon="-3.80171">
        <ele>910.4</ele>
        <time>2021-11-16 11:10:14</time>
      </trkpt>
      <trkpt lat="40.74593" lon="-3.80178">
        <ele>910.4</ele>
        <time>2021-11-16 11:10:15</time>
      </trkpt>
      <trkpt lat="40.74589" lon="-3.80186">
        <ele>910.4</ele>
        <time>2021-11-16 11:10:16</time>
      </trkpt>
      <trkpt lat="40.74585" lon="-3.80194">
        <ele>910.6</ele>
        <time>2021-11-16 11:10:17</time>
      </trkpt>
      <trkpt lat="40.74581" lon="-3.80201">
        <ele>910.8</ele>
        <time>2021-11-16 11:10:18</time>
      </trkpt>
      <trkpt lat="40.74577" lon="-3.80209">
        <ele>910.8</ele>
        <time>2021-11-16 11:10:19</time>
      </trkpt>
      <trkpt lat="40.74573" lon="-3.80217">
        <ele>911</ele>
        <time>2021-11-16 11:10:20</time>
      </trkpt>
      <trkpt lat="40.74569" lon="-3.80224">
        <ele>911</ele>
        <time>2021-11-16 11:10:21</time>
      </trkpt>
      <trkpt lat="40.74565" lon="-3.80232">
        <ele>910.8</ele>
        <time>2021-11-16 11:10:22</time>
      </trkpt>
      <trkpt lat="40.74561" lon="-3.80239">
        <ele>911</ele>
        <time>2021-11-16 11:10:23</time>
      </trkpt>
      <trkpt lat="40.74557" lon="-3.80247">
        <ele>910.8</ele>
        <time>2021-11-16 11:10:24</time>
      </trkpt>
      <trkpt lat="40.74553" lon="-3.80255">
        <ele>910.8</ele>
        <time>2021-11-16 11:10:25</time>
      </trkpt>
      <trkpt lat="40.74549" lon="-3.80263">
        <ele>910.4</ele>
        <time>2021-11-16 11:10:26</time>
      </trkpt>
      <trkpt lat="40.74545" lon="-3.80271">
        <ele>910.4</ele>
        <time>2021-11-16 11:10:27</time>
      </trkpt>
      <trkpt lat="40.74541" lon="-3.80279">
        <ele>910.2</ele>
        <time>2021-11-16 11:10:28</time>
      </trkpt>
      <trkpt lat="40.74536" lon="-3.80287">
        <ele>910.2</ele>
        <time>2021-11-16 11:10:29</time>
      </trkpt>
      <trkpt lat="40.74532" lon="-3.80295">
        <ele>910.2</ele>
        <time>2021-11-16 11:10:30</time>
      </trkpt>
      <trkpt lat="40.74528" lon="-3.80303">
        <ele>910</ele>
        <time>2021-11-16 11:10:31</time>
      </trkpt>
      <trkpt lat="40.74523" lon="-3.80312">
        <ele>909.8</ele>
        <time>2021-11-16 11:10:32</time>
      </trkpt>
      <trkpt lat="40.74519" lon="-3.8032">
        <ele>909.6</ele>
        <time>2021-11-16 11:10:33</time>
      </trkpt>
      <trkpt lat="40.74515" lon="-3.80329">
        <ele>909.4</ele>
        <time>2021-11-16 11:10:34</time>
      </trkpt>
      <trkpt lat="40.7451" lon="-3.80337">
        <ele>909.2</ele>
        <time>2021-11-16 11:10:35</time>
      </trkpt>
      <trkpt lat="40.74506" lon="-3.80346">
        <ele>909.2</ele>
        <time>2021-11-16 11:10:36</time>
      </trkpt>
      <trkpt lat="40.74501" lon="-3.80355">
        <ele>909.2</ele>
        <time>2021-11-16 11:10:37</time>
      </trkpt>
      <trkpt lat="40.74496" lon="-3.80364">
        <ele>909</ele>
        <time>2021-11-16 11:10:38</time>
      </trkpt>
      <trkpt lat="40.74492" lon="-3.80373">
        <ele>909</ele>
        <time>2021-11-16 11:10:39</time>
      </trkpt>
      <trkpt lat="40.74487" lon="-3.80382">
        <ele>908.8</ele>
        <time>2021-11-16 11:10:40</time>
      </trkpt>
      <trkpt lat="40.74482" lon="-3.80391">
        <ele>909</ele>
        <time>2021-11-16 11:10:41</time>
      </trkpt>
      <trkpt lat="40.74478" lon="-3.80401">
        <ele>908.8</ele>
        <time>2021-11-16 11:10:42</time>
      </trkpt>
      <trkpt lat="40.74473" lon="-3.8041">
        <ele>908.6</ele>
        <time>2021-11-16 11:10:43</time>
      </trkpt>
      <trkpt lat="40.74468" lon="-3.80419">
        <ele>908.4</ele>
        <time>2021-11-16 11:10:44</time>
      </trkpt>
      <trkpt lat="40.74463" lon="-3.80429">
        <ele>908.4</ele>
        <time>2021-11-16 11:10:45</time>
      </trkpt>
      <trkpt lat="40.74458" lon="-3.80438">
        <ele>908.2</ele>
        <time>2021-11-16 11:10:46</time>
      </trkpt>
      <trkpt lat="40.74453" lon="-3.80448">
        <ele>908</ele>
        <time>2021-11-16 11:10:47</time>
      </trkpt>
      <trkpt lat="40.74448" lon="-3.80458">
        <ele>908</ele>
        <time>2021-11-16 11:10:48</time>
      </trkpt>
      <trkpt lat="40.74443" lon="-3.80467">
        <ele>907.6</ele>
        <time>2021-11-16 11:10:49</time>
      </trkpt>
      <trkpt lat="40.74438" lon="-3.80477">
        <ele>907</ele>
        <time>2021-11-16 11:10:50</time>
      </trkpt>
      <trkpt lat="40.74433" lon="-3.80487">
        <ele>906.6</ele>
        <time>2021-11-16 11:10:51</time>
      </trkpt>
      <trkpt lat="40.74428" lon="-3.80497">
        <ele>906</ele>
        <time>2021-11-16 11:10:52</time>
      </trkpt>
      <trkpt lat="40.74423" lon="-3.80506">
        <ele>905.6</ele>
        <time>2021-11-16 11:10:53</time>
      </trkpt>
      <trkpt lat="40.74418" lon="-3.80516">
        <ele>905.2</ele>
        <time>2021-11-16 11:10:54</time>
      </trkpt>
      <trkpt lat="40.74413" lon="-3.80525">
        <ele>905.2</ele>
        <time>2021-11-16 11:10:55</time>
      </trkpt>
      <trkpt lat="40.74408" lon="-3.80535">
        <ele>904.8</ele>
        <time>2021-11-16 11:10:56</time>
      </trkpt>
      <trkpt lat="40.74404" lon="-3.80544">
        <ele>904.8</ele>
        <time>2021-11-16 11:10:57</time>
      </trkpt>
      <trkpt lat="40.74399" lon="-3.80553">
        <ele>904.8</ele>
        <time>2021-11-16 11:10:58</time>
      </trkpt>
      <trkpt lat="40.74394" lon="-3.80562">
        <ele>904.6</ele>
        <time>2021-11-16 11:10:59</time>
      </trkpt>
      <trkpt lat="40.7439" lon="-3.80571">
        <ele>904.4</ele>
        <time>2021-11-16 11:11:00</time>
      </trkpt>
      <trkpt lat="40.74385" lon="-3.8058">
        <ele>904.2</ele>
        <time>2021-11-16 11:11:01</time>
      </trkpt>
      <trkpt lat="40.7438" lon="-3.80589">
        <ele>904.2</ele>
        <time>2021-11-16 11:11:02</time>
      </trkpt>
      <trkpt lat="40.74376" lon="-3.80598">
        <ele>904</ele>
        <time>2021-11-16 11:11:03</time>
      </trkpt>
      <trkpt lat="40.74371" lon="-3.80607">
        <ele>903.8</ele>
        <time>2021-11-16 11:11:04</time>
      </trkpt>
      <trkpt lat="40.74367" lon="-3.80616">
        <ele>903.8</ele>
        <time>2021-11-16 11:11:05</time>
      </trkpt>
      <trkpt lat="40.74362" lon="-3.80624">
        <ele>903.6</ele>
        <time>2021-11-16 11:11:06</time>
      </trkpt>
      <trkpt lat="40.74357" lon="-3.80633">
        <ele>903.6</ele>
        <time>2021-11-16 11:11:07</time>
      </trkpt>
      <trkpt lat="40.74353" lon="-3.80642">
        <ele>903.6</ele>
        <time>2021-11-16 11:11:08</time>
      </trkpt>
      <trkpt lat="40.74349" lon="-3.8065">
        <ele>903.6</ele>
        <time>2021-11-16 11:11:09</time>
      </trkpt>
      <trkpt lat="40.74344" lon="-3.80659">
        <ele>903.6</ele>
        <time>2021-11-16 11:11:10</time>
      </trkpt>
      <trkpt lat="40.7434" lon="-3.80667">
        <ele>903.6</ele>
        <time>2021-11-16 11:11:11</time>
      </trkpt>
      <trkpt lat="40.74335" lon="-3.80676">
        <ele>903.4</ele>
        <time>2021-11-16 11:11:12</time>
      </trkpt>
      <trkpt lat="40.74331" lon="-3.80685">
        <ele>903.4</ele>
        <time>2021-11-16 11:11:13</time>
      </trkpt>
      <trkpt lat="40.74327" lon="-3.80693">
        <ele>903.4</ele>
        <time>2021-11-16 11:11:14</time>
      </trkpt>
      <trkpt lat="40.74322" lon="-3.80701">
        <ele>903.4</ele>
        <time>2021-11-16 11:11:15</time>
      </trkpt>
      <trkpt lat="40.74318" lon="-3.8071">
        <ele>903.4</ele>
        <time>2021-11-16 11:11:16</time>
      </trkpt>
      <trkpt lat="40.74314" lon="-3.80718">
        <ele>903.4</ele>
        <time>2021-11-16 11:11:17</time>
      </trkpt>
      <trkpt lat="40.74309" lon="-3.80727">
        <ele>903.2</ele>
        <time>2021-11-16 11:11:18</time>
      </trkpt>
      <trkpt lat="40.74305" lon="-3.80735">
        <ele>903.2</ele>
        <time>2021-11-16 11:11:19</time>
      </trkpt>
      <trkpt lat="40.743" lon="-3.80744">
        <ele>903.4</ele>
        <time>2021-11-16 11:11:20</time>
      </trkpt>
      <trkpt lat="40.74296" lon="-3.80752">
        <ele>903.2</ele>
        <time>2021-11-16 11:11:21</time>
      </trkpt>
      <trkpt lat="40.74292" lon="-3.80761">
        <ele>903.2</ele>
        <time>2021-11-16 11:11:22</time>
      </trkpt>
      <trkpt lat="40.74287" lon="-3.8077">
        <ele>903.2</ele>
        <time>2021-11-16 11:11:23</time>
      </trkpt>
      <trkpt lat="40.74283" lon="-3.80778">
        <ele>903.2</ele>
        <time>2021-11-16 11:11:24</time>
      </trkpt>
      <trkpt lat="40.74278" lon="-3.80787">
        <ele>903.2</ele>
        <time>2021-11-16 11:11:25</time>
      </trkpt>
      <trkpt lat="40.74274" lon="-3.80795">
        <ele>903</ele>
        <time>2021-11-16 11:11:26</time>
      </trkpt>
      <trkpt lat="40.7427" lon="-3.80803">
        <ele>903</ele>
        <time>2021-11-16 11:11:27</time>
      </trkpt>
      <trkpt lat="40.74265" lon="-3.80812">
        <ele>902.8</ele>
        <time>2021-11-16 11:11:28</time>
      </trkpt>
      <trkpt lat="40.74261" lon="-3.8082">
        <ele>902.8</ele>
        <time>2021-11-16 11:11:29</time>
      </trkpt>
      <trkpt lat="40.74257" lon="-3.80828">
        <ele>902.6</ele>
        <time>2021-11-16 11:11:30</time>
      </trkpt>
      <trkpt lat="40.74252" lon="-3.80837">
        <ele>902.8</ele>
        <time>2021-11-16 11:11:31</time>
      </trkpt>
      <trkpt lat="40.74248" lon="-3.80845">
        <ele>902.8</ele>
        <time>2021-11-16 11:11:32</time>
      </trkpt>
      <trkpt lat="40.74244" lon="-3.80853">
        <ele>902.8</ele>
        <time>2021-11-16 11:11:33</time>
      </trkpt>
      <trkpt lat="40.74239" lon="-3.80861">
        <ele>902.8</ele>
        <time>2021-11-16 11:11:34</time>
      </trkpt>
      <trkpt lat="40.74235" lon="-3.80869">
        <ele>902.8</ele>
        <time>2021-11-16 11:11:35</time>
      </trkpt>
      <trkpt lat="40.74231" lon="-3.80878">
        <ele>902.8</ele>
        <time>2021-11-16 11:11:36</time>
      </trkpt>
      <trkpt lat="40.74227" lon="-3.80886">
        <ele>902.8</ele>
        <time>2021-11-16 11:11:37</time>
      </trkpt>
      <trkpt lat="40.74223" lon="-3.80894">
        <ele>902.6</ele>
        <time>2021-11-16 11:11:38</time>
      </trkpt>
      <trkpt lat="40.74218" lon="-3.80902">
        <ele>902.6</ele>
        <time>2021-11-16 11:11:39</time>
      </trkpt>
      <trkpt lat="40.74214" lon="-3.8091">
        <ele>902.4</ele>
        <time>2021-11-16 11:11:40</time>
      </trkpt>
      <trkpt lat="40.7421" lon="-3.80919">
        <ele>902.4</ele>
        <time>2021-11-16 11:11:41</time>
      </trkpt>
      <trkpt lat="40.74206" lon="-3.80927">
        <ele>902.4</ele>
        <time>2021-11-16 11:11:42</time>
      </trkpt>
      <trkpt lat="40.74201" lon="-3.80935">
        <ele>902.2</ele>
        <time>2021-11-16 11:11:43</time>
      </trkpt>
      <trkpt lat="40.74197" lon="-3.80943">
        <ele>902.4</ele>
        <time>2021-11-16 11:11:44</time>
      </trkpt>
      <trkpt lat="40.74193" lon="-3.80951">
        <ele>902.2</ele>
        <time>2021-11-16 11:11:45</time>
      </trkpt>
      <trkpt lat="40.74189" lon="-3.80959">
        <ele>902.2</ele>
        <time>2021-11-16 11:11:46</time>
      </trkpt>
      <trkpt lat="40.74185" lon="-3.80967">
        <ele>902.2</ele>
        <time>2021-11-16 11:11:47</time>
      </trkpt>
      <trkpt lat="40.74181" lon="-3.80975">
        <ele>902.2</ele>
        <time>2021-11-16 11:11:48</time>
      </trkpt>
      <trkpt lat="40.74177" lon="-3.80983">
        <ele>902.2</ele>
        <time>2021-11-16 11:11:49</time>
      </trkpt>
      <trkpt lat="40.74172" lon="-3.80991">
        <ele>902.2</ele>
        <time>2021-11-16 11:11:50</time>
      </trkpt>
      <trkpt lat="40.74168" lon="-3.80999">
        <ele>902.2</ele>
        <time>2021-11-16 11:11:51</time>
      </trkpt>
      <trkpt lat="40.74164" lon="-3.81007">
        <ele>902.2</ele>
        <time>2021-11-16 11:11:52</time>
      </trkpt>
      <trkpt lat="40.7416" lon="-3.81014">
        <ele>902.2</ele>
        <time>2021-11-16 11:11:53</time>
      </trkpt>
      <trkpt lat="40.74156" lon="-3.81022">
        <ele>902.2</ele>
        <time>2021-11-16 11:11:54</time>
      </trkpt>
      <trkpt lat="40.74152" lon="-3.8103">
        <ele>902.2</ele>
        <time>2021-11-16 11:11:55</time>
      </trkpt>
      <trkpt lat="40.74148" lon="-3.81038">
        <ele>902.2</ele>
        <time>2021-11-16 11:11:56</time>
      </trkpt>
      <trkpt lat="40.74144" lon="-3.81046">
        <ele>902</ele>
        <time>2021-11-16 11:11:57</time>
      </trkpt>
      <trkpt lat="40.74139" lon="-3.81054">
        <ele>902</ele>
        <time>2021-11-16 11:11:58</time>
      </trkpt>
      <trkpt lat="40.74135" lon="-3.81062">
        <ele>902.2</ele>
        <time>2021-11-16 11:11:59</time>
      </trkpt>
      <trkpt lat="40.74131" lon="-3.8107">
        <ele>902</ele>
        <time>2021-11-16 11:12:00</time>
      </trkpt>
      <trkpt lat="40.74127" lon="-3.81078">
        <ele>902.2</ele>
        <time>2021-11-16 11:12:01</time>
      </trkpt>
      <trkpt lat="40.74123" lon="-3.81085">
        <ele>902</ele>
        <time>2021-11-16 11:12:02</time>
      </trkpt>
      <trkpt lat="40.74119" lon="-3.81093">
        <ele>902</ele>
        <time>2021-11-16 11:12:03</time>
      </trkpt>
      <trkpt lat="40.74115" lon="-3.81101">
        <ele>902</ele>
        <time>2021-11-16 11:12:04</time>
      </trkpt>
      <trkpt lat="40.74107" lon="-3.81116">
        <ele>902</ele>
        <time>2021-11-16 11:12:05</time>
      </trkpt>
      <trkpt lat="40.74107" lon="-3.81116">
        <ele>901.8</ele>
        <time>2021-11-16 11:12:06</time>
      </trkpt>
      <trkpt lat="40.74103" lon="-3.81124">
        <ele>901.8</ele>
        <time>2021-11-16 11:12:07</time>
      </trkpt>
      <trkpt lat="40.74099" lon="-3.81132">
        <ele>901.8</ele>
        <time>2021-11-16 11:12:08</time>
      </trkpt>
      <trkpt lat="40.74095" lon="-3.8114">
        <ele>901.6</ele>
        <time>2021-11-16 11:12:09</time>
      </trkpt>
      <trkpt lat="40.7409" lon="-3.81148">
        <ele>901.4</ele>
        <time>2021-11-16 11:12:10</time>
      </trkpt>
      <trkpt lat="40.74086" lon="-3.81156">
        <ele>901.4</ele>
        <time>2021-11-16 11:12:11</time>
      </trkpt>
      <trkpt lat="40.74082" lon="-3.81165">
        <ele>901.4</ele>
        <time>2021-11-16 11:12:12</time>
      </trkpt>
      <trkpt lat="40.74077" lon="-3.81173">
        <ele>901.4</ele>
        <time>2021-11-16 11:12:13</time>
      </trkpt>
      <trkpt lat="40.74073" lon="-3.81182">
        <ele>901.2</ele>
        <time>2021-11-16 11:12:14</time>
      </trkpt>
      <trkpt lat="40.74068" lon="-3.81191">
        <ele>901</ele>
        <time>2021-11-16 11:12:15</time>
      </trkpt>
      <trkpt lat="40.74064" lon="-3.812">
        <ele>900.8</ele>
        <time>2021-11-16 11:12:16</time>
      </trkpt>
      <trkpt lat="40.74059" lon="-3.81208">
        <ele>900.6</ele>
        <time>2021-11-16 11:12:17</time>
      </trkpt>
      <trkpt lat="40.74054" lon="-3.81217">
        <ele>900.2</ele>
        <time>2021-11-16 11:12:18</time>
      </trkpt>
      <trkpt lat="40.74049" lon="-3.81226">
        <ele>900</ele>
        <time>2021-11-16 11:12:19</time>
      </trkpt>
      <trkpt lat="40.74044" lon="-3.81235">
        <ele>899.8</ele>
        <time>2021-11-16 11:12:20</time>
      </trkpt>
      <trkpt lat="40.74039" lon="-3.81244">
        <ele>899.8</ele>
        <time>2021-11-16 11:12:21</time>
      </trkpt>
      <trkpt lat="40.74035" lon="-3.81254">
        <ele>899.4</ele>
        <time>2021-11-16 11:12:22</time>
      </trkpt>
      <trkpt lat="40.7403" lon="-3.81263">
        <ele>899.2</ele>
        <time>2021-11-16 11:12:23</time>
      </trkpt>
      <trkpt lat="40.74026" lon="-3.81274">
        <ele>898.6</ele>
        <time>2021-11-16 11:12:24</time>
      </trkpt>
      <trkpt lat="40.74022" lon="-3.81284">
        <ele>898.4</ele>
        <time>2021-11-16 11:12:25</time>
      </trkpt>
      <trkpt lat="40.74018" lon="-3.81294">
        <ele>898.4</ele>
        <time>2021-11-16 11:12:26</time>
      </trkpt>
      <trkpt lat="40.74014" lon="-3.81304">
        <ele>898.2</ele>
        <time>2021-11-16 11:12:27</time>
      </trkpt>
      <trkpt lat="40.74009" lon="-3.81314">
        <ele>898</ele>
        <time>2021-11-16 11:12:28</time>
      </trkpt>
      <trkpt lat="40.74005" lon="-3.81324">
        <ele>898</ele>
        <time>2021-11-16 11:12:29</time>
      </trkpt>
      <trkpt lat="40.74001" lon="-3.81334">
        <ele>897.8</ele>
        <time>2021-11-16 11:12:30</time>
      </trkpt>
      <trkpt lat="40.73998" lon="-3.81344">
        <ele>897.8</ele>
        <time>2021-11-16 11:12:31</time>
      </trkpt>
      <trkpt lat="40.73994" lon="-3.81354">
        <ele>897.6</ele>
        <time>2021-11-16 11:12:32</time>
      </trkpt>
      <trkpt lat="40.7399" lon="-3.81363">
        <ele>897.2</ele>
        <time>2021-11-16 11:12:33</time>
      </trkpt>
      <trkpt lat="40.73987" lon="-3.81373">
        <ele>896.6</ele>
        <time>2021-11-16 11:12:34</time>
      </trkpt>
      <trkpt lat="40.73984" lon="-3.81382">
        <ele>896.2</ele>
        <time>2021-11-16 11:12:35</time>
      </trkpt>
      <trkpt lat="40.7398" lon="-3.81391">
        <ele>896</ele>
        <time>2021-11-16 11:12:36</time>
      </trkpt>
      <trkpt lat="40.73978" lon="-3.81401">
        <ele>895.8</ele>
        <time>2021-11-16 11:12:37</time>
      </trkpt>
      <trkpt lat="40.73975" lon="-3.8141">
        <ele>895.6</ele>
        <time>2021-11-16 11:12:38</time>
      </trkpt>
      <trkpt lat="40.73974" lon="-3.8142">
        <ele>895.8</ele>
        <time>2021-11-16 11:12:39</time>
      </trkpt>
      <trkpt lat="40.73973" lon="-3.8143">
        <ele>895.8</ele>
        <time>2021-11-16 11:12:40</time>
      </trkpt>
      <trkpt lat="40.73973" lon="-3.8144">
        <ele>895.8</ele>
        <time>2021-11-16 11:12:41</time>
      </trkpt>
      <trkpt lat="40.73974" lon="-3.81451">
        <ele>895.6</ele>
        <time>2021-11-16 11:12:42</time>
      </trkpt>
      <trkpt lat="40.73974" lon="-3.81461">
        <ele>895.8</ele>
        <time>2021-11-16 11:12:43</time>
      </trkpt>
      <trkpt lat="40.73973" lon="-3.81471">
        <ele>895.6</ele>
        <time>2021-11-16 11:12:44</time>
      </trkpt>
      <trkpt lat="40.73969" lon="-3.8148">
        <ele>895.6</ele>
        <time>2021-11-16 11:12:45</time>
      </trkpt>
      <trkpt lat="40.73964" lon="-3.81488">
        <ele>895.4</ele>
        <time>2021-11-16 11:12:46</time>
      </trkpt>
      <trkpt lat="40.73957" lon="-3.81494">
        <ele>895.2</ele>
        <time>2021-11-16 11:12:47</time>
      </trkpt>
      <trkpt lat="40.7395" lon="-3.815">
        <ele>895.4</ele>
        <time>2021-11-16 11:12:48</time>
      </trkpt>
      <trkpt lat="40.73944" lon="-3.81506">
        <ele>895.4</ele>
        <time>2021-11-16 11:12:49</time>
      </trkpt>
      <trkpt lat="40.73938" lon="-3.81514">
        <ele>895.2</ele>
        <time>2021-11-16 11:12:50</time>
      </trkpt>
      <trkpt lat="40.73934" lon="-3.81523">
        <ele>895.2</ele>
        <time>2021-11-16 11:12:51</time>
      </trkpt>
      <trkpt lat="40.7393" lon="-3.81533">
        <ele>895</ele>
        <time>2021-11-16 11:12:52</time>
      </trkpt>
      <trkpt lat="40.73926" lon="-3.81542">
        <ele>895.2</ele>
        <time>2021-11-16 11:12:53</time>
      </trkpt>
      <trkpt lat="40.73922" lon="-3.81552">
        <ele>895</ele>
        <time>2021-11-16 11:12:54</time>
      </trkpt>
      <trkpt lat="40.73918" lon="-3.81562">
        <ele>895</ele>
        <time>2021-11-16 11:12:55</time>
      </trkpt>
      <trkpt lat="40.73914" lon="-3.81571">
        <ele>894.8</ele>
        <time>2021-11-16 11:12:56</time>
      </trkpt>
      <trkpt lat="40.7391" lon="-3.81581">
        <ele>894.4</ele>
        <time>2021-11-16 11:12:57</time>
      </trkpt>
      <trkpt lat="40.73906" lon="-3.81591">
        <ele>894.4</ele>
        <time>2021-11-16 11:12:58</time>
      </trkpt>
      <trkpt lat="40.73902" lon="-3.816">
        <ele>894.4</ele>
        <time>2021-11-16 11:12:59</time>
      </trkpt>
      <trkpt lat="40.73899" lon="-3.8161">
        <ele>894.2</ele>
        <time>2021-11-16 11:13:00</time>
      </trkpt>
      <trkpt lat="40.73895" lon="-3.8162">
        <ele>894.2</ele>
        <time>2021-11-16 11:13:01</time>
      </trkpt>
      <trkpt lat="40.73892" lon="-3.8163">
        <ele>894</ele>
        <time>2021-11-16 11:13:02</time>
      </trkpt>
      <trkpt lat="40.73888" lon="-3.8164">
        <ele>894</ele>
        <time>2021-11-16 11:13:03</time>
      </trkpt>
      <trkpt lat="40.73884" lon="-3.8165">
        <ele>894</ele>
        <time>2021-11-16 11:13:04</time>
      </trkpt>
      <trkpt lat="40.73881" lon="-3.81659">
        <ele>893.8</ele>
        <time>2021-11-16 11:13:05</time>
      </trkpt>
      <trkpt lat="40.73877" lon="-3.81669">
        <ele>893.8</ele>
        <time>2021-11-16 11:13:06</time>
      </trkpt>
      <trkpt lat="40.73873" lon="-3.81679">
        <ele>893.6</ele>
        <time>2021-11-16 11:13:07</time>
      </trkpt>
      <trkpt lat="40.7387" lon="-3.81689">
        <ele>893.6</ele>
        <time>2021-11-16 11:13:08</time>
      </trkpt>
      <trkpt lat="40.73866" lon="-3.81698">
        <ele>893.6</ele>
        <time>2021-11-16 11:13:09</time>
      </trkpt>
      <trkpt lat="40.73862" lon="-3.81708">
        <ele>893.6</ele>
        <time>2021-11-16 11:13:10</time>
      </trkpt>
      <trkpt lat="40.73859" lon="-3.81718">
        <ele>893.6</ele>
        <time>2021-11-16 11:13:11</time>
      </trkpt>
      <trkpt lat="40.73855" lon="-3.81727">
        <ele>893.4</ele>
        <time>2021-11-16 11:13:12</time>
      </trkpt>
      <trkpt lat="40.73852" lon="-3.81737">
        <ele>893.4</ele>
        <time>2021-11-16 11:13:13</time>
      </trkpt>
      <trkpt lat="40.73848" lon="-3.81746">
        <ele>893.4</ele>
        <time>2021-11-16 11:13:14</time>
      </trkpt>
      <trkpt lat="40.73845" lon="-3.81756">
        <ele>893.4</ele>
        <time>2021-11-16 11:13:15</time>
      </trkpt>
      <trkpt lat="40.73841" lon="-3.81765">
        <ele>893.4</ele>
        <time>2021-11-16 11:13:16</time>
      </trkpt>
      <trkpt lat="40.73838" lon="-3.81774">
        <ele>893.4</ele>
        <time>2021-11-16 11:13:17</time>
      </trkpt>
      <trkpt lat="40.73835" lon="-3.81784">
        <ele>893.2</ele>
        <time>2021-11-16 11:13:18</time>
      </trkpt>
      <trkpt lat="40.73831" lon="-3.81793">
        <ele>893.2</ele>
        <time>2021-11-16 11:13:19</time>
      </trkpt>
      <trkpt lat="40.73828" lon="-3.81802">
        <ele>893.2</ele>
        <time>2021-11-16 11:13:20</time>
      </trkpt>
      <trkpt lat="40.73825" lon="-3.81811">
        <ele>893</ele>
        <time>2021-11-16 11:13:21</time>
      </trkpt>
      <trkpt lat="40.73822" lon="-3.8182">
        <ele>893.2</ele>
        <time>2021-11-16 11:13:22</time>
      </trkpt>
      <trkpt lat="40.73819" lon="-3.81829">
        <ele>893.2</ele>
        <time>2021-11-16 11:13:23</time>
      </trkpt>
      <trkpt lat="40.73816" lon="-3.81838">
        <ele>893.2</ele>
        <time>2021-11-16 11:13:24</time>
      </trkpt>
      <trkpt lat="40.73813" lon="-3.81848">
        <ele>893.2</ele>
        <time>2021-11-16 11:13:25</time>
      </trkpt>
      <trkpt lat="40.7381" lon="-3.81857">
        <ele>893.2</ele>
        <time>2021-11-16 11:13:26</time>
      </trkpt>
      <trkpt lat="40.73808" lon="-3.81866">
        <ele>893.2</ele>
        <time>2021-11-16 11:13:27</time>
      </trkpt>
      <trkpt lat="40.73805" lon="-3.81875">
        <ele>893.2</ele>
        <time>2021-11-16 11:13:28</time>
      </trkpt>
      <trkpt lat="40.73803" lon="-3.81884">
        <ele>893.2</ele>
        <time>2021-11-16 11:13:29</time>
      </trkpt>
      <trkpt lat="40.73801" lon="-3.81893">
        <ele>893</ele>
        <time>2021-11-16 11:13:30</time>
      </trkpt>
      <trkpt lat="40.73799" lon="-3.81902">
        <ele>893.2</ele>
        <time>2021-11-16 11:13:31</time>
      </trkpt>
      <trkpt lat="40.73797" lon="-3.81911">
        <ele>893.4</ele>
        <time>2021-11-16 11:13:32</time>
      </trkpt>
      <trkpt lat="40.73796" lon="-3.8192">
        <ele>893.4</ele>
        <time>2021-11-16 11:13:33</time>
      </trkpt>
      <trkpt lat="40.73794" lon="-3.81929">
        <ele>893.4</ele>
        <time>2021-11-16 11:13:34</time>
      </trkpt>
      <trkpt lat="40.73793" lon="-3.81939">
        <ele>893.4</ele>
        <time>2021-11-16 11:13:35</time>
      </trkpt>
      <trkpt lat="40.73792" lon="-3.81948">
        <ele>893.4</ele>
        <time>2021-11-16 11:13:36</time>
      </trkpt>
      <trkpt lat="40.73791" lon="-3.81958">
        <ele>893.4</ele>
        <time>2021-11-16 11:13:37</time>
      </trkpt>
      <trkpt lat="40.7379" lon="-3.81967">
        <ele>893.6</ele>
        <time>2021-11-16 11:13:38</time>
      </trkpt>
      <trkpt lat="40.73789" lon="-3.81976">
        <ele>893.6</ele>
        <time>2021-11-16 11:13:39</time>
      </trkpt>
      <trkpt lat="40.73788" lon="-3.81986">
        <ele>893.6</ele>
        <time>2021-11-16 11:13:40</time>
      </trkpt>
      <trkpt lat="40.73788" lon="-3.81995">
        <ele>893.6</ele>
        <time>2021-11-16 11:13:41</time>
      </trkpt>
      <trkpt lat="40.73788" lon="-3.82005">
        <ele>893.6</ele>
        <time>2021-11-16 11:13:42</time>
      </trkpt>
      <trkpt lat="40.73788" lon="-3.82014">
        <ele>893.8</ele>
        <time>2021-11-16 11:13:43</time>
      </trkpt>
      <trkpt lat="40.73787" lon="-3.82023">
        <ele>893.8</ele>
        <time>2021-11-16 11:13:44</time>
      </trkpt>
      <trkpt lat="40.73787" lon="-3.82033">
        <ele>893.8</ele>
        <time>2021-11-16 11:13:45</time>
      </trkpt>
      <trkpt lat="40.73788" lon="-3.82042">
        <ele>893.6</ele>
        <time>2021-11-16 11:13:46</time>
      </trkpt>
      <trkpt lat="40.73788" lon="-3.82051">
        <ele>893.8</ele>
        <time>2021-11-16 11:13:47</time>
      </trkpt>
      <trkpt lat="40.73789" lon="-3.8206">
        <ele>893.8</ele>
        <time>2021-11-16 11:13:48</time>
      </trkpt>
      <trkpt lat="40.73789" lon="-3.8207">
        <ele>893.8</ele>
        <time>2021-11-16 11:13:49</time>
      </trkpt>
      <trkpt lat="40.7379" lon="-3.82079">
        <ele>893.8</ele>
        <time>2021-11-16 11:13:50</time>
      </trkpt>
      <trkpt lat="40.73791" lon="-3.82089">
        <ele>893.8</ele>
        <time>2021-11-16 11:13:51</time>
      </trkpt>
      <trkpt lat="40.73792" lon="-3.82098">
        <ele>894</ele>
        <time>2021-11-16 11:13:52</time>
      </trkpt>
      <trkpt lat="40.73793" lon="-3.82107">
        <ele>893.8</ele>
        <time>2021-11-16 11:13:53</time>
      </trkpt>
      <trkpt lat="40.73794" lon="-3.82117">
        <ele>893.8</ele>
        <time>2021-11-16 11:13:54</time>
      </trkpt>
      <trkpt lat="40.73796" lon="-3.82126">
        <ele>893.8</ele>
        <time>2021-11-16 11:13:55</time>
      </trkpt>
      <trkpt lat="40.73797" lon="-3.82135">
        <ele>894</ele>
        <time>2021-11-16 11:13:56</time>
      </trkpt>
      <trkpt lat="40.73799" lon="-3.82144">
        <ele>894</ele>
        <time>2021-11-16 11:13:57</time>
      </trkpt>
      <trkpt lat="40.738" lon="-3.82154">
        <ele>894</ele>
        <time>2021-11-16 11:13:58</time>
      </trkpt>
      <trkpt lat="40.73803" lon="-3.82163">
        <ele>894.2</ele>
        <time>2021-11-16 11:13:59</time>
      </trkpt>
      <trkpt lat="40.73805" lon="-3.82172">
        <ele>894.2</ele>
        <time>2021-11-16 11:14:00</time>
      </trkpt>
      <trkpt lat="40.73807" lon="-3.82181">
        <ele>894.2</ele>
        <time>2021-11-16 11:14:01</time>
      </trkpt>
      <trkpt lat="40.73809" lon="-3.8219">
        <ele>894.4</ele>
        <time>2021-11-16 11:14:02</time>
      </trkpt>
      <trkpt lat="40.73812" lon="-3.82199">
        <ele>894.4</ele>
        <time>2021-11-16 11:14:03</time>
      </trkpt>
      <trkpt lat="40.73814" lon="-3.82208">
        <ele>894.2</ele>
        <time>2021-11-16 11:14:04</time>
      </trkpt>
      <trkpt lat="40.73817" lon="-3.82217">
        <ele>894.4</ele>
        <time>2021-11-16 11:14:05</time>
      </trkpt>
      <trkpt lat="40.7382" lon="-3.82226">
        <ele>894.4</ele>
        <time>2021-11-16 11:14:06</time>
      </trkpt>
      <trkpt lat="40.73823" lon="-3.82235">
        <ele>894.4</ele>
        <time>2021-11-16 11:14:07</time>
      </trkpt>
      <trkpt lat="40.73826" lon="-3.82244">
        <ele>894.4</ele>
        <time>2021-11-16 11:14:08</time>
      </trkpt>
      <trkpt lat="40.7383" lon="-3.82252">
        <ele>894.4</ele>
        <time>2021-11-16 11:14:09</time>
      </trkpt>
      <trkpt lat="40.73833" lon="-3.82261">
        <ele>894.8</ele>
        <time>2021-11-16 11:14:10</time>
      </trkpt>
      <trkpt lat="40.73837" lon="-3.82269">
        <ele>895</ele>
        <time>2021-11-16 11:14:11</time>
      </trkpt>
      <trkpt lat="40.73841" lon="-3.82278">
        <ele>895</ele>
        <time>2021-11-16 11:14:12</time>
      </trkpt>
      <trkpt lat="40.73844" lon="-3.82286">
        <ele>895.2</ele>
        <time>2021-11-16 11:14:13</time>
      </trkpt>
      <trkpt lat="40.73848" lon="-3.82295">
        <ele>895</ele>
        <time>2021-11-16 11:14:14</time>
      </trkpt>
      <trkpt lat="40.73852" lon="-3.82303">
        <ele>895.2</ele>
        <time>2021-11-16 11:14:15</time>
      </trkpt>
      <trkpt lat="40.73857" lon="-3.82311">
        <ele>895</ele>
        <time>2021-11-16 11:14:16</time>
      </trkpt>
      <trkpt lat="40.73861" lon="-3.82319">
        <ele>895.2</ele>
        <time>2021-11-16 11:14:17</time>
      </trkpt>
      <trkpt lat="40.73866" lon="-3.82326">
        <ele>895.2</ele>
        <time>2021-11-16 11:14:18</time>
      </trkpt>
      <trkpt lat="40.73871" lon="-3.82334">
        <ele>895</ele>
        <time>2021-11-16 11:14:19</time>
      </trkpt>
      <trkpt lat="40.73875" lon="-3.82341">
        <ele>895.2</ele>
        <time>2021-11-16 11:14:20</time>
      </trkpt>
      <trkpt lat="40.7388" lon="-3.82349">
        <ele>895.2</ele>
        <time>2021-11-16 11:14:21</time>
      </trkpt>
      <trkpt lat="40.73885" lon="-3.82356">
        <ele>895.2</ele>
        <time>2021-11-16 11:14:22</time>
      </trkpt>
      <trkpt lat="40.7389" lon="-3.82363">
        <ele>895.2</ele>
        <time>2021-11-16 11:14:23</time>
      </trkpt>
      <trkpt lat="40.73895" lon="-3.8237">
        <ele>895.2</ele>
        <time>2021-11-16 11:14:24</time>
      </trkpt>
      <trkpt lat="40.73901" lon="-3.82377">
        <ele>895.4</ele>
        <time>2021-11-16 11:14:25</time>
      </trkpt>
      <trkpt lat="40.73906" lon="-3.82384">
        <ele>895.4</ele>
        <time>2021-11-16 11:14:26</time>
      </trkpt>
      <trkpt lat="40.73912" lon="-3.8239">
        <ele>895.2</ele>
        <time>2021-11-16 11:14:27</time>
      </trkpt>
      <trkpt lat="40.73917" lon="-3.82397">
        <ele>895.2</ele>
        <time>2021-11-16 11:14:28</time>
      </trkpt>
      <trkpt lat="40.73923" lon="-3.82404">
        <ele>895.4</ele>
        <time>2021-11-16 11:14:29</time>
      </trkpt>
      <trkpt lat="40.73929" lon="-3.8241">
        <ele>895.4</ele>
        <time>2021-11-16 11:14:30</time>
      </trkpt>
      <trkpt lat="40.73934" lon="-3.82416">
        <ele>895.2</ele>
        <time>2021-11-16 11:14:31</time>
      </trkpt>
      <trkpt lat="40.7394" lon="-3.82423">
        <ele>895.2</ele>
        <time>2021-11-16 11:14:32</time>
      </trkpt>
      <trkpt lat="40.73946" lon="-3.82429">
        <ele>895.2</ele>
        <time>2021-11-16 11:14:33</time>
      </trkpt>
      <trkpt lat="40.73952" lon="-3.82435">
        <ele>895.2</ele>
        <time>2021-11-16 11:14:34</time>
      </trkpt>
      <trkpt lat="40.73957" lon="-3.82442">
        <ele>895.2</ele>
        <time>2021-11-16 11:14:35</time>
      </trkpt>
      <trkpt lat="40.73963" lon="-3.82448">
        <ele>895.2</ele>
        <time>2021-11-16 11:14:36</time>
      </trkpt>
      <trkpt lat="40.73969" lon="-3.82454">
        <ele>895.4</ele>
        <time>2021-11-16 11:14:37</time>
      </trkpt>
      <trkpt lat="40.73975" lon="-3.8246">
        <ele>895.2</ele>
        <time>2021-11-16 11:14:38</time>
      </trkpt>
      <trkpt lat="40.73981" lon="-3.82467">
        <ele>895.4</ele>
        <time>2021-11-16 11:14:39</time>
      </trkpt>
      <trkpt lat="40.73987" lon="-3.82473">
        <ele>895.2</ele>
        <time>2021-11-16 11:14:40</time>
      </trkpt>
      <trkpt lat="40.73992" lon="-3.82479">
        <ele>895.2</ele>
        <time>2021-11-16 11:14:41</time>
      </trkpt>
      <trkpt lat="40.73998" lon="-3.82485">
        <ele>895.2</ele>
        <time>2021-11-16 11:14:42</time>
      </trkpt>
      <trkpt lat="40.74004" lon="-3.82491">
        <ele>895.4</ele>
        <time>2021-11-16 11:14:43</time>
      </trkpt>
      <trkpt lat="40.7401" lon="-3.82498">
        <ele>895.4</ele>
        <time>2021-11-16 11:14:44</time>
      </trkpt>
      <trkpt lat="40.74015" lon="-3.82504">
        <ele>895.6</ele>
        <time>2021-11-16 11:14:45</time>
      </trkpt>
      <trkpt lat="40.74021" lon="-3.8251">
        <ele>895.4</ele>
        <time>2021-11-16 11:14:46</time>
      </trkpt>
      <trkpt lat="40.74027" lon="-3.82516">
        <ele>895.4</ele>
        <time>2021-11-16 11:14:47</time>
      </trkpt>
      <trkpt lat="40.74032" lon="-3.82522">
        <ele>895.6</ele>
        <time>2021-11-16 11:14:48</time>
      </trkpt>
      <trkpt lat="40.74038" lon="-3.82528">
        <ele>895.4</ele>
        <time>2021-11-16 11:14:49</time>
      </trkpt>
      <trkpt lat="40.74044" lon="-3.82535">
        <ele>895.4</ele>
        <time>2021-11-16 11:14:50</time>
      </trkpt>
      <trkpt lat="40.74049" lon="-3.82541">
        <ele>895.4</ele>
        <time>2021-11-16 11:14:51</time>
      </trkpt>
      <trkpt lat="40.74055" lon="-3.82547">
        <ele>895.6</ele>
        <time>2021-11-16 11:14:52</time>
      </trkpt>
      <trkpt lat="40.74061" lon="-3.82553">
        <ele>895.6</ele>
        <time>2021-11-16 11:14:53</time>
      </trkpt>
      <trkpt lat="40.74066" lon="-3.82559">
        <ele>895.4</ele>
        <time>2021-11-16 11:14:54</time>
      </trkpt>
      <trkpt lat="40.74072" lon="-3.82566">
        <ele>895.6</ele>
        <time>2021-11-16 11:14:55</time>
      </trkpt>
      <trkpt lat="40.74077" lon="-3.82572">
        <ele>895.6</ele>
        <time>2021-11-16 11:14:56</time>
      </trkpt>
      <trkpt lat="40.74083" lon="-3.82578">
        <ele>895.6</ele>
        <time>2021-11-16 11:14:57</time>
      </trkpt>
      <trkpt lat="40.74088" lon="-3.82585">
        <ele>895.4</ele>
        <time>2021-11-16 11:14:58</time>
      </trkpt>
      <trkpt lat="40.74093" lon="-3.82591">
        <ele>895.4</ele>
        <time>2021-11-16 11:14:59</time>
      </trkpt>
      <trkpt lat="40.74098" lon="-3.82598">
        <ele>895.6</ele>
        <time>2021-11-16 11:15:00</time>
      </trkpt>
      <trkpt lat="40.74104" lon="-3.82605">
        <ele>895.6</ele>
        <time>2021-11-16 11:15:01</time>
      </trkpt>
      <trkpt lat="40.74109" lon="-3.82612">
        <ele>895.6</ele>
        <time>2021-11-16 11:15:02</time>
      </trkpt>
      <trkpt lat="40.74113" lon="-3.82619">
        <ele>895.6</ele>
        <time>2021-11-16 11:15:03</time>
      </trkpt>
      <trkpt lat="40.74118" lon="-3.82626">
        <ele>895.6</ele>
        <time>2021-11-16 11:15:04</time>
      </trkpt>
      <trkpt lat="40.74123" lon="-3.82633">
        <ele>895.8</ele>
        <time>2021-11-16 11:15:05</time>
      </trkpt>
      <trkpt lat="40.74128" lon="-3.82641">
        <ele>896</ele>
        <time>2021-11-16 11:15:06</time>
      </trkpt>
      <trkpt lat="40.74132" lon="-3.82648">
        <ele>896</ele>
        <time>2021-11-16 11:15:07</time>
      </trkpt>
      <trkpt lat="40.74137" lon="-3.82656">
        <ele>896</ele>
        <time>2021-11-16 11:15:08</time>
      </trkpt>
      <trkpt lat="40.74141" lon="-3.82664">
        <ele>896</ele>
        <time>2021-11-16 11:15:09</time>
      </trkpt>
      <trkpt lat="40.74145" lon="-3.82672">
        <ele>896.2</ele>
        <time>2021-11-16 11:15:10</time>
      </trkpt>
      <trkpt lat="40.74149" lon="-3.8268">
        <ele>896</ele>
        <time>2021-11-16 11:15:11</time>
      </trkpt>
      <trkpt lat="40.74153" lon="-3.82689">
        <ele>896.2</ele>
        <time>2021-11-16 11:15:12</time>
      </trkpt>
      <trkpt lat="40.74157" lon="-3.82697">
        <ele>896</ele>
        <time>2021-11-16 11:15:13</time>
      </trkpt>
      <trkpt lat="40.7416" lon="-3.82706">
        <ele>896</ele>
        <time>2021-11-16 11:15:14</time>
      </trkpt>
      <trkpt lat="40.74163" lon="-3.82714">
        <ele>896</ele>
        <time>2021-11-16 11:15:15</time>
      </trkpt>
      <trkpt lat="40.74167" lon="-3.82723">
        <ele>896</ele>
        <time>2021-11-16 11:15:16</time>
      </trkpt>
      <trkpt lat="40.7417" lon="-3.82732">
        <ele>896</ele>
        <time>2021-11-16 11:15:17</time>
      </trkpt>
      <trkpt lat="40.74173" lon="-3.8274">
        <ele>896</ele>
        <time>2021-11-16 11:15:18</time>
      </trkpt>
      <trkpt lat="40.74176" lon="-3.82749">
        <ele>896</ele>
        <time>2021-11-16 11:15:19</time>
      </trkpt>
      <trkpt lat="40.74178" lon="-3.82758">
        <ele>896</ele>
        <time>2021-11-16 11:15:20</time>
      </trkpt>
      <trkpt lat="40.74181" lon="-3.82767">
        <ele>896</ele>
        <time>2021-11-16 11:15:21</time>
      </trkpt>
      <trkpt lat="40.74183" lon="-3.82776">
        <ele>896</ele>
        <time>2021-11-16 11:15:22</time>
      </trkpt>
      <trkpt lat="40.74185" lon="-3.82786">
        <ele>896</ele>
        <time>2021-11-16 11:15:23</time>
      </trkpt>
      <trkpt lat="40.74187" lon="-3.82795">
        <ele>896</ele>
        <time>2021-11-16 11:15:24</time>
      </trkpt>
      <trkpt lat="40.74189" lon="-3.82804">
        <ele>895.8</ele>
        <time>2021-11-16 11:15:25</time>
      </trkpt>
      <trkpt lat="40.74191" lon="-3.82813">
        <ele>895.8</ele>
        <time>2021-11-16 11:15:26</time>
      </trkpt>
      <trkpt lat="40.74193" lon="-3.82823">
        <ele>896</ele>
        <time>2021-11-16 11:15:27</time>
      </trkpt>
      <trkpt lat="40.74195" lon="-3.82832">
        <ele>896</ele>
        <time>2021-11-16 11:15:28</time>
      </trkpt>
      <trkpt lat="40.74196" lon="-3.82842">
        <ele>895.8</ele>
        <time>2021-11-16 11:15:29</time>
      </trkpt>
      <trkpt lat="40.74197" lon="-3.82852">
        <ele>896</ele>
        <time>2021-11-16 11:15:30</time>
      </trkpt>
      <trkpt lat="40.74198" lon="-3.82861">
        <ele>896</ele>
        <time>2021-11-16 11:15:31</time>
      </trkpt>
      <trkpt lat="40.74199" lon="-3.82871">
        <ele>895.8</ele>
        <time>2021-11-16 11:15:32</time>
      </trkpt>
      <trkpt lat="40.74199" lon="-3.82881">
        <ele>896</ele>
        <time>2021-11-16 11:15:33</time>
      </trkpt>
      <trkpt lat="40.742" lon="-3.8289">
        <ele>896.2</ele>
        <time>2021-11-16 11:15:34</time>
      </trkpt>
      <trkpt lat="40.742" lon="-3.829">
        <ele>896.2</ele>
        <time>2021-11-16 11:15:35</time>
      </trkpt>
      <trkpt lat="40.74201" lon="-3.8291">
        <ele>896.2</ele>
        <time>2021-11-16 11:15:36</time>
      </trkpt>
      <trkpt lat="40.74201" lon="-3.82919">
        <ele>896.4</ele>
        <time>2021-11-16 11:15:37</time>
      </trkpt>
      <trkpt lat="40.74201" lon="-3.82929">
        <ele>896.4</ele>
        <time>2021-11-16 11:15:38</time>
      </trkpt>
      <trkpt lat="40.742" lon="-3.82939">
        <ele>896.4</ele>
        <time>2021-11-16 11:15:39</time>
      </trkpt>
      <trkpt lat="40.742" lon="-3.82949">
        <ele>896.4</ele>
        <time>2021-11-16 11:15:40</time>
      </trkpt>
      <trkpt lat="40.74199" lon="-3.82959">
        <ele>896.4</ele>
        <time>2021-11-16 11:15:41</time>
      </trkpt>
      <trkpt lat="40.74199" lon="-3.82968">
        <ele>896.4</ele>
        <time>2021-11-16 11:15:42</time>
      </trkpt>
      <trkpt lat="40.74198" lon="-3.82978">
        <ele>896.6</ele>
        <time>2021-11-16 11:15:43</time>
      </trkpt>
      <trkpt lat="40.74197" lon="-3.82987">
        <ele>896.6</ele>
        <time>2021-11-16 11:15:44</time>
      </trkpt>
      <trkpt lat="40.74195" lon="-3.82997">
        <ele>896.4</ele>
        <time>2021-11-16 11:15:45</time>
      </trkpt>
      <trkpt lat="40.74194" lon="-3.83007">
        <ele>896.6</ele>
        <time>2021-11-16 11:15:46</time>
      </trkpt>
      <trkpt lat="40.74193" lon="-3.83016">
        <ele>896.6</ele>
        <time>2021-11-16 11:15:47</time>
      </trkpt>
      <trkpt lat="40.74191" lon="-3.83025">
        <ele>896.6</ele>
        <time>2021-11-16 11:15:48</time>
      </trkpt>
      <trkpt lat="40.7419" lon="-3.83035">
        <ele>896.6</ele>
        <time>2021-11-16 11:15:49</time>
      </trkpt>
      <trkpt lat="40.74188" lon="-3.83044">
        <ele>896.6</ele>
        <time>2021-11-16 11:15:50</time>
      </trkpt>
      <trkpt lat="40.74186" lon="-3.83053">
        <ele>896.6</ele>
        <time>2021-11-16 11:15:51</time>
      </trkpt>
      <trkpt lat="40.74185" lon="-3.83062">
        <ele>896.6</ele>
        <time>2021-11-16 11:15:52</time>
      </trkpt>
      <trkpt lat="40.74183" lon="-3.83072">
        <ele>896.6</ele>
        <time>2021-11-16 11:15:53</time>
      </trkpt>
      <trkpt lat="40.74181" lon="-3.83081">
        <ele>896.6</ele>
        <time>2021-11-16 11:15:54</time>
      </trkpt>
      <trkpt lat="40.74179" lon="-3.8309">
        <ele>896.6</ele>
        <time>2021-11-16 11:15:55</time>
      </trkpt>
      <trkpt lat="40.74177" lon="-3.83099">
        <ele>896.6</ele>
        <time>2021-11-16 11:15:56</time>
      </trkpt>
      <trkpt lat="40.74175" lon="-3.83108">
        <ele>896.6</ele>
        <time>2021-11-16 11:15:57</time>
      </trkpt>
      <trkpt lat="40.74173" lon="-3.83118">
        <ele>896.8</ele>
        <time>2021-11-16 11:15:58</time>
      </trkpt>
      <trkpt lat="40.74171" lon="-3.83127">
        <ele>896.8</ele>
        <time>2021-11-16 11:15:59</time>
      </trkpt>
      <trkpt lat="40.74169" lon="-3.83137">
        <ele>896.8</ele>
        <time>2021-11-16 11:16:00</time>
      </trkpt>
      <trkpt lat="40.74167" lon="-3.83146">
        <ele>896.8</ele>
        <time>2021-11-16 11:16:01</time>
      </trkpt>
      <trkpt lat="40.74165" lon="-3.83156">
        <ele>896.8</ele>
        <time>2021-11-16 11:16:02</time>
      </trkpt>
      <trkpt lat="40.74163" lon="-3.83166">
        <ele>896.8</ele>
        <time>2021-11-16 11:16:03</time>
      </trkpt>
      <trkpt lat="40.74161" lon="-3.83175">
        <ele>896.8</ele>
        <time>2021-11-16 11:16:04</time>
      </trkpt>
      <trkpt lat="40.74159" lon="-3.83185">
        <ele>896.8</ele>
        <time>2021-11-16 11:16:05</time>
      </trkpt>
      <trkpt lat="40.74157" lon="-3.83194">
        <ele>896.8</ele>
        <time>2021-11-16 11:16:06</time>
      </trkpt>
      <trkpt lat="40.74155" lon="-3.83204">
        <ele>896.8</ele>
        <time>2021-11-16 11:16:07</time>
      </trkpt>
      <trkpt lat="40.74153" lon="-3.83213">
        <ele>896.8</ele>
        <time>2021-11-16 11:16:08</time>
      </trkpt>
      <trkpt lat="40.74151" lon="-3.83223">
        <ele>897</ele>
        <time>2021-11-16 11:16:09</time>
      </trkpt>
      <trkpt lat="40.74149" lon="-3.83232">
        <ele>896.8</ele>
        <time>2021-11-16 11:16:10</time>
      </trkpt>
      <trkpt lat="40.74147" lon="-3.83242">
        <ele>896.8</ele>
        <time>2021-11-16 11:16:11</time>
      </trkpt>
      <trkpt lat="40.74145" lon="-3.83251">
        <ele>897</ele>
        <time>2021-11-16 11:16:12</time>
      </trkpt>
      <trkpt lat="40.74143" lon="-3.8326">
        <ele>897</ele>
        <time>2021-11-16 11:16:13</time>
      </trkpt>
      <trkpt lat="40.74142" lon="-3.8327">
        <ele>896.8</ele>
        <time>2021-11-16 11:16:14</time>
      </trkpt>
      <trkpt lat="40.7414" lon="-3.83279">
        <ele>896.8</ele>
        <time>2021-11-16 11:16:15</time>
      </trkpt>
      <trkpt lat="40.74139" lon="-3.83289">
        <ele>896.8</ele>
        <time>2021-11-16 11:16:16</time>
      </trkpt>
      <trkpt lat="40.74138" lon="-3.83299">
        <ele>896.8</ele>
        <time>2021-11-16 11:16:17</time>
      </trkpt>
      <trkpt lat="40.74137" lon="-3.83309">
        <ele>896.8</ele>
        <time>2021-11-16 11:16:18</time>
      </trkpt>
      <trkpt lat="40.74136" lon="-3.83318">
        <ele>896.8</ele>
        <time>2021-11-16 11:16:19</time>
      </trkpt>
      <trkpt lat="40.74136" lon="-3.83328">
        <ele>896.6</ele>
        <time>2021-11-16 11:16:20</time>
      </trkpt>
      <trkpt lat="40.74136" lon="-3.83338">
        <ele>896.6</ele>
        <time>2021-11-16 11:16:21</time>
      </trkpt>
      <trkpt lat="40.74135" lon="-3.83348">
        <ele>896.6</ele>
        <time>2021-11-16 11:16:22</time>
      </trkpt>
      <trkpt lat="40.74135" lon="-3.83358">
        <ele>896.4</ele>
        <time>2021-11-16 11:16:23</time>
      </trkpt>
      <trkpt lat="40.74135" lon="-3.83368">
        <ele>896.4</ele>
        <time>2021-11-16 11:16:24</time>
      </trkpt>
      <trkpt lat="40.74136" lon="-3.83378">
        <ele>896.4</ele>
        <time>2021-11-16 11:16:25</time>
      </trkpt>
      <trkpt lat="40.74136" lon="-3.83388">
        <ele>896.4</ele>
        <time>2021-11-16 11:16:26</time>
      </trkpt>
      <trkpt lat="40.74137" lon="-3.83398">
        <ele>896.4</ele>
        <time>2021-11-16 11:16:27</time>
      </trkpt>
      <trkpt lat="40.74138" lon="-3.83407">
        <ele>896.4</ele>
        <time>2021-11-16 11:16:28</time>
      </trkpt>
      <trkpt lat="40.74139" lon="-3.83417">
        <ele>896.4</ele>
        <time>2021-11-16 11:16:29</time>
      </trkpt>
      <trkpt lat="40.74141" lon="-3.83426">
        <ele>896.4</ele>
        <time>2021-11-16 11:16:30</time>
      </trkpt>
      <trkpt lat="40.74142" lon="-3.83436">
        <ele>896.2</ele>
        <time>2021-11-16 11:16:31</time>
      </trkpt>
      <trkpt lat="40.74144" lon="-3.83445">
        <ele>896.4</ele>
        <time>2021-11-16 11:16:32</time>
      </trkpt>
      <trkpt lat="40.74145" lon="-3.83455">
        <ele>896.4</ele>
        <time>2021-11-16 11:16:33</time>
      </trkpt>
      <trkpt lat="40.74147" lon="-3.83464">
        <ele>896.4</ele>
        <time>2021-11-16 11:16:34</time>
      </trkpt>
      <trkpt lat="40.74149" lon="-3.83474">
        <ele>896.4</ele>
        <time>2021-11-16 11:16:35</time>
      </trkpt>
      <trkpt lat="40.7415" lon="-3.83483">
        <ele>896.4</ele>
        <time>2021-11-16 11:16:36</time>
      </trkpt>
      <trkpt lat="40.74152" lon="-3.83493">
        <ele>896.4</ele>
        <time>2021-11-16 11:16:37</time>
      </trkpt>
      <trkpt lat="40.74154" lon="-3.83502">
        <ele>896.4</ele>
        <time>2021-11-16 11:16:38</time>
      </trkpt>
      <trkpt lat="40.74156" lon="-3.83512">
        <ele>896.6</ele>
        <time>2021-11-16 11:16:39</time>
      </trkpt>
      <trkpt lat="40.74158" lon="-3.83522">
        <ele>896.6</ele>
        <time>2021-11-16 11:16:40</time>
      </trkpt>
      <trkpt lat="40.74159" lon="-3.83532">
        <ele>896.6</ele>
        <time>2021-11-16 11:16:41</time>
      </trkpt>
      <trkpt lat="40.74161" lon="-3.83541">
        <ele>896.6</ele>
        <time>2021-11-16 11:16:42</time>
      </trkpt>
      <trkpt lat="40.74163" lon="-3.83551">
        <ele>896.8</ele>
        <time>2021-11-16 11:16:43</time>
      </trkpt>
      <trkpt lat="40.74165" lon="-3.83561">
        <ele>896.8</ele>
        <time>2021-11-16 11:16:44</time>
      </trkpt>
      <trkpt lat="40.74167" lon="-3.83571">
        <ele>897</ele>
        <time>2021-11-16 11:16:45</time>
      </trkpt>
      <trkpt lat="40.74168" lon="-3.83581">
        <ele>897.2</ele>
        <time>2021-11-16 11:16:46</time>
      </trkpt>
      <trkpt lat="40.7417" lon="-3.8359">
        <ele>897.2</ele>
        <time>2021-11-16 11:16:47</time>
      </trkpt>
      <trkpt lat="40.74172" lon="-3.836">
        <ele>897.4</ele>
        <time>2021-11-16 11:16:48</time>
      </trkpt>
      <trkpt lat="40.74174" lon="-3.8361">
        <ele>897.2</ele>
        <time>2021-11-16 11:16:49</time>
      </trkpt>
      <trkpt lat="40.74176" lon="-3.8362">
        <ele>897.4</ele>
        <time>2021-11-16 11:16:50</time>
      </trkpt>
      <trkpt lat="40.74178" lon="-3.8363">
        <ele>897.4</ele>
        <time>2021-11-16 11:16:51</time>
      </trkpt>
      <trkpt lat="40.74179" lon="-3.8364">
        <ele>897.6</ele>
        <time>2021-11-16 11:16:52</time>
      </trkpt>
      <trkpt lat="40.74181" lon="-3.8365">
        <ele>897.6</ele>
        <time>2021-11-16 11:16:53</time>
      </trkpt>
      <trkpt lat="40.74182" lon="-3.8366">
        <ele>897.6</ele>
        <time>2021-11-16 11:16:54</time>
      </trkpt>
      <trkpt lat="40.74183" lon="-3.8367">
        <ele>897.6</ele>
        <time>2021-11-16 11:16:55</time>
      </trkpt>
      <trkpt lat="40.74184" lon="-3.8368">
        <ele>897.8</ele>
        <time>2021-11-16 11:16:56</time>
      </trkpt>
      <trkpt lat="40.74185" lon="-3.83691">
        <ele>897.8</ele>
        <time>2021-11-16 11:16:57</time>
      </trkpt>
      <trkpt lat="40.74185" lon="-3.83701">
        <ele>897.6</ele>
        <time>2021-11-16 11:16:58</time>
      </trkpt>
      <trkpt lat="40.74185" lon="-3.83711">
        <ele>897.8</ele>
        <time>2021-11-16 11:16:59</time>
      </trkpt>
      <trkpt lat="40.74185" lon="-3.83722">
        <ele>897.6</ele>
        <time>2021-11-16 11:17:00</time>
      </trkpt>
      <trkpt lat="40.74185" lon="-3.83732">
        <ele>897.8</ele>
        <time>2021-11-16 11:17:01</time>
      </trkpt>
      <trkpt lat="40.74184" lon="-3.83742">
        <ele>897.6</ele>
        <time>2021-11-16 11:17:02</time>
      </trkpt>
      <trkpt lat="40.74184" lon="-3.83752">
        <ele>897.8</ele>
        <time>2021-11-16 11:17:03</time>
      </trkpt>
      <trkpt lat="40.74182" lon="-3.83762">
        <ele>897.6</ele>
        <time>2021-11-16 11:17:04</time>
      </trkpt>
      <trkpt lat="40.74181" lon="-3.83772">
        <ele>897.8</ele>
        <time>2021-11-16 11:17:05</time>
      </trkpt>
      <trkpt lat="40.74179" lon="-3.83782">
        <ele>897.8</ele>
        <time>2021-11-16 11:17:06</time>
      </trkpt>
      <trkpt lat="40.74177" lon="-3.83792">
        <ele>897.8</ele>
        <time>2021-11-16 11:17:07</time>
      </trkpt>
      <trkpt lat="40.74175" lon="-3.83802">
        <ele>897.8</ele>
        <time>2021-11-16 11:17:08</time>
      </trkpt>
      <trkpt lat="40.74172" lon="-3.83811">
        <ele>897.8</ele>
        <time>2021-11-16 11:17:09</time>
      </trkpt>
      <trkpt lat="40.7417" lon="-3.83821">
        <ele>897.8</ele>
        <time>2021-11-16 11:17:10</time>
      </trkpt>
      <trkpt lat="40.74167" lon="-3.8383">
        <ele>897.8</ele>
        <time>2021-11-16 11:17:11</time>
      </trkpt>
      <trkpt lat="40.74164" lon="-3.83839">
        <ele>897.8</ele>
        <time>2021-11-16 11:17:12</time>
      </trkpt>
      <trkpt lat="40.7416" lon="-3.83848">
        <ele>897.8</ele>
        <time>2021-11-16 11:17:13</time>
      </trkpt>
      <trkpt lat="40.74156" lon="-3.83857">
        <ele>897.8</ele>
        <time>2021-11-16 11:17:14</time>
      </trkpt>
      <trkpt lat="40.74153" lon="-3.83866">
        <ele>897.6</ele>
        <time>2021-11-16 11:17:15</time>
      </trkpt>
      <trkpt lat="40.74149" lon="-3.83875">
        <ele>897.6</ele>
        <time>2021-11-16 11:17:16</time>
      </trkpt>
      <trkpt lat="40.74145" lon="-3.83884">
        <ele>897.4</ele>
        <time>2021-11-16 11:17:17</time>
      </trkpt>
      <trkpt lat="40.74142" lon="-3.83893">
        <ele>897.4</ele>
        <time>2021-11-16 11:17:18</time>
      </trkpt>
      <trkpt lat="40.74138" lon="-3.83902">
        <ele>897.4</ele>
        <time>2021-11-16 11:17:19</time>
      </trkpt>
      <trkpt lat="40.74134" lon="-3.83911">
        <ele>897.2</ele>
        <time>2021-11-16 11:17:20</time>
      </trkpt>
      <trkpt lat="40.7413" lon="-3.8392">
        <ele>897.2</ele>
        <time>2021-11-16 11:17:21</time>
      </trkpt>
      <trkpt lat="40.74127" lon="-3.83929">
        <ele>897.2</ele>
        <time>2021-11-16 11:17:22</time>
      </trkpt>
      <trkpt lat="40.74123" lon="-3.83938">
        <ele>897.2</ele>
        <time>2021-11-16 11:17:23</time>
      </trkpt>
      <trkpt lat="40.74119" lon="-3.83947">
        <ele>897.2</ele>
        <time>2021-11-16 11:17:24</time>
      </trkpt>
      <trkpt lat="40.74116" lon="-3.83956">
        <ele>897</ele>
        <time>2021-11-16 11:17:25</time>
      </trkpt>
      <trkpt lat="40.74112" lon="-3.83965">
        <ele>897.2</ele>
        <time>2021-11-16 11:17:26</time>
      </trkpt>
      <trkpt lat="40.74109" lon="-3.83973">
        <ele>897</ele>
        <time>2021-11-16 11:17:27</time>
      </trkpt>
      <trkpt lat="40.74105" lon="-3.83982">
        <ele>897</ele>
        <time>2021-11-16 11:17:28</time>
      </trkpt>
      <trkpt lat="40.74101" lon="-3.83991">
        <ele>897.2</ele>
        <time>2021-11-16 11:17:29</time>
      </trkpt>
      <trkpt lat="40.74098" lon="-3.84">
        <ele>897</ele>
        <time>2021-11-16 11:17:30</time>
      </trkpt>
      <trkpt lat="40.74094" lon="-3.84008">
        <ele>897</ele>
        <time>2021-11-16 11:17:31</time>
      </trkpt>
      <trkpt lat="40.7409" lon="-3.84017">
        <ele>897</ele>
        <time>2021-11-16 11:17:32</time>
      </trkpt>
      <trkpt lat="40.74086" lon="-3.84026">
        <ele>897</ele>
        <time>2021-11-16 11:17:33</time>
      </trkpt>
      <trkpt lat="40.74083" lon="-3.84035">
        <ele>897.2</ele>
        <time>2021-11-16 11:17:34</time>
      </trkpt>
      <trkpt lat="40.74079" lon="-3.84044">
        <ele>897.2</ele>
        <time>2021-11-16 11:17:35</time>
      </trkpt>
      <trkpt lat="40.74075" lon="-3.84052">
        <ele>897.2</ele>
        <time>2021-11-16 11:17:36</time>
      </trkpt>
      <trkpt lat="40.74072" lon="-3.84061">
        <ele>897.2</ele>
        <time>2021-11-16 11:17:37</time>
      </trkpt>
      <trkpt lat="40.74068" lon="-3.8407">
        <ele>897.4</ele>
        <time>2021-11-16 11:17:38</time>
      </trkpt>
      <trkpt lat="40.74064" lon="-3.84078">
        <ele>897.4</ele>
        <time>2021-11-16 11:17:39</time>
      </trkpt>
      <trkpt lat="40.74061" lon="-3.84087">
        <ele>897.6</ele>
        <time>2021-11-16 11:17:40</time>
      </trkpt>
      <trkpt lat="40.74057" lon="-3.84096">
        <ele>897.4</ele>
        <time>2021-11-16 11:17:41</time>
      </trkpt>
      <trkpt lat="40.74054" lon="-3.84105">
        <ele>897.4</ele>
        <time>2021-11-16 11:17:42</time>
      </trkpt>
      <trkpt lat="40.7405" lon="-3.84113">
        <ele>897.4</ele>
        <time>2021-11-16 11:17:43</time>
      </trkpt>
      <trkpt lat="40.74046" lon="-3.84122">
        <ele>897.4</ele>
        <time>2021-11-16 11:17:44</time>
      </trkpt>
      <trkpt lat="40.74043" lon="-3.84131">
        <ele>897.4</ele>
        <time>2021-11-16 11:17:45</time>
      </trkpt>
      <trkpt lat="40.74039" lon="-3.84139">
        <ele>897.4</ele>
        <time>2021-11-16 11:17:46</time>
      </trkpt>
      <trkpt lat="40.74036" lon="-3.84148">
        <ele>897.6</ele>
        <time>2021-11-16 11:17:47</time>
      </trkpt>
      <trkpt lat="40.74032" lon="-3.84157">
        <ele>897.4</ele>
        <time>2021-11-16 11:17:48</time>
      </trkpt>
      <trkpt lat="40.74028" lon="-3.84165">
        <ele>897.4</ele>
        <time>2021-11-16 11:17:49</time>
      </trkpt>
      <trkpt lat="40.74025" lon="-3.84174">
        <ele>897.4</ele>
        <time>2021-11-16 11:17:50</time>
      </trkpt>
      <trkpt lat="40.74021" lon="-3.84183">
        <ele>897.2</ele>
        <time>2021-11-16 11:17:51</time>
      </trkpt>
      <trkpt lat="40.74017" lon="-3.84192">
        <ele>897.4</ele>
        <time>2021-11-16 11:17:52</time>
      </trkpt>
      <trkpt lat="40.74013" lon="-3.842">
        <ele>897.2</ele>
        <time>2021-11-16 11:17:53</time>
      </trkpt>
      <trkpt lat="40.74009" lon="-3.84209">
        <ele>897.2</ele>
        <time>2021-11-16 11:17:54</time>
      </trkpt>
      <trkpt lat="40.74005" lon="-3.84217">
        <ele>897.2</ele>
        <time>2021-11-16 11:17:55</time>
      </trkpt>
      <trkpt lat="40.74001" lon="-3.84226">
        <ele>897.2</ele>
        <time>2021-11-16 11:17:56</time>
      </trkpt>
      <trkpt lat="40.73997" lon="-3.84234">
        <ele>897.2</ele>
        <time>2021-11-16 11:17:57</time>
      </trkpt>
      <trkpt lat="40.73993" lon="-3.84242">
        <ele>897.2</ele>
        <time>2021-11-16 11:17:58</time>
      </trkpt>
      <trkpt lat="40.73988" lon="-3.8425">
        <ele>897</ele>
        <time>2021-11-16 11:17:59</time>
      </trkpt>
      <trkpt lat="40.73983" lon="-3.84258">
        <ele>897</ele>
        <time>2021-11-16 11:18:00</time>
      </trkpt>
      <trkpt lat="40.73978" lon="-3.84265">
        <ele>897.2</ele>
        <time>2021-11-16 11:18:01</time>
      </trkpt>
      <trkpt lat="40.73973" lon="-3.84272">
        <ele>897.2</ele>
        <time>2021-11-16 11:18:02</time>
      </trkpt>
      <trkpt lat="40.73968" lon="-3.84279">
        <ele>897.2</ele>
        <time>2021-11-16 11:18:03</time>
      </trkpt>
      <trkpt lat="40.73963" lon="-3.84286">
        <ele>897.4</ele>
        <time>2021-11-16 11:18:04</time>
      </trkpt>
      <trkpt lat="40.73957" lon="-3.84292">
        <ele>897.2</ele>
        <time>2021-11-16 11:18:05</time>
      </trkpt>
      <trkpt lat="40.73952" lon="-3.84299">
        <ele>897.2</ele>
        <time>2021-11-16 11:18:06</time>
      </trkpt>
      <trkpt lat="40.73946" lon="-3.84305">
        <ele>897.2</ele>
        <time>2021-11-16 11:18:07</time>
      </trkpt>
      <trkpt lat="40.7394" lon="-3.84311">
        <ele>897.4</ele>
        <time>2021-11-16 11:18:08</time>
      </trkpt>
      <trkpt lat="40.73934" lon="-3.84317">
        <ele>897.4</ele>
        <time>2021-11-16 11:18:09</time>
      </trkpt>
      <trkpt lat="40.73928" lon="-3.84322">
        <ele>897.4</ele>
        <time>2021-11-16 11:18:10</time>
      </trkpt>
      <trkpt lat="40.73922" lon="-3.84328">
        <ele>897.4</ele>
        <time>2021-11-16 11:18:11</time>
      </trkpt>
      <trkpt lat="40.73915" lon="-3.84333">
        <ele>897.4</ele>
        <time>2021-11-16 11:18:12</time>
      </trkpt>
      <trkpt lat="40.73909" lon="-3.84338">
        <ele>897.4</ele>
        <time>2021-11-16 11:18:13</time>
      </trkpt>
      <trkpt lat="40.73902" lon="-3.84343">
        <ele>897.4</ele>
        <time>2021-11-16 11:18:14</time>
      </trkpt>
      <trkpt lat="40.73895" lon="-3.84348">
        <ele>897.4</ele>
        <time>2021-11-16 11:18:15</time>
      </trkpt>
      <trkpt lat="40.73889" lon="-3.84354">
        <ele>897.4</ele>
        <time>2021-11-16 11:18:16</time>
      </trkpt>
      <trkpt lat="40.73882" lon="-3.84358">
        <ele>897.6</ele>
        <time>2021-11-16 11:18:17</time>
      </trkpt>
      <trkpt lat="40.73875" lon="-3.84364">
        <ele>897.6</ele>
        <time>2021-11-16 11:18:18</time>
      </trkpt>
      <trkpt lat="40.73869" lon="-3.84368">
        <ele>897.6</ele>
        <time>2021-11-16 11:18:19</time>
      </trkpt>
      <trkpt lat="40.73862" lon="-3.84373">
        <ele>897.6</ele>
        <time>2021-11-16 11:18:20</time>
      </trkpt>
      <trkpt lat="40.73855" lon="-3.84378">
        <ele>897.4</ele>
        <time>2021-11-16 11:18:21</time>
      </trkpt>
      <trkpt lat="40.73848" lon="-3.84383">
        <ele>897.6</ele>
        <time>2021-11-16 11:18:22</time>
      </trkpt>
      <trkpt lat="40.73842" lon="-3.84388">
        <ele>897.6</ele>
        <time>2021-11-16 11:18:23</time>
      </trkpt>
      <trkpt lat="40.73835" lon="-3.84393">
        <ele>897.6</ele>
        <time>2021-11-16 11:18:24</time>
      </trkpt>
      <trkpt lat="40.73829" lon="-3.84398">
        <ele>897.8</ele>
        <time>2021-11-16 11:18:25</time>
      </trkpt>
      <trkpt lat="40.73822" lon="-3.84403">
        <ele>897.6</ele>
        <time>2021-11-16 11:18:26</time>
      </trkpt>
      <trkpt lat="40.73816" lon="-3.84408">
        <ele>897.6</ele>
        <time>2021-11-16 11:18:27</time>
      </trkpt>
      <trkpt lat="40.73809" lon="-3.84413">
        <ele>897.6</ele>
        <time>2021-11-16 11:18:28</time>
      </trkpt>
      <trkpt lat="40.73803" lon="-3.84419">
        <ele>897.6</ele>
        <time>2021-11-16 11:18:29</time>
      </trkpt>
      <trkpt lat="40.73796" lon="-3.84424">
        <ele>897.6</ele>
        <time>2021-11-16 11:18:30</time>
      </trkpt>
      <trkpt lat="40.7379" lon="-3.8443">
        <ele>897.6</ele>
        <time>2021-11-16 11:18:31</time>
      </trkpt>
      <trkpt lat="40.73784" lon="-3.84435">
        <ele>897.6</ele>
        <time>2021-11-16 11:18:32</time>
      </trkpt>
      <trkpt lat="40.73777" lon="-3.84441">
        <ele>897.4</ele>
        <time>2021-11-16 11:18:33</time>
      </trkpt>
      <trkpt lat="40.73771" lon="-3.84447">
        <ele>897.4</ele>
        <time>2021-11-16 11:18:34</time>
      </trkpt>
      <trkpt lat="40.73765" lon="-3.84454">
        <ele>897.4</ele>
        <time>2021-11-16 11:18:35</time>
      </trkpt>
      <trkpt lat="40.73759" lon="-3.8446">
        <ele>897</ele>
        <time>2021-11-16 11:18:36</time>
      </trkpt>
      <trkpt lat="40.73754" lon="-3.84467">
        <ele>897</ele>
        <time>2021-11-16 11:18:37</time>
      </trkpt>
      <trkpt lat="40.73748" lon="-3.84474">
        <ele>897</ele>
        <time>2021-11-16 11:18:38</time>
      </trkpt>
      <trkpt lat="40.73743" lon="-3.84481">
        <ele>897</ele>
        <time>2021-11-16 11:18:39</time>
      </trkpt>
      <trkpt lat="40.73738" lon="-3.84489">
        <ele>897</ele>
        <time>2021-11-16 11:18:40</time>
      </trkpt>
      <trkpt lat="40.73733" lon="-3.84496">
        <ele>897</ele>
        <time>2021-11-16 11:18:41</time>
      </trkpt>
      <trkpt lat="40.73728" lon="-3.84504">
        <ele>897</ele>
        <time>2021-11-16 11:18:42</time>
      </trkpt>
      <trkpt lat="40.73723" lon="-3.84511">
        <ele>897.2</ele>
        <time>2021-11-16 11:18:43</time>
      </trkpt>
      <trkpt lat="40.73718" lon="-3.84519">
        <ele>897.4</ele>
        <time>2021-11-16 11:18:44</time>
      </trkpt>
      <trkpt lat="40.73714" lon="-3.84526">
        <ele>897.4</ele>
        <time>2021-11-16 11:18:45</time>
      </trkpt>
      <trkpt lat="40.73709" lon="-3.84534">
        <ele>897.4</ele>
        <time>2021-11-16 11:18:46</time>
      </trkpt>
      <trkpt lat="40.73705" lon="-3.84542">
        <ele>897.4</ele>
        <time>2021-11-16 11:18:47</time>
      </trkpt>
      <trkpt lat="40.737" lon="-3.8455">
        <ele>897.4</ele>
        <time>2021-11-16 11:18:48</time>
      </trkpt>
      <trkpt lat="40.73696" lon="-3.84558">
        <ele>897.4</ele>
        <time>2021-11-16 11:18:49</time>
      </trkpt>
      <trkpt lat="40.73692" lon="-3.84566">
        <ele>897.4</ele>
        <time>2021-11-16 11:18:50</time>
      </trkpt>
      <trkpt lat="40.73687" lon="-3.84575">
        <ele>897.4</ele>
        <time>2021-11-16 11:18:51</time>
      </trkpt>
      <trkpt lat="40.73683" lon="-3.84583">
        <ele>897.4</ele>
        <time>2021-11-16 11:18:52</time>
      </trkpt>
      <trkpt lat="40.73678" lon="-3.84591">
        <ele>897.4</ele>
        <time>2021-11-16 11:18:53</time>
      </trkpt>
      <trkpt lat="40.73674" lon="-3.84599">
        <ele>897.4</ele>
        <time>2021-11-16 11:18:54</time>
      </trkpt>
      <trkpt lat="40.7367" lon="-3.84607">
        <ele>897.6</ele>
        <time>2021-11-16 11:18:55</time>
      </trkpt>
      <trkpt lat="40.73666" lon="-3.84615">
        <ele>897.6</ele>
        <time>2021-11-16 11:18:56</time>
      </trkpt>
      <trkpt lat="40.73661" lon="-3.84623">
        <ele>897.8</ele>
        <time>2021-11-16 11:18:57</time>
      </trkpt>
      <trkpt lat="40.73657" lon="-3.84631">
        <ele>897.6</ele>
        <time>2021-11-16 11:18:58</time>
      </trkpt>
      <trkpt lat="40.73653" lon="-3.84639">
        <ele>897.8</ele>
        <time>2021-11-16 11:18:59</time>
      </trkpt>
      <trkpt lat="40.73648" lon="-3.84648">
        <ele>897.8</ele>
        <time>2021-11-16 11:19:00</time>
      </trkpt>
      <trkpt lat="40.73644" lon="-3.84656">
        <ele>897.8</ele>
        <time>2021-11-16 11:19:01</time>
      </trkpt>
      <trkpt lat="40.73639" lon="-3.84664">
        <ele>897.8</ele>
        <time>2021-11-16 11:19:02</time>
      </trkpt>
      <trkpt lat="40.73635" lon="-3.84672">
        <ele>897.8</ele>
        <time>2021-11-16 11:19:03</time>
      </trkpt>
      <trkpt lat="40.73631" lon="-3.8468">
        <ele>897.8</ele>
        <time>2021-11-16 11:19:04</time>
      </trkpt>
      <trkpt lat="40.73626" lon="-3.84688">
        <ele>897.8</ele>
        <time>2021-11-16 11:19:05</time>
      </trkpt>
      <trkpt lat="40.73622" lon="-3.84696">
        <ele>897.8</ele>
        <time>2021-11-16 11:19:06</time>
      </trkpt>
      <trkpt lat="40.73618" lon="-3.84704">
        <ele>897.8</ele>
        <time>2021-11-16 11:19:07</time>
      </trkpt>
      <trkpt lat="40.73614" lon="-3.84712">
        <ele>897.8</ele>
        <time>2021-11-16 11:19:08</time>
      </trkpt>
      <trkpt lat="40.73609" lon="-3.8472">
        <ele>897.8</ele>
        <time>2021-11-16 11:19:09</time>
      </trkpt>
      <trkpt lat="40.73605" lon="-3.84728">
        <ele>897.6</ele>
        <time>2021-11-16 11:19:10</time>
      </trkpt>
      <trkpt lat="40.73601" lon="-3.84736">
        <ele>897.4</ele>
        <time>2021-11-16 11:19:11</time>
      </trkpt>
      <trkpt lat="40.73596" lon="-3.84744">
        <ele>897.6</ele>
        <time>2021-11-16 11:19:12</time>
      </trkpt>
      <trkpt lat="40.73592" lon="-3.84752">
        <ele>897.6</ele>
        <time>2021-11-16 11:19:13</time>
      </trkpt>
      <trkpt lat="40.73588" lon="-3.8476">
        <ele>897.6</ele>
        <time>2021-11-16 11:19:14</time>
      </trkpt>
      <trkpt lat="40.73583" lon="-3.84767">
        <ele>897.8</ele>
        <time>2021-11-16 11:19:15</time>
      </trkpt>
      <trkpt lat="40.73579" lon="-3.84775">
        <ele>897.8</ele>
        <time>2021-11-16 11:19:16</time>
      </trkpt>
      <trkpt lat="40.73575" lon="-3.84783">
        <ele>897.6</ele>
        <time>2021-11-16 11:19:17</time>
      </trkpt>
      <trkpt lat="40.7357" lon="-3.84791">
        <ele>897.4</ele>
        <time>2021-11-16 11:19:18</time>
      </trkpt>
      <trkpt lat="40.73566" lon="-3.84799">
        <ele>897.8</ele>
        <time>2021-11-16 11:19:19</time>
      </trkpt>
      <trkpt lat="40.73562" lon="-3.84806">
        <ele>897.8</ele>
        <time>2021-11-16 11:19:20</time>
      </trkpt>
      <trkpt lat="40.73557" lon="-3.84813">
        <ele>897.8</ele>
        <time>2021-11-16 11:19:21</time>
      </trkpt>
      <trkpt lat="40.73552" lon="-3.8482">
        <ele>897.8</ele>
        <time>2021-11-16 11:19:22</time>
      </trkpt>
      <trkpt lat="40.73546" lon="-3.84827">
        <ele>897.6</ele>
        <time>2021-11-16 11:19:23</time>
      </trkpt>
      <trkpt lat="40.73541" lon="-3.84834">
        <ele>897.6</ele>
        <time>2021-11-16 11:19:24</time>
      </trkpt>
      <trkpt lat="40.73535" lon="-3.8484">
        <ele>897.6</ele>
        <time>2021-11-16 11:19:25</time>
      </trkpt>
      <trkpt lat="40.73529" lon="-3.84846">
        <ele>897.6</ele>
        <time>2021-11-16 11:19:26</time>
      </trkpt>
      <trkpt lat="40.73523" lon="-3.84852">
        <ele>897.6</ele>
        <time>2021-11-16 11:19:27</time>
      </trkpt>
      <trkpt lat="40.73517" lon="-3.84858">
        <ele>897.4</ele>
        <time>2021-11-16 11:19:28</time>
      </trkpt>
      <trkpt lat="40.73511" lon="-3.84863">
        <ele>897.4</ele>
        <time>2021-11-16 11:19:29</time>
      </trkpt>
      <trkpt lat="40.73504" lon="-3.84868">
        <ele>897.4</ele>
        <time>2021-11-16 11:19:30</time>
      </trkpt>
      <trkpt lat="40.73498" lon="-3.84873">
        <ele>897.4</ele>
        <time>2021-11-16 11:19:31</time>
      </trkpt>
      <trkpt lat="40.73492" lon="-3.84878">
        <ele>897.4</ele>
        <time>2021-11-16 11:19:32</time>
      </trkpt>
      <trkpt lat="40.73486" lon="-3.84882">
        <ele>897.6</ele>
        <time>2021-11-16 11:19:33</time>
      </trkpt>
      <trkpt lat="40.7348" lon="-3.84886">
        <ele>897.6</ele>
        <time>2021-11-16 11:19:34</time>
      </trkpt>
      <trkpt lat="40.73473" lon="-3.84889">
        <ele>897.6</ele>
        <time>2021-11-16 11:19:35</time>
      </trkpt>
      <trkpt lat="40.73467" lon="-3.84893">
        <ele>897.6</ele>
        <time>2021-11-16 11:19:36</time>
      </trkpt>
      <trkpt lat="40.73462" lon="-3.84898">
        <ele>897.6</ele>
        <time>2021-11-16 11:19:37</time>
      </trkpt>
      <trkpt lat="40.73457" lon="-3.84903">
        <ele>897.6</ele>
        <time>2021-11-16 11:19:38</time>
      </trkpt>
      <trkpt lat="40.73453" lon="-3.84909">
        <ele>897.6</ele>
        <time>2021-11-16 11:19:39</time>
      </trkpt>
      <trkpt lat="40.73448" lon="-3.84914">
        <ele>897.6</ele>
        <time>2021-11-16 11:19:40</time>
      </trkpt>
      <trkpt lat="40.73443" lon="-3.84918">
        <ele>897.6</ele>
        <time>2021-11-16 11:19:41</time>
      </trkpt>
      <trkpt lat="40.73436" lon="-3.8492">
        <ele>897.6</ele>
        <time>2021-11-16 11:19:42</time>
      </trkpt>
      <trkpt lat="40.73429" lon="-3.84921">
        <ele>897.6</ele>
        <time>2021-11-16 11:19:43</time>
      </trkpt>
      <trkpt lat="40.73422" lon="-3.84923">
        <ele>897.6</ele>
        <time>2021-11-16 11:19:44</time>
      </trkpt>
      <trkpt lat="40.73416" lon="-3.84927">
        <ele>897.6</ele>
        <time>2021-11-16 11:19:45</time>
      </trkpt>
      <trkpt lat="40.7341" lon="-3.84932">
        <ele>897.8</ele>
        <time>2021-11-16 11:19:46</time>
      </trkpt>
      <trkpt lat="40.73405" lon="-3.84938">
        <ele>898</ele>
        <time>2021-11-16 11:19:47</time>
      </trkpt>
      <trkpt lat="40.734" lon="-3.84943">
        <ele>898.4</ele>
        <time>2021-11-16 11:19:48</time>
      </trkpt>
      <trkpt lat="40.73394" lon="-3.84949">
        <ele>898.4</ele>
        <time>2021-11-16 11:19:49</time>
      </trkpt>
      <trkpt lat="40.73389" lon="-3.84954">
        <ele>898.4</ele>
        <time>2021-11-16 11:19:50</time>
      </trkpt>
      <trkpt lat="40.73383" lon="-3.84958">
        <ele>898.4</ele>
        <time>2021-11-16 11:19:51</time>
      </trkpt>
      <trkpt lat="40.73378" lon="-3.84963">
        <ele>898.6</ele>
        <time>2021-11-16 11:19:52</time>
      </trkpt>
      <trkpt lat="40.73372" lon="-3.84968">
        <ele>898.4</ele>
        <time>2021-11-16 11:19:53</time>
      </trkpt>
      <trkpt lat="40.73366" lon="-3.84972">
        <ele>898.4</ele>
        <time>2021-11-16 11:19:54</time>
      </trkpt>
      <trkpt lat="40.7336" lon="-3.84976">
        <ele>898.4</ele>
        <time>2021-11-16 11:19:55</time>
      </trkpt>
      <trkpt lat="40.73354" lon="-3.8498">
        <ele>898.2</ele>
        <time>2021-11-16 11:19:56</time>
      </trkpt>
      <trkpt lat="40.73348" lon="-3.84985">
        <ele>898</ele>
        <time>2021-11-16 11:19:57</time>
      </trkpt>
      <trkpt lat="40.73342" lon="-3.84989">
        <ele>897.8</ele>
        <time>2021-11-16 11:19:58</time>
      </trkpt>
      <trkpt lat="40.73336" lon="-3.84992">
        <ele>897.8</ele>
        <time>2021-11-16 11:19:59</time>
      </trkpt>
      <trkpt lat="40.7333" lon="-3.84996">
        <ele>897.8</ele>
        <time>2021-11-16 11:20:00</time>
      </trkpt>
      <trkpt lat="40.73323" lon="-3.85">
        <ele>897.8</ele>
        <time>2021-11-16 11:20:01</time>
      </trkpt>
      <trkpt lat="40.73317" lon="-3.85005">
        <ele>898</ele>
        <time>2021-11-16 11:20:02</time>
      </trkpt>
      <trkpt lat="40.73311" lon="-3.85009">
        <ele>897.8</ele>
        <time>2021-11-16 11:20:03</time>
      </trkpt>
      <trkpt lat="40.73305" lon="-3.85014">
        <ele>897.8</ele>
        <time>2021-11-16 11:20:04</time>
      </trkpt>
      <trkpt lat="40.73299" lon="-3.85019">
        <ele>897.8</ele>
        <time>2021-11-16 11:20:05</time>
      </trkpt>
      <trkpt lat="40.73293" lon="-3.85024">
        <ele>897.8</ele>
        <time>2021-11-16 11:20:06</time>
      </trkpt>
      <trkpt lat="40.73288" lon="-3.8503">
        <ele>897.6</ele>
        <time>2021-11-16 11:20:07</time>
      </trkpt>
      <trkpt lat="40.73282" lon="-3.85036">
        <ele>897.6</ele>
        <time>2021-11-16 11:20:08</time>
      </trkpt>
      <trkpt lat="40.73277" lon="-3.85042">
        <ele>897.6</ele>
        <time>2021-11-16 11:20:09</time>
      </trkpt>
      <trkpt lat="40.73271" lon="-3.85048">
        <ele>897.6</ele>
        <time>2021-11-16 11:20:10</time>
      </trkpt>
      <trkpt lat="40.73266" lon="-3.85055">
        <ele>897.6</ele>
        <time>2021-11-16 11:20:11</time>
      </trkpt>
      <trkpt lat="40.73261" lon="-3.85061">
        <ele>897.6</ele>
        <time>2021-11-16 11:20:12</time>
      </trkpt>
      <trkpt lat="40.73257" lon="-3.85068">
        <ele>897.6</ele>
        <time>2021-11-16 11:20:13</time>
      </trkpt>
      <trkpt lat="40.73252" lon="-3.85074">
        <ele>897.6</ele>
        <time>2021-11-16 11:20:14</time>
      </trkpt>
      <trkpt lat="40.73247" lon="-3.85081">
        <ele>897.6</ele>
        <time>2021-11-16 11:20:15</time>
      </trkpt>
      <trkpt lat="40.73242" lon="-3.85087">
        <ele>897.6</ele>
        <time>2021-11-16 11:20:16</time>
      </trkpt>
      <trkpt lat="40.73237" lon="-3.85094">
        <ele>897.6</ele>
        <time>2021-11-16 11:20:17</time>
      </trkpt>
      <trkpt lat="40.73232" lon="-3.85101">
        <ele>897.6</ele>
        <time>2021-11-16 11:20:18</time>
      </trkpt>
      <trkpt lat="40.73227" lon="-3.85107">
        <ele>897.6</ele>
        <time>2021-11-16 11:20:19</time>
      </trkpt>
      <trkpt lat="40.73222" lon="-3.85114">
        <ele>897.6</ele>
        <time>2021-11-16 11:20:20</time>
      </trkpt>
      <trkpt lat="40.73217" lon="-3.85121">
        <ele>897.6</ele>
        <time>2021-11-16 11:20:21</time>
      </trkpt>
      <trkpt lat="40.73213" lon="-3.85128">
        <ele>897.6</ele>
        <time>2021-11-16 11:20:22</time>
      </trkpt>
      <trkpt lat="40.73208" lon="-3.85134">
        <ele>897.8</ele>
        <time>2021-11-16 11:20:23</time>
      </trkpt>
      <trkpt lat="40.73203" lon="-3.85141">
        <ele>897.8</ele>
        <time>2021-11-16 11:20:24</time>
      </trkpt>
      <trkpt lat="40.73198" lon="-3.85148">
        <ele>897.8</ele>
        <time>2021-11-16 11:20:25</time>
      </trkpt>
      <trkpt lat="40.73193" lon="-3.85155">
        <ele>898</ele>
        <time>2021-11-16 11:20:26</time>
      </trkpt>
      <trkpt lat="40.73188" lon="-3.85162">
        <ele>897.8</ele>
        <time>2021-11-16 11:20:27</time>
      </trkpt>
      <trkpt lat="40.73183" lon="-3.85169">
        <ele>897.8</ele>
        <time>2021-11-16 11:20:28</time>
      </trkpt>
      <trkpt lat="40.73178" lon="-3.85175">
        <ele>897.8</ele>
        <time>2021-11-16 11:20:29</time>
      </trkpt>
      <trkpt lat="40.73173" lon="-3.85182">
        <ele>898</ele>
        <time>2021-11-16 11:20:30</time>
      </trkpt>
      <trkpt lat="40.73168" lon="-3.85189">
        <ele>897.8</ele>
        <time>2021-11-16 11:20:31</time>
      </trkpt>
      <trkpt lat="40.73163" lon="-3.85196">
        <ele>897.8</ele>
        <time>2021-11-16 11:20:32</time>
      </trkpt>
      <trkpt lat="40.73158" lon="-3.85202">
        <ele>897.8</ele>
        <time>2021-11-16 11:20:33</time>
      </trkpt>
      <trkpt lat="40.73153" lon="-3.85209">
        <ele>897.6</ele>
        <time>2021-11-16 11:20:34</time>
      </trkpt>
      <trkpt lat="40.73149" lon="-3.85216">
        <ele>897.6</ele>
        <time>2021-11-16 11:20:35</time>
      </trkpt>
      <trkpt lat="40.73144" lon="-3.85223">
        <ele>897.6</ele>
        <time>2021-11-16 11:20:36</time>
      </trkpt>
      <trkpt lat="40.73139" lon="-3.85229">
        <ele>897.6</ele>
        <time>2021-11-16 11:20:37</time>
      </trkpt>
      <trkpt lat="40.73134" lon="-3.85236">
        <ele>897.4</ele>
        <time>2021-11-16 11:20:38</time>
      </trkpt>
      <trkpt lat="40.73129" lon="-3.85243">
        <ele>897.4</ele>
        <time>2021-11-16 11:20:39</time>
      </trkpt>
      <trkpt lat="40.73124" lon="-3.8525">
        <ele>897.4</ele>
        <time>2021-11-16 11:20:40</time>
      </trkpt>
      <trkpt lat="40.73119" lon="-3.85256">
        <ele>897.4</ele>
        <time>2021-11-16 11:20:41</time>
      </trkpt>
      <trkpt lat="40.73114" lon="-3.85263">
        <ele>897.4</ele>
        <time>2021-11-16 11:20:42</time>
      </trkpt>
      <trkpt lat="40.73109" lon="-3.8527">
        <ele>897.4</ele>
        <time>2021-11-16 11:20:43</time>
      </trkpt>
      <trkpt lat="40.73105" lon="-3.85276">
        <ele>897.4</ele>
        <time>2021-11-16 11:20:44</time>
      </trkpt>
      <trkpt lat="40.731" lon="-3.85283">
        <ele>897.2</ele>
        <time>2021-11-16 11:20:45</time>
      </trkpt>
      <trkpt lat="40.73095" lon="-3.85289">
        <ele>897.2</ele>
        <time>2021-11-16 11:20:46</time>
      </trkpt>
      <trkpt lat="40.7309" lon="-3.85296">
        <ele>897.2</ele>
        <time>2021-11-16 11:20:47</time>
      </trkpt>
      <trkpt lat="40.73085" lon="-3.85302">
        <ele>897</ele>
        <time>2021-11-16 11:20:48</time>
      </trkpt>
      <trkpt lat="40.7308" lon="-3.85309">
        <ele>897</ele>
        <time>2021-11-16 11:20:49</time>
      </trkpt>
      <trkpt lat="40.73076" lon="-3.85316">
        <ele>897</ele>
        <time>2021-11-16 11:20:50</time>
      </trkpt>
      <trkpt lat="40.73071" lon="-3.85322">
        <ele>897</ele>
        <time>2021-11-16 11:20:51</time>
      </trkpt>
      <trkpt lat="40.73066" lon="-3.85329">
        <ele>897.2</ele>
        <time>2021-11-16 11:20:52</time>
      </trkpt>
      <trkpt lat="40.73061" lon="-3.85335">
        <ele>897</ele>
        <time>2021-11-16 11:20:53</time>
      </trkpt>
      <trkpt lat="40.73056" lon="-3.85342">
        <ele>897.2</ele>
        <time>2021-11-16 11:20:54</time>
      </trkpt>
      <trkpt lat="40.73051" lon="-3.85348">
        <ele>897.2</ele>
        <time>2021-11-16 11:20:55</time>
      </trkpt>
      <trkpt lat="40.73046" lon="-3.85355">
        <ele>897.2</ele>
        <time>2021-11-16 11:20:56</time>
      </trkpt>
      <trkpt lat="40.73042" lon="-3.85362">
        <ele>897</ele>
        <time>2021-11-16 11:20:57</time>
      </trkpt>
      <trkpt lat="40.73037" lon="-3.85369">
        <ele>897</ele>
        <time>2021-11-16 11:20:58</time>
      </trkpt>
      <trkpt lat="40.73032" lon="-3.85375">
        <ele>897</ele>
        <time>2021-11-16 11:20:59</time>
      </trkpt>
      <trkpt lat="40.73027" lon="-3.85382">
        <ele>897.2</ele>
        <time>2021-11-16 11:21:00</time>
      </trkpt>
      <trkpt lat="40.73022" lon="-3.85389">
        <ele>897.2</ele>
        <time>2021-11-16 11:21:01</time>
      </trkpt>
      <trkpt lat="40.73017" lon="-3.85396">
        <ele>897.2</ele>
        <time>2021-11-16 11:21:02</time>
      </trkpt>
      <trkpt lat="40.73012" lon="-3.85403">
        <ele>897.2</ele>
        <time>2021-11-16 11:21:03</time>
      </trkpt>
      <trkpt lat="40.73007" lon="-3.8541">
        <ele>897.4</ele>
        <time>2021-11-16 11:21:04</time>
      </trkpt>
      <trkpt lat="40.73002" lon="-3.85417">
        <ele>897.4</ele>
        <time>2021-11-16 11:21:05</time>
      </trkpt>
      <trkpt lat="40.72997" lon="-3.85424">
        <ele>897.4</ele>
        <time>2021-11-16 11:21:06</time>
      </trkpt>
      <trkpt lat="40.72992" lon="-3.8543">
        <ele>897.4</ele>
        <time>2021-11-16 11:21:07</time>
      </trkpt>
      <trkpt lat="40.72987" lon="-3.85437">
        <ele>897.6</ele>
        <time>2021-11-16 11:21:08</time>
      </trkpt>
      <trkpt lat="40.72982" lon="-3.85444">
        <ele>898</ele>
        <time>2021-11-16 11:21:09</time>
      </trkpt>
      <trkpt lat="40.72977" lon="-3.85451">
        <ele>898.2</ele>
        <time>2021-11-16 11:21:10</time>
      </trkpt>
      <trkpt lat="40.72972" lon="-3.85458">
        <ele>898.2</ele>
        <time>2021-11-16 11:21:11</time>
      </trkpt>
      <trkpt lat="40.72968" lon="-3.85465">
        <ele>898.2</ele>
        <time>2021-11-16 11:21:12</time>
      </trkpt>
      <trkpt lat="40.72963" lon="-3.85472">
        <ele>898.2</ele>
        <time>2021-11-16 11:21:13</time>
      </trkpt>
      <trkpt lat="40.72958" lon="-3.85479">
        <ele>898.2</ele>
        <time>2021-11-16 11:21:14</time>
      </trkpt>
      <trkpt lat="40.72953" lon="-3.85486">
        <ele>898.2</ele>
        <time>2021-11-16 11:21:15</time>
      </trkpt>
      <trkpt lat="40.72948" lon="-3.85493">
        <ele>898.2</ele>
        <time>2021-11-16 11:21:16</time>
      </trkpt>
      <trkpt lat="40.72943" lon="-3.855">
        <ele>898.2</ele>
        <time>2021-11-16 11:21:17</time>
      </trkpt>
      <trkpt lat="40.72938" lon="-3.85508">
        <ele>898</ele>
        <time>2021-11-16 11:21:18</time>
      </trkpt>
      <trkpt lat="40.72934" lon="-3.85515">
        <ele>897.8</ele>
        <time>2021-11-16 11:21:19</time>
      </trkpt>
      <trkpt lat="40.72929" lon="-3.85523">
        <ele>897.8</ele>
        <time>2021-11-16 11:21:20</time>
      </trkpt>
      <trkpt lat="40.72925" lon="-3.8553">
        <ele>898</ele>
        <time>2021-11-16 11:21:21</time>
      </trkpt>
      <trkpt lat="40.72921" lon="-3.85538">
        <ele>897.8</ele>
        <time>2021-11-16 11:21:22</time>
      </trkpt>
      <trkpt lat="40.72917" lon="-3.85547">
        <ele>897.8</ele>
        <time>2021-11-16 11:21:23</time>
      </trkpt>
      <trkpt lat="40.72914" lon="-3.85555">
        <ele>897.8</ele>
        <time>2021-11-16 11:21:24</time>
      </trkpt>
      <trkpt lat="40.7291" lon="-3.85563">
        <ele>897.8</ele>
        <time>2021-11-16 11:21:25</time>
      </trkpt>
      <trkpt lat="40.72907" lon="-3.85572">
        <ele>897.8</ele>
        <time>2021-11-16 11:21:26</time>
      </trkpt>
      <trkpt lat="40.72904" lon="-3.85581">
        <ele>897.8</ele>
        <time>2021-11-16 11:21:27</time>
      </trkpt>
      <trkpt lat="40.72901" lon="-3.85589">
        <ele>897.8</ele>
        <time>2021-11-16 11:21:28</time>
      </trkpt>
      <trkpt lat="40.72899" lon="-3.85598">
        <ele>897.8</ele>
        <time>2021-11-16 11:21:29</time>
      </trkpt>
      <trkpt lat="40.72896" lon="-3.85607">
        <ele>897.8</ele>
        <time>2021-11-16 11:21:30</time>
      </trkpt>
      <trkpt lat="40.72893" lon="-3.85616">
        <ele>898</ele>
        <time>2021-11-16 11:21:31</time>
      </trkpt>
      <trkpt lat="40.72891" lon="-3.85625">
        <ele>898</ele>
        <time>2021-11-16 11:21:32</time>
      </trkpt>
      <trkpt lat="40.72889" lon="-3.85634">
        <ele>898</ele>
        <time>2021-11-16 11:21:33</time>
      </trkpt>
      <trkpt lat="40.72887" lon="-3.85644">
        <ele>898</ele>
        <time>2021-11-16 11:21:34</time>
      </trkpt>
      <trkpt lat="40.72885" lon="-3.85653">
        <ele>898</ele>
        <time>2021-11-16 11:21:35</time>
      </trkpt>
      <trkpt lat="40.72883" lon="-3.85662">
        <ele>898</ele>
        <time>2021-11-16 11:21:36</time>
      </trkpt>
      <trkpt lat="40.72881" lon="-3.85671">
        <ele>898</ele>
        <time>2021-11-16 11:21:37</time>
      </trkpt>
      <trkpt lat="40.72879" lon="-3.8568">
        <ele>898</ele>
        <time>2021-11-16 11:21:38</time>
      </trkpt>
      <trkpt lat="40.72877" lon="-3.85689">
        <ele>898</ele>
        <time>2021-11-16 11:21:39</time>
      </trkpt>
      <trkpt lat="40.72875" lon="-3.85698">
        <ele>898.2</ele>
        <time>2021-11-16 11:21:40</time>
      </trkpt>
      <trkpt lat="40.72873" lon="-3.85707">
        <ele>898.2</ele>
        <time>2021-11-16 11:21:41</time>
      </trkpt>
      <trkpt lat="40.72871" lon="-3.85716">
        <ele>898.4</ele>
        <time>2021-11-16 11:21:42</time>
      </trkpt>
      <trkpt lat="40.72869" lon="-3.85725">
        <ele>898.4</ele>
        <time>2021-11-16 11:21:43</time>
      </trkpt>
      <trkpt lat="40.72867" lon="-3.85734">
        <ele>898.4</ele>
        <time>2021-11-16 11:21:44</time>
      </trkpt>
      <trkpt lat="40.72865" lon="-3.85743">
        <ele>898.6</ele>
        <time>2021-11-16 11:21:45</time>
      </trkpt>
      <trkpt lat="40.72863" lon="-3.85752">
        <ele>898.6</ele>
        <time>2021-11-16 11:21:46</time>
      </trkpt>
      <trkpt lat="40.72861" lon="-3.8576">
        <ele>898.8</ele>
        <time>2021-11-16 11:21:47</time>
      </trkpt>
      <trkpt lat="40.72859" lon="-3.85769">
        <ele>898.8</ele>
        <time>2021-11-16 11:21:48</time>
      </trkpt>
      <trkpt lat="40.72857" lon="-3.85778">
        <ele>898.6</ele>
        <time>2021-11-16 11:21:49</time>
      </trkpt>
      <trkpt lat="40.72855" lon="-3.85787">
        <ele>898.8</ele>
        <time>2021-11-16 11:21:50</time>
      </trkpt>
      <trkpt lat="40.72854" lon="-3.85796">
        <ele>898.8</ele>
        <time>2021-11-16 11:21:51</time>
      </trkpt>
      <trkpt lat="40.72852" lon="-3.85804">
        <ele>899.2</ele>
        <time>2021-11-16 11:21:52</time>
      </trkpt>
      <trkpt lat="40.72849" lon="-3.85813">
        <ele>899.4</ele>
        <time>2021-11-16 11:21:53</time>
      </trkpt>
      <trkpt lat="40.72847" lon="-3.85821">
        <ele>899.2</ele>
        <time>2021-11-16 11:21:54</time>
      </trkpt>
      <trkpt lat="40.72845" lon="-3.8583">
        <ele>899.4</ele>
        <time>2021-11-16 11:21:55</time>
      </trkpt>
      <trkpt lat="40.72843" lon="-3.85838">
        <ele>899.6</ele>
        <time>2021-11-16 11:21:56</time>
      </trkpt>
      <trkpt lat="40.72841" lon="-3.85847">
        <ele>899.6</ele>
        <time>2021-11-16 11:21:57</time>
      </trkpt>
      <trkpt lat="40.72838" lon="-3.85855">
        <ele>899.8</ele>
        <time>2021-11-16 11:21:58</time>
      </trkpt>
      <trkpt lat="40.72835" lon="-3.85863">
        <ele>899.8</ele>
        <time>2021-11-16 11:21:59</time>
      </trkpt>
      <trkpt lat="40.72832" lon="-3.8587">
        <ele>899.8</ele>
        <time>2021-11-16 11:22:00</time>
      </trkpt>
      <trkpt lat="40.72829" lon="-3.85878">
        <ele>900</ele>
        <time>2021-11-16 11:22:01</time>
      </trkpt>
      <trkpt lat="40.72826" lon="-3.85885">
        <ele>900</ele>
        <time>2021-11-16 11:22:02</time>
      </trkpt>
      <trkpt lat="40.72822" lon="-3.85892">
        <ele>900</ele>
        <time>2021-11-16 11:22:03</time>
      </trkpt>
      <trkpt lat="40.72818" lon="-3.85899">
        <ele>900</ele>
        <time>2021-11-16 11:22:04</time>
      </trkpt>
      <trkpt lat="40.72814" lon="-3.85906">
        <ele>900.2</ele>
        <time>2021-11-16 11:22:05</time>
      </trkpt>
      <trkpt lat="40.7281" lon="-3.85913">
        <ele>900.2</ele>
        <time>2021-11-16 11:22:06</time>
      </trkpt>
      <trkpt lat="40.72805" lon="-3.8592">
        <ele>900.4</ele>
        <time>2021-11-16 11:22:07</time>
      </trkpt>
      <trkpt lat="40.72801" lon="-3.85927">
        <ele>900.4</ele>
        <time>2021-11-16 11:22:08</time>
      </trkpt>
      <trkpt lat="40.72797" lon="-3.85934">
        <ele>900.4</ele>
        <time>2021-11-16 11:22:09</time>
      </trkpt>
      <trkpt lat="40.72792" lon="-3.85941">
        <ele>900.4</ele>
        <time>2021-11-16 11:22:10</time>
      </trkpt>
      <trkpt lat="40.72788" lon="-3.85948">
        <ele>900.4</ele>
        <time>2021-11-16 11:22:11</time>
      </trkpt>
      <trkpt lat="40.72783" lon="-3.85954">
        <ele>900.6</ele>
        <time>2021-11-16 11:22:12</time>
      </trkpt>
      <trkpt lat="40.72779" lon="-3.85961">
        <ele>900.6</ele>
        <time>2021-11-16 11:22:13</time>
      </trkpt>
      <trkpt lat="40.72774" lon="-3.85967">
        <ele>900.6</ele>
        <time>2021-11-16 11:22:14</time>
      </trkpt>
      <trkpt lat="40.7277" lon="-3.85974">
        <ele>900.8</ele>
        <time>2021-11-16 11:22:15</time>
      </trkpt>
      <trkpt lat="40.72765" lon="-3.85981">
        <ele>900.8</ele>
        <time>2021-11-16 11:22:16</time>
      </trkpt>
      <trkpt lat="40.72761" lon="-3.85987">
        <ele>900.8</ele>
        <time>2021-11-16 11:22:17</time>
      </trkpt>
      <trkpt lat="40.72757" lon="-3.85994">
        <ele>900.8</ele>
        <time>2021-11-16 11:22:18</time>
      </trkpt>
      <trkpt lat="40.72752" lon="-3.86">
        <ele>901</ele>
        <time>2021-11-16 11:22:19</time>
      </trkpt>
      <trkpt lat="40.72748" lon="-3.86007">
        <ele>901</ele>
        <time>2021-11-16 11:22:20</time>
      </trkpt>
      <trkpt lat="40.72744" lon="-3.86013">
        <ele>901</ele>
        <time>2021-11-16 11:22:21</time>
      </trkpt>
      <trkpt lat="40.72739" lon="-3.8602">
        <ele>901.2</ele>
        <time>2021-11-16 11:22:22</time>
      </trkpt>
      <trkpt lat="40.72735" lon="-3.86026">
        <ele>901.2</ele>
        <time>2021-11-16 11:22:23</time>
      </trkpt>
      <trkpt lat="40.72731" lon="-3.86032">
        <ele>901.6</ele>
        <time>2021-11-16 11:22:24</time>
      </trkpt>
      <trkpt lat="40.72727" lon="-3.86038">
        <ele>901.6</ele>
        <time>2021-11-16 11:22:25</time>
      </trkpt>
      <trkpt lat="40.72723" lon="-3.86044">
        <ele>901.6</ele>
        <time>2021-11-16 11:22:26</time>
      </trkpt>
      <trkpt lat="40.72719" lon="-3.86049">
        <ele>901.6</ele>
        <time>2021-11-16 11:22:27</time>
      </trkpt>
      <trkpt lat="40.72714" lon="-3.86055">
        <ele>901.6</ele>
        <time>2021-11-16 11:22:28</time>
      </trkpt>
      <trkpt lat="40.72709" lon="-3.8606">
        <ele>901.8</ele>
        <time>2021-11-16 11:22:29</time>
      </trkpt>
      <trkpt lat="40.72704" lon="-3.86065">
        <ele>902</ele>
        <time>2021-11-16 11:22:30</time>
      </trkpt>
      <trkpt lat="40.72699" lon="-3.86069">
        <ele>902</ele>
        <time>2021-11-16 11:22:31</time>
      </trkpt>
      <trkpt lat="40.72694" lon="-3.86074">
        <ele>902</ele>
        <time>2021-11-16 11:22:32</time>
      </trkpt>
      <trkpt lat="40.7269" lon="-3.86078">
        <ele>902.6</ele>
        <time>2021-11-16 11:22:33</time>
      </trkpt>
      <trkpt lat="40.72685" lon="-3.86082">
        <ele>902.6</ele>
        <time>2021-11-16 11:22:34</time>
      </trkpt>
      <trkpt lat="40.7268" lon="-3.86086">
        <ele>902.8</ele>
        <time>2021-11-16 11:22:35</time>
      </trkpt>
      <trkpt lat="40.72675" lon="-3.8609">
        <ele>903</ele>
        <time>2021-11-16 11:22:36</time>
      </trkpt>
      <trkpt lat="40.7267" lon="-3.86093">
        <ele>903</ele>
        <time>2021-11-16 11:22:37</time>
      </trkpt>
      <trkpt lat="40.72664" lon="-3.86097">
        <ele>903</ele>
        <time>2021-11-16 11:22:38</time>
      </trkpt>
      <trkpt lat="40.72659" lon="-3.861">
        <ele>903.2</ele>
        <time>2021-11-16 11:22:39</time>
      </trkpt>
      <trkpt lat="40.72653" lon="-3.86103">
        <ele>903.2</ele>
        <time>2021-11-16 11:22:40</time>
      </trkpt>
      <trkpt lat="40.72647" lon="-3.86107">
        <ele>903.2</ele>
        <time>2021-11-16 11:22:41</time>
      </trkpt>
      <trkpt lat="40.72642" lon="-3.86111">
        <ele>903</ele>
        <time>2021-11-16 11:22:42</time>
      </trkpt>
      <trkpt lat="40.72636" lon="-3.86115">
        <ele>903.2</ele>
        <time>2021-11-16 11:22:43</time>
      </trkpt>
      <trkpt lat="40.7263" lon="-3.86121">
        <ele>903</ele>
        <time>2021-11-16 11:22:44</time>
      </trkpt>
      <trkpt lat="40.72625" lon="-3.86126">
        <ele>903.2</ele>
        <time>2021-11-16 11:22:45</time>
      </trkpt>
      <trkpt lat="40.72619" lon="-3.86132">
        <ele>903</ele>
        <time>2021-11-16 11:22:46</time>
      </trkpt>
      <trkpt lat="40.72614" lon="-3.86138">
        <ele>903</ele>
        <time>2021-11-16 11:22:47</time>
      </trkpt>
      <trkpt lat="40.72608" lon="-3.86144">
        <ele>903</ele>
        <time>2021-11-16 11:22:48</time>
      </trkpt>
      <trkpt lat="40.72602" lon="-3.8615">
        <ele>903.2</ele>
        <time>2021-11-16 11:22:49</time>
      </trkpt>
      <trkpt lat="40.72597" lon="-3.86157">
        <ele>903.2</ele>
        <time>2021-11-16 11:22:50</time>
      </trkpt>
      <trkpt lat="40.72591" lon="-3.86165">
        <ele>903.2</ele>
        <time>2021-11-16 11:22:51</time>
      </trkpt>
      <trkpt lat="40.72585" lon="-3.86173">
        <ele>903</ele>
        <time>2021-11-16 11:22:52</time>
      </trkpt>
      <trkpt lat="40.7258" lon="-3.86181">
        <ele>902.6</ele>
        <time>2021-11-16 11:22:53</time>
      </trkpt>
      <trkpt lat="40.72575" lon="-3.86189">
        <ele>902.2</ele>
        <time>2021-11-16 11:22:54</time>
      </trkpt>
      <trkpt lat="40.7257" lon="-3.86198">
        <ele>901.8</ele>
        <time>2021-11-16 11:22:55</time>
      </trkpt>
      <trkpt lat="40.72565" lon="-3.86208">
        <ele>901.8</ele>
        <time>2021-11-16 11:22:56</time>
      </trkpt>
      <trkpt lat="40.7256" lon="-3.86217">
        <ele>901.6</ele>
        <time>2021-11-16 11:22:57</time>
      </trkpt>
      <trkpt lat="40.72555" lon="-3.86227">
        <ele>901.2</ele>
        <time>2021-11-16 11:22:58</time>
      </trkpt>
      <trkpt lat="40.7255" lon="-3.86237">
        <ele>901</ele>
        <time>2021-11-16 11:22:59</time>
      </trkpt>
      <trkpt lat="40.72546" lon="-3.86247">
        <ele>900.6</ele>
        <time>2021-11-16 11:23:00</time>
      </trkpt>
      <trkpt lat="40.72542" lon="-3.86258">
        <ele>900.2</ele>
        <time>2021-11-16 11:23:01</time>
      </trkpt>
      <trkpt lat="40.72539" lon="-3.86269">
        <ele>899.6</ele>
        <time>2021-11-16 11:23:02</time>
      </trkpt>
      <trkpt lat="40.72535" lon="-3.8628">
        <ele>899.2</ele>
        <time>2021-11-16 11:23:03</time>
      </trkpt>
      <trkpt lat="40.72532" lon="-3.8629">
        <ele>898.6</ele>
        <time>2021-11-16 11:23:04</time>
      </trkpt>
      <trkpt lat="40.72529" lon="-3.86301">
        <ele>898.4</ele>
        <time>2021-11-16 11:23:05</time>
      </trkpt>
      <trkpt lat="40.72527" lon="-3.86312">
        <ele>898</ele>
        <time>2021-11-16 11:23:06</time>
      </trkpt>
      <trkpt lat="40.72524" lon="-3.86323">
        <ele>897.2</ele>
        <time>2021-11-16 11:23:07</time>
      </trkpt>
      <trkpt lat="40.72523" lon="-3.86334">
        <ele>897</ele>
        <time>2021-11-16 11:23:08</time>
      </trkpt>
      <trkpt lat="40.72521" lon="-3.86344">
        <ele>896.8</ele>
        <time>2021-11-16 11:23:09</time>
      </trkpt>
      <trkpt lat="40.7252" lon="-3.86355">
        <ele>897</ele>
        <time>2021-11-16 11:23:10</time>
      </trkpt>
      <trkpt lat="40.72519" lon="-3.86365">
        <ele>896.8</ele>
        <time>2021-11-16 11:23:11</time>
      </trkpt>
      <trkpt lat="40.72518" lon="-3.86375">
        <ele>896.8</ele>
        <time>2021-11-16 11:23:12</time>
      </trkpt>
      <trkpt lat="40.72517" lon="-3.86385">
        <ele>896.8</ele>
        <time>2021-11-16 11:23:13</time>
      </trkpt>
      <trkpt lat="40.72517" lon="-3.86396">
        <ele>896.8</ele>
        <time>2021-11-16 11:23:14</time>
      </trkpt>
      <trkpt lat="40.72517" lon="-3.86406">
        <ele>896.8</ele>
        <time>2021-11-16 11:23:15</time>
      </trkpt>
      <trkpt lat="40.72516" lon="-3.86416">
        <ele>896.6</ele>
        <time>2021-11-16 11:23:16</time>
      </trkpt>
      <trkpt lat="40.72516" lon="-3.86426">
        <ele>896.6</ele>
        <time>2021-11-16 11:23:17</time>
      </trkpt>
      <trkpt lat="40.72516" lon="-3.86436">
        <ele>896.8</ele>
        <time>2021-11-16 11:23:18</time>
      </trkpt>
      <trkpt lat="40.72516" lon="-3.86446">
        <ele>896.8</ele>
        <time>2021-11-16 11:23:19</time>
      </trkpt>
      <trkpt lat="40.72516" lon="-3.86456">
        <ele>897</ele>
        <time>2021-11-16 11:23:20</time>
      </trkpt>
      <trkpt lat="40.72516" lon="-3.86465">
        <ele>897</ele>
        <time>2021-11-16 11:23:21</time>
      </trkpt>
      <trkpt lat="40.72516" lon="-3.86475">
        <ele>897.2</ele>
        <time>2021-11-16 11:23:22</time>
      </trkpt>
      <trkpt lat="40.72516" lon="-3.86485">
        <ele>897.2</ele>
        <time>2021-11-16 11:23:23</time>
      </trkpt>
      <trkpt lat="40.72516" lon="-3.86495">
        <ele>897.6</ele>
        <time>2021-11-16 11:23:24</time>
      </trkpt>
      <trkpt lat="40.72516" lon="-3.86505">
        <ele>897.8</ele>
        <time>2021-11-16 11:23:25</time>
      </trkpt>
      <trkpt lat="40.72516" lon="-3.86515">
        <ele>898</ele>
        <time>2021-11-16 11:23:26</time>
      </trkpt>
      <trkpt lat="40.72516" lon="-3.86524">
        <ele>898.2</ele>
        <time>2021-11-16 11:23:27</time>
      </trkpt>
      <trkpt lat="40.72516" lon="-3.86534">
        <ele>898.4</ele>
        <time>2021-11-16 11:23:28</time>
      </trkpt>
      <trkpt lat="40.72516" lon="-3.86543">
        <ele>898.4</ele>
        <time>2021-11-16 11:23:29</time>
      </trkpt>
      <trkpt lat="40.72516" lon="-3.86552">
        <ele>898.4</ele>
        <time>2021-11-16 11:23:30</time>
      </trkpt>
      <trkpt lat="40.72516" lon="-3.86561">
        <ele>898.6</ele>
        <time>2021-11-16 11:23:31</time>
      </trkpt>
      <trkpt lat="40.72516" lon="-3.8657">
        <ele>898.8</ele>
        <time>2021-11-16 11:23:32</time>
      </trkpt>
      <trkpt lat="40.72516" lon="-3.8658">
        <ele>898.8</ele>
        <time>2021-11-16 11:23:33</time>
      </trkpt>
      <trkpt lat="40.72516" lon="-3.86589">
        <ele>898.8</ele>
        <time>2021-11-16 11:23:34</time>
      </trkpt>
      <trkpt lat="40.72516" lon="-3.86598">
        <ele>899</ele>
        <time>2021-11-16 11:23:35</time>
      </trkpt>
      <trkpt lat="40.72516" lon="-3.86606">
        <ele>899.2</ele>
        <time>2021-11-16 11:23:36</time>
      </trkpt>
      <trkpt lat="40.72516" lon="-3.86615">
        <ele>899.2</ele>
        <time>2021-11-16 11:23:37</time>
      </trkpt>
      <trkpt lat="40.72515" lon="-3.86623">
        <ele>899.2</ele>
        <time>2021-11-16 11:23:38</time>
      </trkpt>
      <trkpt lat="40.72515" lon="-3.86632">
        <ele>899.2</ele>
        <time>2021-11-16 11:23:39</time>
      </trkpt>
      <trkpt lat="40.72515" lon="-3.8664">
        <ele>899.4</ele>
        <time>2021-11-16 11:23:40</time>
      </trkpt>
      <trkpt lat="40.72515" lon="-3.86649">
        <ele>899.2</ele>
        <time>2021-11-16 11:23:41</time>
      </trkpt>
      <trkpt lat="40.72515" lon="-3.86658">
        <ele>899.2</ele>
        <time>2021-11-16 11:23:42</time>
      </trkpt>
      <trkpt lat="40.72515" lon="-3.86666">
        <ele>899.4</ele>
        <time>2021-11-16 11:23:43</time>
      </trkpt>
      <trkpt lat="40.72515" lon="-3.86675">
        <ele>899.4</ele>
        <time>2021-11-16 11:23:44</time>
      </trkpt>
      <trkpt lat="40.72515" lon="-3.86683">
        <ele>899.6</ele>
        <time>2021-11-16 11:23:45</time>
      </trkpt>
      <trkpt lat="40.72515" lon="-3.86691">
        <ele>899.8</ele>
        <time>2021-11-16 11:23:46</time>
      </trkpt>
      <trkpt lat="40.72515" lon="-3.86699">
        <ele>900</ele>
        <time>2021-11-16 11:23:47</time>
      </trkpt>
      <trkpt lat="40.72515" lon="-3.86707">
        <ele>900.2</ele>
        <time>2021-11-16 11:23:48</time>
      </trkpt>
      <trkpt lat="40.72515" lon="-3.86715">
        <ele>900.2</ele>
        <time>2021-11-16 11:23:49</time>
      </trkpt>
      <trkpt lat="40.72515" lon="-3.86723">
        <ele>900.2</ele>
        <time>2021-11-16 11:23:50</time>
      </trkpt>
      <trkpt lat="40.72515" lon="-3.86731">
        <ele>900.2</ele>
        <time>2021-11-16 11:23:51</time>
      </trkpt>
      <trkpt lat="40.72515" lon="-3.86738">
        <ele>900.4</ele>
        <time>2021-11-16 11:23:52</time>
      </trkpt>
      <trkpt lat="40.72515" lon="-3.86745">
        <ele>900.4</ele>
        <time>2021-11-16 11:23:53</time>
      </trkpt>
      <trkpt lat="40.72516" lon="-3.86753">
        <ele>900.4</ele>
        <time>2021-11-16 11:23:54</time>
      </trkpt>
      <trkpt lat="40.72516" lon="-3.8676">
        <ele>901</ele>
        <time>2021-11-16 11:23:55</time>
      </trkpt>
      <trkpt lat="40.72517" lon="-3.86766">
        <ele>901.2</ele>
        <time>2021-11-16 11:23:56</time>
      </trkpt>
      <trkpt lat="40.72518" lon="-3.86773">
        <ele>901.4</ele>
        <time>2021-11-16 11:23:57</time>
      </trkpt>
      <trkpt lat="40.72519" lon="-3.86779">
        <ele>901.8</ele>
        <time>2021-11-16 11:23:58</time>
      </trkpt>
      <trkpt lat="40.7252" lon="-3.86785">
        <ele>902.2</ele>
        <time>2021-11-16 11:23:59</time>
      </trkpt>
      <trkpt lat="40.72521" lon="-3.8679">
        <ele>902.4</ele>
        <time>2021-11-16 11:24:00</time>
      </trkpt>
      <trkpt lat="40.72523" lon="-3.86794">
        <ele>902.6</ele>
        <time>2021-11-16 11:24:01</time>
      </trkpt>
      <trkpt lat="40.72526" lon="-3.86798">
        <ele>903.2</ele>
        <time>2021-11-16 11:24:02</time>
      </trkpt>
      <trkpt lat="40.72528" lon="-3.86802">
        <ele>903.4</ele>
        <time>2021-11-16 11:24:03</time>
      </trkpt>
      <trkpt lat="40.72531" lon="-3.86807">
        <ele>903.8</ele>
        <time>2021-11-16 11:24:04</time>
      </trkpt>
      <trkpt lat="40.72533" lon="-3.86811">
        <ele>904.2</ele>
        <time>2021-11-16 11:24:05</time>
      </trkpt>
      <trkpt lat="40.72534" lon="-3.86817">
        <ele>904.6</ele>
        <time>2021-11-16 11:24:06</time>
      </trkpt>
      <trkpt lat="40.72535" lon="-3.86822">
        <ele>905.4</ele>
        <time>2021-11-16 11:24:07</time>
      </trkpt>
      <trkpt lat="40.72535" lon="-3.86828">
        <ele>906</ele>
        <time>2021-11-16 11:24:08</time>
      </trkpt>
      <trkpt lat="40.72535" lon="-3.86834">
        <ele>906.4</ele>
        <time>2021-11-16 11:24:09</time>
      </trkpt>
      <trkpt lat="40.72534" lon="-3.8684">
        <ele>906.6</ele>
        <time>2021-11-16 11:24:10</time>
      </trkpt>
      <trkpt lat="40.72532" lon="-3.86845">
        <ele>906.6</ele>
        <time>2021-11-16 11:24:11</time>
      </trkpt>
      <trkpt lat="40.72529" lon="-3.8685">
        <ele>906.8</ele>
        <time>2021-11-16 11:24:12</time>
      </trkpt>
      <trkpt lat="40.72526" lon="-3.86854">
        <ele>907.2</ele>
        <time>2021-11-16 11:24:13</time>
      </trkpt>
      <trkpt lat="40.72522" lon="-3.86859">
        <ele>907.4</ele>
        <time>2021-11-16 11:24:14</time>
      </trkpt>
      <trkpt lat="40.7252" lon="-3.86864">
        <ele>907.6</ele>
        <time>2021-11-16 11:24:15</time>
      </trkpt>
      <trkpt lat="40.72518" lon="-3.8687">
        <ele>907.8</ele>
        <time>2021-11-16 11:24:16</time>
      </trkpt>
      <trkpt lat="40.72517" lon="-3.86876">
        <ele>907.8</ele>
        <time>2021-11-16 11:24:17</time>
      </trkpt>
      <trkpt lat="40.72516" lon="-3.86882">
        <ele>908</ele>
        <time>2021-11-16 11:24:18</time>
      </trkpt>
      <trkpt lat="40.72515" lon="-3.86888">
        <ele>908</ele>
        <time>2021-11-16 11:24:19</time>
      </trkpt>
      <trkpt lat="40.72514" lon="-3.86894">
        <ele>908</ele>
        <time>2021-11-16 11:24:20</time>
      </trkpt>
      <trkpt lat="40.72513" lon="-3.869">
        <ele>908.2</ele>
        <time>2021-11-16 11:24:21</time>
      </trkpt>
      <trkpt lat="40.72513" lon="-3.86906">
        <ele>908.8</ele>
        <time>2021-11-16 11:24:22</time>
      </trkpt>
      <trkpt lat="40.72512" lon="-3.86912">
        <ele>909</ele>
        <time>2021-11-16 11:24:23</time>
      </trkpt>
      <trkpt lat="40.72511" lon="-3.86918">
        <ele>909.2</ele>
        <time>2021-11-16 11:24:24</time>
      </trkpt>
      <trkpt lat="40.7251" lon="-3.86924">
        <ele>909.4</ele>
        <time>2021-11-16 11:24:25</time>
      </trkpt>
      <trkpt lat="40.72509" lon="-3.8693">
        <ele>909.6</ele>
        <time>2021-11-16 11:24:26</time>
      </trkpt>
      <trkpt lat="40.72508" lon="-3.86936">
        <ele>909.6</ele>
        <time>2021-11-16 11:24:27</time>
      </trkpt>
      <trkpt lat="40.72507" lon="-3.86941">
        <ele>909.8</ele>
        <time>2021-11-16 11:24:28</time>
      </trkpt>
      <trkpt lat="40.72505" lon="-3.86947">
        <ele>909.8</ele>
        <time>2021-11-16 11:24:29</time>
      </trkpt>
      <trkpt lat="40.72504" lon="-3.86952">
        <ele>910.2</ele>
        <time>2021-11-16 11:24:30</time>
      </trkpt>
      <trkpt lat="40.72502" lon="-3.86958">
        <ele>910.2</ele>
        <time>2021-11-16 11:24:31</time>
      </trkpt>
      <trkpt lat="40.725" lon="-3.86963">
        <ele>910.4</ele>
        <time>2021-11-16 11:24:32</time>
      </trkpt>
      <trkpt lat="40.72498" lon="-3.86969">
        <ele>910.6</ele>
        <time>2021-11-16 11:24:33</time>
      </trkpt>
      <trkpt lat="40.72496" lon="-3.86974">
        <ele>910.8</ele>
        <time>2021-11-16 11:24:34</time>
      </trkpt>
      <trkpt lat="40.72494" lon="-3.8698">
        <ele>911.2</ele>
        <time>2021-11-16 11:24:35</time>
      </trkpt>
      <trkpt lat="40.72492" lon="-3.86986">
        <ele>911.4</ele>
        <time>2021-11-16 11:24:36</time>
      </trkpt>
      <trkpt lat="40.7249" lon="-3.86992">
        <ele>911.8</ele>
        <time>2021-11-16 11:24:37</time>
      </trkpt>
      <trkpt lat="40.72488" lon="-3.86998">
        <ele>912.2</ele>
        <time>2021-11-16 11:24:38</time>
      </trkpt>
      <trkpt lat="40.72487" lon="-3.87004">
        <ele>912.2</ele>
        <time>2021-11-16 11:24:39</time>
      </trkpt>
      <trkpt lat="40.72485" lon="-3.8701">
        <ele>912.4</ele>
        <time>2021-11-16 11:24:40</time>
      </trkpt>
      <trkpt lat="40.72483" lon="-3.87017">
        <ele>912.4</ele>
        <time>2021-11-16 11:24:41</time>
      </trkpt>
      <trkpt lat="40.72481" lon="-3.87023">
        <ele>912.6</ele>
        <time>2021-11-16 11:24:42</time>
      </trkpt>
      <trkpt lat="40.72478" lon="-3.8703">
        <ele>912.6</ele>
        <time>2021-11-16 11:24:43</time>
      </trkpt>
      <trkpt lat="40.72476" lon="-3.87036">
        <ele>912.8</ele>
        <time>2021-11-16 11:24:44</time>
      </trkpt>
      <trkpt lat="40.72473" lon="-3.87043">
        <ele>912.8</ele>
        <time>2021-11-16 11:24:45</time>
      </trkpt>
      <trkpt lat="40.72471" lon="-3.8705">
        <ele>912.8</ele>
        <time>2021-11-16 11:24:46</time>
      </trkpt>
      <trkpt lat="40.72468" lon="-3.87056">
        <ele>912.8</ele>
        <time>2021-11-16 11:24:47</time>
      </trkpt>
      <trkpt lat="40.72466" lon="-3.87063">
        <ele>912.8</ele>
        <time>2021-11-16 11:24:48</time>
      </trkpt>
      <trkpt lat="40.72463" lon="-3.8707">
        <ele>912.8</ele>
        <time>2021-11-16 11:24:49</time>
      </trkpt>
      <trkpt lat="40.7246" lon="-3.87077">
        <ele>912.8</ele>
        <time>2021-11-16 11:24:50</time>
      </trkpt>
      <trkpt lat="40.72458" lon="-3.87084">
        <ele>913</ele>
        <time>2021-11-16 11:24:51</time>
      </trkpt>
      <trkpt lat="40.72455" lon="-3.87092">
        <ele>912.8</ele>
        <time>2021-11-16 11:24:52</time>
      </trkpt>
      <trkpt lat="40.72452" lon="-3.87099">
        <ele>913</ele>
        <time>2021-11-16 11:24:53</time>
      </trkpt>
      <trkpt lat="40.72449" lon="-3.87106">
        <ele>912.8</ele>
        <time>2021-11-16 11:24:54</time>
      </trkpt>
      <trkpt lat="40.72447" lon="-3.87114">
        <ele>913</ele>
        <time>2021-11-16 11:24:55</time>
      </trkpt>
      <trkpt lat="40.72444" lon="-3.87121">
        <ele>913</ele>
        <time>2021-11-16 11:24:56</time>
      </trkpt>
      <trkpt lat="40.72441" lon="-3.87129">
        <ele>913</ele>
        <time>2021-11-16 11:24:57</time>
      </trkpt>
      <trkpt lat="40.72438" lon="-3.87136">
        <ele>913</ele>
        <time>2021-11-16 11:24:58</time>
      </trkpt>
      <trkpt lat="40.72435" lon="-3.87144">
        <ele>913</ele>
        <time>2021-11-16 11:24:59</time>
      </trkpt>
      <trkpt lat="40.72432" lon="-3.87152">
        <ele>913</ele>
        <time>2021-11-16 11:25:00</time>
      </trkpt>
      <trkpt lat="40.72429" lon="-3.8716">
        <ele>913</ele>
        <time>2021-11-16 11:25:01</time>
      </trkpt>
      <trkpt lat="40.72426" lon="-3.87168">
        <ele>913</ele>
        <time>2021-11-16 11:25:02</time>
      </trkpt>
      <trkpt lat="40.72424" lon="-3.87176">
        <ele>912.8</ele>
        <time>2021-11-16 11:25:03</time>
      </trkpt>
      <trkpt lat="40.72421" lon="-3.87184">
        <ele>913</ele>
        <time>2021-11-16 11:25:04</time>
      </trkpt>
      <trkpt lat="40.72419" lon="-3.87193">
        <ele>912.8</ele>
        <time>2021-11-16 11:25:05</time>
      </trkpt>
      <trkpt lat="40.72417" lon="-3.87201">
        <ele>912.8</ele>
        <time>2021-11-16 11:25:06</time>
      </trkpt>
      <trkpt lat="40.72415" lon="-3.87209">
        <ele>912.8</ele>
        <time>2021-11-16 11:25:07</time>
      </trkpt>
      <trkpt lat="40.72413" lon="-3.87218">
        <ele>912.8</ele>
        <time>2021-11-16 11:25:08</time>
      </trkpt>
      <trkpt lat="40.72412" lon="-3.87226">
        <ele>912.8</ele>
        <time>2021-11-16 11:25:09</time>
      </trkpt>
      <trkpt lat="40.7241" lon="-3.87235">
        <ele>912.8</ele>
        <time>2021-11-16 11:25:10</time>
      </trkpt>
      <trkpt lat="40.72409" lon="-3.87244">
        <ele>912.6</ele>
        <time>2021-11-16 11:25:11</time>
      </trkpt>
      <trkpt lat="40.72408" lon="-3.87252">
        <ele>912.6</ele>
        <time>2021-11-16 11:25:12</time>
      </trkpt>
      <trkpt lat="40.72408" lon="-3.87261">
        <ele>912.6</ele>
        <time>2021-11-16 11:25:13</time>
      </trkpt>
      <trkpt lat="40.72407" lon="-3.8727">
        <ele>912.8</ele>
        <time>2021-11-16 11:25:14</time>
      </trkpt>
      <trkpt lat="40.72406" lon="-3.87279">
        <ele>912.6</ele>
        <time>2021-11-16 11:25:15</time>
      </trkpt>
      <trkpt lat="40.72406" lon="-3.87287">
        <ele>912.8</ele>
        <time>2021-11-16 11:25:16</time>
      </trkpt>
      <trkpt lat="40.72406" lon="-3.87296">
        <ele>912.6</ele>
        <time>2021-11-16 11:25:17</time>
      </trkpt>
      <trkpt lat="40.72405" lon="-3.87305">
        <ele>912.8</ele>
        <time>2021-11-16 11:25:18</time>
      </trkpt>
      <trkpt lat="40.72405" lon="-3.87314">
        <ele>912.8</ele>
        <time>2021-11-16 11:25:19</time>
      </trkpt>
      <trkpt lat="40.72405" lon="-3.87324">
        <ele>912.8</ele>
        <time>2021-11-16 11:25:20</time>
      </trkpt>
      <trkpt lat="40.72405" lon="-3.87333">
        <ele>912.6</ele>
        <time>2021-11-16 11:25:21</time>
      </trkpt>
      <trkpt lat="40.72406" lon="-3.87342">
        <ele>912.8</ele>
        <time>2021-11-16 11:25:22</time>
      </trkpt>
      <trkpt lat="40.72406" lon="-3.87352">
        <ele>912.6</ele>
        <time>2021-11-16 11:25:23</time>
      </trkpt>
      <trkpt lat="40.72406" lon="-3.87362">
        <ele>912.6</ele>
        <time>2021-11-16 11:25:24</time>
      </trkpt>
      <trkpt lat="40.72406" lon="-3.87372">
        <ele>912.6</ele>
        <time>2021-11-16 11:25:25</time>
      </trkpt>
      <trkpt lat="40.72406" lon="-3.87383">
        <ele>912.6</ele>
        <time>2021-11-16 11:25:26</time>
      </trkpt>
      <trkpt lat="40.72406" lon="-3.87393">
        <ele>912.6</ele>
        <time>2021-11-16 11:25:27</time>
      </trkpt>
      <trkpt lat="40.72407" lon="-3.87404">
        <ele>912.4</ele>
        <time>2021-11-16 11:25:28</time>
      </trkpt>
      <trkpt lat="40.72407" lon="-3.87414">
        <ele>912.4</ele>
        <time>2021-11-16 11:25:29</time>
      </trkpt>
      <trkpt lat="40.72407" lon="-3.87425">
        <ele>912.4</ele>
        <time>2021-11-16 11:25:30</time>
      </trkpt>
      <trkpt lat="40.72406" lon="-3.87436">
        <ele>912.4</ele>
        <time>2021-11-16 11:25:31</time>
      </trkpt>
      <trkpt lat="40.72406" lon="-3.87447">
        <ele>912.2</ele>
        <time>2021-11-16 11:25:32</time>
      </trkpt>
      <trkpt lat="40.72406" lon="-3.87459">
        <ele>912.2</ele>
        <time>2021-11-16 11:25:33</time>
      </trkpt>
      <trkpt lat="40.72406" lon="-3.8747">
        <ele>911.8</ele>
        <time>2021-11-16 11:25:34</time>
      </trkpt>
      <trkpt lat="40.72406" lon="-3.87481">
        <ele>911.2</ele>
        <time>2021-11-16 11:25:35</time>
      </trkpt>
      <trkpt lat="40.72407" lon="-3.87492">
        <ele>911</ele>
        <time>2021-11-16 11:25:36</time>
      </trkpt>
      <trkpt lat="40.72407" lon="-3.87504">
        <ele>910.2</ele>
        <time>2021-11-16 11:25:37</time>
      </trkpt>
      <trkpt lat="40.72407" lon="-3.87515">
        <ele>910</ele>
        <time>2021-11-16 11:25:38</time>
      </trkpt>
      <trkpt lat="40.72407" lon="-3.87527">
        <ele>909.4</ele>
        <time>2021-11-16 11:25:39</time>
      </trkpt>
      <trkpt lat="40.72407" lon="-3.87539">
        <ele>909</ele>
        <time>2021-11-16 11:25:40</time>
      </trkpt>
      <trkpt lat="40.72407" lon="-3.87552">
        <ele>909</ele>
        <time>2021-11-16 11:25:41</time>
      </trkpt>
      <trkpt lat="40.72407" lon="-3.87564">
        <ele>908.8</ele>
        <time>2021-11-16 11:25:42</time>
      </trkpt>
      <trkpt lat="40.72406" lon="-3.87577">
        <ele>908.4</ele>
        <time>2021-11-16 11:25:43</time>
      </trkpt>
      <trkpt lat="40.72406" lon="-3.87589">
        <ele>908.2</ele>
        <time>2021-11-16 11:25:44</time>
      </trkpt>
      <trkpt lat="40.72405" lon="-3.87602">
        <ele>907.6</ele>
        <time>2021-11-16 11:25:45</time>
      </trkpt>
      <trkpt lat="40.72404" lon="-3.87615">
        <ele>907.6</ele>
        <time>2021-11-16 11:25:46</time>
      </trkpt>
      <trkpt lat="40.72403" lon="-3.87627">
        <ele>907.4</ele>
        <time>2021-11-16 11:25:47</time>
      </trkpt>
      <trkpt lat="40.72401" lon="-3.8764">
        <ele>907.2</ele>
        <time>2021-11-16 11:25:48</time>
      </trkpt>
      <trkpt lat="40.72399" lon="-3.87653">
        <ele>907.2</ele>
        <time>2021-11-16 11:25:49</time>
      </trkpt>
      <trkpt lat="40.72397" lon="-3.87665">
        <ele>906.8</ele>
        <time>2021-11-16 11:25:50</time>
      </trkpt>
      <trkpt lat="40.72394" lon="-3.87677">
        <ele>906.4</ele>
        <time>2021-11-16 11:25:51</time>
      </trkpt>
      <trkpt lat="40.72391" lon="-3.87689">
        <ele>906</ele>
        <time>2021-11-16 11:25:52</time>
      </trkpt>
      <trkpt lat="40.72387" lon="-3.87701">
        <ele>906</ele>
        <time>2021-11-16 11:25:53</time>
      </trkpt>
      <trkpt lat="40.72383" lon="-3.87713">
        <ele>904.8</ele>
        <time>2021-11-16 11:25:54</time>
      </trkpt>
      <trkpt lat="40.72378" lon="-3.87725">
        <ele>904.4</ele>
        <time>2021-11-16 11:25:55</time>
      </trkpt>
      <trkpt lat="40.72373" lon="-3.87736">
        <ele>904</ele>
        <time>2021-11-16 11:25:56</time>
      </trkpt>
      <trkpt lat="40.72368" lon="-3.87747">
        <ele>903.6</ele>
        <time>2021-11-16 11:25:57</time>
      </trkpt>
      <trkpt lat="40.72362" lon="-3.87757">
        <ele>903.4</ele>
        <time>2021-11-16 11:25:58</time>
      </trkpt>
      <trkpt lat="40.72357" lon="-3.87767">
        <ele>903</ele>
        <time>2021-11-16 11:25:59</time>
      </trkpt>
      <trkpt lat="40.7235" lon="-3.87777">
        <ele>903</ele>
        <time>2021-11-16 11:26:00</time>
      </trkpt>
      <trkpt lat="40.72344" lon="-3.87786">
        <ele>903</ele>
        <time>2021-11-16 11:26:01</time>
      </trkpt>
      <trkpt lat="40.72338" lon="-3.87795">
        <ele>902.8</ele>
        <time>2021-11-16 11:26:02</time>
      </trkpt>
      <trkpt lat="40.72331" lon="-3.87803">
        <ele>902.6</ele>
        <time>2021-11-16 11:26:03</time>
      </trkpt>
      <trkpt lat="40.72324" lon="-3.8781">
        <ele>902.6</ele>
        <time>2021-11-16 11:26:04</time>
      </trkpt>
      <trkpt lat="40.72317" lon="-3.87817">
        <ele>902.2</ele>
        <time>2021-11-16 11:26:05</time>
      </trkpt>
      <trkpt lat="40.72311" lon="-3.87824">
        <ele>902.2</ele>
        <time>2021-11-16 11:26:06</time>
      </trkpt>
      <trkpt lat="40.72304" lon="-3.87831">
        <ele>902</ele>
        <time>2021-11-16 11:26:07</time>
      </trkpt>
      <trkpt lat="40.72297" lon="-3.87837">
        <ele>901.8</ele>
        <time>2021-11-16 11:26:08</time>
      </trkpt>
      <trkpt lat="40.7229" lon="-3.87843">
        <ele>901.6</ele>
        <time>2021-11-16 11:26:09</time>
      </trkpt>
      <trkpt lat="40.72283" lon="-3.87849">
        <ele>901.2</ele>
        <time>2021-11-16 11:26:10</time>
      </trkpt>
      <trkpt lat="40.72276" lon="-3.87855">
        <ele>901.2</ele>
        <time>2021-11-16 11:26:11</time>
      </trkpt>
      <trkpt lat="40.7227" lon="-3.87861">
        <ele>901.2</ele>
        <time>2021-11-16 11:26:12</time>
      </trkpt>
      <trkpt lat="40.72263" lon="-3.87866">
        <ele>901.2</ele>
        <time>2021-11-16 11:26:13</time>
      </trkpt>
      <trkpt lat="40.72256" lon="-3.87872">
        <ele>901</ele>
        <time>2021-11-16 11:26:14</time>
      </trkpt>
      <trkpt lat="40.72249" lon="-3.87877">
        <ele>901</ele>
        <time>2021-11-16 11:26:15</time>
      </trkpt>
      <trkpt lat="40.72243" lon="-3.87883">
        <ele>901.2</ele>
        <time>2021-11-16 11:26:16</time>
      </trkpt>
      <trkpt lat="40.72236" lon="-3.87888">
        <ele>901.4</ele>
        <time>2021-11-16 11:26:17</time>
      </trkpt>
      <trkpt lat="40.72229" lon="-3.87894">
        <ele>901.4</ele>
        <time>2021-11-16 11:26:18</time>
      </trkpt>
      <trkpt lat="40.72223" lon="-3.87899">
        <ele>901.4</ele>
        <time>2021-11-16 11:26:19</time>
      </trkpt>
      <trkpt lat="40.72216" lon="-3.87905">
        <ele>901.6</ele>
        <time>2021-11-16 11:26:20</time>
      </trkpt>
      <trkpt lat="40.72209" lon="-3.8791">
        <ele>901.6</ele>
        <time>2021-11-16 11:26:21</time>
      </trkpt>
      <trkpt lat="40.72203" lon="-3.87916">
        <ele>901.6</ele>
        <time>2021-11-16 11:26:22</time>
      </trkpt>
      <trkpt lat="40.72196" lon="-3.87921">
        <ele>901.8</ele>
        <time>2021-11-16 11:26:23</time>
      </trkpt>
      <trkpt lat="40.7219" lon="-3.87926">
        <ele>901.8</ele>
        <time>2021-11-16 11:26:24</time>
      </trkpt>
      <trkpt lat="40.72184" lon="-3.87932">
        <ele>901.8</ele>
        <time>2021-11-16 11:26:25</time>
      </trkpt>
      <trkpt lat="40.72177" lon="-3.87937">
        <ele>901.8</ele>
        <time>2021-11-16 11:26:26</time>
      </trkpt>
      <trkpt lat="40.72171" lon="-3.87942">
        <ele>901.8</ele>
        <time>2021-11-16 11:26:27</time>
      </trkpt>
      <trkpt lat="40.72165" lon="-3.87948">
        <ele>901.8</ele>
        <time>2021-11-16 11:26:28</time>
      </trkpt>
      <trkpt lat="40.72159" lon="-3.87953">
        <ele>901.8</ele>
        <time>2021-11-16 11:26:29</time>
      </trkpt>
      <trkpt lat="40.72153" lon="-3.87959">
        <ele>902</ele>
        <time>2021-11-16 11:26:30</time>
      </trkpt>
      <trkpt lat="40.72147" lon="-3.87964">
        <ele>902</ele>
        <time>2021-11-16 11:26:31</time>
      </trkpt>
      <trkpt lat="40.72141" lon="-3.8797">
        <ele>902.2</ele>
        <time>2021-11-16 11:26:32</time>
      </trkpt>
      <trkpt lat="40.72135" lon="-3.87975">
        <ele>902.6</ele>
        <time>2021-11-16 11:26:33</time>
      </trkpt>
      <trkpt lat="40.7213" lon="-3.87981">
        <ele>902.8</ele>
        <time>2021-11-16 11:26:34</time>
      </trkpt>
      <trkpt lat="40.72125" lon="-3.87987">
        <ele>903</ele>
        <time>2021-11-16 11:26:35</time>
      </trkpt>
      <trkpt lat="40.72119" lon="-3.87992">
        <ele>903.2</ele>
        <time>2021-11-16 11:26:36</time>
      </trkpt>
      <trkpt lat="40.72114" lon="-3.87999">
        <ele>903.4</ele>
        <time>2021-11-16 11:26:37</time>
      </trkpt>
      <trkpt lat="40.72109" lon="-3.88005">
        <ele>903.4</ele>
        <time>2021-11-16 11:26:38</time>
      </trkpt>
      <trkpt lat="40.72105" lon="-3.88011">
        <ele>903.4</ele>
        <time>2021-11-16 11:26:39</time>
      </trkpt>
      <trkpt lat="40.721" lon="-3.88018">
        <ele>903.6</ele>
        <time>2021-11-16 11:26:40</time>
      </trkpt>
      <trkpt lat="40.72096" lon="-3.88025">
        <ele>903.8</ele>
        <time>2021-11-16 11:26:41</time>
      </trkpt>
      <trkpt lat="40.72092" lon="-3.88031">
        <ele>904.2</ele>
        <time>2021-11-16 11:26:42</time>
      </trkpt>
      <trkpt lat="40.72088" lon="-3.88038">
        <ele>904.2</ele>
        <time>2021-11-16 11:26:43</time>
      </trkpt>
      <trkpt lat="40.72084" lon="-3.88045">
        <ele>904.2</ele>
        <time>2021-11-16 11:26:44</time>
      </trkpt>
      <trkpt lat="40.7208" lon="-3.88052">
        <ele>904.8</ele>
        <time>2021-11-16 11:26:45</time>
      </trkpt>
      <trkpt lat="40.72077" lon="-3.88059">
        <ele>905.2</ele>
        <time>2021-11-16 11:26:46</time>
      </trkpt>
      <trkpt lat="40.72073" lon="-3.88066">
        <ele>905.2</ele>
        <time>2021-11-16 11:26:47</time>
      </trkpt>
      <trkpt lat="40.72069" lon="-3.88073">
        <ele>905.2</ele>
        <time>2021-11-16 11:26:48</time>
      </trkpt>
      <trkpt lat="40.72066" lon="-3.8808">
        <ele>905.6</ele>
        <time>2021-11-16 11:26:49</time>
      </trkpt>
      <trkpt lat="40.72062" lon="-3.88087">
        <ele>905.6</ele>
        <time>2021-11-16 11:26:50</time>
      </trkpt>
      <trkpt lat="40.72058" lon="-3.88095">
        <ele>905.8</ele>
        <time>2021-11-16 11:26:51</time>
      </trkpt>
      <trkpt lat="40.72055" lon="-3.88102">
        <ele>906</ele>
        <time>2021-11-16 11:26:52</time>
      </trkpt>
      <trkpt lat="40.72051" lon="-3.8811">
        <ele>906.2</ele>
        <time>2021-11-16 11:26:53</time>
      </trkpt>
      <trkpt lat="40.72047" lon="-3.88117">
        <ele>906.4</ele>
        <time>2021-11-16 11:26:54</time>
      </trkpt>
      <trkpt lat="40.72044" lon="-3.88125">
        <ele>906.2</ele>
        <time>2021-11-16 11:26:55</time>
      </trkpt>
      <trkpt lat="40.7204" lon="-3.88133">
        <ele>906.4</ele>
        <time>2021-11-16 11:26:56</time>
      </trkpt>
      <trkpt lat="40.72036" lon="-3.8814">
        <ele>906.6</ele>
        <time>2021-11-16 11:26:57</time>
      </trkpt>
      <trkpt lat="40.72032" lon="-3.88148">
        <ele>906.6</ele>
        <time>2021-11-16 11:26:58</time>
      </trkpt>
      <trkpt lat="40.72028" lon="-3.88156">
        <ele>906.8</ele>
        <time>2021-11-16 11:26:59</time>
      </trkpt>
      <trkpt lat="40.72025" lon="-3.88164">
        <ele>906.8</ele>
        <time>2021-11-16 11:27:00</time>
      </trkpt>
      <trkpt lat="40.72021" lon="-3.88172">
        <ele>906.8</ele>
        <time>2021-11-16 11:27:01</time>
      </trkpt>
      <trkpt lat="40.72017" lon="-3.88179">
        <ele>906.8</ele>
        <time>2021-11-16 11:27:02</time>
      </trkpt>
      <trkpt lat="40.72013" lon="-3.88187">
        <ele>906.8</ele>
        <time>2021-11-16 11:27:03</time>
      </trkpt>
      <trkpt lat="40.72009" lon="-3.88195">
        <ele>906.8</ele>
        <time>2021-11-16 11:27:04</time>
      </trkpt>
      <trkpt lat="40.72005" lon="-3.88203">
        <ele>907</ele>
        <time>2021-11-16 11:27:05</time>
      </trkpt>
      <trkpt lat="40.72002" lon="-3.88211">
        <ele>907</ele>
        <time>2021-11-16 11:27:06</time>
      </trkpt>
      <trkpt lat="40.71998" lon="-3.88219">
        <ele>906.8</ele>
        <time>2021-11-16 11:27:07</time>
      </trkpt>
      <trkpt lat="40.71994" lon="-3.88227">
        <ele>907</ele>
        <time>2021-11-16 11:27:08</time>
      </trkpt>
      <trkpt lat="40.7199" lon="-3.88235">
        <ele>906.8</ele>
        <time>2021-11-16 11:27:09</time>
      </trkpt>
      <trkpt lat="40.71986" lon="-3.88243">
        <ele>906.8</ele>
        <time>2021-11-16 11:27:10</time>
      </trkpt>
      <trkpt lat="40.71982" lon="-3.88251">
        <ele>906.8</ele>
        <time>2021-11-16 11:27:11</time>
      </trkpt>
      <trkpt lat="40.71978" lon="-3.88258">
        <ele>906.8</ele>
        <time>2021-11-16 11:27:12</time>
      </trkpt>
      <trkpt lat="40.71974" lon="-3.88266">
        <ele>906.8</ele>
        <time>2021-11-16 11:27:13</time>
      </trkpt>
      <trkpt lat="40.7197" lon="-3.88275">
        <ele>906.6</ele>
        <time>2021-11-16 11:27:14</time>
      </trkpt>
      <trkpt lat="40.71966" lon="-3.88283">
        <ele>906.6</ele>
        <time>2021-11-16 11:27:15</time>
      </trkpt>
      <trkpt lat="40.71962" lon="-3.88292">
        <ele>906.4</ele>
        <time>2021-11-16 11:27:16</time>
      </trkpt>
      <trkpt lat="40.71958" lon="-3.883">
        <ele>906.4</ele>
        <time>2021-11-16 11:27:17</time>
      </trkpt>
      <trkpt lat="40.71954" lon="-3.88309">
        <ele>906.4</ele>
        <time>2021-11-16 11:27:18</time>
      </trkpt>
      <trkpt lat="40.7195" lon="-3.88317">
        <ele>906.4</ele>
        <time>2021-11-16 11:27:19</time>
      </trkpt>
      <trkpt lat="40.71946" lon="-3.88326">
        <ele>906.2</ele>
        <time>2021-11-16 11:27:20</time>
      </trkpt>
      <trkpt lat="40.71941" lon="-3.88335">
        <ele>906.2</ele>
        <time>2021-11-16 11:27:21</time>
      </trkpt>
      <trkpt lat="40.71937" lon="-3.88344">
        <ele>906.2</ele>
        <time>2021-11-16 11:27:22</time>
      </trkpt>
      <trkpt lat="40.71932" lon="-3.88353">
        <ele>906</ele>
        <time>2021-11-16 11:27:23</time>
      </trkpt>
      <trkpt lat="40.71928" lon="-3.88362">
        <ele>906</ele>
        <time>2021-11-16 11:27:24</time>
      </trkpt>
      <trkpt lat="40.71923" lon="-3.88371">
        <ele>905.8</ele>
        <time>2021-11-16 11:27:25</time>
      </trkpt>
      <trkpt lat="40.71919" lon="-3.88381">
        <ele>905.6</ele>
        <time>2021-11-16 11:27:26</time>
      </trkpt>
      <trkpt lat="40.71914" lon="-3.8839">
        <ele>905.2</ele>
        <time>2021-11-16 11:27:27</time>
      </trkpt>
      <trkpt lat="40.7191" lon="-3.88399">
        <ele>904.8</ele>
        <time>2021-11-16 11:27:28</time>
      </trkpt>
      <trkpt lat="40.71905" lon="-3.88409">
        <ele>904.4</ele>
        <time>2021-11-16 11:27:29</time>
      </trkpt>
      <trkpt lat="40.719" lon="-3.88418">
        <ele>904</ele>
        <time>2021-11-16 11:27:30</time>
      </trkpt>
      <trkpt lat="40.71896" lon="-3.88427">
        <ele>903.8</ele>
        <time>2021-11-16 11:27:31</time>
      </trkpt>
      <trkpt lat="40.71891" lon="-3.88437">
        <ele>903.2</ele>
        <time>2021-11-16 11:27:32</time>
      </trkpt>
      <trkpt lat="40.71887" lon="-3.88446">
        <ele>903.2</ele>
        <time>2021-11-16 11:27:33</time>
      </trkpt>
      <trkpt lat="40.71882" lon="-3.88456">
        <ele>902.8</ele>
        <time>2021-11-16 11:27:34</time>
      </trkpt>
      <trkpt lat="40.71878" lon="-3.88465">
        <ele>902.6</ele>
        <time>2021-11-16 11:27:35</time>
      </trkpt>
      <trkpt lat="40.71873" lon="-3.88474">
        <ele>902.6</ele>
        <time>2021-11-16 11:27:36</time>
      </trkpt>
      <trkpt lat="40.71869" lon="-3.88483">
        <ele>902.4</ele>
        <time>2021-11-16 11:27:37</time>
      </trkpt>
      <trkpt lat="40.71864" lon="-3.88493">
        <ele>902.2</ele>
        <time>2021-11-16 11:27:38</time>
      </trkpt>
      <trkpt lat="40.7186" lon="-3.88501">
        <ele>902.4</ele>
        <time>2021-11-16 11:27:39</time>
      </trkpt>
      <trkpt lat="40.71856" lon="-3.8851">
        <ele>902.4</ele>
        <time>2021-11-16 11:27:40</time>
      </trkpt>
      <trkpt lat="40.71851" lon="-3.88519">
        <ele>902.4</ele>
        <time>2021-11-16 11:27:41</time>
      </trkpt>
      <trkpt lat="40.71847" lon="-3.88527">
        <ele>902.4</ele>
        <time>2021-11-16 11:27:42</time>
      </trkpt>
      <trkpt lat="40.71843" lon="-3.88536">
        <ele>902.4</ele>
        <time>2021-11-16 11:27:43</time>
      </trkpt>
      <trkpt lat="40.71839" lon="-3.88544">
        <ele>902.4</ele>
        <time>2021-11-16 11:27:44</time>
      </trkpt>
      <trkpt lat="40.71835" lon="-3.88552">
        <ele>902.4</ele>
        <time>2021-11-16 11:27:45</time>
      </trkpt>
      <trkpt lat="40.71831" lon="-3.8856">
        <ele>902.4</ele>
        <time>2021-11-16 11:27:46</time>
      </trkpt>
      <trkpt lat="40.71827" lon="-3.88568">
        <ele>902.4</ele>
        <time>2021-11-16 11:27:47</time>
      </trkpt>
      <trkpt lat="40.71824" lon="-3.88576">
        <ele>902.4</ele>
        <time>2021-11-16 11:27:48</time>
      </trkpt>
      <trkpt lat="40.7182" lon="-3.88584">
        <ele>902.4</ele>
        <time>2021-11-16 11:27:49</time>
      </trkpt>
      <trkpt lat="40.71816" lon="-3.88592">
        <ele>902.4</ele>
        <time>2021-11-16 11:27:50</time>
      </trkpt>
      <trkpt lat="40.71812" lon="-3.88599">
        <ele>902.4</ele>
        <time>2021-11-16 11:27:51</time>
      </trkpt>
      <trkpt lat="40.71808" lon="-3.88607">
        <ele>902.4</ele>
        <time>2021-11-16 11:27:52</time>
      </trkpt>
      <trkpt lat="40.71805" lon="-3.88615">
        <ele>902.6</ele>
        <time>2021-11-16 11:27:53</time>
      </trkpt>
      <trkpt lat="40.71801" lon="-3.88622">
        <ele>902.4</ele>
        <time>2021-11-16 11:27:54</time>
      </trkpt>
      <trkpt lat="40.71797" lon="-3.8863">
        <ele>902.6</ele>
        <time>2021-11-16 11:27:55</time>
      </trkpt>
      <trkpt lat="40.71793" lon="-3.88638">
        <ele>902.8</ele>
        <time>2021-11-16 11:27:56</time>
      </trkpt>
      <trkpt lat="40.71789" lon="-3.88646">
        <ele>902.8</ele>
        <time>2021-11-16 11:27:57</time>
      </trkpt>
      <trkpt lat="40.71786" lon="-3.88654">
        <ele>902.8</ele>
        <time>2021-11-16 11:27:58</time>
      </trkpt>
      <trkpt lat="40.71782" lon="-3.88662">
        <ele>902.8</ele>
        <time>2021-11-16 11:27:59</time>
      </trkpt>
      <trkpt lat="40.71778" lon="-3.8867">
        <ele>903</ele>
        <time>2021-11-16 11:28:00</time>
      </trkpt>
      <trkpt lat="40.71774" lon="-3.88678">
        <ele>903</ele>
        <time>2021-11-16 11:28:01</time>
      </trkpt>
      <trkpt lat="40.7177" lon="-3.88685">
        <ele>903</ele>
        <time>2021-11-16 11:28:02</time>
      </trkpt>
      <trkpt lat="40.71766" lon="-3.88694">
        <ele>903.2</ele>
        <time>2021-11-16 11:28:03</time>
      </trkpt>
      <trkpt lat="40.71761" lon="-3.88702">
        <ele>903.2</ele>
        <time>2021-11-16 11:28:04</time>
      </trkpt>
      <trkpt lat="40.71757" lon="-3.8871">
        <ele>903.2</ele>
        <time>2021-11-16 11:28:05</time>
      </trkpt>
      <trkpt lat="40.71753" lon="-3.88718">
        <ele>903.2</ele>
        <time>2021-11-16 11:28:06</time>
      </trkpt>
      <trkpt lat="40.71749" lon="-3.88727">
        <ele>903.2</ele>
        <time>2021-11-16 11:28:07</time>
      </trkpt>
      <trkpt lat="40.71745" lon="-3.88735">
        <ele>903.2</ele>
        <time>2021-11-16 11:28:08</time>
      </trkpt>
      <trkpt lat="40.71741" lon="-3.88743">
        <ele>903.4</ele>
        <time>2021-11-16 11:28:09</time>
      </trkpt>
      <trkpt lat="40.71737" lon="-3.88752">
        <ele>903</ele>
        <time>2021-11-16 11:28:10</time>
      </trkpt>
      <trkpt lat="40.71733" lon="-3.8876">
        <ele>903.2</ele>
        <time>2021-11-16 11:28:11</time>
      </trkpt>
      <trkpt lat="40.71729" lon="-3.88768">
        <ele>903.2</ele>
        <time>2021-11-16 11:28:12</time>
      </trkpt>
      <trkpt lat="40.71725" lon="-3.88777">
        <ele>903.2</ele>
        <time>2021-11-16 11:28:13</time>
      </trkpt>
      <trkpt lat="40.71721" lon="-3.88785">
        <ele>903</ele>
        <time>2021-11-16 11:28:14</time>
      </trkpt>
      <trkpt lat="40.71717" lon="-3.88793">
        <ele>903.2</ele>
        <time>2021-11-16 11:28:15</time>
      </trkpt>
      <trkpt lat="40.71713" lon="-3.88802">
        <ele>903</ele>
        <time>2021-11-16 11:28:16</time>
      </trkpt>
      <trkpt lat="40.71709" lon="-3.8881">
        <ele>903</ele>
        <time>2021-11-16 11:28:17</time>
      </trkpt>
      <trkpt lat="40.71706" lon="-3.88819">
        <ele>903</ele>
        <time>2021-11-16 11:28:18</time>
      </trkpt>
      <trkpt lat="40.71702" lon="-3.88827">
        <ele>903</ele>
        <time>2021-11-16 11:28:19</time>
      </trkpt>
      <trkpt lat="40.71698" lon="-3.88835">
        <ele>903</ele>
        <time>2021-11-16 11:28:20</time>
      </trkpt>
      <trkpt lat="40.71695" lon="-3.88844">
        <ele>902.8</ele>
        <time>2021-11-16 11:28:21</time>
      </trkpt>
      <trkpt lat="40.71691" lon="-3.88852">
        <ele>902.6</ele>
        <time>2021-11-16 11:28:22</time>
      </trkpt>
      <trkpt lat="40.71688" lon="-3.88861">
        <ele>902.6</ele>
        <time>2021-11-16 11:28:23</time>
      </trkpt>
      <trkpt lat="40.71685" lon="-3.88869">
        <ele>902.4</ele>
        <time>2021-11-16 11:28:24</time>
      </trkpt>
      <trkpt lat="40.71681" lon="-3.88877">
        <ele>902.4</ele>
        <time>2021-11-16 11:28:25</time>
      </trkpt>
      <trkpt lat="40.71678" lon="-3.88886">
        <ele>902.4</ele>
        <time>2021-11-16 11:28:26</time>
      </trkpt>
      <trkpt lat="40.71674" lon="-3.88894">
        <ele>902.2</ele>
        <time>2021-11-16 11:28:27</time>
      </trkpt>
      <trkpt lat="40.71671" lon="-3.88903">
        <ele>902.4</ele>
        <time>2021-11-16 11:28:28</time>
      </trkpt>
      <trkpt lat="40.71667" lon="-3.88911">
        <ele>902.4</ele>
        <time>2021-11-16 11:28:29</time>
      </trkpt>
      <trkpt lat="40.71664" lon="-3.8892">
        <ele>902.4</ele>
        <time>2021-11-16 11:28:30</time>
      </trkpt>
      <trkpt lat="40.7166" lon="-3.88929">
        <ele>902.6</ele>
        <time>2021-11-16 11:28:31</time>
      </trkpt>
      <trkpt lat="40.71657" lon="-3.88938">
        <ele>902.6</ele>
        <time>2021-11-16 11:28:32</time>
      </trkpt>
      <trkpt lat="40.71653" lon="-3.88947">
        <ele>902.6</ele>
        <time>2021-11-16 11:28:33</time>
      </trkpt>
      <trkpt lat="40.7165" lon="-3.88955">
        <ele>902.6</ele>
        <time>2021-11-16 11:28:34</time>
      </trkpt>
      <trkpt lat="40.71646" lon="-3.88964">
        <ele>902.6</ele>
        <time>2021-11-16 11:28:35</time>
      </trkpt>
      <trkpt lat="40.71643" lon="-3.88973">
        <ele>902.6</ele>
        <time>2021-11-16 11:28:36</time>
      </trkpt>
      <trkpt lat="40.71639" lon="-3.88982">
        <ele>902.6</ele>
        <time>2021-11-16 11:28:37</time>
      </trkpt>
      <trkpt lat="40.71636" lon="-3.88991">
        <ele>902.6</ele>
        <time>2021-11-16 11:28:38</time>
      </trkpt>
      <trkpt lat="40.71632" lon="-3.89">
        <ele>902.8</ele>
        <time>2021-11-16 11:28:39</time>
      </trkpt>
      <trkpt lat="40.71629" lon="-3.89009">
        <ele>902.6</ele>
        <time>2021-11-16 11:28:40</time>
      </trkpt>
      <trkpt lat="40.71625" lon="-3.89017">
        <ele>902.6</ele>
        <time>2021-11-16 11:28:41</time>
      </trkpt>
      <trkpt lat="40.71622" lon="-3.89026">
        <ele>902.6</ele>
        <time>2021-11-16 11:28:42</time>
      </trkpt>
      <trkpt lat="40.71619" lon="-3.89035">
        <ele>902.6</ele>
        <time>2021-11-16 11:28:43</time>
      </trkpt>
      <trkpt lat="40.71615" lon="-3.89044">
        <ele>902.6</ele>
        <time>2021-11-16 11:28:44</time>
      </trkpt>
      <trkpt lat="40.71612" lon="-3.89052">
        <ele>902.6</ele>
        <time>2021-11-16 11:28:45</time>
      </trkpt>
      <trkpt lat="40.71609" lon="-3.8906">
        <ele>902.6</ele>
        <time>2021-11-16 11:28:46</time>
      </trkpt>
      <trkpt lat="40.71605" lon="-3.89069">
        <ele>902.6</ele>
        <time>2021-11-16 11:28:47</time>
      </trkpt>
      <trkpt lat="40.71602" lon="-3.89077">
        <ele>902.6</ele>
        <time>2021-11-16 11:28:48</time>
      </trkpt>
      <trkpt lat="40.71598" lon="-3.89085">
        <ele>902.6</ele>
        <time>2021-11-16 11:28:49</time>
      </trkpt>
      <trkpt lat="40.71595" lon="-3.89093">
        <ele>902.6</ele>
        <time>2021-11-16 11:28:50</time>
      </trkpt>
      <trkpt lat="40.71592" lon="-3.89101">
        <ele>902.6</ele>
        <time>2021-11-16 11:28:51</time>
      </trkpt>
      <trkpt lat="40.71589" lon="-3.89109">
        <ele>902.6</ele>
        <time>2021-11-16 11:28:52</time>
      </trkpt>
      <trkpt lat="40.71585" lon="-3.89117">
        <ele>902.6</ele>
        <time>2021-11-16 11:28:53</time>
      </trkpt>
      <trkpt lat="40.71582" lon="-3.89126">
        <ele>902.6</ele>
        <time>2021-11-16 11:28:54</time>
      </trkpt>
      <trkpt lat="40.71579" lon="-3.89134">
        <ele>902.8</ele>
        <time>2021-11-16 11:28:55</time>
      </trkpt>
      <trkpt lat="40.71576" lon="-3.89142">
        <ele>902.8</ele>
        <time>2021-11-16 11:28:56</time>
      </trkpt>
      <trkpt lat="40.71573" lon="-3.8915">
        <ele>903</ele>
        <time>2021-11-16 11:28:57</time>
      </trkpt>
      <trkpt lat="40.7157" lon="-3.89159">
        <ele>903</ele>
        <time>2021-11-16 11:28:58</time>
      </trkpt>
      <trkpt lat="40.71567" lon="-3.89167">
        <ele>903</ele>
        <time>2021-11-16 11:28:59</time>
      </trkpt>
      <trkpt lat="40.71564" lon="-3.89175">
        <ele>903</ele>
        <time>2021-11-16 11:29:00</time>
      </trkpt>
      <trkpt lat="40.71561" lon="-3.89184">
        <ele>903</ele>
        <time>2021-11-16 11:29:01</time>
      </trkpt>
      <trkpt lat="40.71558" lon="-3.89193">
        <ele>903.2</ele>
        <time>2021-11-16 11:29:02</time>
      </trkpt>
      <trkpt lat="40.71556" lon="-3.89201">
        <ele>903</ele>
        <time>2021-11-16 11:29:03</time>
      </trkpt>
      <trkpt lat="40.71553" lon="-3.8921">
        <ele>903.2</ele>
        <time>2021-11-16 11:29:04</time>
      </trkpt>
      <trkpt lat="40.71551" lon="-3.8922">
        <ele>903</ele>
        <time>2021-11-16 11:29:05</time>
      </trkpt>
      <trkpt lat="40.7155" lon="-3.89229">
        <ele>903.2</ele>
        <time>2021-11-16 11:29:06</time>
      </trkpt>
      <trkpt lat="40.71548" lon="-3.89238">
        <ele>903.2</ele>
        <time>2021-11-16 11:29:07</time>
      </trkpt>
      <trkpt lat="40.71547" lon="-3.89247">
        <ele>903</ele>
        <time>2021-11-16 11:29:08</time>
      </trkpt>
      <trkpt lat="40.71545" lon="-3.89256">
        <ele>903.2</ele>
        <time>2021-11-16 11:29:09</time>
      </trkpt>
      <trkpt lat="40.71544" lon="-3.89265">
        <ele>903</ele>
        <time>2021-11-16 11:29:10</time>
      </trkpt>
      <trkpt lat="40.71543" lon="-3.89274">
        <ele>903.2</ele>
        <time>2021-11-16 11:29:11</time>
      </trkpt>
      <trkpt lat="40.71543" lon="-3.89283">
        <ele>903.2</ele>
        <time>2021-11-16 11:29:12</time>
      </trkpt>
      <trkpt lat="40.71542" lon="-3.89292">
        <ele>903</ele>
        <time>2021-11-16 11:29:13</time>
      </trkpt>
      <trkpt lat="40.71541" lon="-3.89301">
        <ele>903.2</ele>
        <time>2021-11-16 11:29:14</time>
      </trkpt>
      <trkpt lat="40.71541" lon="-3.89311">
        <ele>903</ele>
        <time>2021-11-16 11:29:15</time>
      </trkpt>
      <trkpt lat="40.7154" lon="-3.8932">
        <ele>903.2</ele>
        <time>2021-11-16 11:29:16</time>
      </trkpt>
      <trkpt lat="40.7154" lon="-3.89329">
        <ele>903.2</ele>
        <time>2021-11-16 11:29:17</time>
      </trkpt>
      <trkpt lat="40.7154" lon="-3.89339">
        <ele>903.2</ele>
        <time>2021-11-16 11:29:18</time>
      </trkpt>
      <trkpt lat="40.71539" lon="-3.89348">
        <ele>903</ele>
        <time>2021-11-16 11:29:19</time>
      </trkpt>
      <trkpt lat="40.71539" lon="-3.89358">
        <ele>903.2</ele>
        <time>2021-11-16 11:29:20</time>
      </trkpt>
      <trkpt lat="40.71538" lon="-3.89367">
        <ele>903.4</ele>
        <time>2021-11-16 11:29:21</time>
      </trkpt>
      <trkpt lat="40.71538" lon="-3.89377">
        <ele>903.4</ele>
        <time>2021-11-16 11:29:22</time>
      </trkpt>
      <trkpt lat="40.71537" lon="-3.89386">
        <ele>903.4</ele>
        <time>2021-11-16 11:29:23</time>
      </trkpt>
      <trkpt lat="40.71537" lon="-3.89395">
        <ele>903.4</ele>
        <time>2021-11-16 11:29:24</time>
      </trkpt>
      <trkpt lat="40.71536" lon="-3.89405">
        <ele>903.6</ele>
        <time>2021-11-16 11:29:25</time>
      </trkpt>
      <trkpt lat="40.71536" lon="-3.89414">
        <ele>903.8</ele>
        <time>2021-11-16 11:29:26</time>
      </trkpt>
      <trkpt lat="40.71535" lon="-3.89424">
        <ele>903.6</ele>
        <time>2021-11-16 11:29:27</time>
      </trkpt>
      <trkpt lat="40.71535" lon="-3.89433">
        <ele>903.6</ele>
        <time>2021-11-16 11:29:28</time>
      </trkpt>
      <trkpt lat="40.71535" lon="-3.89442">
        <ele>903.8</ele>
        <time>2021-11-16 11:29:29</time>
      </trkpt>
      <trkpt lat="40.71534" lon="-3.89451">
        <ele>904</ele>
        <time>2021-11-16 11:29:30</time>
      </trkpt>
      <trkpt lat="40.71534" lon="-3.89461">
        <ele>903.8</ele>
        <time>2021-11-16 11:29:31</time>
      </trkpt>
      <trkpt lat="40.71533" lon="-3.8947">
        <ele>904</ele>
        <time>2021-11-16 11:29:32</time>
      </trkpt>
      <trkpt lat="40.71533" lon="-3.89479">
        <ele>904.2</ele>
        <time>2021-11-16 11:29:33</time>
      </trkpt>
      <trkpt lat="40.71532" lon="-3.89488">
        <ele>904.2</ele>
        <time>2021-11-16 11:29:34</time>
      </trkpt>
      <trkpt lat="40.71532" lon="-3.89498">
        <ele>904.4</ele>
        <time>2021-11-16 11:29:35</time>
      </trkpt>
      <trkpt lat="40.71531" lon="-3.89507">
        <ele>904.4</ele>
        <time>2021-11-16 11:29:36</time>
      </trkpt>
      <trkpt lat="40.71531" lon="-3.89516">
        <ele>904.4</ele>
        <time>2021-11-16 11:29:37</time>
      </trkpt>
      <trkpt lat="40.7153" lon="-3.89525">
        <ele>904.4</ele>
        <time>2021-11-16 11:29:38</time>
      </trkpt>
      <trkpt lat="40.7153" lon="-3.89534">
        <ele>904.4</ele>
        <time>2021-11-16 11:29:39</time>
      </trkpt>
      <trkpt lat="40.71529" lon="-3.89544">
        <ele>904.4</ele>
        <time>2021-11-16 11:29:40</time>
      </trkpt>
      <trkpt lat="40.71529" lon="-3.89553">
        <ele>904.4</ele>
        <time>2021-11-16 11:29:41</time>
      </trkpt>
      <trkpt lat="40.71529" lon="-3.89562">
        <ele>904.4</ele>
        <time>2021-11-16 11:29:42</time>
      </trkpt>
      <trkpt lat="40.71528" lon="-3.89572">
        <ele>904.4</ele>
        <time>2021-11-16 11:29:43</time>
      </trkpt>
      <trkpt lat="40.71528" lon="-3.89581">
        <ele>904.4</ele>
        <time>2021-11-16 11:29:44</time>
      </trkpt>
      <trkpt lat="40.71527" lon="-3.89591">
        <ele>904.6</ele>
        <time>2021-11-16 11:29:45</time>
      </trkpt>
      <trkpt lat="40.71526" lon="-3.896">
        <ele>904.4</ele>
        <time>2021-11-16 11:29:46</time>
      </trkpt>
      <trkpt lat="40.71526" lon="-3.8961">
        <ele>904.4</ele>
        <time>2021-11-16 11:29:47</time>
      </trkpt>
      <trkpt lat="40.71525" lon="-3.89619">
        <ele>904.4</ele>
        <time>2021-11-16 11:29:48</time>
      </trkpt>
      <trkpt lat="40.71525" lon="-3.89629">
        <ele>904.6</ele>
        <time>2021-11-16 11:29:49</time>
      </trkpt>
      <trkpt lat="40.71524" lon="-3.89638">
        <ele>904.4</ele>
        <time>2021-11-16 11:29:50</time>
      </trkpt>
      <trkpt lat="40.71524" lon="-3.89648">
        <ele>904.4</ele>
        <time>2021-11-16 11:29:51</time>
      </trkpt>
      <trkpt lat="40.71524" lon="-3.89657">
        <ele>904.6</ele>
        <time>2021-11-16 11:29:52</time>
      </trkpt>
      <trkpt lat="40.71523" lon="-3.89667">
        <ele>904.6</ele>
        <time>2021-11-16 11:29:53</time>
      </trkpt>
      <trkpt lat="40.71523" lon="-3.89676">
        <ele>904.6</ele>
        <time>2021-11-16 11:29:54</time>
      </trkpt>
      <trkpt lat="40.71522" lon="-3.89686">
        <ele>904.6</ele>
        <time>2021-11-16 11:29:55</time>
      </trkpt>
      <trkpt lat="40.71522" lon="-3.89695">
        <ele>904.6</ele>
        <time>2021-11-16 11:29:56</time>
      </trkpt>
      <trkpt lat="40.71521" lon="-3.89704">
        <ele>904.6</ele>
        <time>2021-11-16 11:29:57</time>
      </trkpt>
      <trkpt lat="40.71521" lon="-3.89714">
        <ele>904.6</ele>
        <time>2021-11-16 11:29:58</time>
      </trkpt>
      <trkpt lat="40.7152" lon="-3.89723">
        <ele>904.4</ele>
        <time>2021-11-16 11:29:59</time>
      </trkpt>
      <trkpt lat="40.7152" lon="-3.89732">
        <ele>904.4</ele>
        <time>2021-11-16 11:30:00</time>
      </trkpt>
      <trkpt lat="40.71519" lon="-3.89742">
        <ele>904.6</ele>
        <time>2021-11-16 11:30:01</time>
      </trkpt>
      <trkpt lat="40.71519" lon="-3.89751">
        <ele>904.4</ele>
        <time>2021-11-16 11:30:02</time>
      </trkpt>
      <trkpt lat="40.71518" lon="-3.8976">
        <ele>904.4</ele>
        <time>2021-11-16 11:30:03</time>
      </trkpt>
      <trkpt lat="40.71518" lon="-3.8977">
        <ele>904.6</ele>
        <time>2021-11-16 11:30:04</time>
      </trkpt>
      <trkpt lat="40.71517" lon="-3.89779">
        <ele>904.4</ele>
        <time>2021-11-16 11:30:05</time>
      </trkpt>
      <trkpt lat="40.71517" lon="-3.89788">
        <ele>904.4</ele>
        <time>2021-11-16 11:30:06</time>
      </trkpt>
      <trkpt lat="40.71516" lon="-3.89797">
        <ele>904.4</ele>
        <time>2021-11-16 11:30:07</time>
      </trkpt>
      <trkpt lat="40.71515" lon="-3.89807">
        <ele>904.6</ele>
        <time>2021-11-16 11:30:08</time>
      </trkpt>
      <trkpt lat="40.71514" lon="-3.89816">
        <ele>904.4</ele>
        <time>2021-11-16 11:30:09</time>
      </trkpt>
      <trkpt lat="40.71513" lon="-3.89825">
        <ele>904.6</ele>
        <time>2021-11-16 11:30:10</time>
      </trkpt>
      <trkpt lat="40.71512" lon="-3.89834">
        <ele>904.4</ele>
        <time>2021-11-16 11:30:11</time>
      </trkpt>
      <trkpt lat="40.7151" lon="-3.89843">
        <ele>904.6</ele>
        <time>2021-11-16 11:30:12</time>
      </trkpt>
      <trkpt lat="40.71509" lon="-3.89852">
        <ele>904.6</ele>
        <time>2021-11-16 11:30:13</time>
      </trkpt>
      <trkpt lat="40.71507" lon="-3.89861">
        <ele>904.6</ele>
        <time>2021-11-16 11:30:14</time>
      </trkpt>
      <trkpt lat="40.71506" lon="-3.8987">
        <ele>904.8</ele>
        <time>2021-11-16 11:30:15</time>
      </trkpt>
      <trkpt lat="40.71504" lon="-3.89879">
        <ele>904.6</ele>
        <time>2021-11-16 11:30:16</time>
      </trkpt>
      <trkpt lat="40.71503" lon="-3.89888">
        <ele>904.8</ele>
        <time>2021-11-16 11:30:17</time>
      </trkpt>
      <trkpt lat="40.71501" lon="-3.89897">
        <ele>905</ele>
        <time>2021-11-16 11:30:18</time>
      </trkpt>
      <trkpt lat="40.71499" lon="-3.89906">
        <ele>905.2</ele>
        <time>2021-11-16 11:30:19</time>
      </trkpt>
      <trkpt lat="40.71498" lon="-3.89915">
        <ele>905.4</ele>
        <time>2021-11-16 11:30:20</time>
      </trkpt>
      <trkpt lat="40.71496" lon="-3.89924">
        <ele>905.6</ele>
        <time>2021-11-16 11:30:21</time>
      </trkpt>
      <trkpt lat="40.71494" lon="-3.89933">
        <ele>905.6</ele>
        <time>2021-11-16 11:30:22</time>
      </trkpt>
      <trkpt lat="40.71493" lon="-3.89942">
        <ele>905.8</ele>
        <time>2021-11-16 11:30:23</time>
      </trkpt>
      <trkpt lat="40.71491" lon="-3.89951">
        <ele>905.8</ele>
        <time>2021-11-16 11:30:24</time>
      </trkpt>
      <trkpt lat="40.7149" lon="-3.8996">
        <ele>905.6</ele>
        <time>2021-11-16 11:30:25</time>
      </trkpt>
      <trkpt lat="40.71488" lon="-3.89969">
        <ele>906</ele>
        <time>2021-11-16 11:30:26</time>
      </trkpt>
      <trkpt lat="40.71486" lon="-3.89978">
        <ele>906</ele>
        <time>2021-11-16 11:30:27</time>
      </trkpt>
      <trkpt lat="40.71485" lon="-3.89988">
        <ele>906</ele>
        <time>2021-11-16 11:30:28</time>
      </trkpt>
      <trkpt lat="40.71483" lon="-3.89997">
        <ele>906</ele>
        <time>2021-11-16 11:30:29</time>
      </trkpt>
      <trkpt lat="40.71481" lon="-3.90006">
        <ele>906</ele>
        <time>2021-11-16 11:30:30</time>
      </trkpt>
      <trkpt lat="40.7148" lon="-3.90016">
        <ele>906.2</ele>
        <time>2021-11-16 11:30:31</time>
      </trkpt>
      <trkpt lat="40.71478" lon="-3.90025">
        <ele>906.2</ele>
        <time>2021-11-16 11:30:32</time>
      </trkpt>
      <trkpt lat="40.71476" lon="-3.90035">
        <ele>906.2</ele>
        <time>2021-11-16 11:30:33</time>
      </trkpt>
      <trkpt lat="40.71474" lon="-3.90045">
        <ele>906.2</ele>
        <time>2021-11-16 11:30:34</time>
      </trkpt>
      <trkpt lat="40.71472" lon="-3.90054">
        <ele>906.2</ele>
        <time>2021-11-16 11:30:35</time>
      </trkpt>
      <trkpt lat="40.71471" lon="-3.90064">
        <ele>906.2</ele>
        <time>2021-11-16 11:30:36</time>
      </trkpt>
      <trkpt lat="40.71469" lon="-3.90073">
        <ele>906.2</ele>
        <time>2021-11-16 11:30:37</time>
      </trkpt>
      <trkpt lat="40.71467" lon="-3.90083">
        <ele>906.2</ele>
        <time>2021-11-16 11:30:38</time>
      </trkpt>
      <trkpt lat="40.71466" lon="-3.90093">
        <ele>906</ele>
        <time>2021-11-16 11:30:39</time>
      </trkpt>
      <trkpt lat="40.71464" lon="-3.90102">
        <ele>905.8</ele>
        <time>2021-11-16 11:30:40</time>
      </trkpt>
      <trkpt lat="40.71462" lon="-3.90112">
        <ele>906</ele>
        <time>2021-11-16 11:30:41</time>
      </trkpt>
      <trkpt lat="40.7146" lon="-3.90121">
        <ele>906</ele>
        <time>2021-11-16 11:30:42</time>
      </trkpt>
      <trkpt lat="40.71459" lon="-3.90131">
        <ele>906</ele>
        <time>2021-11-16 11:30:43</time>
      </trkpt>
      <trkpt lat="40.71457" lon="-3.90141">
        <ele>906</ele>
        <time>2021-11-16 11:30:44</time>
      </trkpt>
      <trkpt lat="40.71455" lon="-3.9015">
        <ele>906</ele>
        <time>2021-11-16 11:30:45</time>
      </trkpt>
      <trkpt lat="40.71453" lon="-3.90159">
        <ele>906.2</ele>
        <time>2021-11-16 11:30:46</time>
      </trkpt>
      <trkpt lat="40.71452" lon="-3.90169">
        <ele>906</ele>
        <time>2021-11-16 11:30:47</time>
      </trkpt>
      <trkpt lat="40.7145" lon="-3.90178">
        <ele>906</ele>
        <time>2021-11-16 11:30:48</time>
      </trkpt>
      <trkpt lat="40.71449" lon="-3.90187">
        <ele>906</ele>
        <time>2021-11-16 11:30:49</time>
      </trkpt>
      <trkpt lat="40.71447" lon="-3.90197">
        <ele>906</ele>
        <time>2021-11-16 11:30:50</time>
      </trkpt>
      <trkpt lat="40.71445" lon="-3.90206">
        <ele>905.8</ele>
        <time>2021-11-16 11:30:51</time>
      </trkpt>
      <trkpt lat="40.71444" lon="-3.90215">
        <ele>905.8</ele>
        <time>2021-11-16 11:30:52</time>
      </trkpt>
      <trkpt lat="40.71442" lon="-3.90224">
        <ele>905.8</ele>
        <time>2021-11-16 11:30:53</time>
      </trkpt>
      <trkpt lat="40.7144" lon="-3.90233">
        <ele>906</ele>
        <time>2021-11-16 11:30:54</time>
      </trkpt>
      <trkpt lat="40.71438" lon="-3.90242">
        <ele>905.8</ele>
        <time>2021-11-16 11:30:55</time>
      </trkpt>
      <trkpt lat="40.71436" lon="-3.90251">
        <ele>905.8</ele>
        <time>2021-11-16 11:30:56</time>
      </trkpt>
      <trkpt lat="40.71435" lon="-3.9026">
        <ele>906</ele>
        <time>2021-11-16 11:30:57</time>
      </trkpt>
      <trkpt lat="40.71433" lon="-3.90269">
        <ele>906</ele>
        <time>2021-11-16 11:30:58</time>
      </trkpt>
      <trkpt lat="40.71432" lon="-3.90278">
        <ele>906</ele>
        <time>2021-11-16 11:30:59</time>
      </trkpt>
      <trkpt lat="40.7143" lon="-3.90287">
        <ele>906</ele>
        <time>2021-11-16 11:31:00</time>
      </trkpt>
      <trkpt lat="40.71429" lon="-3.90296">
        <ele>906</ele>
        <time>2021-11-16 11:31:01</time>
      </trkpt>
      <trkpt lat="40.71427" lon="-3.90305">
        <ele>906.2</ele>
        <time>2021-11-16 11:31:02</time>
      </trkpt>
      <trkpt lat="40.71425" lon="-3.90314">
        <ele>906.4</ele>
        <time>2021-11-16 11:31:03</time>
      </trkpt>
      <trkpt lat="40.71424" lon="-3.90323">
        <ele>906.2</ele>
        <time>2021-11-16 11:31:04</time>
      </trkpt>
      <trkpt lat="40.71422" lon="-3.90332">
        <ele>906.4</ele>
        <time>2021-11-16 11:31:05</time>
      </trkpt>
      <trkpt lat="40.7142" lon="-3.90342">
        <ele>906.4</ele>
        <time>2021-11-16 11:31:06</time>
      </trkpt>
      <trkpt lat="40.71419" lon="-3.90351">
        <ele>906.6</ele>
        <time>2021-11-16 11:31:07</time>
      </trkpt>
      <trkpt lat="40.71417" lon="-3.9036">
        <ele>906.6</ele>
        <time>2021-11-16 11:31:08</time>
      </trkpt>
      <trkpt lat="40.71415" lon="-3.90369">
        <ele>906.8</ele>
        <time>2021-11-16 11:31:09</time>
      </trkpt>
      <trkpt lat="40.71414" lon="-3.90378">
        <ele>906.8</ele>
        <time>2021-11-16 11:31:10</time>
      </trkpt>
      <trkpt lat="40.71412" lon="-3.90388">
        <ele>907</ele>
        <time>2021-11-16 11:31:11</time>
      </trkpt>
      <trkpt lat="40.7141" lon="-3.90397">
        <ele>907.2</ele>
        <time>2021-11-16 11:31:12</time>
      </trkpt>
      <trkpt lat="40.71409" lon="-3.90406">
        <ele>907.2</ele>
        <time>2021-11-16 11:31:13</time>
      </trkpt>
      <trkpt lat="40.71407" lon="-3.90416">
        <ele>907.2</ele>
        <time>2021-11-16 11:31:14</time>
      </trkpt>
      <trkpt lat="40.71405" lon="-3.90425">
        <ele>907.4</ele>
        <time>2021-11-16 11:31:15</time>
      </trkpt>
      <trkpt lat="40.71404" lon="-3.90435">
        <ele>907.4</ele>
        <time>2021-11-16 11:31:16</time>
      </trkpt>
      <trkpt lat="40.71402" lon="-3.90444">
        <ele>907.4</ele>
        <time>2021-11-16 11:31:17</time>
      </trkpt>
      <trkpt lat="40.714" lon="-3.90453">
        <ele>907.2</ele>
        <time>2021-11-16 11:31:18</time>
      </trkpt>
      <trkpt lat="40.71398" lon="-3.90462">
        <ele>907.4</ele>
        <time>2021-11-16 11:31:19</time>
      </trkpt>
      <trkpt lat="40.71397" lon="-3.90471">
        <ele>907.4</ele>
        <time>2021-11-16 11:31:20</time>
      </trkpt>
      <trkpt lat="40.71395" lon="-3.90481">
        <ele>907.4</ele>
        <time>2021-11-16 11:31:21</time>
      </trkpt>
      <trkpt lat="40.71393" lon="-3.9049">
        <ele>907.4</ele>
        <time>2021-11-16 11:31:22</time>
      </trkpt>
      <trkpt lat="40.71391" lon="-3.90499">
        <ele>907.6</ele>
        <time>2021-11-16 11:31:23</time>
      </trkpt>
      <trkpt lat="40.71389" lon="-3.90508">
        <ele>907.4</ele>
        <time>2021-11-16 11:31:24</time>
      </trkpt>
      <trkpt lat="40.71387" lon="-3.90516">
        <ele>907.4</ele>
        <time>2021-11-16 11:31:25</time>
      </trkpt>
      <trkpt lat="40.71385" lon="-3.90525">
        <ele>907.4</ele>
        <time>2021-11-16 11:31:26</time>
      </trkpt>
      <trkpt lat="40.71383" lon="-3.90534">
        <ele>907.6</ele>
        <time>2021-11-16 11:31:27</time>
      </trkpt>
      <trkpt lat="40.7138" lon="-3.90542">
        <ele>907.6</ele>
        <time>2021-11-16 11:31:28</time>
      </trkpt>
      <trkpt lat="40.71377" lon="-3.90551">
        <ele>907.6</ele>
        <time>2021-11-16 11:31:29</time>
      </trkpt>
      <trkpt lat="40.71374" lon="-3.90559">
        <ele>907.8</ele>
        <time>2021-11-16 11:31:30</time>
      </trkpt>
      <trkpt lat="40.71371" lon="-3.90568">
        <ele>907.8</ele>
        <time>2021-11-16 11:31:31</time>
      </trkpt>
      <trkpt lat="40.71367" lon="-3.90576">
        <ele>907.6</ele>
        <time>2021-11-16 11:31:32</time>
      </trkpt>
      <trkpt lat="40.71364" lon="-3.90584">
        <ele>907.8</ele>
        <time>2021-11-16 11:31:33</time>
      </trkpt>
      <trkpt lat="40.7136" lon="-3.90592">
        <ele>907.8</ele>
        <time>2021-11-16 11:31:34</time>
      </trkpt>
      <trkpt lat="40.71356" lon="-3.906">
        <ele>907.8</ele>
        <time>2021-11-16 11:31:35</time>
      </trkpt>
      <trkpt lat="40.71352" lon="-3.90607">
        <ele>907.8</ele>
        <time>2021-11-16 11:31:36</time>
      </trkpt>
      <trkpt lat="40.71348" lon="-3.90615">
        <ele>907.8</ele>
        <time>2021-11-16 11:31:37</time>
      </trkpt>
      <trkpt lat="40.71344" lon="-3.90622">
        <ele>907.8</ele>
        <time>2021-11-16 11:31:38</time>
      </trkpt>
      <trkpt lat="40.71339" lon="-3.90629">
        <ele>907.8</ele>
        <time>2021-11-16 11:31:39</time>
      </trkpt>
      <trkpt lat="40.71335" lon="-3.90637">
        <ele>907.8</ele>
        <time>2021-11-16 11:31:40</time>
      </trkpt>
      <trkpt lat="40.71331" lon="-3.90644">
        <ele>908</ele>
        <time>2021-11-16 11:31:41</time>
      </trkpt>
      <trkpt lat="40.71326" lon="-3.90652">
        <ele>907.8</ele>
        <time>2021-11-16 11:31:42</time>
      </trkpt>
      <trkpt lat="40.71322" lon="-3.90659">
        <ele>908</ele>
        <time>2021-11-16 11:31:43</time>
      </trkpt>
      <trkpt lat="40.71318" lon="-3.90666">
        <ele>907.8</ele>
        <time>2021-11-16 11:31:44</time>
      </trkpt>
      <trkpt lat="40.71314" lon="-3.90673">
        <ele>908</ele>
        <time>2021-11-16 11:31:45</time>
      </trkpt>
      <trkpt lat="40.7131" lon="-3.9068">
        <ele>908</ele>
        <time>2021-11-16 11:31:46</time>
      </trkpt>
      <trkpt lat="40.71305" lon="-3.90688">
        <ele>908</ele>
        <time>2021-11-16 11:31:47</time>
      </trkpt>
      <trkpt lat="40.71297" lon="-3.90702">
        <ele>908</ele>
        <time>2021-11-16 11:31:48</time>
      </trkpt>
      <trkpt lat="40.71297" lon="-3.90702">
        <ele>907.8</ele>
        <time>2021-11-16 11:31:49</time>
      </trkpt>
      <trkpt lat="40.71293" lon="-3.90709">
        <ele>907.8</ele>
        <time>2021-11-16 11:31:50</time>
      </trkpt>
      <trkpt lat="40.71289" lon="-3.90715">
        <ele>907.8</ele>
        <time>2021-11-16 11:31:51</time>
      </trkpt>
      <trkpt lat="40.71285" lon="-3.90722">
        <ele>907.8</ele>
        <time>2021-11-16 11:31:52</time>
      </trkpt>
      <trkpt lat="40.71281" lon="-3.90729">
        <ele>908</ele>
        <time>2021-11-16 11:31:53</time>
      </trkpt>
      <trkpt lat="40.71277" lon="-3.90736">
        <ele>908</ele>
        <time>2021-11-16 11:31:54</time>
      </trkpt>
      <trkpt lat="40.71273" lon="-3.90743">
        <ele>908.2</ele>
        <time>2021-11-16 11:31:55</time>
      </trkpt>
      <trkpt lat="40.71269" lon="-3.90749">
        <ele>908.2</ele>
        <time>2021-11-16 11:31:56</time>
      </trkpt>
      <trkpt lat="40.71265" lon="-3.90756">
        <ele>908.4</ele>
        <time>2021-11-16 11:31:57</time>
      </trkpt>
      <trkpt lat="40.7126" lon="-3.90763">
        <ele>908.4</ele>
        <time>2021-11-16 11:31:58</time>
      </trkpt>
      <trkpt lat="40.71256" lon="-3.9077">
        <ele>908.6</ele>
        <time>2021-11-16 11:31:59</time>
      </trkpt>
      <trkpt lat="40.71252" lon="-3.90777">
        <ele>908.6</ele>
        <time>2021-11-16 11:32:00</time>
      </trkpt>
      <trkpt lat="40.71248" lon="-3.90784">
        <ele>908.6</ele>
        <time>2021-11-16 11:32:01</time>
      </trkpt>
      <trkpt lat="40.71244" lon="-3.9079">
        <ele>908.6</ele>
        <time>2021-11-16 11:32:02</time>
      </trkpt>
      <trkpt lat="40.7124" lon="-3.90797">
        <ele>908.8</ele>
        <time>2021-11-16 11:32:03</time>
      </trkpt>
      <trkpt lat="40.71236" lon="-3.90804">
        <ele>909</ele>
        <time>2021-11-16 11:32:04</time>
      </trkpt>
      <trkpt lat="40.71232" lon="-3.90811">
        <ele>909</ele>
        <time>2021-11-16 11:32:05</time>
      </trkpt>
      <trkpt lat="40.71227" lon="-3.90818">
        <ele>909</ele>
        <time>2021-11-16 11:32:06</time>
      </trkpt>
      <trkpt lat="40.71223" lon="-3.90825">
        <ele>909.2</ele>
        <time>2021-11-16 11:32:07</time>
      </trkpt>
      <trkpt lat="40.71219" lon="-3.90832">
        <ele>909.2</ele>
        <time>2021-11-16 11:32:08</time>
      </trkpt>
      <trkpt lat="40.71215" lon="-3.90839">
        <ele>909.4</ele>
        <time>2021-11-16 11:32:09</time>
      </trkpt>
      <trkpt lat="40.71211" lon="-3.90846">
        <ele>909.4</ele>
        <time>2021-11-16 11:32:10</time>
      </trkpt>
      <trkpt lat="40.71206" lon="-3.90853">
        <ele>909.6</ele>
        <time>2021-11-16 11:32:11</time>
      </trkpt>
      <trkpt lat="40.71201" lon="-3.9086">
        <ele>909.6</ele>
        <time>2021-11-16 11:32:12</time>
      </trkpt>
      <trkpt lat="40.71197" lon="-3.90866">
        <ele>909.4</ele>
        <time>2021-11-16 11:32:13</time>
      </trkpt>
      <trkpt lat="40.71192" lon="-3.90873">
        <ele>909.6</ele>
        <time>2021-11-16 11:32:14</time>
      </trkpt>
      <trkpt lat="40.71187" lon="-3.90879">
        <ele>909.6</ele>
        <time>2021-11-16 11:32:15</time>
      </trkpt>
      <trkpt lat="40.71182" lon="-3.90885">
        <ele>909.6</ele>
        <time>2021-11-16 11:32:16</time>
      </trkpt>
      <trkpt lat="40.71177" lon="-3.90891">
        <ele>909.8</ele>
        <time>2021-11-16 11:32:17</time>
      </trkpt>
      <trkpt lat="40.71172" lon="-3.90897">
        <ele>909.8</ele>
        <time>2021-11-16 11:32:18</time>
      </trkpt>
      <trkpt lat="40.71166" lon="-3.90902">
        <ele>910</ele>
        <time>2021-11-16 11:32:19</time>
      </trkpt>
      <trkpt lat="40.71161" lon="-3.90908">
        <ele>910</ele>
        <time>2021-11-16 11:32:20</time>
      </trkpt>
      <trkpt lat="40.71155" lon="-3.90914">
        <ele>910</ele>
        <time>2021-11-16 11:32:21</time>
      </trkpt>
      <trkpt lat="40.7115" lon="-3.90919">
        <ele>910</ele>
        <time>2021-11-16 11:32:22</time>
      </trkpt>
      <trkpt lat="40.71144" lon="-3.90925">
        <ele>910.2</ele>
        <time>2021-11-16 11:32:23</time>
      </trkpt>
      <trkpt lat="40.71139" lon="-3.90931">
        <ele>910.2</ele>
        <time>2021-11-16 11:32:24</time>
      </trkpt>
      <trkpt lat="40.71133" lon="-3.90937">
        <ele>910.2</ele>
        <time>2021-11-16 11:32:25</time>
      </trkpt>
      <trkpt lat="40.71128" lon="-3.90942">
        <ele>910.4</ele>
        <time>2021-11-16 11:32:26</time>
      </trkpt>
      <trkpt lat="40.71122" lon="-3.90948">
        <ele>910.4</ele>
        <time>2021-11-16 11:32:27</time>
      </trkpt>
      <trkpt lat="40.71117" lon="-3.90954">
        <ele>910.4</ele>
        <time>2021-11-16 11:32:28</time>
      </trkpt>
      <trkpt lat="40.71111" lon="-3.90959">
        <ele>910.4</ele>
        <time>2021-11-16 11:32:29</time>
      </trkpt>
      <trkpt lat="40.71106" lon="-3.90965">
        <ele>910.4</ele>
        <time>2021-11-16 11:32:30</time>
      </trkpt>
      <trkpt lat="40.711" lon="-3.90971">
        <ele>910.2</ele>
        <time>2021-11-16 11:32:31</time>
      </trkpt>
      <trkpt lat="40.71095" lon="-3.90976">
        <ele>910.6</ele>
        <time>2021-11-16 11:32:32</time>
      </trkpt>
      <trkpt lat="40.71089" lon="-3.90982">
        <ele>910.6</ele>
        <time>2021-11-16 11:32:33</time>
      </trkpt>
      <trkpt lat="40.71084" lon="-3.90987">
        <ele>910.4</ele>
        <time>2021-11-16 11:32:34</time>
      </trkpt>
      <trkpt lat="40.71078" lon="-3.90993">
        <ele>910.4</ele>
        <time>2021-11-16 11:32:35</time>
      </trkpt>
      <trkpt lat="40.71073" lon="-3.90999">
        <ele>910.4</ele>
        <time>2021-11-16 11:32:36</time>
      </trkpt>
      <trkpt lat="40.71068" lon="-3.91004">
        <ele>910.2</ele>
        <time>2021-11-16 11:32:37</time>
      </trkpt>
      <trkpt lat="40.71062" lon="-3.9101">
        <ele>910.2</ele>
        <time>2021-11-16 11:32:38</time>
      </trkpt>
      <trkpt lat="40.71057" lon="-3.91015">
        <ele>910.2</ele>
        <time>2021-11-16 11:32:39</time>
      </trkpt>
      <trkpt lat="40.71052" lon="-3.91021">
        <ele>910.2</ele>
        <time>2021-11-16 11:32:40</time>
      </trkpt>
      <trkpt lat="40.71047" lon="-3.91027">
        <ele>910.2</ele>
        <time>2021-11-16 11:32:41</time>
      </trkpt>
      <trkpt lat="40.71041" lon="-3.91033">
        <ele>910.2</ele>
        <time>2021-11-16 11:32:42</time>
      </trkpt>
      <trkpt lat="40.71036" lon="-3.91039">
        <ele>910.2</ele>
        <time>2021-11-16 11:32:43</time>
      </trkpt>
      <trkpt lat="40.71031" lon="-3.91045">
        <ele>910.2</ele>
        <time>2021-11-16 11:32:44</time>
      </trkpt>
      <trkpt lat="40.71027" lon="-3.91052">
        <ele>910.2</ele>
        <time>2021-11-16 11:32:45</time>
      </trkpt>
      <trkpt lat="40.71022" lon="-3.91059">
        <ele>910.2</ele>
        <time>2021-11-16 11:32:46</time>
      </trkpt>
      <trkpt lat="40.71017" lon="-3.91065">
        <ele>910.2</ele>
        <time>2021-11-16 11:32:47</time>
      </trkpt>
      <trkpt lat="40.71012" lon="-3.91072">
        <ele>910</ele>
        <time>2021-11-16 11:32:48</time>
      </trkpt>
      <trkpt lat="40.71007" lon="-3.91079">
        <ele>910</ele>
        <time>2021-11-16 11:32:49</time>
      </trkpt>
      <trkpt lat="40.71003" lon="-3.91086">
        <ele>910</ele>
        <time>2021-11-16 11:32:50</time>
      </trkpt>
      <trkpt lat="40.70998" lon="-3.91092">
        <ele>910.2</ele>
        <time>2021-11-16 11:32:51</time>
      </trkpt>
      <trkpt lat="40.70994" lon="-3.91099">
        <ele>910.2</ele>
        <time>2021-11-16 11:32:52</time>
      </trkpt>
      <trkpt lat="40.70989" lon="-3.91105">
        <ele>910</ele>
        <time>2021-11-16 11:32:53</time>
      </trkpt>
      <trkpt lat="40.70985" lon="-3.91112">
        <ele>910.2</ele>
        <time>2021-11-16 11:32:54</time>
      </trkpt>
      <trkpt lat="40.7098" lon="-3.91119">
        <ele>910.2</ele>
        <time>2021-11-16 11:32:55</time>
      </trkpt>
      <trkpt lat="40.70976" lon="-3.91125">
        <ele>910.4</ele>
        <time>2021-11-16 11:32:56</time>
      </trkpt>
      <trkpt lat="40.70971" lon="-3.91132">
        <ele>910.4</ele>
        <time>2021-11-16 11:32:57</time>
      </trkpt>
      <trkpt lat="40.70967" lon="-3.91138">
        <ele>910.6</ele>
        <time>2021-11-16 11:32:58</time>
      </trkpt>
      <trkpt lat="40.70962" lon="-3.91145">
        <ele>910.6</ele>
        <time>2021-11-16 11:32:59</time>
      </trkpt>
      <trkpt lat="40.70958" lon="-3.91152">
        <ele>910.8</ele>
        <time>2021-11-16 11:33:00</time>
      </trkpt>
      <trkpt lat="40.70953" lon="-3.91158">
        <ele>910.8</ele>
        <time>2021-11-16 11:33:01</time>
      </trkpt>
      <trkpt lat="40.70948" lon="-3.91165">
        <ele>910.8</ele>
        <time>2021-11-16 11:33:02</time>
      </trkpt>
      <trkpt lat="40.70944" lon="-3.91172">
        <ele>910.8</ele>
        <time>2021-11-16 11:33:03</time>
      </trkpt>
      <trkpt lat="40.7094" lon="-3.91178">
        <ele>910.8</ele>
        <time>2021-11-16 11:33:04</time>
      </trkpt>
      <trkpt lat="40.70935" lon="-3.91185">
        <ele>910.6</ele>
        <time>2021-11-16 11:33:05</time>
      </trkpt>
      <trkpt lat="40.70931" lon="-3.91192">
        <ele>910.8</ele>
        <time>2021-11-16 11:33:06</time>
      </trkpt>
      <trkpt lat="40.70926" lon="-3.91198">
        <ele>910.8</ele>
        <time>2021-11-16 11:33:07</time>
      </trkpt>
      <trkpt lat="40.70922" lon="-3.91205">
        <ele>910.8</ele>
        <time>2021-11-16 11:33:08</time>
      </trkpt>
      <trkpt lat="40.70917" lon="-3.91212">
        <ele>911</ele>
        <time>2021-11-16 11:33:09</time>
      </trkpt>
      <trkpt lat="40.70913" lon="-3.91218">
        <ele>911.2</ele>
        <time>2021-11-16 11:33:10</time>
      </trkpt>
      <trkpt lat="40.70908" lon="-3.91225">
        <ele>911.4</ele>
        <time>2021-11-16 11:33:11</time>
      </trkpt>
      <trkpt lat="40.70904" lon="-3.91231">
        <ele>911.4</ele>
        <time>2021-11-16 11:33:12</time>
      </trkpt>
      <trkpt lat="40.70899" lon="-3.91238">
        <ele>911.4</ele>
        <time>2021-11-16 11:33:13</time>
      </trkpt>
      <trkpt lat="40.70895" lon="-3.91245">
        <ele>911.4</ele>
        <time>2021-11-16 11:33:14</time>
      </trkpt>
      <trkpt lat="40.7089" lon="-3.91251">
        <ele>911.6</ele>
        <time>2021-11-16 11:33:15</time>
      </trkpt>
      <trkpt lat="40.70886" lon="-3.91258">
        <ele>911.6</ele>
        <time>2021-11-16 11:33:16</time>
      </trkpt>
      <trkpt lat="40.70881" lon="-3.91265">
        <ele>911.8</ele>
        <time>2021-11-16 11:33:17</time>
      </trkpt>
      <trkpt lat="40.70877" lon="-3.91271">
        <ele>911.8</ele>
        <time>2021-11-16 11:33:18</time>
      </trkpt>
      <trkpt lat="40.70872" lon="-3.91278">
        <ele>912</ele>
        <time>2021-11-16 11:33:19</time>
      </trkpt>
      <trkpt lat="40.70868" lon="-3.91284">
        <ele>912</ele>
        <time>2021-11-16 11:33:20</time>
      </trkpt>
      <trkpt lat="40.70863" lon="-3.91291">
        <ele>912</ele>
        <time>2021-11-16 11:33:21</time>
      </trkpt>
      <trkpt lat="40.70859" lon="-3.91298">
        <ele>912</ele>
        <time>2021-11-16 11:33:22</time>
      </trkpt>
      <trkpt lat="40.70854" lon="-3.91304">
        <ele>912</ele>
        <time>2021-11-16 11:33:23</time>
      </trkpt>
      <trkpt lat="40.7085" lon="-3.91311">
        <ele>912.2</ele>
        <time>2021-11-16 11:33:24</time>
      </trkpt>
      <trkpt lat="40.70846" lon="-3.91317">
        <ele>912.2</ele>
        <time>2021-11-16 11:33:25</time>
      </trkpt>
      <trkpt lat="40.70841" lon="-3.91324">
        <ele>912</ele>
        <time>2021-11-16 11:33:26</time>
      </trkpt>
      <trkpt lat="40.70837" lon="-3.91331">
        <ele>912.2</ele>
        <time>2021-11-16 11:33:27</time>
      </trkpt>
      <trkpt lat="40.70832" lon="-3.91337">
        <ele>912.2</ele>
        <time>2021-11-16 11:33:28</time>
      </trkpt>
      <trkpt lat="40.70828" lon="-3.91344">
        <ele>912.2</ele>
        <time>2021-11-16 11:33:29</time>
      </trkpt>
      <trkpt lat="40.70824" lon="-3.9135">
        <ele>912.2</ele>
        <time>2021-11-16 11:33:30</time>
      </trkpt>
      <trkpt lat="40.70819" lon="-3.91356">
        <ele>912.2</ele>
        <time>2021-11-16 11:33:31</time>
      </trkpt>
      <trkpt lat="40.70815" lon="-3.91363">
        <ele>912.2</ele>
        <time>2021-11-16 11:33:32</time>
      </trkpt>
      <trkpt lat="40.70811" lon="-3.91369">
        <ele>912.2</ele>
        <time>2021-11-16 11:33:33</time>
      </trkpt>
      <trkpt lat="40.70806" lon="-3.91376">
        <ele>912.4</ele>
        <time>2021-11-16 11:33:34</time>
      </trkpt>
      <trkpt lat="40.70802" lon="-3.91382">
        <ele>912.6</ele>
        <time>2021-11-16 11:33:35</time>
      </trkpt>
      <trkpt lat="40.70797" lon="-3.91388">
        <ele>912.6</ele>
        <time>2021-11-16 11:33:36</time>
      </trkpt>
      <trkpt lat="40.70793" lon="-3.91395">
        <ele>912.8</ele>
        <time>2021-11-16 11:33:37</time>
      </trkpt>
      <trkpt lat="40.70789" lon="-3.91401">
        <ele>912.8</ele>
        <time>2021-11-16 11:33:38</time>
      </trkpt>
      <trkpt lat="40.70785" lon="-3.91408">
        <ele>912.8</ele>
        <time>2021-11-16 11:33:39</time>
      </trkpt>
      <trkpt lat="40.7078" lon="-3.91414">
        <ele>912.8</ele>
        <time>2021-11-16 11:33:40</time>
      </trkpt>
      <trkpt lat="40.70776" lon="-3.91421">
        <ele>912.8</ele>
        <time>2021-11-16 11:33:41</time>
      </trkpt>
      <trkpt lat="40.70772" lon="-3.91428">
        <ele>913</ele>
        <time>2021-11-16 11:33:42</time>
      </trkpt>
      <trkpt lat="40.70768" lon="-3.91435">
        <ele>913</ele>
        <time>2021-11-16 11:33:43</time>
      </trkpt>
      <trkpt lat="40.70764" lon="-3.91442">
        <ele>912.8</ele>
        <time>2021-11-16 11:33:44</time>
      </trkpt>
      <trkpt lat="40.7076" lon="-3.91449">
        <ele>913</ele>
        <time>2021-11-16 11:33:45</time>
      </trkpt>
      <trkpt lat="40.70756" lon="-3.91457">
        <ele>913</ele>
        <time>2021-11-16 11:33:46</time>
      </trkpt>
      <trkpt lat="40.70753" lon="-3.91464">
        <ele>913.2</ele>
        <time>2021-11-16 11:33:47</time>
      </trkpt>
      <trkpt lat="40.70749" lon="-3.91472">
        <ele>913.4</ele>
        <time>2021-11-16 11:33:48</time>
      </trkpt>
      <trkpt lat="40.70746" lon="-3.91479">
        <ele>913.2</ele>
        <time>2021-11-16 11:33:49</time>
      </trkpt>
      <trkpt lat="40.70742" lon="-3.91486">
        <ele>913.4</ele>
        <time>2021-11-16 11:33:50</time>
      </trkpt>
      <trkpt lat="40.70738" lon="-3.91494">
        <ele>913.4</ele>
        <time>2021-11-16 11:33:51</time>
      </trkpt>
      <trkpt lat="40.70735" lon="-3.91502">
        <ele>913.4</ele>
        <time>2021-11-16 11:33:52</time>
      </trkpt>
      <trkpt lat="40.70731" lon="-3.9151">
        <ele>913.6</ele>
        <time>2021-11-16 11:33:53</time>
      </trkpt>
      <trkpt lat="40.70728" lon="-3.91517">
        <ele>913.6</ele>
        <time>2021-11-16 11:33:54</time>
      </trkpt>
      <trkpt lat="40.70724" lon="-3.91525">
        <ele>914</ele>
        <time>2021-11-16 11:33:55</time>
      </trkpt>
      <trkpt lat="40.70721" lon="-3.91533">
        <ele>914.2</ele>
        <time>2021-11-16 11:33:56</time>
      </trkpt>
      <trkpt lat="40.70717" lon="-3.91541">
        <ele>914.4</ele>
        <time>2021-11-16 11:33:57</time>
      </trkpt>
      <trkpt lat="40.70713" lon="-3.91549">
        <ele>914.4</ele>
        <time>2021-11-16 11:33:58</time>
      </trkpt>
      <trkpt lat="40.7071" lon="-3.91557">
        <ele>914.4</ele>
        <time>2021-11-16 11:33:59</time>
      </trkpt>
      <trkpt lat="40.70706" lon="-3.91564">
        <ele>914.4</ele>
        <time>2021-11-16 11:34:00</time>
      </trkpt>
      <trkpt lat="40.70702" lon="-3.91572">
        <ele>914.4</ele>
        <time>2021-11-16 11:34:01</time>
      </trkpt>
      <trkpt lat="40.70699" lon="-3.9158">
        <ele>914.4</ele>
        <time>2021-11-16 11:34:02</time>
      </trkpt>
      <trkpt lat="40.70695" lon="-3.91588">
        <ele>914.4</ele>
        <time>2021-11-16 11:34:03</time>
      </trkpt>
      <trkpt lat="40.70691" lon="-3.91595">
        <ele>914.4</ele>
        <time>2021-11-16 11:34:04</time>
      </trkpt>
      <trkpt lat="40.70688" lon="-3.91603">
        <ele>914.4</ele>
        <time>2021-11-16 11:34:05</time>
      </trkpt>
      <trkpt lat="40.70684" lon="-3.91611">
        <ele>914.4</ele>
        <time>2021-11-16 11:34:06</time>
      </trkpt>
      <trkpt lat="40.7068" lon="-3.91619">
        <ele>914.6</ele>
        <time>2021-11-16 11:34:07</time>
      </trkpt>
      <trkpt lat="40.70677" lon="-3.91627">
        <ele>914.6</ele>
        <time>2021-11-16 11:34:08</time>
      </trkpt>
      <trkpt lat="40.70673" lon="-3.91635">
        <ele>914.6</ele>
        <time>2021-11-16 11:34:09</time>
      </trkpt>
      <trkpt lat="40.70669" lon="-3.91642">
        <ele>914.6</ele>
        <time>2021-11-16 11:34:10</time>
      </trkpt>
      <trkpt lat="40.70665" lon="-3.9165">
        <ele>914.4</ele>
        <time>2021-11-16 11:34:11</time>
      </trkpt>
      <trkpt lat="40.70662" lon="-3.91658">
        <ele>914.4</ele>
        <time>2021-11-16 11:34:12</time>
      </trkpt>
      <trkpt lat="40.70658" lon="-3.91666">
        <ele>914.4</ele>
        <time>2021-11-16 11:34:13</time>
      </trkpt>
      <trkpt lat="40.70655" lon="-3.91674">
        <ele>914.4</ele>
        <time>2021-11-16 11:34:14</time>
      </trkpt>
      <trkpt lat="40.70651" lon="-3.91682">
        <ele>914.6</ele>
        <time>2021-11-16 11:34:15</time>
      </trkpt>
      <trkpt lat="40.70648" lon="-3.91689">
        <ele>914.4</ele>
        <time>2021-11-16 11:34:16</time>
      </trkpt>
      <trkpt lat="40.70644" lon="-3.91696">
        <ele>914.4</ele>
        <time>2021-11-16 11:34:17</time>
      </trkpt>
      <trkpt lat="40.70641" lon="-3.91704">
        <ele>914.4</ele>
        <time>2021-11-16 11:34:18</time>
      </trkpt>
      <trkpt lat="40.70638" lon="-3.91711">
        <ele>914.4</ele>
        <time>2021-11-16 11:34:19</time>
      </trkpt>
      <trkpt lat="40.70634" lon="-3.91719">
        <ele>914.4</ele>
        <time>2021-11-16 11:34:20</time>
      </trkpt>
      <trkpt lat="40.70631" lon="-3.91726">
        <ele>914.6</ele>
        <time>2021-11-16 11:34:21</time>
      </trkpt>
      <trkpt lat="40.70627" lon="-3.91734">
        <ele>914.8</ele>
        <time>2021-11-16 11:34:22</time>
      </trkpt>
      <trkpt lat="40.70624" lon="-3.91741">
        <ele>915</ele>
        <time>2021-11-16 11:34:23</time>
      </trkpt>
      <trkpt lat="40.7062" lon="-3.91749">
        <ele>915</ele>
        <time>2021-11-16 11:34:24</time>
      </trkpt>
      <trkpt lat="40.70617" lon="-3.91756">
        <ele>915.2</ele>
        <time>2021-11-16 11:34:25</time>
      </trkpt>
      <trkpt lat="40.70614" lon="-3.91763">
        <ele>915.2</ele>
        <time>2021-11-16 11:34:26</time>
      </trkpt>
      <trkpt lat="40.7061" lon="-3.91771">
        <ele>915.2</ele>
        <time>2021-11-16 11:34:27</time>
      </trkpt>
      <trkpt lat="40.70607" lon="-3.91778">
        <ele>915.2</ele>
        <time>2021-11-16 11:34:28</time>
      </trkpt>
      <trkpt lat="40.70604" lon="-3.91785">
        <ele>915.2</ele>
        <time>2021-11-16 11:34:29</time>
      </trkpt>
      <trkpt lat="40.706" lon="-3.91793">
        <ele>915.2</ele>
        <time>2021-11-16 11:34:30</time>
      </trkpt>
      <trkpt lat="40.70597" lon="-3.918">
        <ele>915.4</ele>
        <time>2021-11-16 11:34:31</time>
      </trkpt>
      <trkpt lat="40.70593" lon="-3.91807">
        <ele>915.4</ele>
        <time>2021-11-16 11:34:32</time>
      </trkpt>
      <trkpt lat="40.7059" lon="-3.91815">
        <ele>915.4</ele>
        <time>2021-11-16 11:34:33</time>
      </trkpt>
      <trkpt lat="40.70586" lon="-3.91822">
        <ele>915.4</ele>
        <time>2021-11-16 11:34:34</time>
      </trkpt>
      <trkpt lat="40.70583" lon="-3.91829">
        <ele>915.4</ele>
        <time>2021-11-16 11:34:35</time>
      </trkpt>
      <trkpt lat="40.7058" lon="-3.91837">
        <ele>915.4</ele>
        <time>2021-11-16 11:34:36</time>
      </trkpt>
      <trkpt lat="40.70576" lon="-3.91844">
        <ele>915.6</ele>
        <time>2021-11-16 11:34:37</time>
      </trkpt>
      <trkpt lat="40.70573" lon="-3.91851">
        <ele>915.8</ele>
        <time>2021-11-16 11:34:38</time>
      </trkpt>
      <trkpt lat="40.70569" lon="-3.91859">
        <ele>916</ele>
        <time>2021-11-16 11:34:39</time>
      </trkpt>
      <trkpt lat="40.70566" lon="-3.91866">
        <ele>916.2</ele>
        <time>2021-11-16 11:34:40</time>
      </trkpt>
      <trkpt lat="40.70563" lon="-3.91874">
        <ele>916.2</ele>
        <time>2021-11-16 11:34:41</time>
      </trkpt>
      <trkpt lat="40.70559" lon="-3.91881">
        <ele>916.4</ele>
        <time>2021-11-16 11:34:42</time>
      </trkpt>
      <trkpt lat="40.70556" lon="-3.91888">
        <ele>916.4</ele>
        <time>2021-11-16 11:34:43</time>
      </trkpt>
      <trkpt lat="40.70552" lon="-3.91896">
        <ele>916.4</ele>
        <time>2021-11-16 11:34:44</time>
      </trkpt>
      <trkpt lat="40.70549" lon="-3.91903">
        <ele>916.4</ele>
        <time>2021-11-16 11:34:45</time>
      </trkpt>
      <trkpt lat="40.70545" lon="-3.9191">
        <ele>916.4</ele>
        <time>2021-11-16 11:34:46</time>
      </trkpt>
      <trkpt lat="40.70542" lon="-3.91918">
        <ele>916.6</ele>
        <time>2021-11-16 11:34:47</time>
      </trkpt>
      <trkpt lat="40.70538" lon="-3.91925">
        <ele>916.4</ele>
        <time>2021-11-16 11:34:48</time>
      </trkpt>
      <trkpt lat="40.70535" lon="-3.91932">
        <ele>916.8</ele>
        <time>2021-11-16 11:34:49</time>
      </trkpt>
      <trkpt lat="40.70531" lon="-3.91939">
        <ele>916.8</ele>
        <time>2021-11-16 11:34:50</time>
      </trkpt>
      <trkpt lat="40.70528" lon="-3.91945">
        <ele>916.8</ele>
        <time>2021-11-16 11:34:51</time>
      </trkpt>
      <trkpt lat="40.70524" lon="-3.91952">
        <ele>917</ele>
        <time>2021-11-16 11:34:52</time>
      </trkpt>
      <trkpt lat="40.7052" lon="-3.91959">
        <ele>917</ele>
        <time>2021-11-16 11:34:53</time>
      </trkpt>
      <trkpt lat="40.70516" lon="-3.91966">
        <ele>917.2</ele>
        <time>2021-11-16 11:34:54</time>
      </trkpt>
      <trkpt lat="40.70511" lon="-3.91972">
        <ele>917.2</ele>
        <time>2021-11-16 11:34:55</time>
      </trkpt>
      <trkpt lat="40.70507" lon="-3.91978">
        <ele>917.2</ele>
        <time>2021-11-16 11:34:56</time>
      </trkpt>
      <trkpt lat="40.70503" lon="-3.91985">
        <ele>917.2</ele>
        <time>2021-11-16 11:34:57</time>
      </trkpt>
      <trkpt lat="40.70498" lon="-3.9199">
        <ele>917.4</ele>
        <time>2021-11-16 11:34:58</time>
      </trkpt>
      <trkpt lat="40.70493" lon="-3.91996">
        <ele>917.4</ele>
        <time>2021-11-16 11:34:59</time>
      </trkpt>
      <trkpt lat="40.70488" lon="-3.92002">
        <ele>917.4</ele>
        <time>2021-11-16 11:35:00</time>
      </trkpt>
      <trkpt lat="40.70483" lon="-3.92007">
        <ele>917.6</ele>
        <time>2021-11-16 11:35:01</time>
      </trkpt>
      <trkpt lat="40.70478" lon="-3.92013">
        <ele>917.6</ele>
        <time>2021-11-16 11:35:02</time>
      </trkpt>
      <trkpt lat="40.70473" lon="-3.92018">
        <ele>917.6</ele>
        <time>2021-11-16 11:35:03</time>
      </trkpt>
      <trkpt lat="40.70468" lon="-3.92023">
        <ele>917.8</ele>
        <time>2021-11-16 11:35:04</time>
      </trkpt>
      <trkpt lat="40.70462" lon="-3.92029">
        <ele>917.8</ele>
        <time>2021-11-16 11:35:05</time>
      </trkpt>
      <trkpt lat="40.70457" lon="-3.92034">
        <ele>918</ele>
        <time>2021-11-16 11:35:06</time>
      </trkpt>
      <trkpt lat="40.70452" lon="-3.92039">
        <ele>918</ele>
        <time>2021-11-16 11:35:07</time>
      </trkpt>
      <trkpt lat="40.70447" lon="-3.92044">
        <ele>918</ele>
        <time>2021-11-16 11:35:08</time>
      </trkpt>
      <trkpt lat="40.70442" lon="-3.92049">
        <ele>918</ele>
        <time>2021-11-16 11:35:09</time>
      </trkpt>
      <trkpt lat="40.70437" lon="-3.92054">
        <ele>918.2</ele>
        <time>2021-11-16 11:35:10</time>
      </trkpt>
      <trkpt lat="40.70432" lon="-3.92059">
        <ele>918.2</ele>
        <time>2021-11-16 11:35:11</time>
      </trkpt>
      <trkpt lat="40.70427" lon="-3.92064">
        <ele>918.4</ele>
        <time>2021-11-16 11:35:12</time>
      </trkpt>
      <trkpt lat="40.70422" lon="-3.92069">
        <ele>918.4</ele>
        <time>2021-11-16 11:35:13</time>
      </trkpt>
      <trkpt lat="40.70417" lon="-3.92074">
        <ele>918.4</ele>
        <time>2021-11-16 11:35:14</time>
      </trkpt>
      <trkpt lat="40.70413" lon="-3.92078">
        <ele>918.6</ele>
        <time>2021-11-16 11:35:15</time>
      </trkpt>
      <trkpt lat="40.70408" lon="-3.92083">
        <ele>918.6</ele>
        <time>2021-11-16 11:35:16</time>
      </trkpt>
      <trkpt lat="40.70403" lon="-3.92088">
        <ele>919.2</ele>
        <time>2021-11-16 11:35:17</time>
      </trkpt>
      <trkpt lat="40.70398" lon="-3.92093">
        <ele>919.6</ele>
        <time>2021-11-16 11:35:18</time>
      </trkpt>
      <trkpt lat="40.70393" lon="-3.92098">
        <ele>919.8</ele>
        <time>2021-11-16 11:35:19</time>
      </trkpt>
      <trkpt lat="40.70389" lon="-3.92103">
        <ele>920</ele>
        <time>2021-11-16 11:35:20</time>
      </trkpt>
      <trkpt lat="40.70384" lon="-3.92108">
        <ele>920</ele>
        <time>2021-11-16 11:35:21</time>
      </trkpt>
      <trkpt lat="40.70379" lon="-3.92113">
        <ele>920.2</ele>
        <time>2021-11-16 11:35:22</time>
      </trkpt>
      <trkpt lat="40.70374" lon="-3.92118">
        <ele>920.6</ele>
        <time>2021-11-16 11:35:23</time>
      </trkpt>
      <trkpt lat="40.70369" lon="-3.92123">
        <ele>920.8</ele>
        <time>2021-11-16 11:35:24</time>
      </trkpt>
      <trkpt lat="40.70364" lon="-3.92128">
        <ele>921</ele>
        <time>2021-11-16 11:35:25</time>
      </trkpt>
      <trkpt lat="40.7036" lon="-3.92133">
        <ele>921.2</ele>
        <time>2021-11-16 11:35:26</time>
      </trkpt>
      <trkpt lat="40.70355" lon="-3.92138">
        <ele>921.6</ele>
        <time>2021-11-16 11:35:27</time>
      </trkpt>
      <trkpt lat="40.7035" lon="-3.92143">
        <ele>921.6</ele>
        <time>2021-11-16 11:35:28</time>
      </trkpt>
      <trkpt lat="40.70346" lon="-3.92148">
        <ele>921.8</ele>
        <time>2021-11-16 11:35:29</time>
      </trkpt>
      <trkpt lat="40.70341" lon="-3.92153">
        <ele>922</ele>
        <time>2021-11-16 11:35:30</time>
      </trkpt>
      <trkpt lat="40.70337" lon="-3.92159">
        <ele>922</ele>
        <time>2021-11-16 11:35:31</time>
      </trkpt>
      <trkpt lat="40.70333" lon="-3.92164">
        <ele>922</ele>
        <time>2021-11-16 11:35:32</time>
      </trkpt>
      <trkpt lat="40.70328" lon="-3.9217">
        <ele>922.2</ele>
        <time>2021-11-16 11:35:33</time>
      </trkpt>
      <trkpt lat="40.70324" lon="-3.92176">
        <ele>922.2</ele>
        <time>2021-11-16 11:35:34</time>
      </trkpt>
      <trkpt lat="40.7032" lon="-3.92181">
        <ele>922.6</ele>
        <time>2021-11-16 11:35:35</time>
      </trkpt>
      <trkpt lat="40.70316" lon="-3.92187">
        <ele>922.4</ele>
        <time>2021-11-16 11:35:36</time>
      </trkpt>
      <trkpt lat="40.70312" lon="-3.92194">
        <ele>922.6</ele>
        <time>2021-11-16 11:35:37</time>
      </trkpt>
      <trkpt lat="40.70309" lon="-3.922">
        <ele>922.8</ele>
        <time>2021-11-16 11:35:38</time>
      </trkpt>
      <trkpt lat="40.70305" lon="-3.92207">
        <ele>923</ele>
        <time>2021-11-16 11:35:39</time>
      </trkpt>
      <trkpt lat="40.70302" lon="-3.92213">
        <ele>923</ele>
        <time>2021-11-16 11:35:40</time>
      </trkpt>
      <trkpt lat="40.70299" lon="-3.9222">
        <ele>923</ele>
        <time>2021-11-16 11:35:41</time>
      </trkpt>
      <trkpt lat="40.70295" lon="-3.92226">
        <ele>923</ele>
        <time>2021-11-16 11:35:42</time>
      </trkpt>
      <trkpt lat="40.70292" lon="-3.92233">
        <ele>923.2</ele>
        <time>2021-11-16 11:35:43</time>
      </trkpt>
      <trkpt lat="40.7029" lon="-3.9224">
        <ele>923.4</ele>
        <time>2021-11-16 11:35:44</time>
      </trkpt>
      <trkpt lat="40.70287" lon="-3.92247">
        <ele>923.4</ele>
        <time>2021-11-16 11:35:45</time>
      </trkpt>
      <trkpt lat="40.70284" lon="-3.92254">
        <ele>923.6</ele>
        <time>2021-11-16 11:35:46</time>
      </trkpt>
      <trkpt lat="40.70282" lon="-3.92261">
        <ele>924</ele>
        <time>2021-11-16 11:35:47</time>
      </trkpt>
      <trkpt lat="40.70279" lon="-3.92269">
        <ele>924.2</ele>
        <time>2021-11-16 11:35:48</time>
      </trkpt>
      <trkpt lat="40.70277" lon="-3.92276">
        <ele>924.4</ele>
        <time>2021-11-16 11:35:49</time>
      </trkpt>
      <trkpt lat="40.70274" lon="-3.92282">
        <ele>924.6</ele>
        <time>2021-11-16 11:35:50</time>
      </trkpt>
      <trkpt lat="40.70272" lon="-3.92289">
        <ele>924.6</ele>
        <time>2021-11-16 11:35:51</time>
      </trkpt>
      <trkpt lat="40.7027" lon="-3.92296">
        <ele>924.6</ele>
        <time>2021-11-16 11:35:52</time>
      </trkpt>
      <trkpt lat="40.70267" lon="-3.92303">
        <ele>924.8</ele>
        <time>2021-11-16 11:35:53</time>
      </trkpt>
      <trkpt lat="40.70265" lon="-3.9231">
        <ele>924.6</ele>
        <time>2021-11-16 11:35:54</time>
      </trkpt>
      <trkpt lat="40.70263" lon="-3.92317">
        <ele>924.6</ele>
        <time>2021-11-16 11:35:55</time>
      </trkpt>
      <trkpt lat="40.7026" lon="-3.92324">
        <ele>925</ele>
        <time>2021-11-16 11:35:56</time>
      </trkpt>
      <trkpt lat="40.70258" lon="-3.92331">
        <ele>925.2</ele>
        <time>2021-11-16 11:35:57</time>
      </trkpt>
      <trkpt lat="40.70256" lon="-3.92338">
        <ele>925.2</ele>
        <time>2021-11-16 11:35:58</time>
      </trkpt>
      <trkpt lat="40.70254" lon="-3.92344">
        <ele>925.4</ele>
        <time>2021-11-16 11:35:59</time>
      </trkpt>
      <trkpt lat="40.70251" lon="-3.92351">
        <ele>925.8</ele>
        <time>2021-11-16 11:36:00</time>
      </trkpt>
      <trkpt lat="40.70249" lon="-3.92358">
        <ele>926</ele>
        <time>2021-11-16 11:36:01</time>
      </trkpt>
      <trkpt lat="40.70247" lon="-3.92365">
        <ele>926</ele>
        <time>2021-11-16 11:36:02</time>
      </trkpt>
      <trkpt lat="40.70245" lon="-3.92372">
        <ele>926</ele>
        <time>2021-11-16 11:36:03</time>
      </trkpt>
      <trkpt lat="40.70243" lon="-3.92378">
        <ele>926.2</ele>
        <time>2021-11-16 11:36:04</time>
      </trkpt>
      <trkpt lat="40.7024" lon="-3.92385">
        <ele>926.4</ele>
        <time>2021-11-16 11:36:05</time>
      </trkpt>
      <trkpt lat="40.70238" lon="-3.92392">
        <ele>926.6</ele>
        <time>2021-11-16 11:36:06</time>
      </trkpt>
      <trkpt lat="40.70236" lon="-3.92398">
        <ele>926.6</ele>
        <time>2021-11-16 11:36:07</time>
      </trkpt>
      <trkpt lat="40.70234" lon="-3.92405">
        <ele>926.6</ele>
        <time>2021-11-16 11:36:08</time>
      </trkpt>
      <trkpt lat="40.70232" lon="-3.92412">
        <ele>927</ele>
        <time>2021-11-16 11:36:09</time>
      </trkpt>
      <trkpt lat="40.7023" lon="-3.92419">
        <ele>927.2</ele>
        <time>2021-11-16 11:36:10</time>
      </trkpt>
      <trkpt lat="40.70228" lon="-3.92426">
        <ele>927.2</ele>
        <time>2021-11-16 11:36:11</time>
      </trkpt>
      <trkpt lat="40.70226" lon="-3.92432">
        <ele>927.4</ele>
        <time>2021-11-16 11:36:12</time>
      </trkpt>
      <trkpt lat="40.70224" lon="-3.92439">
        <ele>927.6</ele>
        <time>2021-11-16 11:36:13</time>
      </trkpt>
      <trkpt lat="40.70222" lon="-3.92445">
        <ele>928</ele>
        <time>2021-11-16 11:36:14</time>
      </trkpt>
      <trkpt lat="40.7022" lon="-3.92451">
        <ele>928.4</ele>
        <time>2021-11-16 11:36:15</time>
      </trkpt>
      <trkpt lat="40.70218" lon="-3.92458">
        <ele>928.4</ele>
        <time>2021-11-16 11:36:16</time>
      </trkpt>
      <trkpt lat="40.70216" lon="-3.92465">
        <ele>928.6</ele>
        <time>2021-11-16 11:36:17</time>
      </trkpt>
      <trkpt lat="40.70214" lon="-3.92471">
        <ele>928.6</ele>
        <time>2021-11-16 11:36:18</time>
      </trkpt>
      <trkpt lat="40.70212" lon="-3.92478">
        <ele>928.8</ele>
        <time>2021-11-16 11:36:19</time>
      </trkpt>
      <trkpt lat="40.7021" lon="-3.92484">
        <ele>928.8</ele>
        <time>2021-11-16 11:36:20</time>
      </trkpt>
      <trkpt lat="40.70208" lon="-3.92491">
        <ele>928.8</ele>
        <time>2021-11-16 11:36:21</time>
      </trkpt>
      <trkpt lat="40.70206" lon="-3.92498">
        <ele>929</ele>
        <time>2021-11-16 11:36:22</time>
      </trkpt>
      <trkpt lat="40.70204" lon="-3.92504">
        <ele>929.2</ele>
        <time>2021-11-16 11:36:23</time>
      </trkpt>
      <trkpt lat="40.70202" lon="-3.92511">
        <ele>929.2</ele>
        <time>2021-11-16 11:36:24</time>
      </trkpt>
      <trkpt lat="40.70199" lon="-3.92518">
        <ele>929.4</ele>
        <time>2021-11-16 11:36:25</time>
      </trkpt>
      <trkpt lat="40.70197" lon="-3.92525">
        <ele>929.2</ele>
        <time>2021-11-16 11:36:26</time>
      </trkpt>
      <trkpt lat="40.70195" lon="-3.92531">
        <ele>929.4</ele>
        <time>2021-11-16 11:36:27</time>
      </trkpt>
      <trkpt lat="40.70193" lon="-3.92538">
        <ele>929.6</ele>
        <time>2021-11-16 11:36:28</time>
      </trkpt>
      <trkpt lat="40.70191" lon="-3.92545">
        <ele>929.6</ele>
        <time>2021-11-16 11:36:29</time>
      </trkpt>
      <trkpt lat="40.70188" lon="-3.92552">
        <ele>929.6</ele>
        <time>2021-11-16 11:36:30</time>
      </trkpt>
      <trkpt lat="40.70186" lon="-3.92559">
        <ele>929.8</ele>
        <time>2021-11-16 11:36:31</time>
      </trkpt>
      <trkpt lat="40.70184" lon="-3.92566">
        <ele>930</ele>
        <time>2021-11-16 11:36:32</time>
      </trkpt>
      <trkpt lat="40.70181" lon="-3.92573">
        <ele>930.2</ele>
        <time>2021-11-16 11:36:33</time>
      </trkpt>
      <trkpt lat="40.70179" lon="-3.9258">
        <ele>930.2</ele>
        <time>2021-11-16 11:36:34</time>
      </trkpt>
      <trkpt lat="40.70177" lon="-3.92587">
        <ele>930.2</ele>
        <time>2021-11-16 11:36:35</time>
      </trkpt>
      <trkpt lat="40.70175" lon="-3.92594">
        <ele>930.4</ele>
        <time>2021-11-16 11:36:36</time>
      </trkpt>
      <trkpt lat="40.70173" lon="-3.92601">
        <ele>930.4</ele>
        <time>2021-11-16 11:36:37</time>
      </trkpt>
      <trkpt lat="40.70171" lon="-3.92609">
        <ele>930.6</ele>
        <time>2021-11-16 11:36:38</time>
      </trkpt>
      <trkpt lat="40.70169" lon="-3.92616">
        <ele>930.8</ele>
        <time>2021-11-16 11:36:39</time>
      </trkpt>
      <trkpt lat="40.70168" lon="-3.92624">
        <ele>930.8</ele>
        <time>2021-11-16 11:36:40</time>
      </trkpt>
      <trkpt lat="40.70167" lon="-3.92631">
        <ele>931</ele>
        <time>2021-11-16 11:36:41</time>
      </trkpt>
      <trkpt lat="40.70166" lon="-3.92639">
        <ele>931</ele>
        <time>2021-11-16 11:36:42</time>
      </trkpt>
      <trkpt lat="40.70165" lon="-3.92647">
        <ele>931.2</ele>
        <time>2021-11-16 11:36:43</time>
      </trkpt>
      <trkpt lat="40.70164" lon="-3.92654">
        <ele>931.2</ele>
        <time>2021-11-16 11:36:44</time>
      </trkpt>
      <trkpt lat="40.70163" lon="-3.92662">
        <ele>931.4</ele>
        <time>2021-11-16 11:36:45</time>
      </trkpt>
      <trkpt lat="40.70163" lon="-3.9267">
        <ele>931.4</ele>
        <time>2021-11-16 11:36:46</time>
      </trkpt>
      <trkpt lat="40.70162" lon="-3.92678">
        <ele>931.6</ele>
        <time>2021-11-16 11:36:47</time>
      </trkpt>
      <trkpt lat="40.70162" lon="-3.92686">
        <ele>931.6</ele>
        <time>2021-11-16 11:36:48</time>
      </trkpt>
      <trkpt lat="40.70161" lon="-3.92694">
        <ele>931.4</ele>
        <time>2021-11-16 11:36:49</time>
      </trkpt>
      <trkpt lat="40.70161" lon="-3.92702">
        <ele>931.6</ele>
        <time>2021-11-16 11:36:50</time>
      </trkpt>
      <trkpt lat="40.7016" lon="-3.9271">
        <ele>931.6</ele>
        <time>2021-11-16 11:36:51</time>
      </trkpt>
      <trkpt lat="40.70158" lon="-3.92718">
        <ele>931.8</ele>
        <time>2021-11-16 11:36:52</time>
      </trkpt>
      <trkpt lat="40.70157" lon="-3.92726">
        <ele>931.8</ele>
        <time>2021-11-16 11:36:53</time>
      </trkpt>
      <trkpt lat="40.70156" lon="-3.92734">
        <ele>932</ele>
        <time>2021-11-16 11:36:54</time>
      </trkpt>
      <trkpt lat="40.70155" lon="-3.92742">
        <ele>932</ele>
        <time>2021-11-16 11:36:55</time>
      </trkpt>
      <trkpt lat="40.70153" lon="-3.9275">
        <ele>932.2</ele>
        <time>2021-11-16 11:36:56</time>
      </trkpt>
      <trkpt lat="40.70152" lon="-3.92758">
        <ele>932.2</ele>
        <time>2021-11-16 11:36:57</time>
      </trkpt>
      <trkpt lat="40.7015" lon="-3.92765">
        <ele>932.2</ele>
        <time>2021-11-16 11:36:58</time>
      </trkpt>
      <trkpt lat="40.70148" lon="-3.92773">
        <ele>932.4</ele>
        <time>2021-11-16 11:36:59</time>
      </trkpt>
      <trkpt lat="40.70146" lon="-3.92781">
        <ele>932.2</ele>
        <time>2021-11-16 11:37:00</time>
      </trkpt>
      <trkpt lat="40.70144" lon="-3.92788">
        <ele>932.4</ele>
        <time>2021-11-16 11:37:01</time>
      </trkpt>
      <trkpt lat="40.70141" lon="-3.92796">
        <ele>932.6</ele>
        <time>2021-11-16 11:37:02</time>
      </trkpt>
      <trkpt lat="40.70139" lon="-3.92803">
        <ele>932.4</ele>
        <time>2021-11-16 11:37:03</time>
      </trkpt>
      <trkpt lat="40.70136" lon="-3.9281">
        <ele>932.6</ele>
        <time>2021-11-16 11:37:04</time>
      </trkpt>
      <trkpt lat="40.70133" lon="-3.92816">
        <ele>932.6</ele>
        <time>2021-11-16 11:37:05</time>
      </trkpt>
      <trkpt lat="40.7013" lon="-3.92823">
        <ele>932.6</ele>
        <time>2021-11-16 11:37:06</time>
      </trkpt>
      <trkpt lat="40.70126" lon="-3.92829">
        <ele>932.6</ele>
        <time>2021-11-16 11:37:07</time>
      </trkpt>
      <trkpt lat="40.70123" lon="-3.92835">
        <ele>932.6</ele>
        <time>2021-11-16 11:37:08</time>
      </trkpt>
      <trkpt lat="40.70119" lon="-3.92841">
        <ele>932.6</ele>
        <time>2021-11-16 11:37:09</time>
      </trkpt>
      <trkpt lat="40.70116" lon="-3.92847">
        <ele>932.8</ele>
        <time>2021-11-16 11:37:10</time>
      </trkpt>
      <trkpt lat="40.70112" lon="-3.92853">
        <ele>932.8</ele>
        <time>2021-11-16 11:37:11</time>
      </trkpt>
      <trkpt lat="40.70109" lon="-3.9286">
        <ele>932.8</ele>
        <time>2021-11-16 11:37:12</time>
      </trkpt>
      <trkpt lat="40.70105" lon="-3.92866">
        <ele>932.8</ele>
        <time>2021-11-16 11:37:13</time>
      </trkpt>
      <trkpt lat="40.70102" lon="-3.92872">
        <ele>932.6</ele>
        <time>2021-11-16 11:37:14</time>
      </trkpt>
      <trkpt lat="40.70098" lon="-3.92879">
        <ele>932.6</ele>
        <time>2021-11-16 11:37:15</time>
      </trkpt>
      <trkpt lat="40.70095" lon="-3.92885">
        <ele>932.6</ele>
        <time>2021-11-16 11:37:16</time>
      </trkpt>
      <trkpt lat="40.70092" lon="-3.92891">
        <ele>932.6</ele>
        <time>2021-11-16 11:37:17</time>
      </trkpt>
      <trkpt lat="40.70089" lon="-3.92898">
        <ele>932.6</ele>
        <time>2021-11-16 11:37:18</time>
      </trkpt>
      <trkpt lat="40.70085" lon="-3.92904">
        <ele>932.6</ele>
        <time>2021-11-16 11:37:19</time>
      </trkpt>
      <trkpt lat="40.70082" lon="-3.9291">
        <ele>932.8</ele>
        <time>2021-11-16 11:37:20</time>
      </trkpt>
      <trkpt lat="40.70079" lon="-3.92916">
        <ele>932.8</ele>
        <time>2021-11-16 11:37:21</time>
      </trkpt>
      <trkpt lat="40.70076" lon="-3.92922">
        <ele>932.8</ele>
        <time>2021-11-16 11:37:22</time>
      </trkpt>
      <trkpt lat="40.70072" lon="-3.92928">
        <ele>933</ele>
        <time>2021-11-16 11:37:23</time>
      </trkpt>
      <trkpt lat="40.70069" lon="-3.92934">
        <ele>933.2</ele>
        <time>2021-11-16 11:37:24</time>
      </trkpt>
      <trkpt lat="40.70066" lon="-3.9294">
        <ele>933.2</ele>
        <time>2021-11-16 11:37:25</time>
      </trkpt>
      <trkpt lat="40.70063" lon="-3.92946">
        <ele>933.2</ele>
        <time>2021-11-16 11:37:26</time>
      </trkpt>
      <trkpt lat="40.70059" lon="-3.92952">
        <ele>933.6</ele>
        <time>2021-11-16 11:37:27</time>
      </trkpt>
      <trkpt lat="40.70056" lon="-3.92958">
        <ele>933.8</ele>
        <time>2021-11-16 11:37:28</time>
      </trkpt>
      <trkpt lat="40.70053" lon="-3.92963">
        <ele>934</ele>
        <time>2021-11-16 11:37:29</time>
      </trkpt>
      <trkpt lat="40.7005" lon="-3.92968">
        <ele>934.2</ele>
        <time>2021-11-16 11:37:30</time>
      </trkpt>
      <trkpt lat="40.70046" lon="-3.92973">
        <ele>934.2</ele>
        <time>2021-11-16 11:37:31</time>
      </trkpt>
      <trkpt lat="40.70043" lon="-3.92979">
        <ele>934.4</ele>
        <time>2021-11-16 11:37:32</time>
      </trkpt>
      <trkpt lat="40.7004" lon="-3.92984">
        <ele>934.6</ele>
        <time>2021-11-16 11:37:33</time>
      </trkpt>
      <trkpt lat="40.70037" lon="-3.9299">
        <ele>934.6</ele>
        <time>2021-11-16 11:37:34</time>
      </trkpt>
      <trkpt lat="40.70034" lon="-3.92995">
        <ele>935.2</ele>
        <time>2021-11-16 11:37:35</time>
      </trkpt>
      <trkpt lat="40.70031" lon="-3.93001">
        <ele>935.2</ele>
        <time>2021-11-16 11:37:36</time>
      </trkpt>
      <trkpt lat="40.70028" lon="-3.93006">
        <ele>935.6</ele>
        <time>2021-11-16 11:37:37</time>
      </trkpt>
      <trkpt lat="40.70025" lon="-3.93012">
        <ele>935.8</ele>
        <time>2021-11-16 11:37:38</time>
      </trkpt>
      <trkpt lat="40.70022" lon="-3.93017">
        <ele>936.2</ele>
        <time>2021-11-16 11:37:39</time>
      </trkpt>
      <trkpt lat="40.70019" lon="-3.93023">
        <ele>936.8</ele>
        <time>2021-11-16 11:37:40</time>
      </trkpt>
      <trkpt lat="40.70016" lon="-3.93029">
        <ele>937</ele>
        <time>2021-11-16 11:37:41</time>
      </trkpt>
      <trkpt lat="40.70013" lon="-3.93035">
        <ele>937.2</ele>
        <time>2021-11-16 11:37:42</time>
      </trkpt>
      <trkpt lat="40.7001" lon="-3.9304">
        <ele>937.6</ele>
        <time>2021-11-16 11:37:43</time>
      </trkpt>
      <trkpt lat="40.70006" lon="-3.93046">
        <ele>937.6</ele>
        <time>2021-11-16 11:37:44</time>
      </trkpt>
      <trkpt lat="40.70003" lon="-3.93052">
        <ele>937.8</ele>
        <time>2021-11-16 11:37:45</time>
      </trkpt>
      <trkpt lat="40.7" lon="-3.93057">
        <ele>938</ele>
        <time>2021-11-16 11:37:46</time>
      </trkpt>
      <trkpt lat="40.69997" lon="-3.93063">
        <ele>938</ele>
        <time>2021-11-16 11:37:47</time>
      </trkpt>
      <trkpt lat="40.69995" lon="-3.93069">
        <ele>938</ele>
        <time>2021-11-16 11:37:48</time>
      </trkpt>
      <trkpt lat="40.69992" lon="-3.93075">
        <ele>938.2</ele>
        <time>2021-11-16 11:37:49</time>
      </trkpt>
      <trkpt lat="40.69989" lon="-3.93081">
        <ele>938.4</ele>
        <time>2021-11-16 11:37:50</time>
      </trkpt>
      <trkpt lat="40.69987" lon="-3.93087">
        <ele>938.4</ele>
        <time>2021-11-16 11:37:51</time>
      </trkpt>
      <trkpt lat="40.69985" lon="-3.93092">
        <ele>938.4</ele>
        <time>2021-11-16 11:37:52</time>
      </trkpt>
      <trkpt lat="40.69983" lon="-3.93098">
        <ele>938.6</ele>
        <time>2021-11-16 11:37:53</time>
      </trkpt>
      <trkpt lat="40.69981" lon="-3.93103">
        <ele>939</ele>
        <time>2021-11-16 11:37:54</time>
      </trkpt>
      <trkpt lat="40.6998" lon="-3.93107">
        <ele>939.4</ele>
        <time>2021-11-16 11:37:55</time>
      </trkpt>
      <trkpt lat="40.6998" lon="-3.93112">
        <ele>939.4</ele>
        <time>2021-11-16 11:37:56</time>
      </trkpt>
      <trkpt lat="40.6998" lon="-3.93116">
        <ele>939.4</ele>
        <time>2021-11-16 11:37:57</time>
      </trkpt>
      <trkpt lat="40.6998" lon="-3.93121">
        <ele>939.8</ele>
        <time>2021-11-16 11:37:58</time>
      </trkpt>
      <trkpt lat="40.6998" lon="-3.93126">
        <ele>940</ele>
        <time>2021-11-16 11:37:59</time>
      </trkpt>
      <trkpt lat="40.6998" lon="-3.93132">
        <ele>940.2</ele>
        <time>2021-11-16 11:38:00</time>
      </trkpt>
      <trkpt lat="40.69979" lon="-3.93137">
        <ele>940.6</ele>
        <time>2021-11-16 11:38:01</time>
      </trkpt>
      <trkpt lat="40.69978" lon="-3.93143">
        <ele>941</ele>
        <time>2021-11-16 11:38:02</time>
      </trkpt>
      <trkpt lat="40.69976" lon="-3.93148">
        <ele>941</ele>
        <time>2021-11-16 11:38:03</time>
      </trkpt>
      <trkpt lat="40.69973" lon="-3.93153">
        <ele>941.4</ele>
        <time>2021-11-16 11:38:04</time>
      </trkpt>
      <trkpt lat="40.69971" lon="-3.93157">
        <ele>941.6</ele>
        <time>2021-11-16 11:38:05</time>
      </trkpt>
      <trkpt lat="40.69968" lon="-3.93161">
        <ele>941.6</ele>
        <time>2021-11-16 11:38:06</time>
      </trkpt>
      <trkpt lat="40.69965" lon="-3.93166">
        <ele>941.8</ele>
        <time>2021-11-16 11:38:07</time>
      </trkpt>
      <trkpt lat="40.69963" lon="-3.93171">
        <ele>942.2</ele>
        <time>2021-11-16 11:38:08</time>
      </trkpt>
      <trkpt lat="40.69962" lon="-3.93177">
        <ele>942.6</ele>
        <time>2021-11-16 11:38:09</time>
      </trkpt>
      <trkpt lat="40.69961" lon="-3.93182">
        <ele>942.8</ele>
        <time>2021-11-16 11:38:10</time>
      </trkpt>
      <trkpt lat="40.6996" lon="-3.93188">
        <ele>942.8</ele>
        <time>2021-11-16 11:38:11</time>
      </trkpt>
      <trkpt lat="40.6996" lon="-3.93194">
        <ele>943</ele>
        <time>2021-11-16 11:38:12</time>
      </trkpt>
      <trkpt lat="40.6996" lon="-3.932">
        <ele>943.2</ele>
        <time>2021-11-16 11:38:13</time>
      </trkpt>
      <trkpt lat="40.69961" lon="-3.93206">
        <ele>943.4</ele>
        <time>2021-11-16 11:38:14</time>
      </trkpt>
      <trkpt lat="40.69961" lon="-3.93212">
        <ele>943.4</ele>
        <time>2021-11-16 11:38:15</time>
      </trkpt>
      <trkpt lat="40.69962" lon="-3.93218">
        <ele>943.6</ele>
        <time>2021-11-16 11:38:16</time>
      </trkpt>
      <trkpt lat="40.69963" lon="-3.93224">
        <ele>943.6</ele>
        <time>2021-11-16 11:38:17</time>
      </trkpt>
      <trkpt lat="40.69964" lon="-3.9323">
        <ele>943.8</ele>
        <time>2021-11-16 11:38:18</time>
      </trkpt>
      <trkpt lat="40.69965" lon="-3.93236">
        <ele>943.8</ele>
        <time>2021-11-16 11:38:19</time>
      </trkpt>
      <trkpt lat="40.69967" lon="-3.93242">
        <ele>944</ele>
        <time>2021-11-16 11:38:20</time>
      </trkpt>
      <trkpt lat="40.69968" lon="-3.93248">
        <ele>944.4</ele>
        <time>2021-11-16 11:38:21</time>
      </trkpt>
      <trkpt lat="40.69969" lon="-3.93254">
        <ele>944.4</ele>
        <time>2021-11-16 11:38:22</time>
      </trkpt>
      <trkpt lat="40.6997" lon="-3.9326">
        <ele>944.6</ele>
        <time>2021-11-16 11:38:23</time>
      </trkpt>
      <trkpt lat="40.69971" lon="-3.93267">
        <ele>944.8</ele>
        <time>2021-11-16 11:38:24</time>
      </trkpt>
      <trkpt lat="40.69972" lon="-3.93273">
        <ele>945.2</ele>
        <time>2021-11-16 11:38:25</time>
      </trkpt>
      <trkpt lat="40.69974" lon="-3.93279">
        <ele>945.4</ele>
        <time>2021-11-16 11:38:26</time>
      </trkpt>
      <trkpt lat="40.69975" lon="-3.93286">
        <ele>945.6</ele>
        <time>2021-11-16 11:38:27</time>
      </trkpt>
      <trkpt lat="40.69976" lon="-3.93292">
        <ele>945.6</ele>
        <time>2021-11-16 11:38:28</time>
      </trkpt>
      <trkpt lat="40.69977" lon="-3.93298">
        <ele>945.8</ele>
        <time>2021-11-16 11:38:29</time>
      </trkpt>
      <trkpt lat="40.69979" lon="-3.93304">
        <ele>946</ele>
        <time>2021-11-16 11:38:30</time>
      </trkpt>
      <trkpt lat="40.6998" lon="-3.93311">
        <ele>946.2</ele>
        <time>2021-11-16 11:38:31</time>
      </trkpt>
      <trkpt lat="40.69981" lon="-3.93317">
        <ele>946.4</ele>
        <time>2021-11-16 11:38:32</time>
      </trkpt>
      <trkpt lat="40.69982" lon="-3.93323">
        <ele>946.6</ele>
        <time>2021-11-16 11:38:33</time>
      </trkpt>
      <trkpt lat="40.69983" lon="-3.93329">
        <ele>946.8</ele>
        <time>2021-11-16 11:38:34</time>
      </trkpt>
      <trkpt lat="40.69986" lon="-3.93342">
        <ele>947.2</ele>
        <time>2021-11-16 11:38:35</time>
      </trkpt>
      <trkpt lat="40.69987" lon="-3.93348">
        <ele>947.2</ele>
        <time>2021-11-16 11:38:36</time>
      </trkpt>
      <trkpt lat="40.69988" lon="-3.93354">
        <ele>947.4</ele>
        <time>2021-11-16 11:38:37</time>
      </trkpt>
      <trkpt lat="40.69989" lon="-3.9336">
        <ele>947.6</ele>
        <time>2021-11-16 11:38:38</time>
      </trkpt>
      <trkpt lat="40.6999" lon="-3.93366">
        <ele>947.6</ele>
        <time>2021-11-16 11:38:39</time>
      </trkpt>
      <trkpt lat="40.69991" lon="-3.93373">
        <ele>947.6</ele>
        <time>2021-11-16 11:38:40</time>
      </trkpt>
      <trkpt lat="40.69993" lon="-3.93379">
        <ele>947.6</ele>
        <time>2021-11-16 11:38:41</time>
      </trkpt>
      <trkpt lat="40.69993" lon="-3.93379">
        <ele>947.8</ele>
        <time>2021-11-16 11:38:42</time>
      </trkpt>
      <trkpt lat="40.69995" lon="-3.93391">
        <ele>947.8</ele>
        <time>2021-11-16 11:38:43</time>
      </trkpt>
      <trkpt lat="40.69996" lon="-3.93398">
        <ele>948</ele>
        <time>2021-11-16 11:38:44</time>
      </trkpt>
      <trkpt lat="40.69997" lon="-3.93404">
        <ele>948</ele>
        <time>2021-11-16 11:38:45</time>
      </trkpt>
      <trkpt lat="40.69998" lon="-3.9341">
        <ele>948.2</ele>
        <time>2021-11-16 11:38:46</time>
      </trkpt>
      <trkpt lat="40.69999" lon="-3.93416">
        <ele>948.4</ele>
        <time>2021-11-16 11:38:47</time>
      </trkpt>
      <trkpt lat="40.69999" lon="-3.93423">
        <ele>948.4</ele>
        <time>2021-11-16 11:38:48</time>
      </trkpt>
      <trkpt lat="40.7" lon="-3.93429">
        <ele>948.8</ele>
        <time>2021-11-16 11:38:49</time>
      </trkpt>
      <trkpt lat="40.7" lon="-3.93435">
        <ele>949</ele>
        <time>2021-11-16 11:38:50</time>
      </trkpt>
      <trkpt lat="40.70001" lon="-3.93442">
        <ele>949.2</ele>
        <time>2021-11-16 11:38:51</time>
      </trkpt>
      <trkpt lat="40.70001" lon="-3.93442">
        <ele>949.2</ele>
        <time>2021-11-16 11:38:52</time>
      </trkpt>
      <trkpt lat="40.70001" lon="-3.93448">
        <ele>949.2</ele>
        <time>2021-11-16 11:38:53</time>
      </trkpt>
      <trkpt lat="40.70001" lon="-3.93461">
        <ele>949.4</ele>
        <time>2021-11-16 11:38:54</time>
      </trkpt>
      <trkpt lat="40.70001" lon="-3.93461">
        <ele>949.6</ele>
        <time>2021-11-16 11:38:55</time>
      </trkpt>
      <trkpt lat="40.70001" lon="-3.93467">
        <ele>949.8</ele>
        <time>2021-11-16 11:38:56</time>
      </trkpt>
      <trkpt lat="40.70001" lon="-3.9348">
        <ele>950</ele>
        <time>2021-11-16 11:38:57</time>
      </trkpt>
      <trkpt lat="40.7" lon="-3.93486">
        <ele>950.2</ele>
        <time>2021-11-16 11:38:58</time>
      </trkpt>
      <trkpt lat="40.7" lon="-3.93493">
        <ele>950.2</ele>
        <time>2021-11-16 11:38:59</time>
      </trkpt>
      <trkpt lat="40.69999" lon="-3.935">
        <ele>950.4</ele>
        <time>2021-11-16 11:39:00</time>
      </trkpt>
      <trkpt lat="40.69999" lon="-3.93506">
        <ele>950.4</ele>
        <time>2021-11-16 11:39:01</time>
      </trkpt>
      <trkpt lat="40.69999" lon="-3.93506">
        <ele>950.8</ele>
        <time>2021-11-16 11:39:02</time>
      </trkpt>
      <trkpt lat="40.69998" lon="-3.93513">
        <ele>951</ele>
        <time>2021-11-16 11:39:03</time>
      </trkpt>
      <trkpt lat="40.69998" lon="-3.9352">
        <ele>951.2</ele>
        <time>2021-11-16 11:39:04</time>
      </trkpt>
      <trkpt lat="40.69997" lon="-3.93526">
        <ele>951.2</ele>
        <time>2021-11-16 11:39:05</time>
      </trkpt>
      <trkpt lat="40.69997" lon="-3.9354">
        <ele>951.2</ele>
        <time>2021-11-16 11:39:06</time>
      </trkpt>
      <trkpt lat="40.69996" lon="-3.93547">
        <ele>951.4</ele>
        <time>2021-11-16 11:39:07</time>
      </trkpt>
      <trkpt lat="40.69996" lon="-3.93547">
        <ele>951.4</ele>
        <time>2021-11-16 11:39:08</time>
      </trkpt>
      <trkpt lat="40.69996" lon="-3.9356">
        <ele>951.6</ele>
        <time>2021-11-16 11:39:09</time>
      </trkpt>
      <trkpt lat="40.69996" lon="-3.9356">
        <ele>951.6</ele>
        <time>2021-11-16 11:39:10</time>
      </trkpt>
      <trkpt lat="40.69996" lon="-3.93567">
        <ele>951.8</ele>
        <time>2021-11-16 11:39:11</time>
      </trkpt>
      <trkpt lat="40.69997" lon="-3.93573">
        <ele>951.8</ele>
        <time>2021-11-16 11:39:12</time>
      </trkpt>
      <trkpt lat="40.69997" lon="-3.9358">
        <ele>952</ele>
        <time>2021-11-16 11:39:13</time>
      </trkpt>
      <trkpt lat="40.69997" lon="-3.93587">
        <ele>952</ele>
        <time>2021-11-16 11:39:14</time>
      </trkpt>
      <trkpt lat="40.69998" lon="-3.93593">
        <ele>952.2</ele>
        <time>2021-11-16 11:39:15</time>
      </trkpt>
      <trkpt lat="40.69999" lon="-3.936">
        <ele>952.2</ele>
        <time>2021-11-16 11:39:16</time>
      </trkpt>
      <trkpt lat="40.70001" lon="-3.93613">
        <ele>952.4</ele>
        <time>2021-11-16 11:39:17</time>
      </trkpt>
      <trkpt lat="40.70002" lon="-3.9362">
        <ele>952.2</ele>
        <time>2021-11-16 11:39:18</time>
      </trkpt>
      <trkpt lat="40.70002" lon="-3.9362">
        <ele>952.2</ele>
        <time>2021-11-16 11:39:19</time>
      </trkpt>
      <trkpt lat="40.70004" lon="-3.93626">
        <ele>952.4</ele>
        <time>2021-11-16 11:39:20</time>
      </trkpt>
      <trkpt lat="40.70005" lon="-3.93633">
        <ele>952.6</ele>
        <time>2021-11-16 11:39:21</time>
      </trkpt>
      <trkpt lat="40.70007" lon="-3.93639">
        <ele>952.4</ele>
        <time>2021-11-16 11:39:22</time>
      </trkpt>
      <trkpt lat="40.70009" lon="-3.93646">
        <ele>952.6</ele>
        <time>2021-11-16 11:39:23</time>
      </trkpt>
      <trkpt lat="40.70011" lon="-3.93652">
        <ele>952.8</ele>
        <time>2021-11-16 11:39:24</time>
      </trkpt>
      <trkpt lat="40.70013" lon="-3.93659">
        <ele>953</ele>
        <time>2021-11-16 11:39:25</time>
      </trkpt>
      <trkpt lat="40.70015" lon="-3.93665">
        <ele>953</ele>
        <time>2021-11-16 11:39:26</time>
      </trkpt>
      <trkpt lat="40.70018" lon="-3.93671">
        <ele>953</ele>
        <time>2021-11-16 11:39:27</time>
      </trkpt>
      <trkpt lat="40.7002" lon="-3.93677">
        <ele>953.2</ele>
        <time>2021-11-16 11:39:28</time>
      </trkpt>
      <trkpt lat="40.70024" lon="-3.93683">
        <ele>953.6</ele>
        <time>2021-11-16 11:39:29</time>
      </trkpt>
      <trkpt lat="40.70027" lon="-3.93688">
        <ele>953.6</ele>
        <time>2021-11-16 11:39:30</time>
      </trkpt>
      <trkpt lat="40.70032" lon="-3.93691">
        <ele>953.8</ele>
        <time>2021-11-16 11:39:31</time>
      </trkpt>
      <trkpt lat="40.70036" lon="-3.93695">
        <ele>954</ele>
        <time>2021-11-16 11:39:32</time>
      </trkpt>
      <trkpt lat="40.70041" lon="-3.93698">
        <ele>954</ele>
        <time>2021-11-16 11:39:33</time>
      </trkpt>
      <trkpt lat="40.70046" lon="-3.93702">
        <ele>954.4</ele>
        <time>2021-11-16 11:39:34</time>
      </trkpt>
      <trkpt lat="40.7005" lon="-3.93707">
        <ele>954.4</ele>
        <time>2021-11-16 11:39:35</time>
      </trkpt>
      <trkpt lat="40.70054" lon="-3.93712">
        <ele>954.6</ele>
        <time>2021-11-16 11:39:36</time>
      </trkpt>
      <trkpt lat="40.70056" lon="-3.93718">
        <ele>954.6</ele>
        <time>2021-11-16 11:39:37</time>
      </trkpt>
      <trkpt lat="40.70057" lon="-3.93725">
        <ele>954.6</ele>
        <time>2021-11-16 11:39:38</time>
      </trkpt>
      <trkpt lat="40.70057" lon="-3.93733">
        <ele>954.6</ele>
        <time>2021-11-16 11:39:39</time>
      </trkpt>
      <trkpt lat="40.70055" lon="-3.9374">
        <ele>954.8</ele>
        <time>2021-11-16 11:39:40</time>
      </trkpt>
      <trkpt lat="40.70052" lon="-3.93746">
        <ele>954.8</ele>
        <time>2021-11-16 11:39:41</time>
      </trkpt>
      <trkpt lat="40.70048" lon="-3.93752">
        <ele>954.8</ele>
        <time>2021-11-16 11:39:42</time>
      </trkpt>
      <trkpt lat="40.70043" lon="-3.93756">
        <ele>954.8</ele>
        <time>2021-11-16 11:39:43</time>
      </trkpt>
      <trkpt lat="40.70038" lon="-3.93759">
        <ele>954.8</ele>
        <time>2021-11-16 11:39:44</time>
      </trkpt>
      <trkpt lat="40.70031" lon="-3.93761">
        <ele>954.8</ele>
        <time>2021-11-16 11:39:45</time>
      </trkpt>
      <trkpt lat="40.70025" lon="-3.9376">
        <ele>954.6</ele>
        <time>2021-11-16 11:39:46</time>
      </trkpt>
      <trkpt lat="40.70019" lon="-3.93758">
        <ele>954.6</ele>
        <time>2021-11-16 11:39:47</time>
      </trkpt>
      <trkpt lat="40.70013" lon="-3.93753">
        <ele>954.4</ele>
        <time>2021-11-16 11:39:48</time>
      </trkpt>
      <trkpt lat="40.70007" lon="-3.93749">
        <ele>954.4</ele>
        <time>2021-11-16 11:39:49</time>
      </trkpt>
      <trkpt lat="40.70001" lon="-3.93746">
        <ele>954.4</ele>
        <time>2021-11-16 11:39:50</time>
      </trkpt>
      <trkpt lat="40.69994" lon="-3.93744">
        <ele>954.2</ele>
        <time>2021-11-16 11:39:51</time>
      </trkpt>
      <trkpt lat="40.6998" lon="-3.93744">
        <ele>954.2</ele>
        <time>2021-11-16 11:39:52</time>
      </trkpt>
      <trkpt lat="40.69974" lon="-3.93744">
        <ele>953.8</ele>
        <time>2021-11-16 11:39:53</time>
      </trkpt>
      <trkpt lat="40.69967" lon="-3.93744">
        <ele>953.8</ele>
        <time>2021-11-16 11:39:54</time>
      </trkpt>
      <trkpt lat="40.69967" lon="-3.93744">
        <ele>953.8</ele>
        <time>2021-11-16 11:39:55</time>
      </trkpt>
      <trkpt lat="40.69961" lon="-3.93745">
        <ele>953.8</ele>
        <time>2021-11-16 11:39:56</time>
      </trkpt>
      <trkpt lat="40.69954" lon="-3.93746">
        <ele>953.6</ele>
        <time>2021-11-16 11:39:57</time>
      </trkpt>
      <trkpt lat="40.69942" lon="-3.93747">
        <ele>953.6</ele>
        <time>2021-11-16 11:39:58</time>
      </trkpt>
      <trkpt lat="40.69942" lon="-3.93747">
        <ele>953.6</ele>
        <time>2021-11-16 11:39:59</time>
      </trkpt>
      <trkpt lat="40.69929" lon="-3.93748">
        <ele>953.6</ele>
        <time>2021-11-16 11:40:00</time>
      </trkpt>
      <trkpt lat="40.69922" lon="-3.93748">
        <ele>953.6</ele>
        <time>2021-11-16 11:40:01</time>
      </trkpt>
      <trkpt lat="40.69922" lon="-3.93748">
        <ele>953.8</ele>
        <time>2021-11-16 11:40:02</time>
      </trkpt>
      <trkpt lat="40.6991" lon="-3.93749">
        <ele>953.8</ele>
        <time>2021-11-16 11:40:03</time>
      </trkpt>
      <trkpt lat="40.69903" lon="-3.93749">
        <ele>954</ele>
        <time>2021-11-16 11:40:04</time>
      </trkpt>
      <trkpt lat="40.69897" lon="-3.93749">
        <ele>954.2</ele>
        <time>2021-11-16 11:40:05</time>
      </trkpt>
      <trkpt lat="40.6989" lon="-3.9375">
        <ele>954.4</ele>
        <time>2021-11-16 11:40:06</time>
      </trkpt>
      <trkpt lat="40.69884" lon="-3.9375">
        <ele>954.4</ele>
        <time>2021-11-16 11:40:07</time>
      </trkpt>
      <trkpt lat="40.69878" lon="-3.93751">
        <ele>954.2</ele>
        <time>2021-11-16 11:40:08</time>
      </trkpt>
      <trkpt lat="40.69871" lon="-3.93751">
        <ele>954.4</ele>
        <time>2021-11-16 11:40:09</time>
      </trkpt>
      <trkpt lat="40.69865" lon="-3.93752">
        <ele>954.4</ele>
        <time>2021-11-16 11:40:10</time>
      </trkpt>
      <trkpt lat="40.69859" lon="-3.93753">
        <ele>954.4</ele>
        <time>2021-11-16 11:40:11</time>
      </trkpt>
      <trkpt lat="40.69852" lon="-3.93754">
        <ele>954.8</ele>
        <time>2021-11-16 11:40:12</time>
      </trkpt>
      <trkpt lat="40.69846" lon="-3.93754">
        <ele>955</ele>
        <time>2021-11-16 11:40:13</time>
      </trkpt>
      <trkpt lat="40.69846" lon="-3.93754">
        <ele>955</ele>
        <time>2021-11-16 11:40:14</time>
      </trkpt>
      <trkpt lat="40.69839" lon="-3.93755">
        <ele>955</ele>
        <time>2021-11-16 11:40:15</time>
      </trkpt>
      <trkpt lat="40.69833" lon="-3.93755">
        <ele>955</ele>
        <time>2021-11-16 11:40:16</time>
      </trkpt>
      <trkpt lat="40.69827" lon="-3.93756">
        <ele>955.2</ele>
        <time>2021-11-16 11:40:17</time>
      </trkpt>
      <trkpt lat="40.69814" lon="-3.93758">
        <ele>955.2</ele>
        <time>2021-11-16 11:40:18</time>
      </trkpt>
      <trkpt lat="40.69807" lon="-3.93758">
        <ele>955.2</ele>
        <time>2021-11-16 11:40:19</time>
      </trkpt>
      <trkpt lat="40.69807" lon="-3.93758">
        <ele>955.2</ele>
        <time>2021-11-16 11:40:20</time>
      </trkpt>
      <trkpt lat="40.698" lon="-3.93759">
        <ele>955.2</ele>
        <time>2021-11-16 11:40:21</time>
      </trkpt>
      <trkpt lat="40.69787" lon="-3.93761">
        <ele>955.2</ele>
        <time>2021-11-16 11:40:22</time>
      </trkpt>
      <trkpt lat="40.6978" lon="-3.93762">
        <ele>955</ele>
        <time>2021-11-16 11:40:23</time>
      </trkpt>
      <trkpt lat="40.69774" lon="-3.93763">
        <ele>955</ele>
        <time>2021-11-16 11:40:24</time>
      </trkpt>
      <trkpt lat="40.69767" lon="-3.93764">
        <ele>954.8</ele>
        <time>2021-11-16 11:40:25</time>
      </trkpt>
      <trkpt lat="40.69761" lon="-3.93765">
        <ele>954.8</ele>
        <time>2021-11-16 11:40:26</time>
      </trkpt>
      <trkpt lat="40.69754" lon="-3.93766">
        <ele>954.8</ele>
        <time>2021-11-16 11:40:27</time>
      </trkpt>
      <trkpt lat="40.69747" lon="-3.93767">
        <ele>954.8</ele>
        <time>2021-11-16 11:40:28</time>
      </trkpt>
      <trkpt lat="40.69747" lon="-3.93767">
        <ele>954.8</ele>
        <time>2021-11-16 11:40:29</time>
      </trkpt>
      <trkpt lat="40.6974" lon="-3.93769">
        <ele>954.8</ele>
        <time>2021-11-16 11:40:30</time>
      </trkpt>
      <trkpt lat="40.69734" lon="-3.93771">
        <ele>954.8</ele>
        <time>2021-11-16 11:40:31</time>
      </trkpt>
      <trkpt lat="40.69727" lon="-3.93772">
        <ele>954.8</ele>
        <time>2021-11-16 11:40:32</time>
      </trkpt>
      <trkpt lat="40.6972" lon="-3.93774">
        <ele>954.8</ele>
        <time>2021-11-16 11:40:33</time>
      </trkpt>
      <trkpt lat="40.69707" lon="-3.93778">
        <ele>954.6</ele>
        <time>2021-11-16 11:40:34</time>
      </trkpt>
      <trkpt lat="40.69707" lon="-3.93778">
        <ele>954.4</ele>
        <time>2021-11-16 11:40:35</time>
      </trkpt>
      <trkpt lat="40.69701" lon="-3.93781">
        <ele>954.4</ele>
        <time>2021-11-16 11:40:36</time>
      </trkpt>
      <trkpt lat="40.69695" lon="-3.93783">
        <ele>954.4</ele>
        <time>2021-11-16 11:40:37</time>
      </trkpt>
      <trkpt lat="40.69681" lon="-3.93787">
        <ele>954.2</ele>
        <time>2021-11-16 11:40:38</time>
      </trkpt>
      <trkpt lat="40.69674" lon="-3.93789">
        <ele>954.2</ele>
        <time>2021-11-16 11:40:39</time>
      </trkpt>
      <trkpt lat="40.69668" lon="-3.93791">
        <ele>954</ele>
        <time>2021-11-16 11:40:40</time>
      </trkpt>
      <trkpt lat="40.69668" lon="-3.93791">
        <ele>954</ele>
        <time>2021-11-16 11:40:41</time>
      </trkpt>
      <trkpt lat="40.69654" lon="-3.93795">
        <ele>954</ele>
        <time>2021-11-16 11:40:42</time>
      </trkpt>
      <trkpt lat="40.69654" lon="-3.93795">
        <ele>953.8</ele>
        <time>2021-11-16 11:40:43</time>
      </trkpt>
      <trkpt lat="40.6964" lon="-3.93801">
        <ele>953.8</ele>
        <time>2021-11-16 11:40:44</time>
      </trkpt>
      <trkpt lat="40.69633" lon="-3.93803">
        <ele>953.8</ele>
        <time>2021-11-16 11:40:45</time>
      </trkpt>
      <trkpt lat="40.69627" lon="-3.93806">
        <ele>953.6</ele>
        <time>2021-11-16 11:40:46</time>
      </trkpt>
      <trkpt lat="40.6962" lon="-3.93808">
        <ele>953.4</ele>
        <time>2021-11-16 11:40:47</time>
      </trkpt>
      <trkpt lat="40.69613" lon="-3.93811">
        <ele>953.4</ele>
        <time>2021-11-16 11:40:48</time>
      </trkpt>
      <trkpt lat="40.69607" lon="-3.93814">
        <ele>953.4</ele>
        <time>2021-11-16 11:40:49</time>
      </trkpt>
      <trkpt lat="40.696" lon="-3.93818">
        <ele>953.4</ele>
        <time>2021-11-16 11:40:50</time>
      </trkpt>
      <trkpt lat="40.69594" lon="-3.93822">
        <ele>953.2</ele>
        <time>2021-11-16 11:40:51</time>
      </trkpt>
      <trkpt lat="40.69588" lon="-3.93827">
        <ele>953.2</ele>
        <time>2021-11-16 11:40:52</time>
      </trkpt>
      <trkpt lat="40.69582" lon="-3.93832">
        <ele>953.4</ele>
        <time>2021-11-16 11:40:53</time>
      </trkpt>
      <trkpt lat="40.69582" lon="-3.93832">
        <ele>953.4</ele>
        <time>2021-11-16 11:40:54</time>
      </trkpt>
      <trkpt lat="40.69571" lon="-3.93843">
        <ele>953.2</ele>
        <time>2021-11-16 11:40:55</time>
      </trkpt>
      <trkpt lat="40.69571" lon="-3.93843">
        <ele>953.4</ele>
        <time>2021-11-16 11:40:56</time>
      </trkpt>
      <trkpt lat="40.69561" lon="-3.93855">
        <ele>953.2</ele>
        <time>2021-11-16 11:40:57</time>
      </trkpt>
      <trkpt lat="40.69556" lon="-3.93861">
        <ele>953.2</ele>
        <time>2021-11-16 11:40:58</time>
      </trkpt>
      <trkpt lat="40.69551" lon="-3.93868">
        <ele>953.2</ele>
        <time>2021-11-16 11:40:59</time>
      </trkpt>
      <trkpt lat="40.69546" lon="-3.93874">
        <ele>953.2</ele>
        <time>2021-11-16 11:41:00</time>
      </trkpt>
      <trkpt lat="40.69542" lon="-3.93881">
        <ele>953.2</ele>
        <time>2021-11-16 11:41:01</time>
      </trkpt>
      <trkpt lat="40.69537" lon="-3.93887">
        <ele>953.4</ele>
        <time>2021-11-16 11:41:02</time>
      </trkpt>
      <trkpt lat="40.69532" lon="-3.93893">
        <ele>953.2</ele>
        <time>2021-11-16 11:41:03</time>
      </trkpt>
      <trkpt lat="40.69528" lon="-3.939">
        <ele>953.4</ele>
        <time>2021-11-16 11:41:04</time>
      </trkpt>
      <trkpt lat="40.69528" lon="-3.939">
        <ele>953.4</ele>
        <time>2021-11-16 11:41:05</time>
      </trkpt>
      <trkpt lat="40.69519" lon="-3.93913">
        <ele>953.6</ele>
        <time>2021-11-16 11:41:06</time>
      </trkpt>
      <trkpt lat="40.69514" lon="-3.93919">
        <ele>953.6</ele>
        <time>2021-11-16 11:41:07</time>
      </trkpt>
      <trkpt lat="40.6951" lon="-3.93925">
        <ele>953.8</ele>
        <time>2021-11-16 11:41:08</time>
      </trkpt>
      <trkpt lat="40.69505" lon="-3.93931">
        <ele>954</ele>
        <time>2021-11-16 11:41:09</time>
      </trkpt>
      <trkpt lat="40.69501" lon="-3.93938">
        <ele>954.2</ele>
        <time>2021-11-16 11:41:10</time>
      </trkpt>
      <trkpt lat="40.69496" lon="-3.93944">
        <ele>954.2</ele>
        <time>2021-11-16 11:41:11</time>
      </trkpt>
      <trkpt lat="40.69492" lon="-3.9395">
        <ele>954.2</ele>
        <time>2021-11-16 11:41:12</time>
      </trkpt>
      <trkpt lat="40.69487" lon="-3.93956">
        <ele>954.4</ele>
        <time>2021-11-16 11:41:13</time>
      </trkpt>
      <trkpt lat="40.69483" lon="-3.93962">
        <ele>954.4</ele>
        <time>2021-11-16 11:41:14</time>
      </trkpt>
      <trkpt lat="40.69478" lon="-3.93968">
        <ele>954.4</ele>
        <time>2021-11-16 11:41:15</time>
      </trkpt>
      <trkpt lat="40.69478" lon="-3.93968">
        <ele>954.6</ele>
        <time>2021-11-16 11:41:16</time>
      </trkpt>
      <trkpt lat="40.6947" lon="-3.93981">
        <ele>954.8</ele>
        <time>2021-11-16 11:41:17</time>
      </trkpt>
      <trkpt lat="40.69465" lon="-3.93987">
        <ele>954.8</ele>
        <time>2021-11-16 11:41:18</time>
      </trkpt>
      <trkpt lat="40.69461" lon="-3.93993">
        <ele>955.2</ele>
        <time>2021-11-16 11:41:19</time>
      </trkpt>
      <trkpt lat="40.69457" lon="-3.93999">
        <ele>955.4</ele>
        <time>2021-11-16 11:41:20</time>
      </trkpt>
      <trkpt lat="40.69452" lon="-3.94005">
        <ele>955.6</ele>
        <time>2021-11-16 11:41:21</time>
      </trkpt>
      <trkpt lat="40.69448" lon="-3.94011">
        <ele>955.6</ele>
        <time>2021-11-16 11:41:22</time>
      </trkpt>
      <trkpt lat="40.69444" lon="-3.94017">
        <ele>955.8</ele>
        <time>2021-11-16 11:41:23</time>
      </trkpt>
      <trkpt lat="40.69444" lon="-3.94017">
        <ele>955.8</ele>
        <time>2021-11-16 11:41:24</time>
      </trkpt>
      <trkpt lat="40.69435" lon="-3.94029">
        <ele>956</ele>
        <time>2021-11-16 11:41:25</time>
      </trkpt>
      <trkpt lat="40.69435" lon="-3.94029">
        <ele>956.2</ele>
        <time>2021-11-16 11:41:26</time>
      </trkpt>
      <trkpt lat="40.69431" lon="-3.94035">
        <ele>956.4</ele>
        <time>2021-11-16 11:41:27</time>
      </trkpt>
      <trkpt lat="40.69422" lon="-3.94047">
        <ele>956.6</ele>
        <time>2021-11-16 11:41:28</time>
      </trkpt>
      <trkpt lat="40.69422" lon="-3.94047">
        <ele>956.6</ele>
        <time>2021-11-16 11:41:29</time>
      </trkpt>
      <trkpt lat="40.69414" lon="-3.94059">
        <ele>956.8</ele>
        <time>2021-11-16 11:41:30</time>
      </trkpt>
      <trkpt lat="40.69409" lon="-3.94065">
        <ele>956.8</ele>
        <time>2021-11-16 11:41:31</time>
      </trkpt>
      <trkpt lat="40.69405" lon="-3.94071">
        <ele>957</ele>
        <time>2021-11-16 11:41:32</time>
      </trkpt>
      <trkpt lat="40.69401" lon="-3.94077">
        <ele>957</ele>
        <time>2021-11-16 11:41:33</time>
      </trkpt>
      <trkpt lat="40.69397" lon="-3.94082">
        <ele>957.2</ele>
        <time>2021-11-16 11:41:34</time>
      </trkpt>
      <trkpt lat="40.69392" lon="-3.94088">
        <ele>957.4</ele>
        <time>2021-11-16 11:41:35</time>
      </trkpt>
      <trkpt lat="40.69392" lon="-3.94088">
        <ele>957.6</ele>
        <time>2021-11-16 11:41:36</time>
      </trkpt>
      <trkpt lat="40.69388" lon="-3.94094">
        <ele>957.6</ele>
        <time>2021-11-16 11:41:37</time>
      </trkpt>
      <trkpt lat="40.69384" lon="-3.941">
        <ele>957.8</ele>
        <time>2021-11-16 11:41:38</time>
      </trkpt>
      <trkpt lat="40.69376" lon="-3.94112">
        <ele>958</ele>
        <time>2021-11-16 11:41:39</time>
      </trkpt>
      <trkpt lat="40.69371" lon="-3.94118">
        <ele>958.2</ele>
        <time>2021-11-16 11:41:40</time>
      </trkpt>
      <trkpt lat="40.69367" lon="-3.94124">
        <ele>958.2</ele>
        <time>2021-11-16 11:41:41</time>
      </trkpt>
      <trkpt lat="40.69363" lon="-3.9413">
        <ele>958.6</ele>
        <time>2021-11-16 11:41:42</time>
      </trkpt>
      <trkpt lat="40.69359" lon="-3.94135">
        <ele>958.8</ele>
        <time>2021-11-16 11:41:43</time>
      </trkpt>
      <trkpt lat="40.69355" lon="-3.94141">
        <ele>958.8</ele>
        <time>2021-11-16 11:41:44</time>
      </trkpt>
      <trkpt lat="40.69351" lon="-3.94147">
        <ele>959</ele>
        <time>2021-11-16 11:41:45</time>
      </trkpt>
      <trkpt lat="40.69347" lon="-3.94153">
        <ele>959</ele>
        <time>2021-11-16 11:41:46</time>
      </trkpt>
      <trkpt lat="40.69343" lon="-3.94158">
        <ele>959.2</ele>
        <time>2021-11-16 11:41:47</time>
      </trkpt>
      <trkpt lat="40.69339" lon="-3.94164">
        <ele>959.2</ele>
        <time>2021-11-16 11:41:48</time>
      </trkpt>
      <trkpt lat="40.69339" lon="-3.94164">
        <ele>959.4</ele>
        <time>2021-11-16 11:41:49</time>
      </trkpt>
      <trkpt lat="40.6933" lon="-3.94176">
        <ele>959.6</ele>
        <time>2021-11-16 11:41:50</time>
      </trkpt>
      <trkpt lat="40.69326" lon="-3.94182">
        <ele>959.6</ele>
        <time>2021-11-16 11:41:51</time>
      </trkpt>
      <trkpt lat="40.69322" lon="-3.94188">
        <ele>959.8</ele>
        <time>2021-11-16 11:41:52</time>
      </trkpt>
      <trkpt lat="40.69317" lon="-3.94193">
        <ele>959.8</ele>
        <time>2021-11-16 11:41:53</time>
      </trkpt>
      <trkpt lat="40.69313" lon="-3.94199">
        <ele>960</ele>
        <time>2021-11-16 11:41:54</time>
      </trkpt>
      <trkpt lat="40.69309" lon="-3.94205">
        <ele>960</ele>
        <time>2021-11-16 11:41:55</time>
      </trkpt>
      <trkpt lat="40.69304" lon="-3.94211">
        <ele>960</ele>
        <time>2021-11-16 11:41:56</time>
      </trkpt>
      <trkpt lat="40.693" lon="-3.94217">
        <ele>960.2</ele>
        <time>2021-11-16 11:41:57</time>
      </trkpt>
      <trkpt lat="40.69296" lon="-3.94224">
        <ele>960.4</ele>
        <time>2021-11-16 11:41:58</time>
      </trkpt>
      <trkpt lat="40.69291" lon="-3.9423">
        <ele>960.6</ele>
        <time>2021-11-16 11:41:59</time>
      </trkpt>
      <trkpt lat="40.69291" lon="-3.9423">
        <ele>960.6</ele>
        <time>2021-11-16 11:42:00</time>
      </trkpt>
      <trkpt lat="40.69283" lon="-3.94243">
        <ele>961</ele>
        <time>2021-11-16 11:42:01</time>
      </trkpt>
      <trkpt lat="40.69279" lon="-3.9425">
        <ele>961</ele>
        <time>2021-11-16 11:42:02</time>
      </trkpt>
      <trkpt lat="40.69275" lon="-3.94258">
        <ele>961</ele>
        <time>2021-11-16 11:42:03</time>
      </trkpt>
      <trkpt lat="40.69272" lon="-3.94265">
        <ele>961</ele>
        <time>2021-11-16 11:42:04</time>
      </trkpt>
      <trkpt lat="40.69268" lon="-3.94273">
        <ele>961</ele>
        <time>2021-11-16 11:42:05</time>
      </trkpt>
      <trkpt lat="40.69266" lon="-3.94281">
        <ele>961</ele>
        <time>2021-11-16 11:42:06</time>
      </trkpt>
      <trkpt lat="40.69263" lon="-3.94289">
        <ele>961</ele>
        <time>2021-11-16 11:42:07</time>
      </trkpt>
      <trkpt lat="40.69261" lon="-3.94298">
        <ele>961</ele>
        <time>2021-11-16 11:42:08</time>
      </trkpt>
      <trkpt lat="40.69259" lon="-3.94307">
        <ele>961</ele>
        <time>2021-11-16 11:42:09</time>
      </trkpt>
      <trkpt lat="40.69257" lon="-3.94316">
        <ele>961</ele>
        <time>2021-11-16 11:42:10</time>
      </trkpt>
      <trkpt lat="40.69257" lon="-3.94316">
        <ele>961.2</ele>
        <time>2021-11-16 11:42:11</time>
      </trkpt>
      <trkpt lat="40.69254" lon="-3.94333">
        <ele>961</ele>
        <time>2021-11-16 11:42:12</time>
      </trkpt>
      <trkpt lat="40.69253" lon="-3.94342">
        <ele>961.2</ele>
        <time>2021-11-16 11:42:13</time>
      </trkpt>
      <trkpt lat="40.69251" lon="-3.94352">
        <ele>961</ele>
        <time>2021-11-16 11:42:14</time>
      </trkpt>
      <trkpt lat="40.6925" lon="-3.94361">
        <ele>961</ele>
        <time>2021-11-16 11:42:15</time>
      </trkpt>
      <trkpt lat="40.69248" lon="-3.9437">
        <ele>961</ele>
        <time>2021-11-16 11:42:16</time>
      </trkpt>
      <trkpt lat="40.69246" lon="-3.9438">
        <ele>961</ele>
        <time>2021-11-16 11:42:17</time>
      </trkpt>
      <trkpt lat="40.69245" lon="-3.94389">
        <ele>960.8</ele>
        <time>2021-11-16 11:42:18</time>
      </trkpt>
      <trkpt lat="40.69243" lon="-3.94398">
        <ele>960.8</ele>
        <time>2021-11-16 11:42:19</time>
      </trkpt>
      <trkpt lat="40.69241" lon="-3.94408">
        <ele>960.6</ele>
        <time>2021-11-16 11:42:20</time>
      </trkpt>
      <trkpt lat="40.69239" lon="-3.94417">
        <ele>960.6</ele>
        <time>2021-11-16 11:42:21</time>
      </trkpt>
      <trkpt lat="40.69239" lon="-3.94417">
        <ele>960.4</ele>
        <time>2021-11-16 11:42:22</time>
      </trkpt>
      <trkpt lat="40.69233" lon="-3.94435">
        <ele>960.4</ele>
        <time>2021-11-16 11:42:23</time>
      </trkpt>
      <trkpt lat="40.6923" lon="-3.94444">
        <ele>960.2</ele>
        <time>2021-11-16 11:42:24</time>
      </trkpt>
      <trkpt lat="40.69226" lon="-3.94452">
        <ele>960.2</ele>
        <time>2021-11-16 11:42:25</time>
      </trkpt>
      <trkpt lat="40.69222" lon="-3.9446">
        <ele>960.2</ele>
        <time>2021-11-16 11:42:26</time>
      </trkpt>
      <trkpt lat="40.69218" lon="-3.94468">
        <ele>960.2</ele>
        <time>2021-11-16 11:42:27</time>
      </trkpt>
      <trkpt lat="40.69213" lon="-3.94476">
        <ele>960.2</ele>
        <time>2021-11-16 11:42:28</time>
      </trkpt>
      <trkpt lat="40.69208" lon="-3.94483">
        <ele>960</ele>
        <time>2021-11-16 11:42:29</time>
      </trkpt>
      <trkpt lat="40.69203" lon="-3.94491">
        <ele>960</ele>
        <time>2021-11-16 11:42:30</time>
      </trkpt>
      <trkpt lat="40.69203" lon="-3.94491">
        <ele>959.8</ele>
        <time>2021-11-16 11:42:31</time>
      </trkpt>
      <trkpt lat="40.69197" lon="-3.94499">
        <ele>959.6</ele>
        <time>2021-11-16 11:42:32</time>
      </trkpt>
      <trkpt lat="40.69192" lon="-3.94506">
        <ele>959.6</ele>
        <time>2021-11-16 11:42:33</time>
      </trkpt>
      <trkpt lat="40.69181" lon="-3.94521">
        <ele>959.6</ele>
        <time>2021-11-16 11:42:34</time>
      </trkpt>
      <trkpt lat="40.69175" lon="-3.94528">
        <ele>959.6</ele>
        <time>2021-11-16 11:42:35</time>
      </trkpt>
      <trkpt lat="40.69175" lon="-3.94528">
        <ele>959.4</ele>
        <time>2021-11-16 11:42:36</time>
      </trkpt>
      <trkpt lat="40.69164" lon="-3.94543">
        <ele>959.4</ele>
        <time>2021-11-16 11:42:37</time>
      </trkpt>
      <trkpt lat="40.69164" lon="-3.94543">
        <ele>959.2</ele>
        <time>2021-11-16 11:42:38</time>
      </trkpt>
      <trkpt lat="40.69159" lon="-3.9455">
        <ele>959</ele>
        <time>2021-11-16 11:42:39</time>
      </trkpt>
      <trkpt lat="40.69147" lon="-3.94564">
        <ele>958.4</ele>
        <time>2021-11-16 11:42:40</time>
      </trkpt>
      <trkpt lat="40.69147" lon="-3.94564">
        <ele>958.2</ele>
        <time>2021-11-16 11:42:41</time>
      </trkpt>
      <trkpt lat="40.69136" lon="-3.94577">
        <ele>958.2</ele>
        <time>2021-11-16 11:42:42</time>
      </trkpt>
      <trkpt lat="40.6913" lon="-3.94584">
        <ele>958</ele>
        <time>2021-11-16 11:42:43</time>
      </trkpt>
      <trkpt lat="40.6913" lon="-3.94584">
        <ele>957.8</ele>
        <time>2021-11-16 11:42:44</time>
      </trkpt>
      <trkpt lat="40.69118" lon="-3.94598">
        <ele>957.8</ele>
        <time>2021-11-16 11:42:45</time>
      </trkpt>
      <trkpt lat="40.69118" lon="-3.94598">
        <ele>958</ele>
        <time>2021-11-16 11:42:46</time>
      </trkpt>
      <trkpt lat="40.69106" lon="-3.94611">
        <ele>957.8</ele>
        <time>2021-11-16 11:42:47</time>
      </trkpt>
      <trkpt lat="40.691" lon="-3.94618">
        <ele>957.2</ele>
        <time>2021-11-16 11:42:48</time>
      </trkpt>
      <trkpt lat="40.69095" lon="-3.94625">
        <ele>957.2</ele>
        <time>2021-11-16 11:42:49</time>
      </trkpt>
      <trkpt lat="40.69095" lon="-3.94625">
        <ele>957.2</ele>
        <time>2021-11-16 11:42:50</time>
      </trkpt>
      <trkpt lat="40.69083" lon="-3.94638">
        <ele>956.8</ele>
        <time>2021-11-16 11:42:51</time>
      </trkpt>
      <trkpt lat="40.69077" lon="-3.94645">
        <ele>956.8</ele>
        <time>2021-11-16 11:42:52</time>
      </trkpt>
      <trkpt lat="40.69071" lon="-3.94651">
        <ele>956.8</ele>
        <time>2021-11-16 11:42:53</time>
      </trkpt>
      <trkpt lat="40.69066" lon="-3.94658">
        <ele>956.6</ele>
        <time>2021-11-16 11:42:54</time>
      </trkpt>
      <trkpt lat="40.69066" lon="-3.94658">
        <ele>956.8</ele>
        <time>2021-11-16 11:42:55</time>
      </trkpt>
      <trkpt lat="40.6906" lon="-3.94664">
        <ele>956.8</ele>
        <time>2021-11-16 11:42:56</time>
      </trkpt>
      <trkpt lat="40.69049" lon="-3.94677">
        <ele>957</ele>
        <time>2021-11-16 11:42:57</time>
      </trkpt>
      <trkpt lat="40.69043" lon="-3.94684">
        <ele>957</ele>
        <time>2021-11-16 11:42:58</time>
      </trkpt>
      <trkpt lat="40.69043" lon="-3.94684">
        <ele>957</ele>
        <time>2021-11-16 11:42:59</time>
      </trkpt>
      <trkpt lat="40.69032" lon="-3.94697">
        <ele>957</ele>
        <time>2021-11-16 11:43:00</time>
      </trkpt>
      <trkpt lat="40.69027" lon="-3.94704">
        <ele>957</ele>
        <time>2021-11-16 11:43:01</time>
      </trkpt>
      <trkpt lat="40.69022" lon="-3.9471">
        <ele>957</ele>
        <time>2021-11-16 11:43:02</time>
      </trkpt>
      <trkpt lat="40.69017" lon="-3.94717">
        <ele>957</ele>
        <time>2021-11-16 11:43:03</time>
      </trkpt>
      <trkpt lat="40.69012" lon="-3.94724">
        <ele>957</ele>
        <time>2021-11-16 11:43:04</time>
      </trkpt>
      <trkpt lat="40.69007" lon="-3.94732">
        <ele>957</ele>
        <time>2021-11-16 11:43:05</time>
      </trkpt>
      <trkpt lat="40.69007" lon="-3.94732">
        <ele>957.2</ele>
        <time>2021-11-16 11:43:06</time>
      </trkpt>
      <trkpt lat="40.68999" lon="-3.94747">
        <ele>957.4</ele>
        <time>2021-11-16 11:43:07</time>
      </trkpt>
      <trkpt lat="40.68999" lon="-3.94747">
        <ele>957.4</ele>
        <time>2021-11-16 11:43:08</time>
      </trkpt>
      <trkpt lat="40.68995" lon="-3.94755">
        <ele>957.6</ele>
        <time>2021-11-16 11:43:09</time>
      </trkpt>
      <trkpt lat="40.68989" lon="-3.94772">
        <ele>957.6</ele>
        <time>2021-11-16 11:43:10</time>
      </trkpt>
      <trkpt lat="40.68986" lon="-3.9478">
        <ele>957.8</ele>
        <time>2021-11-16 11:43:11</time>
      </trkpt>
      <trkpt lat="40.68984" lon="-3.94788">
        <ele>957.8</ele>
        <time>2021-11-16 11:43:12</time>
      </trkpt>
      <trkpt lat="40.68981" lon="-3.94797">
        <ele>957.8</ele>
        <time>2021-11-16 11:43:13</time>
      </trkpt>
      <trkpt lat="40.68978" lon="-3.94805">
        <ele>958</ele>
        <time>2021-11-16 11:43:14</time>
      </trkpt>
      <trkpt lat="40.68976" lon="-3.94814">
        <ele>958</ele>
        <time>2021-11-16 11:43:15</time>
      </trkpt>
      <trkpt lat="40.68973" lon="-3.94822">
        <ele>958</ele>
        <time>2021-11-16 11:43:16</time>
      </trkpt>
      <trkpt lat="40.68973" lon="-3.94822">
        <ele>958.4</ele>
        <time>2021-11-16 11:43:17</time>
      </trkpt>
      <trkpt lat="40.68968" lon="-3.94838">
        <ele>958.6</ele>
        <time>2021-11-16 11:43:18</time>
      </trkpt>
      <trkpt lat="40.68966" lon="-3.94846">
        <ele>959</ele>
        <time>2021-11-16 11:43:19</time>
      </trkpt>
      <trkpt lat="40.68966" lon="-3.94846">
        <ele>959</ele>
        <time>2021-11-16 11:43:20</time>
      </trkpt>
      <trkpt lat="40.68961" lon="-3.94862">
        <ele>959.2</ele>
        <time>2021-11-16 11:43:21</time>
      </trkpt>
      <trkpt lat="40.68959" lon="-3.9487">
        <ele>959.2</ele>
        <time>2021-11-16 11:43:22</time>
      </trkpt>
      <trkpt lat="40.68956" lon="-3.94877">
        <ele>959.2</ele>
        <time>2021-11-16 11:43:23</time>
      </trkpt>
      <trkpt lat="40.68954" lon="-3.94885">
        <ele>959.4</ele>
        <time>2021-11-16 11:43:24</time>
      </trkpt>
      <trkpt lat="40.68951" lon="-3.94892">
        <ele>959.8</ele>
        <time>2021-11-16 11:43:25</time>
      </trkpt>
      <trkpt lat="40.68948" lon="-3.94899">
        <ele>960</ele>
        <time>2021-11-16 11:43:26</time>
      </trkpt>
      <trkpt lat="40.68948" lon="-3.94899">
        <ele>960.2</ele>
        <time>2021-11-16 11:43:27</time>
      </trkpt>
      <trkpt lat="40.68945" lon="-3.94907">
        <ele>960.4</ele>
        <time>2021-11-16 11:43:28</time>
      </trkpt>
      <trkpt lat="40.68938" lon="-3.94922">
        <ele>960.4</ele>
        <time>2021-11-16 11:43:29</time>
      </trkpt>
      <trkpt lat="40.68935" lon="-3.94929">
        <ele>960.4</ele>
        <time>2021-11-16 11:43:30</time>
      </trkpt>
      <trkpt lat="40.68935" lon="-3.94929">
        <ele>960.6</ele>
        <time>2021-11-16 11:43:31</time>
      </trkpt>
      <trkpt lat="40.68928" lon="-3.94944">
        <ele>960.4</ele>
        <time>2021-11-16 11:43:32</time>
      </trkpt>
      <trkpt lat="40.68928" lon="-3.94944">
        <ele>960.6</ele>
        <time>2021-11-16 11:43:33</time>
      </trkpt>
      <trkpt lat="40.68925" lon="-3.94951">
        <ele>960.6</ele>
        <time>2021-11-16 11:43:34</time>
      </trkpt>
      <trkpt lat="40.68922" lon="-3.94958">
        <ele>960.8</ele>
        <time>2021-11-16 11:43:35</time>
      </trkpt>
      <trkpt lat="40.68915" lon="-3.94974">
        <ele>960.6</ele>
        <time>2021-11-16 11:43:36</time>
      </trkpt>
      <trkpt lat="40.68915" lon="-3.94974">
        <ele>960.8</ele>
        <time>2021-11-16 11:43:37</time>
      </trkpt>
      <trkpt lat="40.68908" lon="-3.9499">
        <ele>960.8</ele>
        <time>2021-11-16 11:43:38</time>
      </trkpt>
      <trkpt lat="40.68908" lon="-3.9499">
        <ele>961</ele>
        <time>2021-11-16 11:43:39</time>
      </trkpt>
      <trkpt lat="40.68905" lon="-3.94997">
        <ele>961</ele>
        <time>2021-11-16 11:43:40</time>
      </trkpt>
      <trkpt lat="40.68902" lon="-3.95006">
        <ele>961</ele>
        <time>2021-11-16 11:43:41</time>
      </trkpt>
      <trkpt lat="40.68899" lon="-3.95014">
        <ele>961.4</ele>
        <time>2021-11-16 11:43:42</time>
      </trkpt>
      <trkpt lat="40.68896" lon="-3.95022">
        <ele>961.6</ele>
        <time>2021-11-16 11:43:43</time>
      </trkpt>
      <trkpt lat="40.68893" lon="-3.9503">
        <ele>961.6</ele>
        <time>2021-11-16 11:43:44</time>
      </trkpt>
      <trkpt lat="40.68887" lon="-3.95046">
        <ele>961.8</ele>
        <time>2021-11-16 11:43:45</time>
      </trkpt>
      <trkpt lat="40.68887" lon="-3.95046">
        <ele>961.8</ele>
        <time>2021-11-16 11:43:46</time>
      </trkpt>
      <trkpt lat="40.68884" lon="-3.95054">
        <ele>962</ele>
        <time>2021-11-16 11:43:47</time>
      </trkpt>
      <trkpt lat="40.68881" lon="-3.95062">
        <ele>962</ele>
        <time>2021-11-16 11:43:48</time>
      </trkpt>
      <trkpt lat="40.68874" lon="-3.95078">
        <ele>962.2</ele>
        <time>2021-11-16 11:43:49</time>
      </trkpt>
      <trkpt lat="40.68874" lon="-3.95078">
        <ele>962</ele>
        <time>2021-11-16 11:43:50</time>
      </trkpt>
      <trkpt lat="40.68868" lon="-3.95094">
        <ele>962</ele>
        <time>2021-11-16 11:43:51</time>
      </trkpt>
      <trkpt lat="40.68868" lon="-3.95094">
        <ele>962</ele>
        <time>2021-11-16 11:43:52</time>
      </trkpt>
      <trkpt lat="40.68865" lon="-3.95101">
        <ele>962.2</ele>
        <time>2021-11-16 11:43:53</time>
      </trkpt>
      <trkpt lat="40.68859" lon="-3.95117">
        <ele>962.2</ele>
        <time>2021-11-16 11:43:54</time>
      </trkpt>
      <trkpt lat="40.68859" lon="-3.95117">
        <ele>962.2</ele>
        <time>2021-11-16 11:43:55</time>
      </trkpt>
      <trkpt lat="40.68855" lon="-3.95124">
        <ele>962.2</ele>
        <time>2021-11-16 11:43:56</time>
      </trkpt>
      <trkpt lat="40.68852" lon="-3.95131">
        <ele>962.2</ele>
        <time>2021-11-16 11:43:57</time>
      </trkpt>
      <trkpt lat="40.68849" lon="-3.95138">
        <ele>962.2</ele>
        <time>2021-11-16 11:43:58</time>
      </trkpt>
      <trkpt lat="40.68845" lon="-3.95146">
        <ele>962.2</ele>
        <time>2021-11-16 11:43:59</time>
      </trkpt>
      <trkpt lat="40.68841" lon="-3.95152">
        <ele>962.4</ele>
        <time>2021-11-16 11:44:00</time>
      </trkpt>
      <trkpt lat="40.68837" lon="-3.95159">
        <ele>962.4</ele>
        <time>2021-11-16 11:44:01</time>
      </trkpt>
      <trkpt lat="40.68833" lon="-3.95165">
        <ele>962.4</ele>
        <time>2021-11-16 11:44:02</time>
      </trkpt>
      <trkpt lat="40.68829" lon="-3.95171">
        <ele>962.4</ele>
        <time>2021-11-16 11:44:03</time>
      </trkpt>
      <trkpt lat="40.68824" lon="-3.95177">
        <ele>962.6</ele>
        <time>2021-11-16 11:44:04</time>
      </trkpt>
      <trkpt lat="40.6882" lon="-3.95183">
        <ele>962.4</ele>
        <time>2021-11-16 11:44:05</time>
      </trkpt>
      <trkpt lat="40.68815" lon="-3.95189">
        <ele>962.6</ele>
        <time>2021-11-16 11:44:06</time>
      </trkpt>
      <trkpt lat="40.6881" lon="-3.95194">
        <ele>962.8</ele>
        <time>2021-11-16 11:44:07</time>
      </trkpt>
      <trkpt lat="40.68805" lon="-3.95199">
        <ele>962.8</ele>
        <time>2021-11-16 11:44:08</time>
      </trkpt>
      <trkpt lat="40.68799" lon="-3.95203">
        <ele>962.8</ele>
        <time>2021-11-16 11:44:09</time>
      </trkpt>
      <trkpt lat="40.68793" lon="-3.95207">
        <ele>963</ele>
        <time>2021-11-16 11:44:10</time>
      </trkpt>
      <trkpt lat="40.68787" lon="-3.95211">
        <ele>963.2</ele>
        <time>2021-11-16 11:44:11</time>
      </trkpt>
      <trkpt lat="40.68781" lon="-3.95214">
        <ele>963.2</ele>
        <time>2021-11-16 11:44:12</time>
      </trkpt>
      <trkpt lat="40.68775" lon="-3.95217">
        <ele>963.2</ele>
        <time>2021-11-16 11:44:13</time>
      </trkpt>
      <trkpt lat="40.68768" lon="-3.9522">
        <ele>963.4</ele>
        <time>2021-11-16 11:44:14</time>
      </trkpt>
      <trkpt lat="40.68762" lon="-3.95222">
        <ele>963.4</ele>
        <time>2021-11-16 11:44:15</time>
      </trkpt>
      <trkpt lat="40.68755" lon="-3.95225">
        <ele>963.4</ele>
        <time>2021-11-16 11:44:16</time>
      </trkpt>
      <trkpt lat="40.68748" lon="-3.95227">
        <ele>963.6</ele>
        <time>2021-11-16 11:44:17</time>
      </trkpt>
      <trkpt lat="40.68742" lon="-3.9523">
        <ele>963.6</ele>
        <time>2021-11-16 11:44:18</time>
      </trkpt>
      <trkpt lat="40.68735" lon="-3.95233">
        <ele>963.6</ele>
        <time>2021-11-16 11:44:19</time>
      </trkpt>
      <trkpt lat="40.68728" lon="-3.95236">
        <ele>963.6</ele>
        <time>2021-11-16 11:44:20</time>
      </trkpt>
      <trkpt lat="40.68722" lon="-3.95239">
        <ele>963.6</ele>
        <time>2021-11-16 11:44:21</time>
      </trkpt>
      <trkpt lat="40.68716" lon="-3.95243">
        <ele>963.4</ele>
        <time>2021-11-16 11:44:22</time>
      </trkpt>
      <trkpt lat="40.68709" lon="-3.95248">
        <ele>963.6</ele>
        <time>2021-11-16 11:44:23</time>
      </trkpt>
      <trkpt lat="40.68704" lon="-3.95252">
        <ele>963.4</ele>
        <time>2021-11-16 11:44:24</time>
      </trkpt>
      <trkpt lat="40.68698" lon="-3.95258">
        <ele>963.4</ele>
        <time>2021-11-16 11:44:25</time>
      </trkpt>
      <trkpt lat="40.68693" lon="-3.95264">
        <ele>963.4</ele>
        <time>2021-11-16 11:44:26</time>
      </trkpt>
      <trkpt lat="40.68683" lon="-3.95277">
        <ele>963.4</ele>
        <time>2021-11-16 11:44:27</time>
      </trkpt>
      <trkpt lat="40.68683" lon="-3.95277">
        <ele>963.4</ele>
        <time>2021-11-16 11:44:28</time>
      </trkpt>
      <trkpt lat="40.68679" lon="-3.95283">
        <ele>963.4</ele>
        <time>2021-11-16 11:44:29</time>
      </trkpt>
      <trkpt lat="40.6867" lon="-3.95297">
        <ele>963.4</ele>
        <time>2021-11-16 11:44:30</time>
      </trkpt>
      <trkpt lat="40.6867" lon="-3.95297">
        <ele>963.6</ele>
        <time>2021-11-16 11:44:31</time>
      </trkpt>
      <trkpt lat="40.68666" lon="-3.95304">
        <ele>963.6</ele>
        <time>2021-11-16 11:44:32</time>
      </trkpt>
      <trkpt lat="40.68662" lon="-3.95311">
        <ele>963.6</ele>
        <time>2021-11-16 11:44:33</time>
      </trkpt>
      <trkpt lat="40.68658" lon="-3.95318">
        <ele>963.4</ele>
        <time>2021-11-16 11:44:34</time>
      </trkpt>
      <trkpt lat="40.68654" lon="-3.95325">
        <ele>963.6</ele>
        <time>2021-11-16 11:44:35</time>
      </trkpt>
      <trkpt lat="40.6865" lon="-3.95332">
        <ele>963.6</ele>
        <time>2021-11-16 11:44:36</time>
      </trkpt>
      <trkpt lat="40.68641" lon="-3.95345">
        <ele>963.8</ele>
        <time>2021-11-16 11:44:37</time>
      </trkpt>
      <trkpt lat="40.68641" lon="-3.95345">
        <ele>963.8</ele>
        <time>2021-11-16 11:44:38</time>
      </trkpt>
      <trkpt lat="40.68632" lon="-3.95358">
        <ele>963.8</ele>
        <time>2021-11-16 11:44:39</time>
      </trkpt>
      <trkpt lat="40.68628" lon="-3.95365">
        <ele>963.8</ele>
        <time>2021-11-16 11:44:40</time>
      </trkpt>
      <trkpt lat="40.68628" lon="-3.95365">
        <ele>963.8</ele>
        <time>2021-11-16 11:44:41</time>
      </trkpt>
      <trkpt lat="40.68623" lon="-3.95371">
        <ele>963.6</ele>
        <time>2021-11-16 11:44:42</time>
      </trkpt>
      <trkpt lat="40.68618" lon="-3.95377">
        <ele>963.8</ele>
        <time>2021-11-16 11:44:43</time>
      </trkpt>
      <trkpt lat="40.68613" lon="-3.95383">
        <ele>963.8</ele>
        <time>2021-11-16 11:44:44</time>
      </trkpt>
      <trkpt lat="40.68607" lon="-3.95388">
        <ele>964</ele>
        <time>2021-11-16 11:44:45</time>
      </trkpt>
      <trkpt lat="40.68596" lon="-3.95398">
        <ele>964</ele>
        <time>2021-11-16 11:44:46</time>
      </trkpt>
      <trkpt lat="40.68596" lon="-3.95398">
        <ele>964</ele>
        <time>2021-11-16 11:44:47</time>
      </trkpt>
      <trkpt lat="40.6859" lon="-3.95403">
        <ele>964.2</ele>
        <time>2021-11-16 11:44:48</time>
      </trkpt>
      <trkpt lat="40.68584" lon="-3.95407">
        <ele>964.2</ele>
        <time>2021-11-16 11:44:49</time>
      </trkpt>
      <trkpt lat="40.68578" lon="-3.95411">
        <ele>964.2</ele>
        <time>2021-11-16 11:44:50</time>
      </trkpt>
      <trkpt lat="40.68572" lon="-3.95415">
        <ele>964.2</ele>
        <time>2021-11-16 11:44:51</time>
      </trkpt>
      <trkpt lat="40.68566" lon="-3.95419">
        <ele>964.2</ele>
        <time>2021-11-16 11:44:52</time>
      </trkpt>
      <trkpt lat="40.6856" lon="-3.95423">
        <ele>964.2</ele>
        <time>2021-11-16 11:44:53</time>
      </trkpt>
      <trkpt lat="40.68554" lon="-3.95427">
        <ele>964.2</ele>
        <time>2021-11-16 11:44:54</time>
      </trkpt>
      <trkpt lat="40.68548" lon="-3.9543">
        <ele>964.2</ele>
        <time>2021-11-16 11:44:55</time>
      </trkpt>
      <trkpt lat="40.68542" lon="-3.95434">
        <ele>964.4</ele>
        <time>2021-11-16 11:44:56</time>
      </trkpt>
      <trkpt lat="40.68536" lon="-3.95438">
        <ele>964.6</ele>
        <time>2021-11-16 11:44:57</time>
      </trkpt>
      <trkpt lat="40.6853" lon="-3.95441">
        <ele>964.6</ele>
        <time>2021-11-16 11:44:58</time>
      </trkpt>
      <trkpt lat="40.68524" lon="-3.95445">
        <ele>964.6</ele>
        <time>2021-11-16 11:44:59</time>
      </trkpt>
      <trkpt lat="40.68518" lon="-3.95448">
        <ele>964.8</ele>
        <time>2021-11-16 11:45:00</time>
      </trkpt>
      <trkpt lat="40.68512" lon="-3.95452">
        <ele>964.8</ele>
        <time>2021-11-16 11:45:01</time>
      </trkpt>
      <trkpt lat="40.68507" lon="-3.95455">
        <ele>964.8</ele>
        <time>2021-11-16 11:45:02</time>
      </trkpt>
      <trkpt lat="40.68495" lon="-3.95461">
        <ele>965</ele>
        <time>2021-11-16 11:45:03</time>
      </trkpt>
      <trkpt lat="40.68489" lon="-3.95464">
        <ele>965</ele>
        <time>2021-11-16 11:45:04</time>
      </trkpt>
      <trkpt lat="40.68483" lon="-3.95467">
        <ele>965.2</ele>
        <time>2021-11-16 11:45:05</time>
      </trkpt>
      <trkpt lat="40.68483" lon="-3.95467">
        <ele>965.6</ele>
        <time>2021-11-16 11:45:06</time>
      </trkpt>
      <trkpt lat="40.68477" lon="-3.95469">
        <ele>965.8</ele>
        <time>2021-11-16 11:45:07</time>
      </trkpt>
      <trkpt lat="40.68465" lon="-3.95472">
        <ele>965.8</ele>
        <time>2021-11-16 11:45:08</time>
      </trkpt>
      <trkpt lat="40.68459" lon="-3.95473">
        <ele>965.8</ele>
        <time>2021-11-16 11:45:09</time>
      </trkpt>
      <trkpt lat="40.68453" lon="-3.95474">
        <ele>966</ele>
        <time>2021-11-16 11:45:10</time>
      </trkpt>
      <trkpt lat="40.68453" lon="-3.95474">
        <ele>966</ele>
        <time>2021-11-16 11:45:11</time>
      </trkpt>
      <trkpt lat="40.6844" lon="-3.95476">
        <ele>966.4</ele>
        <time>2021-11-16 11:45:12</time>
      </trkpt>
      <trkpt lat="40.68433" lon="-3.95477">
        <ele>966.4</ele>
        <time>2021-11-16 11:45:13</time>
      </trkpt>
      <trkpt lat="40.68433" lon="-3.95477">
        <ele>966.4</ele>
        <time>2021-11-16 11:45:14</time>
      </trkpt>
      <trkpt lat="40.68427" lon="-3.95478">
        <ele>966.6</ele>
        <time>2021-11-16 11:45:15</time>
      </trkpt>
      <trkpt lat="40.68415" lon="-3.9548">
        <ele>966.6</ele>
        <time>2021-11-16 11:45:16</time>
      </trkpt>
      <trkpt lat="40.68408" lon="-3.95481">
        <ele>966.6</ele>
        <time>2021-11-16 11:45:17</time>
      </trkpt>
      <trkpt lat="40.68408" lon="-3.95481">
        <ele>966.6</ele>
        <time>2021-11-16 11:45:18</time>
      </trkpt>
      <trkpt lat="40.68402" lon="-3.95482">
        <ele>966.6</ele>
        <time>2021-11-16 11:45:19</time>
      </trkpt>
      <trkpt lat="40.68396" lon="-3.95483">
        <ele>966.8</ele>
        <time>2021-11-16 11:45:20</time>
      </trkpt>
      <trkpt lat="40.68383" lon="-3.95485">
        <ele>966.8</ele>
        <time>2021-11-16 11:45:21</time>
      </trkpt>
      <trkpt lat="40.68377" lon="-3.95486">
        <ele>966.8</ele>
        <time>2021-11-16 11:45:22</time>
      </trkpt>
      <trkpt lat="40.6837" lon="-3.95487">
        <ele>966.8</ele>
        <time>2021-11-16 11:45:23</time>
      </trkpt>
      <trkpt lat="40.68364" lon="-3.95488">
        <ele>966.8</ele>
        <time>2021-11-16 11:45:24</time>
      </trkpt>
      <trkpt lat="40.68358" lon="-3.9549">
        <ele>967</ele>
        <time>2021-11-16 11:45:25</time>
      </trkpt>
      <trkpt lat="40.68352" lon="-3.95492">
        <ele>967.2</ele>
        <time>2021-11-16 11:45:26</time>
      </trkpt>
      <trkpt lat="40.68346" lon="-3.95494">
        <ele>967.4</ele>
        <time>2021-11-16 11:45:27</time>
      </trkpt>
      <trkpt lat="40.6834" lon="-3.95497">
        <ele>967.6</ele>
        <time>2021-11-16 11:45:28</time>
      </trkpt>
      <trkpt lat="40.6834" lon="-3.95497">
        <ele>967.8</ele>
        <time>2021-11-16 11:45:29</time>
      </trkpt>
      <trkpt lat="40.68329" lon="-3.95505">
        <ele>967.8</ele>
        <time>2021-11-16 11:45:30</time>
      </trkpt>
      <trkpt lat="40.68324" lon="-3.95509">
        <ele>968</ele>
        <time>2021-11-16 11:45:31</time>
      </trkpt>
      <trkpt lat="40.68324" lon="-3.95509">
        <ele>968.2</ele>
        <time>2021-11-16 11:45:32</time>
      </trkpt>
      <trkpt lat="40.68314" lon="-3.95518">
        <ele>968</ele>
        <time>2021-11-16 11:45:33</time>
      </trkpt>
      <trkpt lat="40.68309" lon="-3.95523">
        <ele>968.2</ele>
        <time>2021-11-16 11:45:34</time>
      </trkpt>
      <trkpt lat="40.68309" lon="-3.95523">
        <ele>968.2</ele>
        <time>2021-11-16 11:45:35</time>
      </trkpt>
      <trkpt lat="40.68299" lon="-3.95532">
        <ele>968.2</ele>
        <time>2021-11-16 11:45:36</time>
      </trkpt>
      <trkpt lat="40.68293" lon="-3.95537">
        <ele>968.4</ele>
        <time>2021-11-16 11:45:37</time>
      </trkpt>
      <trkpt lat="40.68293" lon="-3.95537">
        <ele>968.4</ele>
        <time>2021-11-16 11:45:38</time>
      </trkpt>
      <trkpt lat="40.68283" lon="-3.95547">
        <ele>968.4</ele>
        <time>2021-11-16 11:45:39</time>
      </trkpt>
      <trkpt lat="40.68283" lon="-3.95547">
        <ele>968.4</ele>
        <time>2021-11-16 11:45:40</time>
      </trkpt>
      <trkpt lat="40.68278" lon="-3.95552">
        <ele>968.6</ele>
        <time>2021-11-16 11:45:41</time>
      </trkpt>
      <trkpt lat="40.68273" lon="-3.95556">
        <ele>968.6</ele>
        <time>2021-11-16 11:45:42</time>
      </trkpt>
      <trkpt lat="40.68268" lon="-3.95561">
        <ele>968.8</ele>
        <time>2021-11-16 11:45:43</time>
      </trkpt>
      <trkpt lat="40.68258" lon="-3.9557">
        <ele>968.8</ele>
        <time>2021-11-16 11:45:44</time>
      </trkpt>
      <trkpt lat="40.68253" lon="-3.95574">
        <ele>968.8</ele>
        <time>2021-11-16 11:45:45</time>
      </trkpt>
      <trkpt lat="40.68248" lon="-3.95579">
        <ele>969.2</ele>
        <time>2021-11-16 11:45:46</time>
      </trkpt>
      <trkpt lat="40.68248" lon="-3.95579">
        <ele>969.2</ele>
        <time>2021-11-16 11:45:47</time>
      </trkpt>
      <trkpt lat="40.68238" lon="-3.95588">
        <ele>969.4</ele>
        <time>2021-11-16 11:45:48</time>
      </trkpt>
      <trkpt lat="40.68238" lon="-3.95588">
        <ele>969.6</ele>
        <time>2021-11-16 11:45:49</time>
      </trkpt>
      <trkpt lat="40.68229" lon="-3.95597">
        <ele>969.6</ele>
        <time>2021-11-16 11:45:50</time>
      </trkpt>
      <trkpt lat="40.68229" lon="-3.95597">
        <ele>970</ele>
        <time>2021-11-16 11:45:51</time>
      </trkpt>
      <trkpt lat="40.68219" lon="-3.95606">
        <ele>970</ele>
        <time>2021-11-16 11:45:52</time>
      </trkpt>
      <trkpt lat="40.68214" lon="-3.9561">
        <ele>970</ele>
        <time>2021-11-16 11:45:53</time>
      </trkpt>
      <trkpt lat="40.6821" lon="-3.95615">
        <ele>970</ele>
        <time>2021-11-16 11:45:54</time>
      </trkpt>
      <trkpt lat="40.68205" lon="-3.95619">
        <ele>970.2</ele>
        <time>2021-11-16 11:45:55</time>
      </trkpt>
      <trkpt lat="40.68205" lon="-3.95619">
        <ele>970.4</ele>
        <time>2021-11-16 11:45:56</time>
      </trkpt>
      <trkpt lat="40.68196" lon="-3.95627">
        <ele>970.4</ele>
        <time>2021-11-16 11:45:57</time>
      </trkpt>
      <trkpt lat="40.68191" lon="-3.95632">
        <ele>970.8</ele>
        <time>2021-11-16 11:45:58</time>
      </trkpt>
      <trkpt lat="40.68187" lon="-3.95636">
        <ele>971</ele>
        <time>2021-11-16 11:45:59</time>
      </trkpt>
      <trkpt lat="40.68187" lon="-3.95636">
        <ele>971.2</ele>
        <time>2021-11-16 11:46:00</time>
      </trkpt>
      <trkpt lat="40.68178" lon="-3.95645">
        <ele>971.2</ele>
        <time>2021-11-16 11:46:01</time>
      </trkpt>
      <trkpt lat="40.68178" lon="-3.95645">
        <ele>971.2</ele>
        <time>2021-11-16 11:46:02</time>
      </trkpt>
      <trkpt lat="40.68169" lon="-3.95653">
        <ele>971.6</ele>
        <time>2021-11-16 11:46:03</time>
      </trkpt>
      <trkpt lat="40.68169" lon="-3.95653">
        <ele>972</ele>
        <time>2021-11-16 11:46:04</time>
      </trkpt>
      <trkpt lat="40.6816" lon="-3.95661">
        <ele>972</ele>
        <time>2021-11-16 11:46:05</time>
      </trkpt>
      <trkpt lat="40.68156" lon="-3.95665">
        <ele>972.4</ele>
        <time>2021-11-16 11:46:06</time>
      </trkpt>
      <trkpt lat="40.68151" lon="-3.95669">
        <ele>972.6</ele>
        <time>2021-11-16 11:46:07</time>
      </trkpt>
      <trkpt lat="40.68147" lon="-3.95673">
        <ele>972.8</ele>
        <time>2021-11-16 11:46:08</time>
      </trkpt>
      <trkpt lat="40.68142" lon="-3.95677">
        <ele>973.2</ele>
        <time>2021-11-16 11:46:09</time>
      </trkpt>
      <trkpt lat="40.68138" lon="-3.95681">
        <ele>973.4</ele>
        <time>2021-11-16 11:46:10</time>
      </trkpt>
      <trkpt lat="40.68138" lon="-3.95681">
        <ele>973.6</ele>
        <time>2021-11-16 11:46:11</time>
      </trkpt>
      <trkpt lat="40.68133" lon="-3.95686">
        <ele>973.6</ele>
        <time>2021-11-16 11:46:12</time>
      </trkpt>
      <trkpt lat="40.68129" lon="-3.9569">
        <ele>973.6</ele>
        <time>2021-11-16 11:46:13</time>
      </trkpt>
      <trkpt lat="40.68124" lon="-3.95694">
        <ele>973.8</ele>
        <time>2021-11-16 11:46:14</time>
      </trkpt>
      <trkpt lat="40.68115" lon="-3.95702">
        <ele>973.8</ele>
        <time>2021-11-16 11:46:15</time>
      </trkpt>
      <trkpt lat="40.68111" lon="-3.95706">
        <ele>974</ele>
        <time>2021-11-16 11:46:16</time>
      </trkpt>
      <trkpt lat="40.68106" lon="-3.95711">
        <ele>974.2</ele>
        <time>2021-11-16 11:46:17</time>
      </trkpt>
      <trkpt lat="40.68102" lon="-3.95716">
        <ele>974.4</ele>
        <time>2021-11-16 11:46:18</time>
      </trkpt>
      <trkpt lat="40.68098" lon="-3.9572">
        <ele>974.4</ele>
        <time>2021-11-16 11:46:19</time>
      </trkpt>
      <trkpt lat="40.68098" lon="-3.9572">
        <ele>974.8</ele>
        <time>2021-11-16 11:46:20</time>
      </trkpt>
      <trkpt lat="40.6809" lon="-3.9573">
        <ele>975</ele>
        <time>2021-11-16 11:46:21</time>
      </trkpt>
      <trkpt lat="40.68087" lon="-3.95736">
        <ele>975.2</ele>
        <time>2021-11-16 11:46:22</time>
      </trkpt>
      <trkpt lat="40.68084" lon="-3.95742">
        <ele>975.4</ele>
        <time>2021-11-16 11:46:23</time>
      </trkpt>
      <trkpt lat="40.68084" lon="-3.95742">
        <ele>975.6</ele>
        <time>2021-11-16 11:46:24</time>
      </trkpt>
      <trkpt lat="40.68078" lon="-3.95755">
        <ele>975.6</ele>
        <time>2021-11-16 11:46:25</time>
      </trkpt>
      <trkpt lat="40.68078" lon="-3.95755">
        <ele>975.6</ele>
        <time>2021-11-16 11:46:26</time>
      </trkpt>
      <trkpt lat="40.68075" lon="-3.95761">
        <ele>975.8</ele>
        <time>2021-11-16 11:46:27</time>
      </trkpt>
      <trkpt lat="40.68073" lon="-3.95768">
        <ele>975.8</ele>
        <time>2021-11-16 11:46:28</time>
      </trkpt>
      <trkpt lat="40.68068" lon="-3.95782">
        <ele>976</ele>
        <time>2021-11-16 11:46:29</time>
      </trkpt>
      <trkpt lat="40.68068" lon="-3.95782">
        <ele>976</ele>
        <time>2021-11-16 11:46:30</time>
      </trkpt>
      <trkpt lat="40.68065" lon="-3.95788">
        <ele>976.2</ele>
        <time>2021-11-16 11:46:31</time>
      </trkpt>
      <trkpt lat="40.68063" lon="-3.95795">
        <ele>976.2</ele>
        <time>2021-11-16 11:46:32</time>
      </trkpt>
      <trkpt lat="40.68057" lon="-3.9581">
        <ele>976.2</ele>
        <time>2021-11-16 11:46:33</time>
      </trkpt>
      <trkpt lat="40.68057" lon="-3.9581">
        <ele>976.4</ele>
        <time>2021-11-16 11:46:34</time>
      </trkpt>
      <trkpt lat="40.68055" lon="-3.95817">
        <ele>976.4</ele>
        <time>2021-11-16 11:46:35</time>
      </trkpt>
      <trkpt lat="40.68052" lon="-3.95824">
        <ele>976.2</ele>
        <time>2021-11-16 11:46:36</time>
      </trkpt>
      <trkpt lat="40.68047" lon="-3.95838">
        <ele>976.4</ele>
        <time>2021-11-16 11:46:37</time>
      </trkpt>
      <trkpt lat="40.68047" lon="-3.95838">
        <ele>976.4</ele>
        <time>2021-11-16 11:46:38</time>
      </trkpt>
      <trkpt lat="40.68042" lon="-3.95852">
        <ele>976.6</ele>
        <time>2021-11-16 11:46:39</time>
      </trkpt>
      <trkpt lat="40.68042" lon="-3.95852">
        <ele>976.6</ele>
        <time>2021-11-16 11:46:40</time>
      </trkpt>
      <trkpt lat="40.68039" lon="-3.9586">
        <ele>976.6</ele>
        <time>2021-11-16 11:46:41</time>
      </trkpt>
      <trkpt lat="40.68036" lon="-3.95867">
        <ele>976.4</ele>
        <time>2021-11-16 11:46:42</time>
      </trkpt>
      <trkpt lat="40.68031" lon="-3.95882">
        <ele>976.4</ele>
        <time>2021-11-16 11:46:43</time>
      </trkpt>
      <trkpt lat="40.68031" lon="-3.95882">
        <ele>976.4</ele>
        <time>2021-11-16 11:46:44</time>
      </trkpt>
      <trkpt lat="40.68028" lon="-3.9589">
        <ele>976.2</ele>
        <time>2021-11-16 11:46:45</time>
      </trkpt>
      <trkpt lat="40.68025" lon="-3.95897">
        <ele>976.2</ele>
        <time>2021-11-16 11:46:46</time>
      </trkpt>
      <trkpt lat="40.68019" lon="-3.95912">
        <ele>976.2</ele>
        <time>2021-11-16 11:46:47</time>
      </trkpt>
      <trkpt lat="40.68016" lon="-3.9592">
        <ele>976.2</ele>
        <time>2021-11-16 11:46:48</time>
      </trkpt>
      <trkpt lat="40.68016" lon="-3.9592">
        <ele>976.2</ele>
        <time>2021-11-16 11:46:49</time>
      </trkpt>
      <trkpt lat="40.68014" lon="-3.95928">
        <ele>976.2</ele>
        <time>2021-11-16 11:46:50</time>
      </trkpt>
      <trkpt lat="40.68011" lon="-3.95935">
        <ele>976.2</ele>
        <time>2021-11-16 11:46:51</time>
      </trkpt>
      <trkpt lat="40.68008" lon="-3.95943">
        <ele>976.2</ele>
        <time>2021-11-16 11:46:52</time>
      </trkpt>
      <trkpt lat="40.68003" lon="-3.95957">
        <ele>976.2</ele>
        <time>2021-11-16 11:46:53</time>
      </trkpt>
      <trkpt lat="40.68003" lon="-3.95957">
        <ele>976.2</ele>
        <time>2021-11-16 11:46:54</time>
      </trkpt>
      <trkpt lat="40.67999" lon="-3.95972">
        <ele>976.2</ele>
        <time>2021-11-16 11:46:55</time>
      </trkpt>
      <trkpt lat="40.67997" lon="-3.95979">
        <ele>976.2</ele>
        <time>2021-11-16 11:46:56</time>
      </trkpt>
      <trkpt lat="40.67997" lon="-3.95979">
        <ele>976.2</ele>
        <time>2021-11-16 11:46:57</time>
      </trkpt>
      <trkpt lat="40.67993" lon="-3.95993">
        <ele>976.4</ele>
        <time>2021-11-16 11:46:58</time>
      </trkpt>
      <trkpt lat="40.67993" lon="-3.95993">
        <ele>976.2</ele>
        <time>2021-11-16 11:46:59</time>
      </trkpt>
      <trkpt lat="40.67989" lon="-3.96007">
        <ele>976.2</ele>
        <time>2021-11-16 11:47:00</time>
      </trkpt>
      <trkpt lat="40.67988" lon="-3.96015">
        <ele>976.4</ele>
        <time>2021-11-16 11:47:01</time>
      </trkpt>
      <trkpt lat="40.67986" lon="-3.96024">
        <ele>976.4</ele>
        <time>2021-11-16 11:47:02</time>
      </trkpt>
      <trkpt lat="40.67986" lon="-3.96024">
        <ele>976.4</ele>
        <time>2021-11-16 11:47:03</time>
      </trkpt>
      <trkpt lat="40.67984" lon="-3.96032">
        <ele>976.4</ele>
        <time>2021-11-16 11:47:04</time>
      </trkpt>
      <trkpt lat="40.67981" lon="-3.9604">
        <ele>976.4</ele>
        <time>2021-11-16 11:47:05</time>
      </trkpt>
      <trkpt lat="40.67976" lon="-3.96045">
        <ele>976.4</ele>
        <time>2021-11-16 11:47:06</time>
      </trkpt>
      <trkpt lat="40.67971" lon="-3.96046">
        <ele>976.4</ele>
        <time>2021-11-16 11:47:07</time>
      </trkpt>
      <trkpt lat="40.67965" lon="-3.96043">
        <ele>976.4</ele>
        <time>2021-11-16 11:47:08</time>
      </trkpt>
      <trkpt lat="40.6796" lon="-3.96038">
        <ele>976.2</ele>
        <time>2021-11-16 11:47:09</time>
      </trkpt>
      <trkpt lat="40.67957" lon="-3.96032">
        <ele>976.2</ele>
        <time>2021-11-16 11:47:10</time>
      </trkpt>
      <trkpt lat="40.67951" lon="-3.9602">
        <ele>976.4</ele>
        <time>2021-11-16 11:47:11</time>
      </trkpt>
      <trkpt lat="40.67951" lon="-3.9602">
        <ele>976.4</ele>
        <time>2021-11-16 11:47:12</time>
      </trkpt>
      <trkpt lat="40.67947" lon="-3.96015">
        <ele>976.4</ele>
        <time>2021-11-16 11:47:13</time>
      </trkpt>
      <trkpt lat="40.67943" lon="-3.96012">
        <ele>976</ele>
        <time>2021-11-16 11:47:14</time>
      </trkpt>
      <trkpt lat="40.67939" lon="-3.96009">
        <ele>976</ele>
        <time>2021-11-16 11:47:15</time>
      </trkpt>
      <trkpt lat="40.67937" lon="-3.96005">
        <ele>976</ele>
        <time>2021-11-16 11:47:16</time>
      </trkpt>
      <trkpt lat="40.67936" lon="-3.96">
        <ele>976.2</ele>
        <time>2021-11-16 11:47:17</time>
      </trkpt>
      <trkpt lat="40.67936" lon="-3.95996">
        <ele>976.2</ele>
        <time>2021-11-16 11:47:18</time>
      </trkpt>
      <trkpt lat="40.67938" lon="-3.95994">
        <ele>976.2</ele>
        <time>2021-11-16 11:47:19</time>
      </trkpt>
      <trkpt lat="40.67951" lon="-3.96011">
        <ele>979</ele>
        <time>2021-11-16 11:54:44</time>
      </trkpt>
      <trkpt lat="40.67954" lon="-3.96012">
        <ele>978.8</ele>
        <time>2021-11-16 11:54:45</time>
      </trkpt>
      <trkpt lat="40.67954" lon="-3.96012">
        <ele>978.8</ele>
        <time>2021-11-16 11:54:46</time>
      </trkpt>
      <trkpt lat="40.67958" lon="-3.96012">
        <ele>979</ele>
        <time>2021-11-16 11:54:47</time>
      </trkpt>
      <trkpt lat="40.67961" lon="-3.96012">
        <ele>979</ele>
        <time>2021-11-16 11:54:48</time>
      </trkpt>
      <trkpt lat="40.67965" lon="-3.96011">
        <ele>978.8</ele>
        <time>2021-11-16 11:54:49</time>
      </trkpt>
      <trkpt lat="40.67969" lon="-3.96008">
        <ele>978.8</ele>
        <time>2021-11-16 11:54:50</time>
      </trkpt>
      <trkpt lat="40.67973" lon="-3.96004">
        <ele>979</ele>
        <time>2021-11-16 11:54:51</time>
      </trkpt>
      <trkpt lat="40.67979" lon="-3.95994">
        <ele>978.8</ele>
        <time>2021-11-16 11:54:52</time>
      </trkpt>
      <trkpt lat="40.67982" lon="-3.95988">
        <ele>978.8</ele>
        <time>2021-11-16 11:54:53</time>
      </trkpt>
      <trkpt lat="40.67986" lon="-3.95982">
        <ele>978.8</ele>
        <time>2021-11-16 11:54:54</time>
      </trkpt>
      <trkpt lat="40.67989" lon="-3.95975">
        <ele>978.6</ele>
        <time>2021-11-16 11:54:55</time>
      </trkpt>
      <trkpt lat="40.67991" lon="-3.95968">
        <ele>978.8</ele>
        <time>2021-11-16 11:54:56</time>
      </trkpt>
      <trkpt lat="40.67994" lon="-3.95961">
        <ele>978.6</ele>
        <time>2021-11-16 11:54:57</time>
      </trkpt>
      <trkpt lat="40.67997" lon="-3.95954">
        <ele>978.4</ele>
        <time>2021-11-16 11:54:58</time>
      </trkpt>
      <trkpt lat="40.68" lon="-3.95947">
        <ele>978.6</ele>
        <time>2021-11-16 11:54:59</time>
      </trkpt>
      <trkpt lat="40.68002" lon="-3.9594">
        <ele>978.2</ele>
        <time>2021-11-16 11:55:00</time>
      </trkpt>
      <trkpt lat="40.68002" lon="-3.9594">
        <ele>978.2</ele>
        <time>2021-11-16 11:55:01</time>
      </trkpt>
      <trkpt lat="40.68008" lon="-3.95925">
        <ele>978.2</ele>
        <time>2021-11-16 11:55:02</time>
      </trkpt>
      <trkpt lat="40.68011" lon="-3.95917">
        <ele>978.2</ele>
        <time>2021-11-16 11:55:03</time>
      </trkpt>
      <trkpt lat="40.68014" lon="-3.9591">
        <ele>978</ele>
        <time>2021-11-16 11:55:04</time>
      </trkpt>
      <trkpt lat="40.68017" lon="-3.95902">
        <ele>978</ele>
        <time>2021-11-16 11:55:05</time>
      </trkpt>
      <trkpt lat="40.6802" lon="-3.95894">
        <ele>978</ele>
        <time>2021-11-16 11:55:06</time>
      </trkpt>
      <trkpt lat="40.68023" lon="-3.95887">
        <ele>978</ele>
        <time>2021-11-16 11:55:07</time>
      </trkpt>
      <trkpt lat="40.68026" lon="-3.95879">
        <ele>977.8</ele>
        <time>2021-11-16 11:55:08</time>
      </trkpt>
      <trkpt lat="40.68029" lon="-3.95871">
        <ele>977.8</ele>
        <time>2021-11-16 11:55:09</time>
      </trkpt>
      <trkpt lat="40.68029" lon="-3.95871">
        <ele>977.8</ele>
        <time>2021-11-16 11:55:10</time>
      </trkpt>
      <trkpt lat="40.68035" lon="-3.95856">
        <ele>977.8</ele>
        <time>2021-11-16 11:55:11</time>
      </trkpt>
      <trkpt lat="40.68037" lon="-3.95848">
        <ele>977.6</ele>
        <time>2021-11-16 11:55:12</time>
      </trkpt>
      <trkpt lat="40.6804" lon="-3.9584">
        <ele>977.6</ele>
        <time>2021-11-16 11:55:13</time>
      </trkpt>
      <trkpt lat="40.68043" lon="-3.95833">
        <ele>977.8</ele>
        <time>2021-11-16 11:55:14</time>
      </trkpt>
      <trkpt lat="40.68046" lon="-3.95825">
        <ele>977.6</ele>
        <time>2021-11-16 11:55:15</time>
      </trkpt>
      <trkpt lat="40.68049" lon="-3.95817">
        <ele>977.8</ele>
        <time>2021-11-16 11:55:16</time>
      </trkpt>
      <trkpt lat="40.68049" lon="-3.95817">
        <ele>977.6</ele>
        <time>2021-11-16 11:55:17</time>
      </trkpt>
      <trkpt lat="40.68055" lon="-3.95802">
        <ele>977.8</ele>
        <time>2021-11-16 11:55:18</time>
      </trkpt>
      <trkpt lat="40.68058" lon="-3.95794">
        <ele>977.8</ele>
        <time>2021-11-16 11:55:19</time>
      </trkpt>
      <trkpt lat="40.68061" lon="-3.95786">
        <ele>977.8</ele>
        <time>2021-11-16 11:55:20</time>
      </trkpt>
      <trkpt lat="40.68064" lon="-3.95778">
        <ele>977.6</ele>
        <time>2021-11-16 11:55:21</time>
      </trkpt>
      <trkpt lat="40.68067" lon="-3.9577">
        <ele>977.8</ele>
        <time>2021-11-16 11:55:22</time>
      </trkpt>
      <trkpt lat="40.68067" lon="-3.9577">
        <ele>977.8</ele>
        <time>2021-11-16 11:55:23</time>
      </trkpt>
      <trkpt lat="40.68073" lon="-3.95754">
        <ele>977.8</ele>
        <time>2021-11-16 11:55:24</time>
      </trkpt>
      <trkpt lat="40.68076" lon="-3.95746">
        <ele>978</ele>
        <time>2021-11-16 11:55:25</time>
      </trkpt>
      <trkpt lat="40.6808" lon="-3.95739">
        <ele>977.8</ele>
        <time>2021-11-16 11:55:26</time>
      </trkpt>
      <trkpt lat="40.68084" lon="-3.95732">
        <ele>977.8</ele>
        <time>2021-11-16 11:55:27</time>
      </trkpt>
      <trkpt lat="40.68088" lon="-3.95725">
        <ele>978</ele>
        <time>2021-11-16 11:55:28</time>
      </trkpt>
      <trkpt lat="40.68088" lon="-3.95725">
        <ele>978</ele>
        <time>2021-11-16 11:55:29</time>
      </trkpt>
      <trkpt lat="40.68097" lon="-3.95712">
        <ele>978</ele>
        <time>2021-11-16 11:55:30</time>
      </trkpt>
      <trkpt lat="40.68103" lon="-3.95706">
        <ele>978</ele>
        <time>2021-11-16 11:55:31</time>
      </trkpt>
      <trkpt lat="40.68109" lon="-3.957">
        <ele>978</ele>
        <time>2021-11-16 11:55:32</time>
      </trkpt>
      <trkpt lat="40.68115" lon="-3.95694">
        <ele>977.8</ele>
        <time>2021-11-16 11:55:33</time>
      </trkpt>
      <trkpt lat="40.68115" lon="-3.95694">
        <ele>977.8</ele>
        <time>2021-11-16 11:55:34</time>
      </trkpt>
      <trkpt lat="40.68127" lon="-3.95682">
        <ele>977.8</ele>
        <time>2021-11-16 11:55:35</time>
      </trkpt>
      <trkpt lat="40.68134" lon="-3.95676">
        <ele>977.8</ele>
        <time>2021-11-16 11:55:36</time>
      </trkpt>
      <trkpt lat="40.68141" lon="-3.9567">
        <ele>977.8</ele>
        <time>2021-11-16 11:55:37</time>
      </trkpt>
      <trkpt lat="40.68147" lon="-3.95664">
        <ele>977.8</ele>
        <time>2021-11-16 11:55:38</time>
      </trkpt>
      <trkpt lat="40.68154" lon="-3.95658">
        <ele>977.8</ele>
        <time>2021-11-16 11:55:39</time>
      </trkpt>
      <trkpt lat="40.68161" lon="-3.95652">
        <ele>977.8</ele>
        <time>2021-11-16 11:55:40</time>
      </trkpt>
      <trkpt lat="40.68168" lon="-3.95646">
        <ele>977.4</ele>
        <time>2021-11-16 11:55:41</time>
      </trkpt>
      <trkpt lat="40.68174" lon="-3.95639">
        <ele>977.2</ele>
        <time>2021-11-16 11:55:42</time>
      </trkpt>
      <trkpt lat="40.68181" lon="-3.95633">
        <ele>977</ele>
        <time>2021-11-16 11:55:43</time>
      </trkpt>
      <trkpt lat="40.68188" lon="-3.95626">
        <ele>976.8</ele>
        <time>2021-11-16 11:55:44</time>
      </trkpt>
      <trkpt lat="40.68188" lon="-3.95626">
        <ele>976.8</ele>
        <time>2021-11-16 11:55:45</time>
      </trkpt>
      <trkpt lat="40.68203" lon="-3.95613">
        <ele>976.6</ele>
        <time>2021-11-16 11:55:46</time>
      </trkpt>
      <trkpt lat="40.6821" lon="-3.95606">
        <ele>976</ele>
        <time>2021-11-16 11:55:47</time>
      </trkpt>
      <trkpt lat="40.68218" lon="-3.95599">
        <ele>976</ele>
        <time>2021-11-16 11:55:48</time>
      </trkpt>
      <trkpt lat="40.68226" lon="-3.95592">
        <ele>976</ele>
        <time>2021-11-16 11:55:49</time>
      </trkpt>
      <trkpt lat="40.68234" lon="-3.95584">
        <ele>975.8</ele>
        <time>2021-11-16 11:55:50</time>
      </trkpt>
      <trkpt lat="40.68242" lon="-3.95576">
        <ele>975.4</ele>
        <time>2021-11-16 11:55:51</time>
      </trkpt>
      <trkpt lat="40.6825" lon="-3.95569">
        <ele>975</ele>
        <time>2021-11-16 11:55:52</time>
      </trkpt>
      <trkpt lat="40.68258" lon="-3.95562">
        <ele>974.8</ele>
        <time>2021-11-16 11:55:53</time>
      </trkpt>
      <trkpt lat="40.68267" lon="-3.95554">
        <ele>974.6</ele>
        <time>2021-11-16 11:55:54</time>
      </trkpt>
      <trkpt lat="40.68275" lon="-3.95546">
        <ele>974.4</ele>
        <time>2021-11-16 11:55:55</time>
      </trkpt>
      <trkpt lat="40.68275" lon="-3.95546">
        <ele>974.2</ele>
        <time>2021-11-16 11:55:56</time>
      </trkpt>
      <trkpt lat="40.68291" lon="-3.95531">
        <ele>974</ele>
        <time>2021-11-16 11:55:57</time>
      </trkpt>
      <trkpt lat="40.68291" lon="-3.95531">
        <ele>974</ele>
        <time>2021-11-16 11:55:58</time>
      </trkpt>
      <trkpt lat="40.68307" lon="-3.95516">
        <ele>973.6</ele>
        <time>2021-11-16 11:55:59</time>
      </trkpt>
      <trkpt lat="40.68316" lon="-3.95509">
        <ele>973.2</ele>
        <time>2021-11-16 11:56:00</time>
      </trkpt>
      <trkpt lat="40.68324" lon="-3.95502">
        <ele>972.6</ele>
        <time>2021-11-16 11:56:01</time>
      </trkpt>
      <trkpt lat="40.68332" lon="-3.95495">
        <ele>972.2</ele>
        <time>2021-11-16 11:56:02</time>
      </trkpt>
      <trkpt lat="40.68332" lon="-3.95495">
        <ele>972</ele>
        <time>2021-11-16 11:56:03</time>
      </trkpt>
      <trkpt lat="40.68341" lon="-3.95489">
        <ele>971.4</ele>
        <time>2021-11-16 11:56:04</time>
      </trkpt>
      <trkpt lat="40.68359" lon="-3.95481">
        <ele>971.2</ele>
        <time>2021-11-16 11:56:05</time>
      </trkpt>
      <trkpt lat="40.68359" lon="-3.95481">
        <ele>971.2</ele>
        <time>2021-11-16 11:56:06</time>
      </trkpt>
      <trkpt lat="40.68368" lon="-3.95478">
        <ele>970.8</ele>
        <time>2021-11-16 11:56:07</time>
      </trkpt>
      <trkpt lat="40.68388" lon="-3.95475">
        <ele>970.8</ele>
        <time>2021-11-16 11:56:08</time>
      </trkpt>
      <trkpt lat="40.68397" lon="-3.95474">
        <ele>970.6</ele>
        <time>2021-11-16 11:56:09</time>
      </trkpt>
      <trkpt lat="40.68407" lon="-3.95472">
        <ele>970.2</ele>
        <time>2021-11-16 11:56:10</time>
      </trkpt>
      <trkpt lat="40.68417" lon="-3.95471">
        <ele>970</ele>
        <time>2021-11-16 11:56:11</time>
      </trkpt>
      <trkpt lat="40.68427" lon="-3.9547">
        <ele>969.8</ele>
        <time>2021-11-16 11:56:12</time>
      </trkpt>
      <trkpt lat="40.68436" lon="-3.95468">
        <ele>969.6</ele>
        <time>2021-11-16 11:56:13</time>
      </trkpt>
      <trkpt lat="40.68446" lon="-3.95467">
        <ele>969.4</ele>
        <time>2021-11-16 11:56:14</time>
      </trkpt>
      <trkpt lat="40.68456" lon="-3.95466">
        <ele>969</ele>
        <time>2021-11-16 11:56:15</time>
      </trkpt>
      <trkpt lat="40.68465" lon="-3.95464">
        <ele>968.8</ele>
        <time>2021-11-16 11:56:16</time>
      </trkpt>
      <trkpt lat="40.68465" lon="-3.95464">
        <ele>968.6</ele>
        <time>2021-11-16 11:56:17</time>
      </trkpt>
      <trkpt lat="40.68475" lon="-3.95462">
        <ele>968.6</ele>
        <time>2021-11-16 11:56:18</time>
      </trkpt>
      <trkpt lat="40.68493" lon="-3.95455">
        <ele>968.4</ele>
        <time>2021-11-16 11:56:19</time>
      </trkpt>
      <trkpt lat="40.68502" lon="-3.95451">
        <ele>968.2</ele>
        <time>2021-11-16 11:56:20</time>
      </trkpt>
      <trkpt lat="40.68511" lon="-3.95445">
        <ele>968.2</ele>
        <time>2021-11-16 11:56:21</time>
      </trkpt>
      <trkpt lat="40.68519" lon="-3.9544">
        <ele>968</ele>
        <time>2021-11-16 11:56:22</time>
      </trkpt>
      <trkpt lat="40.68528" lon="-3.95435">
        <ele>967.8</ele>
        <time>2021-11-16 11:56:23</time>
      </trkpt>
      <trkpt lat="40.68537" lon="-3.9543">
        <ele>967.6</ele>
        <time>2021-11-16 11:56:24</time>
      </trkpt>
      <trkpt lat="40.68545" lon="-3.95425">
        <ele>967.4</ele>
        <time>2021-11-16 11:56:25</time>
      </trkpt>
      <trkpt lat="40.68554" lon="-3.9542">
        <ele>967.4</ele>
        <time>2021-11-16 11:56:26</time>
      </trkpt>
      <trkpt lat="40.68562" lon="-3.95415">
        <ele>967.4</ele>
        <time>2021-11-16 11:56:27</time>
      </trkpt>
      <trkpt lat="40.68571" lon="-3.9541">
        <ele>967</ele>
        <time>2021-11-16 11:56:28</time>
      </trkpt>
      <trkpt lat="40.68571" lon="-3.9541">
        <ele>966.6</ele>
        <time>2021-11-16 11:56:29</time>
      </trkpt>
      <trkpt lat="40.68587" lon="-3.95398">
        <ele>966.4</ele>
        <time>2021-11-16 11:56:30</time>
      </trkpt>
      <trkpt lat="40.68595" lon="-3.95392">
        <ele>966.4</ele>
        <time>2021-11-16 11:56:31</time>
      </trkpt>
      <trkpt lat="40.68595" lon="-3.95392">
        <ele>966.2</ele>
        <time>2021-11-16 11:56:32</time>
      </trkpt>
      <trkpt lat="40.68611" lon="-3.95378">
        <ele>966.2</ele>
        <time>2021-11-16 11:56:33</time>
      </trkpt>
      <trkpt lat="40.68618" lon="-3.9537">
        <ele>966.2</ele>
        <time>2021-11-16 11:56:34</time>
      </trkpt>
      <trkpt lat="40.68625" lon="-3.95361">
        <ele>966</ele>
        <time>2021-11-16 11:56:35</time>
      </trkpt>
      <trkpt lat="40.68631" lon="-3.95353">
        <ele>965.8</ele>
        <time>2021-11-16 11:56:36</time>
      </trkpt>
      <trkpt lat="40.68637" lon="-3.95344">
        <ele>965.8</ele>
        <time>2021-11-16 11:56:37</time>
      </trkpt>
      <trkpt lat="40.68643" lon="-3.95335">
        <ele>965.6</ele>
        <time>2021-11-16 11:56:38</time>
      </trkpt>
      <trkpt lat="40.68643" lon="-3.95335">
        <ele>965.6</ele>
        <time>2021-11-16 11:56:39</time>
      </trkpt>
      <trkpt lat="40.68649" lon="-3.95325">
        <ele>965.6</ele>
        <time>2021-11-16 11:56:40</time>
      </trkpt>
      <trkpt lat="40.68659" lon="-3.95307">
        <ele>965.6</ele>
        <time>2021-11-16 11:56:41</time>
      </trkpt>
      <trkpt lat="40.68665" lon="-3.95298">
        <ele>965.6</ele>
        <time>2021-11-16 11:56:42</time>
      </trkpt>
      <trkpt lat="40.6867" lon="-3.95288">
        <ele>965.6</ele>
        <time>2021-11-16 11:56:43</time>
      </trkpt>
      <trkpt lat="40.68676" lon="-3.95279">
        <ele>965.4</ele>
        <time>2021-11-16 11:56:44</time>
      </trkpt>
      <trkpt lat="40.68681" lon="-3.9527">
        <ele>965.6</ele>
        <time>2021-11-16 11:56:45</time>
      </trkpt>
      <trkpt lat="40.68687" lon="-3.95262">
        <ele>965.6</ele>
        <time>2021-11-16 11:56:46</time>
      </trkpt>
      <trkpt lat="40.68687" lon="-3.95262">
        <ele>965.6</ele>
        <time>2021-11-16 11:56:47</time>
      </trkpt>
      <trkpt lat="40.68693" lon="-3.95254">
        <ele>965.6</ele>
        <time>2021-11-16 11:56:48</time>
      </trkpt>
      <trkpt lat="40.687" lon="-3.95247">
        <ele>965.4</ele>
        <time>2021-11-16 11:56:49</time>
      </trkpt>
      <trkpt lat="40.68714" lon="-3.95235">
        <ele>965.4</ele>
        <time>2021-11-16 11:56:50</time>
      </trkpt>
      <trkpt lat="40.68714" lon="-3.95235">
        <ele>965.4</ele>
        <time>2021-11-16 11:56:51</time>
      </trkpt>
      <trkpt lat="40.6873" lon="-3.95225">
        <ele>965.2</ele>
        <time>2021-11-16 11:56:52</time>
      </trkpt>
      <trkpt lat="40.68738" lon="-3.95221">
        <ele>965.4</ele>
        <time>2021-11-16 11:56:53</time>
      </trkpt>
      <trkpt lat="40.68746" lon="-3.95218">
        <ele>965.4</ele>
        <time>2021-11-16 11:56:54</time>
      </trkpt>
      <trkpt lat="40.68754" lon="-3.95214">
        <ele>965.4</ele>
        <time>2021-11-16 11:56:55</time>
      </trkpt>
      <trkpt lat="40.68762" lon="-3.95211">
        <ele>965.2</ele>
        <time>2021-11-16 11:56:56</time>
      </trkpt>
      <trkpt lat="40.6877" lon="-3.95208">
        <ele>965.2</ele>
        <time>2021-11-16 11:56:57</time>
      </trkpt>
      <trkpt lat="40.68779" lon="-3.95205">
        <ele>965.2</ele>
        <time>2021-11-16 11:56:58</time>
      </trkpt>
      <trkpt lat="40.68779" lon="-3.95205">
        <ele>965.2</ele>
        <time>2021-11-16 11:56:59</time>
      </trkpt>
      <trkpt lat="40.68786" lon="-3.95201">
        <ele>965</ele>
        <time>2021-11-16 11:57:00</time>
      </trkpt>
      <trkpt lat="40.68802" lon="-3.9519">
        <ele>964.8</ele>
        <time>2021-11-16 11:57:01</time>
      </trkpt>
      <trkpt lat="40.68802" lon="-3.9519">
        <ele>964.8</ele>
        <time>2021-11-16 11:57:02</time>
      </trkpt>
      <trkpt lat="40.68809" lon="-3.95184">
        <ele>965</ele>
        <time>2021-11-16 11:57:03</time>
      </trkpt>
      <trkpt lat="40.68815" lon="-3.95177">
        <ele>964.8</ele>
        <time>2021-11-16 11:57:04</time>
      </trkpt>
      <trkpt lat="40.68821" lon="-3.95169">
        <ele>964.8</ele>
        <time>2021-11-16 11:57:05</time>
      </trkpt>
      <trkpt lat="40.68827" lon="-3.9516">
        <ele>964.6</ele>
        <time>2021-11-16 11:57:06</time>
      </trkpt>
      <trkpt lat="40.68832" lon="-3.95152">
        <ele>964.4</ele>
        <time>2021-11-16 11:57:07</time>
      </trkpt>
      <trkpt lat="40.68836" lon="-3.95142">
        <ele>964.2</ele>
        <time>2021-11-16 11:57:08</time>
      </trkpt>
      <trkpt lat="40.68844" lon="-3.95123">
        <ele>964.2</ele>
        <time>2021-11-16 11:57:09</time>
      </trkpt>
      <trkpt lat="40.68848" lon="-3.95113">
        <ele>964</ele>
        <time>2021-11-16 11:57:10</time>
      </trkpt>
      <trkpt lat="40.68848" lon="-3.95113">
        <ele>964</ele>
        <time>2021-11-16 11:57:11</time>
      </trkpt>
      <trkpt lat="40.68852" lon="-3.95104">
        <ele>964</ele>
        <time>2021-11-16 11:57:12</time>
      </trkpt>
      <trkpt lat="40.68856" lon="-3.95094">
        <ele>963.8</ele>
        <time>2021-11-16 11:57:13</time>
      </trkpt>
      <trkpt lat="40.6886" lon="-3.95084">
        <ele>963.8</ele>
        <time>2021-11-16 11:57:14</time>
      </trkpt>
      <trkpt lat="40.68868" lon="-3.95065">
        <ele>963.6</ele>
        <time>2021-11-16 11:57:15</time>
      </trkpt>
      <trkpt lat="40.68872" lon="-3.95055">
        <ele>963.4</ele>
        <time>2021-11-16 11:57:16</time>
      </trkpt>
      <trkpt lat="40.68876" lon="-3.95045">
        <ele>963.4</ele>
        <time>2021-11-16 11:57:17</time>
      </trkpt>
      <trkpt lat="40.6888" lon="-3.95036">
        <ele>963.4</ele>
        <time>2021-11-16 11:57:18</time>
      </trkpt>
      <trkpt lat="40.68884" lon="-3.95026">
        <ele>963.2</ele>
        <time>2021-11-16 11:57:19</time>
      </trkpt>
      <trkpt lat="40.68884" lon="-3.95026">
        <ele>963.2</ele>
        <time>2021-11-16 11:57:20</time>
      </trkpt>
      <trkpt lat="40.68888" lon="-3.95017">
        <ele>963.2</ele>
        <time>2021-11-16 11:57:21</time>
      </trkpt>
      <trkpt lat="40.68892" lon="-3.95007">
        <ele>963</ele>
        <time>2021-11-16 11:57:22</time>
      </trkpt>
      <trkpt lat="40.689" lon="-3.94988">
        <ele>963</ele>
        <time>2021-11-16 11:57:23</time>
      </trkpt>
      <trkpt lat="40.689" lon="-3.94988">
        <ele>963</ele>
        <time>2021-11-16 11:57:24</time>
      </trkpt>
      <trkpt lat="40.68908" lon="-3.94969">
        <ele>963</ele>
        <time>2021-11-16 11:57:25</time>
      </trkpt>
      <trkpt lat="40.68908" lon="-3.94969">
        <ele>963</ele>
        <time>2021-11-16 11:57:26</time>
      </trkpt>
      <trkpt lat="40.68916" lon="-3.94949">
        <ele>963</ele>
        <time>2021-11-16 11:57:27</time>
      </trkpt>
      <trkpt lat="40.6892" lon="-3.94939">
        <ele>962.8</ele>
        <time>2021-11-16 11:57:28</time>
      </trkpt>
      <trkpt lat="40.68924" lon="-3.9493">
        <ele>962.8</ele>
        <time>2021-11-16 11:57:29</time>
      </trkpt>
      <trkpt lat="40.68924" lon="-3.9493">
        <ele>963</ele>
        <time>2021-11-16 11:57:30</time>
      </trkpt>
      <trkpt lat="40.68928" lon="-3.9492">
        <ele>963</ele>
        <time>2021-11-16 11:57:31</time>
      </trkpt>
      <trkpt lat="40.68932" lon="-3.9491">
        <ele>962.8</ele>
        <time>2021-11-16 11:57:32</time>
      </trkpt>
      <trkpt lat="40.68937" lon="-3.949">
        <ele>962.8</ele>
        <time>2021-11-16 11:57:33</time>
      </trkpt>
      <trkpt lat="40.68941" lon="-3.94891">
        <ele>962.8</ele>
        <time>2021-11-16 11:57:34</time>
      </trkpt>
      <trkpt lat="40.68944" lon="-3.94881">
        <ele>962.6</ele>
        <time>2021-11-16 11:57:35</time>
      </trkpt>
      <trkpt lat="40.68948" lon="-3.94871">
        <ele>962.6</ele>
        <time>2021-11-16 11:57:36</time>
      </trkpt>
      <trkpt lat="40.68952" lon="-3.94861">
        <ele>962.6</ele>
        <time>2021-11-16 11:57:37</time>
      </trkpt>
      <trkpt lat="40.68955" lon="-3.9485">
        <ele>962.4</ele>
        <time>2021-11-16 11:57:38</time>
      </trkpt>
      <trkpt lat="40.68959" lon="-3.9484">
        <ele>962.4</ele>
        <time>2021-11-16 11:57:39</time>
      </trkpt>
      <trkpt lat="40.68962" lon="-3.94829">
        <ele>962.2</ele>
        <time>2021-11-16 11:57:40</time>
      </trkpt>
      <trkpt lat="40.68966" lon="-3.94818">
        <ele>962.4</ele>
        <time>2021-11-16 11:57:41</time>
      </trkpt>
      <trkpt lat="40.6897" lon="-3.94807">
        <ele>962.4</ele>
        <time>2021-11-16 11:57:42</time>
      </trkpt>
      <trkpt lat="40.68973" lon="-3.94796">
        <ele>962.4</ele>
        <time>2021-11-16 11:57:43</time>
      </trkpt>
      <trkpt lat="40.68977" lon="-3.94785">
        <ele>962</ele>
        <time>2021-11-16 11:57:44</time>
      </trkpt>
      <trkpt lat="40.6898" lon="-3.94775">
        <ele>961.6</ele>
        <time>2021-11-16 11:57:45</time>
      </trkpt>
      <trkpt lat="40.68984" lon="-3.94764">
        <ele>961.4</ele>
        <time>2021-11-16 11:57:46</time>
      </trkpt>
      <trkpt lat="40.68992" lon="-3.94743">
        <ele>961.2</ele>
        <time>2021-11-16 11:57:47</time>
      </trkpt>
      <trkpt lat="40.68992" lon="-3.94743">
        <ele>961.2</ele>
        <time>2021-11-16 11:57:48</time>
      </trkpt>
      <trkpt lat="40.68997" lon="-3.94734">
        <ele>961.2</ele>
        <time>2021-11-16 11:57:49</time>
      </trkpt>
      <trkpt lat="40.69002" lon="-3.94724">
        <ele>961</ele>
        <time>2021-11-16 11:57:50</time>
      </trkpt>
      <trkpt lat="40.69008" lon="-3.94715">
        <ele>960.8</ele>
        <time>2021-11-16 11:57:51</time>
      </trkpt>
      <trkpt lat="40.69021" lon="-3.94699">
        <ele>960.6</ele>
        <time>2021-11-16 11:57:52</time>
      </trkpt>
      <trkpt lat="40.69021" lon="-3.94699">
        <ele>960.4</ele>
        <time>2021-11-16 11:57:53</time>
      </trkpt>
      <trkpt lat="40.69035" lon="-3.94683">
        <ele>960</ele>
        <time>2021-11-16 11:57:54</time>
      </trkpt>
      <trkpt lat="40.69035" lon="-3.94683">
        <ele>960</ele>
        <time>2021-11-16 11:57:55</time>
      </trkpt>
      <trkpt lat="40.69048" lon="-3.94668">
        <ele>959.8</ele>
        <time>2021-11-16 11:57:56</time>
      </trkpt>
      <trkpt lat="40.69048" lon="-3.94668">
        <ele>959.4</ele>
        <time>2021-11-16 11:57:57</time>
      </trkpt>
      <trkpt lat="40.69061" lon="-3.94653">
        <ele>959.4</ele>
        <time>2021-11-16 11:57:58</time>
      </trkpt>
      <trkpt lat="40.69068" lon="-3.94645">
        <ele>959.2</ele>
        <time>2021-11-16 11:57:59</time>
      </trkpt>
      <trkpt lat="40.69074" lon="-3.94637">
        <ele>959</ele>
        <time>2021-11-16 11:58:00</time>
      </trkpt>
      <trkpt lat="40.69074" lon="-3.94637">
        <ele>959.2</ele>
        <time>2021-11-16 11:58:01</time>
      </trkpt>
      <trkpt lat="40.69081" lon="-3.9463">
        <ele>959.4</ele>
        <time>2021-11-16 11:58:02</time>
      </trkpt>
      <trkpt lat="40.69088" lon="-3.94622">
        <ele>959.6</ele>
        <time>2021-11-16 11:58:03</time>
      </trkpt>
      <trkpt lat="40.691" lon="-3.94608">
        <ele>959.6</ele>
        <time>2021-11-16 11:58:04</time>
      </trkpt>
      <trkpt lat="40.691" lon="-3.94608">
        <ele>959.8</ele>
        <time>2021-11-16 11:58:05</time>
      </trkpt>
      <trkpt lat="40.69113" lon="-3.94593">
        <ele>959.4</ele>
        <time>2021-11-16 11:58:06</time>
      </trkpt>
      <trkpt lat="40.69119" lon="-3.94586">
        <ele>959.4</ele>
        <time>2021-11-16 11:58:07</time>
      </trkpt>
      <trkpt lat="40.69119" lon="-3.94586">
        <ele>959.2</ele>
        <time>2021-11-16 11:58:08</time>
      </trkpt>
      <trkpt lat="40.69131" lon="-3.94572">
        <ele>959.2</ele>
        <time>2021-11-16 11:58:09</time>
      </trkpt>
      <trkpt lat="40.69137" lon="-3.94565">
        <ele>959.2</ele>
        <time>2021-11-16 11:58:10</time>
      </trkpt>
      <trkpt lat="40.69143" lon="-3.94558">
        <ele>959.2</ele>
        <time>2021-11-16 11:58:11</time>
      </trkpt>
      <trkpt lat="40.69143" lon="-3.94558">
        <ele>959.2</ele>
        <time>2021-11-16 11:58:12</time>
      </trkpt>
      <trkpt lat="40.69148" lon="-3.94552">
        <ele>959.2</ele>
        <time>2021-11-16 11:58:13</time>
      </trkpt>
      <trkpt lat="40.69154" lon="-3.94545">
        <ele>959.2</ele>
        <time>2021-11-16 11:58:14</time>
      </trkpt>
      <trkpt lat="40.6916" lon="-3.94538">
        <ele>959.2</ele>
        <time>2021-11-16 11:58:15</time>
      </trkpt>
      <trkpt lat="40.69165" lon="-3.94531">
        <ele>959.2</ele>
        <time>2021-11-16 11:58:16</time>
      </trkpt>
      <trkpt lat="40.69171" lon="-3.94524">
        <ele>959.2</ele>
        <time>2021-11-16 11:58:17</time>
      </trkpt>
      <trkpt lat="40.69176" lon="-3.94516">
        <ele>959.2</ele>
        <time>2021-11-16 11:58:18</time>
      </trkpt>
      <trkpt lat="40.69181" lon="-3.94509">
        <ele>959.4</ele>
        <time>2021-11-16 11:58:19</time>
      </trkpt>
      <trkpt lat="40.69186" lon="-3.94502">
        <ele>959.2</ele>
        <time>2021-11-16 11:58:20</time>
      </trkpt>
      <trkpt lat="40.69191" lon="-3.94495">
        <ele>959.4</ele>
        <time>2021-11-16 11:58:21</time>
      </trkpt>
      <trkpt lat="40.69197" lon="-3.94488">
        <ele>959.4</ele>
        <time>2021-11-16 11:58:22</time>
      </trkpt>
      <trkpt lat="40.69202" lon="-3.94481">
        <ele>959.4</ele>
        <time>2021-11-16 11:58:23</time>
      </trkpt>
      <trkpt lat="40.69206" lon="-3.94473">
        <ele>959.2</ele>
        <time>2021-11-16 11:58:24</time>
      </trkpt>
      <trkpt lat="40.69211" lon="-3.94466">
        <ele>959.4</ele>
        <time>2021-11-16 11:58:25</time>
      </trkpt>
      <trkpt lat="40.69216" lon="-3.94458">
        <ele>959.4</ele>
        <time>2021-11-16 11:58:26</time>
      </trkpt>
      <trkpt lat="40.6922" lon="-3.94451">
        <ele>959.8</ele>
        <time>2021-11-16 11:58:27</time>
      </trkpt>
      <trkpt lat="40.69224" lon="-3.94443">
        <ele>959.8</ele>
        <time>2021-11-16 11:58:28</time>
      </trkpt>
      <trkpt lat="40.69228" lon="-3.94434">
        <ele>960</ele>
        <time>2021-11-16 11:58:29</time>
      </trkpt>
      <trkpt lat="40.69231" lon="-3.94426">
        <ele>960.2</ele>
        <time>2021-11-16 11:58:30</time>
      </trkpt>
      <trkpt lat="40.69234" lon="-3.94417">
        <ele>960.4</ele>
        <time>2021-11-16 11:58:31</time>
      </trkpt>
      <trkpt lat="40.69236" lon="-3.94408">
        <ele>960.6</ele>
        <time>2021-11-16 11:58:32</time>
      </trkpt>
      <trkpt lat="40.69238" lon="-3.94399">
        <ele>960.6</ele>
        <time>2021-11-16 11:58:33</time>
      </trkpt>
      <trkpt lat="40.6924" lon="-3.9439">
        <ele>960.6</ele>
        <time>2021-11-16 11:58:34</time>
      </trkpt>
      <trkpt lat="40.69244" lon="-3.94371">
        <ele>960.8</ele>
        <time>2021-11-16 11:58:35</time>
      </trkpt>
      <trkpt lat="40.69244" lon="-3.94371">
        <ele>961.2</ele>
        <time>2021-11-16 11:58:36</time>
      </trkpt>
      <trkpt lat="40.69247" lon="-3.94353">
        <ele>961.2</ele>
        <time>2021-11-16 11:58:37</time>
      </trkpt>
      <trkpt lat="40.69248" lon="-3.94343">
        <ele>961.4</ele>
        <time>2021-11-16 11:58:38</time>
      </trkpt>
      <trkpt lat="40.69248" lon="-3.94343">
        <ele>961.6</ele>
        <time>2021-11-16 11:58:39</time>
      </trkpt>
      <trkpt lat="40.69251" lon="-3.94325">
        <ele>961.6</ele>
        <time>2021-11-16 11:58:40</time>
      </trkpt>
      <trkpt lat="40.69251" lon="-3.94325">
        <ele>961.6</ele>
        <time>2021-11-16 11:58:41</time>
      </trkpt>
      <trkpt lat="40.69253" lon="-3.94316">
        <ele>961.6</ele>
        <time>2021-11-16 11:58:42</time>
      </trkpt>
      <trkpt lat="40.69255" lon="-3.94308">
        <ele>961.8</ele>
        <time>2021-11-16 11:58:43</time>
      </trkpt>
      <trkpt lat="40.69257" lon="-3.94299">
        <ele>962</ele>
        <time>2021-11-16 11:58:44</time>
      </trkpt>
      <trkpt lat="40.69259" lon="-3.9429">
        <ele>962</ele>
        <time>2021-11-16 11:58:45</time>
      </trkpt>
      <trkpt lat="40.69261" lon="-3.94282">
        <ele>962.2</ele>
        <time>2021-11-16 11:58:46</time>
      </trkpt>
      <trkpt lat="40.69264" lon="-3.94273">
        <ele>962.2</ele>
        <time>2021-11-16 11:58:47</time>
      </trkpt>
      <trkpt lat="40.69267" lon="-3.94265">
        <ele>962.2</ele>
        <time>2021-11-16 11:58:48</time>
      </trkpt>
      <trkpt lat="40.6927" lon="-3.94257">
        <ele>962.2</ele>
        <time>2021-11-16 11:58:49</time>
      </trkpt>
      <trkpt lat="40.69274" lon="-3.94249">
        <ele>962.2</ele>
        <time>2021-11-16 11:58:50</time>
      </trkpt>
      <trkpt lat="40.69278" lon="-3.94241">
        <ele>962.2</ele>
        <time>2021-11-16 11:58:51</time>
      </trkpt>
      <trkpt lat="40.69282" lon="-3.94234">
        <ele>962.4</ele>
        <time>2021-11-16 11:58:52</time>
      </trkpt>
      <trkpt lat="40.69287" lon="-3.94227">
        <ele>962.4</ele>
        <time>2021-11-16 11:58:53</time>
      </trkpt>
      <trkpt lat="40.69291" lon="-3.9422">
        <ele>962.4</ele>
        <time>2021-11-16 11:58:54</time>
      </trkpt>
      <trkpt lat="40.69296" lon="-3.94213">
        <ele>962.4</ele>
        <time>2021-11-16 11:58:55</time>
      </trkpt>
      <trkpt lat="40.69301" lon="-3.94206">
        <ele>962.6</ele>
        <time>2021-11-16 11:58:56</time>
      </trkpt>
      <trkpt lat="40.69306" lon="-3.94199">
        <ele>962.4</ele>
        <time>2021-11-16 11:58:57</time>
      </trkpt>
      <trkpt lat="40.69311" lon="-3.94192">
        <ele>962.4</ele>
        <time>2021-11-16 11:58:58</time>
      </trkpt>
      <trkpt lat="40.69316" lon="-3.94185">
        <ele>962.4</ele>
        <time>2021-11-16 11:58:59</time>
      </trkpt>
      <trkpt lat="40.69321" lon="-3.94178">
        <ele>962.2</ele>
        <time>2021-11-16 11:59:00</time>
      </trkpt>
      <trkpt lat="40.69326" lon="-3.94171">
        <ele>962</ele>
        <time>2021-11-16 11:59:01</time>
      </trkpt>
      <trkpt lat="40.69332" lon="-3.94164">
        <ele>962</ele>
        <time>2021-11-16 11:59:02</time>
      </trkpt>
      <trkpt lat="40.69337" lon="-3.94157">
        <ele>962.2</ele>
        <time>2021-11-16 11:59:03</time>
      </trkpt>
      <trkpt lat="40.69342" lon="-3.9415">
        <ele>962</ele>
        <time>2021-11-16 11:59:04</time>
      </trkpt>
      <trkpt lat="40.69347" lon="-3.94143">
        <ele>962</ele>
        <time>2021-11-16 11:59:05</time>
      </trkpt>
      <trkpt lat="40.69352" lon="-3.94136">
        <ele>962</ele>
        <time>2021-11-16 11:59:06</time>
      </trkpt>
      <trkpt lat="40.69357" lon="-3.94129">
        <ele>961.8</ele>
        <time>2021-11-16 11:59:07</time>
      </trkpt>
      <trkpt lat="40.69363" lon="-3.94121">
        <ele>961.8</ele>
        <time>2021-11-16 11:59:08</time>
      </trkpt>
      <trkpt lat="40.69368" lon="-3.94113">
        <ele>961.6</ele>
        <time>2021-11-16 11:59:09</time>
      </trkpt>
      <trkpt lat="40.69373" lon="-3.94106">
        <ele>961.4</ele>
        <time>2021-11-16 11:59:10</time>
      </trkpt>
      <trkpt lat="40.69378" lon="-3.94098">
        <ele>961.2</ele>
        <time>2021-11-16 11:59:11</time>
      </trkpt>
      <trkpt lat="40.69384" lon="-3.9409">
        <ele>961.2</ele>
        <time>2021-11-16 11:59:12</time>
      </trkpt>
      <trkpt lat="40.69389" lon="-3.94082">
        <ele>961</ele>
        <time>2021-11-16 11:59:13</time>
      </trkpt>
      <trkpt lat="40.69395" lon="-3.94074">
        <ele>961</ele>
        <time>2021-11-16 11:59:14</time>
      </trkpt>
      <trkpt lat="40.694" lon="-3.94067">
        <ele>960.6</ele>
        <time>2021-11-16 11:59:15</time>
      </trkpt>
      <trkpt lat="40.69406" lon="-3.94059">
        <ele>960.4</ele>
        <time>2021-11-16 11:59:16</time>
      </trkpt>
      <trkpt lat="40.69417" lon="-3.94043">
        <ele>960</ele>
        <time>2021-11-16 11:59:17</time>
      </trkpt>
      <trkpt lat="40.69417" lon="-3.94043">
        <ele>959.6</ele>
        <time>2021-11-16 11:59:18</time>
      </trkpt>
      <trkpt lat="40.69423" lon="-3.94036">
        <ele>959.6</ele>
        <time>2021-11-16 11:59:19</time>
      </trkpt>
      <trkpt lat="40.69428" lon="-3.94028">
        <ele>959.6</ele>
        <time>2021-11-16 11:59:20</time>
      </trkpt>
      <trkpt lat="40.69434" lon="-3.9402">
        <ele>959.2</ele>
        <time>2021-11-16 11:59:21</time>
      </trkpt>
      <trkpt lat="40.6944" lon="-3.94012">
        <ele>959</ele>
        <time>2021-11-16 11:59:22</time>
      </trkpt>
      <trkpt lat="40.69446" lon="-3.94004">
        <ele>958.8</ele>
        <time>2021-11-16 11:59:23</time>
      </trkpt>
      <trkpt lat="40.69452" lon="-3.93996">
        <ele>958.4</ele>
        <time>2021-11-16 11:59:24</time>
      </trkpt>
      <trkpt lat="40.69458" lon="-3.93988">
        <ele>958.4</ele>
        <time>2021-11-16 11:59:25</time>
      </trkpt>
      <trkpt lat="40.69464" lon="-3.9398">
        <ele>958.2</ele>
        <time>2021-11-16 11:59:26</time>
      </trkpt>
      <trkpt lat="40.69469" lon="-3.93972">
        <ele>958.2</ele>
        <time>2021-11-16 11:59:27</time>
      </trkpt>
      <trkpt lat="40.69475" lon="-3.93964">
        <ele>958</ele>
        <time>2021-11-16 11:59:28</time>
      </trkpt>
      <trkpt lat="40.69481" lon="-3.93956">
        <ele>957.8</ele>
        <time>2021-11-16 11:59:29</time>
      </trkpt>
      <trkpt lat="40.69487" lon="-3.93948">
        <ele>957.4</ele>
        <time>2021-11-16 11:59:30</time>
      </trkpt>
      <trkpt lat="40.69493" lon="-3.9394">
        <ele>957.4</ele>
        <time>2021-11-16 11:59:31</time>
      </trkpt>
      <trkpt lat="40.69499" lon="-3.93931">
        <ele>957</ele>
        <time>2021-11-16 11:59:32</time>
      </trkpt>
      <trkpt lat="40.69505" lon="-3.93923">
        <ele>956.4</ele>
        <time>2021-11-16 11:59:33</time>
      </trkpt>
      <trkpt lat="40.6951" lon="-3.93915">
        <ele>956</ele>
        <time>2021-11-16 11:59:34</time>
      </trkpt>
      <trkpt lat="40.69516" lon="-3.93907">
        <ele>955.8</ele>
        <time>2021-11-16 11:59:35</time>
      </trkpt>
      <trkpt lat="40.69522" lon="-3.93899">
        <ele>955.6</ele>
        <time>2021-11-16 11:59:36</time>
      </trkpt>
      <trkpt lat="40.69534" lon="-3.93882">
        <ele>955.8</ele>
        <time>2021-11-16 11:59:37</time>
      </trkpt>
      <trkpt lat="40.69534" lon="-3.93882">
        <ele>955.2</ele>
        <time>2021-11-16 11:59:38</time>
      </trkpt>
      <trkpt lat="40.6954" lon="-3.93874">
        <ele>955.2</ele>
        <time>2021-11-16 11:59:39</time>
      </trkpt>
      <trkpt lat="40.69546" lon="-3.93866">
        <ele>955.2</ele>
        <time>2021-11-16 11:59:40</time>
      </trkpt>
      <trkpt lat="40.69552" lon="-3.93858">
        <ele>955</ele>
        <time>2021-11-16 11:59:41</time>
      </trkpt>
      <trkpt lat="40.69565" lon="-3.93843">
        <ele>955</ele>
        <time>2021-11-16 11:59:42</time>
      </trkpt>
      <trkpt lat="40.69571" lon="-3.93836">
        <ele>954.8</ele>
        <time>2021-11-16 11:59:43</time>
      </trkpt>
      <trkpt lat="40.69571" lon="-3.93836">
        <ele>955</ele>
        <time>2021-11-16 11:59:44</time>
      </trkpt>
      <trkpt lat="40.69577" lon="-3.93829">
        <ele>954.8</ele>
        <time>2021-11-16 11:59:45</time>
      </trkpt>
      <trkpt lat="40.69584" lon="-3.93822">
        <ele>954.4</ele>
        <time>2021-11-16 11:59:46</time>
      </trkpt>
      <trkpt lat="40.69591" lon="-3.93816">
        <ele>954.6</ele>
        <time>2021-11-16 11:59:47</time>
      </trkpt>
      <trkpt lat="40.69598" lon="-3.93811">
        <ele>954.6</ele>
        <time>2021-11-16 11:59:48</time>
      </trkpt>
      <trkpt lat="40.69614" lon="-3.93802">
        <ele>954.4</ele>
        <time>2021-11-16 11:59:49</time>
      </trkpt>
      <trkpt lat="40.69614" lon="-3.93802">
        <ele>954.4</ele>
        <time>2021-11-16 11:59:50</time>
      </trkpt>
      <trkpt lat="40.69622" lon="-3.93799">
        <ele>954.2</ele>
        <time>2021-11-16 11:59:51</time>
      </trkpt>
      <trkpt lat="40.6963" lon="-3.93796">
        <ele>954.2</ele>
        <time>2021-11-16 11:59:52</time>
      </trkpt>
      <trkpt lat="40.69638" lon="-3.93793">
        <ele>954.4</ele>
        <time>2021-11-16 11:59:53</time>
      </trkpt>
      <trkpt lat="40.69653" lon="-3.93787">
        <ele>954.4</ele>
        <time>2021-11-16 11:59:54</time>
      </trkpt>
      <trkpt lat="40.69661" lon="-3.93785">
        <ele>954.2</ele>
        <time>2021-11-16 11:59:55</time>
      </trkpt>
      <trkpt lat="40.69661" lon="-3.93785">
        <ele>954.2</ele>
        <time>2021-11-16 11:59:56</time>
      </trkpt>
      <trkpt lat="40.69676" lon="-3.9378">
        <ele>954.2</ele>
        <time>2021-11-16 11:59:57</time>
      </trkpt>
      <trkpt lat="40.69676" lon="-3.9378">
        <ele>954.2</ele>
        <time>2021-11-16 11:59:58</time>
      </trkpt>
      <trkpt lat="40.6969" lon="-3.93775">
        <ele>954.2</ele>
        <time>2021-11-16 11:59:59</time>
      </trkpt>
      <trkpt lat="40.69697" lon="-3.93773">
        <ele>954.2</ele>
        <time>2021-11-16 12:00:00</time>
      </trkpt>
      <trkpt lat="40.69704" lon="-3.9377">
        <ele>954.2</ele>
        <time>2021-11-16 12:00:01</time>
      </trkpt>
      <trkpt lat="40.69704" lon="-3.9377">
        <ele>954.2</ele>
        <time>2021-11-16 12:00:02</time>
      </trkpt>
      <trkpt lat="40.6971" lon="-3.93768">
        <ele>954.4</ele>
        <time>2021-11-16 12:00:03</time>
      </trkpt>
      <trkpt lat="40.69717" lon="-3.93766">
        <ele>954.4</ele>
        <time>2021-11-16 12:00:04</time>
      </trkpt>
      <trkpt lat="40.6973" lon="-3.93762">
        <ele>954.4</ele>
        <time>2021-11-16 12:00:05</time>
      </trkpt>
      <trkpt lat="40.69737" lon="-3.9376">
        <ele>954.6</ele>
        <time>2021-11-16 12:00:06</time>
      </trkpt>
      <trkpt lat="40.69744" lon="-3.93759">
        <ele>954.8</ele>
        <time>2021-11-16 12:00:07</time>
      </trkpt>
      <trkpt lat="40.6975" lon="-3.93757">
        <ele>955</ele>
        <time>2021-11-16 12:00:08</time>
      </trkpt>
      <trkpt lat="40.6975" lon="-3.93757">
        <ele>955</ele>
        <time>2021-11-16 12:00:09</time>
      </trkpt>
      <trkpt lat="40.69763" lon="-3.93754">
        <ele>955</ele>
        <time>2021-11-16 12:00:10</time>
      </trkpt>
      <trkpt lat="40.6977" lon="-3.93753">
        <ele>955.2</ele>
        <time>2021-11-16 12:00:11</time>
      </trkpt>
      <trkpt lat="40.69776" lon="-3.93752">
        <ele>955.2</ele>
        <time>2021-11-16 12:00:12</time>
      </trkpt>
      <trkpt lat="40.69783" lon="-3.93751">
        <ele>955.2</ele>
        <time>2021-11-16 12:00:13</time>
      </trkpt>
      <trkpt lat="40.69789" lon="-3.9375">
        <ele>955.6</ele>
        <time>2021-11-16 12:00:14</time>
      </trkpt>
      <trkpt lat="40.69795" lon="-3.93749">
        <ele>955.6</ele>
        <time>2021-11-16 12:00:15</time>
      </trkpt>
      <trkpt lat="40.69795" lon="-3.93749">
        <ele>955.6</ele>
        <time>2021-11-16 12:00:16</time>
      </trkpt>
      <trkpt lat="40.69802" lon="-3.93748">
        <ele>955.6</ele>
        <time>2021-11-16 12:00:17</time>
      </trkpt>
      <trkpt lat="40.69814" lon="-3.93747">
        <ele>955.6</ele>
        <time>2021-11-16 12:00:18</time>
      </trkpt>
      <trkpt lat="40.69821" lon="-3.93746">
        <ele>955.8</ele>
        <time>2021-11-16 12:00:19</time>
      </trkpt>
      <trkpt lat="40.69821" lon="-3.93746">
        <ele>955.6</ele>
        <time>2021-11-16 12:00:20</time>
      </trkpt>
      <trkpt lat="40.69834" lon="-3.93745">
        <ele>955.6</ele>
        <time>2021-11-16 12:00:21</time>
      </trkpt>
      <trkpt lat="40.69841" lon="-3.93744">
        <ele>955.8</ele>
        <time>2021-11-16 12:00:22</time>
      </trkpt>
      <trkpt lat="40.69847" lon="-3.93743">
        <ele>955.6</ele>
        <time>2021-11-16 12:00:23</time>
      </trkpt>
      <trkpt lat="40.69854" lon="-3.93743">
        <ele>955.6</ele>
        <time>2021-11-16 12:00:24</time>
      </trkpt>
      <trkpt lat="40.69854" lon="-3.93743">
        <ele>955.8</ele>
        <time>2021-11-16 12:00:25</time>
      </trkpt>
      <trkpt lat="40.69868" lon="-3.93741">
        <ele>955.8</ele>
        <time>2021-11-16 12:00:26</time>
      </trkpt>
      <trkpt lat="40.69875" lon="-3.93741">
        <ele>955.8</ele>
        <time>2021-11-16 12:00:27</time>
      </trkpt>
      <trkpt lat="40.69875" lon="-3.93741">
        <ele>955.8</ele>
        <time>2021-11-16 12:00:28</time>
      </trkpt>
      <trkpt lat="40.69889" lon="-3.9374">
        <ele>955.8</ele>
        <time>2021-11-16 12:00:29</time>
      </trkpt>
      <trkpt lat="40.69895" lon="-3.93739">
        <ele>955.8</ele>
        <time>2021-11-16 12:00:30</time>
      </trkpt>
      <trkpt lat="40.69902" lon="-3.93739">
        <ele>955.8</ele>
        <time>2021-11-16 12:00:31</time>
      </trkpt>
      <trkpt lat="40.69909" lon="-3.93738">
        <ele>955.6</ele>
        <time>2021-11-16 12:00:32</time>
      </trkpt>
      <trkpt lat="40.69915" lon="-3.93738">
        <ele>955.6</ele>
        <time>2021-11-16 12:00:33</time>
      </trkpt>
      <trkpt lat="40.69922" lon="-3.93738">
        <ele>955.6</ele>
        <time>2021-11-16 12:00:34</time>
      </trkpt>
      <trkpt lat="40.69928" lon="-3.93737">
        <ele>955.6</ele>
        <time>2021-11-16 12:00:35</time>
      </trkpt>
      <trkpt lat="40.69934" lon="-3.93737">
        <ele>955.4</ele>
        <time>2021-11-16 12:00:36</time>
      </trkpt>
      <trkpt lat="40.69941" lon="-3.93736">
        <ele>955.4</ele>
        <time>2021-11-16 12:00:37</time>
      </trkpt>
      <trkpt lat="40.69947" lon="-3.93736">
        <ele>955.4</ele>
        <time>2021-11-16 12:00:38</time>
      </trkpt>
      <trkpt lat="40.69947" lon="-3.93736">
        <ele>955.4</ele>
        <time>2021-11-16 12:00:39</time>
      </trkpt>
      <trkpt lat="40.6996" lon="-3.93735">
        <ele>955.4</ele>
        <time>2021-11-16 12:00:40</time>
      </trkpt>
      <trkpt lat="40.6996" lon="-3.93735">
        <ele>955.4</ele>
        <time>2021-11-16 12:00:41</time>
      </trkpt>
      <trkpt lat="40.69972" lon="-3.93733">
        <ele>955.2</ele>
        <time>2021-11-16 12:00:42</time>
      </trkpt>
      <trkpt lat="40.69978" lon="-3.93733">
        <ele>955.4</ele>
        <time>2021-11-16 12:00:43</time>
      </trkpt>
      <trkpt lat="40.69978" lon="-3.93733">
        <ele>955.4</ele>
        <time>2021-11-16 12:00:44</time>
      </trkpt>
      <trkpt lat="40.69984" lon="-3.93732">
        <ele>955.4</ele>
        <time>2021-11-16 12:00:45</time>
      </trkpt>
      <trkpt lat="40.6999" lon="-3.93731">
        <ele>955.2</ele>
        <time>2021-11-16 12:00:46</time>
      </trkpt>
      <trkpt lat="40.69995" lon="-3.93729">
        <ele>955.2</ele>
        <time>2021-11-16 12:00:47</time>
      </trkpt>
      <trkpt lat="40.7" lon="-3.93725">
        <ele>955.4</ele>
        <time>2021-11-16 12:00:48</time>
      </trkpt>
      <trkpt lat="40.70004" lon="-3.9372">
        <ele>955.2</ele>
        <time>2021-11-16 12:00:49</time>
      </trkpt>
      <trkpt lat="40.70007" lon="-3.93715">
        <ele>955.4</ele>
        <time>2021-11-16 12:00:50</time>
      </trkpt>
      <trkpt lat="40.70009" lon="-3.9371">
        <ele>955.2</ele>
        <time>2021-11-16 12:00:51</time>
      </trkpt>
      <trkpt lat="40.70011" lon="-3.93704">
        <ele>955.2</ele>
        <time>2021-11-16 12:00:52</time>
      </trkpt>
      <trkpt lat="40.70012" lon="-3.93697">
        <ele>955.2</ele>
        <time>2021-11-16 12:00:53</time>
      </trkpt>
      <trkpt lat="40.70014" lon="-3.9369">
        <ele>955.4</ele>
        <time>2021-11-16 12:00:54</time>
      </trkpt>
      <trkpt lat="40.70014" lon="-3.93683">
        <ele>955.4</ele>
        <time>2021-11-16 12:00:55</time>
      </trkpt>
      <trkpt lat="40.70013" lon="-3.93675">
        <ele>955.4</ele>
        <time>2021-11-16 12:00:56</time>
      </trkpt>
      <trkpt lat="40.70011" lon="-3.93668">
        <ele>955.4</ele>
        <time>2021-11-16 12:00:57</time>
      </trkpt>
      <trkpt lat="40.70009" lon="-3.9366">
        <ele>955.4</ele>
        <time>2021-11-16 12:00:58</time>
      </trkpt>
      <trkpt lat="40.70006" lon="-3.93652">
        <ele>955.2</ele>
        <time>2021-11-16 12:00:59</time>
      </trkpt>
      <trkpt lat="40.70004" lon="-3.93644">
        <ele>955.4</ele>
        <time>2021-11-16 12:01:00</time>
      </trkpt>
      <trkpt lat="40.70002" lon="-3.93635">
        <ele>955.4</ele>
        <time>2021-11-16 12:01:01</time>
      </trkpt>
      <trkpt lat="40.7" lon="-3.93627">
        <ele>955.2</ele>
        <time>2021-11-16 12:01:02</time>
      </trkpt>
      <trkpt lat="40.69996" lon="-3.93609">
        <ele>955.2</ele>
        <time>2021-11-16 12:01:03</time>
      </trkpt>
      <trkpt lat="40.69996" lon="-3.93609">
        <ele>955.2</ele>
        <time>2021-11-16 12:01:04</time>
      </trkpt>
      <trkpt lat="40.69993" lon="-3.93591">
        <ele>955.2</ele>
        <time>2021-11-16 12:01:05</time>
      </trkpt>
      <trkpt lat="40.69993" lon="-3.93591">
        <ele>955.2</ele>
        <time>2021-11-16 12:01:06</time>
      </trkpt>
      <trkpt lat="40.69992" lon="-3.93581">
        <ele>955.2</ele>
        <time>2021-11-16 12:01:07</time>
      </trkpt>
      <trkpt lat="40.69991" lon="-3.93571">
        <ele>955.2</ele>
        <time>2021-11-16 12:01:08</time>
      </trkpt>
      <trkpt lat="40.69991" lon="-3.93551">
        <ele>955.2</ele>
        <time>2021-11-16 12:01:09</time>
      </trkpt>
      <trkpt lat="40.69991" lon="-3.93551">
        <ele>955.2</ele>
        <time>2021-11-16 12:01:10</time>
      </trkpt>
      <trkpt lat="40.69991" lon="-3.9353">
        <ele>955</ele>
        <time>2021-11-16 12:01:11</time>
      </trkpt>
      <trkpt lat="40.69991" lon="-3.93519">
        <ele>954.8</ele>
        <time>2021-11-16 12:01:12</time>
      </trkpt>
      <trkpt lat="40.69992" lon="-3.93508">
        <ele>954.6</ele>
        <time>2021-11-16 12:01:13</time>
      </trkpt>
      <trkpt lat="40.69993" lon="-3.93496">
        <ele>954.2</ele>
        <time>2021-11-16 12:01:14</time>
      </trkpt>
      <trkpt lat="40.69993" lon="-3.93496">
        <ele>954</ele>
        <time>2021-11-16 12:01:15</time>
      </trkpt>
      <trkpt lat="40.69993" lon="-3.93485">
        <ele>954</ele>
        <time>2021-11-16 12:01:16</time>
      </trkpt>
      <trkpt lat="40.69994" lon="-3.93474">
        <ele>954</ele>
        <time>2021-11-16 12:01:17</time>
      </trkpt>
      <trkpt lat="40.69994" lon="-3.93462">
        <ele>953.8</ele>
        <time>2021-11-16 12:01:18</time>
      </trkpt>
      <trkpt lat="40.69995" lon="-3.9345">
        <ele>953.8</ele>
        <time>2021-11-16 12:01:19</time>
      </trkpt>
      <trkpt lat="40.69995" lon="-3.93438">
        <ele>953.6</ele>
        <time>2021-11-16 12:01:20</time>
      </trkpt>
      <trkpt lat="40.69994" lon="-3.93426">
        <ele>953.4</ele>
        <time>2021-11-16 12:01:21</time>
      </trkpt>
      <trkpt lat="40.69993" lon="-3.93414">
        <ele>953</ele>
        <time>2021-11-16 12:01:22</time>
      </trkpt>
      <trkpt lat="40.69991" lon="-3.93402">
        <ele>952.6</ele>
        <time>2021-11-16 12:01:23</time>
      </trkpt>
      <trkpt lat="40.69988" lon="-3.93378">
        <ele>952</ele>
        <time>2021-11-16 12:01:24</time>
      </trkpt>
      <trkpt lat="40.69985" lon="-3.93366">
        <ele>951.6</ele>
        <time>2021-11-16 12:01:25</time>
      </trkpt>
      <trkpt lat="40.69985" lon="-3.93366">
        <ele>951</ele>
        <time>2021-11-16 12:01:26</time>
      </trkpt>
      <trkpt lat="40.69981" lon="-3.93343">
        <ele>950.8</ele>
        <time>2021-11-16 12:01:27</time>
      </trkpt>
      <trkpt lat="40.69979" lon="-3.93331">
        <ele>950.6</ele>
        <time>2021-11-16 12:01:28</time>
      </trkpt>
      <trkpt lat="40.69979" lon="-3.93331">
        <ele>950.4</ele>
        <time>2021-11-16 12:01:29</time>
      </trkpt>
      <trkpt lat="40.69977" lon="-3.93319">
        <ele>950.2</ele>
        <time>2021-11-16 12:01:30</time>
      </trkpt>
      <trkpt lat="40.69975" lon="-3.93308">
        <ele>949.6</ele>
        <time>2021-11-16 12:01:31</time>
      </trkpt>
      <trkpt lat="40.6997" lon="-3.93284">
        <ele>949</ele>
        <time>2021-11-16 12:01:32</time>
      </trkpt>
      <trkpt lat="40.69968" lon="-3.93273">
        <ele>948.8</ele>
        <time>2021-11-16 12:01:33</time>
      </trkpt>
      <trkpt lat="40.69966" lon="-3.93261">
        <ele>948.6</ele>
        <time>2021-11-16 12:01:34</time>
      </trkpt>
      <trkpt lat="40.69963" lon="-3.93249">
        <ele>948.6</ele>
        <time>2021-11-16 12:01:35</time>
      </trkpt>
      <trkpt lat="40.69963" lon="-3.93249">
        <ele>948.6</ele>
        <time>2021-11-16 12:01:36</time>
      </trkpt>
      <trkpt lat="40.69961" lon="-3.93237">
        <ele>948</ele>
        <time>2021-11-16 12:01:37</time>
      </trkpt>
      <trkpt lat="40.69958" lon="-3.93226">
        <ele>947.8</ele>
        <time>2021-11-16 12:01:38</time>
      </trkpt>
      <trkpt lat="40.69954" lon="-3.93202">
        <ele>947.4</ele>
        <time>2021-11-16 12:01:39</time>
      </trkpt>
      <trkpt lat="40.69952" lon="-3.9319">
        <ele>947.2</ele>
        <time>2021-11-16 12:01:40</time>
      </trkpt>
      <trkpt lat="40.69952" lon="-3.9319">
        <ele>946.8</ele>
        <time>2021-11-16 12:01:41</time>
      </trkpt>
      <trkpt lat="40.69949" lon="-3.93178">
        <ele>946.4</ele>
        <time>2021-11-16 12:01:42</time>
      </trkpt>
      <trkpt lat="40.69945" lon="-3.93167">
        <ele>946.4</ele>
        <time>2021-11-16 12:01:43</time>
      </trkpt>
      <trkpt lat="40.69934" lon="-3.93148">
        <ele>946</ele>
        <time>2021-11-16 12:01:44</time>
      </trkpt>
      <trkpt lat="40.69934" lon="-3.93148">
        <ele>945.8</ele>
        <time>2021-11-16 12:01:45</time>
      </trkpt>
      <trkpt lat="40.69929" lon="-3.93139">
        <ele>945.6</ele>
        <time>2021-11-16 12:01:46</time>
      </trkpt>
      <trkpt lat="40.69928" lon="-3.93128">
        <ele>945</ele>
        <time>2021-11-16 12:01:47</time>
      </trkpt>
      <trkpt lat="40.69928" lon="-3.93117">
        <ele>944.6</ele>
        <time>2021-11-16 12:01:48</time>
      </trkpt>
      <trkpt lat="40.69931" lon="-3.93106">
        <ele>944.2</ele>
        <time>2021-11-16 12:01:49</time>
      </trkpt>
      <trkpt lat="40.69936" lon="-3.93097">
        <ele>944</ele>
        <time>2021-11-16 12:01:50</time>
      </trkpt>
      <trkpt lat="40.69944" lon="-3.93091">
        <ele>944</ele>
        <time>2021-11-16 12:01:51</time>
      </trkpt>
      <trkpt lat="40.69962" lon="-3.93084">
        <ele>944</ele>
        <time>2021-11-16 12:01:52</time>
      </trkpt>
      <trkpt lat="40.69962" lon="-3.93084">
        <ele>943.8</ele>
        <time>2021-11-16 12:01:53</time>
      </trkpt>
      <trkpt lat="40.6997" lon="-3.9308">
        <ele>943.6</ele>
        <time>2021-11-16 12:01:54</time>
      </trkpt>
      <trkpt lat="40.69978" lon="-3.93073">
        <ele>943.6</ele>
        <time>2021-11-16 12:01:55</time>
      </trkpt>
      <trkpt lat="40.69985" lon="-3.93065">
        <ele>943.4</ele>
        <time>2021-11-16 12:01:56</time>
      </trkpt>
      <trkpt lat="40.69992" lon="-3.93054">
        <ele>942.6</ele>
        <time>2021-11-16 12:01:57</time>
      </trkpt>
      <trkpt lat="40.69997" lon="-3.93044">
        <ele>942.2</ele>
        <time>2021-11-16 12:01:58</time>
      </trkpt>
      <trkpt lat="40.70003" lon="-3.93033">
        <ele>942</ele>
        <time>2021-11-16 12:01:59</time>
      </trkpt>
      <trkpt lat="40.70009" lon="-3.93023">
        <ele>941.8</ele>
        <time>2021-11-16 12:02:00</time>
      </trkpt>
      <trkpt lat="40.70015" lon="-3.93013">
        <ele>941.2</ele>
        <time>2021-11-16 12:02:01</time>
      </trkpt>
      <trkpt lat="40.70021" lon="-3.93002">
        <ele>940.8</ele>
        <time>2021-11-16 12:02:02</time>
      </trkpt>
      <trkpt lat="40.70026" lon="-3.92992">
        <ele>939.6</ele>
        <time>2021-11-16 12:02:03</time>
      </trkpt>
      <trkpt lat="40.70032" lon="-3.92981">
        <ele>939</ele>
        <time>2021-11-16 12:02:04</time>
      </trkpt>
      <trkpt lat="40.70044" lon="-3.9296">
        <ele>938.6</ele>
        <time>2021-11-16 12:02:05</time>
      </trkpt>
      <trkpt lat="40.70051" lon="-3.92949">
        <ele>938.2</ele>
        <time>2021-11-16 12:02:06</time>
      </trkpt>
      <trkpt lat="40.70051" lon="-3.92949">
        <ele>938</ele>
        <time>2021-11-16 12:02:07</time>
      </trkpt>
      <trkpt lat="40.70063" lon="-3.92927">
        <ele>937.6</ele>
        <time>2021-11-16 12:02:08</time>
      </trkpt>
      <trkpt lat="40.70069" lon="-3.92915">
        <ele>937.6</ele>
        <time>2021-11-16 12:02:09</time>
      </trkpt>
      <trkpt lat="40.70069" lon="-3.92915">
        <ele>937.4</ele>
        <time>2021-11-16 12:02:10</time>
      </trkpt>
      <trkpt lat="40.70081" lon="-3.92893">
        <ele>937.2</ele>
        <time>2021-11-16 12:02:11</time>
      </trkpt>
      <trkpt lat="40.70081" lon="-3.92893">
        <ele>936.6</ele>
        <time>2021-11-16 12:02:12</time>
      </trkpt>
      <trkpt lat="40.70087" lon="-3.92882">
        <ele>936.4</ele>
        <time>2021-11-16 12:02:13</time>
      </trkpt>
      <trkpt lat="40.70094" lon="-3.92871">
        <ele>936.4</ele>
        <time>2021-11-16 12:02:14</time>
      </trkpt>
      <trkpt lat="40.70106" lon="-3.92849">
        <ele>935.8</ele>
        <time>2021-11-16 12:02:15</time>
      </trkpt>
      <trkpt lat="40.70106" lon="-3.92849">
        <ele>935.6</ele>
        <time>2021-11-16 12:02:16</time>
      </trkpt>
      <trkpt lat="40.70117" lon="-3.92828">
        <ele>935.4</ele>
        <time>2021-11-16 12:02:17</time>
      </trkpt>
      <trkpt lat="40.70122" lon="-3.92817">
        <ele>935</ele>
        <time>2021-11-16 12:02:18</time>
      </trkpt>
      <trkpt lat="40.70122" lon="-3.92817">
        <ele>934.2</ele>
        <time>2021-11-16 12:02:19</time>
      </trkpt>
      <trkpt lat="40.70127" lon="-3.92807">
        <ele>933.8</ele>
        <time>2021-11-16 12:02:20</time>
      </trkpt>
      <trkpt lat="40.70132" lon="-3.92796">
        <ele>933.4</ele>
        <time>2021-11-16 12:02:21</time>
      </trkpt>
      <trkpt lat="40.70136" lon="-3.92785">
        <ele>933.2</ele>
        <time>2021-11-16 12:02:22</time>
      </trkpt>
      <trkpt lat="40.70142" lon="-3.92761">
        <ele>933</ele>
        <time>2021-11-16 12:02:23</time>
      </trkpt>
      <trkpt lat="40.70142" lon="-3.92761">
        <ele>933</ele>
        <time>2021-11-16 12:02:24</time>
      </trkpt>
      <trkpt lat="40.70145" lon="-3.9275">
        <ele>932.8</ele>
        <time>2021-11-16 12:02:25</time>
      </trkpt>
      <trkpt lat="40.70146" lon="-3.92738">
        <ele>932.6</ele>
        <time>2021-11-16 12:02:26</time>
      </trkpt>
      <trkpt lat="40.70149" lon="-3.92714">
        <ele>932.6</ele>
        <time>2021-11-16 12:02:27</time>
      </trkpt>
      <trkpt lat="40.70149" lon="-3.92714">
        <ele>932.4</ele>
        <time>2021-11-16 12:02:28</time>
      </trkpt>
      <trkpt lat="40.70152" lon="-3.92691">
        <ele>932.4</ele>
        <time>2021-11-16 12:02:29</time>
      </trkpt>
      <trkpt lat="40.70153" lon="-3.9268">
        <ele>932.6</ele>
        <time>2021-11-16 12:02:30</time>
      </trkpt>
      <trkpt lat="40.70154" lon="-3.92668">
        <ele>932.6</ele>
        <time>2021-11-16 12:02:31</time>
      </trkpt>
      <trkpt lat="40.70154" lon="-3.92668">
        <ele>932.6</ele>
        <time>2021-11-16 12:02:32</time>
      </trkpt>
      <trkpt lat="40.70157" lon="-3.92646">
        <ele>932.2</ele>
        <time>2021-11-16 12:02:33</time>
      </trkpt>
      <trkpt lat="40.70158" lon="-3.92635">
        <ele>932.2</ele>
        <time>2021-11-16 12:02:34</time>
      </trkpt>
      <trkpt lat="40.7016" lon="-3.92624">
        <ele>932</ele>
        <time>2021-11-16 12:02:35</time>
      </trkpt>
      <trkpt lat="40.70162" lon="-3.92612">
        <ele>932.2</ele>
        <time>2021-11-16 12:02:36</time>
      </trkpt>
      <trkpt lat="40.70164" lon="-3.92602">
        <ele>932</ele>
        <time>2021-11-16 12:02:37</time>
      </trkpt>
      <trkpt lat="40.70164" lon="-3.92602">
        <ele>932.2</ele>
        <time>2021-11-16 12:02:38</time>
      </trkpt>
      <trkpt lat="40.7017" lon="-3.9258">
        <ele>932</ele>
        <time>2021-11-16 12:02:39</time>
      </trkpt>
      <trkpt lat="40.7017" lon="-3.9258">
        <ele>932</ele>
        <time>2021-11-16 12:02:40</time>
      </trkpt>
      <trkpt lat="40.70173" lon="-3.92569">
        <ele>932</ele>
        <time>2021-11-16 12:02:41</time>
      </trkpt>
      <trkpt lat="40.70176" lon="-3.92559">
        <ele>931.8</ele>
        <time>2021-11-16 12:02:42</time>
      </trkpt>
      <trkpt lat="40.70179" lon="-3.92548">
        <ele>931.6</ele>
        <time>2021-11-16 12:02:43</time>
      </trkpt>
      <trkpt lat="40.70187" lon="-3.92527">
        <ele>931.8</ele>
        <time>2021-11-16 12:02:44</time>
      </trkpt>
      <trkpt lat="40.70187" lon="-3.92527">
        <ele>931.6</ele>
        <time>2021-11-16 12:02:45</time>
      </trkpt>
      <trkpt lat="40.7019" lon="-3.92516">
        <ele>931.6</ele>
        <time>2021-11-16 12:02:46</time>
      </trkpt>
      <trkpt lat="40.70194" lon="-3.92505">
        <ele>931.6</ele>
        <time>2021-11-16 12:02:47</time>
      </trkpt>
      <trkpt lat="40.70198" lon="-3.92494">
        <ele>931.4</ele>
        <time>2021-11-16 12:02:48</time>
      </trkpt>
      <trkpt lat="40.70201" lon="-3.92484">
        <ele>931.4</ele>
        <time>2021-11-16 12:02:49</time>
      </trkpt>
      <trkpt lat="40.70205" lon="-3.92473">
        <ele>931.4</ele>
        <time>2021-11-16 12:02:50</time>
      </trkpt>
      <trkpt lat="40.70208" lon="-3.92462">
        <ele>931.4</ele>
        <time>2021-11-16 12:02:51</time>
      </trkpt>
      <trkpt lat="40.70212" lon="-3.92451">
        <ele>931.4</ele>
        <time>2021-11-16 12:02:52</time>
      </trkpt>
      <trkpt lat="40.70216" lon="-3.92441">
        <ele>931.2</ele>
        <time>2021-11-16 12:02:53</time>
      </trkpt>
      <trkpt lat="40.70219" lon="-3.9243">
        <ele>930.6</ele>
        <time>2021-11-16 12:02:54</time>
      </trkpt>
      <trkpt lat="40.70223" lon="-3.92419">
        <ele>930.6</ele>
        <time>2021-11-16 12:02:55</time>
      </trkpt>
      <trkpt lat="40.7023" lon="-3.92398">
        <ele>930.6</ele>
        <time>2021-11-16 12:02:56</time>
      </trkpt>
      <trkpt lat="40.70234" lon="-3.92387">
        <ele>930.4</ele>
        <time>2021-11-16 12:02:57</time>
      </trkpt>
      <trkpt lat="40.70234" lon="-3.92387">
        <ele>930</ele>
        <time>2021-11-16 12:02:58</time>
      </trkpt>
      <trkpt lat="40.70241" lon="-3.92366">
        <ele>929.4</ele>
        <time>2021-11-16 12:02:59</time>
      </trkpt>
      <trkpt lat="40.70245" lon="-3.92355">
        <ele>929.2</ele>
        <time>2021-11-16 12:03:00</time>
      </trkpt>
      <trkpt lat="40.70248" lon="-3.92344">
        <ele>929</ele>
        <time>2021-11-16 12:03:01</time>
      </trkpt>
      <trkpt lat="40.70248" lon="-3.92344">
        <ele>929</ele>
        <time>2021-11-16 12:03:02</time>
      </trkpt>
      <trkpt lat="40.70255" lon="-3.92323">
        <ele>928.8</ele>
        <time>2021-11-16 12:03:03</time>
      </trkpt>
      <trkpt lat="40.70259" lon="-3.92312">
        <ele>928.6</ele>
        <time>2021-11-16 12:03:04</time>
      </trkpt>
      <trkpt lat="40.70259" lon="-3.92312">
        <ele>928.6</ele>
        <time>2021-11-16 12:03:05</time>
      </trkpt>
      <trkpt lat="40.70266" lon="-3.9229">
        <ele>928.4</ele>
        <time>2021-11-16 12:03:06</time>
      </trkpt>
      <trkpt lat="40.7027" lon="-3.92279">
        <ele>928.2</ele>
        <time>2021-11-16 12:03:07</time>
      </trkpt>
      <trkpt lat="40.70274" lon="-3.92268">
        <ele>928.2</ele>
        <time>2021-11-16 12:03:08</time>
      </trkpt>
      <trkpt lat="40.70278" lon="-3.92257">
        <ele>927.8</ele>
        <time>2021-11-16 12:03:09</time>
      </trkpt>
      <trkpt lat="40.70282" lon="-3.92247">
        <ele>927</ele>
        <time>2021-11-16 12:03:10</time>
      </trkpt>
      <trkpt lat="40.70282" lon="-3.92247">
        <ele>927</ele>
        <time>2021-11-16 12:03:11</time>
      </trkpt>
      <trkpt lat="40.70286" lon="-3.92236">
        <ele>926.6</ele>
        <time>2021-11-16 12:03:12</time>
      </trkpt>
      <trkpt lat="40.7029" lon="-3.92226">
        <ele>926.4</ele>
        <time>2021-11-16 12:03:13</time>
      </trkpt>
      <trkpt lat="40.70295" lon="-3.92216">
        <ele>926.2</ele>
        <time>2021-11-16 12:03:14</time>
      </trkpt>
      <trkpt lat="40.70305" lon="-3.92196">
        <ele>926</ele>
        <time>2021-11-16 12:03:15</time>
      </trkpt>
      <trkpt lat="40.70305" lon="-3.92196">
        <ele>925.4</ele>
        <time>2021-11-16 12:03:16</time>
      </trkpt>
      <trkpt lat="40.70316" lon="-3.92177">
        <ele>925.2</ele>
        <time>2021-11-16 12:03:17</time>
      </trkpt>
      <trkpt lat="40.70322" lon="-3.92168">
        <ele>925.2</ele>
        <time>2021-11-16 12:03:18</time>
      </trkpt>
      <trkpt lat="40.70328" lon="-3.92159">
        <ele>924.8</ele>
        <time>2021-11-16 12:03:19</time>
      </trkpt>
      <trkpt lat="40.70334" lon="-3.9215">
        <ele>924.6</ele>
        <time>2021-11-16 12:03:20</time>
      </trkpt>
      <trkpt lat="40.70334" lon="-3.9215">
        <ele>924.4</ele>
        <time>2021-11-16 12:03:21</time>
      </trkpt>
      <trkpt lat="40.70348" lon="-3.92134">
        <ele>924.4</ele>
        <time>2021-11-16 12:03:22</time>
      </trkpt>
      <trkpt lat="40.70348" lon="-3.92134">
        <ele>924.2</ele>
        <time>2021-11-16 12:03:23</time>
      </trkpt>
      <trkpt lat="40.70362" lon="-3.92118">
        <ele>924</ele>
        <time>2021-11-16 12:03:24</time>
      </trkpt>
      <trkpt lat="40.7037" lon="-3.9211">
        <ele>923.8</ele>
        <time>2021-11-16 12:03:25</time>
      </trkpt>
      <trkpt lat="40.7037" lon="-3.9211">
        <ele>923.6</ele>
        <time>2021-11-16 12:03:26</time>
      </trkpt>
      <trkpt lat="40.70377" lon="-3.92102">
        <ele>923.6</ele>
        <time>2021-11-16 12:03:27</time>
      </trkpt>
      <trkpt lat="40.70393" lon="-3.92087">
        <ele>923.4</ele>
        <time>2021-11-16 12:03:28</time>
      </trkpt>
      <trkpt lat="40.704" lon="-3.92079">
        <ele>923.2</ele>
        <time>2021-11-16 12:03:29</time>
      </trkpt>
      <trkpt lat="40.70408" lon="-3.92071">
        <ele>923</ele>
        <time>2021-11-16 12:03:30</time>
      </trkpt>
      <trkpt lat="40.70415" lon="-3.92064">
        <ele>923</ele>
        <time>2021-11-16 12:03:31</time>
      </trkpt>
      <trkpt lat="40.70423" lon="-3.92056">
        <ele>922.8</ele>
        <time>2021-11-16 12:03:32</time>
      </trkpt>
      <trkpt lat="40.7043" lon="-3.92048">
        <ele>922.8</ele>
        <time>2021-11-16 12:03:33</time>
      </trkpt>
      <trkpt lat="40.70438" lon="-3.9204">
        <ele>922.6</ele>
        <time>2021-11-16 12:03:34</time>
      </trkpt>
      <trkpt lat="40.70445" lon="-3.92033">
        <ele>922.6</ele>
        <time>2021-11-16 12:03:35</time>
      </trkpt>
      <trkpt lat="40.70453" lon="-3.92025">
        <ele>922.4</ele>
        <time>2021-11-16 12:03:36</time>
      </trkpt>
      <trkpt lat="40.70461" lon="-3.92017">
        <ele>922</ele>
        <time>2021-11-16 12:03:37</time>
      </trkpt>
      <trkpt lat="40.70461" lon="-3.92017">
        <ele>921.8</ele>
        <time>2021-11-16 12:03:38</time>
      </trkpt>
      <trkpt lat="40.70476" lon="-3.92001">
        <ele>921.6</ele>
        <time>2021-11-16 12:03:39</time>
      </trkpt>
      <trkpt lat="40.70483" lon="-3.91993">
        <ele>921.4</ele>
        <time>2021-11-16 12:03:40</time>
      </trkpt>
      <trkpt lat="40.70483" lon="-3.91993">
        <ele>921.4</ele>
        <time>2021-11-16 12:03:41</time>
      </trkpt>
      <trkpt lat="40.70491" lon="-3.91985">
        <ele>921.4</ele>
        <time>2021-11-16 12:03:42</time>
      </trkpt>
      <trkpt lat="40.70505" lon="-3.91967">
        <ele>921</ele>
        <time>2021-11-16 12:03:43</time>
      </trkpt>
      <trkpt lat="40.70505" lon="-3.91967">
        <ele>920.6</ele>
        <time>2021-11-16 12:03:44</time>
      </trkpt>
      <trkpt lat="40.70517" lon="-3.91947">
        <ele>920.4</ele>
        <time>2021-11-16 12:03:45</time>
      </trkpt>
      <trkpt lat="40.70523" lon="-3.91936">
        <ele>920.2</ele>
        <time>2021-11-16 12:03:46</time>
      </trkpt>
      <trkpt lat="40.70523" lon="-3.91936">
        <ele>920</ele>
        <time>2021-11-16 12:03:47</time>
      </trkpt>
      <trkpt lat="40.70534" lon="-3.91915">
        <ele>919.6</ele>
        <time>2021-11-16 12:03:48</time>
      </trkpt>
      <trkpt lat="40.70534" lon="-3.91915">
        <ele>919.4</ele>
        <time>2021-11-16 12:03:49</time>
      </trkpt>
      <trkpt lat="40.70539" lon="-3.91905">
        <ele>919.4</ele>
        <time>2021-11-16 12:03:50</time>
      </trkpt>
      <trkpt lat="40.70544" lon="-3.91894">
        <ele>919.4</ele>
        <time>2021-11-16 12:03:51</time>
      </trkpt>
      <trkpt lat="40.70554" lon="-3.91872">
        <ele>919.2</ele>
        <time>2021-11-16 12:03:52</time>
      </trkpt>
      <trkpt lat="40.70554" lon="-3.91872">
        <ele>918.6</ele>
        <time>2021-11-16 12:03:53</time>
      </trkpt>
      <trkpt lat="40.70559" lon="-3.91862">
        <ele>918.2</ele>
        <time>2021-11-16 12:03:54</time>
      </trkpt>
      <trkpt lat="40.70569" lon="-3.91841">
        <ele>918.2</ele>
        <time>2021-11-16 12:03:55</time>
      </trkpt>
      <trkpt lat="40.70574" lon="-3.9183">
        <ele>918</ele>
        <time>2021-11-16 12:03:56</time>
      </trkpt>
      <trkpt lat="40.70579" lon="-3.9182">
        <ele>917.8</ele>
        <time>2021-11-16 12:03:57</time>
      </trkpt>
      <trkpt lat="40.70584" lon="-3.91809">
        <ele>917.8</ele>
        <time>2021-11-16 12:03:58</time>
      </trkpt>
      <trkpt lat="40.70589" lon="-3.91799">
        <ele>917.8</ele>
        <time>2021-11-16 12:03:59</time>
      </trkpt>
      <trkpt lat="40.70589" lon="-3.91799">
        <ele>917.6</ele>
        <time>2021-11-16 12:04:00</time>
      </trkpt>
      <trkpt lat="40.70598" lon="-3.91778">
        <ele>917.6</ele>
        <time>2021-11-16 12:04:01</time>
      </trkpt>
      <trkpt lat="40.70603" lon="-3.91768">
        <ele>917.6</ele>
        <time>2021-11-16 12:04:02</time>
      </trkpt>
      <trkpt lat="40.70608" lon="-3.91758">
        <ele>917.6</ele>
        <time>2021-11-16 12:04:03</time>
      </trkpt>
      <trkpt lat="40.70613" lon="-3.91747">
        <ele>917.4</ele>
        <time>2021-11-16 12:04:04</time>
      </trkpt>
      <trkpt lat="40.70617" lon="-3.91737">
        <ele>917.4</ele>
        <time>2021-11-16 12:04:05</time>
      </trkpt>
      <trkpt lat="40.70622" lon="-3.91727">
        <ele>917.2</ele>
        <time>2021-11-16 12:04:06</time>
      </trkpt>
      <trkpt lat="40.70627" lon="-3.91717">
        <ele>917.2</ele>
        <time>2021-11-16 12:04:07</time>
      </trkpt>
      <trkpt lat="40.70632" lon="-3.91707">
        <ele>917.2</ele>
        <time>2021-11-16 12:04:08</time>
      </trkpt>
      <trkpt lat="40.70637" lon="-3.91697">
        <ele>917</ele>
        <time>2021-11-16 12:04:09</time>
      </trkpt>
      <trkpt lat="40.70641" lon="-3.91687">
        <ele>916.8</ele>
        <time>2021-11-16 12:04:10</time>
      </trkpt>
      <trkpt lat="40.70646" lon="-3.91677">
        <ele>916.8</ele>
        <time>2021-11-16 12:04:11</time>
      </trkpt>
      <trkpt lat="40.70651" lon="-3.91667">
        <ele>916.6</ele>
        <time>2021-11-16 12:04:12</time>
      </trkpt>
      <trkpt lat="40.70655" lon="-3.91657">
        <ele>916.4</ele>
        <time>2021-11-16 12:04:13</time>
      </trkpt>
      <trkpt lat="40.7066" lon="-3.91647">
        <ele>916.4</ele>
        <time>2021-11-16 12:04:14</time>
      </trkpt>
      <trkpt lat="40.7066" lon="-3.91647">
        <ele>916.4</ele>
        <time>2021-11-16 12:04:15</time>
      </trkpt>
      <trkpt lat="40.70669" lon="-3.91628">
        <ele>916.4</ele>
        <time>2021-11-16 12:04:16</time>
      </trkpt>
      <trkpt lat="40.70669" lon="-3.91628">
        <ele>916.4</ele>
        <time>2021-11-16 12:04:17</time>
      </trkpt>
      <trkpt lat="40.70678" lon="-3.91609">
        <ele>916.4</ele>
        <time>2021-11-16 12:04:18</time>
      </trkpt>
      <trkpt lat="40.70683" lon="-3.91599">
        <ele>916.2</ele>
        <time>2021-11-16 12:04:19</time>
      </trkpt>
      <trkpt lat="40.70687" lon="-3.9159">
        <ele>916.2</ele>
        <time>2021-11-16 12:04:20</time>
      </trkpt>
      <trkpt lat="40.70692" lon="-3.9158">
        <ele>916.4</ele>
        <time>2021-11-16 12:04:21</time>
      </trkpt>
      <trkpt lat="40.70692" lon="-3.9158">
        <ele>916.2</ele>
        <time>2021-11-16 12:04:22</time>
      </trkpt>
      <trkpt lat="40.707" lon="-3.91561">
        <ele>916</ele>
        <time>2021-11-16 12:04:23</time>
      </trkpt>
      <trkpt lat="40.70705" lon="-3.91552">
        <ele>916</ele>
        <time>2021-11-16 12:04:24</time>
      </trkpt>
      <trkpt lat="40.70709" lon="-3.91543">
        <ele>916</ele>
        <time>2021-11-16 12:04:25</time>
      </trkpt>
      <trkpt lat="40.70714" lon="-3.91533">
        <ele>915.8</ele>
        <time>2021-11-16 12:04:26</time>
      </trkpt>
      <trkpt lat="40.70718" lon="-3.91524">
        <ele>915.8</ele>
        <time>2021-11-16 12:04:27</time>
      </trkpt>
      <trkpt lat="40.70723" lon="-3.91514">
        <ele>915.8</ele>
        <time>2021-11-16 12:04:28</time>
      </trkpt>
      <trkpt lat="40.70727" lon="-3.91505">
        <ele>915.8</ele>
        <time>2021-11-16 12:04:29</time>
      </trkpt>
      <trkpt lat="40.70732" lon="-3.91495">
        <ele>916</ele>
        <time>2021-11-16 12:04:30</time>
      </trkpt>
      <trkpt lat="40.70736" lon="-3.91486">
        <ele>916</ele>
        <time>2021-11-16 12:04:31</time>
      </trkpt>
      <trkpt lat="40.7074" lon="-3.91476">
        <ele>915.6</ele>
        <time>2021-11-16 12:04:32</time>
      </trkpt>
      <trkpt lat="40.7074" lon="-3.91476">
        <ele>915.8</ele>
        <time>2021-11-16 12:04:33</time>
      </trkpt>
      <trkpt lat="40.70749" lon="-3.91457">
        <ele>915.6</ele>
        <time>2021-11-16 12:04:34</time>
      </trkpt>
      <trkpt lat="40.70749" lon="-3.91457">
        <ele>915.6</ele>
        <time>2021-11-16 12:04:35</time>
      </trkpt>
      <trkpt lat="40.70754" lon="-3.91448">
        <ele>915.6</ele>
        <time>2021-11-16 12:04:36</time>
      </trkpt>
      <trkpt lat="40.70763" lon="-3.91431">
        <ele>915.4</ele>
        <time>2021-11-16 12:04:37</time>
      </trkpt>
      <trkpt lat="40.70768" lon="-3.91422">
        <ele>915.4</ele>
        <time>2021-11-16 12:04:38</time>
      </trkpt>
      <trkpt lat="40.70768" lon="-3.91422">
        <ele>915.2</ele>
        <time>2021-11-16 12:04:39</time>
      </trkpt>
      <trkpt lat="40.70778" lon="-3.91405">
        <ele>915.4</ele>
        <time>2021-11-16 12:04:40</time>
      </trkpt>
      <trkpt lat="40.70778" lon="-3.91405">
        <ele>914.8</ele>
        <time>2021-11-16 12:04:41</time>
      </trkpt>
      <trkpt lat="40.70789" lon="-3.91389">
        <ele>914.6</ele>
        <time>2021-11-16 12:04:42</time>
      </trkpt>
      <trkpt lat="40.70794" lon="-3.91381">
        <ele>914.4</ele>
        <time>2021-11-16 12:04:43</time>
      </trkpt>
      <trkpt lat="40.70794" lon="-3.91381">
        <ele>914.2</ele>
        <time>2021-11-16 12:04:44</time>
      </trkpt>
      <trkpt lat="40.708" lon="-3.91373">
        <ele>914</ele>
        <time>2021-11-16 12:04:45</time>
      </trkpt>
      <trkpt lat="40.70805" lon="-3.91365">
        <ele>914</ele>
        <time>2021-11-16 12:04:46</time>
      </trkpt>
      <trkpt lat="40.70811" lon="-3.91357">
        <ele>913.8</ele>
        <time>2021-11-16 12:04:47</time>
      </trkpt>
      <trkpt lat="40.70821" lon="-3.91341">
        <ele>913.8</ele>
        <time>2021-11-16 12:04:48</time>
      </trkpt>
      <trkpt lat="40.70827" lon="-3.91333">
        <ele>913.6</ele>
        <time>2021-11-16 12:04:49</time>
      </trkpt>
      <trkpt lat="40.70827" lon="-3.91333">
        <ele>913.4</ele>
        <time>2021-11-16 12:04:50</time>
      </trkpt>
      <trkpt lat="40.70832" lon="-3.91325">
        <ele>913.4</ele>
        <time>2021-11-16 12:04:51</time>
      </trkpt>
      <trkpt lat="40.70843" lon="-3.91309">
        <ele>913.4</ele>
        <time>2021-11-16 12:04:52</time>
      </trkpt>
      <trkpt lat="40.70843" lon="-3.91309">
        <ele>913.2</ele>
        <time>2021-11-16 12:04:53</time>
      </trkpt>
      <trkpt lat="40.70854" lon="-3.91293">
        <ele>913.2</ele>
        <time>2021-11-16 12:04:54</time>
      </trkpt>
      <trkpt lat="40.70854" lon="-3.91293">
        <ele>913</ele>
        <time>2021-11-16 12:04:55</time>
      </trkpt>
      <trkpt lat="40.70865" lon="-3.91277">
        <ele>913</ele>
        <time>2021-11-16 12:04:56</time>
      </trkpt>
      <trkpt lat="40.70865" lon="-3.91277">
        <ele>913</ele>
        <time>2021-11-16 12:04:57</time>
      </trkpt>
      <trkpt lat="40.70875" lon="-3.91262">
        <ele>912.8</ele>
        <time>2021-11-16 12:04:58</time>
      </trkpt>
      <trkpt lat="40.70881" lon="-3.91254">
        <ele>912.8</ele>
        <time>2021-11-16 12:04:59</time>
      </trkpt>
      <trkpt lat="40.70881" lon="-3.91254">
        <ele>912.8</ele>
        <time>2021-11-16 12:05:00</time>
      </trkpt>
      <trkpt lat="40.70886" lon="-3.91246">
        <ele>912.6</ele>
        <time>2021-11-16 12:05:01</time>
      </trkpt>
      <trkpt lat="40.70892" lon="-3.91238">
        <ele>912.6</ele>
        <time>2021-11-16 12:05:02</time>
      </trkpt>
      <trkpt lat="40.70897" lon="-3.9123">
        <ele>912.6</ele>
        <time>2021-11-16 12:05:03</time>
      </trkpt>
      <trkpt lat="40.70902" lon="-3.91222">
        <ele>912.8</ele>
        <time>2021-11-16 12:05:04</time>
      </trkpt>
      <trkpt lat="40.70908" lon="-3.91214">
        <ele>912.6</ele>
        <time>2021-11-16 12:05:05</time>
      </trkpt>
      <trkpt lat="40.70918" lon="-3.91198">
        <ele>912.6</ele>
        <time>2021-11-16 12:05:06</time>
      </trkpt>
      <trkpt lat="40.70918" lon="-3.91198">
        <ele>912.6</ele>
        <time>2021-11-16 12:05:07</time>
      </trkpt>
      <trkpt lat="40.70924" lon="-3.9119">
        <ele>912.8</ele>
        <time>2021-11-16 12:05:08</time>
      </trkpt>
      <trkpt lat="40.70929" lon="-3.91182">
        <ele>912.6</ele>
        <time>2021-11-16 12:05:09</time>
      </trkpt>
      <trkpt lat="40.7094" lon="-3.91166">
        <ele>912.6</ele>
        <time>2021-11-16 12:05:10</time>
      </trkpt>
      <trkpt lat="40.7094" lon="-3.91166">
        <ele>912.8</ele>
        <time>2021-11-16 12:05:11</time>
      </trkpt>
      <trkpt lat="40.70946" lon="-3.91158">
        <ele>912.8</ele>
        <time>2021-11-16 12:05:12</time>
      </trkpt>
      <trkpt lat="40.70957" lon="-3.91142">
        <ele>912.8</ele>
        <time>2021-11-16 12:05:13</time>
      </trkpt>
      <trkpt lat="40.70957" lon="-3.91142">
        <ele>912.8</ele>
        <time>2021-11-16 12:05:14</time>
      </trkpt>
      <trkpt lat="40.70967" lon="-3.91126">
        <ele>912.6</ele>
        <time>2021-11-16 12:05:15</time>
      </trkpt>
      <trkpt lat="40.70967" lon="-3.91126">
        <ele>912.8</ele>
        <time>2021-11-16 12:05:16</time>
      </trkpt>
      <trkpt lat="40.70973" lon="-3.91119">
        <ele>912.6</ele>
        <time>2021-11-16 12:05:17</time>
      </trkpt>
      <trkpt lat="40.70984" lon="-3.91103">
        <ele>912.6</ele>
        <time>2021-11-16 12:05:18</time>
      </trkpt>
      <trkpt lat="40.70989" lon="-3.91095">
        <ele>912.6</ele>
        <time>2021-11-16 12:05:19</time>
      </trkpt>
      <trkpt lat="40.70994" lon="-3.91087">
        <ele>912.6</ele>
        <time>2021-11-16 12:05:20</time>
      </trkpt>
      <trkpt lat="40.70999" lon="-3.91079">
        <ele>912.8</ele>
        <time>2021-11-16 12:05:21</time>
      </trkpt>
      <trkpt lat="40.71005" lon="-3.91071">
        <ele>912.6</ele>
        <time>2021-11-16 12:05:22</time>
      </trkpt>
      <trkpt lat="40.7101" lon="-3.91063">
        <ele>912.6</ele>
        <time>2021-11-16 12:05:23</time>
      </trkpt>
      <trkpt lat="40.71016" lon="-3.91055">
        <ele>912.8</ele>
        <time>2021-11-16 12:05:24</time>
      </trkpt>
      <trkpt lat="40.71021" lon="-3.91048">
        <ele>912.8</ele>
        <time>2021-11-16 12:05:25</time>
      </trkpt>
      <trkpt lat="40.71026" lon="-3.9104">
        <ele>912.6</ele>
        <time>2021-11-16 12:05:26</time>
      </trkpt>
      <trkpt lat="40.71032" lon="-3.91032">
        <ele>912.6</ele>
        <time>2021-11-16 12:05:27</time>
      </trkpt>
      <trkpt lat="40.71038" lon="-3.91025">
        <ele>912.8</ele>
        <time>2021-11-16 12:05:28</time>
      </trkpt>
      <trkpt lat="40.71044" lon="-3.91018">
        <ele>912.6</ele>
        <time>2021-11-16 12:05:29</time>
      </trkpt>
      <trkpt lat="40.7105" lon="-3.91011">
        <ele>912.6</ele>
        <time>2021-11-16 12:05:30</time>
      </trkpt>
      <trkpt lat="40.71056" lon="-3.91005">
        <ele>912.6</ele>
        <time>2021-11-16 12:05:31</time>
      </trkpt>
      <trkpt lat="40.71056" lon="-3.91005">
        <ele>912.6</ele>
        <time>2021-11-16 12:05:32</time>
      </trkpt>
      <trkpt lat="40.71068" lon="-3.90991">
        <ele>912.8</ele>
        <time>2021-11-16 12:05:33</time>
      </trkpt>
      <trkpt lat="40.71074" lon="-3.90985">
        <ele>912.8</ele>
        <time>2021-11-16 12:05:34</time>
      </trkpt>
      <trkpt lat="40.71081" lon="-3.90978">
        <ele>912.8</ele>
        <time>2021-11-16 12:05:35</time>
      </trkpt>
      <trkpt lat="40.71087" lon="-3.90972">
        <ele>912.8</ele>
        <time>2021-11-16 12:05:36</time>
      </trkpt>
      <trkpt lat="40.71093" lon="-3.90965">
        <ele>912.8</ele>
        <time>2021-11-16 12:05:37</time>
      </trkpt>
      <trkpt lat="40.711" lon="-3.90959">
        <ele>912.8</ele>
        <time>2021-11-16 12:05:38</time>
      </trkpt>
      <trkpt lat="40.71106" lon="-3.90952">
        <ele>912.6</ele>
        <time>2021-11-16 12:05:39</time>
      </trkpt>
      <trkpt lat="40.71113" lon="-3.90945">
        <ele>912.6</ele>
        <time>2021-11-16 12:05:40</time>
      </trkpt>
      <trkpt lat="40.71119" lon="-3.90938">
        <ele>912.4</ele>
        <time>2021-11-16 12:05:41</time>
      </trkpt>
      <trkpt lat="40.71125" lon="-3.90932">
        <ele>912.2</ele>
        <time>2021-11-16 12:05:42</time>
      </trkpt>
      <trkpt lat="40.71131" lon="-3.90925">
        <ele>912.2</ele>
        <time>2021-11-16 12:05:43</time>
      </trkpt>
      <trkpt lat="40.71138" lon="-3.90918">
        <ele>912</ele>
        <time>2021-11-16 12:05:44</time>
      </trkpt>
      <trkpt lat="40.71144" lon="-3.90912">
        <ele>912</ele>
        <time>2021-11-16 12:05:45</time>
      </trkpt>
      <trkpt lat="40.7115" lon="-3.90905">
        <ele>912.2</ele>
        <time>2021-11-16 12:05:46</time>
      </trkpt>
      <trkpt lat="40.71156" lon="-3.90899">
        <ele>912</ele>
        <time>2021-11-16 12:05:47</time>
      </trkpt>
      <trkpt lat="40.71162" lon="-3.90892">
        <ele>912</ele>
        <time>2021-11-16 12:05:48</time>
      </trkpt>
      <trkpt lat="40.71162" lon="-3.90892">
        <ele>912</ele>
        <time>2021-11-16 12:05:49</time>
      </trkpt>
      <trkpt lat="40.71168" lon="-3.90885">
        <ele>912</ele>
        <time>2021-11-16 12:05:50</time>
      </trkpt>
      <trkpt lat="40.7118" lon="-3.90872">
        <ele>912</ele>
        <time>2021-11-16 12:05:51</time>
      </trkpt>
      <trkpt lat="40.71186" lon="-3.90865">
        <ele>911.8</ele>
        <time>2021-11-16 12:05:52</time>
      </trkpt>
      <trkpt lat="40.71192" lon="-3.90858">
        <ele>911.8</ele>
        <time>2021-11-16 12:05:53</time>
      </trkpt>
      <trkpt lat="40.71197" lon="-3.9085">
        <ele>911.6</ele>
        <time>2021-11-16 12:05:54</time>
      </trkpt>
      <trkpt lat="40.71203" lon="-3.90842">
        <ele>911.6</ele>
        <time>2021-11-16 12:05:55</time>
      </trkpt>
      <trkpt lat="40.71208" lon="-3.90834">
        <ele>911.4</ele>
        <time>2021-11-16 12:05:56</time>
      </trkpt>
      <trkpt lat="40.71213" lon="-3.90827">
        <ele>911.6</ele>
        <time>2021-11-16 12:05:57</time>
      </trkpt>
      <trkpt lat="40.71218" lon="-3.90818">
        <ele>911.4</ele>
        <time>2021-11-16 12:05:58</time>
      </trkpt>
      <trkpt lat="40.71223" lon="-3.9081">
        <ele>911.2</ele>
        <time>2021-11-16 12:05:59</time>
      </trkpt>
      <trkpt lat="40.71228" lon="-3.90802">
        <ele>911.2</ele>
        <time>2021-11-16 12:06:00</time>
      </trkpt>
      <trkpt lat="40.71228" lon="-3.90802">
        <ele>911</ele>
        <time>2021-11-16 12:06:01</time>
      </trkpt>
      <trkpt lat="40.71237" lon="-3.90785">
        <ele>911</ele>
        <time>2021-11-16 12:06:02</time>
      </trkpt>
      <trkpt lat="40.71242" lon="-3.90776">
        <ele>911</ele>
        <time>2021-11-16 12:06:03</time>
      </trkpt>
      <trkpt lat="40.71247" lon="-3.90768">
        <ele>911</ele>
        <time>2021-11-16 12:06:04</time>
      </trkpt>
      <trkpt lat="40.71251" lon="-3.90759">
        <ele>910.8</ele>
        <time>2021-11-16 12:06:05</time>
      </trkpt>
      <trkpt lat="40.71256" lon="-3.90751">
        <ele>910.8</ele>
        <time>2021-11-16 12:06:06</time>
      </trkpt>
      <trkpt lat="40.71261" lon="-3.90743">
        <ele>910.8</ele>
        <time>2021-11-16 12:06:07</time>
      </trkpt>
      <trkpt lat="40.71265" lon="-3.90734">
        <ele>910.8</ele>
        <time>2021-11-16 12:06:08</time>
      </trkpt>
      <trkpt lat="40.7127" lon="-3.90726">
        <ele>910.8</ele>
        <time>2021-11-16 12:06:09</time>
      </trkpt>
      <trkpt lat="40.71274" lon="-3.90719">
        <ele>910.8</ele>
        <time>2021-11-16 12:06:10</time>
      </trkpt>
      <trkpt lat="40.71279" lon="-3.90711">
        <ele>910.8</ele>
        <time>2021-11-16 12:06:11</time>
      </trkpt>
      <trkpt lat="40.71283" lon="-3.90703">
        <ele>910.8</ele>
        <time>2021-11-16 12:06:12</time>
      </trkpt>
      <trkpt lat="40.71288" lon="-3.90695">
        <ele>910.8</ele>
        <time>2021-11-16 12:06:13</time>
      </trkpt>
      <trkpt lat="40.71292" lon="-3.90687">
        <ele>910.8</ele>
        <time>2021-11-16 12:06:14</time>
      </trkpt>
      <trkpt lat="40.71297" lon="-3.90679">
        <ele>910.8</ele>
        <time>2021-11-16 12:06:15</time>
      </trkpt>
      <trkpt lat="40.71302" lon="-3.90671">
        <ele>911</ele>
        <time>2021-11-16 12:06:16</time>
      </trkpt>
      <trkpt lat="40.71306" lon="-3.90663">
        <ele>911</ele>
        <time>2021-11-16 12:06:17</time>
      </trkpt>
      <trkpt lat="40.71311" lon="-3.90655">
        <ele>911</ele>
        <time>2021-11-16 12:06:18</time>
      </trkpt>
      <trkpt lat="40.71316" lon="-3.90647">
        <ele>911</ele>
        <time>2021-11-16 12:06:19</time>
      </trkpt>
      <trkpt lat="40.7132" lon="-3.90639">
        <ele>910.8</ele>
        <time>2021-11-16 12:06:20</time>
      </trkpt>
      <trkpt lat="40.71325" lon="-3.9063">
        <ele>910.8</ele>
        <time>2021-11-16 12:06:21</time>
      </trkpt>
      <trkpt lat="40.7133" lon="-3.90622">
        <ele>910.8</ele>
        <time>2021-11-16 12:06:22</time>
      </trkpt>
      <trkpt lat="40.7133" lon="-3.90622">
        <ele>910.6</ele>
        <time>2021-11-16 12:06:23</time>
      </trkpt>
      <trkpt lat="40.7134" lon="-3.90606">
        <ele>910.8</ele>
        <time>2021-11-16 12:06:24</time>
      </trkpt>
      <trkpt lat="40.71344" lon="-3.90597">
        <ele>910.6</ele>
        <time>2021-11-16 12:06:25</time>
      </trkpt>
      <trkpt lat="40.71349" lon="-3.90589">
        <ele>910.4</ele>
        <time>2021-11-16 12:06:26</time>
      </trkpt>
      <trkpt lat="40.71353" lon="-3.90581">
        <ele>910.4</ele>
        <time>2021-11-16 12:06:27</time>
      </trkpt>
      <trkpt lat="40.71353" lon="-3.90581">
        <ele>910.4</ele>
        <time>2021-11-16 12:06:28</time>
      </trkpt>
      <trkpt lat="40.71362" lon="-3.90563">
        <ele>910.4</ele>
        <time>2021-11-16 12:06:29</time>
      </trkpt>
      <trkpt lat="40.71366" lon="-3.90554">
        <ele>910.4</ele>
        <time>2021-11-16 12:06:30</time>
      </trkpt>
      <trkpt lat="40.7137" lon="-3.90545">
        <ele>910.4</ele>
        <time>2021-11-16 12:06:31</time>
      </trkpt>
      <trkpt lat="40.7137" lon="-3.90545">
        <ele>910.4</ele>
        <time>2021-11-16 12:06:32</time>
      </trkpt>
      <trkpt lat="40.71377" lon="-3.90526">
        <ele>910.4</ele>
        <time>2021-11-16 12:06:33</time>
      </trkpt>
      <trkpt lat="40.71377" lon="-3.90526">
        <ele>910.4</ele>
        <time>2021-11-16 12:06:34</time>
      </trkpt>
      <trkpt lat="40.71383" lon="-3.90507">
        <ele>910.4</ele>
        <time>2021-11-16 12:06:35</time>
      </trkpt>
      <trkpt lat="40.71385" lon="-3.90497">
        <ele>910.4</ele>
        <time>2021-11-16 12:06:36</time>
      </trkpt>
      <trkpt lat="40.71387" lon="-3.90487">
        <ele>910.4</ele>
        <time>2021-11-16 12:06:37</time>
      </trkpt>
      <trkpt lat="40.71389" lon="-3.90476">
        <ele>910.2</ele>
        <time>2021-11-16 12:06:38</time>
      </trkpt>
      <trkpt lat="40.71391" lon="-3.90466">
        <ele>910.4</ele>
        <time>2021-11-16 12:06:39</time>
      </trkpt>
      <trkpt lat="40.71394" lon="-3.90456">
        <ele>910.4</ele>
        <time>2021-11-16 12:06:40</time>
      </trkpt>
      <trkpt lat="40.71396" lon="-3.90445">
        <ele>910</ele>
        <time>2021-11-16 12:06:41</time>
      </trkpt>
      <trkpt lat="40.71397" lon="-3.90435">
        <ele>910.2</ele>
        <time>2021-11-16 12:06:42</time>
      </trkpt>
      <trkpt lat="40.71399" lon="-3.90424">
        <ele>910</ele>
        <time>2021-11-16 12:06:43</time>
      </trkpt>
      <trkpt lat="40.71401" lon="-3.90414">
        <ele>910</ele>
        <time>2021-11-16 12:06:44</time>
      </trkpt>
      <trkpt lat="40.71403" lon="-3.90404">
        <ele>910</ele>
        <time>2021-11-16 12:06:45</time>
      </trkpt>
      <trkpt lat="40.71405" lon="-3.90393">
        <ele>910</ele>
        <time>2021-11-16 12:06:46</time>
      </trkpt>
      <trkpt lat="40.71407" lon="-3.90383">
        <ele>909.8</ele>
        <time>2021-11-16 12:06:47</time>
      </trkpt>
      <trkpt lat="40.71409" lon="-3.90372">
        <ele>909.8</ele>
        <time>2021-11-16 12:06:48</time>
      </trkpt>
      <trkpt lat="40.7141" lon="-3.90362">
        <ele>909.8</ele>
        <time>2021-11-16 12:06:49</time>
      </trkpt>
      <trkpt lat="40.71412" lon="-3.90351">
        <ele>909.8</ele>
        <time>2021-11-16 12:06:50</time>
      </trkpt>
      <trkpt lat="40.71414" lon="-3.90341">
        <ele>909.8</ele>
        <time>2021-11-16 12:06:51</time>
      </trkpt>
      <trkpt lat="40.71416" lon="-3.9033">
        <ele>909.6</ele>
        <time>2021-11-16 12:06:52</time>
      </trkpt>
      <trkpt lat="40.71418" lon="-3.9032">
        <ele>909.6</ele>
        <time>2021-11-16 12:06:53</time>
      </trkpt>
      <trkpt lat="40.7142" lon="-3.90309">
        <ele>909.4</ele>
        <time>2021-11-16 12:06:54</time>
      </trkpt>
      <trkpt lat="40.71422" lon="-3.90299">
        <ele>909.4</ele>
        <time>2021-11-16 12:06:55</time>
      </trkpt>
      <trkpt lat="40.71423" lon="-3.90288">
        <ele>909.4</ele>
        <time>2021-11-16 12:06:56</time>
      </trkpt>
      <trkpt lat="40.71425" lon="-3.90278">
        <ele>909.4</ele>
        <time>2021-11-16 12:06:57</time>
      </trkpt>
      <trkpt lat="40.71427" lon="-3.90267">
        <ele>909.4</ele>
        <time>2021-11-16 12:06:58</time>
      </trkpt>
      <trkpt lat="40.71429" lon="-3.90257">
        <ele>909.4</ele>
        <time>2021-11-16 12:06:59</time>
      </trkpt>
      <trkpt lat="40.71431" lon="-3.90246">
        <ele>909.4</ele>
        <time>2021-11-16 12:07:00</time>
      </trkpt>
      <trkpt lat="40.71433" lon="-3.90236">
        <ele>909.4</ele>
        <time>2021-11-16 12:07:01</time>
      </trkpt>
      <trkpt lat="40.71434" lon="-3.90225">
        <ele>909</ele>
        <time>2021-11-16 12:07:02</time>
      </trkpt>
      <trkpt lat="40.71436" lon="-3.90215">
        <ele>909</ele>
        <time>2021-11-16 12:07:03</time>
      </trkpt>
      <trkpt lat="40.71438" lon="-3.90205">
        <ele>908.8</ele>
        <time>2021-11-16 12:07:04</time>
      </trkpt>
      <trkpt lat="40.7144" lon="-3.90194">
        <ele>908.8</ele>
        <time>2021-11-16 12:07:05</time>
      </trkpt>
      <trkpt lat="40.71442" lon="-3.90184">
        <ele>908.8</ele>
        <time>2021-11-16 12:07:06</time>
      </trkpt>
      <trkpt lat="40.71444" lon="-3.90174">
        <ele>908.8</ele>
        <time>2021-11-16 12:07:07</time>
      </trkpt>
      <trkpt lat="40.71446" lon="-3.90163">
        <ele>908.6</ele>
        <time>2021-11-16 12:07:08</time>
      </trkpt>
      <trkpt lat="40.71447" lon="-3.90153">
        <ele>908.6</ele>
        <time>2021-11-16 12:07:09</time>
      </trkpt>
      <trkpt lat="40.71449" lon="-3.90142">
        <ele>908.2</ele>
        <time>2021-11-16 12:07:10</time>
      </trkpt>
      <trkpt lat="40.71449" lon="-3.90142">
        <ele>908</ele>
        <time>2021-11-16 12:07:11</time>
      </trkpt>
      <trkpt lat="40.71453" lon="-3.90122">
        <ele>908</ele>
        <time>2021-11-16 12:07:12</time>
      </trkpt>
      <trkpt lat="40.71455" lon="-3.90111">
        <ele>907.8</ele>
        <time>2021-11-16 12:07:13</time>
      </trkpt>
      <trkpt lat="40.71457" lon="-3.90101">
        <ele>907.8</ele>
        <time>2021-11-16 12:07:14</time>
      </trkpt>
      <trkpt lat="40.71459" lon="-3.9009">
        <ele>907.8</ele>
        <time>2021-11-16 12:07:15</time>
      </trkpt>
      <trkpt lat="40.7146" lon="-3.9008">
        <ele>907.8</ele>
        <time>2021-11-16 12:07:16</time>
      </trkpt>
      <trkpt lat="40.71462" lon="-3.9007">
        <ele>907.6</ele>
        <time>2021-11-16 12:07:17</time>
      </trkpt>
      <trkpt lat="40.71464" lon="-3.9006">
        <ele>907.6</ele>
        <time>2021-11-16 12:07:18</time>
      </trkpt>
      <trkpt lat="40.71466" lon="-3.9005">
        <ele>907.6</ele>
        <time>2021-11-16 12:07:19</time>
      </trkpt>
      <trkpt lat="40.71468" lon="-3.90039">
        <ele>907.6</ele>
        <time>2021-11-16 12:07:20</time>
      </trkpt>
      <trkpt lat="40.7147" lon="-3.90029">
        <ele>907.6</ele>
        <time>2021-11-16 12:07:21</time>
      </trkpt>
      <trkpt lat="40.71472" lon="-3.90019">
        <ele>907.6</ele>
        <time>2021-11-16 12:07:22</time>
      </trkpt>
      <trkpt lat="40.71473" lon="-3.90009">
        <ele>907.6</ele>
        <time>2021-11-16 12:07:23</time>
      </trkpt>
      <trkpt lat="40.71475" lon="-3.89998">
        <ele>907.6</ele>
        <time>2021-11-16 12:07:24</time>
      </trkpt>
      <trkpt lat="40.71477" lon="-3.89988">
        <ele>907.6</ele>
        <time>2021-11-16 12:07:25</time>
      </trkpt>
      <trkpt lat="40.71479" lon="-3.89978">
        <ele>907.6</ele>
        <time>2021-11-16 12:07:26</time>
      </trkpt>
      <trkpt lat="40.7148" lon="-3.89968">
        <ele>907.4</ele>
        <time>2021-11-16 12:07:27</time>
      </trkpt>
      <trkpt lat="40.71482" lon="-3.89957">
        <ele>907.6</ele>
        <time>2021-11-16 12:07:28</time>
      </trkpt>
      <trkpt lat="40.71484" lon="-3.89947">
        <ele>907.4</ele>
        <time>2021-11-16 12:07:29</time>
      </trkpt>
      <trkpt lat="40.71486" lon="-3.89937">
        <ele>907.4</ele>
        <time>2021-11-16 12:07:30</time>
      </trkpt>
      <trkpt lat="40.71488" lon="-3.89927">
        <ele>907.4</ele>
        <time>2021-11-16 12:07:31</time>
      </trkpt>
      <trkpt lat="40.71488" lon="-3.89927">
        <ele>907.4</ele>
        <time>2021-11-16 12:07:32</time>
      </trkpt>
      <trkpt lat="40.71492" lon="-3.89907">
        <ele>907.4</ele>
        <time>2021-11-16 12:07:33</time>
      </trkpt>
      <trkpt lat="40.71494" lon="-3.89897">
        <ele>907.2</ele>
        <time>2021-11-16 12:07:34</time>
      </trkpt>
      <trkpt lat="40.71496" lon="-3.89887">
        <ele>907.4</ele>
        <time>2021-11-16 12:07:35</time>
      </trkpt>
      <trkpt lat="40.71497" lon="-3.89877">
        <ele>907.4</ele>
        <time>2021-11-16 12:07:36</time>
      </trkpt>
      <trkpt lat="40.71499" lon="-3.89867">
        <ele>907.4</ele>
        <time>2021-11-16 12:07:37</time>
      </trkpt>
      <trkpt lat="40.71501" lon="-3.89856">
        <ele>907.4</ele>
        <time>2021-11-16 12:07:38</time>
      </trkpt>
      <trkpt lat="40.71503" lon="-3.89846">
        <ele>907.4</ele>
        <time>2021-11-16 12:07:39</time>
      </trkpt>
      <trkpt lat="40.71504" lon="-3.89835">
        <ele>907.4</ele>
        <time>2021-11-16 12:07:40</time>
      </trkpt>
      <trkpt lat="40.71506" lon="-3.89824">
        <ele>907.4</ele>
        <time>2021-11-16 12:07:41</time>
      </trkpt>
      <trkpt lat="40.71508" lon="-3.89813">
        <ele>907.6</ele>
        <time>2021-11-16 12:07:42</time>
      </trkpt>
      <trkpt lat="40.71509" lon="-3.89802">
        <ele>907.6</ele>
        <time>2021-11-16 12:07:43</time>
      </trkpt>
      <trkpt lat="40.7151" lon="-3.89791">
        <ele>907.4</ele>
        <time>2021-11-16 12:07:44</time>
      </trkpt>
      <trkpt lat="40.71511" lon="-3.8978">
        <ele>907.4</ele>
        <time>2021-11-16 12:07:45</time>
      </trkpt>
      <trkpt lat="40.71511" lon="-3.89769">
        <ele>907.4</ele>
        <time>2021-11-16 12:07:46</time>
      </trkpt>
      <trkpt lat="40.71511" lon="-3.89769">
        <ele>907.4</ele>
        <time>2021-11-16 12:07:47</time>
      </trkpt>
      <trkpt lat="40.71512" lon="-3.89746">
        <ele>907.4</ele>
        <time>2021-11-16 12:07:48</time>
      </trkpt>
      <trkpt lat="40.71513" lon="-3.89735">
        <ele>907.4</ele>
        <time>2021-11-16 12:07:49</time>
      </trkpt>
      <trkpt lat="40.71514" lon="-3.89724">
        <ele>907.4</ele>
        <time>2021-11-16 12:07:50</time>
      </trkpt>
      <trkpt lat="40.71514" lon="-3.89724">
        <ele>907.4</ele>
        <time>2021-11-16 12:07:51</time>
      </trkpt>
      <trkpt lat="40.71515" lon="-3.89701">
        <ele>907.4</ele>
        <time>2021-11-16 12:07:52</time>
      </trkpt>
      <trkpt lat="40.71516" lon="-3.8969">
        <ele>907.6</ele>
        <time>2021-11-16 12:07:53</time>
      </trkpt>
      <trkpt lat="40.71516" lon="-3.89679">
        <ele>907.6</ele>
        <time>2021-11-16 12:07:54</time>
      </trkpt>
      <trkpt lat="40.71517" lon="-3.89667">
        <ele>907.4</ele>
        <time>2021-11-16 12:07:55</time>
      </trkpt>
      <trkpt lat="40.71517" lon="-3.89656">
        <ele>907.4</ele>
        <time>2021-11-16 12:07:56</time>
      </trkpt>
      <trkpt lat="40.71518" lon="-3.89645">
        <ele>907.4</ele>
        <time>2021-11-16 12:07:57</time>
      </trkpt>
      <trkpt lat="40.71518" lon="-3.89633">
        <ele>907.2</ele>
        <time>2021-11-16 12:07:58</time>
      </trkpt>
      <trkpt lat="40.71519" lon="-3.89622">
        <ele>907</ele>
        <time>2021-11-16 12:07:59</time>
      </trkpt>
      <trkpt lat="40.7152" lon="-3.89611">
        <ele>907</ele>
        <time>2021-11-16 12:08:00</time>
      </trkpt>
      <trkpt lat="40.7152" lon="-3.89599">
        <ele>907</ele>
        <time>2021-11-16 12:08:01</time>
      </trkpt>
      <trkpt lat="40.71521" lon="-3.89588">
        <ele>907</ele>
        <time>2021-11-16 12:08:02</time>
      </trkpt>
      <trkpt lat="40.71521" lon="-3.89577">
        <ele>907.2</ele>
        <time>2021-11-16 12:08:03</time>
      </trkpt>
      <trkpt lat="40.71522" lon="-3.89566">
        <ele>907.2</ele>
        <time>2021-11-16 12:08:04</time>
      </trkpt>
      <trkpt lat="40.71522" lon="-3.89555">
        <ele>907.2</ele>
        <time>2021-11-16 12:08:05</time>
      </trkpt>
      <trkpt lat="40.71523" lon="-3.89544">
        <ele>907.4</ele>
        <time>2021-11-16 12:08:06</time>
      </trkpt>
      <trkpt lat="40.71524" lon="-3.89533">
        <ele>907.2</ele>
        <time>2021-11-16 12:08:07</time>
      </trkpt>
      <trkpt lat="40.71524" lon="-3.89522">
        <ele>907.4</ele>
        <time>2021-11-16 12:08:08</time>
      </trkpt>
      <trkpt lat="40.71525" lon="-3.89511">
        <ele>907.4</ele>
        <time>2021-11-16 12:08:09</time>
      </trkpt>
      <trkpt lat="40.71525" lon="-3.895">
        <ele>907.4</ele>
        <time>2021-11-16 12:08:10</time>
      </trkpt>
      <trkpt lat="40.71526" lon="-3.89489">
        <ele>907.4</ele>
        <time>2021-11-16 12:08:11</time>
      </trkpt>
      <trkpt lat="40.71526" lon="-3.89479">
        <ele>907.2</ele>
        <time>2021-11-16 12:08:12</time>
      </trkpt>
      <trkpt lat="40.71527" lon="-3.89468">
        <ele>907.2</ele>
        <time>2021-11-16 12:08:13</time>
      </trkpt>
      <trkpt lat="40.71528" lon="-3.89457">
        <ele>907.2</ele>
        <time>2021-11-16 12:08:14</time>
      </trkpt>
      <trkpt lat="40.71528" lon="-3.89446">
        <ele>907.2</ele>
        <time>2021-11-16 12:08:15</time>
      </trkpt>
      <trkpt lat="40.71529" lon="-3.89435">
        <ele>907.2</ele>
        <time>2021-11-16 12:08:16</time>
      </trkpt>
      <trkpt lat="40.71529" lon="-3.89424">
        <ele>907.2</ele>
        <time>2021-11-16 12:08:17</time>
      </trkpt>
      <trkpt lat="40.7153" lon="-3.89414">
        <ele>907.2</ele>
        <time>2021-11-16 12:08:18</time>
      </trkpt>
      <trkpt lat="40.7153" lon="-3.89403">
        <ele>907.4</ele>
        <time>2021-11-16 12:08:19</time>
      </trkpt>
      <trkpt lat="40.71531" lon="-3.89392">
        <ele>907.2</ele>
        <time>2021-11-16 12:08:20</time>
      </trkpt>
      <trkpt lat="40.71532" lon="-3.89381">
        <ele>907.2</ele>
        <time>2021-11-16 12:08:21</time>
      </trkpt>
      <trkpt lat="40.71532" lon="-3.8937">
        <ele>907.2</ele>
        <time>2021-11-16 12:08:22</time>
      </trkpt>
      <trkpt lat="40.71533" lon="-3.89359">
        <ele>907.2</ele>
        <time>2021-11-16 12:08:23</time>
      </trkpt>
      <trkpt lat="40.71533" lon="-3.89347">
        <ele>907</ele>
        <time>2021-11-16 12:08:24</time>
      </trkpt>
      <trkpt lat="40.71534" lon="-3.89337">
        <ele>907</ele>
        <time>2021-11-16 12:08:25</time>
      </trkpt>
      <trkpt lat="40.71534" lon="-3.89326">
        <ele>906.8</ele>
        <time>2021-11-16 12:08:26</time>
      </trkpt>
      <trkpt lat="40.71535" lon="-3.89315">
        <ele>906.8</ele>
        <time>2021-11-16 12:08:27</time>
      </trkpt>
      <trkpt lat="40.71535" lon="-3.89304">
        <ele>906.8</ele>
        <time>2021-11-16 12:08:28</time>
      </trkpt>
      <trkpt lat="40.71536" lon="-3.89293">
        <ele>906.6</ele>
        <time>2021-11-16 12:08:29</time>
      </trkpt>
      <trkpt lat="40.71536" lon="-3.89282">
        <ele>906.6</ele>
        <time>2021-11-16 12:08:30</time>
      </trkpt>
      <trkpt lat="40.71537" lon="-3.89272">
        <ele>906.6</ele>
        <time>2021-11-16 12:08:31</time>
      </trkpt>
      <trkpt lat="40.71538" lon="-3.89261">
        <ele>906.4</ele>
        <time>2021-11-16 12:08:32</time>
      </trkpt>
      <trkpt lat="40.7154" lon="-3.89251">
        <ele>906.4</ele>
        <time>2021-11-16 12:08:33</time>
      </trkpt>
      <trkpt lat="40.71541" lon="-3.8924">
        <ele>906.4</ele>
        <time>2021-11-16 12:08:34</time>
      </trkpt>
      <trkpt lat="40.71543" lon="-3.89229">
        <ele>906.6</ele>
        <time>2021-11-16 12:08:35</time>
      </trkpt>
      <trkpt lat="40.71545" lon="-3.89219">
        <ele>906.4</ele>
        <time>2021-11-16 12:08:36</time>
      </trkpt>
      <trkpt lat="40.71547" lon="-3.89209">
        <ele>906.4</ele>
        <time>2021-11-16 12:08:37</time>
      </trkpt>
      <trkpt lat="40.71549" lon="-3.89199">
        <ele>906.4</ele>
        <time>2021-11-16 12:08:38</time>
      </trkpt>
      <trkpt lat="40.71552" lon="-3.89189">
        <ele>906.2</ele>
        <time>2021-11-16 12:08:39</time>
      </trkpt>
      <trkpt lat="40.71555" lon="-3.89179">
        <ele>906.2</ele>
        <time>2021-11-16 12:08:40</time>
      </trkpt>
      <trkpt lat="40.71558" lon="-3.89169">
        <ele>906.2</ele>
        <time>2021-11-16 12:08:41</time>
      </trkpt>
      <trkpt lat="40.71561" lon="-3.89159">
        <ele>906</ele>
        <time>2021-11-16 12:08:42</time>
      </trkpt>
      <trkpt lat="40.71565" lon="-3.89149">
        <ele>906</ele>
        <time>2021-11-16 12:08:43</time>
      </trkpt>
      <trkpt lat="40.71568" lon="-3.8914">
        <ele>906</ele>
        <time>2021-11-16 12:08:44</time>
      </trkpt>
      <trkpt lat="40.71572" lon="-3.8913">
        <ele>906</ele>
        <time>2021-11-16 12:08:45</time>
      </trkpt>
      <trkpt lat="40.71575" lon="-3.89121">
        <ele>905.8</ele>
        <time>2021-11-16 12:08:46</time>
      </trkpt>
      <trkpt lat="40.71579" lon="-3.89111">
        <ele>906</ele>
        <time>2021-11-16 12:08:47</time>
      </trkpt>
      <trkpt lat="40.71583" lon="-3.89102">
        <ele>906</ele>
        <time>2021-11-16 12:08:48</time>
      </trkpt>
      <trkpt lat="40.71586" lon="-3.89092">
        <ele>906</ele>
        <time>2021-11-16 12:08:49</time>
      </trkpt>
      <trkpt lat="40.7159" lon="-3.89083">
        <ele>906</ele>
        <time>2021-11-16 12:08:50</time>
      </trkpt>
      <trkpt lat="40.71594" lon="-3.89073">
        <ele>905.8</ele>
        <time>2021-11-16 12:08:51</time>
      </trkpt>
      <trkpt lat="40.71598" lon="-3.89063">
        <ele>905.8</ele>
        <time>2021-11-16 12:08:52</time>
      </trkpt>
      <trkpt lat="40.71602" lon="-3.89054">
        <ele>905.8</ele>
        <time>2021-11-16 12:08:53</time>
      </trkpt>
      <trkpt lat="40.71606" lon="-3.89044">
        <ele>905.8</ele>
        <time>2021-11-16 12:08:54</time>
      </trkpt>
      <trkpt lat="40.71609" lon="-3.89035">
        <ele>905.8</ele>
        <time>2021-11-16 12:08:55</time>
      </trkpt>
      <trkpt lat="40.71613" lon="-3.89025">
        <ele>905.8</ele>
        <time>2021-11-16 12:08:56</time>
      </trkpt>
      <trkpt lat="40.71613" lon="-3.89025">
        <ele>905.8</ele>
        <time>2021-11-16 12:08:57</time>
      </trkpt>
      <trkpt lat="40.71621" lon="-3.89006">
        <ele>905.8</ele>
        <time>2021-11-16 12:08:58</time>
      </trkpt>
      <trkpt lat="40.71625" lon="-3.88997">
        <ele>905.8</ele>
        <time>2021-11-16 12:08:59</time>
      </trkpt>
      <trkpt lat="40.71628" lon="-3.88987">
        <ele>905.8</ele>
        <time>2021-11-16 12:09:00</time>
      </trkpt>
      <trkpt lat="40.71632" lon="-3.88978">
        <ele>905.6</ele>
        <time>2021-11-16 12:09:01</time>
      </trkpt>
      <trkpt lat="40.71636" lon="-3.88968">
        <ele>905.6</ele>
        <time>2021-11-16 12:09:02</time>
      </trkpt>
      <trkpt lat="40.7164" lon="-3.88959">
        <ele>905.4</ele>
        <time>2021-11-16 12:09:03</time>
      </trkpt>
      <trkpt lat="40.71644" lon="-3.8895">
        <ele>905.6</ele>
        <time>2021-11-16 12:09:04</time>
      </trkpt>
      <trkpt lat="40.71647" lon="-3.8894">
        <ele>905.4</ele>
        <time>2021-11-16 12:09:05</time>
      </trkpt>
      <trkpt lat="40.71651" lon="-3.88931">
        <ele>905.6</ele>
        <time>2021-11-16 12:09:06</time>
      </trkpt>
      <trkpt lat="40.71655" lon="-3.88921">
        <ele>905.6</ele>
        <time>2021-11-16 12:09:07</time>
      </trkpt>
      <trkpt lat="40.71659" lon="-3.88912">
        <ele>905.6</ele>
        <time>2021-11-16 12:09:08</time>
      </trkpt>
      <trkpt lat="40.71659" lon="-3.88912">
        <ele>905.6</ele>
        <time>2021-11-16 12:09:09</time>
      </trkpt>
      <trkpt lat="40.71666" lon="-3.88893">
        <ele>905.6</ele>
        <time>2021-11-16 12:09:10</time>
      </trkpt>
      <trkpt lat="40.71666" lon="-3.88893">
        <ele>905.6</ele>
        <time>2021-11-16 12:09:11</time>
      </trkpt>
      <trkpt lat="40.71674" lon="-3.88875">
        <ele>905.4</ele>
        <time>2021-11-16 12:09:12</time>
      </trkpt>
      <trkpt lat="40.71677" lon="-3.88866">
        <ele>905.6</ele>
        <time>2021-11-16 12:09:13</time>
      </trkpt>
      <trkpt lat="40.71677" lon="-3.88866">
        <ele>905.6</ele>
        <time>2021-11-16 12:09:14</time>
      </trkpt>
      <trkpt lat="40.71685" lon="-3.88847">
        <ele>905.4</ele>
        <time>2021-11-16 12:09:15</time>
      </trkpt>
      <trkpt lat="40.71688" lon="-3.88838">
        <ele>905.4</ele>
        <time>2021-11-16 12:09:16</time>
      </trkpt>
      <trkpt lat="40.71692" lon="-3.88829">
        <ele>905.6</ele>
        <time>2021-11-16 12:09:17</time>
      </trkpt>
      <trkpt lat="40.71696" lon="-3.8882">
        <ele>905.6</ele>
        <time>2021-11-16 12:09:18</time>
      </trkpt>
      <trkpt lat="40.71696" lon="-3.8882">
        <ele>905.6</ele>
        <time>2021-11-16 12:09:19</time>
      </trkpt>
      <trkpt lat="40.71704" lon="-3.88802">
        <ele>905.6</ele>
        <time>2021-11-16 12:09:20</time>
      </trkpt>
      <trkpt lat="40.71708" lon="-3.88793">
        <ele>905.8</ele>
        <time>2021-11-16 12:09:21</time>
      </trkpt>
      <trkpt lat="40.71712" lon="-3.88785">
        <ele>906</ele>
        <time>2021-11-16 12:09:22</time>
      </trkpt>
      <trkpt lat="40.71716" lon="-3.88776">
        <ele>906</ele>
        <time>2021-11-16 12:09:23</time>
      </trkpt>
      <trkpt lat="40.7172" lon="-3.88767">
        <ele>906</ele>
        <time>2021-11-16 12:09:24</time>
      </trkpt>
      <trkpt lat="40.71724" lon="-3.88759">
        <ele>906</ele>
        <time>2021-11-16 12:09:25</time>
      </trkpt>
      <trkpt lat="40.71729" lon="-3.8875">
        <ele>906</ele>
        <time>2021-11-16 12:09:26</time>
      </trkpt>
      <trkpt lat="40.71733" lon="-3.88742">
        <ele>906</ele>
        <time>2021-11-16 12:09:27</time>
      </trkpt>
      <trkpt lat="40.71737" lon="-3.88733">
        <ele>905.8</ele>
        <time>2021-11-16 12:09:28</time>
      </trkpt>
      <trkpt lat="40.71741" lon="-3.88725">
        <ele>905.8</ele>
        <time>2021-11-16 12:09:29</time>
      </trkpt>
      <trkpt lat="40.71741" lon="-3.88725">
        <ele>905.6</ele>
        <time>2021-11-16 12:09:30</time>
      </trkpt>
      <trkpt lat="40.71749" lon="-3.88708">
        <ele>905.8</ele>
        <time>2021-11-16 12:09:31</time>
      </trkpt>
      <trkpt lat="40.71749" lon="-3.88708">
        <ele>905.8</ele>
        <time>2021-11-16 12:09:32</time>
      </trkpt>
      <trkpt lat="40.71757" lon="-3.88692">
        <ele>906</ele>
        <time>2021-11-16 12:09:33</time>
      </trkpt>
      <trkpt lat="40.71761" lon="-3.88683">
        <ele>906</ele>
        <time>2021-11-16 12:09:34</time>
      </trkpt>
      <trkpt lat="40.71765" lon="-3.88675">
        <ele>906</ele>
        <time>2021-11-16 12:09:35</time>
      </trkpt>
      <trkpt lat="40.71769" lon="-3.88667">
        <ele>906</ele>
        <time>2021-11-16 12:09:36</time>
      </trkpt>
      <trkpt lat="40.71774" lon="-3.88659">
        <ele>906</ele>
        <time>2021-11-16 12:09:37</time>
      </trkpt>
      <trkpt lat="40.71774" lon="-3.88659">
        <ele>906</ele>
        <time>2021-11-16 12:09:38</time>
      </trkpt>
      <trkpt lat="40.71782" lon="-3.88643">
        <ele>906</ele>
        <time>2021-11-16 12:09:39</time>
      </trkpt>
      <trkpt lat="40.71786" lon="-3.88635">
        <ele>906</ele>
        <time>2021-11-16 12:09:40</time>
      </trkpt>
      <trkpt lat="40.71786" lon="-3.88635">
        <ele>906</ele>
        <time>2021-11-16 12:09:41</time>
      </trkpt>
      <trkpt lat="40.71794" lon="-3.88618">
        <ele>906</ele>
        <time>2021-11-16 12:09:42</time>
      </trkpt>
      <trkpt lat="40.71798" lon="-3.8861">
        <ele>906</ele>
        <time>2021-11-16 12:09:43</time>
      </trkpt>
      <trkpt lat="40.71802" lon="-3.88602">
        <ele>906</ele>
        <time>2021-11-16 12:09:44</time>
      </trkpt>
      <trkpt lat="40.71806" lon="-3.88594">
        <ele>906</ele>
        <time>2021-11-16 12:09:45</time>
      </trkpt>
      <trkpt lat="40.7181" lon="-3.88585">
        <ele>906</ele>
        <time>2021-11-16 12:09:46</time>
      </trkpt>
      <trkpt lat="40.71814" lon="-3.88577">
        <ele>906</ele>
        <time>2021-11-16 12:09:47</time>
      </trkpt>
      <trkpt lat="40.71818" lon="-3.88569">
        <ele>906</ele>
        <time>2021-11-16 12:09:48</time>
      </trkpt>
      <trkpt lat="40.71823" lon="-3.8856">
        <ele>906.2</ele>
        <time>2021-11-16 12:09:49</time>
      </trkpt>
      <trkpt lat="40.71823" lon="-3.8856">
        <ele>906</ele>
        <time>2021-11-16 12:09:50</time>
      </trkpt>
      <trkpt lat="40.71831" lon="-3.88543">
        <ele>906</ele>
        <time>2021-11-16 12:09:51</time>
      </trkpt>
      <trkpt lat="40.71831" lon="-3.88543">
        <ele>906</ele>
        <time>2021-11-16 12:09:52</time>
      </trkpt>
      <trkpt lat="40.71839" lon="-3.88526">
        <ele>905.8</ele>
        <time>2021-11-16 12:09:53</time>
      </trkpt>
      <trkpt lat="40.71843" lon="-3.88518">
        <ele>905.6</ele>
        <time>2021-11-16 12:09:54</time>
      </trkpt>
      <trkpt lat="40.71847" lon="-3.8851">
        <ele>905.6</ele>
        <time>2021-11-16 12:09:55</time>
      </trkpt>
      <trkpt lat="40.71847" lon="-3.8851">
        <ele>905.6</ele>
        <time>2021-11-16 12:09:56</time>
      </trkpt>
      <trkpt lat="40.71856" lon="-3.88493">
        <ele>905.6</ele>
        <time>2021-11-16 12:09:57</time>
      </trkpt>
      <trkpt lat="40.7186" lon="-3.88485">
        <ele>905.4</ele>
        <time>2021-11-16 12:09:58</time>
      </trkpt>
      <trkpt lat="40.71864" lon="-3.88476">
        <ele>905.4</ele>
        <time>2021-11-16 12:09:59</time>
      </trkpt>
      <trkpt lat="40.71868" lon="-3.88468">
        <ele>905.2</ele>
        <time>2021-11-16 12:10:00</time>
      </trkpt>
      <trkpt lat="40.71872" lon="-3.8846">
        <ele>905.2</ele>
        <time>2021-11-16 12:10:01</time>
      </trkpt>
      <trkpt lat="40.71876" lon="-3.88451">
        <ele>905</ele>
        <time>2021-11-16 12:10:02</time>
      </trkpt>
      <trkpt lat="40.7188" lon="-3.88443">
        <ele>905</ele>
        <time>2021-11-16 12:10:03</time>
      </trkpt>
      <trkpt lat="40.71884" lon="-3.88435">
        <ele>904.8</ele>
        <time>2021-11-16 12:10:04</time>
      </trkpt>
      <trkpt lat="40.71888" lon="-3.88427">
        <ele>904.8</ele>
        <time>2021-11-16 12:10:05</time>
      </trkpt>
      <trkpt lat="40.71892" lon="-3.88419">
        <ele>904.6</ele>
        <time>2021-11-16 12:10:06</time>
      </trkpt>
      <trkpt lat="40.71896" lon="-3.88411">
        <ele>904.8</ele>
        <time>2021-11-16 12:10:07</time>
      </trkpt>
      <trkpt lat="40.719" lon="-3.88403">
        <ele>904.6</ele>
        <time>2021-11-16 12:10:08</time>
      </trkpt>
      <trkpt lat="40.71904" lon="-3.88395">
        <ele>904.6</ele>
        <time>2021-11-16 12:10:09</time>
      </trkpt>
      <trkpt lat="40.71908" lon="-3.88388">
        <ele>904.8</ele>
        <time>2021-11-16 12:10:10</time>
      </trkpt>
      <trkpt lat="40.71911" lon="-3.8838">
        <ele>904.6</ele>
        <time>2021-11-16 12:10:11</time>
      </trkpt>
      <trkpt lat="40.71915" lon="-3.88373">
        <ele>904.6</ele>
        <time>2021-11-16 12:10:12</time>
      </trkpt>
      <trkpt lat="40.71918" lon="-3.88366">
        <ele>904.8</ele>
        <time>2021-11-16 12:10:13</time>
      </trkpt>
      <trkpt lat="40.71922" lon="-3.88359">
        <ele>904.8</ele>
        <time>2021-11-16 12:10:14</time>
      </trkpt>
      <trkpt lat="40.71925" lon="-3.88352">
        <ele>904.8</ele>
        <time>2021-11-16 12:10:15</time>
      </trkpt>
      <trkpt lat="40.71928" lon="-3.88346">
        <ele>905.2</ele>
        <time>2021-11-16 12:10:16</time>
      </trkpt>
      <trkpt lat="40.71932" lon="-3.88339">
        <ele>905.2</ele>
        <time>2021-11-16 12:10:17</time>
      </trkpt>
      <trkpt lat="40.71935" lon="-3.88332">
        <ele>905.4</ele>
        <time>2021-11-16 12:10:18</time>
      </trkpt>
      <trkpt lat="40.71935" lon="-3.88332">
        <ele>905.8</ele>
        <time>2021-11-16 12:10:19</time>
      </trkpt>
      <trkpt lat="40.71942" lon="-3.88319">
        <ele>906</ele>
        <time>2021-11-16 12:10:20</time>
      </trkpt>
      <trkpt lat="40.71945" lon="-3.88312">
        <ele>906.4</ele>
        <time>2021-11-16 12:10:21</time>
      </trkpt>
      <trkpt lat="40.71948" lon="-3.88306">
        <ele>906.4</ele>
        <time>2021-11-16 12:10:22</time>
      </trkpt>
      <trkpt lat="40.71951" lon="-3.88299">
        <ele>907</ele>
        <time>2021-11-16 12:10:23</time>
      </trkpt>
      <trkpt lat="40.71955" lon="-3.88293">
        <ele>907</ele>
        <time>2021-11-16 12:10:24</time>
      </trkpt>
      <trkpt lat="40.71955" lon="-3.88293">
        <ele>907.2</ele>
        <time>2021-11-16 12:10:25</time>
      </trkpt>
      <trkpt lat="40.71961" lon="-3.8828">
        <ele>907.2</ele>
        <time>2021-11-16 12:10:26</time>
      </trkpt>
      <trkpt lat="40.71964" lon="-3.88273">
        <ele>907.2</ele>
        <time>2021-11-16 12:10:27</time>
      </trkpt>
      <trkpt lat="40.71967" lon="-3.88267">
        <ele>907.4</ele>
        <time>2021-11-16 12:10:28</time>
      </trkpt>
      <trkpt lat="40.71971" lon="-3.8826">
        <ele>907.4</ele>
        <time>2021-11-16 12:10:29</time>
      </trkpt>
      <trkpt lat="40.71973" lon="-3.88254">
        <ele>907.4</ele>
        <time>2021-11-16 12:10:30</time>
      </trkpt>
      <trkpt lat="40.71973" lon="-3.88254">
        <ele>907.6</ele>
        <time>2021-11-16 12:10:31</time>
      </trkpt>
      <trkpt lat="40.71977" lon="-3.88247">
        <ele>908</ele>
        <time>2021-11-16 12:10:32</time>
      </trkpt>
      <trkpt lat="40.71983" lon="-3.88234">
        <ele>908.2</ele>
        <time>2021-11-16 12:10:33</time>
      </trkpt>
      <trkpt lat="40.71987" lon="-3.88228">
        <ele>908.2</ele>
        <time>2021-11-16 12:10:34</time>
      </trkpt>
      <trkpt lat="40.71987" lon="-3.88228">
        <ele>908.2</ele>
        <time>2021-11-16 12:10:35</time>
      </trkpt>
      <trkpt lat="40.7199" lon="-3.88221">
        <ele>908.4</ele>
        <time>2021-11-16 12:10:36</time>
      </trkpt>
      <trkpt lat="40.71996" lon="-3.88207">
        <ele>908.6</ele>
        <time>2021-11-16 12:10:37</time>
      </trkpt>
      <trkpt lat="40.71996" lon="-3.88207">
        <ele>908.8</ele>
        <time>2021-11-16 12:10:38</time>
      </trkpt>
      <trkpt lat="40.72003" lon="-3.88194">
        <ele>908.8</ele>
        <time>2021-11-16 12:10:39</time>
      </trkpt>
      <trkpt lat="40.72003" lon="-3.88194">
        <ele>908.8</ele>
        <time>2021-11-16 12:10:40</time>
      </trkpt>
      <trkpt lat="40.7201" lon="-3.8818">
        <ele>909</ele>
        <time>2021-11-16 12:10:41</time>
      </trkpt>
      <trkpt lat="40.72013" lon="-3.88173">
        <ele>908.8</ele>
        <time>2021-11-16 12:10:42</time>
      </trkpt>
      <trkpt lat="40.72017" lon="-3.88166">
        <ele>908.8</ele>
        <time>2021-11-16 12:10:43</time>
      </trkpt>
      <trkpt lat="40.7202" lon="-3.88159">
        <ele>909</ele>
        <time>2021-11-16 12:10:44</time>
      </trkpt>
      <trkpt lat="40.72024" lon="-3.88152">
        <ele>909.2</ele>
        <time>2021-11-16 12:10:45</time>
      </trkpt>
      <trkpt lat="40.72027" lon="-3.88145">
        <ele>909</ele>
        <time>2021-11-16 12:10:46</time>
      </trkpt>
      <trkpt lat="40.72027" lon="-3.88145">
        <ele>909</ele>
        <time>2021-11-16 12:10:47</time>
      </trkpt>
      <trkpt lat="40.72034" lon="-3.8813">
        <ele>909</ele>
        <time>2021-11-16 12:10:48</time>
      </trkpt>
      <trkpt lat="40.72038" lon="-3.88123">
        <ele>909</ele>
        <time>2021-11-16 12:10:49</time>
      </trkpt>
      <trkpt lat="40.72041" lon="-3.88116">
        <ele>909</ele>
        <time>2021-11-16 12:10:50</time>
      </trkpt>
      <trkpt lat="40.72045" lon="-3.88109">
        <ele>909</ele>
        <time>2021-11-16 12:10:51</time>
      </trkpt>
      <trkpt lat="40.72048" lon="-3.88102">
        <ele>908.8</ele>
        <time>2021-11-16 12:10:52</time>
      </trkpt>
      <trkpt lat="40.72052" lon="-3.88094">
        <ele>908.8</ele>
        <time>2021-11-16 12:10:53</time>
      </trkpt>
      <trkpt lat="40.72055" lon="-3.88087">
        <ele>908.8</ele>
        <time>2021-11-16 12:10:54</time>
      </trkpt>
      <trkpt lat="40.72059" lon="-3.8808">
        <ele>908.8</ele>
        <time>2021-11-16 12:10:55</time>
      </trkpt>
      <trkpt lat="40.72062" lon="-3.88072">
        <ele>908.6</ele>
        <time>2021-11-16 12:10:56</time>
      </trkpt>
      <trkpt lat="40.72066" lon="-3.88065">
        <ele>908.6</ele>
        <time>2021-11-16 12:10:57</time>
      </trkpt>
      <trkpt lat="40.7207" lon="-3.88057">
        <ele>908.6</ele>
        <time>2021-11-16 12:10:58</time>
      </trkpt>
      <trkpt lat="40.72074" lon="-3.8805">
        <ele>908.6</ele>
        <time>2021-11-16 12:10:59</time>
      </trkpt>
      <trkpt lat="40.72077" lon="-3.88043">
        <ele>908.6</ele>
        <time>2021-11-16 12:11:00</time>
      </trkpt>
      <trkpt lat="40.72081" lon="-3.88035">
        <ele>908.4</ele>
        <time>2021-11-16 12:11:01</time>
      </trkpt>
      <trkpt lat="40.72086" lon="-3.88028">
        <ele>908.4</ele>
        <time>2021-11-16 12:11:02</time>
      </trkpt>
      <trkpt lat="40.7209" lon="-3.88021">
        <ele>908.4</ele>
        <time>2021-11-16 12:11:03</time>
      </trkpt>
      <trkpt lat="40.72094" lon="-3.88014">
        <ele>908.4</ele>
        <time>2021-11-16 12:11:04</time>
      </trkpt>
      <trkpt lat="40.72099" lon="-3.88007">
        <ele>908.4</ele>
        <time>2021-11-16 12:11:05</time>
      </trkpt>
      <trkpt lat="40.72103" lon="-3.88">
        <ele>908.2</ele>
        <time>2021-11-16 12:11:06</time>
      </trkpt>
      <trkpt lat="40.72108" lon="-3.87994">
        <ele>908.2</ele>
        <time>2021-11-16 12:11:07</time>
      </trkpt>
      <trkpt lat="40.72113" lon="-3.87987">
        <ele>908.2</ele>
        <time>2021-11-16 12:11:08</time>
      </trkpt>
      <trkpt lat="40.72118" lon="-3.87981">
        <ele>908.2</ele>
        <time>2021-11-16 12:11:09</time>
      </trkpt>
      <trkpt lat="40.72124" lon="-3.87975">
        <ele>908.2</ele>
        <time>2021-11-16 12:11:10</time>
      </trkpt>
      <trkpt lat="40.72129" lon="-3.87969">
        <ele>908.2</ele>
        <time>2021-11-16 12:11:11</time>
      </trkpt>
      <trkpt lat="40.72135" lon="-3.87963">
        <ele>908</ele>
        <time>2021-11-16 12:11:12</time>
      </trkpt>
      <trkpt lat="40.72141" lon="-3.87957">
        <ele>908</ele>
        <time>2021-11-16 12:11:13</time>
      </trkpt>
      <trkpt lat="40.72147" lon="-3.87951">
        <ele>908</ele>
        <time>2021-11-16 12:11:14</time>
      </trkpt>
      <trkpt lat="40.72154" lon="-3.87945">
        <ele>907.8</ele>
        <time>2021-11-16 12:11:15</time>
      </trkpt>
      <trkpt lat="40.7216" lon="-3.87939">
        <ele>907.8</ele>
        <time>2021-11-16 12:11:16</time>
      </trkpt>
      <trkpt lat="40.72167" lon="-3.87933">
        <ele>907.4</ele>
        <time>2021-11-16 12:11:17</time>
      </trkpt>
      <trkpt lat="40.72173" lon="-3.87928">
        <ele>907.4</ele>
        <time>2021-11-16 12:11:18</time>
      </trkpt>
      <trkpt lat="40.7218" lon="-3.87922">
        <ele>907.4</ele>
        <time>2021-11-16 12:11:19</time>
      </trkpt>
      <trkpt lat="40.72187" lon="-3.87917">
        <ele>907.2</ele>
        <time>2021-11-16 12:11:20</time>
      </trkpt>
      <trkpt lat="40.72193" lon="-3.87911">
        <ele>906.8</ele>
        <time>2021-11-16 12:11:21</time>
      </trkpt>
      <trkpt lat="40.722" lon="-3.87905">
        <ele>906.4</ele>
        <time>2021-11-16 12:11:22</time>
      </trkpt>
      <trkpt lat="40.72207" lon="-3.87899">
        <ele>906.2</ele>
        <time>2021-11-16 12:11:23</time>
      </trkpt>
      <trkpt lat="40.72213" lon="-3.87894">
        <ele>905.8</ele>
        <time>2021-11-16 12:11:24</time>
      </trkpt>
      <trkpt lat="40.7222" lon="-3.87888">
        <ele>905.4</ele>
        <time>2021-11-16 12:11:25</time>
      </trkpt>
      <trkpt lat="40.72227" lon="-3.87883">
        <ele>905.2</ele>
        <time>2021-11-16 12:11:26</time>
      </trkpt>
      <trkpt lat="40.72233" lon="-3.87877">
        <ele>904.8</ele>
        <time>2021-11-16 12:11:27</time>
      </trkpt>
      <trkpt lat="40.7224" lon="-3.87872">
        <ele>904.6</ele>
        <time>2021-11-16 12:11:28</time>
      </trkpt>
      <trkpt lat="40.72246" lon="-3.87866">
        <ele>904.2</ele>
        <time>2021-11-16 12:11:29</time>
      </trkpt>
      <trkpt lat="40.72253" lon="-3.87861">
        <ele>904.2</ele>
        <time>2021-11-16 12:11:30</time>
      </trkpt>
      <trkpt lat="40.72259" lon="-3.87856">
        <ele>904.2</ele>
        <time>2021-11-16 12:11:31</time>
      </trkpt>
      <trkpt lat="40.72265" lon="-3.8785">
        <ele>903.8</ele>
        <time>2021-11-16 12:11:32</time>
      </trkpt>
      <trkpt lat="40.72271" lon="-3.87845">
        <ele>903.8</ele>
        <time>2021-11-16 12:11:33</time>
      </trkpt>
      <trkpt lat="40.72278" lon="-3.8784">
        <ele>903.8</ele>
        <time>2021-11-16 12:11:34</time>
      </trkpt>
      <trkpt lat="40.72284" lon="-3.87834">
        <ele>903.6</ele>
        <time>2021-11-16 12:11:35</time>
      </trkpt>
      <trkpt lat="40.7229" lon="-3.87829">
        <ele>903.8</ele>
        <time>2021-11-16 12:11:36</time>
      </trkpt>
      <trkpt lat="40.72296" lon="-3.87824">
        <ele>903.6</ele>
        <time>2021-11-16 12:11:37</time>
      </trkpt>
      <trkpt lat="40.72302" lon="-3.87818">
        <ele>903.6</ele>
        <time>2021-11-16 12:11:38</time>
      </trkpt>
      <trkpt lat="40.72308" lon="-3.87812">
        <ele>903.6</ele>
        <time>2021-11-16 12:11:39</time>
      </trkpt>
      <trkpt lat="40.72314" lon="-3.87806">
        <ele>903.6</ele>
        <time>2021-11-16 12:11:40</time>
      </trkpt>
      <trkpt lat="40.7232" lon="-3.878">
        <ele>903.4</ele>
        <time>2021-11-16 12:11:41</time>
      </trkpt>
      <trkpt lat="40.72325" lon="-3.87794">
        <ele>903.6</ele>
        <time>2021-11-16 12:11:42</time>
      </trkpt>
      <trkpt lat="40.72331" lon="-3.87788">
        <ele>903.6</ele>
        <time>2021-11-16 12:11:43</time>
      </trkpt>
      <trkpt lat="40.72336" lon="-3.87781">
        <ele>903.4</ele>
        <time>2021-11-16 12:11:44</time>
      </trkpt>
      <trkpt lat="40.72341" lon="-3.87775">
        <ele>903.6</ele>
        <time>2021-11-16 12:11:45</time>
      </trkpt>
      <trkpt lat="40.72346" lon="-3.87768">
        <ele>903.4</ele>
        <time>2021-11-16 12:11:46</time>
      </trkpt>
      <trkpt lat="40.72351" lon="-3.8776">
        <ele>903.4</ele>
        <time>2021-11-16 12:11:47</time>
      </trkpt>
      <trkpt lat="40.72356" lon="-3.87753">
        <ele>903.4</ele>
        <time>2021-11-16 12:11:48</time>
      </trkpt>
      <trkpt lat="40.7236" lon="-3.87745">
        <ele>903.4</ele>
        <time>2021-11-16 12:11:49</time>
      </trkpt>
      <trkpt lat="40.72364" lon="-3.87738">
        <ele>903.4</ele>
        <time>2021-11-16 12:11:50</time>
      </trkpt>
      <trkpt lat="40.72368" lon="-3.8773">
        <ele>903.4</ele>
        <time>2021-11-16 12:11:51</time>
      </trkpt>
      <trkpt lat="40.72372" lon="-3.87722">
        <ele>903.4</ele>
        <time>2021-11-16 12:11:52</time>
      </trkpt>
      <trkpt lat="40.72372" lon="-3.87722">
        <ele>903.4</ele>
        <time>2021-11-16 12:11:53</time>
      </trkpt>
      <trkpt lat="40.72378" lon="-3.87706">
        <ele>903.4</ele>
        <time>2021-11-16 12:11:54</time>
      </trkpt>
      <trkpt lat="40.72381" lon="-3.87698">
        <ele>903.4</ele>
        <time>2021-11-16 12:11:55</time>
      </trkpt>
      <trkpt lat="40.72384" lon="-3.87691">
        <ele>903.6</ele>
        <time>2021-11-16 12:11:56</time>
      </trkpt>
      <trkpt lat="40.72386" lon="-3.87683">
        <ele>903.6</ele>
        <time>2021-11-16 12:11:57</time>
      </trkpt>
      <trkpt lat="40.72388" lon="-3.87676">
        <ele>903.6</ele>
        <time>2021-11-16 12:11:58</time>
      </trkpt>
      <trkpt lat="40.72391" lon="-3.87668">
        <ele>903.8</ele>
        <time>2021-11-16 12:11:59</time>
      </trkpt>
      <trkpt lat="40.72392" lon="-3.8766">
        <ele>903.8</ele>
        <time>2021-11-16 12:12:00</time>
      </trkpt>
      <trkpt lat="40.72394" lon="-3.87653">
        <ele>903.8</ele>
        <time>2021-11-16 12:12:01</time>
      </trkpt>
      <trkpt lat="40.72395" lon="-3.87645">
        <ele>904</ele>
        <time>2021-11-16 12:12:02</time>
      </trkpt>
      <trkpt lat="40.72396" lon="-3.87638">
        <ele>903.8</ele>
        <time>2021-11-16 12:12:03</time>
      </trkpt>
      <trkpt lat="40.72397" lon="-3.8763">
        <ele>904</ele>
        <time>2021-11-16 12:12:04</time>
      </trkpt>
      <trkpt lat="40.72398" lon="-3.87623">
        <ele>904.2</ele>
        <time>2021-11-16 12:12:05</time>
      </trkpt>
      <trkpt lat="40.72399" lon="-3.87615">
        <ele>904.6</ele>
        <time>2021-11-16 12:12:06</time>
      </trkpt>
      <trkpt lat="40.72399" lon="-3.87608">
        <ele>904.6</ele>
        <time>2021-11-16 12:12:07</time>
      </trkpt>
      <trkpt lat="40.724" lon="-3.876">
        <ele>905.4</ele>
        <time>2021-11-16 12:12:08</time>
      </trkpt>
      <trkpt lat="40.724" lon="-3.87593">
        <ele>905.8</ele>
        <time>2021-11-16 12:12:09</time>
      </trkpt>
      <trkpt lat="40.724" lon="-3.87586">
        <ele>905.8</ele>
        <time>2021-11-16 12:12:10</time>
      </trkpt>
      <trkpt lat="40.724" lon="-3.87579">
        <ele>905.8</ele>
        <time>2021-11-16 12:12:11</time>
      </trkpt>
      <trkpt lat="40.724" lon="-3.87571">
        <ele>906.2</ele>
        <time>2021-11-16 12:12:12</time>
      </trkpt>
      <trkpt lat="40.724" lon="-3.87564">
        <ele>906.4</ele>
        <time>2021-11-16 12:12:13</time>
      </trkpt>
      <trkpt lat="40.724" lon="-3.87557">
        <ele>906.8</ele>
        <time>2021-11-16 12:12:14</time>
      </trkpt>
      <trkpt lat="40.724" lon="-3.8755">
        <ele>907</ele>
        <time>2021-11-16 12:12:15</time>
      </trkpt>
      <trkpt lat="40.724" lon="-3.87543">
        <ele>907.2</ele>
        <time>2021-11-16 12:12:16</time>
      </trkpt>
      <trkpt lat="40.724" lon="-3.87535">
        <ele>907.4</ele>
        <time>2021-11-16 12:12:17</time>
      </trkpt>
      <trkpt lat="40.724" lon="-3.87528">
        <ele>907.4</ele>
        <time>2021-11-16 12:12:18</time>
      </trkpt>
      <trkpt lat="40.72399" lon="-3.87521">
        <ele>907.6</ele>
        <time>2021-11-16 12:12:19</time>
      </trkpt>
      <trkpt lat="40.72399" lon="-3.87514">
        <ele>908.2</ele>
        <time>2021-11-16 12:12:20</time>
      </trkpt>
      <trkpt lat="40.72399" lon="-3.87507">
        <ele>908.6</ele>
        <time>2021-11-16 12:12:21</time>
      </trkpt>
      <trkpt lat="40.72399" lon="-3.875">
        <ele>908.8</ele>
        <time>2021-11-16 12:12:22</time>
      </trkpt>
      <trkpt lat="40.72399" lon="-3.87494">
        <ele>909</ele>
        <time>2021-11-16 12:12:23</time>
      </trkpt>
      <trkpt lat="40.72399" lon="-3.87487">
        <ele>909.2</ele>
        <time>2021-11-16 12:12:24</time>
      </trkpt>
      <trkpt lat="40.72398" lon="-3.8748">
        <ele>909.4</ele>
        <time>2021-11-16 12:12:25</time>
      </trkpt>
      <trkpt lat="40.72398" lon="-3.87474">
        <ele>909.4</ele>
        <time>2021-11-16 12:12:26</time>
      </trkpt>
      <trkpt lat="40.72398" lon="-3.87467">
        <ele>909.4</ele>
        <time>2021-11-16 12:12:27</time>
      </trkpt>
      <trkpt lat="40.72398" lon="-3.8746">
        <ele>909.8</ele>
        <time>2021-11-16 12:12:28</time>
      </trkpt>
      <trkpt lat="40.72398" lon="-3.87453">
        <ele>909.8</ele>
        <time>2021-11-16 12:12:29</time>
      </trkpt>
      <trkpt lat="40.72398" lon="-3.87446">
        <ele>909.8</ele>
        <time>2021-11-16 12:12:30</time>
      </trkpt>
      <trkpt lat="40.72398" lon="-3.87439">
        <ele>910.2</ele>
        <time>2021-11-16 12:12:31</time>
      </trkpt>
      <trkpt lat="40.72398" lon="-3.87433">
        <ele>910.4</ele>
        <time>2021-11-16 12:12:32</time>
      </trkpt>
      <trkpt lat="40.72398" lon="-3.87426">
        <ele>910.6</ele>
        <time>2021-11-16 12:12:33</time>
      </trkpt>
      <trkpt lat="40.72398" lon="-3.87419">
        <ele>910.8</ele>
        <time>2021-11-16 12:12:34</time>
      </trkpt>
      <trkpt lat="40.72398" lon="-3.87412">
        <ele>911</ele>
        <time>2021-11-16 12:12:35</time>
      </trkpt>
      <trkpt lat="40.72398" lon="-3.87405">
        <ele>911.2</ele>
        <time>2021-11-16 12:12:36</time>
      </trkpt>
      <trkpt lat="40.72398" lon="-3.87398">
        <ele>911.4</ele>
        <time>2021-11-16 12:12:37</time>
      </trkpt>
      <trkpt lat="40.72398" lon="-3.87391">
        <ele>911.6</ele>
        <time>2021-11-16 12:12:38</time>
      </trkpt>
      <trkpt lat="40.72398" lon="-3.87384">
        <ele>911.8</ele>
        <time>2021-11-16 12:12:39</time>
      </trkpt>
      <trkpt lat="40.72398" lon="-3.87377">
        <ele>912</ele>
        <time>2021-11-16 12:12:40</time>
      </trkpt>
      <trkpt lat="40.72397" lon="-3.8737">
        <ele>912.2</ele>
        <time>2021-11-16 12:12:41</time>
      </trkpt>
      <trkpt lat="40.72397" lon="-3.87363">
        <ele>912.4</ele>
        <time>2021-11-16 12:12:42</time>
      </trkpt>
      <trkpt lat="40.72397" lon="-3.87356">
        <ele>912.8</ele>
        <time>2021-11-16 12:12:43</time>
      </trkpt>
      <trkpt lat="40.72397" lon="-3.87349">
        <ele>913</ele>
        <time>2021-11-16 12:12:44</time>
      </trkpt>
      <trkpt lat="40.72397" lon="-3.87342">
        <ele>913.2</ele>
        <time>2021-11-16 12:12:45</time>
      </trkpt>
      <trkpt lat="40.72397" lon="-3.87335">
        <ele>913.6</ele>
        <time>2021-11-16 12:12:46</time>
      </trkpt>
      <trkpt lat="40.72397" lon="-3.87328">
        <ele>913.6</ele>
        <time>2021-11-16 12:12:47</time>
      </trkpt>
      <trkpt lat="40.72397" lon="-3.87321">
        <ele>913.6</ele>
        <time>2021-11-16 12:12:48</time>
      </trkpt>
      <trkpt lat="40.72397" lon="-3.87314">
        <ele>913.8</ele>
        <time>2021-11-16 12:12:49</time>
      </trkpt>
      <trkpt lat="40.72397" lon="-3.87307">
        <ele>913.8</ele>
        <time>2021-11-16 12:12:50</time>
      </trkpt>
      <trkpt lat="40.72398" lon="-3.873">
        <ele>914</ele>
        <time>2021-11-16 12:12:51</time>
      </trkpt>
      <trkpt lat="40.72397" lon="-3.87292">
        <ele>914</ele>
        <time>2021-11-16 12:12:52</time>
      </trkpt>
      <trkpt lat="40.72397" lon="-3.87285">
        <ele>914.2</ele>
        <time>2021-11-16 12:12:53</time>
      </trkpt>
      <trkpt lat="40.72398" lon="-3.87278">
        <ele>914.6</ele>
        <time>2021-11-16 12:12:54</time>
      </trkpt>
      <trkpt lat="40.72398" lon="-3.87271">
        <ele>914.8</ele>
        <time>2021-11-16 12:12:55</time>
      </trkpt>
      <trkpt lat="40.72399" lon="-3.87263">
        <ele>914.8</ele>
        <time>2021-11-16 12:12:56</time>
      </trkpt>
      <trkpt lat="40.72399" lon="-3.87256">
        <ele>915</ele>
        <time>2021-11-16 12:12:57</time>
      </trkpt>
      <trkpt lat="40.724" lon="-3.87249">
        <ele>915.2</ele>
        <time>2021-11-16 12:12:58</time>
      </trkpt>
      <trkpt lat="40.72401" lon="-3.87241">
        <ele>915.4</ele>
        <time>2021-11-16 12:12:59</time>
      </trkpt>
      <trkpt lat="40.72402" lon="-3.87234">
        <ele>915.2</ele>
        <time>2021-11-16 12:13:00</time>
      </trkpt>
      <trkpt lat="40.72403" lon="-3.87227">
        <ele>915.4</ele>
        <time>2021-11-16 12:13:01</time>
      </trkpt>
      <trkpt lat="40.72405" lon="-3.8722">
        <ele>915.6</ele>
        <time>2021-11-16 12:13:02</time>
      </trkpt>
      <trkpt lat="40.72406" lon="-3.87213">
        <ele>915.6</ele>
        <time>2021-11-16 12:13:03</time>
      </trkpt>
      <trkpt lat="40.72408" lon="-3.87205">
        <ele>915.6</ele>
        <time>2021-11-16 12:13:04</time>
      </trkpt>
      <trkpt lat="40.7241" lon="-3.87198">
        <ele>915.8</ele>
        <time>2021-11-16 12:13:05</time>
      </trkpt>
      <trkpt lat="40.72412" lon="-3.8719">
        <ele>915.6</ele>
        <time>2021-11-16 12:13:06</time>
      </trkpt>
      <trkpt lat="40.72414" lon="-3.87183">
        <ele>915.6</ele>
        <time>2021-11-16 12:13:07</time>
      </trkpt>
      <trkpt lat="40.72416" lon="-3.87176">
        <ele>915.6</ele>
        <time>2021-11-16 12:13:08</time>
      </trkpt>
      <trkpt lat="40.72419" lon="-3.87168">
        <ele>915.6</ele>
        <time>2021-11-16 12:13:09</time>
      </trkpt>
      <trkpt lat="40.72421" lon="-3.8716">
        <ele>915.6</ele>
        <time>2021-11-16 12:13:10</time>
      </trkpt>
      <trkpt lat="40.72424" lon="-3.87153">
        <ele>915.6</ele>
        <time>2021-11-16 12:13:11</time>
      </trkpt>
      <trkpt lat="40.72427" lon="-3.87145">
        <ele>915.6</ele>
        <time>2021-11-16 12:13:12</time>
      </trkpt>
      <trkpt lat="40.7243" lon="-3.87138">
        <ele>915.6</ele>
        <time>2021-11-16 12:13:13</time>
      </trkpt>
      <trkpt lat="40.72432" lon="-3.8713">
        <ele>915.6</ele>
        <time>2021-11-16 12:13:14</time>
      </trkpt>
      <trkpt lat="40.72435" lon="-3.87122">
        <ele>915.4</ele>
        <time>2021-11-16 12:13:15</time>
      </trkpt>
      <trkpt lat="40.72435" lon="-3.87122">
        <ele>915.4</ele>
        <time>2021-11-16 12:13:16</time>
      </trkpt>
      <trkpt lat="40.72441" lon="-3.87107">
        <ele>915.4</ele>
        <time>2021-11-16 12:13:17</time>
      </trkpt>
      <trkpt lat="40.72444" lon="-3.87099">
        <ele>915.2</ele>
        <time>2021-11-16 12:13:18</time>
      </trkpt>
      <trkpt lat="40.72447" lon="-3.87091">
        <ele>915.4</ele>
        <time>2021-11-16 12:13:19</time>
      </trkpt>
      <trkpt lat="40.7245" lon="-3.87083">
        <ele>915.4</ele>
        <time>2021-11-16 12:13:20</time>
      </trkpt>
      <trkpt lat="40.72453" lon="-3.87075">
        <ele>915.2</ele>
        <time>2021-11-16 12:13:21</time>
      </trkpt>
      <trkpt lat="40.72456" lon="-3.87067">
        <ele>915.2</ele>
        <time>2021-11-16 12:13:22</time>
      </trkpt>
      <trkpt lat="40.72459" lon="-3.87059">
        <ele>915.2</ele>
        <time>2021-11-16 12:13:23</time>
      </trkpt>
      <trkpt lat="40.72462" lon="-3.87051">
        <ele>915</ele>
        <time>2021-11-16 12:13:24</time>
      </trkpt>
      <trkpt lat="40.72465" lon="-3.87043">
        <ele>915</ele>
        <time>2021-11-16 12:13:25</time>
      </trkpt>
      <trkpt lat="40.72468" lon="-3.87035">
        <ele>914.8</ele>
        <time>2021-11-16 12:13:26</time>
      </trkpt>
      <trkpt lat="40.72471" lon="-3.87026">
        <ele>915</ele>
        <time>2021-11-16 12:13:27</time>
      </trkpt>
      <trkpt lat="40.72473" lon="-3.87018">
        <ele>914.8</ele>
        <time>2021-11-16 12:13:28</time>
      </trkpt>
      <trkpt lat="40.72476" lon="-3.87009">
        <ele>914.8</ele>
        <time>2021-11-16 12:13:29</time>
      </trkpt>
      <trkpt lat="40.72479" lon="-3.87001">
        <ele>914.8</ele>
        <time>2021-11-16 12:13:30</time>
      </trkpt>
      <trkpt lat="40.72482" lon="-3.86992">
        <ele>914.6</ele>
        <time>2021-11-16 12:13:31</time>
      </trkpt>
      <trkpt lat="40.72484" lon="-3.86983">
        <ele>914.6</ele>
        <time>2021-11-16 12:13:32</time>
      </trkpt>
      <trkpt lat="40.72487" lon="-3.86975">
        <ele>914.4</ele>
        <time>2021-11-16 12:13:33</time>
      </trkpt>
      <trkpt lat="40.72489" lon="-3.86966">
        <ele>914.4</ele>
        <time>2021-11-16 12:13:34</time>
      </trkpt>
      <trkpt lat="40.72492" lon="-3.86958">
        <ele>914.4</ele>
        <time>2021-11-16 12:13:35</time>
      </trkpt>
      <trkpt lat="40.72495" lon="-3.86949">
        <ele>914.4</ele>
        <time>2021-11-16 12:13:36</time>
      </trkpt>
      <trkpt lat="40.72497" lon="-3.86941">
        <ele>914.4</ele>
        <time>2021-11-16 12:13:37</time>
      </trkpt>
      <trkpt lat="40.72499" lon="-3.86931">
        <ele>914.2</ele>
        <time>2021-11-16 12:13:38</time>
      </trkpt>
      <trkpt lat="40.72501" lon="-3.86922">
        <ele>914.4</ele>
        <time>2021-11-16 12:13:39</time>
      </trkpt>
      <trkpt lat="40.72503" lon="-3.86912">
        <ele>914.2</ele>
        <time>2021-11-16 12:13:40</time>
      </trkpt>
      <trkpt lat="40.72504" lon="-3.86902">
        <ele>914</ele>
        <time>2021-11-16 12:13:41</time>
      </trkpt>
      <trkpt lat="40.72505" lon="-3.86892">
        <ele>913.8</ele>
        <time>2021-11-16 12:13:42</time>
      </trkpt>
      <trkpt lat="40.72505" lon="-3.86881">
        <ele>913.6</ele>
        <time>2021-11-16 12:13:43</time>
      </trkpt>
      <trkpt lat="40.72505" lon="-3.86881">
        <ele>913.6</ele>
        <time>2021-11-16 12:13:44</time>
      </trkpt>
      <trkpt lat="40.72503" lon="-3.86859">
        <ele>913.4</ele>
        <time>2021-11-16 12:13:45</time>
      </trkpt>
      <trkpt lat="40.72503" lon="-3.86859">
        <ele>913.4</ele>
        <time>2021-11-16 12:13:46</time>
      </trkpt>
      <trkpt lat="40.72494" lon="-3.86839">
        <ele>912.8</ele>
        <time>2021-11-16 12:13:47</time>
      </trkpt>
      <trkpt lat="40.72491" lon="-3.86829">
        <ele>912.4</ele>
        <time>2021-11-16 12:13:48</time>
      </trkpt>
      <trkpt lat="40.72491" lon="-3.86819">
        <ele>911.8</ele>
        <time>2021-11-16 12:13:49</time>
      </trkpt>
      <trkpt lat="40.72493" lon="-3.86807">
        <ele>911.8</ele>
        <time>2021-11-16 12:13:50</time>
      </trkpt>
      <trkpt lat="40.72497" lon="-3.86797">
        <ele>911.6</ele>
        <time>2021-11-16 12:13:51</time>
      </trkpt>
      <trkpt lat="40.72502" lon="-3.86786">
        <ele>911</ele>
        <time>2021-11-16 12:13:52</time>
      </trkpt>
      <trkpt lat="40.72505" lon="-3.86775">
        <ele>910.4</ele>
        <time>2021-11-16 12:13:53</time>
      </trkpt>
      <trkpt lat="40.72505" lon="-3.86775">
        <ele>909.8</ele>
        <time>2021-11-16 12:13:54</time>
      </trkpt>
      <trkpt lat="40.72508" lon="-3.86752">
        <ele>909.4</ele>
        <time>2021-11-16 12:13:55</time>
      </trkpt>
      <trkpt lat="40.72509" lon="-3.8674">
        <ele>908.6</ele>
        <time>2021-11-16 12:13:56</time>
      </trkpt>
      <trkpt lat="40.7251" lon="-3.86728">
        <ele>908</ele>
        <time>2021-11-16 12:13:57</time>
      </trkpt>
      <trkpt lat="40.7251" lon="-3.86715">
        <ele>907.4</ele>
        <time>2021-11-16 12:13:58</time>
      </trkpt>
      <trkpt lat="40.72511" lon="-3.86703">
        <ele>907</ele>
        <time>2021-11-16 12:13:59</time>
      </trkpt>
      <trkpt lat="40.72511" lon="-3.86691">
        <ele>906.6</ele>
        <time>2021-11-16 12:14:00</time>
      </trkpt>
      <trkpt lat="40.72512" lon="-3.86679">
        <ele>906.4</ele>
        <time>2021-11-16 12:14:01</time>
      </trkpt>
      <trkpt lat="40.72512" lon="-3.86667">
        <ele>905.8</ele>
        <time>2021-11-16 12:14:02</time>
      </trkpt>
      <trkpt lat="40.72512" lon="-3.86655">
        <ele>905.8</ele>
        <time>2021-11-16 12:14:03</time>
      </trkpt>
      <trkpt lat="40.72511" lon="-3.86643">
        <ele>905.2</ele>
        <time>2021-11-16 12:14:04</time>
      </trkpt>
      <trkpt lat="40.72511" lon="-3.86631">
        <ele>904.8</ele>
        <time>2021-11-16 12:14:05</time>
      </trkpt>
      <trkpt lat="40.72511" lon="-3.86619">
        <ele>904.4</ele>
        <time>2021-11-16 12:14:06</time>
      </trkpt>
      <trkpt lat="40.72511" lon="-3.86607">
        <ele>904</ele>
        <time>2021-11-16 12:14:07</time>
      </trkpt>
      <trkpt lat="40.72512" lon="-3.86595">
        <ele>904</ele>
        <time>2021-11-16 12:14:08</time>
      </trkpt>
      <trkpt lat="40.72512" lon="-3.86584">
        <ele>903.2</ele>
        <time>2021-11-16 12:14:09</time>
      </trkpt>
      <trkpt lat="40.72512" lon="-3.86572">
        <ele>902.6</ele>
        <time>2021-11-16 12:14:10</time>
      </trkpt>
      <trkpt lat="40.72512" lon="-3.8656">
        <ele>902.2</ele>
        <time>2021-11-16 12:14:11</time>
      </trkpt>
      <trkpt lat="40.72511" lon="-3.86549">
        <ele>902.2</ele>
        <time>2021-11-16 12:14:12</time>
      </trkpt>
      <trkpt lat="40.72511" lon="-3.86537">
        <ele>902</ele>
        <time>2021-11-16 12:14:13</time>
      </trkpt>
      <trkpt lat="40.72511" lon="-3.86526">
        <ele>901.8</ele>
        <time>2021-11-16 12:14:14</time>
      </trkpt>
      <trkpt lat="40.72511" lon="-3.86514">
        <ele>901.8</ele>
        <time>2021-11-16 12:14:15</time>
      </trkpt>
      <trkpt lat="40.72511" lon="-3.86503">
        <ele>901.8</ele>
        <time>2021-11-16 12:14:16</time>
      </trkpt>
      <trkpt lat="40.72511" lon="-3.86492">
        <ele>901.8</ele>
        <time>2021-11-16 12:14:17</time>
      </trkpt>
      <trkpt lat="40.72511" lon="-3.8648">
        <ele>901.6</ele>
        <time>2021-11-16 12:14:18</time>
      </trkpt>
      <trkpt lat="40.72511" lon="-3.86469">
        <ele>901.6</ele>
        <time>2021-11-16 12:14:19</time>
      </trkpt>
      <trkpt lat="40.72511" lon="-3.86458">
        <ele>901.6</ele>
        <time>2021-11-16 12:14:20</time>
      </trkpt>
      <trkpt lat="40.72511" lon="-3.86448">
        <ele>901.2</ele>
        <time>2021-11-16 12:14:21</time>
      </trkpt>
      <trkpt lat="40.72511" lon="-3.86437">
        <ele>901</ele>
        <time>2021-11-16 12:14:22</time>
      </trkpt>
      <trkpt lat="40.72511" lon="-3.86427">
        <ele>901</ele>
        <time>2021-11-16 12:14:23</time>
      </trkpt>
      <trkpt lat="40.72511" lon="-3.86416">
        <ele>900.8</ele>
        <time>2021-11-16 12:14:24</time>
      </trkpt>
      <trkpt lat="40.72511" lon="-3.86406">
        <ele>900.8</ele>
        <time>2021-11-16 12:14:25</time>
      </trkpt>
      <trkpt lat="40.72511" lon="-3.86396">
        <ele>900.6</ele>
        <time>2021-11-16 12:14:26</time>
      </trkpt>
      <trkpt lat="40.72512" lon="-3.86386">
        <ele>900.6</ele>
        <time>2021-11-16 12:14:27</time>
      </trkpt>
      <trkpt lat="40.72512" lon="-3.86376">
        <ele>900.8</ele>
        <time>2021-11-16 12:14:28</time>
      </trkpt>
      <trkpt lat="40.72513" lon="-3.86367">
        <ele>900.4</ele>
        <time>2021-11-16 12:14:29</time>
      </trkpt>
      <trkpt lat="40.72513" lon="-3.86357">
        <ele>900.6</ele>
        <time>2021-11-16 12:14:30</time>
      </trkpt>
      <trkpt lat="40.72515" lon="-3.86347">
        <ele>900.6</ele>
        <time>2021-11-16 12:14:31</time>
      </trkpt>
      <trkpt lat="40.72516" lon="-3.86338">
        <ele>900.6</ele>
        <time>2021-11-16 12:14:32</time>
      </trkpt>
      <trkpt lat="40.72517" lon="-3.86328">
        <ele>900.4</ele>
        <time>2021-11-16 12:14:33</time>
      </trkpt>
      <trkpt lat="40.72519" lon="-3.86319">
        <ele>900.4</ele>
        <time>2021-11-16 12:14:34</time>
      </trkpt>
      <trkpt lat="40.72521" lon="-3.86309">
        <ele>900.6</ele>
        <time>2021-11-16 12:14:35</time>
      </trkpt>
      <trkpt lat="40.72523" lon="-3.86299">
        <ele>900.4</ele>
        <time>2021-11-16 12:14:36</time>
      </trkpt>
      <trkpt lat="40.72525" lon="-3.8629">
        <ele>900.4</ele>
        <time>2021-11-16 12:14:37</time>
      </trkpt>
      <trkpt lat="40.72528" lon="-3.86281">
        <ele>900.6</ele>
        <time>2021-11-16 12:14:38</time>
      </trkpt>
      <trkpt lat="40.7253" lon="-3.86272">
        <ele>900.4</ele>
        <time>2021-11-16 12:14:39</time>
      </trkpt>
      <trkpt lat="40.72533" lon="-3.86263">
        <ele>900.4</ele>
        <time>2021-11-16 12:14:40</time>
      </trkpt>
      <trkpt lat="40.72536" lon="-3.86254">
        <ele>900.4</ele>
        <time>2021-11-16 12:14:41</time>
      </trkpt>
      <trkpt lat="40.7254" lon="-3.86246">
        <ele>900.4</ele>
        <time>2021-11-16 12:14:42</time>
      </trkpt>
      <trkpt lat="40.72543" lon="-3.86237">
        <ele>900.4</ele>
        <time>2021-11-16 12:14:43</time>
      </trkpt>
      <trkpt lat="40.72546" lon="-3.86229">
        <ele>900.4</ele>
        <time>2021-11-16 12:14:44</time>
      </trkpt>
      <trkpt lat="40.7255" lon="-3.86221">
        <ele>900.4</ele>
        <time>2021-11-16 12:14:45</time>
      </trkpt>
      <trkpt lat="40.72553" lon="-3.86214">
        <ele>900.6</ele>
        <time>2021-11-16 12:14:46</time>
      </trkpt>
      <trkpt lat="40.72557" lon="-3.86206">
        <ele>900.8</ele>
        <time>2021-11-16 12:14:47</time>
      </trkpt>
      <trkpt lat="40.72561" lon="-3.86199">
        <ele>900.8</ele>
        <time>2021-11-16 12:14:48</time>
      </trkpt>
      <trkpt lat="40.72565" lon="-3.86192">
        <ele>901</ele>
        <time>2021-11-16 12:14:49</time>
      </trkpt>
      <trkpt lat="40.72569" lon="-3.86186">
        <ele>901.2</ele>
        <time>2021-11-16 12:14:50</time>
      </trkpt>
      <trkpt lat="40.72572" lon="-3.86179">
        <ele>901.2</ele>
        <time>2021-11-16 12:14:51</time>
      </trkpt>
      <trkpt lat="40.72576" lon="-3.86173">
        <ele>901.4</ele>
        <time>2021-11-16 12:14:52</time>
      </trkpt>
      <trkpt lat="40.7258" lon="-3.86167">
        <ele>901.4</ele>
        <time>2021-11-16 12:14:53</time>
      </trkpt>
      <trkpt lat="40.72584" lon="-3.86161">
        <ele>901.6</ele>
        <time>2021-11-16 12:14:54</time>
      </trkpt>
      <trkpt lat="40.72588" lon="-3.86156">
        <ele>901.6</ele>
        <time>2021-11-16 12:14:55</time>
      </trkpt>
      <trkpt lat="40.72593" lon="-3.8615">
        <ele>901.8</ele>
        <time>2021-11-16 12:14:56</time>
      </trkpt>
      <trkpt lat="40.72597" lon="-3.86145">
        <ele>901.8</ele>
        <time>2021-11-16 12:14:57</time>
      </trkpt>
      <trkpt lat="40.72601" lon="-3.8614">
        <ele>902</ele>
        <time>2021-11-16 12:14:58</time>
      </trkpt>
      <trkpt lat="40.72605" lon="-3.86135">
        <ele>902.6</ele>
        <time>2021-11-16 12:14:59</time>
      </trkpt>
      <trkpt lat="40.7261" lon="-3.8613">
        <ele>903</ele>
        <time>2021-11-16 12:15:00</time>
      </trkpt>
      <trkpt lat="40.72614" lon="-3.86125">
        <ele>903</ele>
        <time>2021-11-16 12:15:01</time>
      </trkpt>
      <trkpt lat="40.72618" lon="-3.8612">
        <ele>903.2</ele>
        <time>2021-11-16 12:15:02</time>
      </trkpt>
      <trkpt lat="40.72623" lon="-3.86116">
        <ele>903.4</ele>
        <time>2021-11-16 12:15:03</time>
      </trkpt>
      <trkpt lat="40.72628" lon="-3.86112">
        <ele>903.6</ele>
        <time>2021-11-16 12:15:04</time>
      </trkpt>
      <trkpt lat="40.72632" lon="-3.86108">
        <ele>904</ele>
        <time>2021-11-16 12:15:05</time>
      </trkpt>
      <trkpt lat="40.72637" lon="-3.86103">
        <ele>904.4</ele>
        <time>2021-11-16 12:15:06</time>
      </trkpt>
      <trkpt lat="40.72642" lon="-3.86099">
        <ele>904.6</ele>
        <time>2021-11-16 12:15:07</time>
      </trkpt>
      <trkpt lat="40.72647" lon="-3.86095">
        <ele>904.8</ele>
        <time>2021-11-16 12:15:08</time>
      </trkpt>
      <trkpt lat="40.72653" lon="-3.86092">
        <ele>905</ele>
        <time>2021-11-16 12:15:09</time>
      </trkpt>
      <trkpt lat="40.72658" lon="-3.86088">
        <ele>905</ele>
        <time>2021-11-16 12:15:10</time>
      </trkpt>
      <trkpt lat="40.72663" lon="-3.86084">
        <ele>905.4</ele>
        <time>2021-11-16 12:15:11</time>
      </trkpt>
      <trkpt lat="40.72668" lon="-3.8608">
        <ele>905.6</ele>
        <time>2021-11-16 12:15:12</time>
      </trkpt>
      <trkpt lat="40.72673" lon="-3.86077">
        <ele>905.8</ele>
        <time>2021-11-16 12:15:13</time>
      </trkpt>
      <trkpt lat="40.72678" lon="-3.86073">
        <ele>905.8</ele>
        <time>2021-11-16 12:15:14</time>
      </trkpt>
      <trkpt lat="40.72683" lon="-3.86069">
        <ele>905.8</ele>
        <time>2021-11-16 12:15:15</time>
      </trkpt>
      <trkpt lat="40.72688" lon="-3.86065">
        <ele>906</ele>
        <time>2021-11-16 12:15:16</time>
      </trkpt>
      <trkpt lat="40.72693" lon="-3.86061">
        <ele>906.2</ele>
        <time>2021-11-16 12:15:17</time>
      </trkpt>
      <trkpt lat="40.72698" lon="-3.86056">
        <ele>906.2</ele>
        <time>2021-11-16 12:15:18</time>
      </trkpt>
      <trkpt lat="40.72703" lon="-3.86052">
        <ele>906.4</ele>
        <time>2021-11-16 12:15:19</time>
      </trkpt>
      <trkpt lat="40.72707" lon="-3.86047">
        <ele>906.4</ele>
        <time>2021-11-16 12:15:20</time>
      </trkpt>
      <trkpt lat="40.72712" lon="-3.86042">
        <ele>906.2</ele>
        <time>2021-11-16 12:15:21</time>
      </trkpt>
      <trkpt lat="40.72716" lon="-3.86037">
        <ele>906.4</ele>
        <time>2021-11-16 12:15:22</time>
      </trkpt>
      <trkpt lat="40.72721" lon="-3.86032">
        <ele>906.4</ele>
        <time>2021-11-16 12:15:23</time>
      </trkpt>
      <trkpt lat="40.72726" lon="-3.86026">
        <ele>906.6</ele>
        <time>2021-11-16 12:15:24</time>
      </trkpt>
      <trkpt lat="40.7273" lon="-3.8602">
        <ele>906.4</ele>
        <time>2021-11-16 12:15:25</time>
      </trkpt>
      <trkpt lat="40.72734" lon="-3.86015">
        <ele>906.4</ele>
        <time>2021-11-16 12:15:26</time>
      </trkpt>
      <trkpt lat="40.72738" lon="-3.86008">
        <ele>906.4</ele>
        <time>2021-11-16 12:15:27</time>
      </trkpt>
      <trkpt lat="40.72743" lon="-3.86002">
        <ele>906.4</ele>
        <time>2021-11-16 12:15:28</time>
      </trkpt>
      <trkpt lat="40.72747" lon="-3.85996">
        <ele>906.4</ele>
        <time>2021-11-16 12:15:29</time>
      </trkpt>
      <trkpt lat="40.72751" lon="-3.85989">
        <ele>906.2</ele>
        <time>2021-11-16 12:15:30</time>
      </trkpt>
      <trkpt lat="40.72755" lon="-3.85983">
        <ele>906.4</ele>
        <time>2021-11-16 12:15:31</time>
      </trkpt>
      <trkpt lat="40.7276" lon="-3.85977">
        <ele>906</ele>
        <time>2021-11-16 12:15:32</time>
      </trkpt>
      <trkpt lat="40.72764" lon="-3.85971">
        <ele>905.6</ele>
        <time>2021-11-16 12:15:33</time>
      </trkpt>
      <trkpt lat="40.72769" lon="-3.85964">
        <ele>905.2</ele>
        <time>2021-11-16 12:15:34</time>
      </trkpt>
      <trkpt lat="40.72773" lon="-3.85957">
        <ele>905</ele>
        <time>2021-11-16 12:15:35</time>
      </trkpt>
      <trkpt lat="40.72777" lon="-3.8595">
        <ele>904.6</ele>
        <time>2021-11-16 12:15:36</time>
      </trkpt>
      <trkpt lat="40.72782" lon="-3.85944">
        <ele>904.6</ele>
        <time>2021-11-16 12:15:37</time>
      </trkpt>
      <trkpt lat="40.72786" lon="-3.85937">
        <ele>904.6</ele>
        <time>2021-11-16 12:15:38</time>
      </trkpt>
      <trkpt lat="40.72791" lon="-3.8593">
        <ele>904.6</ele>
        <time>2021-11-16 12:15:39</time>
      </trkpt>
      <trkpt lat="40.72795" lon="-3.85923">
        <ele>904.4</ele>
        <time>2021-11-16 12:15:40</time>
      </trkpt>
      <trkpt lat="40.728" lon="-3.85916">
        <ele>904.4</ele>
        <time>2021-11-16 12:15:41</time>
      </trkpt>
      <trkpt lat="40.72804" lon="-3.85909">
        <ele>904.2</ele>
        <time>2021-11-16 12:15:42</time>
      </trkpt>
      <trkpt lat="40.72809" lon="-3.85902">
        <ele>904</ele>
        <time>2021-11-16 12:15:43</time>
      </trkpt>
      <trkpt lat="40.72813" lon="-3.85895">
        <ele>904</ele>
        <time>2021-11-16 12:15:44</time>
      </trkpt>
      <trkpt lat="40.72817" lon="-3.85887">
        <ele>903.8</ele>
        <time>2021-11-16 12:15:45</time>
      </trkpt>
      <trkpt lat="40.72822" lon="-3.8588">
        <ele>903.6</ele>
        <time>2021-11-16 12:15:46</time>
      </trkpt>
      <trkpt lat="40.72826" lon="-3.85872">
        <ele>903.6</ele>
        <time>2021-11-16 12:15:47</time>
      </trkpt>
      <trkpt lat="40.72829" lon="-3.85864">
        <ele>903.4</ele>
        <time>2021-11-16 12:15:48</time>
      </trkpt>
      <trkpt lat="40.72833" lon="-3.85855">
        <ele>903.4</ele>
        <time>2021-11-16 12:15:49</time>
      </trkpt>
      <trkpt lat="40.72835" lon="-3.85846">
        <ele>903.4</ele>
        <time>2021-11-16 12:15:50</time>
      </trkpt>
      <trkpt lat="40.72838" lon="-3.85837">
        <ele>903.4</ele>
        <time>2021-11-16 12:15:51</time>
      </trkpt>
      <trkpt lat="40.72841" lon="-3.85827">
        <ele>903.4</ele>
        <time>2021-11-16 12:15:52</time>
      </trkpt>
      <trkpt lat="40.72844" lon="-3.85818">
        <ele>903.2</ele>
        <time>2021-11-16 12:15:53</time>
      </trkpt>
      <trkpt lat="40.72846" lon="-3.85808">
        <ele>903</ele>
        <time>2021-11-16 12:15:54</time>
      </trkpt>
      <trkpt lat="40.72848" lon="-3.85799">
        <ele>902.8</ele>
        <time>2021-11-16 12:15:55</time>
      </trkpt>
      <trkpt lat="40.7285" lon="-3.85789">
        <ele>902.6</ele>
        <time>2021-11-16 12:15:56</time>
      </trkpt>
      <trkpt lat="40.72852" lon="-3.8578">
        <ele>902.6</ele>
        <time>2021-11-16 12:15:57</time>
      </trkpt>
      <trkpt lat="40.72855" lon="-3.8577">
        <ele>902.6</ele>
        <time>2021-11-16 12:15:58</time>
      </trkpt>
      <trkpt lat="40.72857" lon="-3.8576">
        <ele>902.6</ele>
        <time>2021-11-16 12:15:59</time>
      </trkpt>
      <trkpt lat="40.72859" lon="-3.85751">
        <ele>902.4</ele>
        <time>2021-11-16 12:16:00</time>
      </trkpt>
      <trkpt lat="40.72861" lon="-3.85741">
        <ele>902.4</ele>
        <time>2021-11-16 12:16:01</time>
      </trkpt>
      <trkpt lat="40.72863" lon="-3.85732">
        <ele>902.4</ele>
        <time>2021-11-16 12:16:02</time>
      </trkpt>
      <trkpt lat="40.72865" lon="-3.85722">
        <ele>902.4</ele>
        <time>2021-11-16 12:16:03</time>
      </trkpt>
      <trkpt lat="40.72867" lon="-3.85713">
        <ele>902.2</ele>
        <time>2021-11-16 12:16:04</time>
      </trkpt>
      <trkpt lat="40.7287" lon="-3.85703">
        <ele>902.2</ele>
        <time>2021-11-16 12:16:05</time>
      </trkpt>
      <trkpt lat="40.72872" lon="-3.85693">
        <ele>902</ele>
        <time>2021-11-16 12:16:06</time>
      </trkpt>
      <trkpt lat="40.72874" lon="-3.85684">
        <ele>902</ele>
        <time>2021-11-16 12:16:07</time>
      </trkpt>
      <trkpt lat="40.72876" lon="-3.85674">
        <ele>901.6</ele>
        <time>2021-11-16 12:16:08</time>
      </trkpt>
      <trkpt lat="40.72878" lon="-3.85664">
        <ele>901.4</ele>
        <time>2021-11-16 12:16:09</time>
      </trkpt>
      <trkpt lat="40.7288" lon="-3.85655">
        <ele>901.4</ele>
        <time>2021-11-16 12:16:10</time>
      </trkpt>
      <trkpt lat="40.72882" lon="-3.85645">
        <ele>901</ele>
        <time>2021-11-16 12:16:11</time>
      </trkpt>
      <trkpt lat="40.72884" lon="-3.85636">
        <ele>901</ele>
        <time>2021-11-16 12:16:12</time>
      </trkpt>
      <trkpt lat="40.72887" lon="-3.85626">
        <ele>900.8</ele>
        <time>2021-11-16 12:16:13</time>
      </trkpt>
      <trkpt lat="40.72889" lon="-3.85617">
        <ele>900.8</ele>
        <time>2021-11-16 12:16:14</time>
      </trkpt>
      <trkpt lat="40.72892" lon="-3.85608">
        <ele>901</ele>
        <time>2021-11-16 12:16:15</time>
      </trkpt>
      <trkpt lat="40.72894" lon="-3.85598">
        <ele>900.8</ele>
        <time>2021-11-16 12:16:16</time>
      </trkpt>
      <trkpt lat="40.72897" lon="-3.85589">
        <ele>901</ele>
        <time>2021-11-16 12:16:17</time>
      </trkpt>
      <trkpt lat="40.72899" lon="-3.8558">
        <ele>900.8</ele>
        <time>2021-11-16 12:16:18</time>
      </trkpt>
      <trkpt lat="40.72902" lon="-3.85571">
        <ele>900.8</ele>
        <time>2021-11-16 12:16:19</time>
      </trkpt>
      <trkpt lat="40.72905" lon="-3.85562">
        <ele>901</ele>
        <time>2021-11-16 12:16:20</time>
      </trkpt>
      <trkpt lat="40.72909" lon="-3.85553">
        <ele>901</ele>
        <time>2021-11-16 12:16:21</time>
      </trkpt>
      <trkpt lat="40.72912" lon="-3.85545">
        <ele>901</ele>
        <time>2021-11-16 12:16:22</time>
      </trkpt>
      <trkpt lat="40.72916" lon="-3.85536">
        <ele>900.8</ele>
        <time>2021-11-16 12:16:23</time>
      </trkpt>
      <trkpt lat="40.7292" lon="-3.85528">
        <ele>900.6</ele>
        <time>2021-11-16 12:16:24</time>
      </trkpt>
      <trkpt lat="40.72924" lon="-3.8552">
        <ele>900.8</ele>
        <time>2021-11-16 12:16:25</time>
      </trkpt>
      <trkpt lat="40.72928" lon="-3.85512">
        <ele>900.8</ele>
        <time>2021-11-16 12:16:26</time>
      </trkpt>
      <trkpt lat="40.72933" lon="-3.85504">
        <ele>900.8</ele>
        <time>2021-11-16 12:16:27</time>
      </trkpt>
      <trkpt lat="40.72937" lon="-3.85497">
        <ele>900.8</ele>
        <time>2021-11-16 12:16:28</time>
      </trkpt>
      <trkpt lat="40.72942" lon="-3.85489">
        <ele>900.8</ele>
        <time>2021-11-16 12:16:29</time>
      </trkpt>
      <trkpt lat="40.72947" lon="-3.85482">
        <ele>900.8</ele>
        <time>2021-11-16 12:16:30</time>
      </trkpt>
      <trkpt lat="40.72952" lon="-3.85474">
        <ele>901</ele>
        <time>2021-11-16 12:16:31</time>
      </trkpt>
      <trkpt lat="40.72957" lon="-3.85467">
        <ele>901</ele>
        <time>2021-11-16 12:16:32</time>
      </trkpt>
      <trkpt lat="40.72962" lon="-3.8546">
        <ele>901.2</ele>
        <time>2021-11-16 12:16:33</time>
      </trkpt>
      <trkpt lat="40.72967" lon="-3.85453">
        <ele>901.2</ele>
        <time>2021-11-16 12:16:34</time>
      </trkpt>
      <trkpt lat="40.72972" lon="-3.85446">
        <ele>901</ele>
        <time>2021-11-16 12:16:35</time>
      </trkpt>
      <trkpt lat="40.72977" lon="-3.85439">
        <ele>901.2</ele>
        <time>2021-11-16 12:16:36</time>
      </trkpt>
      <trkpt lat="40.72982" lon="-3.85432">
        <ele>901</ele>
        <time>2021-11-16 12:16:37</time>
      </trkpt>
      <trkpt lat="40.72987" lon="-3.85425">
        <ele>900.8</ele>
        <time>2021-11-16 12:16:38</time>
      </trkpt>
      <trkpt lat="40.72993" lon="-3.85418">
        <ele>900.8</ele>
        <time>2021-11-16 12:16:39</time>
      </trkpt>
      <trkpt lat="40.72998" lon="-3.85411">
        <ele>900.8</ele>
        <time>2021-11-16 12:16:40</time>
      </trkpt>
      <trkpt lat="40.73003" lon="-3.85404">
        <ele>901</ele>
        <time>2021-11-16 12:16:41</time>
      </trkpt>
      <trkpt lat="40.73008" lon="-3.85398">
        <ele>900.8</ele>
        <time>2021-11-16 12:16:42</time>
      </trkpt>
      <trkpt lat="40.73013" lon="-3.85391">
        <ele>900.8</ele>
        <time>2021-11-16 12:16:43</time>
      </trkpt>
      <trkpt lat="40.73018" lon="-3.85384">
        <ele>900.8</ele>
        <time>2021-11-16 12:16:44</time>
      </trkpt>
      <trkpt lat="40.73023" lon="-3.85377">
        <ele>901</ele>
        <time>2021-11-16 12:16:45</time>
      </trkpt>
      <trkpt lat="40.73028" lon="-3.8537">
        <ele>901</ele>
        <time>2021-11-16 12:16:46</time>
      </trkpt>
      <trkpt lat="40.73034" lon="-3.85363">
        <ele>901</ele>
        <time>2021-11-16 12:16:47</time>
      </trkpt>
      <trkpt lat="40.73039" lon="-3.85356">
        <ele>901</ele>
        <time>2021-11-16 12:16:48</time>
      </trkpt>
      <trkpt lat="40.73044" lon="-3.8535">
        <ele>901.2</ele>
        <time>2021-11-16 12:16:49</time>
      </trkpt>
      <trkpt lat="40.73049" lon="-3.85343">
        <ele>901.2</ele>
        <time>2021-11-16 12:16:50</time>
      </trkpt>
      <trkpt lat="40.73054" lon="-3.85336">
        <ele>901.2</ele>
        <time>2021-11-16 12:16:51</time>
      </trkpt>
      <trkpt lat="40.73059" lon="-3.85329">
        <ele>901.2</ele>
        <time>2021-11-16 12:16:52</time>
      </trkpt>
      <trkpt lat="40.73064" lon="-3.85321">
        <ele>901.2</ele>
        <time>2021-11-16 12:16:53</time>
      </trkpt>
      <trkpt lat="40.73069" lon="-3.85314">
        <ele>901.2</ele>
        <time>2021-11-16 12:16:54</time>
      </trkpt>
      <trkpt lat="40.73074" lon="-3.85307">
        <ele>901.2</ele>
        <time>2021-11-16 12:16:55</time>
      </trkpt>
      <trkpt lat="40.73079" lon="-3.853">
        <ele>901</ele>
        <time>2021-11-16 12:16:56</time>
      </trkpt>
      <trkpt lat="40.73084" lon="-3.85293">
        <ele>901.2</ele>
        <time>2021-11-16 12:16:57</time>
      </trkpt>
      <trkpt lat="40.7309" lon="-3.85286">
        <ele>901.2</ele>
        <time>2021-11-16 12:16:58</time>
      </trkpt>
      <trkpt lat="40.73095" lon="-3.85279">
        <ele>901.2</ele>
        <time>2021-11-16 12:16:59</time>
      </trkpt>
      <trkpt lat="40.731" lon="-3.85272">
        <ele>901.2</ele>
        <time>2021-11-16 12:17:00</time>
      </trkpt>
      <trkpt lat="40.73105" lon="-3.85265">
        <ele>901.2</ele>
        <time>2021-11-16 12:17:01</time>
      </trkpt>
      <trkpt lat="40.7311" lon="-3.85258">
        <ele>901.2</ele>
        <time>2021-11-16 12:17:02</time>
      </trkpt>
      <trkpt lat="40.73116" lon="-3.85251">
        <ele>901.2</ele>
        <time>2021-11-16 12:17:03</time>
      </trkpt>
      <trkpt lat="40.73121" lon="-3.85244">
        <ele>901.2</ele>
        <time>2021-11-16 12:17:04</time>
      </trkpt>
      <trkpt lat="40.73126" lon="-3.85237">
        <ele>901.2</ele>
        <time>2021-11-16 12:17:05</time>
      </trkpt>
      <trkpt lat="40.73131" lon="-3.8523">
        <ele>901.2</ele>
        <time>2021-11-16 12:17:06</time>
      </trkpt>
      <trkpt lat="40.73136" lon="-3.85223">
        <ele>901.2</ele>
        <time>2021-11-16 12:17:07</time>
      </trkpt>
      <trkpt lat="40.73141" lon="-3.85216">
        <ele>901</ele>
        <time>2021-11-16 12:17:08</time>
      </trkpt>
      <trkpt lat="40.73146" lon="-3.85209">
        <ele>900.8</ele>
        <time>2021-11-16 12:17:09</time>
      </trkpt>
      <trkpt lat="40.73152" lon="-3.85202">
        <ele>900.8</ele>
        <time>2021-11-16 12:17:10</time>
      </trkpt>
      <trkpt lat="40.73157" lon="-3.85194">
        <ele>900.8</ele>
        <time>2021-11-16 12:17:11</time>
      </trkpt>
      <trkpt lat="40.73162" lon="-3.85187">
        <ele>900.6</ele>
        <time>2021-11-16 12:17:12</time>
      </trkpt>
      <trkpt lat="40.73167" lon="-3.8518">
        <ele>900.8</ele>
        <time>2021-11-16 12:17:13</time>
      </trkpt>
      <trkpt lat="40.73173" lon="-3.85173">
        <ele>900.8</ele>
        <time>2021-11-16 12:17:14</time>
      </trkpt>
      <trkpt lat="40.73178" lon="-3.85166">
        <ele>900.6</ele>
        <time>2021-11-16 12:17:15</time>
      </trkpt>
      <trkpt lat="40.73183" lon="-3.85158">
        <ele>901</ele>
        <time>2021-11-16 12:17:16</time>
      </trkpt>
      <trkpt lat="40.73189" lon="-3.85151">
        <ele>901</ele>
        <time>2021-11-16 12:17:17</time>
      </trkpt>
      <trkpt lat="40.73194" lon="-3.85144">
        <ele>900.8</ele>
        <time>2021-11-16 12:17:18</time>
      </trkpt>
      <trkpt lat="40.73199" lon="-3.85136">
        <ele>900.8</ele>
        <time>2021-11-16 12:17:19</time>
      </trkpt>
      <trkpt lat="40.73205" lon="-3.85129">
        <ele>901</ele>
        <time>2021-11-16 12:17:20</time>
      </trkpt>
      <trkpt lat="40.7321" lon="-3.85121">
        <ele>901</ele>
        <time>2021-11-16 12:17:21</time>
      </trkpt>
      <trkpt lat="40.73215" lon="-3.85114">
        <ele>901</ele>
        <time>2021-11-16 12:17:22</time>
      </trkpt>
      <trkpt lat="40.73221" lon="-3.85107">
        <ele>901.2</ele>
        <time>2021-11-16 12:17:23</time>
      </trkpt>
      <trkpt lat="40.73226" lon="-3.85099">
        <ele>901.2</ele>
        <time>2021-11-16 12:17:24</time>
      </trkpt>
      <trkpt lat="40.73232" lon="-3.85092">
        <ele>901.4</ele>
        <time>2021-11-16 12:17:25</time>
      </trkpt>
      <trkpt lat="40.73237" lon="-3.85084">
        <ele>901.6</ele>
        <time>2021-11-16 12:17:26</time>
      </trkpt>
      <trkpt lat="40.73242" lon="-3.85077">
        <ele>901.6</ele>
        <time>2021-11-16 12:17:27</time>
      </trkpt>
      <trkpt lat="40.73248" lon="-3.8507">
        <ele>901.6</ele>
        <time>2021-11-16 12:17:28</time>
      </trkpt>
      <trkpt lat="40.73253" lon="-3.85063">
        <ele>901.8</ele>
        <time>2021-11-16 12:17:29</time>
      </trkpt>
      <trkpt lat="40.73258" lon="-3.85055">
        <ele>901.8</ele>
        <time>2021-11-16 12:17:30</time>
      </trkpt>
      <trkpt lat="40.73264" lon="-3.85048">
        <ele>901.8</ele>
        <time>2021-11-16 12:17:31</time>
      </trkpt>
      <trkpt lat="40.73269" lon="-3.85041">
        <ele>901.6</ele>
        <time>2021-11-16 12:17:32</time>
      </trkpt>
      <trkpt lat="40.73274" lon="-3.85035">
        <ele>901.8</ele>
        <time>2021-11-16 12:17:33</time>
      </trkpt>
      <trkpt lat="40.7328" lon="-3.85028">
        <ele>901.8</ele>
        <time>2021-11-16 12:17:34</time>
      </trkpt>
      <trkpt lat="40.73286" lon="-3.85022">
        <ele>902</ele>
        <time>2021-11-16 12:17:35</time>
      </trkpt>
      <trkpt lat="40.73291" lon="-3.85016">
        <ele>902</ele>
        <time>2021-11-16 12:17:36</time>
      </trkpt>
      <trkpt lat="40.73297" lon="-3.8501">
        <ele>902</ele>
        <time>2021-11-16 12:17:37</time>
      </trkpt>
      <trkpt lat="40.73303" lon="-3.85005">
        <ele>902</ele>
        <time>2021-11-16 12:17:38</time>
      </trkpt>
      <trkpt lat="40.7331" lon="-3.85">
        <ele>902</ele>
        <time>2021-11-16 12:17:39</time>
      </trkpt>
      <trkpt lat="40.73316" lon="-3.84995">
        <ele>902</ele>
        <time>2021-11-16 12:17:40</time>
      </trkpt>
      <trkpt lat="40.73323" lon="-3.8499">
        <ele>902.2</ele>
        <time>2021-11-16 12:17:41</time>
      </trkpt>
      <trkpt lat="40.73329" lon="-3.84985">
        <ele>902</ele>
        <time>2021-11-16 12:17:42</time>
      </trkpt>
      <trkpt lat="40.73336" lon="-3.8498">
        <ele>902</ele>
        <time>2021-11-16 12:17:43</time>
      </trkpt>
      <trkpt lat="40.73342" lon="-3.84976">
        <ele>902.2</ele>
        <time>2021-11-16 12:17:44</time>
      </trkpt>
      <trkpt lat="40.73349" lon="-3.84971">
        <ele>902.2</ele>
        <time>2021-11-16 12:17:45</time>
      </trkpt>
      <trkpt lat="40.73356" lon="-3.84966">
        <ele>902.2</ele>
        <time>2021-11-16 12:17:46</time>
      </trkpt>
      <trkpt lat="40.73362" lon="-3.84961">
        <ele>902</ele>
        <time>2021-11-16 12:17:47</time>
      </trkpt>
      <trkpt lat="40.73368" lon="-3.84956">
        <ele>902</ele>
        <time>2021-11-16 12:17:48</time>
      </trkpt>
      <trkpt lat="40.73374" lon="-3.84951">
        <ele>902</ele>
        <time>2021-11-16 12:17:49</time>
      </trkpt>
      <trkpt lat="40.7338" lon="-3.84946">
        <ele>902</ele>
        <time>2021-11-16 12:17:50</time>
      </trkpt>
      <trkpt lat="40.73386" lon="-3.8494">
        <ele>902</ele>
        <time>2021-11-16 12:17:51</time>
      </trkpt>
      <trkpt lat="40.73392" lon="-3.84933">
        <ele>902</ele>
        <time>2021-11-16 12:17:52</time>
      </trkpt>
      <trkpt lat="40.73397" lon="-3.84926">
        <ele>901.8</ele>
        <time>2021-11-16 12:17:53</time>
      </trkpt>
      <trkpt lat="40.73402" lon="-3.84919">
        <ele>901.8</ele>
        <time>2021-11-16 12:17:54</time>
      </trkpt>
      <trkpt lat="40.73407" lon="-3.84911">
        <ele>901.4</ele>
        <time>2021-11-16 12:17:55</time>
      </trkpt>
      <trkpt lat="40.73411" lon="-3.84904">
        <ele>901.4</ele>
        <time>2021-11-16 12:17:56</time>
      </trkpt>
      <trkpt lat="40.73416" lon="-3.84896">
        <ele>901.4</ele>
        <time>2021-11-16 12:17:57</time>
      </trkpt>
      <trkpt lat="40.7342" lon="-3.84888">
        <ele>901.2</ele>
        <time>2021-11-16 12:17:58</time>
      </trkpt>
      <trkpt lat="40.73425" lon="-3.8488">
        <ele>901.2</ele>
        <time>2021-11-16 12:17:59</time>
      </trkpt>
      <trkpt lat="40.7343" lon="-3.84874">
        <ele>901</ele>
        <time>2021-11-16 12:18:00</time>
      </trkpt>
      <trkpt lat="40.73436" lon="-3.8487">
        <ele>901</ele>
        <time>2021-11-16 12:18:01</time>
      </trkpt>
      <trkpt lat="40.73443" lon="-3.84868">
        <ele>901</ele>
        <time>2021-11-16 12:18:02</time>
      </trkpt>
      <trkpt lat="40.7345" lon="-3.84868">
        <ele>900.8</ele>
        <time>2021-11-16 12:18:03</time>
      </trkpt>
      <trkpt lat="40.73456" lon="-3.84869">
        <ele>900.8</ele>
        <time>2021-11-16 12:18:04</time>
      </trkpt>
      <trkpt lat="40.73463" lon="-3.8487">
        <ele>901</ele>
        <time>2021-11-16 12:18:05</time>
      </trkpt>
      <trkpt lat="40.73469" lon="-3.84869">
        <ele>900.8</ele>
        <time>2021-11-16 12:18:06</time>
      </trkpt>
      <trkpt lat="40.73476" lon="-3.84867">
        <ele>900.8</ele>
        <time>2021-11-16 12:18:07</time>
      </trkpt>
      <trkpt lat="40.73482" lon="-3.84864">
        <ele>900.6</ele>
        <time>2021-11-16 12:18:08</time>
      </trkpt>
      <trkpt lat="40.73489" lon="-3.8486">
        <ele>900.8</ele>
        <time>2021-11-16 12:18:09</time>
      </trkpt>
      <trkpt lat="40.73496" lon="-3.84857">
        <ele>900.4</ele>
        <time>2021-11-16 12:18:10</time>
      </trkpt>
      <trkpt lat="40.73502" lon="-3.84853">
        <ele>900.6</ele>
        <time>2021-11-16 12:18:11</time>
      </trkpt>
      <trkpt lat="40.73509" lon="-3.84849">
        <ele>900.6</ele>
        <time>2021-11-16 12:18:12</time>
      </trkpt>
      <trkpt lat="40.73515" lon="-3.84845">
        <ele>900.8</ele>
        <time>2021-11-16 12:18:13</time>
      </trkpt>
      <trkpt lat="40.73521" lon="-3.84839">
        <ele>901</ele>
        <time>2021-11-16 12:18:14</time>
      </trkpt>
      <trkpt lat="40.73527" lon="-3.84834">
        <ele>901</ele>
        <time>2021-11-16 12:18:15</time>
      </trkpt>
      <trkpt lat="40.73533" lon="-3.84829">
        <ele>901</ele>
        <time>2021-11-16 12:18:16</time>
      </trkpt>
      <trkpt lat="40.73539" lon="-3.84823">
        <ele>901</ele>
        <time>2021-11-16 12:18:17</time>
      </trkpt>
      <trkpt lat="40.73544" lon="-3.84817">
        <ele>901</ele>
        <time>2021-11-16 12:18:18</time>
      </trkpt>
      <trkpt lat="40.73549" lon="-3.8481">
        <ele>901.2</ele>
        <time>2021-11-16 12:18:19</time>
      </trkpt>
      <trkpt lat="40.73555" lon="-3.84804">
        <ele>901.4</ele>
        <time>2021-11-16 12:18:20</time>
      </trkpt>
      <trkpt lat="40.73559" lon="-3.84797">
        <ele>901.4</ele>
        <time>2021-11-16 12:18:21</time>
      </trkpt>
      <trkpt lat="40.73564" lon="-3.84789">
        <ele>901.6</ele>
        <time>2021-11-16 12:18:22</time>
      </trkpt>
      <trkpt lat="40.73569" lon="-3.84782">
        <ele>901.6</ele>
        <time>2021-11-16 12:18:23</time>
      </trkpt>
      <trkpt lat="40.73573" lon="-3.84774">
        <ele>901.6</ele>
        <time>2021-11-16 12:18:24</time>
      </trkpt>
      <trkpt lat="40.73578" lon="-3.84766">
        <ele>901.6</ele>
        <time>2021-11-16 12:18:25</time>
      </trkpt>
      <trkpt lat="40.73582" lon="-3.84758">
        <ele>901.6</ele>
        <time>2021-11-16 12:18:26</time>
      </trkpt>
      <trkpt lat="40.73587" lon="-3.8475">
        <ele>901.6</ele>
        <time>2021-11-16 12:18:27</time>
      </trkpt>
      <trkpt lat="40.73591" lon="-3.84742">
        <ele>901.6</ele>
        <time>2021-11-16 12:18:28</time>
      </trkpt>
      <trkpt lat="40.73596" lon="-3.84734">
        <ele>901.4</ele>
        <time>2021-11-16 12:18:29</time>
      </trkpt>
      <trkpt lat="40.736" lon="-3.84725">
        <ele>901.6</ele>
        <time>2021-11-16 12:18:30</time>
      </trkpt>
      <trkpt lat="40.73605" lon="-3.84717">
        <ele>901.4</ele>
        <time>2021-11-16 12:18:31</time>
      </trkpt>
      <trkpt lat="40.73609" lon="-3.84709">
        <ele>901.6</ele>
        <time>2021-11-16 12:18:32</time>
      </trkpt>
      <trkpt lat="40.73614" lon="-3.84701">
        <ele>901.6</ele>
        <time>2021-11-16 12:18:33</time>
      </trkpt>
      <trkpt lat="40.73618" lon="-3.84692">
        <ele>901.6</ele>
        <time>2021-11-16 12:18:34</time>
      </trkpt>
      <trkpt lat="40.73622" lon="-3.84684">
        <ele>901.4</ele>
        <time>2021-11-16 12:18:35</time>
      </trkpt>
      <trkpt lat="40.73627" lon="-3.84676">
        <ele>901.4</ele>
        <time>2021-11-16 12:18:36</time>
      </trkpt>
      <trkpt lat="40.73631" lon="-3.84668">
        <ele>901.4</ele>
        <time>2021-11-16 12:18:37</time>
      </trkpt>
      <trkpt lat="40.73636" lon="-3.84659">
        <ele>901.4</ele>
        <time>2021-11-16 12:18:38</time>
      </trkpt>
      <trkpt lat="40.7364" lon="-3.84651">
        <ele>901.4</ele>
        <time>2021-11-16 12:18:39</time>
      </trkpt>
      <trkpt lat="40.73645" lon="-3.84643">
        <ele>901.4</ele>
        <time>2021-11-16 12:18:40</time>
      </trkpt>
      <trkpt lat="40.73649" lon="-3.84634">
        <ele>901.4</ele>
        <time>2021-11-16 12:18:41</time>
      </trkpt>
      <trkpt lat="40.73653" lon="-3.84626">
        <ele>901.4</ele>
        <time>2021-11-16 12:18:42</time>
      </trkpt>
      <trkpt lat="40.73658" lon="-3.84618">
        <ele>901.4</ele>
        <time>2021-11-16 12:18:43</time>
      </trkpt>
      <trkpt lat="40.73662" lon="-3.84609">
        <ele>901.2</ele>
        <time>2021-11-16 12:18:44</time>
      </trkpt>
      <trkpt lat="40.73667" lon="-3.84601">
        <ele>901.2</ele>
        <time>2021-11-16 12:18:45</time>
      </trkpt>
      <trkpt lat="40.73671" lon="-3.84593">
        <ele>901.4</ele>
        <time>2021-11-16 12:18:46</time>
      </trkpt>
      <trkpt lat="40.73676" lon="-3.84585">
        <ele>901.2</ele>
        <time>2021-11-16 12:18:47</time>
      </trkpt>
      <trkpt lat="40.7368" lon="-3.84576">
        <ele>901.4</ele>
        <time>2021-11-16 12:18:48</time>
      </trkpt>
      <trkpt lat="40.73684" lon="-3.84568">
        <ele>901.2</ele>
        <time>2021-11-16 12:18:49</time>
      </trkpt>
      <trkpt lat="40.73689" lon="-3.8456">
        <ele>901.2</ele>
        <time>2021-11-16 12:18:50</time>
      </trkpt>
      <trkpt lat="40.73693" lon="-3.84552">
        <ele>901.2</ele>
        <time>2021-11-16 12:18:51</time>
      </trkpt>
      <trkpt lat="40.73698" lon="-3.84544">
        <ele>901.2</ele>
        <time>2021-11-16 12:18:52</time>
      </trkpt>
      <trkpt lat="40.73702" lon="-3.84536">
        <ele>901.4</ele>
        <time>2021-11-16 12:18:53</time>
      </trkpt>
      <trkpt lat="40.73707" lon="-3.84528">
        <ele>901.4</ele>
        <time>2021-11-16 12:18:54</time>
      </trkpt>
      <trkpt lat="40.73711" lon="-3.8452">
        <ele>901.2</ele>
        <time>2021-11-16 12:18:55</time>
      </trkpt>
      <trkpt lat="40.73716" lon="-3.84513">
        <ele>901.2</ele>
        <time>2021-11-16 12:18:56</time>
      </trkpt>
      <trkpt lat="40.73721" lon="-3.84505">
        <ele>901.2</ele>
        <time>2021-11-16 12:18:57</time>
      </trkpt>
      <trkpt lat="40.73725" lon="-3.84497">
        <ele>901.4</ele>
        <time>2021-11-16 12:18:58</time>
      </trkpt>
      <trkpt lat="40.7373" lon="-3.8449">
        <ele>901.4</ele>
        <time>2021-11-16 12:18:59</time>
      </trkpt>
      <trkpt lat="40.73735" lon="-3.84483">
        <ele>901.4</ele>
        <time>2021-11-16 12:19:00</time>
      </trkpt>
      <trkpt lat="40.73739" lon="-3.84476">
        <ele>901.4</ele>
        <time>2021-11-16 12:19:01</time>
      </trkpt>
      <trkpt lat="40.73744" lon="-3.84469">
        <ele>901.4</ele>
        <time>2021-11-16 12:19:02</time>
      </trkpt>
      <trkpt lat="40.7375" lon="-3.84462">
        <ele>901.6</ele>
        <time>2021-11-16 12:19:03</time>
      </trkpt>
      <trkpt lat="40.73755" lon="-3.84456">
        <ele>901.6</ele>
        <time>2021-11-16 12:19:04</time>
      </trkpt>
      <trkpt lat="40.7376" lon="-3.84449">
        <ele>901.6</ele>
        <time>2021-11-16 12:19:05</time>
      </trkpt>
      <trkpt lat="40.73766" lon="-3.84442">
        <ele>901.6</ele>
        <time>2021-11-16 12:19:06</time>
      </trkpt>
      <trkpt lat="40.73772" lon="-3.84436">
        <ele>901.6</ele>
        <time>2021-11-16 12:19:07</time>
      </trkpt>
      <trkpt lat="40.73778" lon="-3.8443">
        <ele>901.6</ele>
        <time>2021-11-16 12:19:08</time>
      </trkpt>
      <trkpt lat="40.73784" lon="-3.84425">
        <ele>901.6</ele>
        <time>2021-11-16 12:19:09</time>
      </trkpt>
      <trkpt lat="40.7379" lon="-3.84419">
        <ele>901.8</ele>
        <time>2021-11-16 12:19:10</time>
      </trkpt>
      <trkpt lat="40.73796" lon="-3.84413">
        <ele>902</ele>
        <time>2021-11-16 12:19:11</time>
      </trkpt>
      <trkpt lat="40.73802" lon="-3.84408">
        <ele>902</ele>
        <time>2021-11-16 12:19:12</time>
      </trkpt>
      <trkpt lat="40.73809" lon="-3.84403">
        <ele>902.2</ele>
        <time>2021-11-16 12:19:13</time>
      </trkpt>
      <trkpt lat="40.73815" lon="-3.84398">
        <ele>902</ele>
        <time>2021-11-16 12:19:14</time>
      </trkpt>
      <trkpt lat="40.73821" lon="-3.84392">
        <ele>902</ele>
        <time>2021-11-16 12:19:15</time>
      </trkpt>
      <trkpt lat="40.73828" lon="-3.84387">
        <ele>902</ele>
        <time>2021-11-16 12:19:16</time>
      </trkpt>
      <trkpt lat="40.73834" lon="-3.84382">
        <ele>902</ele>
        <time>2021-11-16 12:19:17</time>
      </trkpt>
      <trkpt lat="40.73841" lon="-3.84378">
        <ele>902</ele>
        <time>2021-11-16 12:19:18</time>
      </trkpt>
      <trkpt lat="40.73848" lon="-3.84373">
        <ele>902.2</ele>
        <time>2021-11-16 12:19:19</time>
      </trkpt>
      <trkpt lat="40.73854" lon="-3.84368">
        <ele>902.2</ele>
        <time>2021-11-16 12:19:20</time>
      </trkpt>
      <trkpt lat="40.73861" lon="-3.84363">
        <ele>902.2</ele>
        <time>2021-11-16 12:19:21</time>
      </trkpt>
      <trkpt lat="40.73868" lon="-3.84358">
        <ele>902.2</ele>
        <time>2021-11-16 12:19:22</time>
      </trkpt>
      <trkpt lat="40.73874" lon="-3.84353">
        <ele>902.2</ele>
        <time>2021-11-16 12:19:23</time>
      </trkpt>
      <trkpt lat="40.73881" lon="-3.84348">
        <ele>902.2</ele>
        <time>2021-11-16 12:19:24</time>
      </trkpt>
      <trkpt lat="40.73888" lon="-3.84342">
        <ele>902</ele>
        <time>2021-11-16 12:19:25</time>
      </trkpt>
      <trkpt lat="40.73894" lon="-3.84337">
        <ele>901.8</ele>
        <time>2021-11-16 12:19:26</time>
      </trkpt>
      <trkpt lat="40.73901" lon="-3.84332">
        <ele>901.8</ele>
        <time>2021-11-16 12:19:27</time>
      </trkpt>
      <trkpt lat="40.73908" lon="-3.84327">
        <ele>901.6</ele>
        <time>2021-11-16 12:19:28</time>
      </trkpt>
      <trkpt lat="40.73914" lon="-3.84322">
        <ele>901.8</ele>
        <time>2021-11-16 12:19:29</time>
      </trkpt>
      <trkpt lat="40.73921" lon="-3.84317">
        <ele>901.6</ele>
        <time>2021-11-16 12:19:30</time>
      </trkpt>
      <trkpt lat="40.73928" lon="-3.84311">
        <ele>901.6</ele>
        <time>2021-11-16 12:19:31</time>
      </trkpt>
      <trkpt lat="40.73934" lon="-3.84305">
        <ele>901.6</ele>
        <time>2021-11-16 12:19:32</time>
      </trkpt>
      <trkpt lat="40.7394" lon="-3.84299">
        <ele>901.8</ele>
        <time>2021-11-16 12:19:33</time>
      </trkpt>
      <trkpt lat="40.73946" lon="-3.84293">
        <ele>901.8</ele>
        <time>2021-11-16 12:19:34</time>
      </trkpt>
      <trkpt lat="40.73952" lon="-3.84286">
        <ele>901.8</ele>
        <time>2021-11-16 12:19:35</time>
      </trkpt>
      <trkpt lat="40.73958" lon="-3.8428">
        <ele>901.8</ele>
        <time>2021-11-16 12:19:36</time>
      </trkpt>
      <trkpt lat="40.73964" lon="-3.84273">
        <ele>901.6</ele>
        <time>2021-11-16 12:19:37</time>
      </trkpt>
      <trkpt lat="40.7397" lon="-3.84266">
        <ele>901.8</ele>
        <time>2021-11-16 12:19:38</time>
      </trkpt>
      <trkpt lat="40.73975" lon="-3.84258">
        <ele>901.8</ele>
        <time>2021-11-16 12:19:39</time>
      </trkpt>
      <trkpt lat="40.7398" lon="-3.8425">
        <ele>901.6</ele>
        <time>2021-11-16 12:19:40</time>
      </trkpt>
      <trkpt lat="40.73985" lon="-3.84242">
        <ele>901.8</ele>
        <time>2021-11-16 12:19:41</time>
      </trkpt>
      <trkpt lat="40.73989" lon="-3.84234">
        <ele>901.8</ele>
        <time>2021-11-16 12:19:42</time>
      </trkpt>
      <trkpt lat="40.73994" lon="-3.84226">
        <ele>901.8</ele>
        <time>2021-11-16 12:19:43</time>
      </trkpt>
      <trkpt lat="40.73998" lon="-3.84217">
        <ele>901.8</ele>
        <time>2021-11-16 12:19:44</time>
      </trkpt>
      <trkpt lat="40.74002" lon="-3.84209">
        <ele>901.8</ele>
        <time>2021-11-16 12:19:45</time>
      </trkpt>
      <trkpt lat="40.74006" lon="-3.842">
        <ele>901.8</ele>
        <time>2021-11-16 12:19:46</time>
      </trkpt>
      <trkpt lat="40.7401" lon="-3.84191">
        <ele>901.8</ele>
        <time>2021-11-16 12:19:47</time>
      </trkpt>
      <trkpt lat="40.74014" lon="-3.84183">
        <ele>901.8</ele>
        <time>2021-11-16 12:19:48</time>
      </trkpt>
      <trkpt lat="40.74017" lon="-3.84174">
        <ele>901.8</ele>
        <time>2021-11-16 12:19:49</time>
      </trkpt>
      <trkpt lat="40.74021" lon="-3.84165">
        <ele>901.8</ele>
        <time>2021-11-16 12:19:50</time>
      </trkpt>
      <trkpt lat="40.74025" lon="-3.84157">
        <ele>901.8</ele>
        <time>2021-11-16 12:19:51</time>
      </trkpt>
      <trkpt lat="40.74028" lon="-3.84148">
        <ele>902</ele>
        <time>2021-11-16 12:19:52</time>
      </trkpt>
      <trkpt lat="40.74032" lon="-3.84139">
        <ele>902</ele>
        <time>2021-11-16 12:19:53</time>
      </trkpt>
      <trkpt lat="40.74036" lon="-3.84131">
        <ele>902</ele>
        <time>2021-11-16 12:19:54</time>
      </trkpt>
      <trkpt lat="40.74039" lon="-3.84122">
        <ele>902</ele>
        <time>2021-11-16 12:19:55</time>
      </trkpt>
      <trkpt lat="40.74043" lon="-3.84113">
        <ele>902.2</ele>
        <time>2021-11-16 12:19:56</time>
      </trkpt>
      <trkpt lat="40.74047" lon="-3.84104">
        <ele>902</ele>
        <time>2021-11-16 12:19:57</time>
      </trkpt>
      <trkpt lat="40.7405" lon="-3.84095">
        <ele>901.8</ele>
        <time>2021-11-16 12:19:58</time>
      </trkpt>
      <trkpt lat="40.74054" lon="-3.84086">
        <ele>901.8</ele>
        <time>2021-11-16 12:19:59</time>
      </trkpt>
      <trkpt lat="40.74057" lon="-3.84077">
        <ele>901.8</ele>
        <time>2021-11-16 12:20:00</time>
      </trkpt>
      <trkpt lat="40.74061" lon="-3.84068">
        <ele>901.8</ele>
        <time>2021-11-16 12:20:01</time>
      </trkpt>
      <trkpt lat="40.74065" lon="-3.8406">
        <ele>902</ele>
        <time>2021-11-16 12:20:02</time>
      </trkpt>
      <trkpt lat="40.74068" lon="-3.84051">
        <ele>901.8</ele>
        <time>2021-11-16 12:20:03</time>
      </trkpt>
      <trkpt lat="40.74072" lon="-3.84042">
        <ele>901.8</ele>
        <time>2021-11-16 12:20:04</time>
      </trkpt>
      <trkpt lat="40.74076" lon="-3.84033">
        <ele>901.8</ele>
        <time>2021-11-16 12:20:05</time>
      </trkpt>
      <trkpt lat="40.74079" lon="-3.84025">
        <ele>901.6</ele>
        <time>2021-11-16 12:20:06</time>
      </trkpt>
      <trkpt lat="40.74083" lon="-3.84016">
        <ele>901.4</ele>
        <time>2021-11-16 12:20:07</time>
      </trkpt>
      <trkpt lat="40.74087" lon="-3.84007">
        <ele>901.4</ele>
        <time>2021-11-16 12:20:08</time>
      </trkpt>
      <trkpt lat="40.7409" lon="-3.83998">
        <ele>901.4</ele>
        <time>2021-11-16 12:20:09</time>
      </trkpt>
      <trkpt lat="40.74094" lon="-3.8399">
        <ele>901.4</ele>
        <time>2021-11-16 12:20:10</time>
      </trkpt>
      <trkpt lat="40.74098" lon="-3.83981">
        <ele>901.4</ele>
        <time>2021-11-16 12:20:11</time>
      </trkpt>
      <trkpt lat="40.74101" lon="-3.83972">
        <ele>901.2</ele>
        <time>2021-11-16 12:20:12</time>
      </trkpt>
      <trkpt lat="40.74105" lon="-3.83964">
        <ele>901.2</ele>
        <time>2021-11-16 12:20:13</time>
      </trkpt>
      <trkpt lat="40.74109" lon="-3.83955">
        <ele>901.2</ele>
        <time>2021-11-16 12:20:14</time>
      </trkpt>
      <trkpt lat="40.74112" lon="-3.83946">
        <ele>901.2</ele>
        <time>2021-11-16 12:20:15</time>
      </trkpt>
      <trkpt lat="40.74116" lon="-3.83938">
        <ele>901.2</ele>
        <time>2021-11-16 12:20:16</time>
      </trkpt>
      <trkpt lat="40.7412" lon="-3.83929">
        <ele>901.2</ele>
        <time>2021-11-16 12:20:17</time>
      </trkpt>
      <trkpt lat="40.74123" lon="-3.8392">
        <ele>901</ele>
        <time>2021-11-16 12:20:18</time>
      </trkpt>
      <trkpt lat="40.74127" lon="-3.83911">
        <ele>901.2</ele>
        <time>2021-11-16 12:20:19</time>
      </trkpt>
      <trkpt lat="40.7413" lon="-3.83902">
        <ele>901.2</ele>
        <time>2021-11-16 12:20:20</time>
      </trkpt>
      <trkpt lat="40.74134" lon="-3.83894">
        <ele>901.2</ele>
        <time>2021-11-16 12:20:21</time>
      </trkpt>
      <trkpt lat="40.74138" lon="-3.83885">
        <ele>901.2</ele>
        <time>2021-11-16 12:20:22</time>
      </trkpt>
      <trkpt lat="40.74141" lon="-3.83876">
        <ele>901</ele>
        <time>2021-11-16 12:20:23</time>
      </trkpt>
      <trkpt lat="40.74145" lon="-3.83867">
        <ele>901.2</ele>
        <time>2021-11-16 12:20:24</time>
      </trkpt>
      <trkpt lat="40.74149" lon="-3.83858">
        <ele>901</ele>
        <time>2021-11-16 12:20:25</time>
      </trkpt>
      <trkpt lat="40.74152" lon="-3.83849">
        <ele>901.2</ele>
        <time>2021-11-16 12:20:26</time>
      </trkpt>
      <trkpt lat="40.74156" lon="-3.8384">
        <ele>901.2</ele>
        <time>2021-11-16 12:20:27</time>
      </trkpt>
      <trkpt lat="40.74159" lon="-3.83831">
        <ele>901.2</ele>
        <time>2021-11-16 12:20:28</time>
      </trkpt>
      <trkpt lat="40.74162" lon="-3.83821">
        <ele>901.2</ele>
        <time>2021-11-16 12:20:29</time>
      </trkpt>
      <trkpt lat="40.74165" lon="-3.83812">
        <ele>901.2</ele>
        <time>2021-11-16 12:20:30</time>
      </trkpt>
      <trkpt lat="40.74168" lon="-3.83803">
        <ele>901.2</ele>
        <time>2021-11-16 12:20:31</time>
      </trkpt>
      <trkpt lat="40.74171" lon="-3.83793">
        <ele>901.2</ele>
        <time>2021-11-16 12:20:32</time>
      </trkpt>
      <trkpt lat="40.74173" lon="-3.83783">
        <ele>901</ele>
        <time>2021-11-16 12:20:33</time>
      </trkpt>
      <trkpt lat="40.74176" lon="-3.83774">
        <ele>900.8</ele>
        <time>2021-11-16 12:20:34</time>
      </trkpt>
      <trkpt lat="40.74177" lon="-3.83764">
        <ele>900.8</ele>
        <time>2021-11-16 12:20:35</time>
      </trkpt>
      <trkpt lat="40.74179" lon="-3.83753">
        <ele>900.8</ele>
        <time>2021-11-16 12:20:36</time>
      </trkpt>
      <trkpt lat="40.7418" lon="-3.83743">
        <ele>900.8</ele>
        <time>2021-11-16 12:20:37</time>
      </trkpt>
      <trkpt lat="40.74181" lon="-3.83733">
        <ele>900.8</ele>
        <time>2021-11-16 12:20:38</time>
      </trkpt>
      <trkpt lat="40.74181" lon="-3.83722">
        <ele>900.8</ele>
        <time>2021-11-16 12:20:39</time>
      </trkpt>
      <trkpt lat="40.74181" lon="-3.83712">
        <ele>900.8</ele>
        <time>2021-11-16 12:20:40</time>
      </trkpt>
      <trkpt lat="40.74181" lon="-3.83701">
        <ele>901</ele>
        <time>2021-11-16 12:20:41</time>
      </trkpt>
      <trkpt lat="40.7418" lon="-3.83691">
        <ele>901</ele>
        <time>2021-11-16 12:20:42</time>
      </trkpt>
      <trkpt lat="40.74179" lon="-3.8368">
        <ele>901</ele>
        <time>2021-11-16 12:20:43</time>
      </trkpt>
      <trkpt lat="40.74178" lon="-3.8367">
        <ele>901</ele>
        <time>2021-11-16 12:20:44</time>
      </trkpt>
      <trkpt lat="40.74177" lon="-3.83659">
        <ele>901</ele>
        <time>2021-11-16 12:20:45</time>
      </trkpt>
      <trkpt lat="40.74175" lon="-3.83649">
        <ele>901</ele>
        <time>2021-11-16 12:20:46</time>
      </trkpt>
      <trkpt lat="40.74174" lon="-3.83639">
        <ele>901</ele>
        <time>2021-11-16 12:20:47</time>
      </trkpt>
      <trkpt lat="40.74172" lon="-3.83629">
        <ele>900.8</ele>
        <time>2021-11-16 12:20:48</time>
      </trkpt>
      <trkpt lat="40.74171" lon="-3.83619">
        <ele>900.8</ele>
        <time>2021-11-16 12:20:49</time>
      </trkpt>
      <trkpt lat="40.74169" lon="-3.83609">
        <ele>900.8</ele>
        <time>2021-11-16 12:20:50</time>
      </trkpt>
      <trkpt lat="40.74167" lon="-3.836">
        <ele>900.8</ele>
        <time>2021-11-16 12:20:51</time>
      </trkpt>
      <trkpt lat="40.74166" lon="-3.8359">
        <ele>900.6</ele>
        <time>2021-11-16 12:20:52</time>
      </trkpt>
      <trkpt lat="40.74164" lon="-3.8358">
        <ele>900.8</ele>
        <time>2021-11-16 12:20:53</time>
      </trkpt>
      <trkpt lat="40.74163" lon="-3.8357">
        <ele>901</ele>
        <time>2021-11-16 12:20:54</time>
      </trkpt>
      <trkpt lat="40.74161" lon="-3.8356">
        <ele>901</ele>
        <time>2021-11-16 12:20:55</time>
      </trkpt>
      <trkpt lat="40.74159" lon="-3.8355">
        <ele>901</ele>
        <time>2021-11-16 12:20:56</time>
      </trkpt>
      <trkpt lat="40.74157" lon="-3.8354">
        <ele>901</ele>
        <time>2021-11-16 12:20:57</time>
      </trkpt>
      <trkpt lat="40.74155" lon="-3.8353">
        <ele>901.2</ele>
        <time>2021-11-16 12:20:58</time>
      </trkpt>
      <trkpt lat="40.74153" lon="-3.8352">
        <ele>901</ele>
        <time>2021-11-16 12:20:59</time>
      </trkpt>
      <trkpt lat="40.74152" lon="-3.8351">
        <ele>901</ele>
        <time>2021-11-16 12:21:00</time>
      </trkpt>
      <trkpt lat="40.74149" lon="-3.835">
        <ele>901</ele>
        <time>2021-11-16 12:21:01</time>
      </trkpt>
      <trkpt lat="40.74147" lon="-3.8349">
        <ele>901</ele>
        <time>2021-11-16 12:21:02</time>
      </trkpt>
      <trkpt lat="40.74145" lon="-3.8348">
        <ele>901</ele>
        <time>2021-11-16 12:21:03</time>
      </trkpt>
      <trkpt lat="40.74142" lon="-3.83471">
        <ele>901</ele>
        <time>2021-11-16 12:21:04</time>
      </trkpt>
      <trkpt lat="40.7414" lon="-3.83461">
        <ele>901</ele>
        <time>2021-11-16 12:21:05</time>
      </trkpt>
      <trkpt lat="40.74138" lon="-3.83452">
        <ele>901</ele>
        <time>2021-11-16 12:21:06</time>
      </trkpt>
      <trkpt lat="40.74136" lon="-3.83442">
        <ele>901</ele>
        <time>2021-11-16 12:21:07</time>
      </trkpt>
      <trkpt lat="40.74134" lon="-3.83432">
        <ele>901</ele>
        <time>2021-11-16 12:21:08</time>
      </trkpt>
      <trkpt lat="40.74133" lon="-3.83423">
        <ele>901.2</ele>
        <time>2021-11-16 12:21:09</time>
      </trkpt>
      <trkpt lat="40.74132" lon="-3.83413">
        <ele>901</ele>
        <time>2021-11-16 12:21:10</time>
      </trkpt>
      <trkpt lat="40.74131" lon="-3.83403">
        <ele>901.4</ele>
        <time>2021-11-16 12:21:11</time>
      </trkpt>
      <trkpt lat="40.7413" lon="-3.83393">
        <ele>901.4</ele>
        <time>2021-11-16 12:21:12</time>
      </trkpt>
      <trkpt lat="40.7413" lon="-3.83384">
        <ele>901.2</ele>
        <time>2021-11-16 12:21:13</time>
      </trkpt>
      <trkpt lat="40.7413" lon="-3.83374">
        <ele>901.4</ele>
        <time>2021-11-16 12:21:14</time>
      </trkpt>
      <trkpt lat="40.74129" lon="-3.83364">
        <ele>901.4</ele>
        <time>2021-11-16 12:21:15</time>
      </trkpt>
      <trkpt lat="40.7413" lon="-3.83354">
        <ele>901.2</ele>
        <time>2021-11-16 12:21:16</time>
      </trkpt>
      <trkpt lat="40.7413" lon="-3.83345">
        <ele>901.2</ele>
        <time>2021-11-16 12:21:17</time>
      </trkpt>
      <trkpt lat="40.7413" lon="-3.83335">
        <ele>901.4</ele>
        <time>2021-11-16 12:21:18</time>
      </trkpt>
      <trkpt lat="40.74131" lon="-3.83325">
        <ele>901.2</ele>
        <time>2021-11-16 12:21:19</time>
      </trkpt>
      <trkpt lat="40.74131" lon="-3.83315">
        <ele>901.2</ele>
        <time>2021-11-16 12:21:20</time>
      </trkpt>
      <trkpt lat="40.74132" lon="-3.83305">
        <ele>901.2</ele>
        <time>2021-11-16 12:21:21</time>
      </trkpt>
      <trkpt lat="40.74133" lon="-3.83295">
        <ele>901</ele>
        <time>2021-11-16 12:21:22</time>
      </trkpt>
      <trkpt lat="40.74133" lon="-3.83285">
        <ele>901</ele>
        <time>2021-11-16 12:21:23</time>
      </trkpt>
      <trkpt lat="40.74135" lon="-3.83275">
        <ele>901</ele>
        <time>2021-11-16 12:21:24</time>
      </trkpt>
      <trkpt lat="40.74136" lon="-3.83266">
        <ele>901</ele>
        <time>2021-11-16 12:21:25</time>
      </trkpt>
      <trkpt lat="40.74138" lon="-3.83256">
        <ele>901</ele>
        <time>2021-11-16 12:21:26</time>
      </trkpt>
      <trkpt lat="40.74139" lon="-3.83246">
        <ele>901</ele>
        <time>2021-11-16 12:21:27</time>
      </trkpt>
      <trkpt lat="40.74141" lon="-3.83236">
        <ele>901</ele>
        <time>2021-11-16 12:21:28</time>
      </trkpt>
      <trkpt lat="40.74143" lon="-3.83226">
        <ele>901</ele>
        <time>2021-11-16 12:21:29</time>
      </trkpt>
      <trkpt lat="40.74145" lon="-3.83217">
        <ele>900.8</ele>
        <time>2021-11-16 12:21:30</time>
      </trkpt>
      <trkpt lat="40.74147" lon="-3.83207">
        <ele>901</ele>
        <time>2021-11-16 12:21:31</time>
      </trkpt>
      <trkpt lat="40.74149" lon="-3.83197">
        <ele>901</ele>
        <time>2021-11-16 12:21:32</time>
      </trkpt>
      <trkpt lat="40.74151" lon="-3.83188">
        <ele>901</ele>
        <time>2021-11-16 12:21:33</time>
      </trkpt>
      <trkpt lat="40.74153" lon="-3.83178">
        <ele>901</ele>
        <time>2021-11-16 12:21:34</time>
      </trkpt>
      <trkpt lat="40.74155" lon="-3.83168">
        <ele>901</ele>
        <time>2021-11-16 12:21:35</time>
      </trkpt>
      <trkpt lat="40.74157" lon="-3.83158">
        <ele>901</ele>
        <time>2021-11-16 12:21:36</time>
      </trkpt>
      <trkpt lat="40.74159" lon="-3.83148">
        <ele>900.8</ele>
        <time>2021-11-16 12:21:37</time>
      </trkpt>
      <trkpt lat="40.74161" lon="-3.83138">
        <ele>900.8</ele>
        <time>2021-11-16 12:21:38</time>
      </trkpt>
      <trkpt lat="40.74163" lon="-3.83128">
        <ele>900.6</ele>
        <time>2021-11-16 12:21:39</time>
      </trkpt>
      <trkpt lat="40.74165" lon="-3.83119">
        <ele>900.6</ele>
        <time>2021-11-16 12:21:40</time>
      </trkpt>
      <trkpt lat="40.74167" lon="-3.83109">
        <ele>900.4</ele>
        <time>2021-11-16 12:21:41</time>
      </trkpt>
      <trkpt lat="40.74169" lon="-3.83099">
        <ele>900.4</ele>
        <time>2021-11-16 12:21:42</time>
      </trkpt>
      <trkpt lat="40.74171" lon="-3.8309">
        <ele>900.4</ele>
        <time>2021-11-16 12:21:43</time>
      </trkpt>
      <trkpt lat="40.74173" lon="-3.8308">
        <ele>900.6</ele>
        <time>2021-11-16 12:21:44</time>
      </trkpt>
      <trkpt lat="40.74175" lon="-3.8307">
        <ele>900.4</ele>
        <time>2021-11-16 12:21:45</time>
      </trkpt>
      <trkpt lat="40.74177" lon="-3.83061">
        <ele>900.4</ele>
        <time>2021-11-16 12:21:46</time>
      </trkpt>
      <trkpt lat="40.74179" lon="-3.83051">
        <ele>900.4</ele>
        <time>2021-11-16 12:21:47</time>
      </trkpt>
      <trkpt lat="40.74181" lon="-3.83042">
        <ele>900.4</ele>
        <time>2021-11-16 12:21:48</time>
      </trkpt>
      <trkpt lat="40.74182" lon="-3.83032">
        <ele>900.4</ele>
        <time>2021-11-16 12:21:49</time>
      </trkpt>
      <trkpt lat="40.74184" lon="-3.83022">
        <ele>900.2</ele>
        <time>2021-11-16 12:21:50</time>
      </trkpt>
      <trkpt lat="40.74186" lon="-3.83013">
        <ele>900.2</ele>
        <time>2021-11-16 12:21:51</time>
      </trkpt>
      <trkpt lat="40.74187" lon="-3.83003">
        <ele>900.2</ele>
        <time>2021-11-16 12:21:52</time>
      </trkpt>
      <trkpt lat="40.74188" lon="-3.82993">
        <ele>900.2</ele>
        <time>2021-11-16 12:21:53</time>
      </trkpt>
      <trkpt lat="40.7419" lon="-3.82984">
        <ele>900.2</ele>
        <time>2021-11-16 12:21:54</time>
      </trkpt>
      <trkpt lat="40.74191" lon="-3.82974">
        <ele>900.2</ele>
        <time>2021-11-16 12:21:55</time>
      </trkpt>
      <trkpt lat="40.74192" lon="-3.82964">
        <ele>900</ele>
        <time>2021-11-16 12:21:56</time>
      </trkpt>
      <trkpt lat="40.74192" lon="-3.82954">
        <ele>900.2</ele>
        <time>2021-11-16 12:21:57</time>
      </trkpt>
      <trkpt lat="40.74193" lon="-3.82944">
        <ele>900.2</ele>
        <time>2021-11-16 12:21:58</time>
      </trkpt>
      <trkpt lat="40.74193" lon="-3.82934">
        <ele>900.2</ele>
        <time>2021-11-16 12:21:59</time>
      </trkpt>
      <trkpt lat="40.74194" lon="-3.82924">
        <ele>900.2</ele>
        <time>2021-11-16 12:22:00</time>
      </trkpt>
      <trkpt lat="40.74194" lon="-3.82914">
        <ele>900.2</ele>
        <time>2021-11-16 12:22:01</time>
      </trkpt>
      <trkpt lat="40.74194" lon="-3.82905">
        <ele>900.2</ele>
        <time>2021-11-16 12:22:02</time>
      </trkpt>
      <trkpt lat="40.74193" lon="-3.82895">
        <ele>900.2</ele>
        <time>2021-11-16 12:22:03</time>
      </trkpt>
      <trkpt lat="40.74193" lon="-3.82885">
        <ele>900</ele>
        <time>2021-11-16 12:22:04</time>
      </trkpt>
      <trkpt lat="40.74192" lon="-3.82875">
        <ele>900</ele>
        <time>2021-11-16 12:22:05</time>
      </trkpt>
      <trkpt lat="40.74191" lon="-3.82865">
        <ele>900</ele>
        <time>2021-11-16 12:22:06</time>
      </trkpt>
      <trkpt lat="40.7419" lon="-3.82855">
        <ele>900</ele>
        <time>2021-11-16 12:22:07</time>
      </trkpt>
      <trkpt lat="40.74189" lon="-3.82846">
        <ele>900</ele>
        <time>2021-11-16 12:22:08</time>
      </trkpt>
      <trkpt lat="40.74188" lon="-3.82836">
        <ele>900</ele>
        <time>2021-11-16 12:22:09</time>
      </trkpt>
      <trkpt lat="40.74187" lon="-3.82827">
        <ele>900</ele>
        <time>2021-11-16 12:22:10</time>
      </trkpt>
      <trkpt lat="40.74185" lon="-3.82817">
        <ele>900.2</ele>
        <time>2021-11-16 12:22:11</time>
      </trkpt>
      <trkpt lat="40.74183" lon="-3.82808">
        <ele>900</ele>
        <time>2021-11-16 12:22:12</time>
      </trkpt>
      <trkpt lat="40.74181" lon="-3.82799">
        <ele>900</ele>
        <time>2021-11-16 12:22:13</time>
      </trkpt>
      <trkpt lat="40.7418" lon="-3.8279">
        <ele>900</ele>
        <time>2021-11-16 12:22:14</time>
      </trkpt>
      <trkpt lat="40.74178" lon="-3.82781">
        <ele>900</ele>
        <time>2021-11-16 12:22:15</time>
      </trkpt>
      <trkpt lat="40.74175" lon="-3.82771">
        <ele>900</ele>
        <time>2021-11-16 12:22:16</time>
      </trkpt>
      <trkpt lat="40.74173" lon="-3.82762">
        <ele>899.8</ele>
        <time>2021-11-16 12:22:17</time>
      </trkpt>
      <trkpt lat="40.7417" lon="-3.82754">
        <ele>900</ele>
        <time>2021-11-16 12:22:18</time>
      </trkpt>
      <trkpt lat="40.74167" lon="-3.82745">
        <ele>899.8</ele>
        <time>2021-11-16 12:22:19</time>
      </trkpt>
      <trkpt lat="40.74164" lon="-3.82736">
        <ele>899.8</ele>
        <time>2021-11-16 12:22:20</time>
      </trkpt>
      <trkpt lat="40.74161" lon="-3.82728">
        <ele>899.8</ele>
        <time>2021-11-16 12:22:21</time>
      </trkpt>
      <trkpt lat="40.74158" lon="-3.82719">
        <ele>899.6</ele>
        <time>2021-11-16 12:22:22</time>
      </trkpt>
      <trkpt lat="40.74155" lon="-3.82711">
        <ele>899.6</ele>
        <time>2021-11-16 12:22:23</time>
      </trkpt>
      <trkpt lat="40.74151" lon="-3.82702">
        <ele>899.6</ele>
        <time>2021-11-16 12:22:24</time>
      </trkpt>
      <trkpt lat="40.74148" lon="-3.82694">
        <ele>899.4</ele>
        <time>2021-11-16 12:22:25</time>
      </trkpt>
      <trkpt lat="40.74144" lon="-3.82686">
        <ele>899.4</ele>
        <time>2021-11-16 12:22:26</time>
      </trkpt>
      <trkpt lat="40.7414" lon="-3.82678">
        <ele>899.6</ele>
        <time>2021-11-16 12:22:27</time>
      </trkpt>
      <trkpt lat="40.74136" lon="-3.8267">
        <ele>899.4</ele>
        <time>2021-11-16 12:22:28</time>
      </trkpt>
      <trkpt lat="40.74132" lon="-3.82662">
        <ele>899.6</ele>
        <time>2021-11-16 12:22:29</time>
      </trkpt>
      <trkpt lat="40.74128" lon="-3.82654">
        <ele>899.6</ele>
        <time>2021-11-16 12:22:30</time>
      </trkpt>
      <trkpt lat="40.74124" lon="-3.82647">
        <ele>899.4</ele>
        <time>2021-11-16 12:22:31</time>
      </trkpt>
      <trkpt lat="40.74119" lon="-3.82639">
        <ele>899.6</ele>
        <time>2021-11-16 12:22:32</time>
      </trkpt>
      <trkpt lat="40.74115" lon="-3.82632">
        <ele>899.6</ele>
        <time>2021-11-16 12:22:33</time>
      </trkpt>
      <trkpt lat="40.7411" lon="-3.82624">
        <ele>899.6</ele>
        <time>2021-11-16 12:22:34</time>
      </trkpt>
      <trkpt lat="40.74105" lon="-3.82617">
        <ele>899.6</ele>
        <time>2021-11-16 12:22:35</time>
      </trkpt>
      <trkpt lat="40.741" lon="-3.8261">
        <ele>899.4</ele>
        <time>2021-11-16 12:22:36</time>
      </trkpt>
      <trkpt lat="40.74094" lon="-3.82603">
        <ele>899.6</ele>
        <time>2021-11-16 12:22:37</time>
      </trkpt>
      <trkpt lat="40.74089" lon="-3.82596">
        <ele>899.4</ele>
        <time>2021-11-16 12:22:38</time>
      </trkpt>
      <trkpt lat="40.74084" lon="-3.8259">
        <ele>899.4</ele>
        <time>2021-11-16 12:22:39</time>
      </trkpt>
      <trkpt lat="40.74078" lon="-3.82583">
        <ele>899.4</ele>
        <time>2021-11-16 12:22:40</time>
      </trkpt>
      <trkpt lat="40.74073" lon="-3.82576">
        <ele>899.4</ele>
        <time>2021-11-16 12:22:41</time>
      </trkpt>
      <trkpt lat="40.74068" lon="-3.8257">
        <ele>899.6</ele>
        <time>2021-11-16 12:22:42</time>
      </trkpt>
      <trkpt lat="40.74062" lon="-3.82564">
        <ele>899.6</ele>
        <time>2021-11-16 12:22:43</time>
      </trkpt>
      <trkpt lat="40.74057" lon="-3.82558">
        <ele>899.6</ele>
        <time>2021-11-16 12:22:44</time>
      </trkpt>
      <trkpt lat="40.74051" lon="-3.82551">
        <ele>899.4</ele>
        <time>2021-11-16 12:22:45</time>
      </trkpt>
      <trkpt lat="40.74045" lon="-3.82545">
        <ele>899.4</ele>
        <time>2021-11-16 12:22:46</time>
      </trkpt>
      <trkpt lat="40.7404" lon="-3.82539">
        <ele>899.4</ele>
        <time>2021-11-16 12:22:47</time>
      </trkpt>
      <trkpt lat="40.74034" lon="-3.82533">
        <ele>899.4</ele>
        <time>2021-11-16 12:22:48</time>
      </trkpt>
      <trkpt lat="40.74028" lon="-3.82527">
        <ele>899.4</ele>
        <time>2021-11-16 12:22:49</time>
      </trkpt>
      <trkpt lat="40.74023" lon="-3.82521">
        <ele>899.2</ele>
        <time>2021-11-16 12:22:50</time>
      </trkpt>
      <trkpt lat="40.74017" lon="-3.82515">
        <ele>899.4</ele>
        <time>2021-11-16 12:22:51</time>
      </trkpt>
      <trkpt lat="40.74011" lon="-3.82509">
        <ele>899.2</ele>
        <time>2021-11-16 12:22:52</time>
      </trkpt>
      <trkpt lat="40.74006" lon="-3.82503">
        <ele>899.2</ele>
        <time>2021-11-16 12:22:53</time>
      </trkpt>
      <trkpt lat="40.74" lon="-3.82497">
        <ele>899</ele>
        <time>2021-11-16 12:22:54</time>
      </trkpt>
      <trkpt lat="40.73994" lon="-3.82491">
        <ele>899.2</ele>
        <time>2021-11-16 12:22:55</time>
      </trkpt>
      <trkpt lat="40.73989" lon="-3.82485">
        <ele>899.2</ele>
        <time>2021-11-16 12:22:56</time>
      </trkpt>
      <trkpt lat="40.73983" lon="-3.82479">
        <ele>899</ele>
        <time>2021-11-16 12:22:57</time>
      </trkpt>
      <trkpt lat="40.73977" lon="-3.82473">
        <ele>899</ele>
        <time>2021-11-16 12:22:58</time>
      </trkpt>
      <trkpt lat="40.73972" lon="-3.82467">
        <ele>899.2</ele>
        <time>2021-11-16 12:22:59</time>
      </trkpt>
      <trkpt lat="40.73966" lon="-3.82461">
        <ele>899</ele>
        <time>2021-11-16 12:23:00</time>
      </trkpt>
      <trkpt lat="40.73961" lon="-3.82455">
        <ele>899</ele>
        <time>2021-11-16 12:23:01</time>
      </trkpt>
      <trkpt lat="40.73955" lon="-3.82448">
        <ele>898.8</ele>
        <time>2021-11-16 12:23:02</time>
      </trkpt>
      <trkpt lat="40.7395" lon="-3.82442">
        <ele>898.8</ele>
        <time>2021-11-16 12:23:03</time>
      </trkpt>
      <trkpt lat="40.73944" lon="-3.82436">
        <ele>899</ele>
        <time>2021-11-16 12:23:04</time>
      </trkpt>
      <trkpt lat="40.73938" lon="-3.8243">
        <ele>899.2</ele>
        <time>2021-11-16 12:23:05</time>
      </trkpt>
      <trkpt lat="40.73933" lon="-3.82424">
        <ele>899.2</ele>
        <time>2021-11-16 12:23:06</time>
      </trkpt>
      <trkpt lat="40.73927" lon="-3.82418">
        <ele>899</ele>
        <time>2021-11-16 12:23:07</time>
      </trkpt>
      <trkpt lat="40.73922" lon="-3.82411">
        <ele>899</ele>
        <time>2021-11-16 12:23:08</time>
      </trkpt>
      <trkpt lat="40.73916" lon="-3.82405">
        <ele>899.2</ele>
        <time>2021-11-16 12:23:09</time>
      </trkpt>
      <trkpt lat="40.73911" lon="-3.82399">
        <ele>899.2</ele>
        <time>2021-11-16 12:23:10</time>
      </trkpt>
      <trkpt lat="40.73905" lon="-3.82392">
        <ele>899.2</ele>
        <time>2021-11-16 12:23:11</time>
      </trkpt>
      <trkpt lat="40.739" lon="-3.82386">
        <ele>899.2</ele>
        <time>2021-11-16 12:23:12</time>
      </trkpt>
      <trkpt lat="40.73895" lon="-3.82379">
        <ele>899.2</ele>
        <time>2021-11-16 12:23:13</time>
      </trkpt>
      <trkpt lat="40.7389" lon="-3.82373">
        <ele>899.2</ele>
        <time>2021-11-16 12:23:14</time>
      </trkpt>
      <trkpt lat="40.73885" lon="-3.82366">
        <ele>899.2</ele>
        <time>2021-11-16 12:23:15</time>
      </trkpt>
      <trkpt lat="40.7388" lon="-3.82359">
        <ele>899.2</ele>
        <time>2021-11-16 12:23:16</time>
      </trkpt>
      <trkpt lat="40.73875" lon="-3.82352">
        <ele>899.2</ele>
        <time>2021-11-16 12:23:17</time>
      </trkpt>
      <trkpt lat="40.7387" lon="-3.82344">
        <ele>899.2</ele>
        <time>2021-11-16 12:23:18</time>
      </trkpt>
      <trkpt lat="40.73866" lon="-3.82337">
        <ele>899.2</ele>
        <time>2021-11-16 12:23:19</time>
      </trkpt>
      <trkpt lat="40.73861" lon="-3.82329">
        <ele>899.4</ele>
        <time>2021-11-16 12:23:20</time>
      </trkpt>
      <trkpt lat="40.73857" lon="-3.82322">
        <ele>899.2</ele>
        <time>2021-11-16 12:23:21</time>
      </trkpt>
      <trkpt lat="40.73853" lon="-3.82314">
        <ele>899.2</ele>
        <time>2021-11-16 12:23:22</time>
      </trkpt>
      <trkpt lat="40.73848" lon="-3.82306">
        <ele>899.2</ele>
        <time>2021-11-16 12:23:23</time>
      </trkpt>
      <trkpt lat="40.73844" lon="-3.82298">
        <ele>899.2</ele>
        <time>2021-11-16 12:23:24</time>
      </trkpt>
      <trkpt lat="40.7384" lon="-3.8229">
        <ele>899.2</ele>
        <time>2021-11-16 12:23:25</time>
      </trkpt>
      <trkpt lat="40.73836" lon="-3.82282">
        <ele>899.2</ele>
        <time>2021-11-16 12:23:26</time>
      </trkpt>
      <trkpt lat="40.73832" lon="-3.82274">
        <ele>899.2</ele>
        <time>2021-11-16 12:23:27</time>
      </trkpt>
      <trkpt lat="40.73828" lon="-3.82266">
        <ele>899.2</ele>
        <time>2021-11-16 12:23:28</time>
      </trkpt>
      <trkpt lat="40.73825" lon="-3.82257">
        <ele>899.2</ele>
        <time>2021-11-16 12:23:29</time>
      </trkpt>
      <trkpt lat="40.73821" lon="-3.82249">
        <ele>899.2</ele>
        <time>2021-11-16 12:23:30</time>
      </trkpt>
      <trkpt lat="40.73818" lon="-3.8224">
        <ele>899.2</ele>
        <time>2021-11-16 12:23:31</time>
      </trkpt>
      <trkpt lat="40.73815" lon="-3.82231">
        <ele>899.2</ele>
        <time>2021-11-16 12:23:32</time>
      </trkpt>
      <trkpt lat="40.73812" lon="-3.82222">
        <ele>899.2</ele>
        <time>2021-11-16 12:23:33</time>
      </trkpt>
      <trkpt lat="40.73809" lon="-3.82213">
        <ele>899.2</ele>
        <time>2021-11-16 12:23:34</time>
      </trkpt>
      <trkpt lat="40.73806" lon="-3.82204">
        <ele>899.4</ele>
        <time>2021-11-16 12:23:35</time>
      </trkpt>
      <trkpt lat="40.73803" lon="-3.82194">
        <ele>899.6</ele>
        <time>2021-11-16 12:23:36</time>
      </trkpt>
      <trkpt lat="40.73801" lon="-3.82185">
        <ele>899.8</ele>
        <time>2021-11-16 12:23:37</time>
      </trkpt>
      <trkpt lat="40.73798" lon="-3.82175">
        <ele>899.8</ele>
        <time>2021-11-16 12:23:38</time>
      </trkpt>
      <trkpt lat="40.73796" lon="-3.82166">
        <ele>899.8</ele>
        <time>2021-11-16 12:23:39</time>
      </trkpt>
      <trkpt lat="40.73794" lon="-3.82156">
        <ele>899.8</ele>
        <time>2021-11-16 12:23:40</time>
      </trkpt>
      <trkpt lat="40.73792" lon="-3.82147">
        <ele>900</ele>
        <time>2021-11-16 12:23:41</time>
      </trkpt>
      <trkpt lat="40.7379" lon="-3.82137">
        <ele>900</ele>
        <time>2021-11-16 12:23:42</time>
      </trkpt>
      <trkpt lat="40.73789" lon="-3.82128">
        <ele>900</ele>
        <time>2021-11-16 12:23:43</time>
      </trkpt>
      <trkpt lat="40.73787" lon="-3.82118">
        <ele>900</ele>
        <time>2021-11-16 12:23:44</time>
      </trkpt>
      <trkpt lat="40.73786" lon="-3.82108">
        <ele>900</ele>
        <time>2021-11-16 12:23:45</time>
      </trkpt>
      <trkpt lat="40.73785" lon="-3.82099">
        <ele>900.2</ele>
        <time>2021-11-16 12:23:46</time>
      </trkpt>
      <trkpt lat="40.73784" lon="-3.82089">
        <ele>900</ele>
        <time>2021-11-16 12:23:47</time>
      </trkpt>
      <trkpt lat="40.73783" lon="-3.82079">
        <ele>900</ele>
        <time>2021-11-16 12:23:48</time>
      </trkpt>
      <trkpt lat="40.73783" lon="-3.82069">
        <ele>900</ele>
        <time>2021-11-16 12:23:49</time>
      </trkpt>
      <trkpt lat="40.73782" lon="-3.82059">
        <ele>900</ele>
        <time>2021-11-16 12:23:50</time>
      </trkpt>
      <trkpt lat="40.73782" lon="-3.82049">
        <ele>900</ele>
        <time>2021-11-16 12:23:51</time>
      </trkpt>
      <trkpt lat="40.73782" lon="-3.82039">
        <ele>900</ele>
        <time>2021-11-16 12:23:52</time>
      </trkpt>
      <trkpt lat="40.73782" lon="-3.82029">
        <ele>899.8</ele>
        <time>2021-11-16 12:23:53</time>
      </trkpt>
      <trkpt lat="40.73782" lon="-3.82019">
        <ele>899.8</ele>
        <time>2021-11-16 12:23:54</time>
      </trkpt>
      <trkpt lat="40.73782" lon="-3.82009">
        <ele>899.8</ele>
        <time>2021-11-16 12:23:55</time>
      </trkpt>
      <trkpt lat="40.73782" lon="-3.81999">
        <ele>899.6</ele>
        <time>2021-11-16 12:23:56</time>
      </trkpt>
      <trkpt lat="40.73783" lon="-3.81989">
        <ele>899.6</ele>
        <time>2021-11-16 12:23:57</time>
      </trkpt>
      <trkpt lat="40.73783" lon="-3.81979">
        <ele>899.6</ele>
        <time>2021-11-16 12:23:58</time>
      </trkpt>
      <trkpt lat="40.73784" lon="-3.81969">
        <ele>899.4</ele>
        <time>2021-11-16 12:23:59</time>
      </trkpt>
      <trkpt lat="40.73785" lon="-3.81959">
        <ele>899.4</ele>
        <time>2021-11-16 12:24:00</time>
      </trkpt>
      <trkpt lat="40.73786" lon="-3.81949">
        <ele>899.4</ele>
        <time>2021-11-16 12:24:01</time>
      </trkpt>
      <trkpt lat="40.73787" lon="-3.81939">
        <ele>899.2</ele>
        <time>2021-11-16 12:24:02</time>
      </trkpt>
      <trkpt lat="40.73788" lon="-3.8193">
        <ele>899.2</ele>
        <time>2021-11-16 12:24:03</time>
      </trkpt>
      <trkpt lat="40.7379" lon="-3.8192">
        <ele>899.2</ele>
        <time>2021-11-16 12:24:04</time>
      </trkpt>
      <trkpt lat="40.73791" lon="-3.8191">
        <ele>899.2</ele>
        <time>2021-11-16 12:24:05</time>
      </trkpt>
      <trkpt lat="40.73793" lon="-3.81901">
        <ele>899.2</ele>
        <time>2021-11-16 12:24:06</time>
      </trkpt>
      <trkpt lat="40.73795" lon="-3.81891">
        <ele>899</ele>
        <time>2021-11-16 12:24:07</time>
      </trkpt>
      <trkpt lat="40.73797" lon="-3.81882">
        <ele>898.8</ele>
        <time>2021-11-16 12:24:08</time>
      </trkpt>
      <trkpt lat="40.73799" lon="-3.81872">
        <ele>898.8</ele>
        <time>2021-11-16 12:24:09</time>
      </trkpt>
      <trkpt lat="40.73802" lon="-3.81863">
        <ele>898.6</ele>
        <time>2021-11-16 12:24:10</time>
      </trkpt>
      <trkpt lat="40.73804" lon="-3.81854">
        <ele>898.6</ele>
        <time>2021-11-16 12:24:11</time>
      </trkpt>
      <trkpt lat="40.73807" lon="-3.81845">
        <ele>898.6</ele>
        <time>2021-11-16 12:24:12</time>
      </trkpt>
      <trkpt lat="40.73809" lon="-3.81836">
        <ele>898.8</ele>
        <time>2021-11-16 12:24:13</time>
      </trkpt>
      <trkpt lat="40.73812" lon="-3.81827">
        <ele>898.8</ele>
        <time>2021-11-16 12:24:14</time>
      </trkpt>
      <trkpt lat="40.73815" lon="-3.81817">
        <ele>898.6</ele>
        <time>2021-11-16 12:24:15</time>
      </trkpt>
      <trkpt lat="40.73818" lon="-3.81808">
        <ele>898.6</ele>
        <time>2021-11-16 12:24:16</time>
      </trkpt>
      <trkpt lat="40.73821" lon="-3.81799">
        <ele>898.8</ele>
        <time>2021-11-16 12:24:17</time>
      </trkpt>
      <trkpt lat="40.73824" lon="-3.8179">
        <ele>898.6</ele>
        <time>2021-11-16 12:24:18</time>
      </trkpt>
      <trkpt lat="40.73828" lon="-3.81781">
        <ele>898.6</ele>
        <time>2021-11-16 12:24:19</time>
      </trkpt>
      <trkpt lat="40.73831" lon="-3.81772">
        <ele>898.6</ele>
        <time>2021-11-16 12:24:20</time>
      </trkpt>
      <trkpt lat="40.73834" lon="-3.81763">
        <ele>898.4</ele>
        <time>2021-11-16 12:24:21</time>
      </trkpt>
      <trkpt lat="40.73838" lon="-3.81754">
        <ele>898.4</ele>
        <time>2021-11-16 12:24:22</time>
      </trkpt>
      <trkpt lat="40.73841" lon="-3.81745">
        <ele>898</ele>
        <time>2021-11-16 12:24:23</time>
      </trkpt>
      <trkpt lat="40.73845" lon="-3.81736">
        <ele>898.2</ele>
        <time>2021-11-16 12:24:24</time>
      </trkpt>
      <trkpt lat="40.73848" lon="-3.81727">
        <ele>898</ele>
        <time>2021-11-16 12:24:25</time>
      </trkpt>
      <trkpt lat="40.73852" lon="-3.81718">
        <ele>898</ele>
        <time>2021-11-16 12:24:26</time>
      </trkpt>
      <trkpt lat="40.73855" lon="-3.81708">
        <ele>897.8</ele>
        <time>2021-11-16 12:24:27</time>
      </trkpt>
      <trkpt lat="40.73858" lon="-3.81699">
        <ele>897.8</ele>
        <time>2021-11-16 12:24:28</time>
      </trkpt>
      <trkpt lat="40.73862" lon="-3.8169">
        <ele>898</ele>
        <time>2021-11-16 12:24:29</time>
      </trkpt>
      <trkpt lat="40.73865" lon="-3.81681">
        <ele>897.6</ele>
        <time>2021-11-16 12:24:30</time>
      </trkpt>
      <trkpt lat="40.73869" lon="-3.81672">
        <ele>897.8</ele>
        <time>2021-11-16 12:24:31</time>
      </trkpt>
      <trkpt lat="40.73872" lon="-3.81664">
        <ele>897.6</ele>
        <time>2021-11-16 12:24:32</time>
      </trkpt>
      <trkpt lat="40.73875" lon="-3.81655">
        <ele>897.4</ele>
        <time>2021-11-16 12:24:33</time>
      </trkpt>
      <trkpt lat="40.73878" lon="-3.81647">
        <ele>897.4</ele>
        <time>2021-11-16 12:24:34</time>
      </trkpt>
      <trkpt lat="40.73882" lon="-3.81638">
        <ele>897.4</ele>
        <time>2021-11-16 12:24:35</time>
      </trkpt>
      <trkpt lat="40.73885" lon="-3.8163">
        <ele>897.4</ele>
        <time>2021-11-16 12:24:36</time>
      </trkpt>
      <trkpt lat="40.73888" lon="-3.81621">
        <ele>897.4</ele>
        <time>2021-11-16 12:24:37</time>
      </trkpt>
      <trkpt lat="40.73891" lon="-3.81613">
        <ele>897.2</ele>
        <time>2021-11-16 12:24:38</time>
      </trkpt>
      <trkpt lat="40.73895" lon="-3.81605">
        <ele>897.4</ele>
        <time>2021-11-16 12:24:39</time>
      </trkpt>
      <trkpt lat="40.73898" lon="-3.81596">
        <ele>897.4</ele>
        <time>2021-11-16 12:24:40</time>
      </trkpt>
      <trkpt lat="40.73901" lon="-3.81588">
        <ele>897.4</ele>
        <time>2021-11-16 12:24:41</time>
      </trkpt>
      <trkpt lat="40.73904" lon="-3.8158">
        <ele>897.4</ele>
        <time>2021-11-16 12:24:42</time>
      </trkpt>
      <trkpt lat="40.73907" lon="-3.81571">
        <ele>897.4</ele>
        <time>2021-11-16 12:24:43</time>
      </trkpt>
      <trkpt lat="40.7391" lon="-3.81563">
        <ele>897.4</ele>
        <time>2021-11-16 12:24:44</time>
      </trkpt>
      <trkpt lat="40.73913" lon="-3.81555">
        <ele>897.6</ele>
        <time>2021-11-16 12:24:45</time>
      </trkpt>
      <trkpt lat="40.73915" lon="-3.81547">
        <ele>897.6</ele>
        <time>2021-11-16 12:24:46</time>
      </trkpt>
      <trkpt lat="40.73918" lon="-3.81539">
        <ele>897.6</ele>
        <time>2021-11-16 12:24:47</time>
      </trkpt>
      <trkpt lat="40.7392" lon="-3.81531">
        <ele>897.8</ele>
        <time>2021-11-16 12:24:48</time>
      </trkpt>
      <trkpt lat="40.73922" lon="-3.81522">
        <ele>898</ele>
        <time>2021-11-16 12:24:49</time>
      </trkpt>
      <trkpt lat="40.73924" lon="-3.81514">
        <ele>898</ele>
        <time>2021-11-16 12:24:50</time>
      </trkpt>
      <trkpt lat="40.73926" lon="-3.81506">
        <ele>898.4</ele>
        <time>2021-11-16 12:24:51</time>
      </trkpt>
      <trkpt lat="40.73928" lon="-3.81498">
        <ele>898.4</ele>
        <time>2021-11-16 12:24:52</time>
      </trkpt>
      <trkpt lat="40.73929" lon="-3.81489">
        <ele>898.6</ele>
        <time>2021-11-16 12:24:53</time>
      </trkpt>
      <trkpt lat="40.7393" lon="-3.81481">
        <ele>898.6</ele>
        <time>2021-11-16 12:24:54</time>
      </trkpt>
      <trkpt lat="40.7393" lon="-3.81473">
        <ele>898.4</ele>
        <time>2021-11-16 12:24:55</time>
      </trkpt>
      <trkpt lat="40.73929" lon="-3.81464">
        <ele>898.6</ele>
        <time>2021-11-16 12:24:56</time>
      </trkpt>
      <trkpt lat="40.73928" lon="-3.81456">
        <ele>898.6</ele>
        <time>2021-11-16 12:24:57</time>
      </trkpt>
      <trkpt lat="40.73929" lon="-3.81448">
        <ele>898.4</ele>
        <time>2021-11-16 12:24:58</time>
      </trkpt>
      <trkpt lat="40.73932" lon="-3.81441">
        <ele>898.8</ele>
        <time>2021-11-16 12:24:59</time>
      </trkpt>
      <trkpt lat="40.73935" lon="-3.81435">
        <ele>898.8</ele>
        <time>2021-11-16 12:25:00</time>
      </trkpt>
      <trkpt lat="40.7394" lon="-3.81429">
        <ele>898.8</ele>
        <time>2021-11-16 12:25:01</time>
      </trkpt>
      <trkpt lat="40.73945" lon="-3.81424">
        <ele>899</ele>
        <time>2021-11-16 12:25:02</time>
      </trkpt>
      <trkpt lat="40.7395" lon="-3.81419">
        <ele>899.2</ele>
        <time>2021-11-16 12:25:03</time>
      </trkpt>
      <trkpt lat="40.73955" lon="-3.81414">
        <ele>899.4</ele>
        <time>2021-11-16 12:25:04</time>
      </trkpt>
      <trkpt lat="40.73961" lon="-3.81409">
        <ele>899.4</ele>
        <time>2021-11-16 12:25:05</time>
      </trkpt>
      <trkpt lat="40.73965" lon="-3.81404">
        <ele>899.6</ele>
        <time>2021-11-16 12:25:06</time>
      </trkpt>
      <trkpt lat="40.7397" lon="-3.81397">
        <ele>899.6</ele>
        <time>2021-11-16 12:25:07</time>
      </trkpt>
      <trkpt lat="40.73973" lon="-3.81389">
        <ele>900</ele>
        <time>2021-11-16 12:25:08</time>
      </trkpt>
      <trkpt lat="40.73976" lon="-3.81381">
        <ele>900.2</ele>
        <time>2021-11-16 12:25:09</time>
      </trkpt>
      <trkpt lat="40.73979" lon="-3.81374">
        <ele>900.4</ele>
        <time>2021-11-16 12:25:10</time>
      </trkpt>
      <trkpt lat="40.73982" lon="-3.81366">
        <ele>900.4</ele>
        <time>2021-11-16 12:25:11</time>
      </trkpt>
      <trkpt lat="40.73985" lon="-3.81358">
        <ele>900.4</ele>
        <time>2021-11-16 12:25:12</time>
      </trkpt>
      <trkpt lat="40.73988" lon="-3.81351">
        <ele>900.4</ele>
        <time>2021-11-16 12:25:13</time>
      </trkpt>
      <trkpt lat="40.73991" lon="-3.81343">
        <ele>900.4</ele>
        <time>2021-11-16 12:25:14</time>
      </trkpt>
      <trkpt lat="40.73994" lon="-3.81335">
        <ele>900.4</ele>
        <time>2021-11-16 12:25:15</time>
      </trkpt>
      <trkpt lat="40.73997" lon="-3.81328">
        <ele>900.4</ele>
        <time>2021-11-16 12:25:16</time>
      </trkpt>
      <trkpt lat="40.74" lon="-3.8132">
        <ele>900.4</ele>
        <time>2021-11-16 12:25:17</time>
      </trkpt>
      <trkpt lat="40.74002" lon="-3.81313">
        <ele>900.6</ele>
        <time>2021-11-16 12:25:18</time>
      </trkpt>
      <trkpt lat="40.74005" lon="-3.81306">
        <ele>900.8</ele>
        <time>2021-11-16 12:25:19</time>
      </trkpt>
      <trkpt lat="40.74008" lon="-3.81299">
        <ele>900.8</ele>
        <time>2021-11-16 12:25:20</time>
      </trkpt>
      <trkpt lat="40.74011" lon="-3.81291">
        <ele>901</ele>
        <time>2021-11-16 12:25:21</time>
      </trkpt>
      <trkpt lat="40.74014" lon="-3.81284">
        <ele>901</ele>
        <time>2021-11-16 12:25:22</time>
      </trkpt>
      <trkpt lat="40.74017" lon="-3.81277">
        <ele>901</ele>
        <time>2021-11-16 12:25:23</time>
      </trkpt>
      <trkpt lat="40.7402" lon="-3.81271">
        <ele>901.2</ele>
        <time>2021-11-16 12:25:24</time>
      </trkpt>
      <trkpt lat="40.74023" lon="-3.81264">
        <ele>901.4</ele>
        <time>2021-11-16 12:25:25</time>
      </trkpt>
      <trkpt lat="40.74026" lon="-3.81257">
        <ele>901.4</ele>
        <time>2021-11-16 12:25:26</time>
      </trkpt>
      <trkpt lat="40.74029" lon="-3.8125">
        <ele>901.8</ele>
        <time>2021-11-16 12:25:27</time>
      </trkpt>
      <trkpt lat="40.74032" lon="-3.81244">
        <ele>901.8</ele>
        <time>2021-11-16 12:25:28</time>
      </trkpt>
      <trkpt lat="40.74035" lon="-3.81237">
        <ele>902</ele>
        <time>2021-11-16 12:25:29</time>
      </trkpt>
      <trkpt lat="40.74039" lon="-3.81231">
        <ele>902</ele>
        <time>2021-11-16 12:25:30</time>
      </trkpt>
      <trkpt lat="40.74042" lon="-3.81224">
        <ele>902.2</ele>
        <time>2021-11-16 12:25:31</time>
      </trkpt>
      <trkpt lat="40.74046" lon="-3.81218">
        <ele>902.2</ele>
        <time>2021-11-16 12:25:32</time>
      </trkpt>
      <trkpt lat="40.74049" lon="-3.81211">
        <ele>902.2</ele>
        <time>2021-11-16 12:25:33</time>
      </trkpt>
      <trkpt lat="40.74052" lon="-3.81205">
        <ele>902.4</ele>
        <time>2021-11-16 12:25:34</time>
      </trkpt>
      <trkpt lat="40.74056" lon="-3.81198">
        <ele>902.6</ele>
        <time>2021-11-16 12:25:35</time>
      </trkpt>
      <trkpt lat="40.74059" lon="-3.81192">
        <ele>902.8</ele>
        <time>2021-11-16 12:25:36</time>
      </trkpt>
      <trkpt lat="40.74062" lon="-3.81185">
        <ele>903.2</ele>
        <time>2021-11-16 12:25:37</time>
      </trkpt>
      <trkpt lat="40.74065" lon="-3.81179">
        <ele>903</ele>
        <time>2021-11-16 12:25:38</time>
      </trkpt>
      <trkpt lat="40.74069" lon="-3.81173">
        <ele>903.2</ele>
        <time>2021-11-16 12:25:39</time>
      </trkpt>
      <trkpt lat="40.74072" lon="-3.81166">
        <ele>903.4</ele>
        <time>2021-11-16 12:25:40</time>
      </trkpt>
      <trkpt lat="40.74075" lon="-3.8116">
        <ele>903.6</ele>
        <time>2021-11-16 12:25:41</time>
      </trkpt>
      <trkpt lat="40.74078" lon="-3.81154">
        <ele>903.8</ele>
        <time>2021-11-16 12:25:42</time>
      </trkpt>
      <trkpt lat="40.74082" lon="-3.81148">
        <ele>903.8</ele>
        <time>2021-11-16 12:25:43</time>
      </trkpt>
      <trkpt lat="40.74085" lon="-3.81142">
        <ele>903.8</ele>
        <time>2021-11-16 12:25:44</time>
      </trkpt>
      <trkpt lat="40.74088" lon="-3.81136">
        <ele>904</ele>
        <time>2021-11-16 12:25:45</time>
      </trkpt>
      <trkpt lat="40.74091" lon="-3.8113">
        <ele>904</ele>
        <time>2021-11-16 12:25:46</time>
      </trkpt>
      <trkpt lat="40.74094" lon="-3.81124">
        <ele>904.2</ele>
        <time>2021-11-16 12:25:47</time>
      </trkpt>
      <trkpt lat="40.74097" lon="-3.81118">
        <ele>904.6</ele>
        <time>2021-11-16 12:25:48</time>
      </trkpt>
      <trkpt lat="40.741" lon="-3.81112">
        <ele>905</ele>
        <time>2021-11-16 12:25:49</time>
      </trkpt>
      <trkpt lat="40.74103" lon="-3.81106">
        <ele>905.2</ele>
        <time>2021-11-16 12:25:50</time>
      </trkpt>
      <trkpt lat="40.74107" lon="-3.811">
        <ele>905.2</ele>
        <time>2021-11-16 12:25:51</time>
      </trkpt>
      <trkpt lat="40.7411" lon="-3.81094">
        <ele>905.4</ele>
        <time>2021-11-16 12:25:52</time>
      </trkpt>
      <trkpt lat="40.74113" lon="-3.81089">
        <ele>905.6</ele>
        <time>2021-11-16 12:25:53</time>
      </trkpt>
      <trkpt lat="40.74116" lon="-3.81083">
        <ele>905.8</ele>
        <time>2021-11-16 12:25:54</time>
      </trkpt>
      <trkpt lat="40.74119" lon="-3.81077">
        <ele>905.8</ele>
        <time>2021-11-16 12:25:55</time>
      </trkpt>
      <trkpt lat="40.74122" lon="-3.81071">
        <ele>906</ele>
        <time>2021-11-16 12:25:56</time>
      </trkpt>
      <trkpt lat="40.74125" lon="-3.81065">
        <ele>906.2</ele>
        <time>2021-11-16 12:25:57</time>
      </trkpt>
      <trkpt lat="40.74129" lon="-3.81059">
        <ele>906.2</ele>
        <time>2021-11-16 12:25:58</time>
      </trkpt>
      <trkpt lat="40.74132" lon="-3.81052">
        <ele>906.4</ele>
        <time>2021-11-16 12:25:59</time>
      </trkpt>
      <trkpt lat="40.74135" lon="-3.81046">
        <ele>906.4</ele>
        <time>2021-11-16 12:26:00</time>
      </trkpt>
      <trkpt lat="40.74139" lon="-3.8104">
        <ele>906.4</ele>
        <time>2021-11-16 12:26:01</time>
      </trkpt>
      <trkpt lat="40.74142" lon="-3.81034">
        <ele>906.6</ele>
        <time>2021-11-16 12:26:02</time>
      </trkpt>
      <trkpt lat="40.74145" lon="-3.81027">
        <ele>906.8</ele>
        <time>2021-11-16 12:26:03</time>
      </trkpt>
      <trkpt lat="40.74149" lon="-3.81021">
        <ele>906.8</ele>
        <time>2021-11-16 12:26:04</time>
      </trkpt>
      <trkpt lat="40.74152" lon="-3.81014">
        <ele>906.8</ele>
        <time>2021-11-16 12:26:05</time>
      </trkpt>
      <trkpt lat="40.74155" lon="-3.81008">
        <ele>906.8</ele>
        <time>2021-11-16 12:26:06</time>
      </trkpt>
      <trkpt lat="40.74158" lon="-3.81002">
        <ele>907.2</ele>
        <time>2021-11-16 12:26:07</time>
      </trkpt>
      <trkpt lat="40.74162" lon="-3.80996">
        <ele>907</ele>
        <time>2021-11-16 12:26:08</time>
      </trkpt>
      <trkpt lat="40.74165" lon="-3.8099">
        <ele>907</ele>
        <time>2021-11-16 12:26:09</time>
      </trkpt>
      <trkpt lat="40.74168" lon="-3.80983">
        <ele>907</ele>
        <time>2021-11-16 12:26:10</time>
      </trkpt>
      <trkpt lat="40.74172" lon="-3.80977">
        <ele>907</ele>
        <time>2021-11-16 12:26:11</time>
      </trkpt>
      <trkpt lat="40.74175" lon="-3.80971">
        <ele>907</ele>
        <time>2021-11-16 12:26:12</time>
      </trkpt>
      <trkpt lat="40.74178" lon="-3.80965">
        <ele>907</ele>
        <time>2021-11-16 12:26:13</time>
      </trkpt>
      <trkpt lat="40.74181" lon="-3.80958">
        <ele>907</ele>
        <time>2021-11-16 12:26:14</time>
      </trkpt>
      <trkpt lat="40.74185" lon="-3.80952">
        <ele>907</ele>
        <time>2021-11-16 12:26:15</time>
      </trkpt>
      <trkpt lat="40.74188" lon="-3.80945">
        <ele>907</ele>
        <time>2021-11-16 12:26:16</time>
      </trkpt>
      <trkpt lat="40.74192" lon="-3.80939">
        <ele>907.2</ele>
        <time>2021-11-16 12:26:17</time>
      </trkpt>
      <trkpt lat="40.74195" lon="-3.80932">
        <ele>907.2</ele>
        <time>2021-11-16 12:26:18</time>
      </trkpt>
      <trkpt lat="40.74199" lon="-3.80925">
        <ele>907.2</ele>
        <time>2021-11-16 12:26:19</time>
      </trkpt>
      <trkpt lat="40.74203" lon="-3.80918">
        <ele>907.2</ele>
        <time>2021-11-16 12:26:20</time>
      </trkpt>
      <trkpt lat="40.74206" lon="-3.80911">
        <ele>907.2</ele>
        <time>2021-11-16 12:26:21</time>
      </trkpt>
      <trkpt lat="40.7421" lon="-3.80904">
        <ele>907.2</ele>
        <time>2021-11-16 12:26:22</time>
      </trkpt>
      <trkpt lat="40.74213" lon="-3.80897">
        <ele>907.2</ele>
        <time>2021-11-16 12:26:23</time>
      </trkpt>
      <trkpt lat="40.74217" lon="-3.8089">
        <ele>907.2</ele>
        <time>2021-11-16 12:26:24</time>
      </trkpt>
      <trkpt lat="40.74221" lon="-3.80883">
        <ele>907.2</ele>
        <time>2021-11-16 12:26:25</time>
      </trkpt>
      <trkpt lat="40.74224" lon="-3.80876">
        <ele>907.2</ele>
        <time>2021-11-16 12:26:26</time>
      </trkpt>
      <trkpt lat="40.74228" lon="-3.80869">
        <ele>907.2</ele>
        <time>2021-11-16 12:26:27</time>
      </trkpt>
      <trkpt lat="40.74232" lon="-3.80861">
        <ele>907.2</ele>
        <time>2021-11-16 12:26:28</time>
      </trkpt>
      <trkpt lat="40.74235" lon="-3.80854">
        <ele>907.4</ele>
        <time>2021-11-16 12:26:29</time>
      </trkpt>
      <trkpt lat="40.74239" lon="-3.80847">
        <ele>907.4</ele>
        <time>2021-11-16 12:26:30</time>
      </trkpt>
      <trkpt lat="40.74243" lon="-3.8084">
        <ele>907.4</ele>
        <time>2021-11-16 12:26:31</time>
      </trkpt>
      <trkpt lat="40.74247" lon="-3.80832">
        <ele>907.6</ele>
        <time>2021-11-16 12:26:32</time>
      </trkpt>
      <trkpt lat="40.74251" lon="-3.80825">
        <ele>907.6</ele>
        <time>2021-11-16 12:26:33</time>
      </trkpt>
      <trkpt lat="40.74255" lon="-3.80818">
        <ele>907.8</ele>
        <time>2021-11-16 12:26:34</time>
      </trkpt>
      <trkpt lat="40.74258" lon="-3.8081">
        <ele>907.6</ele>
        <time>2021-11-16 12:26:35</time>
      </trkpt>
      <trkpt lat="40.74262" lon="-3.80803">
        <ele>907.8</ele>
        <time>2021-11-16 12:26:36</time>
      </trkpt>
      <trkpt lat="40.74266" lon="-3.80796">
        <ele>907.8</ele>
        <time>2021-11-16 12:26:37</time>
      </trkpt>
      <trkpt lat="40.7427" lon="-3.80788">
        <ele>907.8</ele>
        <time>2021-11-16 12:26:38</time>
      </trkpt>
      <trkpt lat="40.74274" lon="-3.80781">
        <ele>908</ele>
        <time>2021-11-16 12:26:39</time>
      </trkpt>
      <trkpt lat="40.74278" lon="-3.80773">
        <ele>907.8</ele>
        <time>2021-11-16 12:26:40</time>
      </trkpt>
      <trkpt lat="40.74281" lon="-3.80766">
        <ele>908</ele>
        <time>2021-11-16 12:26:41</time>
      </trkpt>
      <trkpt lat="40.74285" lon="-3.80759">
        <ele>908.2</ele>
        <time>2021-11-16 12:26:42</time>
      </trkpt>
      <trkpt lat="40.74289" lon="-3.80751">
        <ele>908.4</ele>
        <time>2021-11-16 12:26:43</time>
      </trkpt>
      <trkpt lat="40.74293" lon="-3.80744">
        <ele>908.6</ele>
        <time>2021-11-16 12:26:44</time>
      </trkpt>
      <trkpt lat="40.74297" lon="-3.80737">
        <ele>908.6</ele>
        <time>2021-11-16 12:26:45</time>
      </trkpt>
      <trkpt lat="40.74301" lon="-3.8073">
        <ele>908.4</ele>
        <time>2021-11-16 12:26:46</time>
      </trkpt>
      <trkpt lat="40.74304" lon="-3.80723">
        <ele>908.6</ele>
        <time>2021-11-16 12:26:47</time>
      </trkpt>
      <trkpt lat="40.74308" lon="-3.80716">
        <ele>908.6</ele>
        <time>2021-11-16 12:26:48</time>
      </trkpt>
      <trkpt lat="40.74312" lon="-3.80708">
        <ele>908.6</ele>
        <time>2021-11-16 12:26:49</time>
      </trkpt>
      <trkpt lat="40.74316" lon="-3.80701">
        <ele>908.6</ele>
        <time>2021-11-16 12:26:50</time>
      </trkpt>
      <trkpt lat="40.74319" lon="-3.80694">
        <ele>908.6</ele>
        <time>2021-11-16 12:26:51</time>
      </trkpt>
      <trkpt lat="40.74323" lon="-3.80686">
        <ele>908.8</ele>
        <time>2021-11-16 12:26:52</time>
      </trkpt>
      <trkpt lat="40.74327" lon="-3.80679">
        <ele>908.6</ele>
        <time>2021-11-16 12:26:53</time>
      </trkpt>
      <trkpt lat="40.74331" lon="-3.80671">
        <ele>908.8</ele>
        <time>2021-11-16 12:26:54</time>
      </trkpt>
      <trkpt lat="40.74335" lon="-3.80664">
        <ele>908.6</ele>
        <time>2021-11-16 12:26:55</time>
      </trkpt>
      <trkpt lat="40.74338" lon="-3.80657">
        <ele>908.8</ele>
        <time>2021-11-16 12:26:56</time>
      </trkpt>
      <trkpt lat="40.74342" lon="-3.80649">
        <ele>908.8</ele>
        <time>2021-11-16 12:26:57</time>
      </trkpt>
      <trkpt lat="40.74346" lon="-3.80642">
        <ele>908.8</ele>
        <time>2021-11-16 12:26:58</time>
      </trkpt>
      <trkpt lat="40.7435" lon="-3.80635">
        <ele>908.8</ele>
        <time>2021-11-16 12:26:59</time>
      </trkpt>
      <trkpt lat="40.74354" lon="-3.80627">
        <ele>908.8</ele>
        <time>2021-11-16 12:27:00</time>
      </trkpt>
      <trkpt lat="40.74358" lon="-3.8062">
        <ele>908.8</ele>
        <time>2021-11-16 12:27:01</time>
      </trkpt>
      <trkpt lat="40.74362" lon="-3.80612">
        <ele>908.6</ele>
        <time>2021-11-16 12:27:02</time>
      </trkpt>
      <trkpt lat="40.74365" lon="-3.80605">
        <ele>908.8</ele>
        <time>2021-11-16 12:27:03</time>
      </trkpt>
      <trkpt lat="40.74369" lon="-3.80598">
        <ele>908.8</ele>
        <time>2021-11-16 12:27:04</time>
      </trkpt>
      <trkpt lat="40.74373" lon="-3.8059">
        <ele>908.8</ele>
        <time>2021-11-16 12:27:05</time>
      </trkpt>
      <trkpt lat="40.74377" lon="-3.80583">
        <ele>908.8</ele>
        <time>2021-11-16 12:27:06</time>
      </trkpt>
      <trkpt lat="40.74381" lon="-3.80575">
        <ele>908.8</ele>
        <time>2021-11-16 12:27:07</time>
      </trkpt>
      <trkpt lat="40.74385" lon="-3.80568">
        <ele>909</ele>
        <time>2021-11-16 12:27:08</time>
      </trkpt>
      <trkpt lat="40.74388" lon="-3.80561">
        <ele>908.8</ele>
        <time>2021-11-16 12:27:09</time>
      </trkpt>
      <trkpt lat="40.74392" lon="-3.80553">
        <ele>909</ele>
        <time>2021-11-16 12:27:10</time>
      </trkpt>
      <trkpt lat="40.74396" lon="-3.80546">
        <ele>909</ele>
        <time>2021-11-16 12:27:11</time>
      </trkpt>
      <trkpt lat="40.744" lon="-3.80538">
        <ele>909</ele>
        <time>2021-11-16 12:27:12</time>
      </trkpt>
      <trkpt lat="40.74404" lon="-3.8053">
        <ele>908.8</ele>
        <time>2021-11-16 12:27:13</time>
      </trkpt>
      <trkpt lat="40.74408" lon="-3.80523">
        <ele>909</ele>
        <time>2021-11-16 12:27:14</time>
      </trkpt>
      <trkpt lat="40.74412" lon="-3.80515">
        <ele>909</ele>
        <time>2021-11-16 12:27:15</time>
      </trkpt>
      <trkpt lat="40.74416" lon="-3.80507">
        <ele>909</ele>
        <time>2021-11-16 12:27:16</time>
      </trkpt>
      <trkpt lat="40.7442" lon="-3.80499">
        <ele>909</ele>
        <time>2021-11-16 12:27:17</time>
      </trkpt>
      <trkpt lat="40.74424" lon="-3.80491">
        <ele>909</ele>
        <time>2021-11-16 12:27:18</time>
      </trkpt>
      <trkpt lat="40.74428" lon="-3.80484">
        <ele>909</ele>
        <time>2021-11-16 12:27:19</time>
      </trkpt>
      <trkpt lat="40.74432" lon="-3.80476">
        <ele>909</ele>
        <time>2021-11-16 12:27:20</time>
      </trkpt>
      <trkpt lat="40.74436" lon="-3.80469">
        <ele>909.2</ele>
        <time>2021-11-16 12:27:21</time>
      </trkpt>
      <trkpt lat="40.7444" lon="-3.80462">
        <ele>909.2</ele>
        <time>2021-11-16 12:27:22</time>
      </trkpt>
      <trkpt lat="40.74444" lon="-3.80454">
        <ele>909.2</ele>
        <time>2021-11-16 12:27:23</time>
      </trkpt>
      <trkpt lat="40.74448" lon="-3.80447">
        <ele>909</ele>
        <time>2021-11-16 12:27:24</time>
      </trkpt>
      <trkpt lat="40.74452" lon="-3.80439">
        <ele>909.2</ele>
        <time>2021-11-16 12:27:25</time>
      </trkpt>
      <trkpt lat="40.74455" lon="-3.80432">
        <ele>909.2</ele>
        <time>2021-11-16 12:27:26</time>
      </trkpt>
      <trkpt lat="40.74459" lon="-3.80425">
        <ele>909.4</ele>
        <time>2021-11-16 12:27:27</time>
      </trkpt>
      <trkpt lat="40.74463" lon="-3.80418">
        <ele>909.4</ele>
        <time>2021-11-16 12:27:28</time>
      </trkpt>
      <trkpt lat="40.74467" lon="-3.80411">
        <ele>909.6</ele>
        <time>2021-11-16 12:27:29</time>
      </trkpt>
      <trkpt lat="40.7447" lon="-3.80404">
        <ele>910</ele>
        <time>2021-11-16 12:27:30</time>
      </trkpt>
      <trkpt lat="40.74474" lon="-3.80397">
        <ele>910</ele>
        <time>2021-11-16 12:27:31</time>
      </trkpt>
      <trkpt lat="40.74477" lon="-3.80391">
        <ele>910</ele>
        <time>2021-11-16 12:27:32</time>
      </trkpt>
      <trkpt lat="40.74481" lon="-3.80384">
        <ele>910.2</ele>
        <time>2021-11-16 12:27:33</time>
      </trkpt>
      <trkpt lat="40.74484" lon="-3.80377">
        <ele>910.4</ele>
        <time>2021-11-16 12:27:34</time>
      </trkpt>
      <trkpt lat="40.74488" lon="-3.80371">
        <ele>910.4</ele>
        <time>2021-11-16 12:27:35</time>
      </trkpt>
      <trkpt lat="40.74491" lon="-3.80364">
        <ele>910.6</ele>
        <time>2021-11-16 12:27:36</time>
      </trkpt>
      <trkpt lat="40.74495" lon="-3.80358">
        <ele>911</ele>
        <time>2021-11-16 12:27:37</time>
      </trkpt>
      <trkpt lat="40.74498" lon="-3.80352">
        <ele>911.2</ele>
        <time>2021-11-16 12:27:38</time>
      </trkpt>
      <trkpt lat="40.74501" lon="-3.80346">
        <ele>911.4</ele>
        <time>2021-11-16 12:27:39</time>
      </trkpt>
      <trkpt lat="40.74504" lon="-3.80339">
        <ele>911.8</ele>
        <time>2021-11-16 12:27:40</time>
      </trkpt>
      <trkpt lat="40.74507" lon="-3.80333">
        <ele>911.8</ele>
        <time>2021-11-16 12:27:41</time>
      </trkpt>
      <trkpt lat="40.74511" lon="-3.80327">
        <ele>911.8</ele>
        <time>2021-11-16 12:27:42</time>
      </trkpt>
      <trkpt lat="40.74514" lon="-3.80321">
        <ele>912.2</ele>
        <time>2021-11-16 12:27:43</time>
      </trkpt>
      <trkpt lat="40.74517" lon="-3.80315">
        <ele>912.4</ele>
        <time>2021-11-16 12:27:44</time>
      </trkpt>
      <trkpt lat="40.74521" lon="-3.80309">
        <ele>912.4</ele>
        <time>2021-11-16 12:27:45</time>
      </trkpt>
      <trkpt lat="40.74524" lon="-3.80303">
        <ele>912.8</ele>
        <time>2021-11-16 12:27:46</time>
      </trkpt>
      <trkpt lat="40.74527" lon="-3.80297">
        <ele>913</ele>
        <time>2021-11-16 12:27:47</time>
      </trkpt>
      <trkpt lat="40.74531" lon="-3.80291">
        <ele>913.2</ele>
        <time>2021-11-16 12:27:48</time>
      </trkpt>
      <trkpt lat="40.74534" lon="-3.80285">
        <ele>913.2</ele>
        <time>2021-11-16 12:27:49</time>
      </trkpt>
      <trkpt lat="40.74537" lon="-3.80278">
        <ele>913.2</ele>
        <time>2021-11-16 12:27:50</time>
      </trkpt>
      <trkpt lat="40.74541" lon="-3.80272">
        <ele>913.2</ele>
        <time>2021-11-16 12:27:51</time>
      </trkpt>
      <trkpt lat="40.74544" lon="-3.80266">
        <ele>913.2</ele>
        <time>2021-11-16 12:27:52</time>
      </trkpt>
      <trkpt lat="40.74547" lon="-3.80259">
        <ele>913.2</ele>
        <time>2021-11-16 12:27:53</time>
      </trkpt>
      <trkpt lat="40.74551" lon="-3.80253">
        <ele>913.4</ele>
        <time>2021-11-16 12:27:54</time>
      </trkpt>
      <trkpt lat="40.74554" lon="-3.80247">
        <ele>913.6</ele>
        <time>2021-11-16 12:27:55</time>
      </trkpt>
      <trkpt lat="40.74558" lon="-3.8024">
        <ele>913.8</ele>
        <time>2021-11-16 12:27:56</time>
      </trkpt>
      <trkpt lat="40.74561" lon="-3.80234">
        <ele>913.8</ele>
        <time>2021-11-16 12:27:57</time>
      </trkpt>
      <trkpt lat="40.74564" lon="-3.80227">
        <ele>913.8</ele>
        <time>2021-11-16 12:27:58</time>
      </trkpt>
      <trkpt lat="40.74567" lon="-3.80221">
        <ele>914</ele>
        <time>2021-11-16 12:27:59</time>
      </trkpt>
      <trkpt lat="40.74571" lon="-3.80215">
        <ele>913.8</ele>
        <time>2021-11-16 12:28:00</time>
      </trkpt>
      <trkpt lat="40.74574" lon="-3.80208">
        <ele>914</ele>
        <time>2021-11-16 12:28:01</time>
      </trkpt>
      <trkpt lat="40.74577" lon="-3.80202">
        <ele>914.2</ele>
        <time>2021-11-16 12:28:02</time>
      </trkpt>
      <trkpt lat="40.74581" lon="-3.80195">
        <ele>914.2</ele>
        <time>2021-11-16 12:28:03</time>
      </trkpt>
      <trkpt lat="40.74584" lon="-3.80189">
        <ele>914.4</ele>
        <time>2021-11-16 12:28:04</time>
      </trkpt>
      <trkpt lat="40.74587" lon="-3.80182">
        <ele>914.6</ele>
        <time>2021-11-16 12:28:05</time>
      </trkpt>
      <trkpt lat="40.74591" lon="-3.80176">
        <ele>914.6</ele>
        <time>2021-11-16 12:28:06</time>
      </trkpt>
      <trkpt lat="40.74594" lon="-3.80169">
        <ele>914.8</ele>
        <time>2021-11-16 12:28:07</time>
      </trkpt>
      <trkpt lat="40.74598" lon="-3.80162">
        <ele>915</ele>
        <time>2021-11-16 12:28:08</time>
      </trkpt>
      <trkpt lat="40.74601" lon="-3.80156">
        <ele>915.2</ele>
        <time>2021-11-16 12:28:09</time>
      </trkpt>
      <trkpt lat="40.74605" lon="-3.80149">
        <ele>915.2</ele>
        <time>2021-11-16 12:28:10</time>
      </trkpt>
      <trkpt lat="40.74608" lon="-3.80142">
        <ele>915.2</ele>
        <time>2021-11-16 12:28:11</time>
      </trkpt>
      <trkpt lat="40.74612" lon="-3.80135">
        <ele>915.2</ele>
        <time>2021-11-16 12:28:12</time>
      </trkpt>
      <trkpt lat="40.74615" lon="-3.80128">
        <ele>915.2</ele>
        <time>2021-11-16 12:28:13</time>
      </trkpt>
      <trkpt lat="40.74619" lon="-3.80122">
        <ele>915.2</ele>
        <time>2021-11-16 12:28:14</time>
      </trkpt>
      <trkpt lat="40.74623" lon="-3.80115">
        <ele>915.4</ele>
        <time>2021-11-16 12:28:15</time>
      </trkpt>
      <trkpt lat="40.74626" lon="-3.80108">
        <ele>915.4</ele>
        <time>2021-11-16 12:28:16</time>
      </trkpt>
      <trkpt lat="40.74629" lon="-3.801">
        <ele>915.4</ele>
        <time>2021-11-16 12:28:17</time>
      </trkpt>
      <trkpt lat="40.74633" lon="-3.80093">
        <ele>915.6</ele>
        <time>2021-11-16 12:28:18</time>
      </trkpt>
      <trkpt lat="40.74637" lon="-3.80086">
        <ele>915.4</ele>
        <time>2021-11-16 12:28:19</time>
      </trkpt>
      <trkpt lat="40.7464" lon="-3.80079">
        <ele>915.2</ele>
        <time>2021-11-16 12:28:20</time>
      </trkpt>
      <trkpt lat="40.74644" lon="-3.80072">
        <ele>915.4</ele>
        <time>2021-11-16 12:28:21</time>
      </trkpt>
      <trkpt lat="40.74648" lon="-3.80065">
        <ele>915.4</ele>
        <time>2021-11-16 12:28:22</time>
      </trkpt>
      <trkpt lat="40.74652" lon="-3.80058">
        <ele>915.6</ele>
        <time>2021-11-16 12:28:23</time>
      </trkpt>
      <trkpt lat="40.74655" lon="-3.8005">
        <ele>915.8</ele>
        <time>2021-11-16 12:28:24</time>
      </trkpt>
      <trkpt lat="40.74659" lon="-3.80043">
        <ele>915.6</ele>
        <time>2021-11-16 12:28:25</time>
      </trkpt>
      <trkpt lat="40.74663" lon="-3.80036">
        <ele>915.8</ele>
        <time>2021-11-16 12:28:26</time>
      </trkpt>
      <trkpt lat="40.74667" lon="-3.80029">
        <ele>915.6</ele>
        <time>2021-11-16 12:28:27</time>
      </trkpt>
      <trkpt lat="40.74671" lon="-3.80022">
        <ele>915.6</ele>
        <time>2021-11-16 12:28:28</time>
      </trkpt>
      <trkpt lat="40.74675" lon="-3.80015">
        <ele>915.6</ele>
        <time>2021-11-16 12:28:29</time>
      </trkpt>
      <trkpt lat="40.74679" lon="-3.80007">
        <ele>915.6</ele>
        <time>2021-11-16 12:28:30</time>
      </trkpt>
      <trkpt lat="40.74682" lon="-3.8">
        <ele>915.6</ele>
        <time>2021-11-16 12:28:31</time>
      </trkpt>
      <trkpt lat="40.74686" lon="-3.79992">
        <ele>915.8</ele>
        <time>2021-11-16 12:28:32</time>
      </trkpt>
      <trkpt lat="40.7469" lon="-3.79985">
        <ele>915.8</ele>
        <time>2021-11-16 12:28:33</time>
      </trkpt>
      <trkpt lat="40.74694" lon="-3.79977">
        <ele>915.6</ele>
        <time>2021-11-16 12:28:34</time>
      </trkpt>
      <trkpt lat="40.74698" lon="-3.79969">
        <ele>915.6</ele>
        <time>2021-11-16 12:28:35</time>
      </trkpt>
      <trkpt lat="40.74702" lon="-3.79962">
        <ele>915.6</ele>
        <time>2021-11-16 12:28:36</time>
      </trkpt>
      <trkpt lat="40.74706" lon="-3.79954">
        <ele>915.6</ele>
        <time>2021-11-16 12:28:37</time>
      </trkpt>
      <trkpt lat="40.7471" lon="-3.79946">
        <ele>915.6</ele>
        <time>2021-11-16 12:28:38</time>
      </trkpt>
      <trkpt lat="40.74714" lon="-3.79938">
        <ele>915.8</ele>
        <time>2021-11-16 12:28:39</time>
      </trkpt>
      <trkpt lat="40.74718" lon="-3.7993">
        <ele>915.8</ele>
        <time>2021-11-16 12:28:40</time>
      </trkpt>
      <trkpt lat="40.74722" lon="-3.79922">
        <ele>915.8</ele>
        <time>2021-11-16 12:28:41</time>
      </trkpt>
      <trkpt lat="40.74726" lon="-3.79915">
        <ele>915.8</ele>
        <time>2021-11-16 12:28:42</time>
      </trkpt>
      <trkpt lat="40.7473" lon="-3.79907">
        <ele>915.8</ele>
        <time>2021-11-16 12:28:43</time>
      </trkpt>
      <trkpt lat="40.74734" lon="-3.79899">
        <ele>915.8</ele>
        <time>2021-11-16 12:28:44</time>
      </trkpt>
      <trkpt lat="40.74738" lon="-3.79891">
        <ele>915.8</ele>
        <time>2021-11-16 12:28:45</time>
      </trkpt>
      <trkpt lat="40.74742" lon="-3.79884">
        <ele>915.8</ele>
        <time>2021-11-16 12:28:46</time>
      </trkpt>
      <trkpt lat="40.74746" lon="-3.79876">
        <ele>915.8</ele>
        <time>2021-11-16 12:28:47</time>
      </trkpt>
      <trkpt lat="40.74749" lon="-3.79869">
        <ele>915.8</ele>
        <time>2021-11-16 12:28:48</time>
      </trkpt>
      <trkpt lat="40.74753" lon="-3.79861">
        <ele>915.8</ele>
        <time>2021-11-16 12:28:49</time>
      </trkpt>
      <trkpt lat="40.74757" lon="-3.79854">
        <ele>916</ele>
        <time>2021-11-16 12:28:50</time>
      </trkpt>
      <trkpt lat="40.74761" lon="-3.79846">
        <ele>916</ele>
        <time>2021-11-16 12:28:51</time>
      </trkpt>
      <trkpt lat="40.74765" lon="-3.79839">
        <ele>916</ele>
        <time>2021-11-16 12:28:52</time>
      </trkpt>
      <trkpt lat="40.74769" lon="-3.79831">
        <ele>916</ele>
        <time>2021-11-16 12:28:53</time>
      </trkpt>
      <trkpt lat="40.74773" lon="-3.79824">
        <ele>916.2</ele>
        <time>2021-11-16 12:28:54</time>
      </trkpt>
      <trkpt lat="40.74776" lon="-3.79816">
        <ele>916.2</ele>
        <time>2021-11-16 12:28:55</time>
      </trkpt>
      <trkpt lat="40.7478" lon="-3.79809">
        <ele>916.2</ele>
        <time>2021-11-16 12:28:56</time>
      </trkpt>
      <trkpt lat="40.74784" lon="-3.79801">
        <ele>916.2</ele>
        <time>2021-11-16 12:28:57</time>
      </trkpt>
      <trkpt lat="40.74788" lon="-3.79794">
        <ele>916.2</ele>
        <time>2021-11-16 12:28:58</time>
      </trkpt>
      <trkpt lat="40.74792" lon="-3.79787">
        <ele>916.4</ele>
        <time>2021-11-16 12:28:59</time>
      </trkpt>
      <trkpt lat="40.74796" lon="-3.7978">
        <ele>916.4</ele>
        <time>2021-11-16 12:29:00</time>
      </trkpt>
      <trkpt lat="40.748" lon="-3.79772">
        <ele>916.6</ele>
        <time>2021-11-16 12:29:01</time>
      </trkpt>
      <trkpt lat="40.74803" lon="-3.79765">
        <ele>916.6</ele>
        <time>2021-11-16 12:29:02</time>
      </trkpt>
      <trkpt lat="40.74807" lon="-3.79759">
        <ele>916.8</ele>
        <time>2021-11-16 12:29:03</time>
      </trkpt>
      <trkpt lat="40.7481" lon="-3.79752">
        <ele>917</ele>
        <time>2021-11-16 12:29:04</time>
      </trkpt>
      <trkpt lat="40.74814" lon="-3.79746">
        <ele>917.2</ele>
        <time>2021-11-16 12:29:05</time>
      </trkpt>
      <trkpt lat="40.74818" lon="-3.79739">
        <ele>917.2</ele>
        <time>2021-11-16 12:29:06</time>
      </trkpt>
      <trkpt lat="40.74822" lon="-3.79731">
        <ele>917.4</ele>
        <time>2021-11-16 12:29:07</time>
      </trkpt>
      <trkpt lat="40.74826" lon="-3.79723">
        <ele>917.2</ele>
        <time>2021-11-16 12:29:08</time>
      </trkpt>
      <trkpt lat="40.7483" lon="-3.79714">
        <ele>917.4</ele>
        <time>2021-11-16 12:29:09</time>
      </trkpt>
      <trkpt lat="40.74834" lon="-3.79706">
        <ele>917.4</ele>
        <time>2021-11-16 12:29:10</time>
      </trkpt>
      <trkpt lat="40.74838" lon="-3.79698">
        <ele>917.4</ele>
        <time>2021-11-16 12:29:11</time>
      </trkpt>
      <trkpt lat="40.74842" lon="-3.79691">
        <ele>917.4</ele>
        <time>2021-11-16 12:29:12</time>
      </trkpt>
      <trkpt lat="40.74846" lon="-3.79683">
        <ele>917.2</ele>
        <time>2021-11-16 12:29:13</time>
      </trkpt>
      <trkpt lat="40.7485" lon="-3.79676">
        <ele>917.4</ele>
        <time>2021-11-16 12:29:14</time>
      </trkpt>
      <trkpt lat="40.74854" lon="-3.79668">
        <ele>917.6</ele>
        <time>2021-11-16 12:29:15</time>
      </trkpt>
      <trkpt lat="40.74857" lon="-3.79661">
        <ele>917.6</ele>
        <time>2021-11-16 12:29:16</time>
      </trkpt>
      <trkpt lat="40.74861" lon="-3.79654">
        <ele>917.8</ele>
        <time>2021-11-16 12:29:17</time>
      </trkpt>
      <trkpt lat="40.74865" lon="-3.79646">
        <ele>917.8</ele>
        <time>2021-11-16 12:29:18</time>
      </trkpt>
      <trkpt lat="40.74869" lon="-3.79639">
        <ele>917.8</ele>
        <time>2021-11-16 12:29:19</time>
      </trkpt>
      <trkpt lat="40.74873" lon="-3.79631">
        <ele>918</ele>
        <time>2021-11-16 12:29:20</time>
      </trkpt>
      <trkpt lat="40.74877" lon="-3.79624">
        <ele>918</ele>
        <time>2021-11-16 12:29:21</time>
      </trkpt>
      <trkpt lat="40.74881" lon="-3.79617">
        <ele>918.2</ele>
        <time>2021-11-16 12:29:22</time>
      </trkpt>
      <trkpt lat="40.74885" lon="-3.79609">
        <ele>918</ele>
        <time>2021-11-16 12:29:23</time>
      </trkpt>
      <trkpt lat="40.74888" lon="-3.79602">
        <ele>918.2</ele>
        <time>2021-11-16 12:29:24</time>
      </trkpt>
      <trkpt lat="40.74892" lon="-3.79594">
        <ele>918.2</ele>
        <time>2021-11-16 12:29:25</time>
      </trkpt>
      <trkpt lat="40.74895" lon="-3.79587">
        <ele>918.2</ele>
        <time>2021-11-16 12:29:26</time>
      </trkpt>
      <trkpt lat="40.74899" lon="-3.7958">
        <ele>918.4</ele>
        <time>2021-11-16 12:29:27</time>
      </trkpt>
      <trkpt lat="40.74903" lon="-3.79573">
        <ele>918.6</ele>
        <time>2021-11-16 12:29:28</time>
      </trkpt>
      <trkpt lat="40.74906" lon="-3.79566">
        <ele>918.8</ele>
        <time>2021-11-16 12:29:29</time>
      </trkpt>
      <trkpt lat="40.7491" lon="-3.79559">
        <ele>918.8</ele>
        <time>2021-11-16 12:29:30</time>
      </trkpt>
      <trkpt lat="40.74914" lon="-3.79553">
        <ele>918.8</ele>
        <time>2021-11-16 12:29:31</time>
      </trkpt>
      <trkpt lat="40.74917" lon="-3.79546">
        <ele>919</ele>
        <time>2021-11-16 12:29:32</time>
      </trkpt>
      <trkpt lat="40.74921" lon="-3.79539">
        <ele>919.2</ele>
        <time>2021-11-16 12:29:33</time>
      </trkpt>
      <trkpt lat="40.74925" lon="-3.79532">
        <ele>919.2</ele>
        <time>2021-11-16 12:29:34</time>
      </trkpt>
      <trkpt lat="40.74928" lon="-3.79526">
        <ele>919.4</ele>
        <time>2021-11-16 12:29:35</time>
      </trkpt>
      <trkpt lat="40.74932" lon="-3.79518">
        <ele>919.4</ele>
        <time>2021-11-16 12:29:36</time>
      </trkpt>
      <trkpt lat="40.74935" lon="-3.79511">
        <ele>919.6</ele>
        <time>2021-11-16 12:29:37</time>
      </trkpt>
      <trkpt lat="40.74939" lon="-3.79504">
        <ele>919.8</ele>
        <time>2021-11-16 12:29:38</time>
      </trkpt>
      <trkpt lat="40.74943" lon="-3.79497">
        <ele>920</ele>
        <time>2021-11-16 12:29:39</time>
      </trkpt>
      <trkpt lat="40.74946" lon="-3.7949">
        <ele>920</ele>
        <time>2021-11-16 12:29:40</time>
      </trkpt>
      <trkpt lat="40.7495" lon="-3.79482">
        <ele>920.2</ele>
        <time>2021-11-16 12:29:41</time>
      </trkpt>
      <trkpt lat="40.74954" lon="-3.79475">
        <ele>920.4</ele>
        <time>2021-11-16 12:29:42</time>
      </trkpt>
      <trkpt lat="40.74957" lon="-3.79468">
        <ele>920.4</ele>
        <time>2021-11-16 12:29:43</time>
      </trkpt>
      <trkpt lat="40.74961" lon="-3.7946">
        <ele>920.4</ele>
        <time>2021-11-16 12:29:44</time>
      </trkpt>
      <trkpt lat="40.74965" lon="-3.79453">
        <ele>920.4</ele>
        <time>2021-11-16 12:29:45</time>
      </trkpt>
      <trkpt lat="40.74968" lon="-3.79445">
        <ele>920.4</ele>
        <time>2021-11-16 12:29:46</time>
      </trkpt>
      <trkpt lat="40.74971" lon="-3.79437">
        <ele>920.4</ele>
        <time>2021-11-16 12:29:47</time>
      </trkpt>
      <trkpt lat="40.74975" lon="-3.79429">
        <ele>920.4</ele>
        <time>2021-11-16 12:29:48</time>
      </trkpt>
      <trkpt lat="40.74978" lon="-3.79421">
        <ele>920.6</ele>
        <time>2021-11-16 12:29:49</time>
      </trkpt>
      <trkpt lat="40.74982" lon="-3.79414">
        <ele>920.6</ele>
        <time>2021-11-16 12:29:50</time>
      </trkpt>
      <trkpt lat="40.74985" lon="-3.79406">
        <ele>920.4</ele>
        <time>2021-11-16 12:29:51</time>
      </trkpt>
      <trkpt lat="40.74988" lon="-3.79399">
        <ele>920.6</ele>
        <time>2021-11-16 12:29:52</time>
      </trkpt>
      <trkpt lat="40.74991" lon="-3.79391">
        <ele>920.6</ele>
        <time>2021-11-16 12:29:53</time>
      </trkpt>
      <trkpt lat="40.74994" lon="-3.79384">
        <ele>920.6</ele>
        <time>2021-11-16 12:29:54</time>
      </trkpt>
      <trkpt lat="40.74997" lon="-3.79376">
        <ele>920.6</ele>
        <time>2021-11-16 12:29:55</time>
      </trkpt>
      <trkpt lat="40.75" lon="-3.79369">
        <ele>920.6</ele>
        <time>2021-11-16 12:29:56</time>
      </trkpt>
      <trkpt lat="40.75003" lon="-3.79361">
        <ele>920.6</ele>
        <time>2021-11-16 12:29:57</time>
      </trkpt>
      <trkpt lat="40.75006" lon="-3.79353">
        <ele>920.6</ele>
        <time>2021-11-16 12:29:58</time>
      </trkpt>
      <trkpt lat="40.75009" lon="-3.79346">
        <ele>920.6</ele>
        <time>2021-11-16 12:29:59</time>
      </trkpt>
      <trkpt lat="40.75012" lon="-3.79338">
        <ele>920.6</ele>
        <time>2021-11-16 12:30:00</time>
      </trkpt>
      <trkpt lat="40.75015" lon="-3.7933">
        <ele>920.6</ele>
        <time>2021-11-16 12:30:01</time>
      </trkpt>
      <trkpt lat="40.75019" lon="-3.79323">
        <ele>920.6</ele>
        <time>2021-11-16 12:30:02</time>
      </trkpt>
      <trkpt lat="40.75022" lon="-3.79315">
        <ele>920.8</ele>
        <time>2021-11-16 12:30:03</time>
      </trkpt>
      <trkpt lat="40.75025" lon="-3.79307">
        <ele>920.8</ele>
        <time>2021-11-16 12:30:04</time>
      </trkpt>
      <trkpt lat="40.75028" lon="-3.79299">
        <ele>920.8</ele>
        <time>2021-11-16 12:30:05</time>
      </trkpt>
      <trkpt lat="40.75031" lon="-3.79291">
        <ele>920.8</ele>
        <time>2021-11-16 12:30:06</time>
      </trkpt>
      <trkpt lat="40.75035" lon="-3.79283">
        <ele>920.8</ele>
        <time>2021-11-16 12:30:07</time>
      </trkpt>
      <trkpt lat="40.75038" lon="-3.79275">
        <ele>920.6</ele>
        <time>2021-11-16 12:30:08</time>
      </trkpt>
      <trkpt lat="40.75041" lon="-3.79267">
        <ele>920.6</ele>
        <time>2021-11-16 12:30:09</time>
      </trkpt>
      <trkpt lat="40.75044" lon="-3.79259">
        <ele>920.8</ele>
        <time>2021-11-16 12:30:10</time>
      </trkpt>
      <trkpt lat="40.75047" lon="-3.79251">
        <ele>920.6</ele>
        <time>2021-11-16 12:30:11</time>
      </trkpt>
      <trkpt lat="40.7505" lon="-3.79243">
        <ele>920.8</ele>
        <time>2021-11-16 12:30:12</time>
      </trkpt>
      <trkpt lat="40.75053" lon="-3.79235">
        <ele>920.6</ele>
        <time>2021-11-16 12:30:13</time>
      </trkpt>
      <trkpt lat="40.75056" lon="-3.79226">
        <ele>920.8</ele>
        <time>2021-11-16 12:30:14</time>
      </trkpt>
      <trkpt lat="40.75059" lon="-3.79218">
        <ele>920.6</ele>
        <time>2021-11-16 12:30:15</time>
      </trkpt>
      <trkpt lat="40.75062" lon="-3.79209">
        <ele>920.8</ele>
        <time>2021-11-16 12:30:16</time>
      </trkpt>
      <trkpt lat="40.75064" lon="-3.792">
        <ele>920.8</ele>
        <time>2021-11-16 12:30:17</time>
      </trkpt>
      <trkpt lat="40.75066" lon="-3.79191">
        <ele>920.6</ele>
        <time>2021-11-16 12:30:18</time>
      </trkpt>
      <trkpt lat="40.75068" lon="-3.79183">
        <ele>920.6</ele>
        <time>2021-11-16 12:30:19</time>
      </trkpt>
      <trkpt lat="40.7507" lon="-3.79174">
        <ele>920.8</ele>
        <time>2021-11-16 12:30:20</time>
      </trkpt>
      <trkpt lat="40.75072" lon="-3.79165">
        <ele>920.6</ele>
        <time>2021-11-16 12:30:21</time>
      </trkpt>
      <trkpt lat="40.75073" lon="-3.79156">
        <ele>920.6</ele>
        <time>2021-11-16 12:30:22</time>
      </trkpt>
      <trkpt lat="40.75074" lon="-3.79148">
        <ele>920.6</ele>
        <time>2021-11-16 12:30:23</time>
      </trkpt>
      <trkpt lat="40.75076" lon="-3.79139">
        <ele>920.6</ele>
        <time>2021-11-16 12:30:24</time>
      </trkpt>
      <trkpt lat="40.75077" lon="-3.7913">
        <ele>920.6</ele>
        <time>2021-11-16 12:30:25</time>
      </trkpt>
      <trkpt lat="40.75078" lon="-3.79122">
        <ele>920.6</ele>
        <time>2021-11-16 12:30:26</time>
      </trkpt>
      <trkpt lat="40.75079" lon="-3.79113">
        <ele>920.8</ele>
        <time>2021-11-16 12:30:27</time>
      </trkpt>
      <trkpt lat="40.7508" lon="-3.79104">
        <ele>920.8</ele>
        <time>2021-11-16 12:30:28</time>
      </trkpt>
      <trkpt lat="40.75081" lon="-3.79095">
        <ele>921</ele>
        <time>2021-11-16 12:30:29</time>
      </trkpt>
      <trkpt lat="40.75082" lon="-3.79086">
        <ele>920.8</ele>
        <time>2021-11-16 12:30:30</time>
      </trkpt>
      <trkpt lat="40.75083" lon="-3.79077">
        <ele>921</ele>
        <time>2021-11-16 12:30:31</time>
      </trkpt>
      <trkpt lat="40.75083" lon="-3.79068">
        <ele>920.8</ele>
        <time>2021-11-16 12:30:32</time>
      </trkpt>
      <trkpt lat="40.75084" lon="-3.79059">
        <ele>920.8</ele>
        <time>2021-11-16 12:30:33</time>
      </trkpt>
      <trkpt lat="40.75085" lon="-3.7905">
        <ele>920.6</ele>
        <time>2021-11-16 12:30:34</time>
      </trkpt>
      <trkpt lat="40.75087" lon="-3.7904">
        <ele>920.8</ele>
        <time>2021-11-16 12:30:35</time>
      </trkpt>
      <trkpt lat="40.75088" lon="-3.79031">
        <ele>920.8</ele>
        <time>2021-11-16 12:30:36</time>
      </trkpt>
      <trkpt lat="40.75089" lon="-3.79022">
        <ele>920.8</ele>
        <time>2021-11-16 12:30:37</time>
      </trkpt>
      <trkpt lat="40.75089" lon="-3.79013">
        <ele>920.8</ele>
        <time>2021-11-16 12:30:38</time>
      </trkpt>
      <trkpt lat="40.7509" lon="-3.79004">
        <ele>921</ele>
        <time>2021-11-16 12:30:39</time>
      </trkpt>
      <trkpt lat="40.75091" lon="-3.78995">
        <ele>920.8</ele>
        <time>2021-11-16 12:30:40</time>
      </trkpt>
      <trkpt lat="40.75092" lon="-3.78987">
        <ele>920.8</ele>
        <time>2021-11-16 12:30:41</time>
      </trkpt>
      <trkpt lat="40.75093" lon="-3.78978">
        <ele>921</ele>
        <time>2021-11-16 12:30:42</time>
      </trkpt>
      <trkpt lat="40.75094" lon="-3.78969">
        <ele>921</ele>
        <time>2021-11-16 12:30:43</time>
      </trkpt>
      <trkpt lat="40.75094" lon="-3.78961">
        <ele>920.8</ele>
        <time>2021-11-16 12:30:44</time>
      </trkpt>
      <trkpt lat="40.75096" lon="-3.78952">
        <ele>920.8</ele>
        <time>2021-11-16 12:30:45</time>
      </trkpt>
      <trkpt lat="40.75097" lon="-3.78944">
        <ele>920.8</ele>
        <time>2021-11-16 12:30:46</time>
      </trkpt>
      <trkpt lat="40.75098" lon="-3.78935">
        <ele>920.8</ele>
        <time>2021-11-16 12:30:47</time>
      </trkpt>
      <trkpt lat="40.75099" lon="-3.78926">
        <ele>920.8</ele>
        <time>2021-11-16 12:30:48</time>
      </trkpt>
      <trkpt lat="40.751" lon="-3.78918">
        <ele>920.8</ele>
        <time>2021-11-16 12:30:49</time>
      </trkpt>
      <trkpt lat="40.75101" lon="-3.7891">
        <ele>920.8</ele>
        <time>2021-11-16 12:30:50</time>
      </trkpt>
      <trkpt lat="40.75102" lon="-3.78902">
        <ele>920.8</ele>
        <time>2021-11-16 12:30:51</time>
      </trkpt>
      <trkpt lat="40.75103" lon="-3.78894">
        <ele>920.8</ele>
        <time>2021-11-16 12:30:52</time>
      </trkpt>
      <trkpt lat="40.75105" lon="-3.78886">
        <ele>920.8</ele>
        <time>2021-11-16 12:30:53</time>
      </trkpt>
      <trkpt lat="40.75106" lon="-3.78877">
        <ele>920.8</ele>
        <time>2021-11-16 12:30:54</time>
      </trkpt>
      <trkpt lat="40.75109" lon="-3.78869">
        <ele>920.8</ele>
        <time>2021-11-16 12:30:55</time>
      </trkpt>
      <trkpt lat="40.75112" lon="-3.7886">
        <ele>920.6</ele>
        <time>2021-11-16 12:30:56</time>
      </trkpt>
      <trkpt lat="40.75116" lon="-3.78853">
        <ele>920.8</ele>
        <time>2021-11-16 12:30:57</time>
      </trkpt>
      <trkpt lat="40.7512" lon="-3.78845">
        <ele>920.6</ele>
        <time>2021-11-16 12:30:58</time>
      </trkpt>
      <trkpt lat="40.75125" lon="-3.78837">
        <ele>920.4</ele>
        <time>2021-11-16 12:30:59</time>
      </trkpt>
      <trkpt lat="40.75129" lon="-3.7883">
        <ele>920.2</ele>
        <time>2021-11-16 12:31:00</time>
      </trkpt>
      <trkpt lat="40.75134" lon="-3.78822">
        <ele>920</ele>
        <time>2021-11-16 12:31:01</time>
      </trkpt>
      <trkpt lat="40.75139" lon="-3.78815">
        <ele>919.8</ele>
        <time>2021-11-16 12:31:02</time>
      </trkpt>
      <trkpt lat="40.75143" lon="-3.78807">
        <ele>919.8</ele>
        <time>2021-11-16 12:31:03</time>
      </trkpt>
      <trkpt lat="40.75148" lon="-3.788">
        <ele>919.8</ele>
        <time>2021-11-16 12:31:04</time>
      </trkpt>
      <trkpt lat="40.75152" lon="-3.78792">
        <ele>919.8</ele>
        <time>2021-11-16 12:31:05</time>
      </trkpt>
      <trkpt lat="40.75157" lon="-3.78785">
        <ele>919.8</ele>
        <time>2021-11-16 12:31:06</time>
      </trkpt>
      <trkpt lat="40.75162" lon="-3.78778">
        <ele>919.8</ele>
        <time>2021-11-16 12:31:07</time>
      </trkpt>
      <trkpt lat="40.75166" lon="-3.78771">
        <ele>919.6</ele>
        <time>2021-11-16 12:31:08</time>
      </trkpt>
      <trkpt lat="40.75171" lon="-3.78763">
        <ele>919.6</ele>
        <time>2021-11-16 12:31:09</time>
      </trkpt>
      <trkpt lat="40.75175" lon="-3.78756">
        <ele>919.6</ele>
        <time>2021-11-16 12:31:10</time>
      </trkpt>
      <trkpt lat="40.75179" lon="-3.78748">
        <ele>919.6</ele>
        <time>2021-11-16 12:31:11</time>
      </trkpt>
      <trkpt lat="40.75184" lon="-3.78741">
        <ele>919.8</ele>
        <time>2021-11-16 12:31:12</time>
      </trkpt>
      <trkpt lat="40.75188" lon="-3.78733">
        <ele>919.6</ele>
        <time>2021-11-16 12:31:13</time>
      </trkpt>
      <trkpt lat="40.75193" lon="-3.78726">
        <ele>919.6</ele>
        <time>2021-11-16 12:31:14</time>
      </trkpt>
      <trkpt lat="40.75197" lon="-3.78718">
        <ele>919.6</ele>
        <time>2021-11-16 12:31:15</time>
      </trkpt>
      <trkpt lat="40.75202" lon="-3.78711">
        <ele>919.6</ele>
        <time>2021-11-16 12:31:16</time>
      </trkpt>
      <trkpt lat="40.75206" lon="-3.78703">
        <ele>919.6</ele>
        <time>2021-11-16 12:31:17</time>
      </trkpt>
      <trkpt lat="40.75211" lon="-3.78696">
        <ele>919.6</ele>
        <time>2021-11-16 12:31:18</time>
      </trkpt>
      <trkpt lat="40.75216" lon="-3.78688">
        <ele>919.6</ele>
        <time>2021-11-16 12:31:19</time>
      </trkpt>
      <trkpt lat="40.7522" lon="-3.78681">
        <ele>919.4</ele>
        <time>2021-11-16 12:31:20</time>
      </trkpt>
      <trkpt lat="40.75225" lon="-3.78674">
        <ele>919.2</ele>
        <time>2021-11-16 12:31:21</time>
      </trkpt>
      <trkpt lat="40.75229" lon="-3.78667">
        <ele>919.4</ele>
        <time>2021-11-16 12:31:22</time>
      </trkpt>
      <trkpt lat="40.75234" lon="-3.7866">
        <ele>919.6</ele>
        <time>2021-11-16 12:31:23</time>
      </trkpt>
      <trkpt lat="40.75238" lon="-3.78653">
        <ele>919.6</ele>
        <time>2021-11-16 12:31:24</time>
      </trkpt>
      <trkpt lat="40.75242" lon="-3.78646">
        <ele>919.6</ele>
        <time>2021-11-16 12:31:25</time>
      </trkpt>
      <trkpt lat="40.75246" lon="-3.78638">
        <ele>919.6</ele>
        <time>2021-11-16 12:31:26</time>
      </trkpt>
      <trkpt lat="40.7525" lon="-3.78631">
        <ele>919.6</ele>
        <time>2021-11-16 12:31:27</time>
      </trkpt>
      <trkpt lat="40.75254" lon="-3.78623">
        <ele>919.6</ele>
        <time>2021-11-16 12:31:28</time>
      </trkpt>
      <trkpt lat="40.75258" lon="-3.78616">
        <ele>919.6</ele>
        <time>2021-11-16 12:31:29</time>
      </trkpt>
      <trkpt lat="40.75262" lon="-3.7861">
        <ele>919.6</ele>
        <time>2021-11-16 12:31:30</time>
      </trkpt>
      <trkpt lat="40.75266" lon="-3.78603">
        <ele>919.6</ele>
        <time>2021-11-16 12:31:31</time>
      </trkpt>
      <trkpt lat="40.75269" lon="-3.78596">
        <ele>919.6</ele>
        <time>2021-11-16 12:31:32</time>
      </trkpt>
      <trkpt lat="40.75273" lon="-3.7859">
        <ele>919.6</ele>
        <time>2021-11-16 12:31:33</time>
      </trkpt>
      <trkpt lat="40.75277" lon="-3.78584">
        <ele>919.8</ele>
        <time>2021-11-16 12:31:34</time>
      </trkpt>
      <trkpt lat="40.75281" lon="-3.78578">
        <ele>919.8</ele>
        <time>2021-11-16 12:31:35</time>
      </trkpt>
      <trkpt lat="40.75285" lon="-3.78572">
        <ele>919.8</ele>
        <time>2021-11-16 12:31:36</time>
      </trkpt>
      <trkpt lat="40.75288" lon="-3.78565">
        <ele>919.8</ele>
        <time>2021-11-16 12:31:37</time>
      </trkpt>
      <trkpt lat="40.75292" lon="-3.78559">
        <ele>919.8</ele>
        <time>2021-11-16 12:31:38</time>
      </trkpt>
      <trkpt lat="40.75295" lon="-3.78553">
        <ele>920.2</ele>
        <time>2021-11-16 12:31:39</time>
      </trkpt>
      <trkpt lat="40.75299" lon="-3.78547">
        <ele>920.4</ele>
        <time>2021-11-16 12:31:40</time>
      </trkpt>
      <trkpt lat="40.75303" lon="-3.78541">
        <ele>920.6</ele>
        <time>2021-11-16 12:31:41</time>
      </trkpt>
      <trkpt lat="40.75306" lon="-3.78535">
        <ele>920.8</ele>
        <time>2021-11-16 12:31:42</time>
      </trkpt>
      <trkpt lat="40.7531" lon="-3.78529">
        <ele>921</ele>
        <time>2021-11-16 12:31:43</time>
      </trkpt>
      <trkpt lat="40.75313" lon="-3.78523">
        <ele>921.2</ele>
        <time>2021-11-16 12:31:44</time>
      </trkpt>
      <trkpt lat="40.75317" lon="-3.78517">
        <ele>921.2</ele>
        <time>2021-11-16 12:31:45</time>
      </trkpt>
      <trkpt lat="40.75321" lon="-3.78511">
        <ele>921.2</ele>
        <time>2021-11-16 12:31:46</time>
      </trkpt>
      <trkpt lat="40.75324" lon="-3.78506">
        <ele>921.4</ele>
        <time>2021-11-16 12:31:47</time>
      </trkpt>
      <trkpt lat="40.75328" lon="-3.785">
        <ele>921.6</ele>
        <time>2021-11-16 12:31:48</time>
      </trkpt>
      <trkpt lat="40.75332" lon="-3.78494">
        <ele>921.8</ele>
        <time>2021-11-16 12:31:49</time>
      </trkpt>
      <trkpt lat="40.75335" lon="-3.78488">
        <ele>921.8</ele>
        <time>2021-11-16 12:31:50</time>
      </trkpt>
      <trkpt lat="40.75339" lon="-3.78482">
        <ele>922</ele>
        <time>2021-11-16 12:31:51</time>
      </trkpt>
      <trkpt lat="40.75342" lon="-3.78476">
        <ele>922.2</ele>
        <time>2021-11-16 12:31:52</time>
      </trkpt>
      <trkpt lat="40.75345" lon="-3.7847">
        <ele>922.2</ele>
        <time>2021-11-16 12:31:53</time>
      </trkpt>
      <trkpt lat="40.75349" lon="-3.78464">
        <ele>922.4</ele>
        <time>2021-11-16 12:31:54</time>
      </trkpt>
      <trkpt lat="40.75352" lon="-3.78459">
        <ele>922.2</ele>
        <time>2021-11-16 12:31:55</time>
      </trkpt>
      <trkpt lat="40.75355" lon="-3.78453">
        <ele>922.2</ele>
        <time>2021-11-16 12:31:56</time>
      </trkpt>
      <trkpt lat="40.75358" lon="-3.78447">
        <ele>922.2</ele>
        <time>2021-11-16 12:31:57</time>
      </trkpt>
      <trkpt lat="40.75362" lon="-3.78442">
        <ele>922.4</ele>
        <time>2021-11-16 12:31:58</time>
      </trkpt>
      <trkpt lat="40.75365" lon="-3.78436">
        <ele>922.6</ele>
        <time>2021-11-16 12:31:59</time>
      </trkpt>
      <trkpt lat="40.75369" lon="-3.78431">
        <ele>922.4</ele>
        <time>2021-11-16 12:32:00</time>
      </trkpt>
      <trkpt lat="40.75372" lon="-3.78425">
        <ele>922.6</ele>
        <time>2021-11-16 12:32:01</time>
      </trkpt>
      <trkpt lat="40.75376" lon="-3.7842">
        <ele>922.8</ele>
        <time>2021-11-16 12:32:02</time>
      </trkpt>
      <trkpt lat="40.75379" lon="-3.78414">
        <ele>922.8</ele>
        <time>2021-11-16 12:32:03</time>
      </trkpt>
      <trkpt lat="40.75382" lon="-3.78409">
        <ele>923</ele>
        <time>2021-11-16 12:32:04</time>
      </trkpt>
      <trkpt lat="40.75386" lon="-3.78403">
        <ele>923</ele>
        <time>2021-11-16 12:32:05</time>
      </trkpt>
      <trkpt lat="40.75389" lon="-3.78397">
        <ele>923</ele>
        <time>2021-11-16 12:32:06</time>
      </trkpt>
      <trkpt lat="40.75393" lon="-3.78392">
        <ele>923.2</ele>
        <time>2021-11-16 12:32:07</time>
      </trkpt>
      <trkpt lat="40.75396" lon="-3.78386">
        <ele>923.4</ele>
        <time>2021-11-16 12:32:08</time>
      </trkpt>
      <trkpt lat="40.75399" lon="-3.78381">
        <ele>923.4</ele>
        <time>2021-11-16 12:32:09</time>
      </trkpt>
      <trkpt lat="40.75403" lon="-3.78375">
        <ele>923.6</ele>
        <time>2021-11-16 12:32:10</time>
      </trkpt>
      <trkpt lat="40.75406" lon="-3.7837">
        <ele>923.8</ele>
        <time>2021-11-16 12:32:11</time>
      </trkpt>
      <trkpt lat="40.75409" lon="-3.78364">
        <ele>924</ele>
        <time>2021-11-16 12:32:12</time>
      </trkpt>
      <trkpt lat="40.75413" lon="-3.78358">
        <ele>924</ele>
        <time>2021-11-16 12:32:13</time>
      </trkpt>
      <trkpt lat="40.75415" lon="-3.78352">
        <ele>924</ele>
        <time>2021-11-16 12:32:14</time>
      </trkpt>
      <trkpt lat="40.75417" lon="-3.78346">
        <ele>924</ele>
        <time>2021-11-16 12:32:15</time>
      </trkpt>
      <trkpt lat="40.75417" lon="-3.7834">
        <ele>924.2</ele>
        <time>2021-11-16 12:32:16</time>
      </trkpt>
      <trkpt lat="40.75416" lon="-3.78334">
        <ele>924.2</ele>
        <time>2021-11-16 12:32:17</time>
      </trkpt>
      <trkpt lat="40.75414" lon="-3.78329">
        <ele>924.2</ele>
        <time>2021-11-16 12:32:18</time>
      </trkpt>
      <trkpt lat="40.75411" lon="-3.78324">
        <ele>924.2</ele>
        <time>2021-11-16 12:32:19</time>
      </trkpt>
      <trkpt lat="40.75407" lon="-3.78321">
        <ele>924.2</ele>
        <time>2021-11-16 12:32:20</time>
      </trkpt>
      <trkpt lat="40.75402" lon="-3.78317">
        <ele>924.4</ele>
        <time>2021-11-16 12:32:21</time>
      </trkpt>
      <trkpt lat="40.75397" lon="-3.78314">
        <ele>924.4</ele>
        <time>2021-11-16 12:32:22</time>
      </trkpt>
      <trkpt lat="40.75392" lon="-3.78311">
        <ele>924.4</ele>
        <time>2021-11-16 12:32:23</time>
      </trkpt>
      <trkpt lat="40.75387" lon="-3.78308">
        <ele>924.4</ele>
        <time>2021-11-16 12:32:24</time>
      </trkpt>
      <trkpt lat="40.75381" lon="-3.78304">
        <ele>924.4</ele>
        <time>2021-11-16 12:32:25</time>
      </trkpt>
      <trkpt lat="40.75376" lon="-3.783">
        <ele>924.4</ele>
        <time>2021-11-16 12:32:26</time>
      </trkpt>
      <trkpt lat="40.7537" lon="-3.78297">
        <ele>924.4</ele>
        <time>2021-11-16 12:32:27</time>
      </trkpt>
      <trkpt lat="40.75364" lon="-3.78293">
        <ele>924.4</ele>
        <time>2021-11-16 12:32:28</time>
      </trkpt>
      <trkpt lat="40.75358" lon="-3.7829">
        <ele>924.4</ele>
        <time>2021-11-16 12:32:29</time>
      </trkpt>
      <trkpt lat="40.75352" lon="-3.78286">
        <ele>924</ele>
        <time>2021-11-16 12:32:30</time>
      </trkpt>
      <trkpt lat="40.75346" lon="-3.78282">
        <ele>924.2</ele>
        <time>2021-11-16 12:32:31</time>
      </trkpt>
      <trkpt lat="40.7534" lon="-3.78279">
        <ele>923.6</ele>
        <time>2021-11-16 12:32:32</time>
      </trkpt>
      <trkpt lat="40.75334" lon="-3.78275">
        <ele>923.4</ele>
        <time>2021-11-16 12:32:33</time>
      </trkpt>
      <trkpt lat="40.75327" lon="-3.78271">
        <ele>923.2</ele>
        <time>2021-11-16 12:32:34</time>
      </trkpt>
      <trkpt lat="40.75321" lon="-3.78267">
        <ele>922.8</ele>
        <time>2021-11-16 12:32:35</time>
      </trkpt>
      <trkpt lat="40.75314" lon="-3.78263">
        <ele>922.8</ele>
        <time>2021-11-16 12:32:36</time>
      </trkpt>
      <trkpt lat="40.75308" lon="-3.78259">
        <ele>922.6</ele>
        <time>2021-11-16 12:32:37</time>
      </trkpt>
      <trkpt lat="40.75303" lon="-3.78256">
        <ele>922.6</ele>
        <time>2021-11-16 12:32:38</time>
      </trkpt>
      <trkpt lat="40.75297" lon="-3.78252">
        <ele>922.2</ele>
        <time>2021-11-16 12:32:39</time>
      </trkpt>
      <trkpt lat="40.75291" lon="-3.78248">
        <ele>922</ele>
        <time>2021-11-16 12:32:40</time>
      </trkpt>
      <trkpt lat="40.75285" lon="-3.78244">
        <ele>921.8</ele>
        <time>2021-11-16 12:32:41</time>
      </trkpt>
      <trkpt lat="40.75279" lon="-3.7824">
        <ele>921.6</ele>
        <time>2021-11-16 12:32:42</time>
      </trkpt>
      <trkpt lat="40.75272" lon="-3.78236">
        <ele>921.6</ele>
        <time>2021-11-16 12:32:43</time>
      </trkpt>
      <trkpt lat="40.75266" lon="-3.78232">
        <ele>921.6</ele>
        <time>2021-11-16 12:32:44</time>
      </trkpt>
      <trkpt lat="40.7526" lon="-3.78228">
        <ele>921.2</ele>
        <time>2021-11-16 12:32:45</time>
      </trkpt>
      <trkpt lat="40.75253" lon="-3.78224">
        <ele>921</ele>
        <time>2021-11-16 12:32:46</time>
      </trkpt>
      <trkpt lat="40.75247" lon="-3.78221">
        <ele>920.6</ele>
        <time>2021-11-16 12:32:47</time>
      </trkpt>
      <trkpt lat="40.7524" lon="-3.78217">
        <ele>920.6</ele>
        <time>2021-11-16 12:32:48</time>
      </trkpt>
      <trkpt lat="40.75233" lon="-3.78214">
        <ele>920.4</ele>
        <time>2021-11-16 12:32:49</time>
      </trkpt>
      <trkpt lat="40.75226" lon="-3.78211">
        <ele>920.4</ele>
        <time>2021-11-16 12:32:50</time>
      </trkpt>
      <trkpt lat="40.75218" lon="-3.78209">
        <ele>920.2</ele>
        <time>2021-11-16 12:32:51</time>
      </trkpt>
      <trkpt lat="40.75211" lon="-3.78209">
        <ele>920.2</ele>
        <time>2021-11-16 12:32:52</time>
      </trkpt>
      <trkpt lat="40.75203" lon="-3.7821">
        <ele>920</ele>
        <time>2021-11-16 12:32:53</time>
      </trkpt>
      <trkpt lat="40.75195" lon="-3.78212">
        <ele>919.8</ele>
        <time>2021-11-16 12:32:54</time>
      </trkpt>
      <trkpt lat="40.75188" lon="-3.78215">
        <ele>919.8</ele>
        <time>2021-11-16 12:32:55</time>
      </trkpt>
      <trkpt lat="40.7518" lon="-3.78217">
        <ele>919.6</ele>
        <time>2021-11-16 12:32:56</time>
      </trkpt>
      <trkpt lat="40.75173" lon="-3.78219">
        <ele>919.6</ele>
        <time>2021-11-16 12:32:57</time>
      </trkpt>
      <trkpt lat="40.75165" lon="-3.78221">
        <ele>919.4</ele>
        <time>2021-11-16 12:32:58</time>
      </trkpt>
      <trkpt lat="40.75158" lon="-3.78224">
        <ele>919.4</ele>
        <time>2021-11-16 12:32:59</time>
      </trkpt>
      <trkpt lat="40.7515" lon="-3.78226">
        <ele>919.2</ele>
        <time>2021-11-16 12:33:00</time>
      </trkpt>
      <trkpt lat="40.75142" lon="-3.78229">
        <ele>919.2</ele>
        <time>2021-11-16 12:33:01</time>
      </trkpt>
      <trkpt lat="40.75134" lon="-3.78232">
        <ele>919.2</ele>
        <time>2021-11-16 12:33:02</time>
      </trkpt>
      <trkpt lat="40.75126" lon="-3.78235">
        <ele>919.2</ele>
        <time>2021-11-16 12:33:03</time>
      </trkpt>
      <trkpt lat="40.75118" lon="-3.78238">
        <ele>918.2</ele>
        <time>2021-11-16 12:33:04</time>
      </trkpt>
      <trkpt lat="40.7511" lon="-3.78241">
        <ele>917.8</ele>
        <time>2021-11-16 12:33:05</time>
      </trkpt>
      <trkpt lat="40.75102" lon="-3.78244">
        <ele>917.6</ele>
        <time>2021-11-16 12:33:06</time>
      </trkpt>
      <trkpt lat="40.75094" lon="-3.78247">
        <ele>917.2</ele>
        <time>2021-11-16 12:33:07</time>
      </trkpt>
      <trkpt lat="40.75086" lon="-3.7825">
        <ele>917</ele>
        <time>2021-11-16 12:33:08</time>
      </trkpt>
      <trkpt lat="40.75078" lon="-3.78252">
        <ele>916.4</ele>
        <time>2021-11-16 12:33:09</time>
      </trkpt>
      <trkpt lat="40.7507" lon="-3.78255">
        <ele>916.2</ele>
        <time>2021-11-16 12:33:10</time>
      </trkpt>
      <trkpt lat="40.75062" lon="-3.78258">
        <ele>915.8</ele>
        <time>2021-11-16 12:33:11</time>
      </trkpt>
      <trkpt lat="40.75054" lon="-3.78261">
        <ele>915.6</ele>
        <time>2021-11-16 12:33:12</time>
      </trkpt>
      <trkpt lat="40.75047" lon="-3.78264">
        <ele>915.6</ele>
        <time>2021-11-16 12:33:13</time>
      </trkpt>
      <trkpt lat="40.75039" lon="-3.78266">
        <ele>915.4</ele>
        <time>2021-11-16 12:33:14</time>
      </trkpt>
      <trkpt lat="40.75032" lon="-3.7827">
        <ele>915</ele>
        <time>2021-11-16 12:33:15</time>
      </trkpt>
      <trkpt lat="40.75025" lon="-3.78273">
        <ele>915</ele>
        <time>2021-11-16 12:33:16</time>
      </trkpt>
      <trkpt lat="40.75017" lon="-3.78276">
        <ele>915</ele>
        <time>2021-11-16 12:33:17</time>
      </trkpt>
      <trkpt lat="40.7501" lon="-3.78278">
        <ele>914.8</ele>
        <time>2021-11-16 12:33:18</time>
      </trkpt>
      <trkpt lat="40.75003" lon="-3.78281">
        <ele>914.8</ele>
        <time>2021-11-16 12:33:19</time>
      </trkpt>
      <trkpt lat="40.74996" lon="-3.78284">
        <ele>914.6</ele>
        <time>2021-11-16 12:33:20</time>
      </trkpt>
      <trkpt lat="40.7499" lon="-3.78288">
        <ele>914.8</ele>
        <time>2021-11-16 12:33:21</time>
      </trkpt>
      <trkpt lat="40.74985" lon="-3.78293">
        <ele>914.8</ele>
        <time>2021-11-16 12:33:22</time>
      </trkpt>
      <trkpt lat="40.74982" lon="-3.783">
        <ele>914.4</ele>
        <time>2021-11-16 12:33:23</time>
      </trkpt>
      <trkpt lat="40.7498" lon="-3.78308">
        <ele>914.2</ele>
        <time>2021-11-16 12:33:24</time>
      </trkpt>
      <trkpt lat="40.74977" lon="-3.78315">
        <ele>914.2</ele>
        <time>2021-11-16 12:33:25</time>
      </trkpt>
      <trkpt lat="40.74973" lon="-3.7832">
        <ele>914.2</ele>
        <time>2021-11-16 12:33:26</time>
      </trkpt>
      <trkpt lat="40.74967" lon="-3.78323">
        <ele>913.8</ele>
        <time>2021-11-16 12:33:27</time>
      </trkpt>
      <trkpt lat="40.7496" lon="-3.78325">
        <ele>913.8</ele>
        <time>2021-11-16 12:33:28</time>
      </trkpt>
      <trkpt lat="40.74954" lon="-3.78326">
        <ele>913.8</ele>
        <time>2021-11-16 12:33:29</time>
      </trkpt>
      <trkpt lat="40.74947" lon="-3.78327">
        <ele>913.6</ele>
        <time>2021-11-16 12:33:30</time>
      </trkpt>
      <trkpt lat="40.74941" lon="-3.78327">
        <ele>913.6</ele>
        <time>2021-11-16 12:33:31</time>
      </trkpt>
      <trkpt lat="40.74935" lon="-3.78326">
        <ele>913.6</ele>
        <time>2021-11-16 12:33:32</time>
      </trkpt>
      <trkpt lat="40.7493" lon="-3.78325">
        <ele>913.6</ele>
        <time>2021-11-16 12:33:33</time>
      </trkpt>
      <trkpt lat="40.74926" lon="-3.78325">
        <ele>913.6</ele>
        <time>2021-11-16 12:33:34</time>
      </trkpt>
      <trkpt lat="40.74922" lon="-3.78326">
        <ele>913.4</ele>
        <time>2021-11-16 12:33:35</time>
      </trkpt>
      <trkpt lat="40.74919" lon="-3.78327">
        <ele>913.6</ele>
        <time>2021-11-16 12:33:36</time>
      </trkpt>
      <trkpt lat="40.74915" lon="-3.78329">
        <ele>913.6</ele>
        <time>2021-11-16 12:33:37</time>
      </trkpt>
      <trkpt lat="40.74644" lon="-3.7841">
        <ele>913.2</ele>
        <time>2021-11-16 13:06:45</time>
      </trkpt>
      <trkpt lat="40.74638" lon="-3.78411">
        <ele>913</ele>
        <time>2021-11-16 13:06:46</time>
      </trkpt>
      <trkpt lat="40.74632" lon="-3.78413">
        <ele>913</ele>
        <time>2021-11-16 13:06:47</time>
      </trkpt>
      <trkpt lat="40.74626" lon="-3.78415">
        <ele>913</ele>
        <time>2021-11-16 13:06:48</time>
      </trkpt>
      <trkpt lat="40.7462" lon="-3.78417">
        <ele>913</ele>
        <time>2021-11-16 13:06:49</time>
      </trkpt>
      <trkpt lat="40.74613" lon="-3.78418">
        <ele>913</ele>
        <time>2021-11-16 13:06:50</time>
      </trkpt>
      <trkpt lat="40.74607" lon="-3.7842">
        <ele>913</ele>
        <time>2021-11-16 13:06:51</time>
      </trkpt>
      <trkpt lat="40.74601" lon="-3.78422">
        <ele>913</ele>
        <time>2021-11-16 13:06:52</time>
      </trkpt>
      <trkpt lat="40.74595" lon="-3.78425">
        <ele>912.8</ele>
        <time>2021-11-16 13:06:53</time>
      </trkpt>
      <trkpt lat="40.74588" lon="-3.78427">
        <ele>912.8</ele>
        <time>2021-11-16 13:06:54</time>
      </trkpt>
      <trkpt lat="40.74582" lon="-3.78429">
        <ele>913</ele>
        <time>2021-11-16 13:06:55</time>
      </trkpt>
      <trkpt lat="40.74575" lon="-3.7843">
        <ele>912.8</ele>
        <time>2021-11-16 13:06:56</time>
      </trkpt>
      <trkpt lat="40.74568" lon="-3.7843">
        <ele>912.8</ele>
        <time>2021-11-16 13:06:57</time>
      </trkpt>
      <trkpt lat="40.74561" lon="-3.78432">
        <ele>912.8</ele>
        <time>2021-11-16 13:06:58</time>
      </trkpt>
      <trkpt lat="40.74554" lon="-3.78434">
        <ele>913</ele>
        <time>2021-11-16 13:06:59</time>
      </trkpt>
      <trkpt lat="40.74547" lon="-3.78436">
        <ele>912.8</ele>
        <time>2021-11-16 13:07:00</time>
      </trkpt>
      <trkpt lat="40.7454" lon="-3.78438">
        <ele>912.8</ele>
        <time>2021-11-16 13:07:01</time>
      </trkpt>
      <trkpt lat="40.74533" lon="-3.7844">
        <ele>912.6</ele>
        <time>2021-11-16 13:07:02</time>
      </trkpt>
      <trkpt lat="40.74526" lon="-3.78442">
        <ele>912.8</ele>
        <time>2021-11-16 13:07:03</time>
      </trkpt>
      <trkpt lat="40.74519" lon="-3.78444">
        <ele>912.6</ele>
        <time>2021-11-16 13:07:04</time>
      </trkpt>
      <trkpt lat="40.74511" lon="-3.78447">
        <ele>912.6</ele>
        <time>2021-11-16 13:07:05</time>
      </trkpt>
      <trkpt lat="40.74504" lon="-3.78449">
        <ele>912.4</ele>
        <time>2021-11-16 13:07:06</time>
      </trkpt>
      <trkpt lat="40.74496" lon="-3.7845">
        <ele>912.4</ele>
        <time>2021-11-16 13:07:07</time>
      </trkpt>
      <trkpt lat="40.74489" lon="-3.78451">
        <ele>911.8</ele>
        <time>2021-11-16 13:07:08</time>
      </trkpt>
      <trkpt lat="40.74481" lon="-3.78451">
        <ele>911.2</ele>
        <time>2021-11-16 13:07:09</time>
      </trkpt>
      <trkpt lat="40.74473" lon="-3.78451">
        <ele>911.2</ele>
        <time>2021-11-16 13:07:10</time>
      </trkpt>
      <trkpt lat="40.74465" lon="-3.78451">
        <ele>911</ele>
        <time>2021-11-16 13:07:11</time>
      </trkpt>
      <trkpt lat="40.74458" lon="-3.78452">
        <ele>910.6</ele>
        <time>2021-11-16 13:07:12</time>
      </trkpt>
      <trkpt lat="40.7445" lon="-3.78454">
        <ele>910.2</ele>
        <time>2021-11-16 13:07:13</time>
      </trkpt>
      <trkpt lat="40.74443" lon="-3.78455">
        <ele>910</ele>
        <time>2021-11-16 13:07:14</time>
      </trkpt>
      <trkpt lat="40.74436" lon="-3.78458">
        <ele>909.4</ele>
        <time>2021-11-16 13:07:15</time>
      </trkpt>
      <trkpt lat="40.74429" lon="-3.7846">
        <ele>909.4</ele>
        <time>2021-11-16 13:07:16</time>
      </trkpt>
      <trkpt lat="40.74422" lon="-3.78462">
        <ele>909.4</ele>
        <time>2021-11-16 13:07:17</time>
      </trkpt>
      <trkpt lat="40.74415" lon="-3.78464">
        <ele>909.2</ele>
        <time>2021-11-16 13:07:18</time>
      </trkpt>
      <trkpt lat="40.74408" lon="-3.78467">
        <ele>909.2</ele>
        <time>2021-11-16 13:07:19</time>
      </trkpt>
      <trkpt lat="40.74401" lon="-3.7847">
        <ele>908.8</ele>
        <time>2021-11-16 13:07:20</time>
      </trkpt>
      <trkpt lat="40.74394" lon="-3.78473">
        <ele>908.6</ele>
        <time>2021-11-16 13:07:21</time>
      </trkpt>
      <trkpt lat="40.74387" lon="-3.78477">
        <ele>908.6</ele>
        <time>2021-11-16 13:07:22</time>
      </trkpt>
      <trkpt lat="40.74381" lon="-3.78481">
        <ele>908.4</ele>
        <time>2021-11-16 13:07:23</time>
      </trkpt>
      <trkpt lat="40.74374" lon="-3.78485">
        <ele>908.2</ele>
        <time>2021-11-16 13:07:24</time>
      </trkpt>
      <trkpt lat="40.74368" lon="-3.78489">
        <ele>907.8</ele>
        <time>2021-11-16 13:07:25</time>
      </trkpt>
      <trkpt lat="40.74362" lon="-3.78493">
        <ele>907.8</ele>
        <time>2021-11-16 13:07:26</time>
      </trkpt>
      <trkpt lat="40.74356" lon="-3.78498">
        <ele>907.8</ele>
        <time>2021-11-16 13:07:27</time>
      </trkpt>
      <trkpt lat="40.74349" lon="-3.78503">
        <ele>907.6</ele>
        <time>2021-11-16 13:07:28</time>
      </trkpt>
      <trkpt lat="40.74344" lon="-3.78508">
        <ele>907.8</ele>
        <time>2021-11-16 13:07:29</time>
      </trkpt>
      <trkpt lat="40.74338" lon="-3.78513">
        <ele>907.6</ele>
        <time>2021-11-16 13:07:30</time>
      </trkpt>
      <trkpt lat="40.74332" lon="-3.78518">
        <ele>907.6</ele>
        <time>2021-11-16 13:07:31</time>
      </trkpt>
      <trkpt lat="40.74326" lon="-3.78524">
        <ele>907.6</ele>
        <time>2021-11-16 13:07:32</time>
      </trkpt>
      <trkpt lat="40.7432" lon="-3.78529">
        <ele>907.8</ele>
        <time>2021-11-16 13:07:33</time>
      </trkpt>
      <trkpt lat="40.74314" lon="-3.78535">
        <ele>907.8</ele>
        <time>2021-11-16 13:07:34</time>
      </trkpt>
      <trkpt lat="40.74308" lon="-3.7854">
        <ele>907.8</ele>
        <time>2021-11-16 13:07:35</time>
      </trkpt>
      <trkpt lat="40.74302" lon="-3.78546">
        <ele>907.6</ele>
        <time>2021-11-16 13:07:36</time>
      </trkpt>
      <trkpt lat="40.74296" lon="-3.78552">
        <ele>907.6</ele>
        <time>2021-11-16 13:07:37</time>
      </trkpt>
      <trkpt lat="40.7429" lon="-3.78558">
        <ele>907.6</ele>
        <time>2021-11-16 13:07:38</time>
      </trkpt>
      <trkpt lat="40.74284" lon="-3.78563">
        <ele>907.6</ele>
        <time>2021-11-16 13:07:39</time>
      </trkpt>
      <trkpt lat="40.74278" lon="-3.78569">
        <ele>907.6</ele>
        <time>2021-11-16 13:07:40</time>
      </trkpt>
      <trkpt lat="40.74271" lon="-3.78574">
        <ele>907.8</ele>
        <time>2021-11-16 13:07:41</time>
      </trkpt>
      <trkpt lat="40.74264" lon="-3.78579">
        <ele>907.8</ele>
        <time>2021-11-16 13:07:42</time>
      </trkpt>
      <trkpt lat="40.74258" lon="-3.78585">
        <ele>907.8</ele>
        <time>2021-11-16 13:07:43</time>
      </trkpt>
      <trkpt lat="40.74252" lon="-3.7859">
        <ele>907.8</ele>
        <time>2021-11-16 13:07:44</time>
      </trkpt>
      <trkpt lat="40.74246" lon="-3.78596">
        <ele>908</ele>
        <time>2021-11-16 13:07:45</time>
      </trkpt>
      <trkpt lat="40.74239" lon="-3.78601">
        <ele>907.8</ele>
        <time>2021-11-16 13:07:46</time>
      </trkpt>
      <trkpt lat="40.74233" lon="-3.78606">
        <ele>907.8</ele>
        <time>2021-11-16 13:07:47</time>
      </trkpt>
      <trkpt lat="40.74227" lon="-3.78611">
        <ele>907.8</ele>
        <time>2021-11-16 13:07:48</time>
      </trkpt>
      <trkpt lat="40.74221" lon="-3.78615">
        <ele>907.6</ele>
        <time>2021-11-16 13:07:49</time>
      </trkpt>
      <trkpt lat="40.74215" lon="-3.78619">
        <ele>907.6</ele>
        <time>2021-11-16 13:07:50</time>
      </trkpt>
      <trkpt lat="40.74209" lon="-3.78623">
        <ele>907.6</ele>
        <time>2021-11-16 13:07:51</time>
      </trkpt>
      <trkpt lat="40.74203" lon="-3.78626">
        <ele>907.6</ele>
        <time>2021-11-16 13:07:52</time>
      </trkpt>
      <trkpt lat="40.74196" lon="-3.78628">
        <ele>907.6</ele>
        <time>2021-11-16 13:07:53</time>
      </trkpt>
      <trkpt lat="40.7419" lon="-3.7863">
        <ele>907.8</ele>
        <time>2021-11-16 13:07:54</time>
      </trkpt>
      <trkpt lat="40.74183" lon="-3.78631">
        <ele>907.6</ele>
        <time>2021-11-16 13:07:55</time>
      </trkpt>
      <trkpt lat="40.74176" lon="-3.78631">
        <ele>907.6</ele>
        <time>2021-11-16 13:07:56</time>
      </trkpt>
      <trkpt lat="40.74169" lon="-3.78631">
        <ele>907.6</ele>
        <time>2021-11-16 13:07:57</time>
      </trkpt>
      <trkpt lat="40.74162" lon="-3.78632">
        <ele>907.6</ele>
        <time>2021-11-16 13:07:58</time>
      </trkpt>
      <trkpt lat="40.74155" lon="-3.78632">
        <ele>907.8</ele>
        <time>2021-11-16 13:07:59</time>
      </trkpt>
      <trkpt lat="40.74147" lon="-3.78632">
        <ele>907.6</ele>
        <time>2021-11-16 13:08:00</time>
      </trkpt>
      <trkpt lat="40.7414" lon="-3.78633">
        <ele>907.6</ele>
        <time>2021-11-16 13:08:01</time>
      </trkpt>
      <trkpt lat="40.74133" lon="-3.78633">
        <ele>907.6</ele>
        <time>2021-11-16 13:08:02</time>
      </trkpt>
      <trkpt lat="40.74126" lon="-3.78633">
        <ele>907.6</ele>
        <time>2021-11-16 13:08:03</time>
      </trkpt>
      <trkpt lat="40.74118" lon="-3.78633">
        <ele>907.6</ele>
        <time>2021-11-16 13:08:04</time>
      </trkpt>
      <trkpt lat="40.74111" lon="-3.78633">
        <ele>907.6</ele>
        <time>2021-11-16 13:08:05</time>
      </trkpt>
      <trkpt lat="40.74104" lon="-3.78633">
        <ele>907.4</ele>
        <time>2021-11-16 13:08:06</time>
      </trkpt>
      <trkpt lat="40.74097" lon="-3.78634">
        <ele>907.6</ele>
        <time>2021-11-16 13:08:07</time>
      </trkpt>
      <trkpt lat="40.74089" lon="-3.78634">
        <ele>907.6</ele>
        <time>2021-11-16 13:08:08</time>
      </trkpt>
      <trkpt lat="40.74082" lon="-3.78634">
        <ele>907.6</ele>
        <time>2021-11-16 13:08:09</time>
      </trkpt>
      <trkpt lat="40.74075" lon="-3.78634">
        <ele>907.6</ele>
        <time>2021-11-16 13:08:10</time>
      </trkpt>
      <trkpt lat="40.74068" lon="-3.78635">
        <ele>907.4</ele>
        <time>2021-11-16 13:08:11</time>
      </trkpt>
      <trkpt lat="40.74061" lon="-3.78636">
        <ele>907.4</ele>
        <time>2021-11-16 13:08:12</time>
      </trkpt>
      <trkpt lat="40.74053" lon="-3.78636">
        <ele>907.6</ele>
        <time>2021-11-16 13:08:13</time>
      </trkpt>
      <trkpt lat="40.74046" lon="-3.78636">
        <ele>907.2</ele>
        <time>2021-11-16 13:08:14</time>
      </trkpt>
      <trkpt lat="40.74039" lon="-3.78636">
        <ele>907.4</ele>
        <time>2021-11-16 13:08:15</time>
      </trkpt>
      <trkpt lat="40.74031" lon="-3.78636">
        <ele>907.2</ele>
        <time>2021-11-16 13:08:16</time>
      </trkpt>
      <trkpt lat="40.74024" lon="-3.78637">
        <ele>907.2</ele>
        <time>2021-11-16 13:08:17</time>
      </trkpt>
      <trkpt lat="40.74017" lon="-3.78637">
        <ele>907</ele>
        <time>2021-11-16 13:08:18</time>
      </trkpt>
      <trkpt lat="40.74009" lon="-3.78637">
        <ele>907.2</ele>
        <time>2021-11-16 13:08:19</time>
      </trkpt>
      <trkpt lat="40.74002" lon="-3.78637">
        <ele>907</ele>
        <time>2021-11-16 13:08:20</time>
      </trkpt>
      <trkpt lat="40.73995" lon="-3.78637">
        <ele>907</ele>
        <time>2021-11-16 13:08:21</time>
      </trkpt>
      <trkpt lat="40.73988" lon="-3.78638">
        <ele>907.2</ele>
        <time>2021-11-16 13:08:22</time>
      </trkpt>
      <trkpt lat="40.7398" lon="-3.78638">
        <ele>907.2</ele>
        <time>2021-11-16 13:08:23</time>
      </trkpt>
      <trkpt lat="40.73973" lon="-3.78638">
        <ele>907</ele>
        <time>2021-11-16 13:08:24</time>
      </trkpt>
      <trkpt lat="40.73965" lon="-3.78638">
        <ele>907</ele>
        <time>2021-11-16 13:08:25</time>
      </trkpt>
      <trkpt lat="40.73958" lon="-3.78638">
        <ele>907</ele>
        <time>2021-11-16 13:08:26</time>
      </trkpt>
      <trkpt lat="40.7395" lon="-3.78639">
        <ele>906.8</ele>
        <time>2021-11-16 13:08:27</time>
      </trkpt>
      <trkpt lat="40.73943" lon="-3.78639">
        <ele>906.6</ele>
        <time>2021-11-16 13:08:28</time>
      </trkpt>
      <trkpt lat="40.73935" lon="-3.78639">
        <ele>906.6</ele>
        <time>2021-11-16 13:08:29</time>
      </trkpt>
      <trkpt lat="40.73928" lon="-3.7864">
        <ele>906.4</ele>
        <time>2021-11-16 13:08:30</time>
      </trkpt>
      <trkpt lat="40.73921" lon="-3.7864">
        <ele>906.4</ele>
        <time>2021-11-16 13:08:31</time>
      </trkpt>
      <trkpt lat="40.73913" lon="-3.7864">
        <ele>906.4</ele>
        <time>2021-11-16 13:08:32</time>
      </trkpt>
      <trkpt lat="40.73906" lon="-3.78641">
        <ele>906.4</ele>
        <time>2021-11-16 13:08:33</time>
      </trkpt>
      <trkpt lat="40.73898" lon="-3.78641">
        <ele>906.2</ele>
        <time>2021-11-16 13:08:34</time>
      </trkpt>
      <trkpt lat="40.73891" lon="-3.78641">
        <ele>906.2</ele>
        <time>2021-11-16 13:08:35</time>
      </trkpt>
      <trkpt lat="40.73883" lon="-3.78642">
        <ele>906.2</ele>
        <time>2021-11-16 13:08:36</time>
      </trkpt>
      <trkpt lat="40.73876" lon="-3.78642">
        <ele>906</ele>
        <time>2021-11-16 13:08:37</time>
      </trkpt>
      <trkpt lat="40.73868" lon="-3.78643">
        <ele>906</ele>
        <time>2021-11-16 13:08:38</time>
      </trkpt>
      <trkpt lat="40.73861" lon="-3.78643">
        <ele>906</ele>
        <time>2021-11-16 13:08:39</time>
      </trkpt>
      <trkpt lat="40.73853" lon="-3.78644">
        <ele>906</ele>
        <time>2021-11-16 13:08:40</time>
      </trkpt>
      <trkpt lat="40.73846" lon="-3.78644">
        <ele>905.8</ele>
        <time>2021-11-16 13:08:41</time>
      </trkpt>
      <trkpt lat="40.73838" lon="-3.78645">
        <ele>905.6</ele>
        <time>2021-11-16 13:08:42</time>
      </trkpt>
      <trkpt lat="40.73831" lon="-3.78646">
        <ele>905.6</ele>
        <time>2021-11-16 13:08:43</time>
      </trkpt>
      <trkpt lat="40.73823" lon="-3.78647">
        <ele>905.4</ele>
        <time>2021-11-16 13:08:44</time>
      </trkpt>
      <trkpt lat="40.73815" lon="-3.78649">
        <ele>905.4</ele>
        <time>2021-11-16 13:08:45</time>
      </trkpt>
      <trkpt lat="40.73808" lon="-3.7865">
        <ele>905.4</ele>
        <time>2021-11-16 13:08:46</time>
      </trkpt>
      <trkpt lat="40.738" lon="-3.78653">
        <ele>905.6</ele>
        <time>2021-11-16 13:08:47</time>
      </trkpt>
      <trkpt lat="40.73792" lon="-3.78655">
        <ele>905.4</ele>
        <time>2021-11-16 13:08:48</time>
      </trkpt>
      <trkpt lat="40.73785" lon="-3.78658">
        <ele>905.4</ele>
        <time>2021-11-16 13:08:49</time>
      </trkpt>
      <trkpt lat="40.73777" lon="-3.78661">
        <ele>905.4</ele>
        <time>2021-11-16 13:08:50</time>
      </trkpt>
      <trkpt lat="40.7377" lon="-3.78665">
        <ele>905.4</ele>
        <time>2021-11-16 13:08:51</time>
      </trkpt>
      <trkpt lat="40.73763" lon="-3.78668">
        <ele>905.4</ele>
        <time>2021-11-16 13:08:52</time>
      </trkpt>
      <trkpt lat="40.73756" lon="-3.78671">
        <ele>905.2</ele>
        <time>2021-11-16 13:08:53</time>
      </trkpt>
      <trkpt lat="40.73749" lon="-3.78674">
        <ele>905.2</ele>
        <time>2021-11-16 13:08:54</time>
      </trkpt>
      <trkpt lat="40.73743" lon="-3.78677">
        <ele>905.2</ele>
        <time>2021-11-16 13:08:55</time>
      </trkpt>
      <trkpt lat="40.73736" lon="-3.7868">
        <ele>905</ele>
        <time>2021-11-16 13:08:56</time>
      </trkpt>
      <trkpt lat="40.73729" lon="-3.78683">
        <ele>905</ele>
        <time>2021-11-16 13:08:57</time>
      </trkpt>
      <trkpt lat="40.73723" lon="-3.78686">
        <ele>905</ele>
        <time>2021-11-16 13:08:58</time>
      </trkpt>
      <trkpt lat="40.73716" lon="-3.7869">
        <ele>905</ele>
        <time>2021-11-16 13:08:59</time>
      </trkpt>
      <trkpt lat="40.73709" lon="-3.78693">
        <ele>905</ele>
        <time>2021-11-16 13:09:00</time>
      </trkpt>
      <trkpt lat="40.73703" lon="-3.78696">
        <ele>905</ele>
        <time>2021-11-16 13:09:01</time>
      </trkpt>
      <trkpt lat="40.73696" lon="-3.78699">
        <ele>905.2</ele>
        <time>2021-11-16 13:09:02</time>
      </trkpt>
      <trkpt lat="40.7369" lon="-3.78702">
        <ele>905</ele>
        <time>2021-11-16 13:09:03</time>
      </trkpt>
      <trkpt lat="40.73683" lon="-3.78705">
        <ele>904.6</ele>
        <time>2021-11-16 13:09:04</time>
      </trkpt>
      <trkpt lat="40.73676" lon="-3.78708">
        <ele>904.6</ele>
        <time>2021-11-16 13:09:05</time>
      </trkpt>
      <trkpt lat="40.7367" lon="-3.78711">
        <ele>904.6</ele>
        <time>2021-11-16 13:09:06</time>
      </trkpt>
      <trkpt lat="40.73663" lon="-3.78714">
        <ele>905</ele>
        <time>2021-11-16 13:09:07</time>
      </trkpt>
      <trkpt lat="40.73656" lon="-3.78717">
        <ele>905</ele>
        <time>2021-11-16 13:09:08</time>
      </trkpt>
      <trkpt lat="40.7365" lon="-3.7872">
        <ele>905</ele>
        <time>2021-11-16 13:09:09</time>
      </trkpt>
      <trkpt lat="40.73643" lon="-3.78723">
        <ele>905</ele>
        <time>2021-11-16 13:09:10</time>
      </trkpt>
      <trkpt lat="40.73637" lon="-3.78726">
        <ele>905</ele>
        <time>2021-11-16 13:09:11</time>
      </trkpt>
      <trkpt lat="40.7363" lon="-3.78729">
        <ele>905.2</ele>
        <time>2021-11-16 13:09:12</time>
      </trkpt>
      <trkpt lat="40.73623" lon="-3.78732">
        <ele>905.2</ele>
        <time>2021-11-16 13:09:13</time>
      </trkpt>
      <trkpt lat="40.73617" lon="-3.78735">
        <ele>905.2</ele>
        <time>2021-11-16 13:09:14</time>
      </trkpt>
      <trkpt lat="40.7361" lon="-3.78738">
        <ele>905.2</ele>
        <time>2021-11-16 13:09:15</time>
      </trkpt>
      <trkpt lat="40.73604" lon="-3.78741">
        <ele>905</ele>
        <time>2021-11-16 13:09:16</time>
      </trkpt>
      <trkpt lat="40.73597" lon="-3.78744">
        <ele>905.2</ele>
        <time>2021-11-16 13:09:17</time>
      </trkpt>
      <trkpt lat="40.73591" lon="-3.78747">
        <ele>905</ele>
        <time>2021-11-16 13:09:18</time>
      </trkpt>
      <trkpt lat="40.73584" lon="-3.7875">
        <ele>905</ele>
        <time>2021-11-16 13:09:19</time>
      </trkpt>
      <trkpt lat="40.73578" lon="-3.78753">
        <ele>905</ele>
        <time>2021-11-16 13:09:20</time>
      </trkpt>
      <trkpt lat="40.73572" lon="-3.78757">
        <ele>905</ele>
        <time>2021-11-16 13:09:21</time>
      </trkpt>
      <trkpt lat="40.73565" lon="-3.7876">
        <ele>905</ele>
        <time>2021-11-16 13:09:22</time>
      </trkpt>
      <trkpt lat="40.73559" lon="-3.78763">
        <ele>905</ele>
        <time>2021-11-16 13:09:23</time>
      </trkpt>
      <trkpt lat="40.73552" lon="-3.78766">
        <ele>905.2</ele>
        <time>2021-11-16 13:09:24</time>
      </trkpt>
      <trkpt lat="40.73546" lon="-3.78769">
        <ele>905.2</ele>
        <time>2021-11-16 13:09:25</time>
      </trkpt>
      <trkpt lat="40.73539" lon="-3.78772">
        <ele>905.4</ele>
        <time>2021-11-16 13:09:26</time>
      </trkpt>
      <trkpt lat="40.73533" lon="-3.78774">
        <ele>905.4</ele>
        <time>2021-11-16 13:09:27</time>
      </trkpt>
      <trkpt lat="40.73527" lon="-3.78777">
        <ele>905.2</ele>
        <time>2021-11-16 13:09:28</time>
      </trkpt>
      <trkpt lat="40.73521" lon="-3.7878">
        <ele>905.2</ele>
        <time>2021-11-16 13:09:29</time>
      </trkpt>
      <trkpt lat="40.73515" lon="-3.78783">
        <ele>905.4</ele>
        <time>2021-11-16 13:09:30</time>
      </trkpt>
      <trkpt lat="40.73509" lon="-3.78785">
        <ele>905.4</ele>
        <time>2021-11-16 13:09:31</time>
      </trkpt>
      <trkpt lat="40.73504" lon="-3.78788">
        <ele>905.4</ele>
        <time>2021-11-16 13:09:32</time>
      </trkpt>
      <trkpt lat="40.73498" lon="-3.78791">
        <ele>905.6</ele>
        <time>2021-11-16 13:09:33</time>
      </trkpt>
      <trkpt lat="40.73493" lon="-3.78793">
        <ele>905.6</ele>
        <time>2021-11-16 13:09:34</time>
      </trkpt>
      <trkpt lat="40.73487" lon="-3.78796">
        <ele>906</ele>
        <time>2021-11-16 13:09:35</time>
      </trkpt>
      <trkpt lat="40.73482" lon="-3.78798">
        <ele>906.2</ele>
        <time>2021-11-16 13:09:36</time>
      </trkpt>
      <trkpt lat="40.73477" lon="-3.78801">
        <ele>906.6</ele>
        <time>2021-11-16 13:09:37</time>
      </trkpt>
      <trkpt lat="40.73471" lon="-3.78803">
        <ele>907</ele>
        <time>2021-11-16 13:09:38</time>
      </trkpt>
      <trkpt lat="40.73466" lon="-3.78805">
        <ele>907</ele>
        <time>2021-11-16 13:09:39</time>
      </trkpt>
      <trkpt lat="40.73461" lon="-3.78807">
        <ele>907.2</ele>
        <time>2021-11-16 13:09:40</time>
      </trkpt>
      <trkpt lat="40.73456" lon="-3.7881">
        <ele>907.6</ele>
        <time>2021-11-16 13:09:41</time>
      </trkpt>
      <trkpt lat="40.73451" lon="-3.78813">
        <ele>907.8</ele>
        <time>2021-11-16 13:09:42</time>
      </trkpt>
      <trkpt lat="40.73446" lon="-3.78815">
        <ele>908</ele>
        <time>2021-11-16 13:09:43</time>
      </trkpt>
      <trkpt lat="40.73441" lon="-3.78817">
        <ele>908.4</ele>
        <time>2021-11-16 13:09:44</time>
      </trkpt>
      <trkpt lat="40.73436" lon="-3.7882">
        <ele>908.2</ele>
        <time>2021-11-16 13:09:45</time>
      </trkpt>
      <trkpt lat="40.73431" lon="-3.78822">
        <ele>908.4</ele>
        <time>2021-11-16 13:09:46</time>
      </trkpt>
      <trkpt lat="40.73426" lon="-3.78824">
        <ele>909</ele>
        <time>2021-11-16 13:09:47</time>
      </trkpt>
      <trkpt lat="40.73422" lon="-3.78826">
        <ele>909</ele>
        <time>2021-11-16 13:09:48</time>
      </trkpt>
      <trkpt lat="40.73417" lon="-3.78828">
        <ele>909</ele>
        <time>2021-11-16 13:09:49</time>
      </trkpt>
      <trkpt lat="40.73413" lon="-3.7883">
        <ele>909.4</ele>
        <time>2021-11-16 13:09:50</time>
      </trkpt>
      <trkpt lat="40.73408" lon="-3.78832">
        <ele>909.6</ele>
        <time>2021-11-16 13:09:51</time>
      </trkpt>
      <trkpt lat="40.73404" lon="-3.78835">
        <ele>909.6</ele>
        <time>2021-11-16 13:09:52</time>
      </trkpt>
      <trkpt lat="40.734" lon="-3.78837">
        <ele>910</ele>
        <time>2021-11-16 13:09:53</time>
      </trkpt>
      <trkpt lat="40.73395" lon="-3.78838">
        <ele>910.2</ele>
        <time>2021-11-16 13:09:54</time>
      </trkpt>
      <trkpt lat="40.73391" lon="-3.78841">
        <ele>910.4</ele>
        <time>2021-11-16 13:09:55</time>
      </trkpt>
      <trkpt lat="40.73387" lon="-3.78843">
        <ele>910.8</ele>
        <time>2021-11-16 13:09:56</time>
      </trkpt>
      <trkpt lat="40.73382" lon="-3.78845">
        <ele>911.2</ele>
        <time>2021-11-16 13:09:57</time>
      </trkpt>
      <trkpt lat="40.73378" lon="-3.78847">
        <ele>911.6</ele>
        <time>2021-11-16 13:09:58</time>
      </trkpt>
      <trkpt lat="40.73373" lon="-3.78849">
        <ele>911.8</ele>
        <time>2021-11-16 13:09:59</time>
      </trkpt>
      <trkpt lat="40.73369" lon="-3.78851">
        <ele>912</ele>
        <time>2021-11-16 13:10:00</time>
      </trkpt>
      <trkpt lat="40.73364" lon="-3.78853">
        <ele>912</ele>
        <time>2021-11-16 13:10:01</time>
      </trkpt>
      <trkpt lat="40.7336" lon="-3.78855">
        <ele>912.2</ele>
        <time>2021-11-16 13:10:02</time>
      </trkpt>
      <trkpt lat="40.73355" lon="-3.78857">
        <ele>912.6</ele>
        <time>2021-11-16 13:10:03</time>
      </trkpt>
      <trkpt lat="40.73351" lon="-3.78858">
        <ele>912.8</ele>
        <time>2021-11-16 13:10:04</time>
      </trkpt>
      <trkpt lat="40.73346" lon="-3.78861">
        <ele>913</ele>
        <time>2021-11-16 13:10:05</time>
      </trkpt>
      <trkpt lat="40.73341" lon="-3.78863">
        <ele>913.2</ele>
        <time>2021-11-16 13:10:06</time>
      </trkpt>
      <trkpt lat="40.73337" lon="-3.78865">
        <ele>913.4</ele>
        <time>2021-11-16 13:10:07</time>
      </trkpt>
      <trkpt lat="40.73332" lon="-3.78868">
        <ele>913.4</ele>
        <time>2021-11-16 13:10:08</time>
      </trkpt>
      <trkpt lat="40.73327" lon="-3.7887">
        <ele>913.4</ele>
        <time>2021-11-16 13:10:09</time>
      </trkpt>
      <trkpt lat="40.73323" lon="-3.78872">
        <ele>913.4</ele>
        <time>2021-11-16 13:10:10</time>
      </trkpt>
      <trkpt lat="40.73318" lon="-3.78875">
        <ele>913.6</ele>
        <time>2021-11-16 13:10:11</time>
      </trkpt>
      <trkpt lat="40.73314" lon="-3.78877">
        <ele>913.8</ele>
        <time>2021-11-16 13:10:12</time>
      </trkpt>
      <trkpt lat="40.73309" lon="-3.78879">
        <ele>914.2</ele>
        <time>2021-11-16 13:10:13</time>
      </trkpt>
      <trkpt lat="40.73304" lon="-3.78881">
        <ele>914.4</ele>
        <time>2021-11-16 13:10:14</time>
      </trkpt>
      <trkpt lat="40.733" lon="-3.78883">
        <ele>914.4</ele>
        <time>2021-11-16 13:10:15</time>
      </trkpt>
      <trkpt lat="40.73295" lon="-3.78885">
        <ele>914.8</ele>
        <time>2021-11-16 13:10:16</time>
      </trkpt>
      <trkpt lat="40.7329" lon="-3.78887">
        <ele>915</ele>
        <time>2021-11-16 13:10:17</time>
      </trkpt>
      <trkpt lat="40.73286" lon="-3.78889">
        <ele>915.2</ele>
        <time>2021-11-16 13:10:18</time>
      </trkpt>
      <trkpt lat="40.73281" lon="-3.78892">
        <ele>915.4</ele>
        <time>2021-11-16 13:10:19</time>
      </trkpt>
      <trkpt lat="40.73276" lon="-3.78894">
        <ele>915.4</ele>
        <time>2021-11-16 13:10:20</time>
      </trkpt>
      <trkpt lat="40.73272" lon="-3.78897">
        <ele>915.4</ele>
        <time>2021-11-16 13:10:21</time>
      </trkpt>
      <trkpt lat="40.73267" lon="-3.78899">
        <ele>915.6</ele>
        <time>2021-11-16 13:10:22</time>
      </trkpt>
      <trkpt lat="40.73263" lon="-3.78901">
        <ele>915.4</ele>
        <time>2021-11-16 13:10:23</time>
      </trkpt>
      <trkpt lat="40.73258" lon="-3.78904">
        <ele>915.6</ele>
        <time>2021-11-16 13:10:24</time>
      </trkpt>
      <trkpt lat="40.73253" lon="-3.78906">
        <ele>915.6</ele>
        <time>2021-11-16 13:10:25</time>
      </trkpt>
      <trkpt lat="40.73249" lon="-3.78909">
        <ele>915.6</ele>
        <time>2021-11-16 13:10:26</time>
      </trkpt>
      <trkpt lat="40.73244" lon="-3.78911">
        <ele>915.6</ele>
        <time>2021-11-16 13:10:27</time>
      </trkpt>
      <trkpt lat="40.7324" lon="-3.78914">
        <ele>915.6</ele>
        <time>2021-11-16 13:10:28</time>
      </trkpt>
      <trkpt lat="40.73235" lon="-3.78916">
        <ele>915.6</ele>
        <time>2021-11-16 13:10:29</time>
      </trkpt>
      <trkpt lat="40.73231" lon="-3.78918">
        <ele>915.8</ele>
        <time>2021-11-16 13:10:30</time>
      </trkpt>
      <trkpt lat="40.73226" lon="-3.78921">
        <ele>915.8</ele>
        <time>2021-11-16 13:10:31</time>
      </trkpt>
      <trkpt lat="40.73222" lon="-3.78923">
        <ele>916</ele>
        <time>2021-11-16 13:10:32</time>
      </trkpt>
      <trkpt lat="40.73218" lon="-3.78926">
        <ele>916.2</ele>
        <time>2021-11-16 13:10:33</time>
      </trkpt>
      <trkpt lat="40.73214" lon="-3.78928">
        <ele>916.2</ele>
        <time>2021-11-16 13:10:34</time>
      </trkpt>
      <trkpt lat="40.73189" lon="-3.78951">
        <ele>919</ele>
        <time>2021-11-16 13:10:53</time>
      </trkpt>
      <trkpt lat="40.73185" lon="-3.7895">
        <ele>919</ele>
        <time>2021-11-16 13:10:54</time>
      </trkpt>
      <trkpt lat="40.73181" lon="-3.7895">
        <ele>919</ele>
        <time>2021-11-16 13:10:55</time>
      </trkpt>
      <trkpt lat="40.73176" lon="-3.78951">
        <ele>919</ele>
        <time>2021-11-16 13:10:56</time>
      </trkpt>
      <trkpt lat="40.73172" lon="-3.78953">
        <ele>919</ele>
        <time>2021-11-16 13:10:57</time>
      </trkpt>
      <trkpt lat="40.73168" lon="-3.78954">
        <ele>919.2</ele>
        <time>2021-11-16 13:10:58</time>
      </trkpt>
      <trkpt lat="40.73164" lon="-3.78956">
        <ele>919.2</ele>
        <time>2021-11-16 13:10:59</time>
      </trkpt>
      <trkpt lat="40.73159" lon="-3.78958">
        <ele>919</ele>
        <time>2021-11-16 13:11:00</time>
      </trkpt>
      <trkpt lat="40.73155" lon="-3.7896">
        <ele>919.2</ele>
        <time>2021-11-16 13:11:01</time>
      </trkpt>
      <trkpt lat="40.73151" lon="-3.78962">
        <ele>919.4</ele>
        <time>2021-11-16 13:11:02</time>
      </trkpt>
      <trkpt lat="40.73146" lon="-3.78964">
        <ele>919.2</ele>
        <time>2021-11-16 13:11:03</time>
      </trkpt>
      <trkpt lat="40.73142" lon="-3.78966">
        <ele>919.4</ele>
        <time>2021-11-16 13:11:04</time>
      </trkpt>
      <trkpt lat="40.73138" lon="-3.78968">
        <ele>919.4</ele>
        <time>2021-11-16 13:11:05</time>
      </trkpt>
      <trkpt lat="40.73133" lon="-3.78969">
        <ele>919.4</ele>
        <time>2021-11-16 13:11:06</time>
      </trkpt>
      <trkpt lat="40.73129" lon="-3.78971">
        <ele>919.4</ele>
        <time>2021-11-16 13:11:07</time>
      </trkpt>
      <trkpt lat="40.73125" lon="-3.78973">
        <ele>919.4</ele>
        <time>2021-11-16 13:11:08</time>
      </trkpt>
      <trkpt lat="40.73121" lon="-3.78974">
        <ele>919.6</ele>
        <time>2021-11-16 13:11:09</time>
      </trkpt>
      <trkpt lat="40.73116" lon="-3.78976">
        <ele>920</ele>
        <time>2021-11-16 13:11:10</time>
      </trkpt>
      <trkpt lat="40.73112" lon="-3.78978">
        <ele>920</ele>
        <time>2021-11-16 13:11:11</time>
      </trkpt>
      <trkpt lat="40.73107" lon="-3.7898">
        <ele>920.2</ele>
        <time>2021-11-16 13:11:12</time>
      </trkpt>
      <trkpt lat="40.73103" lon="-3.78981">
        <ele>920.4</ele>
        <time>2021-11-16 13:11:13</time>
      </trkpt>
      <trkpt lat="40.73098" lon="-3.78983">
        <ele>920.2</ele>
        <time>2021-11-16 13:11:14</time>
      </trkpt>
      <trkpt lat="40.73094" lon="-3.78984">
        <ele>920.6</ele>
        <time>2021-11-16 13:11:15</time>
      </trkpt>
      <trkpt lat="40.73089" lon="-3.78986">
        <ele>920.6</ele>
        <time>2021-11-16 13:11:16</time>
      </trkpt>
      <trkpt lat="40.73085" lon="-3.78987">
        <ele>920.6</ele>
        <time>2021-11-16 13:11:17</time>
      </trkpt>
      <trkpt lat="40.7308" lon="-3.78989">
        <ele>920.8</ele>
        <time>2021-11-16 13:11:18</time>
      </trkpt>
      <trkpt lat="40.73076" lon="-3.7899">
        <ele>921.2</ele>
        <time>2021-11-16 13:11:19</time>
      </trkpt>
      <trkpt lat="40.73071" lon="-3.78992">
        <ele>921.4</ele>
        <time>2021-11-16 13:11:20</time>
      </trkpt>
      <trkpt lat="40.73067" lon="-3.78994">
        <ele>921.8</ele>
        <time>2021-11-16 13:11:21</time>
      </trkpt>
      <trkpt lat="40.73062" lon="-3.78996">
        <ele>921.6</ele>
        <time>2021-11-16 13:11:22</time>
      </trkpt>
      <trkpt lat="40.73058" lon="-3.78997">
        <ele>922</ele>
        <time>2021-11-16 13:11:23</time>
      </trkpt>
      <trkpt lat="40.73053" lon="-3.79">
        <ele>922</ele>
        <time>2021-11-16 13:11:24</time>
      </trkpt>
      <trkpt lat="40.73049" lon="-3.79002">
        <ele>922</ele>
        <time>2021-11-16 13:11:25</time>
      </trkpt>
      <trkpt lat="40.73045" lon="-3.79006">
        <ele>922.2</ele>
        <time>2021-11-16 13:11:26</time>
      </trkpt>
      <trkpt lat="40.73041" lon="-3.7901">
        <ele>922.4</ele>
        <time>2021-11-16 13:11:27</time>
      </trkpt>
      <trkpt lat="40.73037" lon="-3.79013">
        <ele>922.6</ele>
        <time>2021-11-16 13:11:28</time>
      </trkpt>
      <trkpt lat="40.73033" lon="-3.79015">
        <ele>923</ele>
        <time>2021-11-16 13:11:29</time>
      </trkpt>
      <trkpt lat="40.73028" lon="-3.79017">
        <ele>923</ele>
        <time>2021-11-16 13:11:30</time>
      </trkpt>
      <trkpt lat="40.73023" lon="-3.79019">
        <ele>923.2</ele>
        <time>2021-11-16 13:11:31</time>
      </trkpt>
      <trkpt lat="40.73019" lon="-3.79021">
        <ele>923.4</ele>
        <time>2021-11-16 13:11:32</time>
      </trkpt>
      <trkpt lat="40.73014" lon="-3.79023">
        <ele>923.4</ele>
        <time>2021-11-16 13:11:33</time>
      </trkpt>
      <trkpt lat="40.7301" lon="-3.79023">
        <ele>923.8</ele>
        <time>2021-11-16 13:11:34</time>
      </trkpt>
      <trkpt lat="40.73005" lon="-3.79023">
        <ele>924</ele>
        <time>2021-11-16 13:11:35</time>
      </trkpt>
      <trkpt lat="40.73" lon="-3.79024">
        <ele>924.2</ele>
        <time>2021-11-16 13:11:36</time>
      </trkpt>
      <trkpt lat="40.72995" lon="-3.79025">
        <ele>924.2</ele>
        <time>2021-11-16 13:11:37</time>
      </trkpt>
      <trkpt lat="40.7299" lon="-3.79027">
        <ele>924.6</ele>
        <time>2021-11-16 13:11:38</time>
      </trkpt>
      <trkpt lat="40.72986" lon="-3.79029">
        <ele>925</ele>
        <time>2021-11-16 13:11:39</time>
      </trkpt>
      <trkpt lat="40.72981" lon="-3.79032">
        <ele>925.2</ele>
        <time>2021-11-16 13:11:40</time>
      </trkpt>
      <trkpt lat="40.72976" lon="-3.79034">
        <ele>925.6</ele>
        <time>2021-11-16 13:11:41</time>
      </trkpt>
      <trkpt lat="40.72971" lon="-3.79036">
        <ele>925.6</ele>
        <time>2021-11-16 13:11:42</time>
      </trkpt>
      <trkpt lat="40.72966" lon="-3.79038">
        <ele>925.6</ele>
        <time>2021-11-16 13:11:43</time>
      </trkpt>
      <trkpt lat="40.72961" lon="-3.79039">
        <ele>925.8</ele>
        <time>2021-11-16 13:11:44</time>
      </trkpt>
      <trkpt lat="40.72956" lon="-3.79041">
        <ele>926</ele>
        <time>2021-11-16 13:11:45</time>
      </trkpt>
      <trkpt lat="40.7295" lon="-3.79043">
        <ele>926.2</ele>
        <time>2021-11-16 13:11:46</time>
      </trkpt>
      <trkpt lat="40.72945" lon="-3.79044">
        <ele>926.2</ele>
        <time>2021-11-16 13:11:47</time>
      </trkpt>
      <trkpt lat="40.7294" lon="-3.79046">
        <ele>926.4</ele>
        <time>2021-11-16 13:11:48</time>
      </trkpt>
      <trkpt lat="40.72934" lon="-3.79048">
        <ele>926.4</ele>
        <time>2021-11-16 13:11:49</time>
      </trkpt>
      <trkpt lat="40.72928" lon="-3.79049">
        <ele>926.6</ele>
        <time>2021-11-16 13:11:50</time>
      </trkpt>
      <trkpt lat="40.72923" lon="-3.79051">
        <ele>926.6</ele>
        <time>2021-11-16 13:11:51</time>
      </trkpt>
      <trkpt lat="40.72916" lon="-3.79053">
        <ele>926.6</ele>
        <time>2021-11-16 13:11:52</time>
      </trkpt>
      <trkpt lat="40.7291" lon="-3.79055">
        <ele>926.8</ele>
        <time>2021-11-16 13:11:53</time>
      </trkpt>
      <trkpt lat="40.72904" lon="-3.79056">
        <ele>926.6</ele>
        <time>2021-11-16 13:11:54</time>
      </trkpt>
      <trkpt lat="40.72897" lon="-3.79058">
        <ele>926.6</ele>
        <time>2021-11-16 13:11:55</time>
      </trkpt>
      <trkpt lat="40.72891" lon="-3.7906">
        <ele>926.4</ele>
        <time>2021-11-16 13:11:56</time>
      </trkpt>
      <trkpt lat="40.72884" lon="-3.79062">
        <ele>926.2</ele>
        <time>2021-11-16 13:11:57</time>
      </trkpt>
      <trkpt lat="40.72877" lon="-3.79064">
        <ele>926.2</ele>
        <time>2021-11-16 13:11:58</time>
      </trkpt>
      <trkpt lat="40.72871" lon="-3.79066">
        <ele>926.2</ele>
        <time>2021-11-16 13:11:59</time>
      </trkpt>
      <trkpt lat="40.72864" lon="-3.79068">
        <ele>926</ele>
        <time>2021-11-16 13:12:00</time>
      </trkpt>
      <trkpt lat="40.72857" lon="-3.7907">
        <ele>925.8</ele>
        <time>2021-11-16 13:12:01</time>
      </trkpt>
      <trkpt lat="40.72849" lon="-3.79072">
        <ele>925.8</ele>
        <time>2021-11-16 13:12:02</time>
      </trkpt>
      <trkpt lat="40.72842" lon="-3.79074">
        <ele>925.8</ele>
        <time>2021-11-16 13:12:03</time>
      </trkpt>
      <trkpt lat="40.72834" lon="-3.79077">
        <ele>925.4</ele>
        <time>2021-11-16 13:12:04</time>
      </trkpt>
      <trkpt lat="40.72827" lon="-3.79079">
        <ele>925.4</ele>
        <time>2021-11-16 13:12:05</time>
      </trkpt>
      <trkpt lat="40.72819" lon="-3.79081">
        <ele>925.2</ele>
        <time>2021-11-16 13:12:06</time>
      </trkpt>
      <trkpt lat="40.72811" lon="-3.79083">
        <ele>924.8</ele>
        <time>2021-11-16 13:12:07</time>
      </trkpt>
      <trkpt lat="40.72803" lon="-3.79086">
        <ele>924.6</ele>
        <time>2021-11-16 13:12:08</time>
      </trkpt>
      <trkpt lat="40.72795" lon="-3.79088">
        <ele>924.4</ele>
        <time>2021-11-16 13:12:09</time>
      </trkpt>
      <trkpt lat="40.72787" lon="-3.79091">
        <ele>923.6</ele>
        <time>2021-11-16 13:12:10</time>
      </trkpt>
      <trkpt lat="40.72778" lon="-3.79093">
        <ele>923</ele>
        <time>2021-11-16 13:12:11</time>
      </trkpt>
      <trkpt lat="40.7277" lon="-3.79096">
        <ele>922.8</ele>
        <time>2021-11-16 13:12:12</time>
      </trkpt>
      <trkpt lat="40.72761" lon="-3.79099">
        <ele>922.6</ele>
        <time>2021-11-16 13:12:13</time>
      </trkpt>
      <trkpt lat="40.72752" lon="-3.79102">
        <ele>922.4</ele>
        <time>2021-11-16 13:12:14</time>
      </trkpt>
      <trkpt lat="40.72744" lon="-3.79104">
        <ele>922.2</ele>
        <time>2021-11-16 13:12:15</time>
      </trkpt>
      <trkpt lat="40.72735" lon="-3.79108">
        <ele>922.2</ele>
        <time>2021-11-16 13:12:16</time>
      </trkpt>
      <trkpt lat="40.72727" lon="-3.79111">
        <ele>922</ele>
        <time>2021-11-16 13:12:17</time>
      </trkpt>
      <trkpt lat="40.72718" lon="-3.79115">
        <ele>921.6</ele>
        <time>2021-11-16 13:12:18</time>
      </trkpt>
      <trkpt lat="40.7271" lon="-3.79118">
        <ele>921.4</ele>
        <time>2021-11-16 13:12:19</time>
      </trkpt>
      <trkpt lat="40.72701" lon="-3.79122">
        <ele>921.4</ele>
        <time>2021-11-16 13:12:20</time>
      </trkpt>
      <trkpt lat="40.72693" lon="-3.79126">
        <ele>921.4</ele>
        <time>2021-11-16 13:12:21</time>
      </trkpt>
      <trkpt lat="40.72685" lon="-3.7913">
        <ele>920.8</ele>
        <time>2021-11-16 13:12:22</time>
      </trkpt>
      <trkpt lat="40.72677" lon="-3.79135">
        <ele>920.4</ele>
        <time>2021-11-16 13:12:23</time>
      </trkpt>
      <trkpt lat="40.72669" lon="-3.79139">
        <ele>920</ele>
        <time>2021-11-16 13:12:24</time>
      </trkpt>
      <trkpt lat="40.72661" lon="-3.79144">
        <ele>919.8</ele>
        <time>2021-11-16 13:12:25</time>
      </trkpt>
      <trkpt lat="40.72653" lon="-3.79148">
        <ele>919.6</ele>
        <time>2021-11-16 13:12:26</time>
      </trkpt>
      <trkpt lat="40.72646" lon="-3.79153">
        <ele>919.4</ele>
        <time>2021-11-16 13:12:27</time>
      </trkpt>
      <trkpt lat="40.72638" lon="-3.79158">
        <ele>919.2</ele>
        <time>2021-11-16 13:12:28</time>
      </trkpt>
      <trkpt lat="40.72631" lon="-3.79164">
        <ele>918.8</ele>
        <time>2021-11-16 13:12:29</time>
      </trkpt>
      <trkpt lat="40.72624" lon="-3.79169">
        <ele>918.6</ele>
        <time>2021-11-16 13:12:30</time>
      </trkpt>
      <trkpt lat="40.72617" lon="-3.79174">
        <ele>918.6</ele>
        <time>2021-11-16 13:12:31</time>
      </trkpt>
      <trkpt lat="40.7261" lon="-3.7918">
        <ele>918.6</ele>
        <time>2021-11-16 13:12:32</time>
      </trkpt>
      <trkpt lat="40.72603" lon="-3.79185">
        <ele>918.6</ele>
        <time>2021-11-16 13:12:33</time>
      </trkpt>
      <trkpt lat="40.72596" lon="-3.7919">
        <ele>918.4</ele>
        <time>2021-11-16 13:12:34</time>
      </trkpt>
      <trkpt lat="40.7259" lon="-3.79195">
        <ele>918.4</ele>
        <time>2021-11-16 13:12:35</time>
      </trkpt>
      <trkpt lat="40.72583" lon="-3.79201">
        <ele>918.4</ele>
        <time>2021-11-16 13:12:36</time>
      </trkpt>
      <trkpt lat="40.72577" lon="-3.79206">
        <ele>918.4</ele>
        <time>2021-11-16 13:12:37</time>
      </trkpt>
      <trkpt lat="40.72571" lon="-3.79211">
        <ele>918.4</ele>
        <time>2021-11-16 13:12:38</time>
      </trkpt>
      <trkpt lat="40.72564" lon="-3.79217">
        <ele>918.4</ele>
        <time>2021-11-16 13:12:39</time>
      </trkpt>
      <trkpt lat="40.72558" lon="-3.79222">
        <ele>918.4</ele>
        <time>2021-11-16 13:12:40</time>
      </trkpt>
      <trkpt lat="40.72553" lon="-3.79227">
        <ele>918.4</ele>
        <time>2021-11-16 13:12:41</time>
      </trkpt>
      <trkpt lat="40.72547" lon="-3.79232">
        <ele>918.4</ele>
        <time>2021-11-16 13:12:42</time>
      </trkpt>
      <trkpt lat="40.72541" lon="-3.79238">
        <ele>918.6</ele>
        <time>2021-11-16 13:12:43</time>
      </trkpt>
      <trkpt lat="40.72535" lon="-3.79243">
        <ele>918.6</ele>
        <time>2021-11-16 13:12:44</time>
      </trkpt>
      <trkpt lat="40.72529" lon="-3.79248">
        <ele>918.6</ele>
        <time>2021-11-16 13:12:45</time>
      </trkpt>
      <trkpt lat="40.72524" lon="-3.79253">
        <ele>918.8</ele>
        <time>2021-11-16 13:12:46</time>
      </trkpt>
      <trkpt lat="40.72518" lon="-3.79258">
        <ele>918.8</ele>
        <time>2021-11-16 13:12:47</time>
      </trkpt>
      <trkpt lat="40.72512" lon="-3.79263">
        <ele>919</ele>
        <time>2021-11-16 13:12:48</time>
      </trkpt>
      <trkpt lat="40.72507" lon="-3.79268">
        <ele>919.2</ele>
        <time>2021-11-16 13:12:49</time>
      </trkpt>
      <trkpt lat="40.72501" lon="-3.79273">
        <ele>919.2</ele>
        <time>2021-11-16 13:12:50</time>
      </trkpt>
      <trkpt lat="40.72496" lon="-3.79278">
        <ele>919.2</ele>
        <time>2021-11-16 13:12:51</time>
      </trkpt>
      <trkpt lat="40.7249" lon="-3.79283">
        <ele>919.4</ele>
        <time>2021-11-16 13:12:52</time>
      </trkpt>
      <trkpt lat="40.72484" lon="-3.79287">
        <ele>919.6</ele>
        <time>2021-11-16 13:12:53</time>
      </trkpt>
      <trkpt lat="40.72479" lon="-3.79292">
        <ele>919.8</ele>
        <time>2021-11-16 13:12:54</time>
      </trkpt>
      <trkpt lat="40.72473" lon="-3.79297">
        <ele>920.2</ele>
        <time>2021-11-16 13:12:55</time>
      </trkpt>
      <trkpt lat="40.72468" lon="-3.79303">
        <ele>920.4</ele>
        <time>2021-11-16 13:12:56</time>
      </trkpt>
      <trkpt lat="40.72463" lon="-3.79308">
        <ele>921</ele>
        <time>2021-11-16 13:12:57</time>
      </trkpt>
      <trkpt lat="40.72459" lon="-3.79314">
        <ele>921</ele>
        <time>2021-11-16 13:12:58</time>
      </trkpt>
      <trkpt lat="40.72454" lon="-3.7932">
        <ele>921.2</ele>
        <time>2021-11-16 13:12:59</time>
      </trkpt>
      <trkpt lat="40.72449" lon="-3.79325">
        <ele>921.4</ele>
        <time>2021-11-16 13:13:00</time>
      </trkpt>
      <trkpt lat="40.72443" lon="-3.79329">
        <ele>921.4</ele>
        <time>2021-11-16 13:13:01</time>
      </trkpt>
      <trkpt lat="40.72437" lon="-3.79331">
        <ele>921.6</ele>
        <time>2021-11-16 13:13:02</time>
      </trkpt>
      <trkpt lat="40.7243" lon="-3.79332">
        <ele>921.6</ele>
        <time>2021-11-16 13:13:03</time>
      </trkpt>
      <trkpt lat="40.72424" lon="-3.79333">
        <ele>921.8</ele>
        <time>2021-11-16 13:13:04</time>
      </trkpt>
      <trkpt lat="40.72418" lon="-3.79335">
        <ele>922</ele>
        <time>2021-11-16 13:13:05</time>
      </trkpt>
      <trkpt lat="40.72412" lon="-3.79337">
        <ele>922.2</ele>
        <time>2021-11-16 13:13:06</time>
      </trkpt>
      <trkpt lat="40.72406" lon="-3.79339">
        <ele>922.2</ele>
        <time>2021-11-16 13:13:07</time>
      </trkpt>
      <trkpt lat="40.724" lon="-3.79341">
        <ele>922.8</ele>
        <time>2021-11-16 13:13:08</time>
      </trkpt>
      <trkpt lat="40.72394" lon="-3.79343">
        <ele>923</ele>
        <time>2021-11-16 13:13:09</time>
      </trkpt>
      <trkpt lat="40.72388" lon="-3.79345">
        <ele>923.2</ele>
        <time>2021-11-16 13:13:10</time>
      </trkpt>
      <trkpt lat="40.72382" lon="-3.79346">
        <ele>923.4</ele>
        <time>2021-11-16 13:13:11</time>
      </trkpt>
      <trkpt lat="40.72376" lon="-3.79348">
        <ele>923.2</ele>
        <time>2021-11-16 13:13:12</time>
      </trkpt>
      <trkpt lat="40.7237" lon="-3.79349">
        <ele>923.4</ele>
        <time>2021-11-16 13:13:13</time>
      </trkpt>
      <trkpt lat="40.72364" lon="-3.7935">
        <ele>923.4</ele>
        <time>2021-11-16 13:13:14</time>
      </trkpt>
      <trkpt lat="40.72358" lon="-3.79352">
        <ele>923.4</ele>
        <time>2021-11-16 13:13:15</time>
      </trkpt>
      <trkpt lat="40.72352" lon="-3.79353">
        <ele>923.4</ele>
        <time>2021-11-16 13:13:16</time>
      </trkpt>
      <trkpt lat="40.72346" lon="-3.79354">
        <ele>923.6</ele>
        <time>2021-11-16 13:13:17</time>
      </trkpt>
      <trkpt lat="40.7234" lon="-3.79355">
        <ele>923.8</ele>
        <time>2021-11-16 13:13:18</time>
      </trkpt>
      <trkpt lat="40.72333" lon="-3.79356">
        <ele>923.6</ele>
        <time>2021-11-16 13:13:19</time>
      </trkpt>
      <trkpt lat="40.72327" lon="-3.79356">
        <ele>923.8</ele>
        <time>2021-11-16 13:13:20</time>
      </trkpt>
      <trkpt lat="40.72321" lon="-3.79357">
        <ele>923.8</ele>
        <time>2021-11-16 13:13:21</time>
      </trkpt>
      <trkpt lat="40.72315" lon="-3.79357">
        <ele>923.8</ele>
        <time>2021-11-16 13:13:22</time>
      </trkpt>
      <trkpt lat="40.72309" lon="-3.79357">
        <ele>923.8</ele>
        <time>2021-11-16 13:13:23</time>
      </trkpt>
      <trkpt lat="40.72303" lon="-3.79357">
        <ele>924</ele>
        <time>2021-11-16 13:13:24</time>
      </trkpt>
      <trkpt lat="40.72297" lon="-3.79357">
        <ele>924</ele>
        <time>2021-11-16 13:13:25</time>
      </trkpt>
      <trkpt lat="40.72291" lon="-3.79357">
        <ele>924</ele>
        <time>2021-11-16 13:13:26</time>
      </trkpt>
      <trkpt lat="40.72285" lon="-3.79357">
        <ele>924.2</ele>
        <time>2021-11-16 13:13:27</time>
      </trkpt>
      <trkpt lat="40.72279" lon="-3.79356">
        <ele>924.2</ele>
        <time>2021-11-16 13:13:28</time>
      </trkpt>
      <trkpt lat="40.72272" lon="-3.79355">
        <ele>924.2</ele>
        <time>2021-11-16 13:13:29</time>
      </trkpt>
      <trkpt lat="40.72266" lon="-3.79354">
        <ele>924.2</ele>
        <time>2021-11-16 13:13:30</time>
      </trkpt>
      <trkpt lat="40.7226" lon="-3.79354">
        <ele>924.4</ele>
        <time>2021-11-16 13:13:31</time>
      </trkpt>
      <trkpt lat="40.72254" lon="-3.79352">
        <ele>924.4</ele>
        <time>2021-11-16 13:13:32</time>
      </trkpt>
      <trkpt lat="40.72248" lon="-3.79351">
        <ele>924.4</ele>
        <time>2021-11-16 13:13:33</time>
      </trkpt>
      <trkpt lat="40.72242" lon="-3.79349">
        <ele>924.6</ele>
        <time>2021-11-16 13:13:34</time>
      </trkpt>
      <trkpt lat="40.72236" lon="-3.79347">
        <ele>924.6</ele>
        <time>2021-11-16 13:13:35</time>
      </trkpt>
      <trkpt lat="40.7223" lon="-3.79346">
        <ele>925</ele>
        <time>2021-11-16 13:13:36</time>
      </trkpt>
      <trkpt lat="40.72224" lon="-3.79344">
        <ele>925.2</ele>
        <time>2021-11-16 13:13:37</time>
      </trkpt>
      <trkpt lat="40.72218" lon="-3.79341">
        <ele>925.2</ele>
        <time>2021-11-16 13:13:38</time>
      </trkpt>
      <trkpt lat="40.72212" lon="-3.79339">
        <ele>925.2</ele>
        <time>2021-11-16 13:13:39</time>
      </trkpt>
      <trkpt lat="40.72206" lon="-3.79337">
        <ele>925.4</ele>
        <time>2021-11-16 13:13:40</time>
      </trkpt>
      <trkpt lat="40.72201" lon="-3.79334">
        <ele>925.6</ele>
        <time>2021-11-16 13:13:41</time>
      </trkpt>
      <trkpt lat="40.72195" lon="-3.79332">
        <ele>925.4</ele>
        <time>2021-11-16 13:13:42</time>
      </trkpt>
      <trkpt lat="40.72189" lon="-3.79329">
        <ele>925.6</ele>
        <time>2021-11-16 13:13:43</time>
      </trkpt>
      <trkpt lat="40.72184" lon="-3.79326">
        <ele>925.4</ele>
        <time>2021-11-16 13:13:44</time>
      </trkpt>
      <trkpt lat="40.72179" lon="-3.79324">
        <ele>925.6</ele>
        <time>2021-11-16 13:13:45</time>
      </trkpt>
      <trkpt lat="40.72173" lon="-3.7932">
        <ele>925.6</ele>
        <time>2021-11-16 13:13:46</time>
      </trkpt>
      <trkpt lat="40.72168" lon="-3.79317">
        <ele>925.6</ele>
        <time>2021-11-16 13:13:47</time>
      </trkpt>
      <trkpt lat="40.72162" lon="-3.79313">
        <ele>925.8</ele>
        <time>2021-11-16 13:13:48</time>
      </trkpt>
      <trkpt lat="40.72157" lon="-3.79309">
        <ele>925.8</ele>
        <time>2021-11-16 13:13:49</time>
      </trkpt>
      <trkpt lat="40.72151" lon="-3.79305">
        <ele>926</ele>
        <time>2021-11-16 13:13:50</time>
      </trkpt>
      <trkpt lat="40.72146" lon="-3.79302">
        <ele>926</ele>
        <time>2021-11-16 13:13:51</time>
      </trkpt>
      <trkpt lat="40.7214" lon="-3.79298">
        <ele>926.2</ele>
        <time>2021-11-16 13:13:52</time>
      </trkpt>
      <trkpt lat="40.72134" lon="-3.79295">
        <ele>926.2</ele>
        <time>2021-11-16 13:13:53</time>
      </trkpt>
      <trkpt lat="40.72128" lon="-3.79292">
        <ele>926.2</ele>
        <time>2021-11-16 13:13:54</time>
      </trkpt>
      <trkpt lat="40.72123" lon="-3.79288">
        <ele>926.4</ele>
        <time>2021-11-16 13:13:55</time>
      </trkpt>
      <trkpt lat="40.72117" lon="-3.79285">
        <ele>926.2</ele>
        <time>2021-11-16 13:13:56</time>
      </trkpt>
      <trkpt lat="40.7211" lon="-3.79281">
        <ele>926.4</ele>
        <time>2021-11-16 13:13:57</time>
      </trkpt>
      <trkpt lat="40.72104" lon="-3.79279">
        <ele>926.4</ele>
        <time>2021-11-16 13:13:58</time>
      </trkpt>
      <trkpt lat="40.72097" lon="-3.79277">
        <ele>926.4</ele>
        <time>2021-11-16 13:13:59</time>
      </trkpt>
      <trkpt lat="40.7209" lon="-3.79276">
        <ele>926.4</ele>
        <time>2021-11-16 13:14:00</time>
      </trkpt>
      <trkpt lat="40.72083" lon="-3.79276">
        <ele>926.2</ele>
        <time>2021-11-16 13:14:01</time>
      </trkpt>
      <trkpt lat="40.72076" lon="-3.79276">
        <ele>926</ele>
        <time>2021-11-16 13:14:02</time>
      </trkpt>
      <trkpt lat="40.72069" lon="-3.79276">
        <ele>925.8</ele>
        <time>2021-11-16 13:14:03</time>
      </trkpt>
      <trkpt lat="40.72061" lon="-3.79276">
        <ele>925.8</ele>
        <time>2021-11-16 13:14:04</time>
      </trkpt>
      <trkpt lat="40.72054" lon="-3.79276">
        <ele>925.6</ele>
        <time>2021-11-16 13:14:05</time>
      </trkpt>
      <trkpt lat="40.72046" lon="-3.79276">
        <ele>925.6</ele>
        <time>2021-11-16 13:14:06</time>
      </trkpt>
      <trkpt lat="40.72039" lon="-3.79276">
        <ele>925.4</ele>
        <time>2021-11-16 13:14:07</time>
      </trkpt>
      <trkpt lat="40.72032" lon="-3.79276">
        <ele>925.2</ele>
        <time>2021-11-16 13:14:08</time>
      </trkpt>
      <trkpt lat="40.72024" lon="-3.79276">
        <ele>925</ele>
        <time>2021-11-16 13:14:09</time>
      </trkpt>
      <trkpt lat="40.72017" lon="-3.79276">
        <ele>924.8</ele>
        <time>2021-11-16 13:14:10</time>
      </trkpt>
      <trkpt lat="40.7201" lon="-3.79276">
        <ele>924.6</ele>
        <time>2021-11-16 13:14:11</time>
      </trkpt>
      <trkpt lat="40.72003" lon="-3.79277">
        <ele>924.6</ele>
        <time>2021-11-16 13:14:12</time>
      </trkpt>
      <trkpt lat="40.71996" lon="-3.79278">
        <ele>924.4</ele>
        <time>2021-11-16 13:14:13</time>
      </trkpt>
      <trkpt lat="40.71988" lon="-3.79278">
        <ele>924</ele>
        <time>2021-11-16 13:14:14</time>
      </trkpt>
      <trkpt lat="40.71981" lon="-3.79279">
        <ele>924</ele>
        <time>2021-11-16 13:14:15</time>
      </trkpt>
      <trkpt lat="40.71974" lon="-3.7928">
        <ele>924</ele>
        <time>2021-11-16 13:14:16</time>
      </trkpt>
      <trkpt lat="40.71967" lon="-3.79281">
        <ele>923.8</ele>
        <time>2021-11-16 13:14:17</time>
      </trkpt>
      <trkpt lat="40.71959" lon="-3.79282">
        <ele>923.8</ele>
        <time>2021-11-16 13:14:18</time>
      </trkpt>
      <trkpt lat="40.71952" lon="-3.79284">
        <ele>923.6</ele>
        <time>2021-11-16 13:14:19</time>
      </trkpt>
      <trkpt lat="40.71944" lon="-3.79285">
        <ele>923.2</ele>
        <time>2021-11-16 13:14:20</time>
      </trkpt>
      <trkpt lat="40.71936" lon="-3.79287">
        <ele>923</ele>
        <time>2021-11-16 13:14:21</time>
      </trkpt>
      <trkpt lat="40.71929" lon="-3.79288">
        <ele>923</ele>
        <time>2021-11-16 13:14:22</time>
      </trkpt>
      <trkpt lat="40.71921" lon="-3.79289">
        <ele>923</ele>
        <time>2021-11-16 13:14:23</time>
      </trkpt>
      <trkpt lat="40.71913" lon="-3.79291">
        <ele>922.8</ele>
        <time>2021-11-16 13:14:24</time>
      </trkpt>
      <trkpt lat="40.71905" lon="-3.79292">
        <ele>922.8</ele>
        <time>2021-11-16 13:14:25</time>
      </trkpt>
      <trkpt lat="40.71897" lon="-3.79294">
        <ele>922.6</ele>
        <time>2021-11-16 13:14:26</time>
      </trkpt>
      <trkpt lat="40.71889" lon="-3.79296">
        <ele>922.6</ele>
        <time>2021-11-16 13:14:27</time>
      </trkpt>
      <trkpt lat="40.7188" lon="-3.79297">
        <ele>922.6</ele>
        <time>2021-11-16 13:14:28</time>
      </trkpt>
      <trkpt lat="40.71872" lon="-3.79299">
        <ele>922.2</ele>
        <time>2021-11-16 13:14:29</time>
      </trkpt>
      <trkpt lat="40.71864" lon="-3.793">
        <ele>922.2</ele>
        <time>2021-11-16 13:14:30</time>
      </trkpt>
      <trkpt lat="40.71855" lon="-3.79302">
        <ele>922.2</ele>
        <time>2021-11-16 13:14:31</time>
      </trkpt>
      <trkpt lat="40.71846" lon="-3.79303">
        <ele>922.2</ele>
        <time>2021-11-16 13:14:32</time>
      </trkpt>
      <trkpt lat="40.71838" lon="-3.79304">
        <ele>921.8</ele>
        <time>2021-11-16 13:14:33</time>
      </trkpt>
      <trkpt lat="40.71829" lon="-3.79306">
        <ele>921.6</ele>
        <time>2021-11-16 13:14:34</time>
      </trkpt>
      <trkpt lat="40.7182" lon="-3.79308">
        <ele>921.6</ele>
        <time>2021-11-16 13:14:35</time>
      </trkpt>
      <trkpt lat="40.71811" lon="-3.79309">
        <ele>921.4</ele>
        <time>2021-11-16 13:14:36</time>
      </trkpt>
      <trkpt lat="40.71803" lon="-3.79311">
        <ele>921.4</ele>
        <time>2021-11-16 13:14:37</time>
      </trkpt>
      <trkpt lat="40.71794" lon="-3.79313">
        <ele>921</ele>
        <time>2021-11-16 13:14:38</time>
      </trkpt>
      <trkpt lat="40.71785" lon="-3.79314">
        <ele>920.8</ele>
        <time>2021-11-16 13:14:39</time>
      </trkpt>
      <trkpt lat="40.71776" lon="-3.79316">
        <ele>920.6</ele>
        <time>2021-11-16 13:14:40</time>
      </trkpt>
      <trkpt lat="40.71767" lon="-3.79318">
        <ele>920.6</ele>
        <time>2021-11-16 13:14:41</time>
      </trkpt>
      <trkpt lat="40.71758" lon="-3.79319">
        <ele>920.2</ele>
        <time>2021-11-16 13:14:42</time>
      </trkpt>
      <trkpt lat="40.7175" lon="-3.79321">
        <ele>919.8</ele>
        <time>2021-11-16 13:14:43</time>
      </trkpt>
      <trkpt lat="40.71741" lon="-3.79323">
        <ele>919.6</ele>
        <time>2021-11-16 13:14:44</time>
      </trkpt>
      <trkpt lat="40.71732" lon="-3.79324">
        <ele>919.4</ele>
        <time>2021-11-16 13:14:45</time>
      </trkpt>
      <trkpt lat="40.71723" lon="-3.79326">
        <ele>919.2</ele>
        <time>2021-11-16 13:14:46</time>
      </trkpt>
      <trkpt lat="40.71715" lon="-3.79327">
        <ele>918.6</ele>
        <time>2021-11-16 13:14:47</time>
      </trkpt>
      <trkpt lat="40.71706" lon="-3.79329">
        <ele>918.2</ele>
        <time>2021-11-16 13:14:48</time>
      </trkpt>
      <trkpt lat="40.71698" lon="-3.7933">
        <ele>917.8</ele>
        <time>2021-11-16 13:14:49</time>
      </trkpt>
      <trkpt lat="40.71689" lon="-3.79332">
        <ele>917.6</ele>
        <time>2021-11-16 13:14:50</time>
      </trkpt>
      <trkpt lat="40.7168" lon="-3.79333">
        <ele>917.4</ele>
        <time>2021-11-16 13:14:51</time>
      </trkpt>
      <trkpt lat="40.71672" lon="-3.79335">
        <ele>917.4</ele>
        <time>2021-11-16 13:14:52</time>
      </trkpt>
      <trkpt lat="40.71664" lon="-3.79337">
        <ele>917.4</ele>
        <time>2021-11-16 13:14:53</time>
      </trkpt>
      <trkpt lat="40.71655" lon="-3.79338">
        <ele>917</ele>
        <time>2021-11-16 13:14:54</time>
      </trkpt>
      <trkpt lat="40.71647" lon="-3.7934">
        <ele>916.8</ele>
        <time>2021-11-16 13:14:55</time>
      </trkpt>
      <trkpt lat="40.71638" lon="-3.79341">
        <ele>916.4</ele>
        <time>2021-11-16 13:14:56</time>
      </trkpt>
      <trkpt lat="40.7163" lon="-3.79342">
        <ele>916.2</ele>
        <time>2021-11-16 13:14:57</time>
      </trkpt>
      <trkpt lat="40.71622" lon="-3.79344">
        <ele>915.6</ele>
        <time>2021-11-16 13:14:58</time>
      </trkpt>
      <trkpt lat="40.71613" lon="-3.79345">
        <ele>915.4</ele>
        <time>2021-11-16 13:14:59</time>
      </trkpt>
      <trkpt lat="40.71605" lon="-3.79347">
        <ele>915</ele>
        <time>2021-11-16 13:15:00</time>
      </trkpt>
      <trkpt lat="40.71597" lon="-3.79349">
        <ele>914.8</ele>
        <time>2021-11-16 13:15:01</time>
      </trkpt>
      <trkpt lat="40.71588" lon="-3.79351">
        <ele>914.6</ele>
        <time>2021-11-16 13:15:02</time>
      </trkpt>
      <trkpt lat="40.7158" lon="-3.79353">
        <ele>914.6</ele>
        <time>2021-11-16 13:15:03</time>
      </trkpt>
      <trkpt lat="40.71573" lon="-3.79357">
        <ele>914.4</ele>
        <time>2021-11-16 13:15:04</time>
      </trkpt>
      <trkpt lat="40.71565" lon="-3.79361">
        <ele>914.4</ele>
        <time>2021-11-16 13:15:05</time>
      </trkpt>
      <trkpt lat="40.71558" lon="-3.79366">
        <ele>914.4</ele>
        <time>2021-11-16 13:15:06</time>
      </trkpt>
      <trkpt lat="40.7155" lon="-3.7937">
        <ele>914.4</ele>
        <time>2021-11-16 13:15:07</time>
      </trkpt>
      <trkpt lat="40.71542" lon="-3.79373">
        <ele>914.4</ele>
        <time>2021-11-16 13:15:08</time>
      </trkpt>
      <trkpt lat="40.71535" lon="-3.79376">
        <ele>914.2</ele>
        <time>2021-11-16 13:15:09</time>
      </trkpt>
      <trkpt lat="40.71527" lon="-3.7938">
        <ele>914</ele>
        <time>2021-11-16 13:15:10</time>
      </trkpt>
      <trkpt lat="40.7152" lon="-3.79385">
        <ele>914</ele>
        <time>2021-11-16 13:15:11</time>
      </trkpt>
      <trkpt lat="40.71512" lon="-3.79388">
        <ele>914</ele>
        <time>2021-11-16 13:15:12</time>
      </trkpt>
      <trkpt lat="40.71505" lon="-3.79391">
        <ele>914</ele>
        <time>2021-11-16 13:15:13</time>
      </trkpt>
      <trkpt lat="40.71497" lon="-3.79395">
        <ele>914</ele>
        <time>2021-11-16 13:15:14</time>
      </trkpt>
      <trkpt lat="40.7149" lon="-3.79398">
        <ele>913.8</ele>
        <time>2021-11-16 13:15:15</time>
      </trkpt>
      <trkpt lat="40.71484" lon="-3.79401">
        <ele>913.8</ele>
        <time>2021-11-16 13:15:16</time>
      </trkpt>
      <trkpt lat="40.71477" lon="-3.79404">
        <ele>913.8</ele>
        <time>2021-11-16 13:15:17</time>
      </trkpt>
      <trkpt lat="40.7147" lon="-3.79406">
        <ele>913.8</ele>
        <time>2021-11-16 13:15:18</time>
      </trkpt>
      <trkpt lat="40.71463" lon="-3.79407">
        <ele>913.8</ele>
        <time>2021-11-16 13:15:19</time>
      </trkpt>
      <trkpt lat="40.71456" lon="-3.79409">
        <ele>914.2</ele>
        <time>2021-11-16 13:15:20</time>
      </trkpt>
      <trkpt lat="40.71449" lon="-3.79412">
        <ele>914.2</ele>
        <time>2021-11-16 13:15:21</time>
      </trkpt>
      <trkpt lat="40.71442" lon="-3.79414">
        <ele>914.4</ele>
        <time>2021-11-16 13:15:22</time>
      </trkpt>
      <trkpt lat="40.71435" lon="-3.79416">
        <ele>914.6</ele>
        <time>2021-11-16 13:15:23</time>
      </trkpt>
      <trkpt lat="40.71428" lon="-3.79418">
        <ele>914.8</ele>
        <time>2021-11-16 13:15:24</time>
      </trkpt>
      <trkpt lat="40.71421" lon="-3.79418">
        <ele>915</ele>
        <time>2021-11-16 13:15:25</time>
      </trkpt>
      <trkpt lat="40.71414" lon="-3.79419">
        <ele>915</ele>
        <time>2021-11-16 13:15:26</time>
      </trkpt>
      <trkpt lat="40.71407" lon="-3.7942">
        <ele>915</ele>
        <time>2021-11-16 13:15:27</time>
      </trkpt>
      <trkpt lat="40.714" lon="-3.79421">
        <ele>915.2</ele>
        <time>2021-11-16 13:15:28</time>
      </trkpt>
      <trkpt lat="40.71393" lon="-3.79421">
        <ele>915</ele>
        <time>2021-11-16 13:15:29</time>
      </trkpt>
      <trkpt lat="40.71385" lon="-3.79421">
        <ele>915.2</ele>
        <time>2021-11-16 13:15:30</time>
      </trkpt>
      <trkpt lat="40.71378" lon="-3.79421">
        <ele>915</ele>
        <time>2021-11-16 13:15:31</time>
      </trkpt>
      <trkpt lat="40.71371" lon="-3.79421">
        <ele>915</ele>
        <time>2021-11-16 13:15:32</time>
      </trkpt>
      <trkpt lat="40.71364" lon="-3.7942">
        <ele>915.4</ele>
        <time>2021-11-16 13:15:33</time>
      </trkpt>
      <trkpt lat="40.71357" lon="-3.7942">
        <ele>915.4</ele>
        <time>2021-11-16 13:15:34</time>
      </trkpt>
      <trkpt lat="40.7135" lon="-3.79419">
        <ele>915.4</ele>
        <time>2021-11-16 13:15:35</time>
      </trkpt>
      <trkpt lat="40.71343" lon="-3.79419">
        <ele>915</ele>
        <time>2021-11-16 13:15:36</time>
      </trkpt>
      <trkpt lat="40.71336" lon="-3.79419">
        <ele>914.6</ele>
        <time>2021-11-16 13:15:37</time>
      </trkpt>
      <trkpt lat="40.71329" lon="-3.7942">
        <ele>914.4</ele>
        <time>2021-11-16 13:15:38</time>
      </trkpt>
      <trkpt lat="40.71321" lon="-3.7942">
        <ele>914.4</ele>
        <time>2021-11-16 13:15:39</time>
      </trkpt>
      <trkpt lat="40.71314" lon="-3.7942">
        <ele>914.2</ele>
        <time>2021-11-16 13:15:40</time>
      </trkpt>
      <trkpt lat="40.71306" lon="-3.79419">
        <ele>914.2</ele>
        <time>2021-11-16 13:15:41</time>
      </trkpt>
      <trkpt lat="40.71298" lon="-3.79418">
        <ele>914</ele>
        <time>2021-11-16 13:15:42</time>
      </trkpt>
      <trkpt lat="40.7129" lon="-3.79416">
        <ele>913.8</ele>
        <time>2021-11-16 13:15:43</time>
      </trkpt>
      <trkpt lat="40.71282" lon="-3.79415">
        <ele>913.8</ele>
        <time>2021-11-16 13:15:44</time>
      </trkpt>
      <trkpt lat="40.71274" lon="-3.79413">
        <ele>913.8</ele>
        <time>2021-11-16 13:15:45</time>
      </trkpt>
      <trkpt lat="40.71266" lon="-3.79411">
        <ele>913.4</ele>
        <time>2021-11-16 13:15:46</time>
      </trkpt>
      <trkpt lat="40.71257" lon="-3.79409">
        <ele>913.2</ele>
        <time>2021-11-16 13:15:47</time>
      </trkpt>
      <trkpt lat="40.71249" lon="-3.79407">
        <ele>913</ele>
        <time>2021-11-16 13:15:48</time>
      </trkpt>
      <trkpt lat="40.71241" lon="-3.79404">
        <ele>913</ele>
        <time>2021-11-16 13:15:49</time>
      </trkpt>
      <trkpt lat="40.71233" lon="-3.79401">
        <ele>913</ele>
        <time>2021-11-16 13:15:50</time>
      </trkpt>
      <trkpt lat="40.71225" lon="-3.79397">
        <ele>913</ele>
        <time>2021-11-16 13:15:51</time>
      </trkpt>
      <trkpt lat="40.71217" lon="-3.79393">
        <ele>912.8</ele>
        <time>2021-11-16 13:15:52</time>
      </trkpt>
      <trkpt lat="40.71209" lon="-3.79391">
        <ele>912.4</ele>
        <time>2021-11-16 13:15:53</time>
      </trkpt>
      <trkpt lat="40.71201" lon="-3.79389">
        <ele>911.8</ele>
        <time>2021-11-16 13:15:54</time>
      </trkpt>
      <trkpt lat="40.71192" lon="-3.79388">
        <ele>911.2</ele>
        <time>2021-11-16 13:15:55</time>
      </trkpt>
      <trkpt lat="40.71184" lon="-3.79388">
        <ele>910.8</ele>
        <time>2021-11-16 13:15:56</time>
      </trkpt>
      <trkpt lat="40.71176" lon="-3.79387">
        <ele>910.6</ele>
        <time>2021-11-16 13:15:57</time>
      </trkpt>
      <trkpt lat="40.71167" lon="-3.79387">
        <ele>910.2</ele>
        <time>2021-11-16 13:15:58</time>
      </trkpt>
      <trkpt lat="40.71159" lon="-3.79386">
        <ele>910</ele>
        <time>2021-11-16 13:15:59</time>
      </trkpt>
      <trkpt lat="40.71151" lon="-3.79386">
        <ele>910</ele>
        <time>2021-11-16 13:16:00</time>
      </trkpt>
      <trkpt lat="40.71142" lon="-3.79385">
        <ele>910</ele>
        <time>2021-11-16 13:16:01</time>
      </trkpt>
      <trkpt lat="40.71134" lon="-3.79385">
        <ele>909.6</ele>
        <time>2021-11-16 13:16:02</time>
      </trkpt>
      <trkpt lat="40.71126" lon="-3.79385">
        <ele>909.4</ele>
        <time>2021-11-16 13:16:03</time>
      </trkpt>
      <trkpt lat="40.71118" lon="-3.79384">
        <ele>909.4</ele>
        <time>2021-11-16 13:16:04</time>
      </trkpt>
      <trkpt lat="40.71109" lon="-3.79384">
        <ele>909.2</ele>
        <time>2021-11-16 13:16:05</time>
      </trkpt>
      <trkpt lat="40.71101" lon="-3.79383">
        <ele>909</ele>
        <time>2021-11-16 13:16:06</time>
      </trkpt>
      <trkpt lat="40.71093" lon="-3.79382">
        <ele>908.8</ele>
        <time>2021-11-16 13:16:07</time>
      </trkpt>
      <trkpt lat="40.71085" lon="-3.79382">
        <ele>908.6</ele>
        <time>2021-11-16 13:16:08</time>
      </trkpt>
      <trkpt lat="40.71077" lon="-3.79381">
        <ele>908.6</ele>
        <time>2021-11-16 13:16:09</time>
      </trkpt>
      <trkpt lat="40.71069" lon="-3.79381">
        <ele>908.4</ele>
        <time>2021-11-16 13:16:10</time>
      </trkpt>
      <trkpt lat="40.71062" lon="-3.7938">
        <ele>908.4</ele>
        <time>2021-11-16 13:16:11</time>
      </trkpt>
      <trkpt lat="40.71054" lon="-3.7938">
        <ele>908.2</ele>
        <time>2021-11-16 13:16:12</time>
      </trkpt>
      <trkpt lat="40.71046" lon="-3.79379">
        <ele>908</ele>
        <time>2021-11-16 13:16:13</time>
      </trkpt>
      <trkpt lat="40.71038" lon="-3.79379">
        <ele>908</ele>
        <time>2021-11-16 13:16:14</time>
      </trkpt>
      <trkpt lat="40.7103" lon="-3.79378">
        <ele>908</ele>
        <time>2021-11-16 13:16:15</time>
      </trkpt>
      <trkpt lat="40.71023" lon="-3.79378">
        <ele>908</ele>
        <time>2021-11-16 13:16:16</time>
      </trkpt>
      <trkpt lat="40.71015" lon="-3.79378">
        <ele>908</ele>
        <time>2021-11-16 13:16:17</time>
      </trkpt>
      <trkpt lat="40.71008" lon="-3.79377">
        <ele>908</ele>
        <time>2021-11-16 13:16:18</time>
      </trkpt>
      <trkpt lat="40.71" lon="-3.79376">
        <ele>908</ele>
        <time>2021-11-16 13:16:19</time>
      </trkpt>
      <trkpt lat="40.70993" lon="-3.79376">
        <ele>908</ele>
        <time>2021-11-16 13:16:20</time>
      </trkpt>
      <trkpt lat="40.70986" lon="-3.79375">
        <ele>908</ele>
        <time>2021-11-16 13:16:21</time>
      </trkpt>
      <trkpt lat="40.70979" lon="-3.79374">
        <ele>908</ele>
        <time>2021-11-16 13:16:22</time>
      </trkpt>
      <trkpt lat="40.70972" lon="-3.79374">
        <ele>908</ele>
        <time>2021-11-16 13:16:23</time>
      </trkpt>
      <trkpt lat="40.70965" lon="-3.79373">
        <ele>908</ele>
        <time>2021-11-16 13:16:24</time>
      </trkpt>
      <trkpt lat="40.70958" lon="-3.79372">
        <ele>908</ele>
        <time>2021-11-16 13:16:25</time>
      </trkpt>
      <trkpt lat="40.70951" lon="-3.79372">
        <ele>908</ele>
        <time>2021-11-16 13:16:26</time>
      </trkpt>
      <trkpt lat="40.70944" lon="-3.79371">
        <ele>908</ele>
        <time>2021-11-16 13:16:27</time>
      </trkpt>
      <trkpt lat="40.70937" lon="-3.79371">
        <ele>908</ele>
        <time>2021-11-16 13:16:28</time>
      </trkpt>
      <trkpt lat="40.7093" lon="-3.7937">
        <ele>908</ele>
        <time>2021-11-16 13:16:29</time>
      </trkpt>
      <trkpt lat="40.70923" lon="-3.79369">
        <ele>908</ele>
        <time>2021-11-16 13:16:30</time>
      </trkpt>
      <trkpt lat="40.70917" lon="-3.79369">
        <ele>908</ele>
        <time>2021-11-16 13:16:31</time>
      </trkpt>
      <trkpt lat="40.7091" lon="-3.79368">
        <ele>908.2</ele>
        <time>2021-11-16 13:16:32</time>
      </trkpt>
      <trkpt lat="40.70904" lon="-3.79368">
        <ele>908</ele>
        <time>2021-11-16 13:16:33</time>
      </trkpt>
      <trkpt lat="40.70897" lon="-3.79367">
        <ele>908.2</ele>
        <time>2021-11-16 13:16:34</time>
      </trkpt>
      <trkpt lat="40.7089" lon="-3.79366">
        <ele>908.2</ele>
        <time>2021-11-16 13:16:35</time>
      </trkpt>
      <trkpt lat="40.70884" lon="-3.79366">
        <ele>908.4</ele>
        <time>2021-11-16 13:16:36</time>
      </trkpt>
      <trkpt lat="40.70878" lon="-3.79365">
        <ele>908.6</ele>
        <time>2021-11-16 13:16:37</time>
      </trkpt>
      <trkpt lat="40.70871" lon="-3.79364">
        <ele>908.6</ele>
        <time>2021-11-16 13:16:38</time>
      </trkpt>
      <trkpt lat="40.70865" lon="-3.79364">
        <ele>908.8</ele>
        <time>2021-11-16 13:16:39</time>
      </trkpt>
      <trkpt lat="40.70858" lon="-3.79363">
        <ele>909.2</ele>
        <time>2021-11-16 13:16:40</time>
      </trkpt>
      <trkpt lat="40.70852" lon="-3.79363">
        <ele>909.2</ele>
        <time>2021-11-16 13:16:41</time>
      </trkpt>
      <trkpt lat="40.70845" lon="-3.79362">
        <ele>909.2</ele>
        <time>2021-11-16 13:16:42</time>
      </trkpt>
      <trkpt lat="40.70839" lon="-3.79362">
        <ele>909.4</ele>
        <time>2021-11-16 13:16:43</time>
      </trkpt>
      <trkpt lat="40.70833" lon="-3.79361">
        <ele>909.4</ele>
        <time>2021-11-16 13:16:44</time>
      </trkpt>
      <trkpt lat="40.70826" lon="-3.79361">
        <ele>909.8</ele>
        <time>2021-11-16 13:16:45</time>
      </trkpt>
      <trkpt lat="40.7082" lon="-3.7936">
        <ele>910</ele>
        <time>2021-11-16 13:16:46</time>
      </trkpt>
      <trkpt lat="40.70813" lon="-3.79359">
        <ele>910.2</ele>
        <time>2021-11-16 13:16:47</time>
      </trkpt>
      <trkpt lat="40.70807" lon="-3.79359">
        <ele>910.2</ele>
        <time>2021-11-16 13:16:48</time>
      </trkpt>
      <trkpt lat="40.708" lon="-3.79358">
        <ele>910</ele>
        <time>2021-11-16 13:16:49</time>
      </trkpt>
      <trkpt lat="40.70794" lon="-3.79357">
        <ele>910.2</ele>
        <time>2021-11-16 13:16:50</time>
      </trkpt>
      <trkpt lat="40.70787" lon="-3.79357">
        <ele>910</ele>
        <time>2021-11-16 13:16:51</time>
      </trkpt>
      <trkpt lat="40.70781" lon="-3.79356">
        <ele>910.2</ele>
        <time>2021-11-16 13:16:52</time>
      </trkpt>
      <trkpt lat="40.70775" lon="-3.79355">
        <ele>910.2</ele>
        <time>2021-11-16 13:16:53</time>
      </trkpt>
      <trkpt lat="40.70768" lon="-3.79354">
        <ele>910.2</ele>
        <time>2021-11-16 13:16:54</time>
      </trkpt>
      <trkpt lat="40.70762" lon="-3.79354">
        <ele>910.4</ele>
        <time>2021-11-16 13:16:55</time>
      </trkpt>
      <trkpt lat="40.70756" lon="-3.79353">
        <ele>910.4</ele>
        <time>2021-11-16 13:16:56</time>
      </trkpt>
      <trkpt lat="40.7075" lon="-3.79353">
        <ele>910.4</ele>
        <time>2021-11-16 13:16:57</time>
      </trkpt>
      <trkpt lat="40.70744" lon="-3.79352">
        <ele>910.4</ele>
        <time>2021-11-16 13:16:58</time>
      </trkpt>
      <trkpt lat="40.70737" lon="-3.79351">
        <ele>910.6</ele>
        <time>2021-11-16 13:16:59</time>
      </trkpt>
      <trkpt lat="40.70731" lon="-3.7935">
        <ele>910.6</ele>
        <time>2021-11-16 13:17:00</time>
      </trkpt>
      <trkpt lat="40.70725" lon="-3.7935">
        <ele>910.8</ele>
        <time>2021-11-16 13:17:01</time>
      </trkpt>
      <trkpt lat="40.70719" lon="-3.79349">
        <ele>911</ele>
        <time>2021-11-16 13:17:02</time>
      </trkpt>
      <trkpt lat="40.70713" lon="-3.79348">
        <ele>910.8</ele>
        <time>2021-11-16 13:17:03</time>
      </trkpt>
      <trkpt lat="40.70706" lon="-3.79348">
        <ele>911</ele>
        <time>2021-11-16 13:17:04</time>
      </trkpt>
      <trkpt lat="40.707" lon="-3.79347">
        <ele>911</ele>
        <time>2021-11-16 13:17:05</time>
      </trkpt>
      <trkpt lat="40.70694" lon="-3.79346">
        <ele>911</ele>
        <time>2021-11-16 13:17:06</time>
      </trkpt>
      <trkpt lat="40.70688" lon="-3.79346">
        <ele>911</ele>
        <time>2021-11-16 13:17:07</time>
      </trkpt>
      <trkpt lat="40.70681" lon="-3.79345">
        <ele>911.2</ele>
        <time>2021-11-16 13:17:08</time>
      </trkpt>
      <trkpt lat="40.70675" lon="-3.79344">
        <ele>911.6</ele>
        <time>2021-11-16 13:17:09</time>
      </trkpt>
      <trkpt lat="40.70669" lon="-3.79344">
        <ele>911.6</ele>
        <time>2021-11-16 13:17:10</time>
      </trkpt>
      <trkpt lat="40.70663" lon="-3.79343">
        <ele>911.6</ele>
        <time>2021-11-16 13:17:11</time>
      </trkpt>
      <trkpt lat="40.70656" lon="-3.79342">
        <ele>912</ele>
        <time>2021-11-16 13:17:12</time>
      </trkpt>
      <trkpt lat="40.7065" lon="-3.79342">
        <ele>911.8</ele>
        <time>2021-11-16 13:17:13</time>
      </trkpt>
      <trkpt lat="40.70644" lon="-3.79341">
        <ele>912</ele>
        <time>2021-11-16 13:17:14</time>
      </trkpt>
      <trkpt lat="40.70638" lon="-3.7934">
        <ele>912</ele>
        <time>2021-11-16 13:17:15</time>
      </trkpt>
      <trkpt lat="40.70632" lon="-3.7934">
        <ele>912</ele>
        <time>2021-11-16 13:17:16</time>
      </trkpt>
      <trkpt lat="40.70625" lon="-3.79339">
        <ele>912.2</ele>
        <time>2021-11-16 13:17:17</time>
      </trkpt>
      <trkpt lat="40.70619" lon="-3.79338">
        <ele>912.2</ele>
        <time>2021-11-16 13:17:18</time>
      </trkpt>
      <trkpt lat="40.70613" lon="-3.79338">
        <ele>912.4</ele>
        <time>2021-11-16 13:17:19</time>
      </trkpt>
      <trkpt lat="40.70606" lon="-3.79337">
        <ele>912.4</ele>
        <time>2021-11-16 13:17:20</time>
      </trkpt>
      <trkpt lat="40.706" lon="-3.79336">
        <ele>912.6</ele>
        <time>2021-11-16 13:17:21</time>
      </trkpt>
      <trkpt lat="40.70594" lon="-3.79336">
        <ele>912.8</ele>
        <time>2021-11-16 13:17:22</time>
      </trkpt>
      <trkpt lat="40.70587" lon="-3.79335">
        <ele>912.8</ele>
        <time>2021-11-16 13:17:23</time>
      </trkpt>
      <trkpt lat="40.70581" lon="-3.79334">
        <ele>913.2</ele>
        <time>2021-11-16 13:17:24</time>
      </trkpt>
      <trkpt lat="40.70575" lon="-3.79333">
        <ele>913.2</ele>
        <time>2021-11-16 13:17:25</time>
      </trkpt>
      <trkpt lat="40.70569" lon="-3.79333">
        <ele>913.4</ele>
        <time>2021-11-16 13:17:26</time>
      </trkpt>
      <trkpt lat="40.70563" lon="-3.79332">
        <ele>913.8</ele>
        <time>2021-11-16 13:17:27</time>
      </trkpt>
      <trkpt lat="40.70557" lon="-3.79331">
        <ele>913.8</ele>
        <time>2021-11-16 13:17:28</time>
      </trkpt>
      <trkpt lat="40.70551" lon="-3.79331">
        <ele>914.2</ele>
        <time>2021-11-16 13:17:29</time>
      </trkpt>
      <trkpt lat="40.70546" lon="-3.7933">
        <ele>914.4</ele>
        <time>2021-11-16 13:17:30</time>
      </trkpt>
      <trkpt lat="40.7054" lon="-3.7933">
        <ele>914.6</ele>
        <time>2021-11-16 13:17:31</time>
      </trkpt>
      <trkpt lat="40.70534" lon="-3.79329">
        <ele>914.6</ele>
        <time>2021-11-16 13:17:32</time>
      </trkpt>
      <trkpt lat="40.70529" lon="-3.79328">
        <ele>914.8</ele>
        <time>2021-11-16 13:17:33</time>
      </trkpt>
      <trkpt lat="40.70524" lon="-3.79328">
        <ele>915</ele>
        <time>2021-11-16 13:17:34</time>
      </trkpt>
      <trkpt lat="40.70518" lon="-3.79327">
        <ele>915</ele>
        <time>2021-11-16 13:17:35</time>
      </trkpt>
      <trkpt lat="40.70513" lon="-3.79327">
        <ele>915.2</ele>
        <time>2021-11-16 13:17:36</time>
      </trkpt>
      <trkpt lat="40.70508" lon="-3.79326">
        <ele>915.6</ele>
        <time>2021-11-16 13:17:37</time>
      </trkpt>
      <trkpt lat="40.70503" lon="-3.79326">
        <ele>915.8</ele>
        <time>2021-11-16 13:17:38</time>
      </trkpt>
      <trkpt lat="40.70498" lon="-3.79325">
        <ele>916</ele>
        <time>2021-11-16 13:17:39</time>
      </trkpt>
      <trkpt lat="40.70493" lon="-3.79325">
        <ele>916.2</ele>
        <time>2021-11-16 13:17:40</time>
      </trkpt>
      <trkpt lat="40.70488" lon="-3.79324">
        <ele>916.6</ele>
        <time>2021-11-16 13:17:41</time>
      </trkpt>
      <trkpt lat="40.70484" lon="-3.79324">
        <ele>916.8</ele>
        <time>2021-11-16 13:17:42</time>
      </trkpt>
      <trkpt lat="40.70479" lon="-3.79323">
        <ele>916.8</ele>
        <time>2021-11-16 13:17:43</time>
      </trkpt>
      <trkpt lat="40.70474" lon="-3.79323">
        <ele>916.8</ele>
        <time>2021-11-16 13:17:44</time>
      </trkpt>
      <trkpt lat="40.7047" lon="-3.79322">
        <ele>917.4</ele>
        <time>2021-11-16 13:17:45</time>
      </trkpt>
      <trkpt lat="40.70465" lon="-3.79322">
        <ele>917.8</ele>
        <time>2021-11-16 13:17:46</time>
      </trkpt>
      <trkpt lat="40.7046" lon="-3.79321">
        <ele>918</ele>
        <time>2021-11-16 13:17:47</time>
      </trkpt>
      <trkpt lat="40.70456" lon="-3.79321">
        <ele>918.2</ele>
        <time>2021-11-16 13:17:48</time>
      </trkpt>
      <trkpt lat="40.70451" lon="-3.7932">
        <ele>918.4</ele>
        <time>2021-11-16 13:17:49</time>
      </trkpt>
      <trkpt lat="40.70447" lon="-3.7932">
        <ele>918.4</ele>
        <time>2021-11-16 13:17:50</time>
      </trkpt>
      <trkpt lat="40.70443" lon="-3.79319">
        <ele>918.4</ele>
        <time>2021-11-16 13:17:51</time>
      </trkpt>
      <trkpt lat="40.70438" lon="-3.79319">
        <ele>918.8</ele>
        <time>2021-11-16 13:17:52</time>
      </trkpt>
      <trkpt lat="40.70434" lon="-3.79318">
        <ele>919</ele>
        <time>2021-11-16 13:17:53</time>
      </trkpt>
      <trkpt lat="40.7043" lon="-3.79318">
        <ele>919.2</ele>
        <time>2021-11-16 13:17:54</time>
      </trkpt>
      <trkpt lat="40.70426" lon="-3.79317">
        <ele>919.8</ele>
        <time>2021-11-16 13:17:55</time>
      </trkpt>
      <trkpt lat="40.70421" lon="-3.79317">
        <ele>920</ele>
        <time>2021-11-16 13:17:56</time>
      </trkpt>
      <trkpt lat="40.70417" lon="-3.79317">
        <ele>920.4</ele>
        <time>2021-11-16 13:17:57</time>
      </trkpt>
      <trkpt lat="40.70413" lon="-3.79316">
        <ele>920.8</ele>
        <time>2021-11-16 13:17:58</time>
      </trkpt>
      <trkpt lat="40.70409" lon="-3.79316">
        <ele>921</ele>
        <time>2021-11-16 13:17:59</time>
      </trkpt>
      <trkpt lat="40.70404" lon="-3.79315">
        <ele>921</ele>
        <time>2021-11-16 13:18:00</time>
      </trkpt>
      <trkpt lat="40.704" lon="-3.79315">
        <ele>921.4</ele>
        <time>2021-11-16 13:18:01</time>
      </trkpt>
      <trkpt lat="40.70396" lon="-3.79315">
        <ele>921.6</ele>
        <time>2021-11-16 13:18:02</time>
      </trkpt>
      <trkpt lat="40.70392" lon="-3.79315">
        <ele>921.6</ele>
        <time>2021-11-16 13:18:03</time>
      </trkpt>
      <trkpt lat="40.70388" lon="-3.79315">
        <ele>921.6</ele>
        <time>2021-11-16 13:18:04</time>
      </trkpt>
      <trkpt lat="40.70384" lon="-3.79315">
        <ele>921.6</ele>
        <time>2021-11-16 13:18:05</time>
      </trkpt>
      <trkpt lat="40.70379" lon="-3.79316">
        <ele>921.8</ele>
        <time>2021-11-16 13:18:06</time>
      </trkpt>
      <trkpt lat="40.70375" lon="-3.79316">
        <ele>922</ele>
        <time>2021-11-16 13:18:07</time>
      </trkpt>
      <trkpt lat="40.70371" lon="-3.79317">
        <ele>922.2</ele>
        <time>2021-11-16 13:18:08</time>
      </trkpt>
      <trkpt lat="40.70367" lon="-3.79319">
        <ele>922.4</ele>
        <time>2021-11-16 13:18:09</time>
      </trkpt>
      <trkpt lat="40.70363" lon="-3.79321">
        <ele>922.6</ele>
        <time>2021-11-16 13:18:10</time>
      </trkpt>
      <trkpt lat="40.70359" lon="-3.79323">
        <ele>922.8</ele>
        <time>2021-11-16 13:18:11</time>
      </trkpt>
      <trkpt lat="40.70355" lon="-3.79325">
        <ele>923</ele>
        <time>2021-11-16 13:18:12</time>
      </trkpt>
      <trkpt lat="40.70351" lon="-3.79325">
        <ele>923.2</ele>
        <time>2021-11-16 13:18:13</time>
      </trkpt>
      <trkpt lat="40.70347" lon="-3.79324">
        <ele>923.2</ele>
        <time>2021-11-16 13:18:14</time>
      </trkpt>
      <trkpt lat="40.70343" lon="-3.79322">
        <ele>923.4</ele>
        <time>2021-11-16 13:18:15</time>
      </trkpt>
      <trkpt lat="40.7034" lon="-3.79319">
        <ele>923.6</ele>
        <time>2021-11-16 13:18:16</time>
      </trkpt>
      <trkpt lat="40.70336" lon="-3.79316">
        <ele>924</ele>
        <time>2021-11-16 13:18:17</time>
      </trkpt>
      <trkpt lat="40.70332" lon="-3.79312">
        <ele>924.2</ele>
        <time>2021-11-16 13:18:18</time>
      </trkpt>
      <trkpt lat="40.70328" lon="-3.79309">
        <ele>924.4</ele>
        <time>2021-11-16 13:18:19</time>
      </trkpt>
      <trkpt lat="40.70325" lon="-3.79306">
        <ele>924.8</ele>
        <time>2021-11-16 13:18:20</time>
      </trkpt>
      <trkpt lat="40.70321" lon="-3.79303">
        <ele>925.4</ele>
        <time>2021-11-16 13:18:21</time>
      </trkpt>
      <trkpt lat="40.70318" lon="-3.793">
        <ele>925.4</ele>
        <time>2021-11-16 13:18:22</time>
      </trkpt>
      <trkpt lat="40.70314" lon="-3.79297">
        <ele>925.8</ele>
        <time>2021-11-16 13:18:23</time>
      </trkpt>
      <trkpt lat="40.7031" lon="-3.79295">
        <ele>925.8</ele>
        <time>2021-11-16 13:18:24</time>
      </trkpt>
      <trkpt lat="40.70306" lon="-3.79293">
        <ele>926.2</ele>
        <time>2021-11-16 13:18:25</time>
      </trkpt>
      <trkpt lat="40.70303" lon="-3.79291">
        <ele>926.4</ele>
        <time>2021-11-16 13:18:26</time>
      </trkpt>
      <trkpt lat="40.70299" lon="-3.79288">
        <ele>926.4</ele>
        <time>2021-11-16 13:18:27</time>
      </trkpt>
      <trkpt lat="40.70295" lon="-3.79286">
        <ele>926.4</ele>
        <time>2021-11-16 13:18:28</time>
      </trkpt>
      <trkpt lat="40.70291" lon="-3.79284">
        <ele>926.6</ele>
        <time>2021-11-16 13:18:29</time>
      </trkpt>
      <trkpt lat="40.70287" lon="-3.79281">
        <ele>926.6</ele>
        <time>2021-11-16 13:18:30</time>
      </trkpt>
      <trkpt lat="40.70283" lon="-3.79279">
        <ele>926.8</ele>
        <time>2021-11-16 13:18:31</time>
      </trkpt>
      <trkpt lat="40.70279" lon="-3.79276">
        <ele>927.2</ele>
        <time>2021-11-16 13:18:32</time>
      </trkpt>
      <trkpt lat="40.70275" lon="-3.79273">
        <ele>927.4</ele>
        <time>2021-11-16 13:18:33</time>
      </trkpt>
      <trkpt lat="40.70271" lon="-3.79271">
        <ele>927.8</ele>
        <time>2021-11-16 13:18:34</time>
      </trkpt>
      <trkpt lat="40.70268" lon="-3.79268">
        <ele>927.8</ele>
        <time>2021-11-16 13:18:35</time>
      </trkpt>
      <trkpt lat="40.70264" lon="-3.79265">
        <ele>928</ele>
        <time>2021-11-16 13:18:36</time>
      </trkpt>
      <trkpt lat="40.7026" lon="-3.79262">
        <ele>928</ele>
        <time>2021-11-16 13:18:37</time>
      </trkpt>
      <trkpt lat="40.70256" lon="-3.79259">
        <ele>928.2</ele>
        <time>2021-11-16 13:18:38</time>
      </trkpt>
      <trkpt lat="40.70253" lon="-3.79256">
        <ele>928.2</ele>
        <time>2021-11-16 13:18:39</time>
      </trkpt>
      <trkpt lat="40.70249" lon="-3.79253">
        <ele>928.2</ele>
        <time>2021-11-16 13:18:40</time>
      </trkpt>
      <trkpt lat="40.70245" lon="-3.7925">
        <ele>928.2</ele>
        <time>2021-11-16 13:18:41</time>
      </trkpt>
      <trkpt lat="40.70241" lon="-3.79247">
        <ele>928.2</ele>
        <time>2021-11-16 13:18:42</time>
      </trkpt>
      <trkpt lat="40.70237" lon="-3.79244">
        <ele>928.4</ele>
        <time>2021-11-16 13:18:43</time>
      </trkpt>
      <trkpt lat="40.70233" lon="-3.79241">
        <ele>928.4</ele>
        <time>2021-11-16 13:18:44</time>
      </trkpt>
      <trkpt lat="40.7023" lon="-3.79238">
        <ele>928.4</ele>
        <time>2021-11-16 13:18:45</time>
      </trkpt>
      <trkpt lat="40.70226" lon="-3.79235">
        <ele>928.6</ele>
        <time>2021-11-16 13:18:46</time>
      </trkpt>
      <trkpt lat="40.70222" lon="-3.79233">
        <ele>928.6</ele>
        <time>2021-11-16 13:18:47</time>
      </trkpt>
      <trkpt lat="40.70218" lon="-3.7923">
        <ele>928.8</ele>
        <time>2021-11-16 13:18:48</time>
      </trkpt>
      <trkpt lat="40.70214" lon="-3.79227">
        <ele>929</ele>
        <time>2021-11-16 13:18:49</time>
      </trkpt>
      <trkpt lat="40.7021" lon="-3.79224">
        <ele>929</ele>
        <time>2021-11-16 13:18:50</time>
      </trkpt>
      <trkpt lat="40.70206" lon="-3.79221">
        <ele>929</ele>
        <time>2021-11-16 13:18:51</time>
      </trkpt>
      <trkpt lat="40.70202" lon="-3.79218">
        <ele>929.2</ele>
        <time>2021-11-16 13:18:52</time>
      </trkpt>
      <trkpt lat="40.70199" lon="-3.79215">
        <ele>929.6</ele>
        <time>2021-11-16 13:18:53</time>
      </trkpt>
      <trkpt lat="40.70195" lon="-3.79212">
        <ele>929.6</ele>
        <time>2021-11-16 13:18:54</time>
      </trkpt>
      <trkpt lat="40.70191" lon="-3.79209">
        <ele>929.8</ele>
        <time>2021-11-16 13:18:55</time>
      </trkpt>
      <trkpt lat="40.70187" lon="-3.79206">
        <ele>930</ele>
        <time>2021-11-16 13:18:56</time>
      </trkpt>
      <trkpt lat="40.70183" lon="-3.79203">
        <ele>930.2</ele>
        <time>2021-11-16 13:18:57</time>
      </trkpt>
      <trkpt lat="40.7018" lon="-3.792">
        <ele>930.4</ele>
        <time>2021-11-16 13:18:58</time>
      </trkpt>
      <trkpt lat="40.70176" lon="-3.79196">
        <ele>930.4</ele>
        <time>2021-11-16 13:18:59</time>
      </trkpt>
      <trkpt lat="40.70172" lon="-3.79193">
        <ele>930.8</ele>
        <time>2021-11-16 13:19:00</time>
      </trkpt>
      <trkpt lat="40.70168" lon="-3.7919">
        <ele>931</ele>
        <time>2021-11-16 13:19:01</time>
      </trkpt>
      <trkpt lat="40.70165" lon="-3.79187">
        <ele>931</ele>
        <time>2021-11-16 13:19:02</time>
      </trkpt>
      <trkpt lat="40.70161" lon="-3.79184">
        <ele>931</ele>
        <time>2021-11-16 13:19:03</time>
      </trkpt>
      <trkpt lat="40.70157" lon="-3.79181">
        <ele>931.4</ele>
        <time>2021-11-16 13:19:04</time>
      </trkpt>
      <trkpt lat="40.70153" lon="-3.79178">
        <ele>931.4</ele>
        <time>2021-11-16 13:19:05</time>
      </trkpt>
      <trkpt lat="40.7015" lon="-3.79174">
        <ele>931.4</ele>
        <time>2021-11-16 13:19:06</time>
      </trkpt>
      <trkpt lat="40.70146" lon="-3.79171">
        <ele>931.6</ele>
        <time>2021-11-16 13:19:07</time>
      </trkpt>
      <trkpt lat="40.70142" lon="-3.79167">
        <ele>931.8</ele>
        <time>2021-11-16 13:19:08</time>
      </trkpt>
      <trkpt lat="40.70139" lon="-3.79164">
        <ele>931.8</ele>
        <time>2021-11-16 13:19:09</time>
      </trkpt>
      <trkpt lat="40.70135" lon="-3.79161">
        <ele>932</ele>
        <time>2021-11-16 13:19:10</time>
      </trkpt>
      <trkpt lat="40.70131" lon="-3.79158">
        <ele>932.2</ele>
        <time>2021-11-16 13:19:11</time>
      </trkpt>
      <trkpt lat="40.70127" lon="-3.79155">
        <ele>932.4</ele>
        <time>2021-11-16 13:19:12</time>
      </trkpt>
      <trkpt lat="40.70123" lon="-3.79151">
        <ele>932.6</ele>
        <time>2021-11-16 13:19:13</time>
      </trkpt>
      <trkpt lat="40.70119" lon="-3.79148">
        <ele>932.6</ele>
        <time>2021-11-16 13:19:14</time>
      </trkpt>
      <trkpt lat="40.70115" lon="-3.79145">
        <ele>932.6</ele>
        <time>2021-11-16 13:19:15</time>
      </trkpt>
      <trkpt lat="40.70111" lon="-3.79142">
        <ele>932.6</ele>
        <time>2021-11-16 13:19:16</time>
      </trkpt>
      <trkpt lat="40.70107" lon="-3.79138">
        <ele>932.6</ele>
        <time>2021-11-16 13:19:17</time>
      </trkpt>
      <trkpt lat="40.70103" lon="-3.79135">
        <ele>932.6</ele>
        <time>2021-11-16 13:19:18</time>
      </trkpt>
      <trkpt lat="40.70099" lon="-3.79132">
        <ele>932.8</ele>
        <time>2021-11-16 13:19:19</time>
      </trkpt>
      <trkpt lat="40.70095" lon="-3.79129">
        <ele>933</ele>
        <time>2021-11-16 13:19:20</time>
      </trkpt>
      <trkpt lat="40.70091" lon="-3.79125">
        <ele>933.2</ele>
        <time>2021-11-16 13:19:21</time>
      </trkpt>
      <trkpt lat="40.70087" lon="-3.79122">
        <ele>933.2</ele>
        <time>2021-11-16 13:19:22</time>
      </trkpt>
      <trkpt lat="40.70083" lon="-3.79119">
        <ele>933.4</ele>
        <time>2021-11-16 13:19:23</time>
      </trkpt>
      <trkpt lat="40.70079" lon="-3.79115">
        <ele>933.6</ele>
        <time>2021-11-16 13:19:24</time>
      </trkpt>
      <trkpt lat="40.70075" lon="-3.79112">
        <ele>933.6</ele>
        <time>2021-11-16 13:19:25</time>
      </trkpt>
      <trkpt lat="40.70071" lon="-3.79109">
        <ele>933.8</ele>
        <time>2021-11-16 13:19:26</time>
      </trkpt>
      <trkpt lat="40.70067" lon="-3.79106">
        <ele>934.2</ele>
        <time>2021-11-16 13:19:27</time>
      </trkpt>
      <trkpt lat="40.70063" lon="-3.79102">
        <ele>934.4</ele>
        <time>2021-11-16 13:19:28</time>
      </trkpt>
      <trkpt lat="40.70059" lon="-3.79099">
        <ele>934.6</ele>
        <time>2021-11-16 13:19:29</time>
      </trkpt>
      <trkpt lat="40.70056" lon="-3.79096">
        <ele>934.8</ele>
        <time>2021-11-16 13:19:30</time>
      </trkpt>
      <trkpt lat="40.70052" lon="-3.79093">
        <ele>934.8</ele>
        <time>2021-11-16 13:19:31</time>
      </trkpt>
      <trkpt lat="40.70048" lon="-3.7909">
        <ele>935.2</ele>
        <time>2021-11-16 13:19:32</time>
      </trkpt>
      <trkpt lat="40.70044" lon="-3.79087">
        <ele>935.2</ele>
        <time>2021-11-16 13:19:33</time>
      </trkpt>
      <trkpt lat="40.70041" lon="-3.79084">
        <ele>935.4</ele>
        <time>2021-11-16 13:19:34</time>
      </trkpt>
      <trkpt lat="40.70037" lon="-3.79081">
        <ele>935.6</ele>
        <time>2021-11-16 13:19:35</time>
      </trkpt>
      <trkpt lat="40.70033" lon="-3.79078">
        <ele>935.4</ele>
        <time>2021-11-16 13:19:36</time>
      </trkpt>
      <trkpt lat="40.7003" lon="-3.79075">
        <ele>935.4</ele>
        <time>2021-11-16 13:19:37</time>
      </trkpt>
      <trkpt lat="40.70026" lon="-3.79072">
        <ele>935.6</ele>
        <time>2021-11-16 13:19:38</time>
      </trkpt>
      <trkpt lat="40.70022" lon="-3.79069">
        <ele>935.8</ele>
        <time>2021-11-16 13:19:39</time>
      </trkpt>
      <trkpt lat="40.70018" lon="-3.79066">
        <ele>935.8</ele>
        <time>2021-11-16 13:19:40</time>
      </trkpt>
      <trkpt lat="40.70014" lon="-3.79062">
        <ele>935.8</ele>
        <time>2021-11-16 13:19:41</time>
      </trkpt>
      <trkpt lat="40.70011" lon="-3.79059">
        <ele>936</ele>
        <time>2021-11-16 13:19:42</time>
      </trkpt>
      <trkpt lat="40.70007" lon="-3.79057">
        <ele>936.2</ele>
        <time>2021-11-16 13:19:43</time>
      </trkpt>
      <trkpt lat="40.70003" lon="-3.79054">
        <ele>936.4</ele>
        <time>2021-11-16 13:19:44</time>
      </trkpt>
      <trkpt lat="40.69999" lon="-3.79051">
        <ele>936.6</ele>
        <time>2021-11-16 13:19:45</time>
      </trkpt>
      <trkpt lat="40.69995" lon="-3.79048">
        <ele>936.8</ele>
        <time>2021-11-16 13:19:46</time>
      </trkpt>
      <trkpt lat="40.69992" lon="-3.79045">
        <ele>937</ele>
        <time>2021-11-16 13:19:47</time>
      </trkpt>
      <trkpt lat="40.69988" lon="-3.79042">
        <ele>937.2</ele>
        <time>2021-11-16 13:19:48</time>
      </trkpt>
      <trkpt lat="40.69983" lon="-3.79039">
        <ele>937.4</ele>
        <time>2021-11-16 13:19:49</time>
      </trkpt>
      <trkpt lat="40.69979" lon="-3.79037">
        <ele>937.8</ele>
        <time>2021-11-16 13:19:50</time>
      </trkpt>
      <trkpt lat="40.69975" lon="-3.79034">
        <ele>938</ele>
        <time>2021-11-16 13:19:51</time>
      </trkpt>
      <trkpt lat="40.69971" lon="-3.79031">
        <ele>938.2</ele>
        <time>2021-11-16 13:19:52</time>
      </trkpt>
      <trkpt lat="40.69967" lon="-3.79029">
        <ele>938.2</ele>
        <time>2021-11-16 13:19:53</time>
      </trkpt>
      <trkpt lat="40.69963" lon="-3.79026">
        <ele>938.6</ele>
        <time>2021-11-16 13:19:54</time>
      </trkpt>
      <trkpt lat="40.69959" lon="-3.79024">
        <ele>938.6</ele>
        <time>2021-11-16 13:19:55</time>
      </trkpt>
      <trkpt lat="40.69954" lon="-3.79021">
        <ele>938.6</ele>
        <time>2021-11-16 13:19:56</time>
      </trkpt>
      <trkpt lat="40.6995" lon="-3.79018">
        <ele>938.8</ele>
        <time>2021-11-16 13:19:57</time>
      </trkpt>
      <trkpt lat="40.69946" lon="-3.79016">
        <ele>939</ele>
        <time>2021-11-16 13:19:58</time>
      </trkpt>
      <trkpt lat="40.69942" lon="-3.79013">
        <ele>939.2</ele>
        <time>2021-11-16 13:19:59</time>
      </trkpt>
      <trkpt lat="40.69938" lon="-3.79011">
        <ele>939.2</ele>
        <time>2021-11-16 13:20:00</time>
      </trkpt>
      <trkpt lat="40.69933" lon="-3.79009">
        <ele>939.4</ele>
        <time>2021-11-16 13:20:01</time>
      </trkpt>
      <trkpt lat="40.69929" lon="-3.79006">
        <ele>939.4</ele>
        <time>2021-11-16 13:20:02</time>
      </trkpt>
      <trkpt lat="40.69924" lon="-3.79004">
        <ele>939.4</ele>
        <time>2021-11-16 13:20:03</time>
      </trkpt>
      <trkpt lat="40.69919" lon="-3.79001">
        <ele>939.6</ele>
        <time>2021-11-16 13:20:04</time>
      </trkpt>
      <trkpt lat="40.69915" lon="-3.78999">
        <ele>939.6</ele>
        <time>2021-11-16 13:20:05</time>
      </trkpt>
      <trkpt lat="40.6991" lon="-3.78996">
        <ele>939.6</ele>
        <time>2021-11-16 13:20:06</time>
      </trkpt>
      <trkpt lat="40.69905" lon="-3.78994">
        <ele>939.8</ele>
        <time>2021-11-16 13:20:07</time>
      </trkpt>
      <trkpt lat="40.699" lon="-3.78992">
        <ele>939.8</ele>
        <time>2021-11-16 13:20:08</time>
      </trkpt>
      <trkpt lat="40.69895" lon="-3.7899">
        <ele>939.8</ele>
        <time>2021-11-16 13:20:09</time>
      </trkpt>
      <trkpt lat="40.6989" lon="-3.78988">
        <ele>940</ele>
        <time>2021-11-16 13:20:10</time>
      </trkpt>
      <trkpt lat="40.69885" lon="-3.78986">
        <ele>940</ele>
        <time>2021-11-16 13:20:11</time>
      </trkpt>
      <trkpt lat="40.6988" lon="-3.78984">
        <ele>940</ele>
        <time>2021-11-16 13:20:12</time>
      </trkpt>
      <trkpt lat="40.69875" lon="-3.78982">
        <ele>940</ele>
        <time>2021-11-16 13:20:13</time>
      </trkpt>
      <trkpt lat="40.6987" lon="-3.7898">
        <ele>940</ele>
        <time>2021-11-16 13:20:14</time>
      </trkpt>
      <trkpt lat="40.69864" lon="-3.78978">
        <ele>940</ele>
        <time>2021-11-16 13:20:15</time>
      </trkpt>
      <trkpt lat="40.69859" lon="-3.78976">
        <ele>940.2</ele>
        <time>2021-11-16 13:20:16</time>
      </trkpt>
      <trkpt lat="40.69854" lon="-3.78974">
        <ele>940</ele>
        <time>2021-11-16 13:20:17</time>
      </trkpt>
      <trkpt lat="40.69848" lon="-3.78972">
        <ele>940</ele>
        <time>2021-11-16 13:20:18</time>
      </trkpt>
      <trkpt lat="40.69843" lon="-3.78971">
        <ele>940</ele>
        <time>2021-11-16 13:20:19</time>
      </trkpt>
      <trkpt lat="40.69838" lon="-3.78969">
        <ele>940.2</ele>
        <time>2021-11-16 13:20:20</time>
      </trkpt>
      <trkpt lat="40.69832" lon="-3.78967">
        <ele>940.4</ele>
        <time>2021-11-16 13:20:21</time>
      </trkpt>
      <trkpt lat="40.69827" lon="-3.78964">
        <ele>940.4</ele>
        <time>2021-11-16 13:20:22</time>
      </trkpt>
      <trkpt lat="40.69821" lon="-3.78962">
        <ele>940.4</ele>
        <time>2021-11-16 13:20:23</time>
      </trkpt>
      <trkpt lat="40.69815" lon="-3.78961">
        <ele>940.4</ele>
        <time>2021-11-16 13:20:24</time>
      </trkpt>
      <trkpt lat="40.69809" lon="-3.78959">
        <ele>940.6</ele>
        <time>2021-11-16 13:20:25</time>
      </trkpt>
      <trkpt lat="40.69804" lon="-3.78957">
        <ele>940.6</ele>
        <time>2021-11-16 13:20:26</time>
      </trkpt>
      <trkpt lat="40.69798" lon="-3.78954">
        <ele>940.4</ele>
        <time>2021-11-16 13:20:27</time>
      </trkpt>
      <trkpt lat="40.69792" lon="-3.78952">
        <ele>940.6</ele>
        <time>2021-11-16 13:20:28</time>
      </trkpt>
      <trkpt lat="40.69787" lon="-3.7895">
        <ele>940.6</ele>
        <time>2021-11-16 13:20:29</time>
      </trkpt>
      <trkpt lat="40.69781" lon="-3.78948">
        <ele>940.6</ele>
        <time>2021-11-16 13:20:30</time>
      </trkpt>
      <trkpt lat="40.69775" lon="-3.78946">
        <ele>940.6</ele>
        <time>2021-11-16 13:20:31</time>
      </trkpt>
      <trkpt lat="40.69769" lon="-3.78944">
        <ele>940.4</ele>
        <time>2021-11-16 13:20:32</time>
      </trkpt>
      <trkpt lat="40.69763" lon="-3.78942">
        <ele>940.4</ele>
        <time>2021-11-16 13:20:33</time>
      </trkpt>
      <trkpt lat="40.69757" lon="-3.7894">
        <ele>940.6</ele>
        <time>2021-11-16 13:20:34</time>
      </trkpt>
      <trkpt lat="40.6975" lon="-3.78937">
        <ele>940.6</ele>
        <time>2021-11-16 13:20:35</time>
      </trkpt>
      <trkpt lat="40.69744" lon="-3.78935">
        <ele>940.6</ele>
        <time>2021-11-16 13:20:36</time>
      </trkpt>
      <trkpt lat="40.69738" lon="-3.78933">
        <ele>940.4</ele>
        <time>2021-11-16 13:20:37</time>
      </trkpt>
      <trkpt lat="40.69732" lon="-3.78931">
        <ele>940.6</ele>
        <time>2021-11-16 13:20:38</time>
      </trkpt>
      <trkpt lat="40.69726" lon="-3.78929">
        <ele>940.4</ele>
        <time>2021-11-16 13:20:39</time>
      </trkpt>
      <trkpt lat="40.6972" lon="-3.78926">
        <ele>940.2</ele>
        <time>2021-11-16 13:20:40</time>
      </trkpt>
      <trkpt lat="40.69715" lon="-3.78924">
        <ele>940.4</ele>
        <time>2021-11-16 13:20:41</time>
      </trkpt>
      <trkpt lat="40.69709" lon="-3.78922">
        <ele>940.4</ele>
        <time>2021-11-16 13:20:42</time>
      </trkpt>
      <trkpt lat="40.69703" lon="-3.7892">
        <ele>940.2</ele>
        <time>2021-11-16 13:20:43</time>
      </trkpt>
      <trkpt lat="40.69697" lon="-3.78918">
        <ele>940</ele>
        <time>2021-11-16 13:20:44</time>
      </trkpt>
      <trkpt lat="40.69691" lon="-3.78916">
        <ele>940</ele>
        <time>2021-11-16 13:20:45</time>
      </trkpt>
      <trkpt lat="40.69685" lon="-3.78913">
        <ele>940</ele>
        <time>2021-11-16 13:20:46</time>
      </trkpt>
      <trkpt lat="40.69678" lon="-3.78911">
        <ele>940.2</ele>
        <time>2021-11-16 13:20:47</time>
      </trkpt>
      <trkpt lat="40.69672" lon="-3.78909">
        <ele>940</ele>
        <time>2021-11-16 13:20:48</time>
      </trkpt>
      <trkpt lat="40.69666" lon="-3.78907">
        <ele>940</ele>
        <time>2021-11-16 13:20:49</time>
      </trkpt>
      <trkpt lat="40.6966" lon="-3.78905">
        <ele>940</ele>
        <time>2021-11-16 13:20:50</time>
      </trkpt>
      <trkpt lat="40.69653" lon="-3.78903">
        <ele>940</ele>
        <time>2021-11-16 13:20:51</time>
      </trkpt>
      <trkpt lat="40.69647" lon="-3.789">
        <ele>940</ele>
        <time>2021-11-16 13:20:52</time>
      </trkpt>
      <trkpt lat="40.69641" lon="-3.78898">
        <ele>940</ele>
        <time>2021-11-16 13:20:53</time>
      </trkpt>
      <trkpt lat="40.69634" lon="-3.78896">
        <ele>940</ele>
        <time>2021-11-16 13:20:54</time>
      </trkpt>
      <trkpt lat="40.69628" lon="-3.78894">
        <ele>940.2</ele>
        <time>2021-11-16 13:20:55</time>
      </trkpt>
      <trkpt lat="40.69622" lon="-3.78892">
        <ele>940</ele>
        <time>2021-11-16 13:20:56</time>
      </trkpt>
      <trkpt lat="40.69615" lon="-3.7889">
        <ele>940.2</ele>
        <time>2021-11-16 13:20:57</time>
      </trkpt>
      <trkpt lat="40.69609" lon="-3.78889">
        <ele>940.2</ele>
        <time>2021-11-16 13:20:58</time>
      </trkpt>
      <trkpt lat="40.69603" lon="-3.78887">
        <ele>940.2</ele>
        <time>2021-11-16 13:20:59</time>
      </trkpt>
      <trkpt lat="40.69596" lon="-3.78885">
        <ele>940.2</ele>
        <time>2021-11-16 13:21:00</time>
      </trkpt>
      <trkpt lat="40.6959" lon="-3.78883">
        <ele>940.2</ele>
        <time>2021-11-16 13:21:01</time>
      </trkpt>
      <trkpt lat="40.69584" lon="-3.78881">
        <ele>940</ele>
        <time>2021-11-16 13:21:02</time>
      </trkpt>
      <trkpt lat="40.69577" lon="-3.78879">
        <ele>940</ele>
        <time>2021-11-16 13:21:03</time>
      </trkpt>
      <trkpt lat="40.69571" lon="-3.78877">
        <ele>940</ele>
        <time>2021-11-16 13:21:04</time>
      </trkpt>
      <trkpt lat="40.69564" lon="-3.78874">
        <ele>940</ele>
        <time>2021-11-16 13:21:05</time>
      </trkpt>
      <trkpt lat="40.69558" lon="-3.78872">
        <ele>940</ele>
        <time>2021-11-16 13:21:06</time>
      </trkpt>
      <trkpt lat="40.69552" lon="-3.7887">
        <ele>940</ele>
        <time>2021-11-16 13:21:07</time>
      </trkpt>
      <trkpt lat="40.69546" lon="-3.78867">
        <ele>940</ele>
        <time>2021-11-16 13:21:08</time>
      </trkpt>
      <trkpt lat="40.69539" lon="-3.78865">
        <ele>940</ele>
        <time>2021-11-16 13:21:09</time>
      </trkpt>
      <trkpt lat="40.69533" lon="-3.78863">
        <ele>939.8</ele>
        <time>2021-11-16 13:21:10</time>
      </trkpt>
      <trkpt lat="40.69527" lon="-3.78861">
        <ele>939.8</ele>
        <time>2021-11-16 13:21:11</time>
      </trkpt>
      <trkpt lat="40.69521" lon="-3.78859">
        <ele>940</ele>
        <time>2021-11-16 13:21:12</time>
      </trkpt>
      <trkpt lat="40.69514" lon="-3.78856">
        <ele>939.8</ele>
        <time>2021-11-16 13:21:13</time>
      </trkpt>
      <trkpt lat="40.69508" lon="-3.78854">
        <ele>939.8</ele>
        <time>2021-11-16 13:21:14</time>
      </trkpt>
      <trkpt lat="40.69502" lon="-3.78851">
        <ele>939.8</ele>
        <time>2021-11-16 13:21:15</time>
      </trkpt>
      <trkpt lat="40.69496" lon="-3.78849">
        <ele>939.6</ele>
        <time>2021-11-16 13:21:16</time>
      </trkpt>
      <trkpt lat="40.69489" lon="-3.78847">
        <ele>939.6</ele>
        <time>2021-11-16 13:21:17</time>
      </trkpt>
      <trkpt lat="40.69483" lon="-3.78845">
        <ele>939.2</ele>
        <time>2021-11-16 13:21:18</time>
      </trkpt>
      <trkpt lat="40.69477" lon="-3.78843">
        <ele>939.2</ele>
        <time>2021-11-16 13:21:19</time>
      </trkpt>
      <trkpt lat="40.69472" lon="-3.78841">
        <ele>939.4</ele>
        <time>2021-11-16 13:21:20</time>
      </trkpt>
      <trkpt lat="40.69466" lon="-3.78841">
        <ele>939.2</ele>
        <time>2021-11-16 13:21:21</time>
      </trkpt>
      <trkpt lat="40.6946" lon="-3.78843">
        <ele>939</ele>
        <time>2021-11-16 13:21:22</time>
      </trkpt>
      <trkpt lat="40.69454" lon="-3.78847">
        <ele>939.2</ele>
        <time>2021-11-16 13:21:23</time>
      </trkpt>
      <trkpt lat="40.69448" lon="-3.78849">
        <ele>939.2</ele>
        <time>2021-11-16 13:21:24</time>
      </trkpt>
      <trkpt lat="40.69443" lon="-3.78848">
        <ele>939</ele>
        <time>2021-11-16 13:21:25</time>
      </trkpt>
      <trkpt lat="40.69437" lon="-3.78844">
        <ele>939</ele>
        <time>2021-11-16 13:21:26</time>
      </trkpt>
      <trkpt lat="40.69433" lon="-3.78838">
        <ele>939</ele>
        <time>2021-11-16 13:21:27</time>
      </trkpt>
      <trkpt lat="40.6943" lon="-3.78832">
        <ele>939</ele>
        <time>2021-11-16 13:21:28</time>
      </trkpt>
      <trkpt lat="40.69426" lon="-3.78827">
        <ele>939</ele>
        <time>2021-11-16 13:21:29</time>
      </trkpt>
      <trkpt lat="40.69421" lon="-3.78823">
        <ele>939</ele>
        <time>2021-11-16 13:21:30</time>
      </trkpt>
      <trkpt lat="40.69415" lon="-3.78821">
        <ele>939</ele>
        <time>2021-11-16 13:21:31</time>
      </trkpt>
      <trkpt lat="40.69409" lon="-3.78819">
        <ele>939</ele>
        <time>2021-11-16 13:21:32</time>
      </trkpt>
      <trkpt lat="40.69404" lon="-3.78817">
        <ele>939</ele>
        <time>2021-11-16 13:21:33</time>
      </trkpt>
      <trkpt lat="40.69398" lon="-3.78814">
        <ele>939</ele>
        <time>2021-11-16 13:21:34</time>
      </trkpt>
      <trkpt lat="40.69392" lon="-3.78812">
        <ele>939</ele>
        <time>2021-11-16 13:21:35</time>
      </trkpt>
      <trkpt lat="40.69386" lon="-3.7881">
        <ele>939.2</ele>
        <time>2021-11-16 13:21:36</time>
      </trkpt>
      <trkpt lat="40.6938" lon="-3.78808">
        <ele>939.2</ele>
        <time>2021-11-16 13:21:37</time>
      </trkpt>
      <trkpt lat="40.69374" lon="-3.78806">
        <ele>939.2</ele>
        <time>2021-11-16 13:21:38</time>
      </trkpt>
      <trkpt lat="40.69368" lon="-3.78804">
        <ele>939.4</ele>
        <time>2021-11-16 13:21:39</time>
      </trkpt>
      <trkpt lat="40.69362" lon="-3.78802">
        <ele>939.4</ele>
        <time>2021-11-16 13:21:40</time>
      </trkpt>
      <trkpt lat="40.69356" lon="-3.788">
        <ele>939.4</ele>
        <time>2021-11-16 13:21:41</time>
      </trkpt>
      <trkpt lat="40.6935" lon="-3.78797">
        <ele>939.4</ele>
        <time>2021-11-16 13:21:42</time>
      </trkpt>
      <trkpt lat="40.69344" lon="-3.78795">
        <ele>939.4</ele>
        <time>2021-11-16 13:21:43</time>
      </trkpt>
      <trkpt lat="40.69338" lon="-3.78793">
        <ele>939.4</ele>
        <time>2021-11-16 13:21:44</time>
      </trkpt>
      <trkpt lat="40.69332" lon="-3.7879">
        <ele>939.4</ele>
        <time>2021-11-16 13:21:45</time>
      </trkpt>
      <trkpt lat="40.69326" lon="-3.78788">
        <ele>939.4</ele>
        <time>2021-11-16 13:21:46</time>
      </trkpt>
      <trkpt lat="40.69319" lon="-3.78786">
        <ele>939.4</ele>
        <time>2021-11-16 13:21:47</time>
      </trkpt>
      <trkpt lat="40.69313" lon="-3.78783">
        <ele>939.4</ele>
        <time>2021-11-16 13:21:48</time>
      </trkpt>
      <trkpt lat="40.69307" lon="-3.78781">
        <ele>939.4</ele>
        <time>2021-11-16 13:21:49</time>
      </trkpt>
      <trkpt lat="40.69301" lon="-3.78778">
        <ele>939.4</ele>
        <time>2021-11-16 13:21:50</time>
      </trkpt>
      <trkpt lat="40.69295" lon="-3.78775">
        <ele>939.2</ele>
        <time>2021-11-16 13:21:51</time>
      </trkpt>
      <trkpt lat="40.69288" lon="-3.78772">
        <ele>939</ele>
        <time>2021-11-16 13:21:52</time>
      </trkpt>
      <trkpt lat="40.69282" lon="-3.78769">
        <ele>939.2</ele>
        <time>2021-11-16 13:21:53</time>
      </trkpt>
      <trkpt lat="40.69276" lon="-3.78765">
        <ele>939.2</ele>
        <time>2021-11-16 13:21:54</time>
      </trkpt>
      <trkpt lat="40.69269" lon="-3.78762">
        <ele>939.2</ele>
        <time>2021-11-16 13:21:55</time>
      </trkpt>
      <trkpt lat="40.69262" lon="-3.78759">
        <ele>939</ele>
        <time>2021-11-16 13:21:56</time>
      </trkpt>
      <trkpt lat="40.69256" lon="-3.78756">
        <ele>939</ele>
        <time>2021-11-16 13:21:57</time>
      </trkpt>
      <trkpt lat="40.69249" lon="-3.78753">
        <ele>939</ele>
        <time>2021-11-16 13:21:58</time>
      </trkpt>
      <trkpt lat="40.69242" lon="-3.7875">
        <ele>939</ele>
        <time>2021-11-16 13:21:59</time>
      </trkpt>
      <trkpt lat="40.69235" lon="-3.78747">
        <ele>939</ele>
        <time>2021-11-16 13:22:00</time>
      </trkpt>
      <trkpt lat="40.69229" lon="-3.78744">
        <ele>938.8</ele>
        <time>2021-11-16 13:22:01</time>
      </trkpt>
      <trkpt lat="40.69222" lon="-3.78741">
        <ele>938.8</ele>
        <time>2021-11-16 13:22:02</time>
      </trkpt>
      <trkpt lat="40.69215" lon="-3.78738">
        <ele>938.8</ele>
        <time>2021-11-16 13:22:03</time>
      </trkpt>
      <trkpt lat="40.69208" lon="-3.78735">
        <ele>938.6</ele>
        <time>2021-11-16 13:22:04</time>
      </trkpt>
      <trkpt lat="40.69201" lon="-3.78732">
        <ele>938.6</ele>
        <time>2021-11-16 13:22:05</time>
      </trkpt>
      <trkpt lat="40.69194" lon="-3.78729">
        <ele>938.6</ele>
        <time>2021-11-16 13:22:06</time>
      </trkpt>
      <trkpt lat="40.69187" lon="-3.78726">
        <ele>938.6</ele>
        <time>2021-11-16 13:22:07</time>
      </trkpt>
      <trkpt lat="40.69181" lon="-3.78723">
        <ele>938.4</ele>
        <time>2021-11-16 13:22:08</time>
      </trkpt>
      <trkpt lat="40.69174" lon="-3.7872">
        <ele>938.2</ele>
        <time>2021-11-16 13:22:09</time>
      </trkpt>
      <trkpt lat="40.69167" lon="-3.78717">
        <ele>937.6</ele>
        <time>2021-11-16 13:22:10</time>
      </trkpt>
      <trkpt lat="40.6916" lon="-3.78714">
        <ele>937.4</ele>
        <time>2021-11-16 13:22:11</time>
      </trkpt>
      <trkpt lat="40.69154" lon="-3.78711">
        <ele>937.4</ele>
        <time>2021-11-16 13:22:12</time>
      </trkpt>
      <trkpt lat="40.69147" lon="-3.78708">
        <ele>937.2</ele>
        <time>2021-11-16 13:22:13</time>
      </trkpt>
      <trkpt lat="40.6914" lon="-3.78705">
        <ele>937.2</ele>
        <time>2021-11-16 13:22:14</time>
      </trkpt>
      <trkpt lat="40.69133" lon="-3.78703">
        <ele>937.2</ele>
        <time>2021-11-16 13:22:15</time>
      </trkpt>
      <trkpt lat="40.69126" lon="-3.787">
        <ele>937</ele>
        <time>2021-11-16 13:22:16</time>
      </trkpt>
      <trkpt lat="40.6912" lon="-3.78697">
        <ele>937.2</ele>
        <time>2021-11-16 13:22:17</time>
      </trkpt>
      <trkpt lat="40.69113" lon="-3.78694">
        <ele>937.2</ele>
        <time>2021-11-16 13:22:18</time>
      </trkpt>
      <trkpt lat="40.69106" lon="-3.78692">
        <ele>937.2</ele>
        <time>2021-11-16 13:22:19</time>
      </trkpt>
      <trkpt lat="40.69099" lon="-3.7869">
        <ele>937.2</ele>
        <time>2021-11-16 13:22:20</time>
      </trkpt>
      <trkpt lat="40.69092" lon="-3.78688">
        <ele>937</ele>
        <time>2021-11-16 13:22:21</time>
      </trkpt>
      <trkpt lat="40.69085" lon="-3.78686">
        <ele>937</ele>
        <time>2021-11-16 13:22:22</time>
      </trkpt>
      <trkpt lat="40.69078" lon="-3.78684">
        <ele>937.2</ele>
        <time>2021-11-16 13:22:23</time>
      </trkpt>
      <trkpt lat="40.69071" lon="-3.78682">
        <ele>937.2</ele>
        <time>2021-11-16 13:22:24</time>
      </trkpt>
      <trkpt lat="40.69064" lon="-3.7868">
        <ele>937</ele>
        <time>2021-11-16 13:22:25</time>
      </trkpt>
      <trkpt lat="40.69058" lon="-3.78678">
        <ele>937</ele>
        <time>2021-11-16 13:22:26</time>
      </trkpt>
      <trkpt lat="40.69051" lon="-3.78677">
        <ele>937.2</ele>
        <time>2021-11-16 13:22:27</time>
      </trkpt>
      <trkpt lat="40.69044" lon="-3.78675">
        <ele>937.2</ele>
        <time>2021-11-16 13:22:28</time>
      </trkpt>
      <trkpt lat="40.69037" lon="-3.78673">
        <ele>937.2</ele>
        <time>2021-11-16 13:22:29</time>
      </trkpt>
      <trkpt lat="40.69031" lon="-3.78671">
        <ele>937.2</ele>
        <time>2021-11-16 13:22:30</time>
      </trkpt>
      <trkpt lat="40.69024" lon="-3.78669">
        <ele>937.2</ele>
        <time>2021-11-16 13:22:31</time>
      </trkpt>
      <trkpt lat="40.69017" lon="-3.78667">
        <ele>937.2</ele>
        <time>2021-11-16 13:22:32</time>
      </trkpt>
      <trkpt lat="40.6901" lon="-3.78666">
        <ele>937.2</ele>
        <time>2021-11-16 13:22:33</time>
      </trkpt>
      <trkpt lat="40.69004" lon="-3.78664">
        <ele>937.2</ele>
        <time>2021-11-16 13:22:34</time>
      </trkpt>
      <trkpt lat="40.68997" lon="-3.78662">
        <ele>937.2</ele>
        <time>2021-11-16 13:22:35</time>
      </trkpt>
      <trkpt lat="40.6899" lon="-3.7866">
        <ele>937.2</ele>
        <time>2021-11-16 13:22:36</time>
      </trkpt>
      <trkpt lat="40.68983" lon="-3.78658">
        <ele>937.2</ele>
        <time>2021-11-16 13:22:37</time>
      </trkpt>
      <trkpt lat="40.68977" lon="-3.78656">
        <ele>937.2</ele>
        <time>2021-11-16 13:22:38</time>
      </trkpt>
      <trkpt lat="40.6897" lon="-3.78654">
        <ele>937.4</ele>
        <time>2021-11-16 13:22:39</time>
      </trkpt>
      <trkpt lat="40.68963" lon="-3.78653">
        <ele>937.4</ele>
        <time>2021-11-16 13:22:40</time>
      </trkpt>
      <trkpt lat="40.68956" lon="-3.78651">
        <ele>937.4</ele>
        <time>2021-11-16 13:22:41</time>
      </trkpt>
      <trkpt lat="40.6895" lon="-3.78649">
        <ele>937.4</ele>
        <time>2021-11-16 13:22:42</time>
      </trkpt>
      <trkpt lat="40.68943" lon="-3.78647">
        <ele>937.4</ele>
        <time>2021-11-16 13:22:43</time>
      </trkpt>
      <trkpt lat="40.68936" lon="-3.78645">
        <ele>937.4</ele>
        <time>2021-11-16 13:22:44</time>
      </trkpt>
      <trkpt lat="40.68929" lon="-3.78643">
        <ele>937.4</ele>
        <time>2021-11-16 13:22:45</time>
      </trkpt>
      <trkpt lat="40.68922" lon="-3.78641">
        <ele>937.4</ele>
        <time>2021-11-16 13:22:46</time>
      </trkpt>
      <trkpt lat="40.68915" lon="-3.78639">
        <ele>937.2</ele>
        <time>2021-11-16 13:22:47</time>
      </trkpt>
      <trkpt lat="40.68908" lon="-3.78638">
        <ele>937.2</ele>
        <time>2021-11-16 13:22:48</time>
      </trkpt>
      <trkpt lat="40.68901" lon="-3.78636">
        <ele>937.2</ele>
        <time>2021-11-16 13:22:49</time>
      </trkpt>
      <trkpt lat="40.68894" lon="-3.78634">
        <ele>937.4</ele>
        <time>2021-11-16 13:22:50</time>
      </trkpt>
      <trkpt lat="40.68888" lon="-3.78632">
        <ele>937.4</ele>
        <time>2021-11-16 13:22:51</time>
      </trkpt>
      <trkpt lat="40.68881" lon="-3.7863">
        <ele>937.4</ele>
        <time>2021-11-16 13:22:52</time>
      </trkpt>
      <trkpt lat="40.68873" lon="-3.78628">
        <ele>937.4</ele>
        <time>2021-11-16 13:22:53</time>
      </trkpt>
      <trkpt lat="40.68866" lon="-3.78626">
        <ele>937.4</ele>
        <time>2021-11-16 13:22:54</time>
      </trkpt>
      <trkpt lat="40.68859" lon="-3.78624">
        <ele>937.2</ele>
        <time>2021-11-16 13:22:55</time>
      </trkpt>
      <trkpt lat="40.68852" lon="-3.78622">
        <ele>937.6</ele>
        <time>2021-11-16 13:22:56</time>
      </trkpt>
      <trkpt lat="40.68845" lon="-3.78621">
        <ele>937.6</ele>
        <time>2021-11-16 13:22:57</time>
      </trkpt>
      <trkpt lat="40.68838" lon="-3.78619">
        <ele>937.6</ele>
        <time>2021-11-16 13:22:58</time>
      </trkpt>
      <trkpt lat="40.68831" lon="-3.78617">
        <ele>937.6</ele>
        <time>2021-11-16 13:22:59</time>
      </trkpt>
      <trkpt lat="40.68824" lon="-3.78615">
        <ele>937.6</ele>
        <time>2021-11-16 13:23:00</time>
      </trkpt>
      <trkpt lat="40.68817" lon="-3.78613">
        <ele>937.8</ele>
        <time>2021-11-16 13:23:01</time>
      </trkpt>
      <trkpt lat="40.6881" lon="-3.78611">
        <ele>937.8</ele>
        <time>2021-11-16 13:23:02</time>
      </trkpt>
      <trkpt lat="40.68804" lon="-3.78609">
        <ele>937.8</ele>
        <time>2021-11-16 13:23:03</time>
      </trkpt>
      <trkpt lat="40.68797" lon="-3.78607">
        <ele>937.8</ele>
        <time>2021-11-16 13:23:04</time>
      </trkpt>
      <trkpt lat="40.6879" lon="-3.78605">
        <ele>938</ele>
        <time>2021-11-16 13:23:05</time>
      </trkpt>
      <trkpt lat="40.68783" lon="-3.78603">
        <ele>938</ele>
        <time>2021-11-16 13:23:06</time>
      </trkpt>
      <trkpt lat="40.68776" lon="-3.78601">
        <ele>938</ele>
        <time>2021-11-16 13:23:07</time>
      </trkpt>
      <trkpt lat="40.68769" lon="-3.78599">
        <ele>938</ele>
        <time>2021-11-16 13:23:08</time>
      </trkpt>
      <trkpt lat="40.68762" lon="-3.78598">
        <ele>938.2</ele>
        <time>2021-11-16 13:23:09</time>
      </trkpt>
      <trkpt lat="40.68755" lon="-3.78596">
        <ele>938.2</ele>
        <time>2021-11-16 13:23:10</time>
      </trkpt>
      <trkpt lat="40.68748" lon="-3.78594">
        <ele>938.2</ele>
        <time>2021-11-16 13:23:11</time>
      </trkpt>
      <trkpt lat="40.68742" lon="-3.78592">
        <ele>938.2</ele>
        <time>2021-11-16 13:23:12</time>
      </trkpt>
      <trkpt lat="40.68735" lon="-3.7859">
        <ele>938</ele>
        <time>2021-11-16 13:23:13</time>
      </trkpt>
      <trkpt lat="40.68728" lon="-3.78588">
        <ele>938</ele>
        <time>2021-11-16 13:23:14</time>
      </trkpt>
      <trkpt lat="40.68721" lon="-3.78587">
        <ele>938</ele>
        <time>2021-11-16 13:23:15</time>
      </trkpt>
      <trkpt lat="40.68715" lon="-3.78585">
        <ele>938</ele>
        <time>2021-11-16 13:23:16</time>
      </trkpt>
      <trkpt lat="40.68708" lon="-3.78583">
        <ele>938</ele>
        <time>2021-11-16 13:23:17</time>
      </trkpt>
      <trkpt lat="40.68701" lon="-3.78581">
        <ele>938.2</ele>
        <time>2021-11-16 13:23:18</time>
      </trkpt>
      <trkpt lat="40.68695" lon="-3.78579">
        <ele>938.2</ele>
        <time>2021-11-16 13:23:19</time>
      </trkpt>
      <trkpt lat="40.68688" lon="-3.78578">
        <ele>938.2</ele>
        <time>2021-11-16 13:23:20</time>
      </trkpt>
      <trkpt lat="40.68682" lon="-3.78576">
        <ele>938.2</ele>
        <time>2021-11-16 13:23:21</time>
      </trkpt>
      <trkpt lat="40.68676" lon="-3.78575">
        <ele>938.4</ele>
        <time>2021-11-16 13:23:22</time>
      </trkpt>
      <trkpt lat="40.68669" lon="-3.78573">
        <ele>938.4</ele>
        <time>2021-11-16 13:23:23</time>
      </trkpt>
      <trkpt lat="40.68663" lon="-3.78571">
        <ele>938.2</ele>
        <time>2021-11-16 13:23:24</time>
      </trkpt>
      <trkpt lat="40.68657" lon="-3.7857">
        <ele>938.4</ele>
        <time>2021-11-16 13:23:25</time>
      </trkpt>
      <trkpt lat="40.6865" lon="-3.78568">
        <ele>938.6</ele>
        <time>2021-11-16 13:23:26</time>
      </trkpt>
      <trkpt lat="40.68644" lon="-3.78566">
        <ele>938.8</ele>
        <time>2021-11-16 13:23:27</time>
      </trkpt>
      <trkpt lat="40.68637" lon="-3.78565">
        <ele>939.2</ele>
        <time>2021-11-16 13:23:28</time>
      </trkpt>
      <trkpt lat="40.6863" lon="-3.78564">
        <ele>939.2</ele>
        <time>2021-11-16 13:23:29</time>
      </trkpt>
      <trkpt lat="40.68623" lon="-3.78563">
        <ele>939.2</ele>
        <time>2021-11-16 13:23:30</time>
      </trkpt>
      <trkpt lat="40.68617" lon="-3.78563">
        <ele>939.2</ele>
        <time>2021-11-16 13:23:31</time>
      </trkpt>
      <trkpt lat="40.68611" lon="-3.78563">
        <ele>939.4</ele>
        <time>2021-11-16 13:23:32</time>
      </trkpt>
      <trkpt lat="40.68604" lon="-3.78564">
        <ele>939.2</ele>
        <time>2021-11-16 13:23:33</time>
      </trkpt>
      <trkpt lat="40.68599" lon="-3.78566">
        <ele>939.2</ele>
        <time>2021-11-16 13:23:34</time>
      </trkpt>
      <trkpt lat="40.68593" lon="-3.78569">
        <ele>939.4</ele>
        <time>2021-11-16 13:23:35</time>
      </trkpt>
      <trkpt lat="40.68587" lon="-3.78572">
        <ele>939.4</ele>
        <time>2021-11-16 13:23:36</time>
      </trkpt>
      <trkpt lat="40.68581" lon="-3.78576">
        <ele>939.2</ele>
        <time>2021-11-16 13:23:37</time>
      </trkpt>
      <trkpt lat="40.68574" lon="-3.78579">
        <ele>939.2</ele>
        <time>2021-11-16 13:23:38</time>
      </trkpt>
      <trkpt lat="40.68568" lon="-3.78583">
        <ele>939.2</ele>
        <time>2021-11-16 13:23:39</time>
      </trkpt>
      <trkpt lat="40.68561" lon="-3.78587">
        <ele>939.2</ele>
        <time>2021-11-16 13:23:40</time>
      </trkpt>
      <trkpt lat="40.68555" lon="-3.78591">
        <ele>939</ele>
        <time>2021-11-16 13:23:41</time>
      </trkpt>
      <trkpt lat="40.68548" lon="-3.78595">
        <ele>939</ele>
        <time>2021-11-16 13:23:42</time>
      </trkpt>
      <trkpt lat="40.68541" lon="-3.78601">
        <ele>939.2</ele>
        <time>2021-11-16 13:23:43</time>
      </trkpt>
      <trkpt lat="40.68534" lon="-3.78607">
        <ele>939.2</ele>
        <time>2021-11-16 13:23:44</time>
      </trkpt>
      <trkpt lat="40.68528" lon="-3.78615">
        <ele>939</ele>
        <time>2021-11-16 13:23:45</time>
      </trkpt>
      <trkpt lat="40.68523" lon="-3.78623">
        <ele>938.8</ele>
        <time>2021-11-16 13:23:46</time>
      </trkpt>
      <trkpt lat="40.68518" lon="-3.78633">
        <ele>938.8</ele>
        <time>2021-11-16 13:23:47</time>
      </trkpt>
      <trkpt lat="40.68513" lon="-3.78643">
        <ele>938.6</ele>
        <time>2021-11-16 13:23:48</time>
      </trkpt>
      <trkpt lat="40.6851" lon="-3.78654">
        <ele>938.4</ele>
        <time>2021-11-16 13:23:49</time>
      </trkpt>
      <trkpt lat="40.68506" lon="-3.78666">
        <ele>938.2</ele>
        <time>2021-11-16 13:23:50</time>
      </trkpt>
      <trkpt lat="40.68502" lon="-3.78677">
        <ele>937.8</ele>
        <time>2021-11-16 13:23:51</time>
      </trkpt>
      <trkpt lat="40.68499" lon="-3.78689">
        <ele>937.6</ele>
        <time>2021-11-16 13:23:52</time>
      </trkpt>
      <trkpt lat="40.68496" lon="-3.787">
        <ele>937.2</ele>
        <time>2021-11-16 13:23:53</time>
      </trkpt>
      <trkpt lat="40.68491" lon="-3.78709">
        <ele>936.4</ele>
        <time>2021-11-16 13:23:54</time>
      </trkpt>
      <trkpt lat="40.68485" lon="-3.78714">
        <ele>935.6</ele>
        <time>2021-11-16 13:23:55</time>
      </trkpt>
      <trkpt lat="40.68478" lon="-3.78716">
        <ele>935.4</ele>
        <time>2021-11-16 13:23:56</time>
      </trkpt>
      <trkpt lat="40.68471" lon="-3.78715">
        <ele>935.4</ele>
        <time>2021-11-16 13:23:57</time>
      </trkpt>
      <trkpt lat="40.68465" lon="-3.78714">
        <ele>935.4</ele>
        <time>2021-11-16 13:23:58</time>
      </trkpt>
      <trkpt lat="40.68458" lon="-3.78713">
        <ele>935.2</ele>
        <time>2021-11-16 13:23:59</time>
      </trkpt>
      <trkpt lat="40.68452" lon="-3.78711">
        <ele>935.2</ele>
        <time>2021-11-16 13:24:00</time>
      </trkpt>
      <trkpt lat="40.68446" lon="-3.78709">
        <ele>935.2</ele>
        <time>2021-11-16 13:24:01</time>
      </trkpt>
      <trkpt lat="40.6844" lon="-3.78707">
        <ele>935.2</ele>
        <time>2021-11-16 13:24:02</time>
      </trkpt>
      <trkpt lat="40.68434" lon="-3.78703">
        <ele>935.2</ele>
        <time>2021-11-16 13:24:03</time>
      </trkpt>
      <trkpt lat="40.68429" lon="-3.78698">
        <ele>935</ele>
        <time>2021-11-16 13:24:04</time>
      </trkpt>
      <trkpt lat="40.68426" lon="-3.78692">
        <ele>935</ele>
        <time>2021-11-16 13:24:05</time>
      </trkpt>
      <trkpt lat="40.68424" lon="-3.78684">
        <ele>935</ele>
        <time>2021-11-16 13:24:06</time>
      </trkpt>
      <trkpt lat="40.68422" lon="-3.78676">
        <ele>935.2</ele>
        <time>2021-11-16 13:24:07</time>
      </trkpt>
      <trkpt lat="40.68422" lon="-3.78667">
        <ele>935</ele>
        <time>2021-11-16 13:24:08</time>
      </trkpt>
      <trkpt lat="40.68422" lon="-3.78658">
        <ele>935.2</ele>
        <time>2021-11-16 13:24:09</time>
      </trkpt>
      <trkpt lat="40.68422" lon="-3.78649">
        <ele>935</ele>
        <time>2021-11-16 13:24:10</time>
      </trkpt>
      <trkpt lat="40.68422" lon="-3.7864">
        <ele>935.2</ele>
        <time>2021-11-16 13:24:11</time>
      </trkpt>
      <trkpt lat="40.68421" lon="-3.78631">
        <ele>935</ele>
        <time>2021-11-16 13:24:12</time>
      </trkpt>
      <trkpt lat="40.68421" lon="-3.78622">
        <ele>935.2</ele>
        <time>2021-11-16 13:24:13</time>
      </trkpt>
      <trkpt lat="40.6842" lon="-3.78613">
        <ele>935.2</ele>
        <time>2021-11-16 13:24:14</time>
      </trkpt>
      <trkpt lat="40.6842" lon="-3.78604">
        <ele>935.2</ele>
        <time>2021-11-16 13:24:15</time>
      </trkpt>
      <trkpt lat="40.68421" lon="-3.78595">
        <ele>935.2</ele>
        <time>2021-11-16 13:24:16</time>
      </trkpt>
      <trkpt lat="40.68422" lon="-3.78585">
        <ele>935.2</ele>
        <time>2021-11-16 13:24:17</time>
      </trkpt>
      <trkpt lat="40.68424" lon="-3.78575">
        <ele>935</ele>
        <time>2021-11-16 13:24:18</time>
      </trkpt>
      <trkpt lat="40.68427" lon="-3.78565">
        <ele>935.2</ele>
        <time>2021-11-16 13:24:19</time>
      </trkpt>
      <trkpt lat="40.6843" lon="-3.78555">
        <ele>935.2</ele>
        <time>2021-11-16 13:24:20</time>
      </trkpt>
      <trkpt lat="40.68433" lon="-3.78544">
        <ele>935</ele>
        <time>2021-11-16 13:24:21</time>
      </trkpt>
      <trkpt lat="40.68436" lon="-3.78533">
        <ele>934.8</ele>
        <time>2021-11-16 13:24:22</time>
      </trkpt>
      <trkpt lat="40.68438" lon="-3.78522">
        <ele>934.8</ele>
        <time>2021-11-16 13:24:23</time>
      </trkpt>
      <trkpt lat="40.6844" lon="-3.78511">
        <ele>934.6</ele>
        <time>2021-11-16 13:24:24</time>
      </trkpt>
      <trkpt lat="40.68442" lon="-3.78501">
        <ele>934.2</ele>
        <time>2021-11-16 13:24:25</time>
      </trkpt>
      <trkpt lat="40.68445" lon="-3.7849">
        <ele>933.6</ele>
        <time>2021-11-16 13:24:26</time>
      </trkpt>
      <trkpt lat="40.68449" lon="-3.78482">
        <ele>933.4</ele>
        <time>2021-11-16 13:24:27</time>
      </trkpt>
      <trkpt lat="40.68454" lon="-3.78473">
        <ele>933</ele>
        <time>2021-11-16 13:24:28</time>
      </trkpt>
      <trkpt lat="40.68459" lon="-3.78467">
        <ele>932.6</ele>
        <time>2021-11-16 13:24:29</time>
      </trkpt>
      <trkpt lat="40.68463" lon="-3.7846">
        <ele>932.4</ele>
        <time>2021-11-16 13:24:30</time>
      </trkpt>
      <trkpt lat="40.68465" lon="-3.78453">
        <ele>932.4</ele>
        <time>2021-11-16 13:24:31</time>
      </trkpt>
      <trkpt lat="40.68466" lon="-3.78445">
        <ele>932.4</ele>
        <time>2021-11-16 13:24:32</time>
      </trkpt>
      <trkpt lat="40.68466" lon="-3.78437">
        <ele>932.4</ele>
        <time>2021-11-16 13:24:33</time>
      </trkpt>
      <trkpt lat="40.68466" lon="-3.78429">
        <ele>932.2</ele>
        <time>2021-11-16 13:24:34</time>
      </trkpt>
      <trkpt lat="40.68465" lon="-3.78421">
        <ele>932.4</ele>
        <time>2021-11-16 13:24:35</time>
      </trkpt>
      <trkpt lat="40.68465" lon="-3.78414">
        <ele>932.4</ele>
        <time>2021-11-16 13:24:36</time>
      </trkpt>
      <trkpt lat="40.68464" lon="-3.78407">
        <ele>932.4</ele>
        <time>2021-11-16 13:24:37</time>
      </trkpt>
      <trkpt lat="40.68464" lon="-3.784">
        <ele>932.4</ele>
        <time>2021-11-16 13:24:38</time>
      </trkpt>
      <trkpt lat="40.68464" lon="-3.78393">
        <ele>932.4</ele>
        <time>2021-11-16 13:24:39</time>
      </trkpt>
      <trkpt lat="40.68463" lon="-3.78387">
        <ele>932.6</ele>
        <time>2021-11-16 13:24:40</time>
      </trkpt>
      <trkpt lat="40.68462" lon="-3.78381">
        <ele>933.2</ele>
        <time>2021-11-16 13:24:41</time>
      </trkpt>
      <trkpt lat="40.68462" lon="-3.78375">
        <ele>933.8</ele>
        <time>2021-11-16 13:24:42</time>
      </trkpt>
      <trkpt lat="40.68461" lon="-3.78369">
        <ele>934</ele>
        <time>2021-11-16 13:24:43</time>
      </trkpt>
      <trkpt lat="40.6846" lon="-3.78363">
        <ele>934.2</ele>
        <time>2021-11-16 13:24:44</time>
      </trkpt>
      <trkpt lat="40.6846" lon="-3.78357">
        <ele>934.4</ele>
        <time>2021-11-16 13:24:45</time>
      </trkpt>
      <trkpt lat="40.68459" lon="-3.78351">
        <ele>935</ele>
        <time>2021-11-16 13:24:46</time>
      </trkpt>
      <trkpt lat="40.68458" lon="-3.78345">
        <ele>935.6</ele>
        <time>2021-11-16 13:24:47</time>
      </trkpt>
      <trkpt lat="40.68457" lon="-3.7834">
        <ele>936.4</ele>
        <time>2021-11-16 13:24:48</time>
      </trkpt>
      <trkpt lat="40.68456" lon="-3.78334">
        <ele>937</ele>
        <time>2021-11-16 13:24:49</time>
      </trkpt>
      <trkpt lat="40.68456" lon="-3.78328">
        <ele>937.2</ele>
        <time>2021-11-16 13:24:50</time>
      </trkpt>
      <trkpt lat="40.68455" lon="-3.78323">
        <ele>937.4</ele>
        <time>2021-11-16 13:24:51</time>
      </trkpt>
      <trkpt lat="40.68454" lon="-3.78317">
        <ele>937.8</ele>
        <time>2021-11-16 13:24:52</time>
      </trkpt>
      <trkpt lat="40.68453" lon="-3.78312">
        <ele>938</ele>
        <time>2021-11-16 13:24:53</time>
      </trkpt>
      <trkpt lat="40.68452" lon="-3.78306">
        <ele>938.2</ele>
        <time>2021-11-16 13:24:54</time>
      </trkpt>
      <trkpt lat="40.68451" lon="-3.78301">
        <ele>938.2</ele>
        <time>2021-11-16 13:24:55</time>
      </trkpt>
      <trkpt lat="40.6845" lon="-3.78296">
        <ele>938.4</ele>
        <time>2021-11-16 13:24:56</time>
      </trkpt>
      <trkpt lat="40.68449" lon="-3.7829">
        <ele>938.4</ele>
        <time>2021-11-16 13:24:57</time>
      </trkpt>
      <trkpt lat="40.68448" lon="-3.78285">
        <ele>938.8</ele>
        <time>2021-11-16 13:24:58</time>
      </trkpt>
      <trkpt lat="40.68447" lon="-3.7828">
        <ele>939</ele>
        <time>2021-11-16 13:24:59</time>
      </trkpt>
      <trkpt lat="40.68446" lon="-3.78274">
        <ele>939.4</ele>
        <time>2021-11-16 13:25:00</time>
      </trkpt>
      <trkpt lat="40.68444" lon="-3.78269">
        <ele>939.6</ele>
        <time>2021-11-16 13:25:01</time>
      </trkpt>
      <trkpt lat="40.68443" lon="-3.78263">
        <ele>940</ele>
        <time>2021-11-16 13:25:02</time>
      </trkpt>
      <trkpt lat="40.68442" lon="-3.78257">
        <ele>940.4</ele>
        <time>2021-11-16 13:25:03</time>
      </trkpt>
      <trkpt lat="40.68441" lon="-3.78252">
        <ele>940.6</ele>
        <time>2021-11-16 13:25:04</time>
      </trkpt>
      <trkpt lat="40.68439" lon="-3.78246">
        <ele>940.8</ele>
        <time>2021-11-16 13:25:05</time>
      </trkpt>
      <trkpt lat="40.68437" lon="-3.78241">
        <ele>940.8</ele>
        <time>2021-11-16 13:25:06</time>
      </trkpt>
      <trkpt lat="40.68436" lon="-3.78235">
        <ele>941</ele>
        <time>2021-11-16 13:25:07</time>
      </trkpt>
      <trkpt lat="40.68434" lon="-3.7823">
        <ele>941.2</ele>
        <time>2021-11-16 13:25:08</time>
      </trkpt>
      <trkpt lat="40.68433" lon="-3.78224">
        <ele>941.4</ele>
        <time>2021-11-16 13:25:09</time>
      </trkpt>
      <trkpt lat="40.68431" lon="-3.78219">
        <ele>941.6</ele>
        <time>2021-11-16 13:25:10</time>
      </trkpt>
      <trkpt lat="40.6843" lon="-3.78214">
        <ele>941.8</ele>
        <time>2021-11-16 13:25:11</time>
      </trkpt>
      <trkpt lat="40.68428" lon="-3.78209">
        <ele>941.8</ele>
        <time>2021-11-16 13:25:12</time>
      </trkpt>
      <trkpt lat="40.68427" lon="-3.78203">
        <ele>942</ele>
        <time>2021-11-16 13:25:13</time>
      </trkpt>
      <trkpt lat="40.68425" lon="-3.78198">
        <ele>942</ele>
        <time>2021-11-16 13:25:14</time>
      </trkpt>
      <trkpt lat="40.68424" lon="-3.78193">
        <ele>942.2</ele>
        <time>2021-11-16 13:25:15</time>
      </trkpt>
      <trkpt lat="40.68422" lon="-3.78187">
        <ele>942.2</ele>
        <time>2021-11-16 13:25:16</time>
      </trkpt>
      <trkpt lat="40.6842" lon="-3.78182">
        <ele>942.2</ele>
        <time>2021-11-16 13:25:17</time>
      </trkpt>
      <trkpt lat="40.68419" lon="-3.78177">
        <ele>942.2</ele>
        <time>2021-11-16 13:25:18</time>
      </trkpt>
      <trkpt lat="40.68417" lon="-3.78172">
        <ele>942.4</ele>
        <time>2021-11-16 13:25:19</time>
      </trkpt>
      <trkpt lat="40.68416" lon="-3.78167">
        <ele>942.6</ele>
        <time>2021-11-16 13:25:20</time>
      </trkpt>
      <trkpt lat="40.68414" lon="-3.78162">
        <ele>942.8</ele>
        <time>2021-11-16 13:25:21</time>
      </trkpt>
      <trkpt lat="40.68412" lon="-3.78156">
        <ele>942.8</ele>
        <time>2021-11-16 13:25:22</time>
      </trkpt>
      <trkpt lat="40.68411" lon="-3.78151">
        <ele>942.8</ele>
        <time>2021-11-16 13:25:23</time>
      </trkpt>
      <trkpt lat="40.68409" lon="-3.78146">
        <ele>943</ele>
        <time>2021-11-16 13:25:24</time>
      </trkpt>
      <trkpt lat="40.68407" lon="-3.78141">
        <ele>943.2</ele>
        <time>2021-11-16 13:25:25</time>
      </trkpt>
      <trkpt lat="40.68406" lon="-3.78136">
        <ele>943.6</ele>
        <time>2021-11-16 13:25:26</time>
      </trkpt>
      <trkpt lat="40.68404" lon="-3.7813">
        <ele>943.6</ele>
        <time>2021-11-16 13:25:27</time>
      </trkpt>
      <trkpt lat="40.68402" lon="-3.78125">
        <ele>944</ele>
        <time>2021-11-16 13:25:28</time>
      </trkpt>
      <trkpt lat="40.68401" lon="-3.7812">
        <ele>944.2</ele>
        <time>2021-11-16 13:25:29</time>
      </trkpt>
      <trkpt lat="40.68399" lon="-3.78115">
        <ele>944.4</ele>
        <time>2021-11-16 13:25:30</time>
      </trkpt>
      <trkpt lat="40.68398" lon="-3.7811">
        <ele>944.4</ele>
        <time>2021-11-16 13:25:31</time>
      </trkpt>
      <trkpt lat="40.68396" lon="-3.78105">
        <ele>944.6</ele>
        <time>2021-11-16 13:25:32</time>
      </trkpt>
      <trkpt lat="40.68394" lon="-3.781">
        <ele>944.8</ele>
        <time>2021-11-16 13:25:33</time>
      </trkpt>
      <trkpt lat="40.68392" lon="-3.78095">
        <ele>944.8</ele>
        <time>2021-11-16 13:25:34</time>
      </trkpt>
      <trkpt lat="40.68391" lon="-3.7809">
        <ele>944.8</ele>
        <time>2021-11-16 13:25:35</time>
      </trkpt>
      <trkpt lat="40.68389" lon="-3.78084">
        <ele>945</ele>
        <time>2021-11-16 13:25:36</time>
      </trkpt>
      <trkpt lat="40.68388" lon="-3.78079">
        <ele>945</ele>
        <time>2021-11-16 13:25:37</time>
      </trkpt>
      <trkpt lat="40.68386" lon="-3.78074">
        <ele>945.6</ele>
        <time>2021-11-16 13:25:38</time>
      </trkpt>
      <trkpt lat="40.68385" lon="-3.78069">
        <ele>945.8</ele>
        <time>2021-11-16 13:25:39</time>
      </trkpt>
      <trkpt lat="40.68383" lon="-3.78063">
        <ele>946.2</ele>
        <time>2021-11-16 13:25:40</time>
      </trkpt>
      <trkpt lat="40.68381" lon="-3.78058">
        <ele>946.6</ele>
        <time>2021-11-16 13:25:41</time>
      </trkpt>
      <trkpt lat="40.6838" lon="-3.78053">
        <ele>947</ele>
        <time>2021-11-16 13:25:42</time>
      </trkpt>
      <trkpt lat="40.68378" lon="-3.78047">
        <ele>947.2</ele>
        <time>2021-11-16 13:25:43</time>
      </trkpt>
      <trkpt lat="40.68376" lon="-3.78042">
        <ele>947.2</ele>
        <time>2021-11-16 13:25:44</time>
      </trkpt>
      <trkpt lat="40.68374" lon="-3.78037">
        <ele>947.4</ele>
        <time>2021-11-16 13:25:45</time>
      </trkpt>
      <trkpt lat="40.68373" lon="-3.78031">
        <ele>947.4</ele>
        <time>2021-11-16 13:25:46</time>
      </trkpt>
      <trkpt lat="40.68371" lon="-3.78026">
        <ele>947.8</ele>
        <time>2021-11-16 13:25:47</time>
      </trkpt>
      <trkpt lat="40.68369" lon="-3.78021">
        <ele>948.2</ele>
        <time>2021-11-16 13:25:48</time>
      </trkpt>
      <trkpt lat="40.68368" lon="-3.78015">
        <ele>948.2</ele>
        <time>2021-11-16 13:25:49</time>
      </trkpt>
      <trkpt lat="40.68366" lon="-3.7801">
        <ele>948.4</ele>
        <time>2021-11-16 13:25:50</time>
      </trkpt>
      <trkpt lat="40.68365" lon="-3.78005">
        <ele>948.6</ele>
        <time>2021-11-16 13:25:51</time>
      </trkpt>
      <trkpt lat="40.68363" lon="-3.77999">
        <ele>949</ele>
        <time>2021-11-16 13:25:52</time>
      </trkpt>
      <trkpt lat="40.68361" lon="-3.77994">
        <ele>949</ele>
        <time>2021-11-16 13:25:53</time>
      </trkpt>
      <trkpt lat="40.68359" lon="-3.77989">
        <ele>949</ele>
        <time>2021-11-16 13:25:54</time>
      </trkpt>
      <trkpt lat="40.68358" lon="-3.77983">
        <ele>949.2</ele>
        <time>2021-11-16 13:25:55</time>
      </trkpt>
      <trkpt lat="40.68356" lon="-3.77978">
        <ele>949.2</ele>
        <time>2021-11-16 13:25:56</time>
      </trkpt>
      <trkpt lat="40.68354" lon="-3.77972">
        <ele>949.2</ele>
        <time>2021-11-16 13:25:57</time>
      </trkpt>
      <trkpt lat="40.68353" lon="-3.77967">
        <ele>949.2</ele>
        <time>2021-11-16 13:25:58</time>
      </trkpt>
      <trkpt lat="40.68351" lon="-3.77961">
        <ele>949.4</ele>
        <time>2021-11-16 13:25:59</time>
      </trkpt>
      <trkpt lat="40.6835" lon="-3.77956">
        <ele>949.4</ele>
        <time>2021-11-16 13:26:00</time>
      </trkpt>
      <trkpt lat="40.68348" lon="-3.7795">
        <ele>949.4</ele>
        <time>2021-11-16 13:26:01</time>
      </trkpt>
      <trkpt lat="40.68346" lon="-3.77945">
        <ele>949.6</ele>
        <time>2021-11-16 13:26:02</time>
      </trkpt>
      <trkpt lat="40.68345" lon="-3.77939">
        <ele>949.6</ele>
        <time>2021-11-16 13:26:03</time>
      </trkpt>
      <trkpt lat="40.68343" lon="-3.77933">
        <ele>949.6</ele>
        <time>2021-11-16 13:26:04</time>
      </trkpt>
      <trkpt lat="40.68341" lon="-3.77927">
        <ele>949.6</ele>
        <time>2021-11-16 13:26:05</time>
      </trkpt>
      <trkpt lat="40.68339" lon="-3.77921">
        <ele>949.8</ele>
        <time>2021-11-16 13:26:06</time>
      </trkpt>
      <trkpt lat="40.68338" lon="-3.77915">
        <ele>949.8</ele>
        <time>2021-11-16 13:26:07</time>
      </trkpt>
      <trkpt lat="40.68336" lon="-3.7791">
        <ele>950</ele>
        <time>2021-11-16 13:26:08</time>
      </trkpt>
      <trkpt lat="40.68334" lon="-3.77904">
        <ele>950.2</ele>
        <time>2021-11-16 13:26:09</time>
      </trkpt>
      <trkpt lat="40.68332" lon="-3.77897">
        <ele>950.2</ele>
        <time>2021-11-16 13:26:10</time>
      </trkpt>
      <trkpt lat="40.6833" lon="-3.77891">
        <ele>950.2</ele>
        <time>2021-11-16 13:26:11</time>
      </trkpt>
      <trkpt lat="40.68328" lon="-3.77885">
        <ele>950.2</ele>
        <time>2021-11-16 13:26:12</time>
      </trkpt>
      <trkpt lat="40.68326" lon="-3.77879">
        <ele>950.2</ele>
        <time>2021-11-16 13:26:13</time>
      </trkpt>
      <trkpt lat="40.68324" lon="-3.77872">
        <ele>950.4</ele>
        <time>2021-11-16 13:26:14</time>
      </trkpt>
      <trkpt lat="40.68322" lon="-3.77866">
        <ele>950.4</ele>
        <time>2021-11-16 13:26:15</time>
      </trkpt>
      <trkpt lat="40.6832" lon="-3.7786">
        <ele>950.6</ele>
        <time>2021-11-16 13:26:16</time>
      </trkpt>
      <trkpt lat="40.68318" lon="-3.77853">
        <ele>950.6</ele>
        <time>2021-11-16 13:26:17</time>
      </trkpt>
      <trkpt lat="40.68316" lon="-3.77847">
        <ele>950.8</ele>
        <time>2021-11-16 13:26:18</time>
      </trkpt>
      <trkpt lat="40.68314" lon="-3.77841">
        <ele>951</ele>
        <time>2021-11-16 13:26:19</time>
      </trkpt>
      <trkpt lat="40.68312" lon="-3.77834">
        <ele>951</ele>
        <time>2021-11-16 13:26:20</time>
      </trkpt>
      <trkpt lat="40.6831" lon="-3.77828">
        <ele>951</ele>
        <time>2021-11-16 13:26:21</time>
      </trkpt>
      <trkpt lat="40.68308" lon="-3.77822">
        <ele>951</ele>
        <time>2021-11-16 13:26:22</time>
      </trkpt>
      <trkpt lat="40.68306" lon="-3.77815">
        <ele>951</ele>
        <time>2021-11-16 13:26:23</time>
      </trkpt>
      <trkpt lat="40.68305" lon="-3.77809">
        <ele>951.2</ele>
        <time>2021-11-16 13:26:24</time>
      </trkpt>
      <trkpt lat="40.68303" lon="-3.77802">
        <ele>951.4</ele>
        <time>2021-11-16 13:26:25</time>
      </trkpt>
      <trkpt lat="40.68301" lon="-3.77796">
        <ele>951.4</ele>
        <time>2021-11-16 13:26:26</time>
      </trkpt>
      <trkpt lat="40.68299" lon="-3.7779">
        <ele>951.4</ele>
        <time>2021-11-16 13:26:27</time>
      </trkpt>
      <trkpt lat="40.68297" lon="-3.77784">
        <ele>951.8</ele>
        <time>2021-11-16 13:26:28</time>
      </trkpt>
      <trkpt lat="40.68295" lon="-3.77777">
        <ele>951.8</ele>
        <time>2021-11-16 13:26:29</time>
      </trkpt>
      <trkpt lat="40.68293" lon="-3.77771">
        <ele>952</ele>
        <time>2021-11-16 13:26:30</time>
      </trkpt>
      <trkpt lat="40.68292" lon="-3.77765">
        <ele>952</ele>
        <time>2021-11-16 13:26:31</time>
      </trkpt>
      <trkpt lat="40.6829" lon="-3.77759">
        <ele>952</ele>
        <time>2021-11-16 13:26:32</time>
      </trkpt>
      <trkpt lat="40.68288" lon="-3.77752">
        <ele>952</ele>
        <time>2021-11-16 13:26:33</time>
      </trkpt>
      <trkpt lat="40.68285" lon="-3.77746">
        <ele>952.2</ele>
        <time>2021-11-16 13:26:34</time>
      </trkpt>
      <trkpt lat="40.68283" lon="-3.7774">
        <ele>952.2</ele>
        <time>2021-11-16 13:26:35</time>
      </trkpt>
      <trkpt lat="40.68281" lon="-3.77733">
        <ele>952.4</ele>
        <time>2021-11-16 13:26:36</time>
      </trkpt>
      <trkpt lat="40.68279" lon="-3.77727">
        <ele>952.4</ele>
        <time>2021-11-16 13:26:37</time>
      </trkpt>
      <trkpt lat="40.68277" lon="-3.7772">
        <ele>952.4</ele>
        <time>2021-11-16 13:26:38</time>
      </trkpt>
      <trkpt lat="40.68275" lon="-3.77714">
        <ele>952.4</ele>
        <time>2021-11-16 13:26:39</time>
      </trkpt>
      <trkpt lat="40.68273" lon="-3.77707">
        <ele>952.6</ele>
        <time>2021-11-16 13:26:40</time>
      </trkpt>
      <trkpt lat="40.68271" lon="-3.777">
        <ele>952.8</ele>
        <time>2021-11-16 13:26:41</time>
      </trkpt>
      <trkpt lat="40.68269" lon="-3.77694">
        <ele>953</ele>
        <time>2021-11-16 13:26:42</time>
      </trkpt>
      <trkpt lat="40.68267" lon="-3.77687">
        <ele>953</ele>
        <time>2021-11-16 13:26:43</time>
      </trkpt>
      <trkpt lat="40.68265" lon="-3.7768">
        <ele>953</ele>
        <time>2021-11-16 13:26:44</time>
      </trkpt>
      <trkpt lat="40.68262" lon="-3.77673">
        <ele>953.2</ele>
        <time>2021-11-16 13:26:45</time>
      </trkpt>
      <trkpt lat="40.6826" lon="-3.77665">
        <ele>953</ele>
        <time>2021-11-16 13:26:46</time>
      </trkpt>
      <trkpt lat="40.68257" lon="-3.77658">
        <ele>953</ele>
        <time>2021-11-16 13:26:47</time>
      </trkpt>
      <trkpt lat="40.68255" lon="-3.77651">
        <ele>953</ele>
        <time>2021-11-16 13:26:48</time>
      </trkpt>
      <trkpt lat="40.68253" lon="-3.77643">
        <ele>952.8</ele>
        <time>2021-11-16 13:26:49</time>
      </trkpt>
      <trkpt lat="40.6825" lon="-3.77635">
        <ele>952.8</ele>
        <time>2021-11-16 13:26:50</time>
      </trkpt>
      <trkpt lat="40.68248" lon="-3.77628">
        <ele>952.8</ele>
        <time>2021-11-16 13:26:51</time>
      </trkpt>
      <trkpt lat="40.68246" lon="-3.7762">
        <ele>952.8</ele>
        <time>2021-11-16 13:26:52</time>
      </trkpt>
      <trkpt lat="40.68243" lon="-3.77612">
        <ele>952.8</ele>
        <time>2021-11-16 13:26:53</time>
      </trkpt>
      <trkpt lat="40.68241" lon="-3.77605">
        <ele>952.8</ele>
        <time>2021-11-16 13:26:54</time>
      </trkpt>
      <trkpt lat="40.68238" lon="-3.77597">
        <ele>952.6</ele>
        <time>2021-11-16 13:26:55</time>
      </trkpt>
      <trkpt lat="40.68236" lon="-3.77589">
        <ele>952.6</ele>
        <time>2021-11-16 13:26:56</time>
      </trkpt>
      <trkpt lat="40.68233" lon="-3.77582">
        <ele>952.6</ele>
        <time>2021-11-16 13:26:57</time>
      </trkpt>
      <trkpt lat="40.68231" lon="-3.77574">
        <ele>952.6</ele>
        <time>2021-11-16 13:26:58</time>
      </trkpt>
      <trkpt lat="40.68228" lon="-3.77567">
        <ele>952.4</ele>
        <time>2021-11-16 13:26:59</time>
      </trkpt>
      <trkpt lat="40.68226" lon="-3.77559">
        <ele>952.4</ele>
        <time>2021-11-16 13:27:00</time>
      </trkpt>
      <trkpt lat="40.68224" lon="-3.77552">
        <ele>952.6</ele>
        <time>2021-11-16 13:27:01</time>
      </trkpt>
      <trkpt lat="40.68221" lon="-3.77545">
        <ele>952.4</ele>
        <time>2021-11-16 13:27:02</time>
      </trkpt>
      <trkpt lat="40.68219" lon="-3.77538">
        <ele>952.6</ele>
        <time>2021-11-16 13:27:03</time>
      </trkpt>
      <trkpt lat="40.68216" lon="-3.77531">
        <ele>952.6</ele>
        <time>2021-11-16 13:27:04</time>
      </trkpt>
      <trkpt lat="40.68213" lon="-3.77524">
        <ele>952.6</ele>
        <time>2021-11-16 13:27:05</time>
      </trkpt>
      <trkpt lat="40.6821" lon="-3.77518">
        <ele>952.6</ele>
        <time>2021-11-16 13:27:06</time>
      </trkpt>
      <trkpt lat="40.68208" lon="-3.77512">
        <ele>952.8</ele>
        <time>2021-11-16 13:27:07</time>
      </trkpt>
      <trkpt lat="40.68205" lon="-3.77506">
        <ele>953</ele>
        <time>2021-11-16 13:27:08</time>
      </trkpt>
      <trkpt lat="40.68203" lon="-3.775">
        <ele>953</ele>
        <time>2021-11-16 13:27:09</time>
      </trkpt>
      <trkpt lat="40.682" lon="-3.77494">
        <ele>953</ele>
        <time>2021-11-16 13:27:10</time>
      </trkpt>
      <trkpt lat="40.68198" lon="-3.77489">
        <ele>953.4</ele>
        <time>2021-11-16 13:27:11</time>
      </trkpt>
      <trkpt lat="40.68196" lon="-3.77483">
        <ele>953.4</ele>
        <time>2021-11-16 13:27:12</time>
      </trkpt>
      <trkpt lat="40.68194" lon="-3.77477">
        <ele>953.6</ele>
        <time>2021-11-16 13:27:13</time>
      </trkpt>
      <trkpt lat="40.68192" lon="-3.77471">
        <ele>953.8</ele>
        <time>2021-11-16 13:27:14</time>
      </trkpt>
      <trkpt lat="40.6819" lon="-3.77465">
        <ele>954.2</ele>
        <time>2021-11-16 13:27:15</time>
      </trkpt>
      <trkpt lat="40.68188" lon="-3.77459">
        <ele>954.4</ele>
        <time>2021-11-16 13:27:16</time>
      </trkpt>
      <trkpt lat="40.68187" lon="-3.77453">
        <ele>954.6</ele>
        <time>2021-11-16 13:27:17</time>
      </trkpt>
      <trkpt lat="40.68185" lon="-3.77447">
        <ele>954.6</ele>
        <time>2021-11-16 13:27:18</time>
      </trkpt>
      <trkpt lat="40.68183" lon="-3.77441">
        <ele>954.8</ele>
        <time>2021-11-16 13:27:19</time>
      </trkpt>
      <trkpt lat="40.68181" lon="-3.77434">
        <ele>955</ele>
        <time>2021-11-16 13:27:20</time>
      </trkpt>
      <trkpt lat="40.68178" lon="-3.77426">
        <ele>954.8</ele>
        <time>2021-11-16 13:27:21</time>
      </trkpt>
      <trkpt lat="40.68176" lon="-3.77418">
        <ele>955</ele>
        <time>2021-11-16 13:27:22</time>
      </trkpt>
      <trkpt lat="40.68174" lon="-3.77409">
        <ele>955</ele>
        <time>2021-11-16 13:27:23</time>
      </trkpt>
      <trkpt lat="40.68171" lon="-3.774">
        <ele>955</ele>
        <time>2021-11-16 13:27:24</time>
      </trkpt>
      <trkpt lat="40.68168" lon="-3.7739">
        <ele>955</ele>
        <time>2021-11-16 13:27:25</time>
      </trkpt>
      <trkpt lat="40.68165" lon="-3.7738">
        <ele>955</ele>
        <time>2021-11-16 13:27:26</time>
      </trkpt>
      <trkpt lat="40.68162" lon="-3.77369">
        <ele>954.8</ele>
        <time>2021-11-16 13:27:27</time>
      </trkpt>
      <trkpt lat="40.68159" lon="-3.77357">
        <ele>954.8</ele>
        <time>2021-11-16 13:27:28</time>
      </trkpt>
      <trkpt lat="40.68156" lon="-3.77345">
        <ele>954.6</ele>
        <time>2021-11-16 13:27:29</time>
      </trkpt>
      <trkpt lat="40.68153" lon="-3.77333">
        <ele>954.6</ele>
        <time>2021-11-16 13:27:30</time>
      </trkpt>
      <trkpt lat="40.6815" lon="-3.7732">
        <ele>953.6</ele>
        <time>2021-11-16 13:27:31</time>
      </trkpt>
      <trkpt lat="40.68147" lon="-3.77307">
        <ele>953</ele>
        <time>2021-11-16 13:27:32</time>
      </trkpt>
      <trkpt lat="40.68143" lon="-3.77294">
        <ele>952.6</ele>
        <time>2021-11-16 13:27:33</time>
      </trkpt>
      <trkpt lat="40.68139" lon="-3.7728">
        <ele>952.2</ele>
        <time>2021-11-16 13:27:34</time>
      </trkpt>
      <trkpt lat="40.68135" lon="-3.77266">
        <ele>951</ele>
        <time>2021-11-16 13:27:35</time>
      </trkpt>
      <trkpt lat="40.68131" lon="-3.77252">
        <ele>949.8</ele>
        <time>2021-11-16 13:27:36</time>
      </trkpt>
      <trkpt lat="40.68126" lon="-3.77238">
        <ele>948.8</ele>
        <time>2021-11-16 13:27:37</time>
      </trkpt>
      <trkpt lat="40.68122" lon="-3.77224">
        <ele>948</ele>
        <time>2021-11-16 13:27:38</time>
      </trkpt>
      <trkpt lat="40.68117" lon="-3.77209">
        <ele>946.6</ele>
        <time>2021-11-16 13:27:39</time>
      </trkpt>
      <trkpt lat="40.68113" lon="-3.77194">
        <ele>945.2</ele>
        <time>2021-11-16 13:27:40</time>
      </trkpt>
      <trkpt lat="40.68108" lon="-3.77179">
        <ele>943.2</ele>
        <time>2021-11-16 13:27:41</time>
      </trkpt>
      <trkpt lat="40.68103" lon="-3.77164">
        <ele>941.6</ele>
        <time>2021-11-16 13:27:42</time>
      </trkpt>
      <trkpt lat="40.68099" lon="-3.7715">
        <ele>940.8</ele>
        <time>2021-11-16 13:27:43</time>
      </trkpt>
      <trkpt lat="40.68094" lon="-3.77135">
        <ele>940</ele>
        <time>2021-11-16 13:27:44</time>
      </trkpt>
      <trkpt lat="40.6809" lon="-3.7712">
        <ele>939.4</ele>
        <time>2021-11-16 13:27:45</time>
      </trkpt>
      <trkpt lat="40.68085" lon="-3.77105">
        <ele>938.8</ele>
        <time>2021-11-16 13:27:46</time>
      </trkpt>
      <trkpt lat="40.6808" lon="-3.77091">
        <ele>937.6</ele>
        <time>2021-11-16 13:27:47</time>
      </trkpt>
      <trkpt lat="40.68074" lon="-3.77077">
        <ele>937.6</ele>
        <time>2021-11-16 13:27:48</time>
      </trkpt>
      <trkpt lat="40.68067" lon="-3.77064">
        <ele>936.2</ele>
        <time>2021-11-16 13:27:49</time>
      </trkpt>
      <trkpt lat="40.68058" lon="-3.77053">
        <ele>935</ele>
        <time>2021-11-16 13:27:50</time>
      </trkpt>
      <trkpt lat="40.68048" lon="-3.77045">
        <ele>934.4</ele>
        <time>2021-11-16 13:27:51</time>
      </trkpt>
      <trkpt lat="40.68038" lon="-3.77039">
        <ele>933.6</ele>
        <time>2021-11-16 13:27:52</time>
      </trkpt>
      <trkpt lat="40.68027" lon="-3.77034">
        <ele>933.2</ele>
        <time>2021-11-16 13:27:53</time>
      </trkpt>
      <trkpt lat="40.68016" lon="-3.77031">
        <ele>932.4</ele>
        <time>2021-11-16 13:27:54</time>
      </trkpt>
      <trkpt lat="40.68005" lon="-3.77028">
        <ele>931.2</ele>
        <time>2021-11-16 13:27:55</time>
      </trkpt>
      <trkpt lat="40.67994" lon="-3.77024">
        <ele>930.8</ele>
        <time>2021-11-16 13:27:56</time>
      </trkpt>
      <trkpt lat="40.67983" lon="-3.77021">
        <ele>929.8</ele>
        <time>2021-11-16 13:27:57</time>
      </trkpt>
      <trkpt lat="40.67972" lon="-3.77017">
        <ele>929</ele>
        <time>2021-11-16 13:27:58</time>
      </trkpt>
      <trkpt lat="40.67962" lon="-3.77011">
        <ele>928.2</ele>
        <time>2021-11-16 13:27:59</time>
      </trkpt>
      <trkpt lat="40.67953" lon="-3.77004">
        <ele>927.6</ele>
        <time>2021-11-16 13:28:00</time>
      </trkpt>
      <trkpt lat="40.67943" lon="-3.76996">
        <ele>927.2</ele>
        <time>2021-11-16 13:28:01</time>
      </trkpt>
      <trkpt lat="40.67934" lon="-3.76986">
        <ele>927</ele>
        <time>2021-11-16 13:28:02</time>
      </trkpt>
      <trkpt lat="40.67927" lon="-3.76975">
        <ele>926.4</ele>
        <time>2021-11-16 13:28:03</time>
      </trkpt>
      <trkpt lat="40.67922" lon="-3.76963">
        <ele>926.2</ele>
        <time>2021-11-16 13:28:04</time>
      </trkpt>
      <trkpt lat="40.67919" lon="-3.76949">
        <ele>926</ele>
        <time>2021-11-16 13:28:05</time>
      </trkpt>
      <trkpt lat="40.67915" lon="-3.76937">
        <ele>925.8</ele>
        <time>2021-11-16 13:28:06</time>
      </trkpt>
      <trkpt lat="40.67913" lon="-3.76924">
        <ele>925.8</ele>
        <time>2021-11-16 13:28:07</time>
      </trkpt>
      <trkpt lat="40.67913" lon="-3.76911">
        <ele>926</ele>
        <time>2021-11-16 13:28:08</time>
      </trkpt>
      <trkpt lat="40.67916" lon="-3.76901">
        <ele>925.2</ele>
        <time>2021-11-16 13:28:09</time>
      </trkpt>
      <trkpt lat="40.67923" lon="-3.76891">
        <ele>924.8</ele>
        <time>2021-11-16 13:28:10</time>
      </trkpt>
      <trkpt lat="40.67931" lon="-3.76884">
        <ele>924.6</ele>
        <time>2021-11-16 13:28:11</time>
      </trkpt>
      <trkpt lat="40.6794" lon="-3.76877">
        <ele>924.6</ele>
        <time>2021-11-16 13:28:12</time>
      </trkpt>
      <trkpt lat="40.67948" lon="-3.7687">
        <ele>924.4</ele>
        <time>2021-11-16 13:28:13</time>
      </trkpt>
      <trkpt lat="40.67956" lon="-3.76863">
        <ele>924</ele>
        <time>2021-11-16 13:28:14</time>
      </trkpt>
      <trkpt lat="40.67962" lon="-3.76854">
        <ele>923.6</ele>
        <time>2021-11-16 13:28:15</time>
      </trkpt>
      <trkpt lat="40.67967" lon="-3.76844">
        <ele>923.4</ele>
        <time>2021-11-16 13:28:16</time>
      </trkpt>
      <trkpt lat="40.67971" lon="-3.76832">
        <ele>923.2</ele>
        <time>2021-11-16 13:28:17</time>
      </trkpt>
      <trkpt lat="40.67973" lon="-3.7682">
        <ele>923.2</ele>
        <time>2021-11-16 13:28:18</time>
      </trkpt>
      <trkpt lat="40.67974" lon="-3.76808">
        <ele>923</ele>
        <time>2021-11-16 13:28:19</time>
      </trkpt>
      <trkpt lat="40.67973" lon="-3.76795">
        <ele>923</ele>
        <time>2021-11-16 13:28:20</time>
      </trkpt>
      <trkpt lat="40.67971" lon="-3.76783">
        <ele>923</ele>
        <time>2021-11-16 13:28:21</time>
      </trkpt>
      <trkpt lat="40.67968" lon="-3.76771">
        <ele>922.6</ele>
        <time>2021-11-16 13:28:22</time>
      </trkpt>
      <trkpt lat="40.67964" lon="-3.7676">
        <ele>922.6</ele>
        <time>2021-11-16 13:28:23</time>
      </trkpt>
      <trkpt lat="40.6796" lon="-3.76748">
        <ele>922</ele>
        <time>2021-11-16 13:28:24</time>
      </trkpt>
      <trkpt lat="40.67955" lon="-3.76737">
        <ele>921.8</ele>
        <time>2021-11-16 13:28:25</time>
      </trkpt>
      <trkpt lat="40.67951" lon="-3.76725">
        <ele>921.8</ele>
        <time>2021-11-16 13:28:26</time>
      </trkpt>
      <trkpt lat="40.67947" lon="-3.76714">
        <ele>921.2</ele>
        <time>2021-11-16 13:28:27</time>
      </trkpt>
      <trkpt lat="40.67943" lon="-3.76703">
        <ele>920.8</ele>
        <time>2021-11-16 13:28:28</time>
      </trkpt>
      <trkpt lat="40.67939" lon="-3.76692">
        <ele>920.4</ele>
        <time>2021-11-16 13:28:29</time>
      </trkpt>
      <trkpt lat="40.67934" lon="-3.76681">
        <ele>920</ele>
        <time>2021-11-16 13:28:30</time>
      </trkpt>
      <trkpt lat="40.67929" lon="-3.7667">
        <ele>919.6</ele>
        <time>2021-11-16 13:28:31</time>
      </trkpt>
      <trkpt lat="40.67924" lon="-3.76659">
        <ele>919.4</ele>
        <time>2021-11-16 13:28:32</time>
      </trkpt>
      <trkpt lat="40.67919" lon="-3.76648">
        <ele>919.2</ele>
        <time>2021-11-16 13:28:33</time>
      </trkpt>
      <trkpt lat="40.67913" lon="-3.76637">
        <ele>918.8</ele>
        <time>2021-11-16 13:28:34</time>
      </trkpt>
      <trkpt lat="40.67908" lon="-3.76626">
        <ele>918.4</ele>
        <time>2021-11-16 13:28:35</time>
      </trkpt>
      <trkpt lat="40.67902" lon="-3.76615">
        <ele>918</ele>
        <time>2021-11-16 13:28:36</time>
      </trkpt>
      <trkpt lat="40.67897" lon="-3.76605">
        <ele>917.4</ele>
        <time>2021-11-16 13:28:37</time>
      </trkpt>
      <trkpt lat="40.67891" lon="-3.76594">
        <ele>917.2</ele>
        <time>2021-11-16 13:28:38</time>
      </trkpt>
      <trkpt lat="40.67886" lon="-3.76583">
        <ele>917</ele>
        <time>2021-11-16 13:28:39</time>
      </trkpt>
      <trkpt lat="40.6788" lon="-3.76573">
        <ele>916.6</ele>
        <time>2021-11-16 13:28:40</time>
      </trkpt>
      <trkpt lat="40.67875" lon="-3.76562">
        <ele>916.2</ele>
        <time>2021-11-16 13:28:41</time>
      </trkpt>
      <trkpt lat="40.67869" lon="-3.76552">
        <ele>915.8</ele>
        <time>2021-11-16 13:28:42</time>
      </trkpt>
      <trkpt lat="40.67863" lon="-3.76542">
        <ele>915.4</ele>
        <time>2021-11-16 13:28:43</time>
      </trkpt>
      <trkpt lat="40.67857" lon="-3.76532">
        <ele>915.2</ele>
        <time>2021-11-16 13:28:44</time>
      </trkpt>
      <trkpt lat="40.67851" lon="-3.76522">
        <ele>915</ele>
        <time>2021-11-16 13:28:45</time>
      </trkpt>
      <trkpt lat="40.67846" lon="-3.76512">
        <ele>915</ele>
        <time>2021-11-16 13:28:46</time>
      </trkpt>
      <trkpt lat="40.6784" lon="-3.76503">
        <ele>915</ele>
        <time>2021-11-16 13:28:47</time>
      </trkpt>
      <trkpt lat="40.67834" lon="-3.76493">
        <ele>914.6</ele>
        <time>2021-11-16 13:28:48</time>
      </trkpt>
      <trkpt lat="40.67828" lon="-3.76483">
        <ele>914.6</ele>
        <time>2021-11-16 13:28:49</time>
      </trkpt>
      <trkpt lat="40.67822" lon="-3.76474">
        <ele>914.4</ele>
        <time>2021-11-16 13:28:50</time>
      </trkpt>
      <trkpt lat="40.67816" lon="-3.76464">
        <ele>914</ele>
        <time>2021-11-16 13:28:51</time>
      </trkpt>
      <trkpt lat="40.6781" lon="-3.76455">
        <ele>913.6</ele>
        <time>2021-11-16 13:28:52</time>
      </trkpt>
      <trkpt lat="40.67803" lon="-3.76445">
        <ele>913.4</ele>
        <time>2021-11-16 13:28:53</time>
      </trkpt>
      <trkpt lat="40.67797" lon="-3.76436">
        <ele>912.8</ele>
        <time>2021-11-16 13:28:54</time>
      </trkpt>
      <trkpt lat="40.67791" lon="-3.76427">
        <ele>912.4</ele>
        <time>2021-11-16 13:28:55</time>
      </trkpt>
      <trkpt lat="40.67785" lon="-3.76417">
        <ele>912</ele>
        <time>2021-11-16 13:28:56</time>
      </trkpt>
      <trkpt lat="40.67778" lon="-3.76408">
        <ele>912</ele>
        <time>2021-11-16 13:28:57</time>
      </trkpt>
      <trkpt lat="40.67772" lon="-3.76399">
        <ele>911.8</ele>
        <time>2021-11-16 13:28:58</time>
      </trkpt>
      <trkpt lat="40.67765" lon="-3.76389">
        <ele>911.8</ele>
        <time>2021-11-16 13:28:59</time>
      </trkpt>
      <trkpt lat="40.67759" lon="-3.7638">
        <ele>911.6</ele>
        <time>2021-11-16 13:29:00</time>
      </trkpt>
      <trkpt lat="40.67752" lon="-3.76371">
        <ele>911.4</ele>
        <time>2021-11-16 13:29:01</time>
      </trkpt>
      <trkpt lat="40.67746" lon="-3.76363">
        <ele>911.2</ele>
        <time>2021-11-16 13:29:02</time>
      </trkpt>
      <trkpt lat="40.67739" lon="-3.76354">
        <ele>910.8</ele>
        <time>2021-11-16 13:29:03</time>
      </trkpt>
      <trkpt lat="40.67733" lon="-3.76346">
        <ele>910.8</ele>
        <time>2021-11-16 13:29:04</time>
      </trkpt>
      <trkpt lat="40.67727" lon="-3.76338">
        <ele>910.6</ele>
        <time>2021-11-16 13:29:05</time>
      </trkpt>
      <trkpt lat="40.67721" lon="-3.7633">
        <ele>910</ele>
        <time>2021-11-16 13:29:06</time>
      </trkpt>
      <trkpt lat="40.67715" lon="-3.76322">
        <ele>909.8</ele>
        <time>2021-11-16 13:29:07</time>
      </trkpt>
      <trkpt lat="40.67708" lon="-3.76314">
        <ele>909.6</ele>
        <time>2021-11-16 13:29:08</time>
      </trkpt>
      <trkpt lat="40.67702" lon="-3.76307">
        <ele>909.4</ele>
        <time>2021-11-16 13:29:09</time>
      </trkpt>
      <trkpt lat="40.67696" lon="-3.763">
        <ele>909.4</ele>
        <time>2021-11-16 13:29:10</time>
      </trkpt>
      <trkpt lat="40.6769" lon="-3.76293">
        <ele>909.2</ele>
        <time>2021-11-16 13:29:11</time>
      </trkpt>
      <trkpt lat="40.67684" lon="-3.76286">
        <ele>909</ele>
        <time>2021-11-16 13:29:12</time>
      </trkpt>
      <trkpt lat="40.67678" lon="-3.76278">
        <ele>908.8</ele>
        <time>2021-11-16 13:29:13</time>
      </trkpt>
      <trkpt lat="40.67672" lon="-3.76271">
        <ele>908.6</ele>
        <time>2021-11-16 13:29:14</time>
      </trkpt>
      <trkpt lat="40.67666" lon="-3.76264">
        <ele>908.6</ele>
        <time>2021-11-16 13:29:15</time>
      </trkpt>
      <trkpt lat="40.67659" lon="-3.76257">
        <ele>908.6</ele>
        <time>2021-11-16 13:29:16</time>
      </trkpt>
      <trkpt lat="40.67652" lon="-3.7625">
        <ele>908.4</ele>
        <time>2021-11-16 13:29:17</time>
      </trkpt>
      <trkpt lat="40.67645" lon="-3.76242">
        <ele>908.6</ele>
        <time>2021-11-16 13:29:18</time>
      </trkpt>
      <trkpt lat="40.67639" lon="-3.76234">
        <ele>908.6</ele>
        <time>2021-11-16 13:29:19</time>
      </trkpt>
      <trkpt lat="40.67631" lon="-3.76227">
        <ele>908.4</ele>
        <time>2021-11-16 13:29:20</time>
      </trkpt>
      <trkpt lat="40.67624" lon="-3.76219">
        <ele>908.4</ele>
        <time>2021-11-16 13:29:21</time>
      </trkpt>
      <trkpt lat="40.67616" lon="-3.76211">
        <ele>908.2</ele>
        <time>2021-11-16 13:29:22</time>
      </trkpt>
      <trkpt lat="40.67608" lon="-3.76204">
        <ele>908.2</ele>
        <time>2021-11-16 13:29:23</time>
      </trkpt>
      <trkpt lat="40.676" lon="-3.76196">
        <ele>908.2</ele>
        <time>2021-11-16 13:29:24</time>
      </trkpt>
      <trkpt lat="40.67593" lon="-3.76188">
        <ele>908</ele>
        <time>2021-11-16 13:29:25</time>
      </trkpt>
      <trkpt lat="40.67585" lon="-3.7618">
        <ele>908</ele>
        <time>2021-11-16 13:29:26</time>
      </trkpt>
      <trkpt lat="40.67576" lon="-3.76173">
        <ele>907.8</ele>
        <time>2021-11-16 13:29:27</time>
      </trkpt>
      <trkpt lat="40.67568" lon="-3.76165">
        <ele>907.4</ele>
        <time>2021-11-16 13:29:28</time>
      </trkpt>
      <trkpt lat="40.6756" lon="-3.76158">
        <ele>905.8</ele>
        <time>2021-11-16 13:29:29</time>
      </trkpt>
      <trkpt lat="40.67551" lon="-3.7615">
        <ele>905</ele>
        <time>2021-11-16 13:29:30</time>
      </trkpt>
      <trkpt lat="40.67543" lon="-3.76143">
        <ele>903.6</ele>
        <time>2021-11-16 13:29:31</time>
      </trkpt>
      <trkpt lat="40.67535" lon="-3.76135">
        <ele>902.6</ele>
        <time>2021-11-16 13:29:32</time>
      </trkpt>
      <trkpt lat="40.67526" lon="-3.76128">
        <ele>902</ele>
        <time>2021-11-16 13:29:33</time>
      </trkpt>
      <trkpt lat="40.67517" lon="-3.76121">
        <ele>901.8</ele>
        <time>2021-11-16 13:29:34</time>
      </trkpt>
      <trkpt lat="40.67509" lon="-3.76113">
        <ele>901.4</ele>
        <time>2021-11-16 13:29:35</time>
      </trkpt>
      <trkpt lat="40.675" lon="-3.76106">
        <ele>900.6</ele>
        <time>2021-11-16 13:29:36</time>
      </trkpt>
      <trkpt lat="40.67491" lon="-3.76099">
        <ele>900.2</ele>
        <time>2021-11-16 13:29:37</time>
      </trkpt>
      <trkpt lat="40.67483" lon="-3.76093">
        <ele>899.6</ele>
        <time>2021-11-16 13:29:38</time>
      </trkpt>
      <trkpt lat="40.67474" lon="-3.76085">
        <ele>899.2</ele>
        <time>2021-11-16 13:29:39</time>
      </trkpt>
      <trkpt lat="40.67466" lon="-3.76077">
        <ele>898.6</ele>
        <time>2021-11-16 13:29:40</time>
      </trkpt>
      <trkpt lat="40.67458" lon="-3.7607">
        <ele>898.2</ele>
        <time>2021-11-16 13:29:41</time>
      </trkpt>
      <trkpt lat="40.67449" lon="-3.76063">
        <ele>898</ele>
        <time>2021-11-16 13:29:42</time>
      </trkpt>
      <trkpt lat="40.6744" lon="-3.76056">
        <ele>898</ele>
        <time>2021-11-16 13:29:43</time>
      </trkpt>
      <trkpt lat="40.67431" lon="-3.76049">
        <ele>897.6</ele>
        <time>2021-11-16 13:29:44</time>
      </trkpt>
      <trkpt lat="40.67421" lon="-3.76042">
        <ele>897.4</ele>
        <time>2021-11-16 13:29:45</time>
      </trkpt>
      <trkpt lat="40.67411" lon="-3.76034">
        <ele>897.2</ele>
        <time>2021-11-16 13:29:46</time>
      </trkpt>
      <trkpt lat="40.67401" lon="-3.76027">
        <ele>896.8</ele>
        <time>2021-11-16 13:29:47</time>
      </trkpt>
      <trkpt lat="40.67392" lon="-3.7602">
        <ele>896.4</ele>
        <time>2021-11-16 13:29:48</time>
      </trkpt>
      <trkpt lat="40.67382" lon="-3.76012">
        <ele>896</ele>
        <time>2021-11-16 13:29:49</time>
      </trkpt>
      <trkpt lat="40.67372" lon="-3.76005">
        <ele>895.8</ele>
        <time>2021-11-16 13:29:50</time>
      </trkpt>
      <trkpt lat="40.67363" lon="-3.75999">
        <ele>895.4</ele>
        <time>2021-11-16 13:29:51</time>
      </trkpt>
      <trkpt lat="40.67353" lon="-3.75993">
        <ele>895.2</ele>
        <time>2021-11-16 13:29:52</time>
      </trkpt>
      <trkpt lat="40.67344" lon="-3.75986">
        <ele>894.4</ele>
        <time>2021-11-16 13:29:53</time>
      </trkpt>
      <trkpt lat="40.67335" lon="-3.75978">
        <ele>893.8</ele>
        <time>2021-11-16 13:29:54</time>
      </trkpt>
      <trkpt lat="40.67326" lon="-3.75971">
        <ele>893.4</ele>
        <time>2021-11-16 13:29:55</time>
      </trkpt>
      <trkpt lat="40.67317" lon="-3.75964">
        <ele>892.4</ele>
        <time>2021-11-16 13:29:56</time>
      </trkpt>
      <trkpt lat="40.67309" lon="-3.75958">
        <ele>891.6</ele>
        <time>2021-11-16 13:29:57</time>
      </trkpt>
      <trkpt lat="40.673" lon="-3.75952">
        <ele>891.2</ele>
        <time>2021-11-16 13:29:58</time>
      </trkpt>
      <trkpt lat="40.67291" lon="-3.75946">
        <ele>890.6</ele>
        <time>2021-11-16 13:29:59</time>
      </trkpt>
      <trkpt lat="40.67283" lon="-3.7594">
        <ele>890.4</ele>
        <time>2021-11-16 13:30:00</time>
      </trkpt>
      <trkpt lat="40.67276" lon="-3.75934">
        <ele>890.2</ele>
        <time>2021-11-16 13:30:01</time>
      </trkpt>
      <trkpt lat="40.67268" lon="-3.75928">
        <ele>890.2</ele>
        <time>2021-11-16 13:30:02</time>
      </trkpt>
      <trkpt lat="40.67261" lon="-3.75922">
        <ele>890.2</ele>
        <time>2021-11-16 13:30:03</time>
      </trkpt>
      <trkpt lat="40.67254" lon="-3.75916">
        <ele>890.2</ele>
        <time>2021-11-16 13:30:04</time>
      </trkpt>
      <trkpt lat="40.67247" lon="-3.75911">
        <ele>890</ele>
        <time>2021-11-16 13:30:05</time>
      </trkpt>
      <trkpt lat="40.67241" lon="-3.75906">
        <ele>890.2</ele>
        <time>2021-11-16 13:30:06</time>
      </trkpt>
      <trkpt lat="40.67234" lon="-3.75901">
        <ele>890.2</ele>
        <time>2021-11-16 13:30:07</time>
      </trkpt>
      <trkpt lat="40.67227" lon="-3.75895">
        <ele>890.4</ele>
        <time>2021-11-16 13:30:08</time>
      </trkpt>
      <trkpt lat="40.6722" lon="-3.7589">
        <ele>890.4</ele>
        <time>2021-11-16 13:30:09</time>
      </trkpt>
      <trkpt lat="40.67213" lon="-3.75885">
        <ele>890.4</ele>
        <time>2021-11-16 13:30:10</time>
      </trkpt>
      <trkpt lat="40.67206" lon="-3.7588">
        <ele>890.6</ele>
        <time>2021-11-16 13:30:11</time>
      </trkpt>
      <trkpt lat="40.67199" lon="-3.75874">
        <ele>890.6</ele>
        <time>2021-11-16 13:30:12</time>
      </trkpt>
      <trkpt lat="40.67192" lon="-3.75869">
        <ele>891</ele>
        <time>2021-11-16 13:30:13</time>
      </trkpt>
      <trkpt lat="40.67185" lon="-3.75864">
        <ele>891.2</ele>
        <time>2021-11-16 13:30:14</time>
      </trkpt>
      <trkpt lat="40.67178" lon="-3.75858">
        <ele>891.2</ele>
        <time>2021-11-16 13:30:15</time>
      </trkpt>
      <trkpt lat="40.67172" lon="-3.75853">
        <ele>891.4</ele>
        <time>2021-11-16 13:30:16</time>
      </trkpt>
      <trkpt lat="40.67165" lon="-3.75848">
        <ele>891.4</ele>
        <time>2021-11-16 13:30:17</time>
      </trkpt>
      <trkpt lat="40.67158" lon="-3.75843">
        <ele>891.4</ele>
        <time>2021-11-16 13:30:18</time>
      </trkpt>
      <trkpt lat="40.67152" lon="-3.75838">
        <ele>891.4</ele>
        <time>2021-11-16 13:30:19</time>
      </trkpt>
      <trkpt lat="40.67145" lon="-3.75833">
        <ele>891.4</ele>
        <time>2021-11-16 13:30:20</time>
      </trkpt>
      <trkpt lat="40.67139" lon="-3.75828">
        <ele>891.6</ele>
        <time>2021-11-16 13:30:21</time>
      </trkpt>
      <trkpt lat="40.67133" lon="-3.75824">
        <ele>891.4</ele>
        <time>2021-11-16 13:30:22</time>
      </trkpt>
      <trkpt lat="40.67127" lon="-3.75819">
        <ele>891.8</ele>
        <time>2021-11-16 13:30:23</time>
      </trkpt>
      <trkpt lat="40.67121" lon="-3.75814">
        <ele>891.6</ele>
        <time>2021-11-16 13:30:24</time>
      </trkpt>
      <trkpt lat="40.67115" lon="-3.7581">
        <ele>891.8</ele>
        <time>2021-11-16 13:30:25</time>
      </trkpt>
      <trkpt lat="40.67109" lon="-3.75805">
        <ele>891.8</ele>
        <time>2021-11-16 13:30:26</time>
      </trkpt>
      <trkpt lat="40.67103" lon="-3.75801">
        <ele>891.8</ele>
        <time>2021-11-16 13:30:27</time>
      </trkpt>
      <trkpt lat="40.67098" lon="-3.75796">
        <ele>891.8</ele>
        <time>2021-11-16 13:30:28</time>
      </trkpt>
      <trkpt lat="40.67092" lon="-3.75792">
        <ele>892</ele>
        <time>2021-11-16 13:30:29</time>
      </trkpt>
      <trkpt lat="40.67086" lon="-3.75788">
        <ele>892</ele>
        <time>2021-11-16 13:30:30</time>
      </trkpt>
      <trkpt lat="40.6708" lon="-3.75783">
        <ele>892</ele>
        <time>2021-11-16 13:30:31</time>
      </trkpt>
      <trkpt lat="40.67075" lon="-3.75779">
        <ele>892</ele>
        <time>2021-11-16 13:30:32</time>
      </trkpt>
      <trkpt lat="40.67069" lon="-3.75774">
        <ele>892</ele>
        <time>2021-11-16 13:30:33</time>
      </trkpt>
      <trkpt lat="40.67064" lon="-3.7577">
        <ele>892.4</ele>
        <time>2021-11-16 13:30:34</time>
      </trkpt>
      <trkpt lat="40.67058" lon="-3.75766">
        <ele>892.6</ele>
        <time>2021-11-16 13:30:35</time>
      </trkpt>
      <trkpt lat="40.67053" lon="-3.75762">
        <ele>892.6</ele>
        <time>2021-11-16 13:30:36</time>
      </trkpt>
      <trkpt lat="40.67047" lon="-3.75758">
        <ele>893</ele>
        <time>2021-11-16 13:30:37</time>
      </trkpt>
      <trkpt lat="40.67042" lon="-3.75753">
        <ele>893.2</ele>
        <time>2021-11-16 13:30:38</time>
      </trkpt>
      <trkpt lat="40.67037" lon="-3.75749">
        <ele>893.2</ele>
        <time>2021-11-16 13:30:39</time>
      </trkpt>
      <trkpt lat="40.67031" lon="-3.75745">
        <ele>893.4</ele>
        <time>2021-11-16 13:30:40</time>
      </trkpt>
      <trkpt lat="40.67026" lon="-3.75741">
        <ele>893.6</ele>
        <time>2021-11-16 13:30:41</time>
      </trkpt>
      <trkpt lat="40.6702" lon="-3.75737">
        <ele>893.8</ele>
        <time>2021-11-16 13:30:42</time>
      </trkpt>
      <trkpt lat="40.67015" lon="-3.75733">
        <ele>893.8</ele>
        <time>2021-11-16 13:30:43</time>
      </trkpt>
      <trkpt lat="40.6701" lon="-3.75729">
        <ele>893.8</ele>
        <time>2021-11-16 13:30:44</time>
      </trkpt>
      <trkpt lat="40.67004" lon="-3.75724">
        <ele>894</ele>
        <time>2021-11-16 13:30:45</time>
      </trkpt>
      <trkpt lat="40.66998" lon="-3.7572">
        <ele>893.8</ele>
        <time>2021-11-16 13:30:46</time>
      </trkpt>
      <trkpt lat="40.66993" lon="-3.75716">
        <ele>894</ele>
        <time>2021-11-16 13:30:47</time>
      </trkpt>
      <trkpt lat="40.66987" lon="-3.75712">
        <ele>894</ele>
        <time>2021-11-16 13:30:48</time>
      </trkpt>
      <trkpt lat="40.66981" lon="-3.75708">
        <ele>894</ele>
        <time>2021-11-16 13:30:49</time>
      </trkpt>
      <trkpt lat="40.66976" lon="-3.75703">
        <ele>894</ele>
        <time>2021-11-16 13:30:50</time>
      </trkpt>
      <trkpt lat="40.6697" lon="-3.75698">
        <ele>893.8</ele>
        <time>2021-11-16 13:30:51</time>
      </trkpt>
      <trkpt lat="40.66964" lon="-3.75694">
        <ele>894</ele>
        <time>2021-11-16 13:30:52</time>
      </trkpt>
      <trkpt lat="40.66958" lon="-3.75689">
        <ele>893.8</ele>
        <time>2021-11-16 13:30:53</time>
      </trkpt>
      <trkpt lat="40.66952" lon="-3.75684">
        <ele>893.8</ele>
        <time>2021-11-16 13:30:54</time>
      </trkpt>
      <trkpt lat="40.66945" lon="-3.7568">
        <ele>893.8</ele>
        <time>2021-11-16 13:30:55</time>
      </trkpt>
      <trkpt lat="40.66939" lon="-3.75674">
        <ele>893.6</ele>
        <time>2021-11-16 13:30:56</time>
      </trkpt>
      <trkpt lat="40.66932" lon="-3.75669">
        <ele>893.4</ele>
        <time>2021-11-16 13:30:57</time>
      </trkpt>
      <trkpt lat="40.66925" lon="-3.75663">
        <ele>893.4</ele>
        <time>2021-11-16 13:30:58</time>
      </trkpt>
      <trkpt lat="40.66918" lon="-3.75658">
        <ele>893.2</ele>
        <time>2021-11-16 13:30:59</time>
      </trkpt>
      <trkpt lat="40.6691" lon="-3.75652">
        <ele>892.8</ele>
        <time>2021-11-16 13:31:00</time>
      </trkpt>
      <trkpt lat="40.66903" lon="-3.75646">
        <ele>892.6</ele>
        <time>2021-11-16 13:31:01</time>
      </trkpt>
      <trkpt lat="40.66895" lon="-3.7564">
        <ele>892.6</ele>
        <time>2021-11-16 13:31:02</time>
      </trkpt>
      <trkpt lat="40.66887" lon="-3.75634">
        <ele>891.8</ele>
        <time>2021-11-16 13:31:03</time>
      </trkpt>
      <trkpt lat="40.66878" lon="-3.75629">
        <ele>891.2</ele>
        <time>2021-11-16 13:31:04</time>
      </trkpt>
      <trkpt lat="40.6687" lon="-3.75624">
        <ele>890.6</ele>
        <time>2021-11-16 13:31:05</time>
      </trkpt>
      <trkpt lat="40.66861" lon="-3.75618">
        <ele>890.4</ele>
        <time>2021-11-16 13:31:06</time>
      </trkpt>
      <trkpt lat="40.66852" lon="-3.75614">
        <ele>889.4</ele>
        <time>2021-11-16 13:31:07</time>
      </trkpt>
      <trkpt lat="40.66842" lon="-3.75609">
        <ele>888.6</ele>
        <time>2021-11-16 13:31:08</time>
      </trkpt>
      <trkpt lat="40.66833" lon="-3.75603">
        <ele>888</ele>
        <time>2021-11-16 13:31:09</time>
      </trkpt>
      <trkpt lat="40.66823" lon="-3.75599">
        <ele>886.6</ele>
        <time>2021-11-16 13:31:10</time>
      </trkpt>
      <trkpt lat="40.66812" lon="-3.75594">
        <ele>885.6</ele>
        <time>2021-11-16 13:31:11</time>
      </trkpt>
      <trkpt lat="40.66802" lon="-3.75589">
        <ele>885</ele>
        <time>2021-11-16 13:31:12</time>
      </trkpt>
      <trkpt lat="40.66791" lon="-3.75583">
        <ele>884.2</ele>
        <time>2021-11-16 13:31:13</time>
      </trkpt>
      <trkpt lat="40.66781" lon="-3.75576">
        <ele>883.6</ele>
        <time>2021-11-16 13:31:14</time>
      </trkpt>
      <trkpt lat="40.6677" lon="-3.75569">
        <ele>883</ele>
        <time>2021-11-16 13:31:15</time>
      </trkpt>
      <trkpt lat="40.66759" lon="-3.75562">
        <ele>881.8</ele>
        <time>2021-11-16 13:31:16</time>
      </trkpt>
      <trkpt lat="40.66748" lon="-3.75555">
        <ele>881.8</ele>
        <time>2021-11-16 13:31:17</time>
      </trkpt>
      <trkpt lat="40.66737" lon="-3.75547">
        <ele>880.6</ele>
        <time>2021-11-16 13:31:18</time>
      </trkpt>
      <trkpt lat="40.66725" lon="-3.75539">
        <ele>880</ele>
        <time>2021-11-16 13:31:19</time>
      </trkpt>
      <trkpt lat="40.66714" lon="-3.7553">
        <ele>879.4</ele>
        <time>2021-11-16 13:31:20</time>
      </trkpt>
      <trkpt lat="40.66702" lon="-3.75523">
        <ele>878.2</ele>
        <time>2021-11-16 13:31:21</time>
      </trkpt>
      <trkpt lat="40.66691" lon="-3.75515">
        <ele>877</ele>
        <time>2021-11-16 13:31:22</time>
      </trkpt>
      <trkpt lat="40.66679" lon="-3.75507">
        <ele>876.4</ele>
        <time>2021-11-16 13:31:23</time>
      </trkpt>
      <trkpt lat="40.66668" lon="-3.755">
        <ele>876.2</ele>
        <time>2021-11-16 13:31:24</time>
      </trkpt>
      <trkpt lat="40.66657" lon="-3.75492">
        <ele>876</ele>
        <time>2021-11-16 13:31:25</time>
      </trkpt>
      <trkpt lat="40.66646" lon="-3.75484">
        <ele>875</ele>
        <time>2021-11-16 13:31:26</time>
      </trkpt>
      <trkpt lat="40.66635" lon="-3.75476">
        <ele>874.4</ele>
        <time>2021-11-16 13:31:27</time>
      </trkpt>
      <trkpt lat="40.66625" lon="-3.75468">
        <ele>873.4</ele>
        <time>2021-11-16 13:31:28</time>
      </trkpt>
      <trkpt lat="40.66614" lon="-3.75461">
        <ele>872.2</ele>
        <time>2021-11-16 13:31:29</time>
      </trkpt>
      <trkpt lat="40.66603" lon="-3.75454">
        <ele>871.4</ele>
        <time>2021-11-16 13:31:30</time>
      </trkpt>
      <trkpt lat="40.66593" lon="-3.75448">
        <ele>871</ele>
        <time>2021-11-16 13:31:31</time>
      </trkpt>
      <trkpt lat="40.66582" lon="-3.75442">
        <ele>870.6</ele>
        <time>2021-11-16 13:31:32</time>
      </trkpt>
      <trkpt lat="40.66572" lon="-3.75437">
        <ele>868.8</ele>
        <time>2021-11-16 13:31:33</time>
      </trkpt>
      <trkpt lat="40.66561" lon="-3.75431">
        <ele>867.4</ele>
        <time>2021-11-16 13:31:34</time>
      </trkpt>
      <trkpt lat="40.66551" lon="-3.75426">
        <ele>866.2</ele>
        <time>2021-11-16 13:31:35</time>
      </trkpt>
      <trkpt lat="40.66541" lon="-3.75422">
        <ele>866.2</ele>
        <time>2021-11-16 13:31:36</time>
      </trkpt>
      <trkpt lat="40.6653" lon="-3.75419">
        <ele>865.6</ele>
        <time>2021-11-16 13:31:37</time>
      </trkpt>
      <trkpt lat="40.6652" lon="-3.75417">
        <ele>865.4</ele>
        <time>2021-11-16 13:31:38</time>
      </trkpt>
      <trkpt lat="40.6651" lon="-3.75416">
        <ele>865</ele>
        <time>2021-11-16 13:31:39</time>
      </trkpt>
      <trkpt lat="40.66499" lon="-3.75417">
        <ele>864.8</ele>
        <time>2021-11-16 13:31:40</time>
      </trkpt>
      <trkpt lat="40.66489" lon="-3.75421">
        <ele>864.6</ele>
        <time>2021-11-16 13:31:41</time>
      </trkpt>
      <trkpt lat="40.6648" lon="-3.75427">
        <ele>864.4</ele>
        <time>2021-11-16 13:31:42</time>
      </trkpt>
      <trkpt lat="40.6647" lon="-3.75433">
        <ele>864.4</ele>
        <time>2021-11-16 13:31:43</time>
      </trkpt>
      <trkpt lat="40.66461" lon="-3.7544">
        <ele>864.2</ele>
        <time>2021-11-16 13:31:44</time>
      </trkpt>
      <trkpt lat="40.6645" lon="-3.75447">
        <ele>864.2</ele>
        <time>2021-11-16 13:31:45</time>
      </trkpt>
      <trkpt lat="40.66439" lon="-3.75451">
        <ele>864.2</ele>
        <time>2021-11-16 13:31:46</time>
      </trkpt>
      <trkpt lat="40.66428" lon="-3.75452">
        <ele>864</ele>
        <time>2021-11-16 13:31:47</time>
      </trkpt>
      <trkpt lat="40.66417" lon="-3.75452">
        <ele>864</ele>
        <time>2021-11-16 13:31:48</time>
      </trkpt>
      <trkpt lat="40.66409" lon="-3.75444">
        <ele>863.2</ele>
        <time>2021-11-16 13:31:49</time>
      </trkpt>
      <trkpt lat="40.66404" lon="-3.75432">
        <ele>862.6</ele>
        <time>2021-11-16 13:31:50</time>
      </trkpt>
      <trkpt lat="40.66401" lon="-3.75419">
        <ele>861.8</ele>
        <time>2021-11-16 13:31:51</time>
      </trkpt>
      <trkpt lat="40.66399" lon="-3.75406">
        <ele>861</ele>
        <time>2021-11-16 13:31:52</time>
      </trkpt>
      <trkpt lat="40.66399" lon="-3.75393">
        <ele>859.6</ele>
        <time>2021-11-16 13:31:53</time>
      </trkpt>
      <trkpt lat="40.66399" lon="-3.75381">
        <ele>858.8</ele>
        <time>2021-11-16 13:31:54</time>
      </trkpt>
      <trkpt lat="40.66399" lon="-3.75369">
        <ele>858.8</ele>
        <time>2021-11-16 13:31:55</time>
      </trkpt>
      <trkpt lat="40.66399" lon="-3.75356">
        <ele>858.4</ele>
        <time>2021-11-16 13:31:56</time>
      </trkpt>
      <trkpt lat="40.66398" lon="-3.75344">
        <ele>857.8</ele>
        <time>2021-11-16 13:31:57</time>
      </trkpt>
      <trkpt lat="40.66397" lon="-3.75333">
        <ele>857.8</ele>
        <time>2021-11-16 13:31:58</time>
      </trkpt>
      <trkpt lat="40.66394" lon="-3.75322">
        <ele>857.6</ele>
        <time>2021-11-16 13:31:59</time>
      </trkpt>
      <trkpt lat="40.6639" lon="-3.75311">
        <ele>857.6</ele>
        <time>2021-11-16 13:32:00</time>
      </trkpt>
      <trkpt lat="40.66386" lon="-3.75302">
        <ele>857.6</ele>
        <time>2021-11-16 13:32:01</time>
      </trkpt>
      <trkpt lat="40.66381" lon="-3.75293">
        <ele>857.6</ele>
        <time>2021-11-16 13:32:02</time>
      </trkpt>
      <trkpt lat="40.66375" lon="-3.75285">
        <ele>857.8</ele>
        <time>2021-11-16 13:32:03</time>
      </trkpt>
      <trkpt lat="40.66369" lon="-3.75278">
        <ele>857.6</ele>
        <time>2021-11-16 13:32:04</time>
      </trkpt>
      <trkpt lat="40.66362" lon="-3.75272">
        <ele>857.8</ele>
        <time>2021-11-16 13:32:05</time>
      </trkpt>
      <trkpt lat="40.66355" lon="-3.75265">
        <ele>857.8</ele>
        <time>2021-11-16 13:32:06</time>
      </trkpt>
      <trkpt lat="40.66349" lon="-3.75259">
        <ele>857.8</ele>
        <time>2021-11-16 13:32:07</time>
      </trkpt>
      <trkpt lat="40.66342" lon="-3.75253">
        <ele>857.8</ele>
        <time>2021-11-16 13:32:08</time>
      </trkpt>
      <trkpt lat="40.66336" lon="-3.75246">
        <ele>857.8</ele>
        <time>2021-11-16 13:32:09</time>
      </trkpt>
      <trkpt lat="40.66329" lon="-3.7524">
        <ele>858</ele>
        <time>2021-11-16 13:32:10</time>
      </trkpt>
      <trkpt lat="40.66322" lon="-3.75234">
        <ele>858</ele>
        <time>2021-11-16 13:32:11</time>
      </trkpt>
      <trkpt lat="40.66316" lon="-3.75228">
        <ele>857.8</ele>
        <time>2021-11-16 13:32:12</time>
      </trkpt>
      <trkpt lat="40.66309" lon="-3.75222">
        <ele>858</ele>
        <time>2021-11-16 13:32:13</time>
      </trkpt>
      <trkpt lat="40.66302" lon="-3.75216">
        <ele>858</ele>
        <time>2021-11-16 13:32:14</time>
      </trkpt>
      <trkpt lat="40.66296" lon="-3.7521">
        <ele>858</ele>
        <time>2021-11-16 13:32:15</time>
      </trkpt>
      <trkpt lat="40.66289" lon="-3.75204">
        <ele>858</ele>
        <time>2021-11-16 13:32:16</time>
      </trkpt>
      <trkpt lat="40.66282" lon="-3.75198">
        <ele>858</ele>
        <time>2021-11-16 13:32:17</time>
      </trkpt>
      <trkpt lat="40.66275" lon="-3.75192">
        <ele>857.8</ele>
        <time>2021-11-16 13:32:18</time>
      </trkpt>
      <trkpt lat="40.66268" lon="-3.75186">
        <ele>857.6</ele>
        <time>2021-11-16 13:32:19</time>
      </trkpt>
      <trkpt lat="40.66261" lon="-3.7518">
        <ele>857.6</ele>
        <time>2021-11-16 13:32:20</time>
      </trkpt>
      <trkpt lat="40.66253" lon="-3.75175">
        <ele>857.4</ele>
        <time>2021-11-16 13:32:21</time>
      </trkpt>
      <trkpt lat="40.66246" lon="-3.7517">
        <ele>857.4</ele>
        <time>2021-11-16 13:32:22</time>
      </trkpt>
      <trkpt lat="40.66238" lon="-3.75164">
        <ele>857.2</ele>
        <time>2021-11-16 13:32:23</time>
      </trkpt>
      <trkpt lat="40.66231" lon="-3.75159">
        <ele>857.2</ele>
        <time>2021-11-16 13:32:24</time>
      </trkpt>
      <trkpt lat="40.66224" lon="-3.75153">
        <ele>857.2</ele>
        <time>2021-11-16 13:32:25</time>
      </trkpt>
      <trkpt lat="40.66217" lon="-3.75148">
        <ele>856.8</ele>
        <time>2021-11-16 13:32:26</time>
      </trkpt>
      <trkpt lat="40.66211" lon="-3.75143">
        <ele>856.6</ele>
        <time>2021-11-16 13:32:27</time>
      </trkpt>
      <trkpt lat="40.66204" lon="-3.75137">
        <ele>856.4</ele>
        <time>2021-11-16 13:32:28</time>
      </trkpt>
      <trkpt lat="40.66197" lon="-3.75132">
        <ele>856.4</ele>
        <time>2021-11-16 13:32:29</time>
      </trkpt>
      <trkpt lat="40.6619" lon="-3.75127">
        <ele>856</ele>
        <time>2021-11-16 13:32:30</time>
      </trkpt>
      <trkpt lat="40.66183" lon="-3.75121">
        <ele>855.8</ele>
        <time>2021-11-16 13:32:31</time>
      </trkpt>
      <trkpt lat="40.66177" lon="-3.75115">
        <ele>855.6</ele>
        <time>2021-11-16 13:32:32</time>
      </trkpt>
      <trkpt lat="40.6617" lon="-3.75109">
        <ele>855.4</ele>
        <time>2021-11-16 13:32:33</time>
      </trkpt>
      <trkpt lat="40.66163" lon="-3.75103">
        <ele>855.2</ele>
        <time>2021-11-16 13:32:34</time>
      </trkpt>
      <trkpt lat="40.66156" lon="-3.75098">
        <ele>854.8</ele>
        <time>2021-11-16 13:32:35</time>
      </trkpt>
      <trkpt lat="40.66149" lon="-3.75092">
        <ele>854.8</ele>
        <time>2021-11-16 13:32:36</time>
      </trkpt>
      <trkpt lat="40.66142" lon="-3.75085">
        <ele>854.8</ele>
        <time>2021-11-16 13:32:37</time>
      </trkpt>
      <trkpt lat="40.66134" lon="-3.75078">
        <ele>854.6</ele>
        <time>2021-11-16 13:32:38</time>
      </trkpt>
      <trkpt lat="40.66127" lon="-3.75071">
        <ele>854.4</ele>
        <time>2021-11-16 13:32:39</time>
      </trkpt>
      <trkpt lat="40.66119" lon="-3.75063">
        <ele>854.4</ele>
        <time>2021-11-16 13:32:40</time>
      </trkpt>
      <trkpt lat="40.66112" lon="-3.75055">
        <ele>854.2</ele>
        <time>2021-11-16 13:32:41</time>
      </trkpt>
      <trkpt lat="40.66105" lon="-3.75045">
        <ele>854</ele>
        <time>2021-11-16 13:32:42</time>
      </trkpt>
      <trkpt lat="40.66098" lon="-3.75035">
        <ele>853.6</ele>
        <time>2021-11-16 13:32:43</time>
      </trkpt>
      <trkpt lat="40.6609" lon="-3.75026">
        <ele>853.8</ele>
        <time>2021-11-16 13:32:44</time>
      </trkpt>
      <trkpt lat="40.66083" lon="-3.75016">
        <ele>853.2</ele>
        <time>2021-11-16 13:32:45</time>
      </trkpt>
      <trkpt lat="40.66076" lon="-3.75007">
        <ele>853</ele>
        <time>2021-11-16 13:32:46</time>
      </trkpt>
      <trkpt lat="40.66068" lon="-3.74998">
        <ele>852.4</ele>
        <time>2021-11-16 13:32:47</time>
      </trkpt>
      <trkpt lat="40.6606" lon="-3.7499">
        <ele>851.4</ele>
        <time>2021-11-16 13:32:48</time>
      </trkpt>
      <trkpt lat="40.66052" lon="-3.74981">
        <ele>850.8</ele>
        <time>2021-11-16 13:32:49</time>
      </trkpt>
      <trkpt lat="40.66045" lon="-3.74973">
        <ele>850</ele>
        <time>2021-11-16 13:32:50</time>
      </trkpt>
      <trkpt lat="40.66038" lon="-3.74965">
        <ele>849.2</ele>
        <time>2021-11-16 13:32:51</time>
      </trkpt>
      <trkpt lat="40.6603" lon="-3.74956">
        <ele>848.2</ele>
        <time>2021-11-16 13:32:52</time>
      </trkpt>
      <trkpt lat="40.66022" lon="-3.74949">
        <ele>847.6</ele>
        <time>2021-11-16 13:32:53</time>
      </trkpt>
      <trkpt lat="40.66013" lon="-3.74944">
        <ele>847</ele>
        <time>2021-11-16 13:32:54</time>
      </trkpt>
      <trkpt lat="40.66004" lon="-3.74941">
        <ele>847</ele>
        <time>2021-11-16 13:32:55</time>
      </trkpt>
      <trkpt lat="40.65994" lon="-3.7494">
        <ele>846.2</ele>
        <time>2021-11-16 13:32:56</time>
      </trkpt>
      <trkpt lat="40.65984" lon="-3.7494">
        <ele>845.8</ele>
        <time>2021-11-16 13:32:57</time>
      </trkpt>
      <trkpt lat="40.65973" lon="-3.7494">
        <ele>845.4</ele>
        <time>2021-11-16 13:32:58</time>
      </trkpt>
      <trkpt lat="40.65962" lon="-3.7494">
        <ele>845.2</ele>
        <time>2021-11-16 13:32:59</time>
      </trkpt>
      <trkpt lat="40.65951" lon="-3.74939">
        <ele>844.8</ele>
        <time>2021-11-16 13:33:00</time>
      </trkpt>
      <trkpt lat="40.6594" lon="-3.74935">
        <ele>844.6</ele>
        <time>2021-11-16 13:33:01</time>
      </trkpt>
      <trkpt lat="40.6593" lon="-3.74929">
        <ele>844.4</ele>
        <time>2021-11-16 13:33:02</time>
      </trkpt>
      <trkpt lat="40.6592" lon="-3.74922">
        <ele>844.2</ele>
        <time>2021-11-16 13:33:03</time>
      </trkpt>
      <trkpt lat="40.6591" lon="-3.74914">
        <ele>843.8</ele>
        <time>2021-11-16 13:33:04</time>
      </trkpt>
      <trkpt lat="40.65901" lon="-3.74907">
        <ele>843</ele>
        <time>2021-11-16 13:33:05</time>
      </trkpt>
      <trkpt lat="40.65891" lon="-3.74903">
        <ele>841.8</ele>
        <time>2021-11-16 13:33:06</time>
      </trkpt>
      <trkpt lat="40.6588" lon="-3.749">
        <ele>840.6</ele>
        <time>2021-11-16 13:33:07</time>
      </trkpt>
      <trkpt lat="40.6587" lon="-3.74897">
        <ele>839.4</ele>
        <time>2021-11-16 13:33:08</time>
      </trkpt>
      <trkpt lat="40.65861" lon="-3.74893">
        <ele>837.8</ele>
        <time>2021-11-16 13:33:09</time>
      </trkpt>
      <trkpt lat="40.65851" lon="-3.74888">
        <ele>836.6</ele>
        <time>2021-11-16 13:33:10</time>
      </trkpt>
      <trkpt lat="40.65842" lon="-3.74882">
        <ele>835.2</ele>
        <time>2021-11-16 13:33:11</time>
      </trkpt>
      <trkpt lat="40.65833" lon="-3.74878">
        <ele>834.6</ele>
        <time>2021-11-16 13:33:12</time>
      </trkpt>
      <trkpt lat="40.65823" lon="-3.74876">
        <ele>834.4</ele>
        <time>2021-11-16 13:33:13</time>
      </trkpt>
      <trkpt lat="40.65813" lon="-3.74877">
        <ele>834.4</ele>
        <time>2021-11-16 13:33:14</time>
      </trkpt>
      <trkpt lat="40.65803" lon="-3.74879">
        <ele>834</ele>
        <time>2021-11-16 13:33:15</time>
      </trkpt>
      <trkpt lat="40.65794" lon="-3.74879">
        <ele>833.6</ele>
        <time>2021-11-16 13:33:16</time>
      </trkpt>
      <trkpt lat="40.65785" lon="-3.74878">
        <ele>833.4</ele>
        <time>2021-11-16 13:33:17</time>
      </trkpt>
      <trkpt lat="40.65777" lon="-3.74875">
        <ele>833.4</ele>
        <time>2021-11-16 13:33:18</time>
      </trkpt>
      <trkpt lat="40.6577" lon="-3.74872">
        <ele>833.4</ele>
        <time>2021-11-16 13:33:19</time>
      </trkpt>
      <trkpt lat="40.65763" lon="-3.74871">
        <ele>833.4</ele>
        <time>2021-11-16 13:33:20</time>
      </trkpt>
      <trkpt lat="40.65757" lon="-3.7487">
        <ele>833.4</ele>
        <time>2021-11-16 13:33:21</time>
      </trkpt>
      <trkpt lat="40.65751" lon="-3.7487">
        <ele>833.6</ele>
        <time>2021-11-16 13:33:22</time>
      </trkpt>
      <trkpt lat="40.65745" lon="-3.74869">
        <ele>833.8</ele>
        <time>2021-11-16 13:33:23</time>
      </trkpt>
      <trkpt lat="40.6574" lon="-3.74868">
        <ele>834.2</ele>
        <time>2021-11-16 13:33:24</time>
      </trkpt>
      <trkpt lat="40.65734" lon="-3.74867">
        <ele>834.6</ele>
        <time>2021-11-16 13:33:25</time>
      </trkpt>
      <trkpt lat="40.65728" lon="-3.74866">
        <ele>834.8</ele>
        <time>2021-11-16 13:33:26</time>
      </trkpt>
      <trkpt lat="40.65722" lon="-3.74864">
        <ele>835.4</ele>
        <time>2021-11-16 13:33:27</time>
      </trkpt>
      <trkpt lat="40.65716" lon="-3.74861">
        <ele>836.2</ele>
        <time>2021-11-16 13:33:28</time>
      </trkpt>
      <trkpt lat="40.65712" lon="-3.74855">
        <ele>836.6</ele>
        <time>2021-11-16 13:33:29</time>
      </trkpt>
      <trkpt lat="40.65709" lon="-3.74847">
        <ele>836.8</ele>
        <time>2021-11-16 13:33:30</time>
      </trkpt>
      <trkpt lat="40.65708" lon="-3.74838">
        <ele>837.2</ele>
        <time>2021-11-16 13:33:31</time>
      </trkpt>
      <trkpt lat="40.65706" lon="-3.74827">
        <ele>837.2</ele>
        <time>2021-11-16 13:33:32</time>
      </trkpt>
      <trkpt lat="40.65705" lon="-3.74816">
        <ele>837.2</ele>
        <time>2021-11-16 13:33:33</time>
      </trkpt>
      <trkpt lat="40.65703" lon="-3.74805">
        <ele>837.2</ele>
        <time>2021-11-16 13:33:34</time>
      </trkpt>
      <trkpt lat="40.65701" lon="-3.74794">
        <ele>837.4</ele>
        <time>2021-11-16 13:33:35</time>
      </trkpt>
      <trkpt lat="40.65697" lon="-3.74784">
        <ele>837.4</ele>
        <time>2021-11-16 13:33:36</time>
      </trkpt>
      <trkpt lat="40.65693" lon="-3.74775">
        <ele>837.4</ele>
        <time>2021-11-16 13:33:37</time>
      </trkpt>
      <trkpt lat="40.65689" lon="-3.74767">
        <ele>837.2</ele>
        <time>2021-11-16 13:33:38</time>
      </trkpt>
      <trkpt lat="40.65684" lon="-3.7476">
        <ele>837.4</ele>
        <time>2021-11-16 13:33:39</time>
      </trkpt>
      <trkpt lat="40.6568" lon="-3.74753">
        <ele>837.4</ele>
        <time>2021-11-16 13:33:40</time>
      </trkpt>
      <trkpt lat="40.65676" lon="-3.74746">
        <ele>837.4</ele>
        <time>2021-11-16 13:33:41</time>
      </trkpt>
      <trkpt lat="40.65672" lon="-3.7474">
        <ele>837.4</ele>
        <time>2021-11-16 13:33:42</time>
      </trkpt>
      <trkpt lat="40.65669" lon="-3.74735">
        <ele>837.4</ele>
        <time>2021-11-16 13:33:43</time>
      </trkpt>
      <trkpt lat="40.65665" lon="-3.74729">
        <ele>837.2</ele>
        <time>2021-11-16 13:33:44</time>
      </trkpt>
      <trkpt lat="40.65662" lon="-3.74724">
        <ele>837.4</ele>
        <time>2021-11-16 13:33:45</time>
      </trkpt>
      <trkpt lat="40.65659" lon="-3.74719">
        <ele>837.4</ele>
        <time>2021-11-16 13:33:46</time>
      </trkpt>
      <trkpt lat="40.65656" lon="-3.74714">
        <ele>837.4</ele>
        <time>2021-11-16 13:33:47</time>
      </trkpt>
      <trkpt lat="40.65652" lon="-3.74709">
        <ele>837.4</ele>
        <time>2021-11-16 13:33:48</time>
      </trkpt>
      <trkpt lat="40.65649" lon="-3.74703">
        <ele>837.4</ele>
        <time>2021-11-16 13:33:49</time>
      </trkpt>
      <trkpt lat="40.65646" lon="-3.74698">
        <ele>837.6</ele>
        <time>2021-11-16 13:33:50</time>
      </trkpt>
      <trkpt lat="40.65642" lon="-3.74692">
        <ele>837.8</ele>
        <time>2021-11-16 13:33:51</time>
      </trkpt>
      <trkpt lat="40.65639" lon="-3.74686">
        <ele>837.8</ele>
        <time>2021-11-16 13:33:52</time>
      </trkpt>
      <trkpt lat="40.65636" lon="-3.74681">
        <ele>838.2</ele>
        <time>2021-11-16 13:33:53</time>
      </trkpt>
      <trkpt lat="40.65632" lon="-3.74674">
        <ele>838.6</ele>
        <time>2021-11-16 13:33:54</time>
      </trkpt>
      <trkpt lat="40.65628" lon="-3.74668">
        <ele>838.6</ele>
        <time>2021-11-16 13:33:55</time>
      </trkpt>
      <trkpt lat="40.65624" lon="-3.7466">
        <ele>838.6</ele>
        <time>2021-11-16 13:33:56</time>
      </trkpt>
      <trkpt lat="40.65619" lon="-3.74653">
        <ele>838.6</ele>
        <time>2021-11-16 13:33:57</time>
      </trkpt>
      <trkpt lat="40.65615" lon="-3.74645">
        <ele>838.6</ele>
        <time>2021-11-16 13:33:58</time>
      </trkpt>
      <trkpt lat="40.6561" lon="-3.74636">
        <ele>838.8</ele>
        <time>2021-11-16 13:33:59</time>
      </trkpt>
      <trkpt lat="40.65605" lon="-3.74627">
        <ele>838.8</ele>
        <time>2021-11-16 13:34:00</time>
      </trkpt>
      <trkpt lat="40.65599" lon="-3.74618">
        <ele>838.8</ele>
        <time>2021-11-16 13:34:01</time>
      </trkpt>
      <trkpt lat="40.65593" lon="-3.74609">
        <ele>838.8</ele>
        <time>2021-11-16 13:34:02</time>
      </trkpt>
      <trkpt lat="40.65587" lon="-3.74599">
        <ele>838.2</ele>
        <time>2021-11-16 13:34:03</time>
      </trkpt>
      <trkpt lat="40.65582" lon="-3.74589">
        <ele>837.6</ele>
        <time>2021-11-16 13:34:04</time>
      </trkpt>
      <trkpt lat="40.65576" lon="-3.74579">
        <ele>837</ele>
        <time>2021-11-16 13:34:05</time>
      </trkpt>
      <trkpt lat="40.6557" lon="-3.74569">
        <ele>836.4</ele>
        <time>2021-11-16 13:34:06</time>
      </trkpt>
      <trkpt lat="40.65564" lon="-3.74559">
        <ele>835.8</ele>
        <time>2021-11-16 13:34:07</time>
      </trkpt>
      <trkpt lat="40.65557" lon="-3.74548">
        <ele>835</ele>
        <time>2021-11-16 13:34:08</time>
      </trkpt>
      <trkpt lat="40.65552" lon="-3.74537">
        <ele>834.6</ele>
        <time>2021-11-16 13:34:09</time>
      </trkpt>
      <trkpt lat="40.65546" lon="-3.74526">
        <ele>834</ele>
        <time>2021-11-16 13:34:10</time>
      </trkpt>
      <trkpt lat="40.6554" lon="-3.74515">
        <ele>832.8</ele>
        <time>2021-11-16 13:34:11</time>
      </trkpt>
      <trkpt lat="40.65533" lon="-3.74504">
        <ele>832.8</ele>
        <time>2021-11-16 13:34:12</time>
      </trkpt>
      <trkpt lat="40.65527" lon="-3.74494">
        <ele>832.2</ele>
        <time>2021-11-16 13:34:13</time>
      </trkpt>
      <trkpt lat="40.65521" lon="-3.74483">
        <ele>831.4</ele>
        <time>2021-11-16 13:34:14</time>
      </trkpt>
      <trkpt lat="40.65515" lon="-3.74472">
        <ele>830.8</ele>
        <time>2021-11-16 13:34:15</time>
      </trkpt>
      <trkpt lat="40.65509" lon="-3.74461">
        <ele>829.8</ele>
        <time>2021-11-16 13:34:16</time>
      </trkpt>
      <trkpt lat="40.65504" lon="-3.74451">
        <ele>828.4</ele>
        <time>2021-11-16 13:34:17</time>
      </trkpt>
      <trkpt lat="40.65498" lon="-3.7444">
        <ele>827.6</ele>
        <time>2021-11-16 13:34:18</time>
      </trkpt>
      <trkpt lat="40.65492" lon="-3.74429">
        <ele>827</ele>
        <time>2021-11-16 13:34:19</time>
      </trkpt>
      <trkpt lat="40.65486" lon="-3.74419">
        <ele>826.6</ele>
        <time>2021-11-16 13:34:20</time>
      </trkpt>
      <trkpt lat="40.6548" lon="-3.74409">
        <ele>826.4</ele>
        <time>2021-11-16 13:34:21</time>
      </trkpt>
      <trkpt lat="40.65475" lon="-3.74398">
        <ele>826.4</ele>
        <time>2021-11-16 13:34:22</time>
      </trkpt>
      <trkpt lat="40.65469" lon="-3.74388">
        <ele>826.2</ele>
        <time>2021-11-16 13:34:23</time>
      </trkpt>
      <trkpt lat="40.65463" lon="-3.74378">
        <ele>825.8</ele>
        <time>2021-11-16 13:34:24</time>
      </trkpt>
      <trkpt lat="40.65458" lon="-3.74368">
        <ele>825.6</ele>
        <time>2021-11-16 13:34:25</time>
      </trkpt>
      <trkpt lat="40.65452" lon="-3.74358">
        <ele>825.6</ele>
        <time>2021-11-16 13:34:26</time>
      </trkpt>
      <trkpt lat="40.65446" lon="-3.74348">
        <ele>825.4</ele>
        <time>2021-11-16 13:34:27</time>
      </trkpt>
      <trkpt lat="40.65441" lon="-3.74339">
        <ele>825.6</ele>
        <time>2021-11-16 13:34:28</time>
      </trkpt>
      <trkpt lat="40.65436" lon="-3.74329">
        <ele>825.4</ele>
        <time>2021-11-16 13:34:29</time>
      </trkpt>
      <trkpt lat="40.65431" lon="-3.7432">
        <ele>825.4</ele>
        <time>2021-11-16 13:34:30</time>
      </trkpt>
      <trkpt lat="40.65426" lon="-3.74311">
        <ele>825.4</ele>
        <time>2021-11-16 13:34:31</time>
      </trkpt>
      <trkpt lat="40.65421" lon="-3.74302">
        <ele>825.4</ele>
        <time>2021-11-16 13:34:32</time>
      </trkpt>
      <trkpt lat="40.65416" lon="-3.74294">
        <ele>825.4</ele>
        <time>2021-11-16 13:34:33</time>
      </trkpt>
      <trkpt lat="40.65411" lon="-3.74285">
        <ele>825.4</ele>
        <time>2021-11-16 13:34:34</time>
      </trkpt>
      <trkpt lat="40.65407" lon="-3.74277">
        <ele>825.4</ele>
        <time>2021-11-16 13:34:35</time>
      </trkpt>
      <trkpt lat="40.65403" lon="-3.74269">
        <ele>825.6</ele>
        <time>2021-11-16 13:34:36</time>
      </trkpt>
      <trkpt lat="40.65398" lon="-3.74261">
        <ele>825.8</ele>
        <time>2021-11-16 13:34:37</time>
      </trkpt>
      <trkpt lat="40.65395" lon="-3.74253">
        <ele>825.8</ele>
        <time>2021-11-16 13:34:38</time>
      </trkpt>
      <trkpt lat="40.65391" lon="-3.74245">
        <ele>826.4</ele>
        <time>2021-11-16 13:34:39</time>
      </trkpt>
      <trkpt lat="40.65387" lon="-3.74238">
        <ele>827</ele>
        <time>2021-11-16 13:34:40</time>
      </trkpt>
      <trkpt lat="40.65383" lon="-3.74231">
        <ele>827.4</ele>
        <time>2021-11-16 13:34:41</time>
      </trkpt>
      <trkpt lat="40.65379" lon="-3.74223">
        <ele>827.6</ele>
        <time>2021-11-16 13:34:42</time>
      </trkpt>
      <trkpt lat="40.65376" lon="-3.74216">
        <ele>827.8</ele>
        <time>2021-11-16 13:34:43</time>
      </trkpt>
      <trkpt lat="40.65373" lon="-3.74208">
        <ele>827.8</ele>
        <time>2021-11-16 13:34:44</time>
      </trkpt>
      <trkpt lat="40.65369" lon="-3.74201">
        <ele>828</ele>
        <time>2021-11-16 13:34:45</time>
      </trkpt>
      <trkpt lat="40.65366" lon="-3.74193">
        <ele>828</ele>
        <time>2021-11-16 13:34:46</time>
      </trkpt>
      <trkpt lat="40.65363" lon="-3.74185">
        <ele>828</ele>
        <time>2021-11-16 13:34:47</time>
      </trkpt>
      <trkpt lat="40.6536" lon="-3.74178">
        <ele>828</ele>
        <time>2021-11-16 13:34:48</time>
      </trkpt>
      <trkpt lat="40.65356" lon="-3.7417">
        <ele>828</ele>
        <time>2021-11-16 13:34:49</time>
      </trkpt>
      <trkpt lat="40.65353" lon="-3.74163">
        <ele>828</ele>
        <time>2021-11-16 13:34:50</time>
      </trkpt>
      <trkpt lat="40.6535" lon="-3.74155">
        <ele>828</ele>
        <time>2021-11-16 13:34:51</time>
      </trkpt>
      <trkpt lat="40.65347" lon="-3.74147">
        <ele>828</ele>
        <time>2021-11-16 13:34:52</time>
      </trkpt>
      <trkpt lat="40.65344" lon="-3.74139">
        <ele>828</ele>
        <time>2021-11-16 13:34:53</time>
      </trkpt>
      <trkpt lat="40.6534" lon="-3.7413">
        <ele>827.8</ele>
        <time>2021-11-16 13:34:54</time>
      </trkpt>
      <trkpt lat="40.65337" lon="-3.74122">
        <ele>827.8</ele>
        <time>2021-11-16 13:34:55</time>
      </trkpt>
      <trkpt lat="40.65334" lon="-3.74113">
        <ele>827.8</ele>
        <time>2021-11-16 13:34:56</time>
      </trkpt>
      <trkpt lat="40.65331" lon="-3.74105">
        <ele>827.6</ele>
        <time>2021-11-16 13:34:57</time>
      </trkpt>
      <trkpt lat="40.65328" lon="-3.74096">
        <ele>827.8</ele>
        <time>2021-11-16 13:34:58</time>
      </trkpt>
      <trkpt lat="40.65324" lon="-3.74086">
        <ele>827.6</ele>
        <time>2021-11-16 13:34:59</time>
      </trkpt>
      <trkpt lat="40.65321" lon="-3.74077">
        <ele>827.6</ele>
        <time>2021-11-16 13:35:00</time>
      </trkpt>
      <trkpt lat="40.65317" lon="-3.74068">
        <ele>827.2</ele>
        <time>2021-11-16 13:35:01</time>
      </trkpt>
      <trkpt lat="40.65313" lon="-3.74058">
        <ele>827</ele>
        <time>2021-11-16 13:35:02</time>
      </trkpt>
      <trkpt lat="40.6531" lon="-3.74048">
        <ele>827.2</ele>
        <time>2021-11-16 13:35:03</time>
      </trkpt>
      <trkpt lat="40.65307" lon="-3.74038">
        <ele>827</ele>
        <time>2021-11-16 13:35:04</time>
      </trkpt>
      <trkpt lat="40.65303" lon="-3.74028">
        <ele>826.8</ele>
        <time>2021-11-16 13:35:05</time>
      </trkpt>
      <trkpt lat="40.65299" lon="-3.74019">
        <ele>826.6</ele>
        <time>2021-11-16 13:35:06</time>
      </trkpt>
      <trkpt lat="40.65295" lon="-3.74009">
        <ele>826.6</ele>
        <time>2021-11-16 13:35:07</time>
      </trkpt>
      <trkpt lat="40.65291" lon="-3.73999">
        <ele>826.4</ele>
        <time>2021-11-16 13:35:08</time>
      </trkpt>
      <trkpt lat="40.65287" lon="-3.73989">
        <ele>826.2</ele>
        <time>2021-11-16 13:35:09</time>
      </trkpt>
      <trkpt lat="40.65284" lon="-3.73979">
        <ele>826.2</ele>
        <time>2021-11-16 13:35:10</time>
      </trkpt>
      <trkpt lat="40.6528" lon="-3.73969">
        <ele>826</ele>
        <time>2021-11-16 13:35:11</time>
      </trkpt>
      <trkpt lat="40.65276" lon="-3.73958">
        <ele>825.6</ele>
        <time>2021-11-16 13:35:12</time>
      </trkpt>
      <trkpt lat="40.65272" lon="-3.73948">
        <ele>825.4</ele>
        <time>2021-11-16 13:35:13</time>
      </trkpt>
      <trkpt lat="40.65268" lon="-3.73938">
        <ele>825.4</ele>
        <time>2021-11-16 13:35:14</time>
      </trkpt>
      <trkpt lat="40.65264" lon="-3.73927">
        <ele>825.2</ele>
        <time>2021-11-16 13:35:15</time>
      </trkpt>
      <trkpt lat="40.6526" lon="-3.73916">
        <ele>825</ele>
        <time>2021-11-16 13:35:16</time>
      </trkpt>
      <trkpt lat="40.65256" lon="-3.73906">
        <ele>825</ele>
        <time>2021-11-16 13:35:17</time>
      </trkpt>
      <trkpt lat="40.65252" lon="-3.73895">
        <ele>824.2</ele>
        <time>2021-11-16 13:35:18</time>
      </trkpt>
      <trkpt lat="40.65248" lon="-3.73884">
        <ele>823.6</ele>
        <time>2021-11-16 13:35:19</time>
      </trkpt>
      <trkpt lat="40.65244" lon="-3.73872">
        <ele>823.4</ele>
        <time>2021-11-16 13:35:20</time>
      </trkpt>
      <trkpt lat="40.65239" lon="-3.73861">
        <ele>823</ele>
        <time>2021-11-16 13:35:21</time>
      </trkpt>
      <trkpt lat="40.65235" lon="-3.73851">
        <ele>822.8</ele>
        <time>2021-11-16 13:35:22</time>
      </trkpt>
      <trkpt lat="40.6523" lon="-3.7384">
        <ele>822.6</ele>
        <time>2021-11-16 13:35:23</time>
      </trkpt>
      <trkpt lat="40.65225" lon="-3.7383">
        <ele>821.8</ele>
        <time>2021-11-16 13:35:24</time>
      </trkpt>
      <trkpt lat="40.6522" lon="-3.7382">
        <ele>821.4</ele>
        <time>2021-11-16 13:35:25</time>
      </trkpt>
      <trkpt lat="40.65215" lon="-3.7381">
        <ele>821.2</ele>
        <time>2021-11-16 13:35:26</time>
      </trkpt>
      <trkpt lat="40.6521" lon="-3.73801">
        <ele>820.8</ele>
        <time>2021-11-16 13:35:27</time>
      </trkpt>
      <trkpt lat="40.65204" lon="-3.73793">
        <ele>820.8</ele>
        <time>2021-11-16 13:35:28</time>
      </trkpt>
      <trkpt lat="40.65199" lon="-3.73785">
        <ele>820</ele>
        <time>2021-11-16 13:35:29</time>
      </trkpt>
      <trkpt lat="40.65194" lon="-3.73777">
        <ele>819.6</ele>
        <time>2021-11-16 13:35:30</time>
      </trkpt>
      <trkpt lat="40.65189" lon="-3.73769">
        <ele>819.2</ele>
        <time>2021-11-16 13:35:31</time>
      </trkpt>
      <trkpt lat="40.65184" lon="-3.73762">
        <ele>819.2</ele>
        <time>2021-11-16 13:35:32</time>
      </trkpt>
      <trkpt lat="40.65179" lon="-3.73756">
        <ele>819.4</ele>
        <time>2021-11-16 13:35:33</time>
      </trkpt>
      <trkpt lat="40.65173" lon="-3.73749">
        <ele>819.2</ele>
        <time>2021-11-16 13:35:34</time>
      </trkpt>
      <trkpt lat="40.65168" lon="-3.73743">
        <ele>819.2</ele>
        <time>2021-11-16 13:35:35</time>
      </trkpt>
      <trkpt lat="40.65163" lon="-3.73738">
        <ele>819.2</ele>
        <time>2021-11-16 13:35:36</time>
      </trkpt>
      <trkpt lat="40.65158" lon="-3.73732">
        <ele>819.2</ele>
        <time>2021-11-16 13:35:37</time>
      </trkpt>
      <trkpt lat="40.65153" lon="-3.73727">
        <ele>819</ele>
        <time>2021-11-16 13:35:38</time>
      </trkpt>
      <trkpt lat="40.65148" lon="-3.73722">
        <ele>819.4</ele>
        <time>2021-11-16 13:35:39</time>
      </trkpt>
      <trkpt lat="40.65143" lon="-3.73717">
        <ele>819.8</ele>
        <time>2021-11-16 13:35:40</time>
      </trkpt>
      <trkpt lat="40.65138" lon="-3.73713">
        <ele>820</ele>
        <time>2021-11-16 13:35:41</time>
      </trkpt>
      <trkpt lat="40.65132" lon="-3.73708">
        <ele>820.2</ele>
        <time>2021-11-16 13:35:42</time>
      </trkpt>
      <trkpt lat="40.65127" lon="-3.73704">
        <ele>820.2</ele>
        <time>2021-11-16 13:35:43</time>
      </trkpt>
      <trkpt lat="40.65121" lon="-3.73699">
        <ele>820.2</ele>
        <time>2021-11-16 13:35:44</time>
      </trkpt>
      <trkpt lat="40.65115" lon="-3.73695">
        <ele>820.8</ele>
        <time>2021-11-16 13:35:45</time>
      </trkpt>
      <trkpt lat="40.6511" lon="-3.73691">
        <ele>821</ele>
        <time>2021-11-16 13:35:46</time>
      </trkpt>
      <trkpt lat="40.65105" lon="-3.73686">
        <ele>821</ele>
        <time>2021-11-16 13:35:47</time>
      </trkpt>
      <trkpt lat="40.65099" lon="-3.73682">
        <ele>821.2</ele>
        <time>2021-11-16 13:35:48</time>
      </trkpt>
      <trkpt lat="40.65094" lon="-3.73678">
        <ele>821.4</ele>
        <time>2021-11-16 13:35:49</time>
      </trkpt>
      <trkpt lat="40.65088" lon="-3.73674">
        <ele>821.8</ele>
        <time>2021-11-16 13:35:50</time>
      </trkpt>
      <trkpt lat="40.65083" lon="-3.7367">
        <ele>822</ele>
        <time>2021-11-16 13:35:51</time>
      </trkpt>
      <trkpt lat="40.65077" lon="-3.73666">
        <ele>822</ele>
        <time>2021-11-16 13:35:52</time>
      </trkpt>
      <trkpt lat="40.65072" lon="-3.73661">
        <ele>822.4</ele>
        <time>2021-11-16 13:35:53</time>
      </trkpt>
      <trkpt lat="40.65066" lon="-3.73657">
        <ele>822.4</ele>
        <time>2021-11-16 13:35:54</time>
      </trkpt>
      <trkpt lat="40.6506" lon="-3.73652">
        <ele>822.4</ele>
        <time>2021-11-16 13:35:55</time>
      </trkpt>
      <trkpt lat="40.65054" lon="-3.73647">
        <ele>822.6</ele>
        <time>2021-11-16 13:35:56</time>
      </trkpt>
      <trkpt lat="40.65047" lon="-3.73642">
        <ele>822.4</ele>
        <time>2021-11-16 13:35:57</time>
      </trkpt>
      <trkpt lat="40.65041" lon="-3.73637">
        <ele>822.6</ele>
        <time>2021-11-16 13:35:58</time>
      </trkpt>
      <trkpt lat="40.65033" lon="-3.73632">
        <ele>822.4</ele>
        <time>2021-11-16 13:35:59</time>
      </trkpt>
      <trkpt lat="40.65026" lon="-3.73626">
        <ele>822.6</ele>
        <time>2021-11-16 13:36:00</time>
      </trkpt>
      <trkpt lat="40.65019" lon="-3.7362">
        <ele>822.4</ele>
        <time>2021-11-16 13:36:01</time>
      </trkpt>
      <trkpt lat="40.65011" lon="-3.73614">
        <ele>822.2</ele>
        <time>2021-11-16 13:36:02</time>
      </trkpt>
      <trkpt lat="40.65004" lon="-3.73608">
        <ele>821.8</ele>
        <time>2021-11-16 13:36:03</time>
      </trkpt>
      <trkpt lat="40.64996" lon="-3.73603">
        <ele>821.8</ele>
        <time>2021-11-16 13:36:04</time>
      </trkpt>
      <trkpt lat="40.64989" lon="-3.73597">
        <ele>821.6</ele>
        <time>2021-11-16 13:36:05</time>
      </trkpt>
      <trkpt lat="40.64982" lon="-3.73591">
        <ele>821.4</ele>
        <time>2021-11-16 13:36:06</time>
      </trkpt>
      <trkpt lat="40.64975" lon="-3.73586">
        <ele>821.4</ele>
        <time>2021-11-16 13:36:07</time>
      </trkpt>
      <trkpt lat="40.64968" lon="-3.73581">
        <ele>821.4</ele>
        <time>2021-11-16 13:36:08</time>
      </trkpt>
      <trkpt lat="40.64961" lon="-3.73576">
        <ele>820.8</ele>
        <time>2021-11-16 13:36:09</time>
      </trkpt>
      <trkpt lat="40.64954" lon="-3.73571">
        <ele>820.4</ele>
        <time>2021-11-16 13:36:10</time>
      </trkpt>
      <trkpt lat="40.64946" lon="-3.73566">
        <ele>820</ele>
        <time>2021-11-16 13:36:11</time>
      </trkpt>
      <trkpt lat="40.64939" lon="-3.73561">
        <ele>819.8</ele>
        <time>2021-11-16 13:36:12</time>
      </trkpt>
      <trkpt lat="40.64931" lon="-3.73557">
        <ele>819.6</ele>
        <time>2021-11-16 13:36:13</time>
      </trkpt>
      <trkpt lat="40.64923" lon="-3.73553">
        <ele>819.2</ele>
        <time>2021-11-16 13:36:14</time>
      </trkpt>
      <trkpt lat="40.64914" lon="-3.73548">
        <ele>819</ele>
        <time>2021-11-16 13:36:15</time>
      </trkpt>
      <trkpt lat="40.64905" lon="-3.73545">
        <ele>819</ele>
        <time>2021-11-16 13:36:16</time>
      </trkpt>
      <trkpt lat="40.64895" lon="-3.73541">
        <ele>818.4</ele>
        <time>2021-11-16 13:36:17</time>
      </trkpt>
      <trkpt lat="40.64885" lon="-3.73538">
        <ele>818.2</ele>
        <time>2021-11-16 13:36:18</time>
      </trkpt>
      <trkpt lat="40.64875" lon="-3.73535">
        <ele>818.2</ele>
        <time>2021-11-16 13:36:19</time>
      </trkpt>
      <trkpt lat="40.64864" lon="-3.73532">
        <ele>818</ele>
        <time>2021-11-16 13:36:20</time>
      </trkpt>
      <trkpt lat="40.64854" lon="-3.73529">
        <ele>817.6</ele>
        <time>2021-11-16 13:36:21</time>
      </trkpt>
      <trkpt lat="40.64843" lon="-3.73526">
        <ele>817.2</ele>
        <time>2021-11-16 13:36:22</time>
      </trkpt>
      <trkpt lat="40.64833" lon="-3.73523">
        <ele>816.4</ele>
        <time>2021-11-16 13:36:23</time>
      </trkpt>
      <trkpt lat="40.64822" lon="-3.7352">
        <ele>815.4</ele>
        <time>2021-11-16 13:36:24</time>
      </trkpt>
      <trkpt lat="40.64812" lon="-3.73517">
        <ele>814.4</ele>
        <time>2021-11-16 13:36:25</time>
      </trkpt>
      <trkpt lat="40.64802" lon="-3.73514">
        <ele>814.4</ele>
        <time>2021-11-16 13:36:26</time>
      </trkpt>
      <trkpt lat="40.64792" lon="-3.73511">
        <ele>813.6</ele>
        <time>2021-11-16 13:36:27</time>
      </trkpt>
      <trkpt lat="40.64781" lon="-3.73507">
        <ele>813</ele>
        <time>2021-11-16 13:36:28</time>
      </trkpt>
      <trkpt lat="40.64771" lon="-3.73504">
        <ele>812.2</ele>
        <time>2021-11-16 13:36:29</time>
      </trkpt>
      <trkpt lat="40.64761" lon="-3.73502">
        <ele>811.6</ele>
        <time>2021-11-16 13:36:30</time>
      </trkpt>
      <trkpt lat="40.64751" lon="-3.73499">
        <ele>811</ele>
        <time>2021-11-16 13:36:31</time>
      </trkpt>
      <trkpt lat="40.64741" lon="-3.73495">
        <ele>810.6</ele>
        <time>2021-11-16 13:36:32</time>
      </trkpt>
      <trkpt lat="40.64731" lon="-3.73492">
        <ele>809.8</ele>
        <time>2021-11-16 13:36:33</time>
      </trkpt>
      <trkpt lat="40.6472" lon="-3.73489">
        <ele>809.4</ele>
        <time>2021-11-16 13:36:34</time>
      </trkpt>
      <trkpt lat="40.6471" lon="-3.73486">
        <ele>809.4</ele>
        <time>2021-11-16 13:36:35</time>
      </trkpt>
      <trkpt lat="40.647" lon="-3.73483">
        <ele>809</ele>
        <time>2021-11-16 13:36:36</time>
      </trkpt>
      <trkpt lat="40.64689" lon="-3.7348">
        <ele>808.8</ele>
        <time>2021-11-16 13:36:37</time>
      </trkpt>
      <trkpt lat="40.64679" lon="-3.73477">
        <ele>808.2</ele>
        <time>2021-11-16 13:36:38</time>
      </trkpt>
      <trkpt lat="40.64669" lon="-3.73473">
        <ele>807.8</ele>
        <time>2021-11-16 13:36:39</time>
      </trkpt>
      <trkpt lat="40.64659" lon="-3.7347">
        <ele>807.4</ele>
        <time>2021-11-16 13:36:40</time>
      </trkpt>
      <trkpt lat="40.64649" lon="-3.73465">
        <ele>807.2</ele>
        <time>2021-11-16 13:36:41</time>
      </trkpt>
      <trkpt lat="40.64639" lon="-3.73459">
        <ele>806.8</ele>
        <time>2021-11-16 13:36:42</time>
      </trkpt>
      <trkpt lat="40.64631" lon="-3.73451">
        <ele>805.8</ele>
        <time>2021-11-16 13:36:43</time>
      </trkpt>
      <trkpt lat="40.64623" lon="-3.73442">
        <ele>804.6</ele>
        <time>2021-11-16 13:36:44</time>
      </trkpt>
      <trkpt lat="40.64616" lon="-3.73433">
        <ele>804.6</ele>
        <time>2021-11-16 13:36:45</time>
      </trkpt>
      <trkpt lat="40.64609" lon="-3.73423">
        <ele>804</ele>
        <time>2021-11-16 13:36:46</time>
      </trkpt>
      <trkpt lat="40.64604" lon="-3.73412">
        <ele>803.6</ele>
        <time>2021-11-16 13:36:47</time>
      </trkpt>
      <trkpt lat="40.64598" lon="-3.73401">
        <ele>803</ele>
        <time>2021-11-16 13:36:48</time>
      </trkpt>
      <trkpt lat="40.64593" lon="-3.73389">
        <ele>802.6</ele>
        <time>2021-11-16 13:36:49</time>
      </trkpt>
      <trkpt lat="40.64588" lon="-3.73378">
        <ele>802.4</ele>
        <time>2021-11-16 13:36:50</time>
      </trkpt>
      <trkpt lat="40.64583" lon="-3.73366">
        <ele>801.6</ele>
        <time>2021-11-16 13:36:51</time>
      </trkpt>
      <trkpt lat="40.64579" lon="-3.73355">
        <ele>800.8</ele>
        <time>2021-11-16 13:36:52</time>
      </trkpt>
      <trkpt lat="40.64574" lon="-3.73343">
        <ele>800</ele>
        <time>2021-11-16 13:36:53</time>
      </trkpt>
      <trkpt lat="40.64569" lon="-3.73332">
        <ele>799.8</ele>
        <time>2021-11-16 13:36:54</time>
      </trkpt>
      <trkpt lat="40.64564" lon="-3.7332">
        <ele>799.6</ele>
        <time>2021-11-16 13:36:55</time>
      </trkpt>
      <trkpt lat="40.64558" lon="-3.7331">
        <ele>799.2</ele>
        <time>2021-11-16 13:36:56</time>
      </trkpt>
      <trkpt lat="40.64552" lon="-3.73299">
        <ele>799</ele>
        <time>2021-11-16 13:36:57</time>
      </trkpt>
      <trkpt lat="40.64546" lon="-3.73289">
        <ele>798.4</ele>
        <time>2021-11-16 13:36:58</time>
      </trkpt>
      <trkpt lat="40.64539" lon="-3.7328">
        <ele>798.2</ele>
        <time>2021-11-16 13:36:59</time>
      </trkpt>
      <trkpt lat="40.64532" lon="-3.73271">
        <ele>798</ele>
        <time>2021-11-16 13:37:00</time>
      </trkpt>
      <trkpt lat="40.64525" lon="-3.73262">
        <ele>798</ele>
        <time>2021-11-16 13:37:01</time>
      </trkpt>
      <trkpt lat="40.64519" lon="-3.73253">
        <ele>797.8</ele>
        <time>2021-11-16 13:37:02</time>
      </trkpt>
      <trkpt lat="40.64512" lon="-3.73245">
        <ele>797.6</ele>
        <time>2021-11-16 13:37:03</time>
      </trkpt>
      <trkpt lat="40.64506" lon="-3.73237">
        <ele>797.6</ele>
        <time>2021-11-16 13:37:04</time>
      </trkpt>
      <trkpt lat="40.645" lon="-3.73229">
        <ele>797.4</ele>
        <time>2021-11-16 13:37:05</time>
      </trkpt>
      <trkpt lat="40.64494" lon="-3.73222">
        <ele>797.6</ele>
        <time>2021-11-16 13:37:06</time>
      </trkpt>
      <trkpt lat="40.64487" lon="-3.73214">
        <ele>797.4</ele>
        <time>2021-11-16 13:37:07</time>
      </trkpt>
      <trkpt lat="40.64481" lon="-3.73207">
        <ele>797.4</ele>
        <time>2021-11-16 13:37:08</time>
      </trkpt>
      <trkpt lat="40.64475" lon="-3.732">
        <ele>797.2</ele>
        <time>2021-11-16 13:37:09</time>
      </trkpt>
      <trkpt lat="40.64469" lon="-3.73192">
        <ele>797.4</ele>
        <time>2021-11-16 13:37:10</time>
      </trkpt>
      <trkpt lat="40.64463" lon="-3.73185">
        <ele>797.2</ele>
        <time>2021-11-16 13:37:11</time>
      </trkpt>
      <trkpt lat="40.64457" lon="-3.73177">
        <ele>797.4</ele>
        <time>2021-11-16 13:37:12</time>
      </trkpt>
      <trkpt lat="40.64451" lon="-3.7317">
        <ele>797.2</ele>
        <time>2021-11-16 13:37:13</time>
      </trkpt>
      <trkpt lat="40.64444" lon="-3.73163">
        <ele>797.2</ele>
        <time>2021-11-16 13:37:14</time>
      </trkpt>
      <trkpt lat="40.64438" lon="-3.73155">
        <ele>797.2</ele>
        <time>2021-11-16 13:37:15</time>
      </trkpt>
      <trkpt lat="40.64432" lon="-3.73149">
        <ele>797.2</ele>
        <time>2021-11-16 13:37:16</time>
      </trkpt>
      <trkpt lat="40.64425" lon="-3.73142">
        <ele>797.2</ele>
        <time>2021-11-16 13:37:17</time>
      </trkpt>
      <trkpt lat="40.64418" lon="-3.73136">
        <ele>797.4</ele>
        <time>2021-11-16 13:37:18</time>
      </trkpt>
      <trkpt lat="40.64411" lon="-3.7313">
        <ele>797.6</ele>
        <time>2021-11-16 13:37:19</time>
      </trkpt>
      <trkpt lat="40.64404" lon="-3.73125">
        <ele>797.6</ele>
        <time>2021-11-16 13:37:20</time>
      </trkpt>
      <trkpt lat="40.64397" lon="-3.7312">
        <ele>797.6</ele>
        <time>2021-11-16 13:37:21</time>
      </trkpt>
      <trkpt lat="40.6439" lon="-3.73116">
        <ele>797.6</ele>
        <time>2021-11-16 13:37:22</time>
      </trkpt>
      <trkpt lat="40.64382" lon="-3.73111">
        <ele>797.6</ele>
        <time>2021-11-16 13:37:23</time>
      </trkpt>
      <trkpt lat="40.64375" lon="-3.73107">
        <ele>797.6</ele>
        <time>2021-11-16 13:37:24</time>
      </trkpt>
      <trkpt lat="40.64367" lon="-3.73104">
        <ele>797.6</ele>
        <time>2021-11-16 13:37:25</time>
      </trkpt>
      <trkpt lat="40.64359" lon="-3.73101">
        <ele>797.6</ele>
        <time>2021-11-16 13:37:26</time>
      </trkpt>
      <trkpt lat="40.64352" lon="-3.73098">
        <ele>797.4</ele>
        <time>2021-11-16 13:37:27</time>
      </trkpt>
      <trkpt lat="40.64344" lon="-3.73095">
        <ele>797.2</ele>
        <time>2021-11-16 13:37:28</time>
      </trkpt>
      <trkpt lat="40.64336" lon="-3.73093">
        <ele>797.2</ele>
        <time>2021-11-16 13:37:29</time>
      </trkpt>
      <trkpt lat="40.64328" lon="-3.73092">
        <ele>797.2</ele>
        <time>2021-11-16 13:37:30</time>
      </trkpt>
      <trkpt lat="40.6432" lon="-3.73091">
        <ele>797</ele>
        <time>2021-11-16 13:37:31</time>
      </trkpt>
      <trkpt lat="40.64312" lon="-3.7309">
        <ele>796.8</ele>
        <time>2021-11-16 13:37:32</time>
      </trkpt>
      <trkpt lat="40.64304" lon="-3.7309">
        <ele>796.6</ele>
        <time>2021-11-16 13:37:33</time>
      </trkpt>
      <trkpt lat="40.64296" lon="-3.7309">
        <ele>796.4</ele>
        <time>2021-11-16 13:37:34</time>
      </trkpt>
      <trkpt lat="40.64288" lon="-3.73091">
        <ele>796</ele>
        <time>2021-11-16 13:37:35</time>
      </trkpt>
      <trkpt lat="40.64279" lon="-3.73092">
        <ele>796</ele>
        <time>2021-11-16 13:37:36</time>
      </trkpt>
      <trkpt lat="40.64271" lon="-3.73094">
        <ele>795.8</ele>
        <time>2021-11-16 13:37:37</time>
      </trkpt>
      <trkpt lat="40.64263" lon="-3.73095">
        <ele>795.8</ele>
        <time>2021-11-16 13:37:38</time>
      </trkpt>
      <trkpt lat="40.64256" lon="-3.73097">
        <ele>795.6</ele>
        <time>2021-11-16 13:37:39</time>
      </trkpt>
      <trkpt lat="40.64248" lon="-3.731">
        <ele>795.6</ele>
        <time>2021-11-16 13:37:40</time>
      </trkpt>
      <trkpt lat="40.6424" lon="-3.73102">
        <ele>795.6</ele>
        <time>2021-11-16 13:37:41</time>
      </trkpt>
      <trkpt lat="40.64233" lon="-3.73105">
        <ele>795.6</ele>
        <time>2021-11-16 13:37:42</time>
      </trkpt>
      <trkpt lat="40.64225" lon="-3.73107">
        <ele>795.4</ele>
        <time>2021-11-16 13:37:43</time>
      </trkpt>
      <trkpt lat="40.64217" lon="-3.7311">
        <ele>795.4</ele>
        <time>2021-11-16 13:37:44</time>
      </trkpt>
      <trkpt lat="40.6421" lon="-3.73112">
        <ele>795.4</ele>
        <time>2021-11-16 13:37:45</time>
      </trkpt>
      <trkpt lat="40.64202" lon="-3.73115">
        <ele>795</ele>
        <time>2021-11-16 13:37:46</time>
      </trkpt>
      <trkpt lat="40.64194" lon="-3.73118">
        <ele>794.8</ele>
        <time>2021-11-16 13:37:47</time>
      </trkpt>
      <trkpt lat="40.64185" lon="-3.73121">
        <ele>794.6</ele>
        <time>2021-11-16 13:37:48</time>
      </trkpt>
      <trkpt lat="40.64177" lon="-3.73124">
        <ele>794.6</ele>
        <time>2021-11-16 13:37:49</time>
      </trkpt>
      <trkpt lat="40.64167" lon="-3.73126">
        <ele>794.4</ele>
        <time>2021-11-16 13:37:50</time>
      </trkpt>
      <trkpt lat="40.64158" lon="-3.73129">
        <ele>794</ele>
        <time>2021-11-16 13:37:51</time>
      </trkpt>
      <trkpt lat="40.64148" lon="-3.73132">
        <ele>794.2</ele>
        <time>2021-11-16 13:37:52</time>
      </trkpt>
      <trkpt lat="40.64138" lon="-3.73136">
        <ele>793.8</ele>
        <time>2021-11-16 13:37:53</time>
      </trkpt>
      <trkpt lat="40.64127" lon="-3.73139">
        <ele>793.2</ele>
        <time>2021-11-16 13:37:54</time>
      </trkpt>
      <trkpt lat="40.64117" lon="-3.73143">
        <ele>792.6</ele>
        <time>2021-11-16 13:37:55</time>
      </trkpt>
      <trkpt lat="40.64106" lon="-3.73146">
        <ele>792.2</ele>
        <time>2021-11-16 13:37:56</time>
      </trkpt>
      <trkpt lat="40.64095" lon="-3.73149">
        <ele>791.6</ele>
        <time>2021-11-16 13:37:57</time>
      </trkpt>
      <trkpt lat="40.64085" lon="-3.73152">
        <ele>791</ele>
        <time>2021-11-16 13:37:58</time>
      </trkpt>
      <trkpt lat="40.64074" lon="-3.73155">
        <ele>790.6</ele>
        <time>2021-11-16 13:37:59</time>
      </trkpt>
      <trkpt lat="40.64064" lon="-3.73158">
        <ele>790.6</ele>
        <time>2021-11-16 13:38:00</time>
      </trkpt>
      <trkpt lat="40.64055" lon="-3.73162">
        <ele>790.4</ele>
        <time>2021-11-16 13:38:01</time>
      </trkpt>
      <trkpt lat="40.64045" lon="-3.73165">
        <ele>789.4</ele>
        <time>2021-11-16 13:38:02</time>
      </trkpt>
      <trkpt lat="40.64035" lon="-3.73166">
        <ele>788.2</ele>
        <time>2021-11-16 13:38:03</time>
      </trkpt>
      <trkpt lat="40.64024" lon="-3.73168">
        <ele>787.2</ele>
        <time>2021-11-16 13:38:04</time>
      </trkpt>
      <trkpt lat="40.64014" lon="-3.73171">
        <ele>786.4</ele>
        <time>2021-11-16 13:38:05</time>
      </trkpt>
      <trkpt lat="40.64004" lon="-3.73173">
        <ele>786</ele>
        <time>2021-11-16 13:38:06</time>
      </trkpt>
      <trkpt lat="40.63994" lon="-3.73176">
        <ele>785.8</ele>
        <time>2021-11-16 13:38:07</time>
      </trkpt>
      <trkpt lat="40.63986" lon="-3.73181">
        <ele>785.6</ele>
        <time>2021-11-16 13:38:08</time>
      </trkpt>
      <trkpt lat="40.63978" lon="-3.73186">
        <ele>785.2</ele>
        <time>2021-11-16 13:38:09</time>
      </trkpt>
      <trkpt lat="40.63971" lon="-3.73193">
        <ele>785</ele>
        <time>2021-11-16 13:38:10</time>
      </trkpt>
      <trkpt lat="40.63963" lon="-3.73199">
        <ele>784.8</ele>
        <time>2021-11-16 13:38:11</time>
      </trkpt>
      <trkpt lat="40.63956" lon="-3.73205">
        <ele>784.6</ele>
        <time>2021-11-16 13:38:12</time>
      </trkpt>
      <trkpt lat="40.63949" lon="-3.73212">
        <ele>784.6</ele>
        <time>2021-11-16 13:38:13</time>
      </trkpt>
      <trkpt lat="40.63942" lon="-3.73218">
        <ele>784.4</ele>
        <time>2021-11-16 13:38:14</time>
      </trkpt>
      <trkpt lat="40.63934" lon="-3.73224">
        <ele>784.4</ele>
        <time>2021-11-16 13:38:15</time>
      </trkpt>
      <trkpt lat="40.63927" lon="-3.7323">
        <ele>784.6</ele>
        <time>2021-11-16 13:38:16</time>
      </trkpt>
      <trkpt lat="40.6392" lon="-3.73237">
        <ele>784.4</ele>
        <time>2021-11-16 13:38:17</time>
      </trkpt>
      <trkpt lat="40.63913" lon="-3.73244">
        <ele>784.2</ele>
        <time>2021-11-16 13:38:18</time>
      </trkpt>
      <trkpt lat="40.63905" lon="-3.73251">
        <ele>784.2</ele>
        <time>2021-11-16 13:38:19</time>
      </trkpt>
      <trkpt lat="40.63897" lon="-3.73256">
        <ele>784</ele>
        <time>2021-11-16 13:38:20</time>
      </trkpt>
      <trkpt lat="40.63888" lon="-3.73259">
        <ele>783.8</ele>
        <time>2021-11-16 13:38:21</time>
      </trkpt>
      <trkpt lat="40.63878" lon="-3.7326">
        <ele>783.6</ele>
        <time>2021-11-16 13:38:22</time>
      </trkpt>
      <trkpt lat="40.63869" lon="-3.73258">
        <ele>783.4</ele>
        <time>2021-11-16 13:38:23</time>
      </trkpt>
      <trkpt lat="40.63861" lon="-3.73255">
        <ele>783.2</ele>
        <time>2021-11-16 13:38:24</time>
      </trkpt>
      <trkpt lat="40.63852" lon="-3.73251">
        <ele>783.2</ele>
        <time>2021-11-16 13:38:25</time>
      </trkpt>
      <trkpt lat="40.63844" lon="-3.73246">
        <ele>783</ele>
        <time>2021-11-16 13:38:26</time>
      </trkpt>
      <trkpt lat="40.63837" lon="-3.73239">
        <ele>783</ele>
        <time>2021-11-16 13:38:27</time>
      </trkpt>
      <trkpt lat="40.63831" lon="-3.73229">
        <ele>782.8</ele>
        <time>2021-11-16 13:38:28</time>
      </trkpt>
      <trkpt lat="40.63828" lon="-3.73218">
        <ele>782.4</ele>
        <time>2021-11-16 13:38:29</time>
      </trkpt>
      <trkpt lat="40.63826" lon="-3.73207">
        <ele>782</ele>
        <time>2021-11-16 13:38:30</time>
      </trkpt>
      <trkpt lat="40.63826" lon="-3.73195">
        <ele>782</ele>
        <time>2021-11-16 13:38:31</time>
      </trkpt>
      <trkpt lat="40.63825" lon="-3.73184">
        <ele>781.6</ele>
        <time>2021-11-16 13:38:32</time>
      </trkpt>
      <trkpt lat="40.63823" lon="-3.73172">
        <ele>781.6</ele>
        <time>2021-11-16 13:38:33</time>
      </trkpt>
      <trkpt lat="40.63819" lon="-3.73163">
        <ele>781.6</ele>
        <time>2021-11-16 13:38:34</time>
      </trkpt>
      <trkpt lat="40.63813" lon="-3.73155">
        <ele>781.2</ele>
        <time>2021-11-16 13:38:35</time>
      </trkpt>
      <trkpt lat="40.63806" lon="-3.73149">
        <ele>781.2</ele>
        <time>2021-11-16 13:38:36</time>
      </trkpt>
      <trkpt lat="40.63798" lon="-3.73144">
        <ele>781.2</ele>
        <time>2021-11-16 13:38:37</time>
      </trkpt>
      <trkpt lat="40.6379" lon="-3.7314">
        <ele>781.2</ele>
        <time>2021-11-16 13:38:38</time>
      </trkpt>
      <trkpt lat="40.63782" lon="-3.73137">
        <ele>781.2</ele>
        <time>2021-11-16 13:38:39</time>
      </trkpt>
      <trkpt lat="40.63773" lon="-3.73134">
        <ele>781</ele>
        <time>2021-11-16 13:38:40</time>
      </trkpt>
      <trkpt lat="40.63764" lon="-3.7313">
        <ele>780.8</ele>
        <time>2021-11-16 13:38:41</time>
      </trkpt>
      <trkpt lat="40.63756" lon="-3.73127">
        <ele>780.6</ele>
        <time>2021-11-16 13:38:42</time>
      </trkpt>
      <trkpt lat="40.63747" lon="-3.73123">
        <ele>780.4</ele>
        <time>2021-11-16 13:38:43</time>
      </trkpt>
      <trkpt lat="40.63738" lon="-3.7312">
        <ele>780.2</ele>
        <time>2021-11-16 13:38:44</time>
      </trkpt>
      <trkpt lat="40.63728" lon="-3.73116">
        <ele>780.2</ele>
        <time>2021-11-16 13:38:45</time>
      </trkpt>
      <trkpt lat="40.63719" lon="-3.73111">
        <ele>780.2</ele>
        <time>2021-11-16 13:38:46</time>
      </trkpt>
      <trkpt lat="40.63709" lon="-3.73107">
        <ele>780</ele>
        <time>2021-11-16 13:38:47</time>
      </trkpt>
      <trkpt lat="40.63699" lon="-3.73102">
        <ele>780</ele>
        <time>2021-11-16 13:38:48</time>
      </trkpt>
      <trkpt lat="40.63689" lon="-3.73098">
        <ele>779.8</ele>
        <time>2021-11-16 13:38:49</time>
      </trkpt>
      <trkpt lat="40.63679" lon="-3.73093">
        <ele>779.2</ele>
        <time>2021-11-16 13:38:50</time>
      </trkpt>
      <trkpt lat="40.63669" lon="-3.73088">
        <ele>778.6</ele>
        <time>2021-11-16 13:38:51</time>
      </trkpt>
      <trkpt lat="40.63659" lon="-3.73084">
        <ele>778</ele>
        <time>2021-11-16 13:38:52</time>
      </trkpt>
      <trkpt lat="40.63649" lon="-3.73079">
        <ele>776.8</ele>
        <time>2021-11-16 13:38:53</time>
      </trkpt>
      <trkpt lat="40.63638" lon="-3.73075">
        <ele>775.6</ele>
        <time>2021-11-16 13:38:54</time>
      </trkpt>
      <trkpt lat="40.63628" lon="-3.7307">
        <ele>774.8</ele>
        <time>2021-11-16 13:38:55</time>
      </trkpt>
      <trkpt lat="40.63617" lon="-3.73065">
        <ele>774.8</ele>
        <time>2021-11-16 13:38:56</time>
      </trkpt>
      <trkpt lat="40.63607" lon="-3.7306">
        <ele>774.4</ele>
        <time>2021-11-16 13:38:57</time>
      </trkpt>
      <trkpt lat="40.63597" lon="-3.73056">
        <ele>773.8</ele>
        <time>2021-11-16 13:38:58</time>
      </trkpt>
      <trkpt lat="40.63586" lon="-3.73052">
        <ele>773.4</ele>
        <time>2021-11-16 13:38:59</time>
      </trkpt>
      <trkpt lat="40.63576" lon="-3.73047">
        <ele>772.8</ele>
        <time>2021-11-16 13:39:00</time>
      </trkpt>
      <trkpt lat="40.63566" lon="-3.73043">
        <ele>771.8</ele>
        <time>2021-11-16 13:39:01</time>
      </trkpt>
      <trkpt lat="40.63556" lon="-3.73038">
        <ele>771.2</ele>
        <time>2021-11-16 13:39:02</time>
      </trkpt>
      <trkpt lat="40.63545" lon="-3.73034">
        <ele>770.8</ele>
        <time>2021-11-16 13:39:03</time>
      </trkpt>
      <trkpt lat="40.63534" lon="-3.73029">
        <ele>770.4</ele>
        <time>2021-11-16 13:39:04</time>
      </trkpt>
      <trkpt lat="40.63523" lon="-3.73025">
        <ele>770.2</ele>
        <time>2021-11-16 13:39:05</time>
      </trkpt>
      <trkpt lat="40.63512" lon="-3.73021">
        <ele>770</ele>
        <time>2021-11-16 13:39:06</time>
      </trkpt>
      <trkpt lat="40.63501" lon="-3.73017">
        <ele>769.4</ele>
        <time>2021-11-16 13:39:07</time>
      </trkpt>
      <trkpt lat="40.63491" lon="-3.73013">
        <ele>769</ele>
        <time>2021-11-16 13:39:08</time>
      </trkpt>
      <trkpt lat="40.6348" lon="-3.7301">
        <ele>768.4</ele>
        <time>2021-11-16 13:39:09</time>
      </trkpt>
      <trkpt lat="40.63471" lon="-3.73006">
        <ele>767.4</ele>
        <time>2021-11-16 13:39:10</time>
      </trkpt>
      <trkpt lat="40.63463" lon="-3.73002">
        <ele>766.2</ele>
        <time>2021-11-16 13:39:11</time>
      </trkpt>
      <trkpt lat="40.63454" lon="-3.72999">
        <ele>765</ele>
        <time>2021-11-16 13:39:12</time>
      </trkpt>
      <trkpt lat="40.63445" lon="-3.72997">
        <ele>764.4</ele>
        <time>2021-11-16 13:39:13</time>
      </trkpt>
      <trkpt lat="40.63437" lon="-3.72995">
        <ele>764</ele>
        <time>2021-11-16 13:39:14</time>
      </trkpt>
      <trkpt lat="40.6343" lon="-3.72994">
        <ele>764</ele>
        <time>2021-11-16 13:39:15</time>
      </trkpt>
      <trkpt lat="40.63422" lon="-3.72993">
        <ele>764.2</ele>
        <time>2021-11-16 13:39:16</time>
      </trkpt>
      <trkpt lat="40.63414" lon="-3.72992">
        <ele>764</ele>
        <time>2021-11-16 13:39:17</time>
      </trkpt>
      <trkpt lat="40.63407" lon="-3.72991">
        <ele>764</ele>
        <time>2021-11-16 13:39:18</time>
      </trkpt>
      <trkpt lat="40.63399" lon="-3.72991">
        <ele>764</ele>
        <time>2021-11-16 13:39:19</time>
      </trkpt>
      <trkpt lat="40.63391" lon="-3.7299">
        <ele>763.8</ele>
        <time>2021-11-16 13:39:20</time>
      </trkpt>
      <trkpt lat="40.63382" lon="-3.7299">
        <ele>763.8</ele>
        <time>2021-11-16 13:39:21</time>
      </trkpt>
      <trkpt lat="40.63374" lon="-3.72991">
        <ele>763.8</ele>
        <time>2021-11-16 13:39:22</time>
      </trkpt>
      <trkpt lat="40.63366" lon="-3.72991">
        <ele>764.4</ele>
        <time>2021-11-16 13:39:23</time>
      </trkpt>
      <trkpt lat="40.63358" lon="-3.72991">
        <ele>764.8</ele>
        <time>2021-11-16 13:39:24</time>
      </trkpt>
      <trkpt lat="40.6335" lon="-3.72991">
        <ele>764.8</ele>
        <time>2021-11-16 13:39:25</time>
      </trkpt>
      <trkpt lat="40.63341" lon="-3.72991">
        <ele>765</ele>
        <time>2021-11-16 13:39:26</time>
      </trkpt>
      <trkpt lat="40.63333" lon="-3.72992">
        <ele>765</ele>
        <time>2021-11-16 13:39:27</time>
      </trkpt>
      <trkpt lat="40.63325" lon="-3.72993">
        <ele>765</ele>
        <time>2021-11-16 13:39:28</time>
      </trkpt>
      <trkpt lat="40.63318" lon="-3.72993">
        <ele>765</ele>
        <time>2021-11-16 13:39:29</time>
      </trkpt>
      <trkpt lat="40.6331" lon="-3.72994">
        <ele>765.2</ele>
        <time>2021-11-16 13:39:30</time>
      </trkpt>
      <trkpt lat="40.63302" lon="-3.72995">
        <ele>765.2</ele>
        <time>2021-11-16 13:39:31</time>
      </trkpt>
      <trkpt lat="40.63295" lon="-3.72997">
        <ele>765.2</ele>
        <time>2021-11-16 13:39:32</time>
      </trkpt>
      <trkpt lat="40.63287" lon="-3.72998">
        <ele>765.2</ele>
        <time>2021-11-16 13:39:33</time>
      </trkpt>
      <trkpt lat="40.63278" lon="-3.72999">
        <ele>765.2</ele>
        <time>2021-11-16 13:39:34</time>
      </trkpt>
      <trkpt lat="40.6327" lon="-3.73001">
        <ele>765.2</ele>
        <time>2021-11-16 13:39:35</time>
      </trkpt>
      <trkpt lat="40.63262" lon="-3.73002">
        <ele>765</ele>
        <time>2021-11-16 13:39:36</time>
      </trkpt>
      <trkpt lat="40.63254" lon="-3.73003">
        <ele>764.8</ele>
        <time>2021-11-16 13:39:37</time>
      </trkpt>
      <trkpt lat="40.63245" lon="-3.73004">
        <ele>764.6</ele>
        <time>2021-11-16 13:39:38</time>
      </trkpt>
      <trkpt lat="40.63237" lon="-3.73006">
        <ele>764.4</ele>
        <time>2021-11-16 13:39:39</time>
      </trkpt>
      <trkpt lat="40.63229" lon="-3.73007">
        <ele>764.4</ele>
        <time>2021-11-16 13:39:40</time>
      </trkpt>
      <trkpt lat="40.63221" lon="-3.73008">
        <ele>764.2</ele>
        <time>2021-11-16 13:39:41</time>
      </trkpt>
      <trkpt lat="40.63213" lon="-3.7301">
        <ele>764.4</ele>
        <time>2021-11-16 13:39:42</time>
      </trkpt>
      <trkpt lat="40.63205" lon="-3.73011">
        <ele>764.2</ele>
        <time>2021-11-16 13:39:43</time>
      </trkpt>
      <trkpt lat="40.63197" lon="-3.73012">
        <ele>764.2</ele>
        <time>2021-11-16 13:39:44</time>
      </trkpt>
      <trkpt lat="40.63189" lon="-3.73012">
        <ele>764</ele>
        <time>2021-11-16 13:39:45</time>
      </trkpt>
      <trkpt lat="40.63182" lon="-3.73013">
        <ele>764</ele>
        <time>2021-11-16 13:39:46</time>
      </trkpt>
      <trkpt lat="40.63174" lon="-3.73014">
        <ele>764</ele>
        <time>2021-11-16 13:39:47</time>
      </trkpt>
      <trkpt lat="40.63167" lon="-3.73015">
        <ele>763.8</ele>
        <time>2021-11-16 13:39:48</time>
      </trkpt>
      <trkpt lat="40.63159" lon="-3.73016">
        <ele>763.8</ele>
        <time>2021-11-16 13:39:49</time>
      </trkpt>
      <trkpt lat="40.63152" lon="-3.73017">
        <ele>763.8</ele>
        <time>2021-11-16 13:39:50</time>
      </trkpt>
      <trkpt lat="40.63145" lon="-3.73018">
        <ele>763.8</ele>
        <time>2021-11-16 13:39:51</time>
      </trkpt>
      <trkpt lat="40.63138" lon="-3.73019">
        <ele>763.8</ele>
        <time>2021-11-16 13:39:52</time>
      </trkpt>
      <trkpt lat="40.63131" lon="-3.7302">
        <ele>763.8</ele>
        <time>2021-11-16 13:39:53</time>
      </trkpt>
      <trkpt lat="40.63125" lon="-3.73021">
        <ele>763.8</ele>
        <time>2021-11-16 13:39:54</time>
      </trkpt>
      <trkpt lat="40.63118" lon="-3.73022">
        <ele>764</ele>
        <time>2021-11-16 13:39:55</time>
      </trkpt>
      <trkpt lat="40.63111" lon="-3.73023">
        <ele>764</ele>
        <time>2021-11-16 13:39:56</time>
      </trkpt>
      <trkpt lat="40.63105" lon="-3.73024">
        <ele>764.2</ele>
        <time>2021-11-16 13:39:57</time>
      </trkpt>
      <trkpt lat="40.63098" lon="-3.73025">
        <ele>764.6</ele>
        <time>2021-11-16 13:39:58</time>
      </trkpt>
      <trkpt lat="40.63092" lon="-3.73026">
        <ele>764.8</ele>
        <time>2021-11-16 13:39:59</time>
      </trkpt>
      <trkpt lat="40.63085" lon="-3.73027">
        <ele>765</ele>
        <time>2021-11-16 13:40:00</time>
      </trkpt>
      <trkpt lat="40.63078" lon="-3.73028">
        <ele>765.2</ele>
        <time>2021-11-16 13:40:01</time>
      </trkpt>
      <trkpt lat="40.63072" lon="-3.73029">
        <ele>765.2</ele>
        <time>2021-11-16 13:40:02</time>
      </trkpt>
      <trkpt lat="40.63065" lon="-3.7303">
        <ele>765.2</ele>
        <time>2021-11-16 13:40:03</time>
      </trkpt>
      <trkpt lat="40.63059" lon="-3.73032">
        <ele>765.4</ele>
        <time>2021-11-16 13:40:04</time>
      </trkpt>
      <trkpt lat="40.63052" lon="-3.73033">
        <ele>765.4</ele>
        <time>2021-11-16 13:40:05</time>
      </trkpt>
      <trkpt lat="40.63045" lon="-3.73034">
        <ele>765.8</ele>
        <time>2021-11-16 13:40:06</time>
      </trkpt>
      <trkpt lat="40.63038" lon="-3.73035">
        <ele>765.8</ele>
        <time>2021-11-16 13:40:07</time>
      </trkpt>
      <trkpt lat="40.63031" lon="-3.73036">
        <ele>766</ele>
        <time>2021-11-16 13:40:08</time>
      </trkpt>
      <trkpt lat="40.63024" lon="-3.73037">
        <ele>766</ele>
        <time>2021-11-16 13:40:09</time>
      </trkpt>
      <trkpt lat="40.63016" lon="-3.73039">
        <ele>766</ele>
        <time>2021-11-16 13:40:10</time>
      </trkpt>
      <trkpt lat="40.63009" lon="-3.7304">
        <ele>766</ele>
        <time>2021-11-16 13:40:11</time>
      </trkpt>
      <trkpt lat="40.63001" lon="-3.73041">
        <ele>766</ele>
        <time>2021-11-16 13:40:12</time>
      </trkpt>
      <trkpt lat="40.62993" lon="-3.73042">
        <ele>766.2</ele>
        <time>2021-11-16 13:40:13</time>
      </trkpt>
      <trkpt lat="40.62985" lon="-3.73043">
        <ele>766.2</ele>
        <time>2021-11-16 13:40:14</time>
      </trkpt>
      <trkpt lat="40.62977" lon="-3.73044">
        <ele>766.2</ele>
        <time>2021-11-16 13:40:15</time>
      </trkpt>
      <trkpt lat="40.62968" lon="-3.73045">
        <ele>766.2</ele>
        <time>2021-11-16 13:40:16</time>
      </trkpt>
      <trkpt lat="40.6296" lon="-3.73047">
        <ele>766</ele>
        <time>2021-11-16 13:40:17</time>
      </trkpt>
      <trkpt lat="40.62951" lon="-3.73048">
        <ele>766.2</ele>
        <time>2021-11-16 13:40:18</time>
      </trkpt>
      <trkpt lat="40.62943" lon="-3.7305">
        <ele>766</ele>
        <time>2021-11-16 13:40:19</time>
      </trkpt>
      <trkpt lat="40.62934" lon="-3.73051">
        <ele>765.8</ele>
        <time>2021-11-16 13:40:20</time>
      </trkpt>
      <trkpt lat="40.62925" lon="-3.73052">
        <ele>765.2</ele>
        <time>2021-11-16 13:40:21</time>
      </trkpt>
      <trkpt lat="40.62917" lon="-3.73054">
        <ele>764.8</ele>
        <time>2021-11-16 13:40:22</time>
      </trkpt>
      <trkpt lat="40.62908" lon="-3.73055">
        <ele>764.6</ele>
        <time>2021-11-16 13:40:23</time>
      </trkpt>
      <trkpt lat="40.62899" lon="-3.73057">
        <ele>764.4</ele>
        <time>2021-11-16 13:40:24</time>
      </trkpt>
      <trkpt lat="40.62891" lon="-3.7306">
        <ele>764</ele>
        <time>2021-11-16 13:40:25</time>
      </trkpt>
      <trkpt lat="40.62882" lon="-3.73063">
        <ele>763.8</ele>
        <time>2021-11-16 13:40:26</time>
      </trkpt>
      <trkpt lat="40.62874" lon="-3.73066">
        <ele>763.4</ele>
        <time>2021-11-16 13:40:27</time>
      </trkpt>
      <trkpt lat="40.62866" lon="-3.73069">
        <ele>763</ele>
        <time>2021-11-16 13:40:28</time>
      </trkpt>
      <trkpt lat="40.62858" lon="-3.73071">
        <ele>762.4</ele>
        <time>2021-11-16 13:40:29</time>
      </trkpt>
      <trkpt lat="40.6285" lon="-3.73073">
        <ele>762.4</ele>
        <time>2021-11-16 13:40:30</time>
      </trkpt>
      <trkpt lat="40.62841" lon="-3.73074">
        <ele>762.2</ele>
        <time>2021-11-16 13:40:31</time>
      </trkpt>
      <trkpt lat="40.62833" lon="-3.73074">
        <ele>761.8</ele>
        <time>2021-11-16 13:40:32</time>
      </trkpt>
      <trkpt lat="40.62825" lon="-3.73073">
        <ele>761.6</ele>
        <time>2021-11-16 13:40:33</time>
      </trkpt>
      <trkpt lat="40.62817" lon="-3.73071">
        <ele>761.2</ele>
        <time>2021-11-16 13:40:34</time>
      </trkpt>
      <trkpt lat="40.62808" lon="-3.7307">
        <ele>761.2</ele>
        <time>2021-11-16 13:40:35</time>
      </trkpt>
      <trkpt lat="40.628" lon="-3.73069">
        <ele>761</ele>
        <time>2021-11-16 13:40:36</time>
      </trkpt>
      <trkpt lat="40.62791" lon="-3.73069">
        <ele>760.8</ele>
        <time>2021-11-16 13:40:37</time>
      </trkpt>
      <trkpt lat="40.62783" lon="-3.73069">
        <ele>760.8</ele>
        <time>2021-11-16 13:40:38</time>
      </trkpt>
      <trkpt lat="40.62774" lon="-3.73069">
        <ele>760.6</ele>
        <time>2021-11-16 13:40:39</time>
      </trkpt>
      <trkpt lat="40.62765" lon="-3.73069">
        <ele>760.6</ele>
        <time>2021-11-16 13:40:40</time>
      </trkpt>
      <trkpt lat="40.62756" lon="-3.73068">
        <ele>760.6</ele>
        <time>2021-11-16 13:40:41</time>
      </trkpt>
      <trkpt lat="40.62746" lon="-3.73067">
        <ele>760.6</ele>
        <time>2021-11-16 13:40:42</time>
      </trkpt>
      <trkpt lat="40.62737" lon="-3.73067">
        <ele>760.4</ele>
        <time>2021-11-16 13:40:43</time>
      </trkpt>
      <trkpt lat="40.62727" lon="-3.73065">
        <ele>760.6</ele>
        <time>2021-11-16 13:40:44</time>
      </trkpt>
      <trkpt lat="40.62717" lon="-3.73064">
        <ele>760.4</ele>
        <time>2021-11-16 13:40:45</time>
      </trkpt>
      <trkpt lat="40.62707" lon="-3.73062">
        <ele>760.2</ele>
        <time>2021-11-16 13:40:46</time>
      </trkpt>
      <trkpt lat="40.62697" lon="-3.7306">
        <ele>760</ele>
        <time>2021-11-16 13:40:47</time>
      </trkpt>
      <trkpt lat="40.62687" lon="-3.73058">
        <ele>759.6</ele>
        <time>2021-11-16 13:40:48</time>
      </trkpt>
      <trkpt lat="40.62677" lon="-3.73056">
        <ele>759.6</ele>
        <time>2021-11-16 13:40:49</time>
      </trkpt>
      <trkpt lat="40.62667" lon="-3.73055">
        <ele>759.6</ele>
        <time>2021-11-16 13:40:50</time>
      </trkpt>
      <trkpt lat="40.62658" lon="-3.73053">
        <ele>759</ele>
        <time>2021-11-16 13:40:51</time>
      </trkpt>
      <trkpt lat="40.62648" lon="-3.73052">
        <ele>758.6</ele>
        <time>2021-11-16 13:40:52</time>
      </trkpt>
      <trkpt lat="40.62639" lon="-3.73054">
        <ele>758.4</ele>
        <time>2021-11-16 13:40:53</time>
      </trkpt>
      <trkpt lat="40.6263" lon="-3.73057">
        <ele>757.6</ele>
        <time>2021-11-16 13:40:54</time>
      </trkpt>
      <trkpt lat="40.62621" lon="-3.73061">
        <ele>757.4</ele>
        <time>2021-11-16 13:40:55</time>
      </trkpt>
      <trkpt lat="40.62612" lon="-3.73064">
        <ele>757.2</ele>
        <time>2021-11-16 13:40:56</time>
      </trkpt>
      <trkpt lat="40.62603" lon="-3.73067">
        <ele>757</ele>
        <time>2021-11-16 13:40:57</time>
      </trkpt>
      <trkpt lat="40.62595" lon="-3.73067">
        <ele>756.8</ele>
        <time>2021-11-16 13:40:58</time>
      </trkpt>
      <trkpt lat="40.62587" lon="-3.73066">
        <ele>757</ele>
        <time>2021-11-16 13:40:59</time>
      </trkpt>
      <trkpt lat="40.62579" lon="-3.73064">
        <ele>756.8</ele>
        <time>2021-11-16 13:41:00</time>
      </trkpt>
      <trkpt lat="40.62572" lon="-3.73062">
        <ele>756.8</ele>
        <time>2021-11-16 13:41:01</time>
      </trkpt>
      <trkpt lat="40.62564" lon="-3.73061">
        <ele>756.8</ele>
        <time>2021-11-16 13:41:02</time>
      </trkpt>
      <trkpt lat="40.62557" lon="-3.7306">
        <ele>757</ele>
        <time>2021-11-16 13:41:03</time>
      </trkpt>
      <trkpt lat="40.62549" lon="-3.73058">
        <ele>757</ele>
        <time>2021-11-16 13:41:04</time>
      </trkpt>
      <trkpt lat="40.62542" lon="-3.73057">
        <ele>756.8</ele>
        <time>2021-11-16 13:41:05</time>
      </trkpt>
      <trkpt lat="40.62535" lon="-3.73055">
        <ele>757.2</ele>
        <time>2021-11-16 13:41:06</time>
      </trkpt>
      <trkpt lat="40.62527" lon="-3.73054">
        <ele>757.2</ele>
        <time>2021-11-16 13:41:07</time>
      </trkpt>
      <trkpt lat="40.6252" lon="-3.73053">
        <ele>757.2</ele>
        <time>2021-11-16 13:41:08</time>
      </trkpt>
      <trkpt lat="40.62512" lon="-3.73052">
        <ele>757.6</ele>
        <time>2021-11-16 13:41:09</time>
      </trkpt>
      <trkpt lat="40.62505" lon="-3.73051">
        <ele>758</ele>
        <time>2021-11-16 13:41:10</time>
      </trkpt>
      <trkpt lat="40.62497" lon="-3.7305">
        <ele>758.8</ele>
        <time>2021-11-16 13:41:11</time>
      </trkpt>
      <trkpt lat="40.6249" lon="-3.73049">
        <ele>758.8</ele>
        <time>2021-11-16 13:41:12</time>
      </trkpt>
      <trkpt lat="40.62482" lon="-3.73049">
        <ele>759</ele>
        <time>2021-11-16 13:41:13</time>
      </trkpt>
      <trkpt lat="40.62475" lon="-3.73049">
        <ele>759.2</ele>
        <time>2021-11-16 13:41:14</time>
      </trkpt>
      <trkpt lat="40.62468" lon="-3.73049">
        <ele>759.2</ele>
        <time>2021-11-16 13:41:15</time>
      </trkpt>
      <trkpt lat="40.62461" lon="-3.73049">
        <ele>759.4</ele>
        <time>2021-11-16 13:41:16</time>
      </trkpt>
      <trkpt lat="40.62455" lon="-3.7305">
        <ele>759.4</ele>
        <time>2021-11-16 13:41:17</time>
      </trkpt>
      <trkpt lat="40.62449" lon="-3.73051">
        <ele>759.4</ele>
        <time>2021-11-16 13:41:18</time>
      </trkpt>
      <trkpt lat="40.62444" lon="-3.73052">
        <ele>759.6</ele>
        <time>2021-11-16 13:41:19</time>
      </trkpt>
      <trkpt lat="40.62438" lon="-3.73053">
        <ele>759.8</ele>
        <time>2021-11-16 13:41:20</time>
      </trkpt>
      <trkpt lat="40.62433" lon="-3.73054">
        <ele>760</ele>
        <time>2021-11-16 13:41:21</time>
      </trkpt>
      <trkpt lat="40.62428" lon="-3.73056">
        <ele>760.2</ele>
        <time>2021-11-16 13:41:22</time>
      </trkpt>
      <trkpt lat="40.62423" lon="-3.73058">
        <ele>760.4</ele>
        <time>2021-11-16 13:41:23</time>
      </trkpt>
      <trkpt lat="40.62418" lon="-3.7306">
        <ele>760.6</ele>
        <time>2021-11-16 13:41:24</time>
      </trkpt>
      <trkpt lat="40.62414" lon="-3.73062">
        <ele>760.6</ele>
        <time>2021-11-16 13:41:25</time>
      </trkpt>
      <trkpt lat="40.62409" lon="-3.73063">
        <ele>760.6</ele>
        <time>2021-11-16 13:41:26</time>
      </trkpt>
      <trkpt lat="40.62405" lon="-3.73065">
        <ele>761.2</ele>
        <time>2021-11-16 13:41:27</time>
      </trkpt>
      <trkpt lat="40.624" lon="-3.73066">
        <ele>761.6</ele>
        <time>2021-11-16 13:41:28</time>
      </trkpt>
      <trkpt lat="40.62396" lon="-3.73067">
        <ele>762</ele>
        <time>2021-11-16 13:41:29</time>
      </trkpt>
      <trkpt lat="40.62391" lon="-3.73067">
        <ele>762.8</ele>
        <time>2021-11-16 13:41:30</time>
      </trkpt>
      <trkpt lat="40.62387" lon="-3.73067">
        <ele>763.2</ele>
        <time>2021-11-16 13:41:31</time>
      </trkpt>
      <trkpt lat="40.62383" lon="-3.73067">
        <ele>763.6</ele>
        <time>2021-11-16 13:41:32</time>
      </trkpt>
      <trkpt lat="40.62379" lon="-3.73067">
        <ele>763.8</ele>
        <time>2021-11-16 13:41:33</time>
      </trkpt>
      <trkpt lat="40.62374" lon="-3.73066">
        <ele>764.2</ele>
        <time>2021-11-16 13:41:34</time>
      </trkpt>
      <trkpt lat="40.6237" lon="-3.73066">
        <ele>764.6</ele>
        <time>2021-11-16 13:41:35</time>
      </trkpt>
      <trkpt lat="40.62365" lon="-3.73065">
        <ele>765.2</ele>
        <time>2021-11-16 13:41:36</time>
      </trkpt>
      <trkpt lat="40.6236" lon="-3.73065">
        <ele>765.6</ele>
        <time>2021-11-16 13:41:37</time>
      </trkpt>
      <trkpt lat="40.62355" lon="-3.73065">
        <ele>765.8</ele>
        <time>2021-11-16 13:41:38</time>
      </trkpt>
      <trkpt lat="40.62349" lon="-3.73064">
        <ele>766</ele>
        <time>2021-11-16 13:41:39</time>
      </trkpt>
      <trkpt lat="40.62342" lon="-3.73065">
        <ele>765.8</ele>
        <time>2021-11-16 13:41:40</time>
      </trkpt>
      <trkpt lat="40.62335" lon="-3.73065">
        <ele>765.8</ele>
        <time>2021-11-16 13:41:41</time>
      </trkpt>
      <trkpt lat="40.62328" lon="-3.73067">
        <ele>765.8</ele>
        <time>2021-11-16 13:41:42</time>
      </trkpt>
      <trkpt lat="40.6232" lon="-3.73069">
        <ele>766</ele>
        <time>2021-11-16 13:41:43</time>
      </trkpt>
      <trkpt lat="40.62312" lon="-3.73072">
        <ele>766</ele>
        <time>2021-11-16 13:41:44</time>
      </trkpt>
      <trkpt lat="40.62303" lon="-3.73076">
        <ele>766</ele>
        <time>2021-11-16 13:41:45</time>
      </trkpt>
      <trkpt lat="40.62294" lon="-3.73079">
        <ele>766</ele>
        <time>2021-11-16 13:41:46</time>
      </trkpt>
      <trkpt lat="40.62284" lon="-3.73082">
        <ele>765.8</ele>
        <time>2021-11-16 13:41:47</time>
      </trkpt>
      <trkpt lat="40.62274" lon="-3.73085">
        <ele>765.8</ele>
        <time>2021-11-16 13:41:48</time>
      </trkpt>
      <trkpt lat="40.62264" lon="-3.73087">
        <ele>765.4</ele>
        <time>2021-11-16 13:41:49</time>
      </trkpt>
      <trkpt lat="40.62253" lon="-3.73087">
        <ele>765.2</ele>
        <time>2021-11-16 13:41:50</time>
      </trkpt>
      <trkpt lat="40.62242" lon="-3.73087">
        <ele>764.4</ele>
        <time>2021-11-16 13:41:51</time>
      </trkpt>
      <trkpt lat="40.62231" lon="-3.73086">
        <ele>763.8</ele>
        <time>2021-11-16 13:41:52</time>
      </trkpt>
      <trkpt lat="40.6222" lon="-3.73085">
        <ele>762.8</ele>
        <time>2021-11-16 13:41:53</time>
      </trkpt>
      <trkpt lat="40.6221" lon="-3.73085">
        <ele>762.2</ele>
        <time>2021-11-16 13:41:54</time>
      </trkpt>
      <trkpt lat="40.622" lon="-3.73084">
        <ele>761.2</ele>
        <time>2021-11-16 13:41:55</time>
      </trkpt>
      <trkpt lat="40.6219" lon="-3.73083">
        <ele>759.8</ele>
        <time>2021-11-16 13:41:56</time>
      </trkpt>
      <trkpt lat="40.6218" lon="-3.73083">
        <ele>758.6</ele>
        <time>2021-11-16 13:41:57</time>
      </trkpt>
      <trkpt lat="40.62171" lon="-3.73082">
        <ele>757.4</ele>
        <time>2021-11-16 13:41:58</time>
      </trkpt>
      <trkpt lat="40.62162" lon="-3.73081">
        <ele>757</ele>
        <time>2021-11-16 13:41:59</time>
      </trkpt>
      <trkpt lat="40.62153" lon="-3.7308">
        <ele>756.8</ele>
        <time>2021-11-16 13:42:00</time>
      </trkpt>
      <trkpt lat="40.62144" lon="-3.7308">
        <ele>756.6</ele>
        <time>2021-11-16 13:42:01</time>
      </trkpt>
      <trkpt lat="40.62135" lon="-3.73079">
        <ele>756.4</ele>
        <time>2021-11-16 13:42:02</time>
      </trkpt>
      <trkpt lat="40.62127" lon="-3.7308">
        <ele>756.4</ele>
        <time>2021-11-16 13:42:03</time>
      </trkpt>
      <trkpt lat="40.62119" lon="-3.73081">
        <ele>756.4</ele>
        <time>2021-11-16 13:42:04</time>
      </trkpt>
      <trkpt lat="40.62112" lon="-3.73085">
        <ele>756.6</ele>
        <time>2021-11-16 13:42:05</time>
      </trkpt>
      <trkpt lat="40.62104" lon="-3.73089">
        <ele>756.4</ele>
        <time>2021-11-16 13:42:06</time>
      </trkpt>
      <trkpt lat="40.62098" lon="-3.73094">
        <ele>756.4</ele>
        <time>2021-11-16 13:42:07</time>
      </trkpt>
      <trkpt lat="40.62091" lon="-3.73099">
        <ele>756.4</ele>
        <time>2021-11-16 13:42:08</time>
      </trkpt>
      <trkpt lat="40.62083" lon="-3.73101">
        <ele>756.4</ele>
        <time>2021-11-16 13:42:09</time>
      </trkpt>
      <trkpt lat="40.62075" lon="-3.73101">
        <ele>757</ele>
        <time>2021-11-16 13:42:10</time>
      </trkpt>
      <trkpt lat="40.62068" lon="-3.731">
        <ele>757.4</ele>
        <time>2021-11-16 13:42:11</time>
      </trkpt>
      <trkpt lat="40.6206" lon="-3.73097">
        <ele>757.6</ele>
        <time>2021-11-16 13:42:12</time>
      </trkpt>
      <trkpt lat="40.62052" lon="-3.73095">
        <ele>757.8</ele>
        <time>2021-11-16 13:42:13</time>
      </trkpt>
      <trkpt lat="40.62044" lon="-3.73092">
        <ele>758.2</ele>
        <time>2021-11-16 13:42:14</time>
      </trkpt>
      <trkpt lat="40.62036" lon="-3.73089">
        <ele>758.6</ele>
        <time>2021-11-16 13:42:15</time>
      </trkpt>
      <trkpt lat="40.62029" lon="-3.73086">
        <ele>758.8</ele>
        <time>2021-11-16 13:42:16</time>
      </trkpt>
      <trkpt lat="40.62022" lon="-3.73082">
        <ele>758.8</ele>
        <time>2021-11-16 13:42:17</time>
      </trkpt>
      <trkpt lat="40.62016" lon="-3.73078">
        <ele>759</ele>
        <time>2021-11-16 13:42:18</time>
      </trkpt>
      <trkpt lat="40.62011" lon="-3.73072">
        <ele>759</ele>
        <time>2021-11-16 13:42:19</time>
      </trkpt>
      <trkpt lat="40.62005" lon="-3.73067">
        <ele>759</ele>
        <time>2021-11-16 13:42:20</time>
      </trkpt>
      <trkpt lat="40.61999" lon="-3.73062">
        <ele>759.2</ele>
        <time>2021-11-16 13:42:21</time>
      </trkpt>
      <trkpt lat="40.61994" lon="-3.73059">
        <ele>759.4</ele>
        <time>2021-11-16 13:42:22</time>
      </trkpt>
      <trkpt lat="40.61988" lon="-3.73056">
        <ele>759.4</ele>
        <time>2021-11-16 13:42:23</time>
      </trkpt>
      <trkpt lat="40.61982" lon="-3.73055">
        <ele>759.6</ele>
        <time>2021-11-16 13:42:24</time>
      </trkpt>
      <trkpt lat="40.61976" lon="-3.73054">
        <ele>759.8</ele>
        <time>2021-11-16 13:42:25</time>
      </trkpt>
      <trkpt lat="40.61971" lon="-3.73053">
        <ele>759.8</ele>
        <time>2021-11-16 13:42:26</time>
      </trkpt>
      <trkpt lat="40.61965" lon="-3.73052">
        <ele>760</ele>
        <time>2021-11-16 13:42:27</time>
      </trkpt>
      <trkpt lat="40.6196" lon="-3.73051">
        <ele>760.2</ele>
        <time>2021-11-16 13:42:28</time>
      </trkpt>
      <trkpt lat="40.61954" lon="-3.73051">
        <ele>760.6</ele>
        <time>2021-11-16 13:42:29</time>
      </trkpt>
      <trkpt lat="40.61949" lon="-3.7305">
        <ele>760.8</ele>
        <time>2021-11-16 13:42:30</time>
      </trkpt>
      <trkpt lat="40.61944" lon="-3.73048">
        <ele>761.6</ele>
        <time>2021-11-16 13:42:31</time>
      </trkpt>
      <trkpt lat="40.61938" lon="-3.73046">
        <ele>762.2</ele>
        <time>2021-11-16 13:42:32</time>
      </trkpt>
      <trkpt lat="40.61933" lon="-3.73044">
        <ele>762.8</ele>
        <time>2021-11-16 13:42:33</time>
      </trkpt>
      <trkpt lat="40.61927" lon="-3.73041">
        <ele>763.2</ele>
        <time>2021-11-16 13:42:34</time>
      </trkpt>
      <trkpt lat="40.61922" lon="-3.73038">
        <ele>763.6</ele>
        <time>2021-11-16 13:42:35</time>
      </trkpt>
      <trkpt lat="40.61917" lon="-3.73036">
        <ele>764.2</ele>
        <time>2021-11-16 13:42:36</time>
      </trkpt>
      <trkpt lat="40.61912" lon="-3.73033">
        <ele>765</ele>
        <time>2021-11-16 13:42:37</time>
      </trkpt>
      <trkpt lat="40.61906" lon="-3.7303">
        <ele>765.4</ele>
        <time>2021-11-16 13:42:38</time>
      </trkpt>
      <trkpt lat="40.61901" lon="-3.73027">
        <ele>765.4</ele>
        <time>2021-11-16 13:42:39</time>
      </trkpt>
      <trkpt lat="40.61895" lon="-3.73025">
        <ele>765.6</ele>
        <time>2021-11-16 13:42:40</time>
      </trkpt>
      <trkpt lat="40.6189" lon="-3.73022">
        <ele>765.6</ele>
        <time>2021-11-16 13:42:41</time>
      </trkpt>
      <trkpt lat="40.61885" lon="-3.7302">
        <ele>765.6</ele>
        <time>2021-11-16 13:42:42</time>
      </trkpt>
      <trkpt lat="40.61879" lon="-3.73018">
        <ele>765.8</ele>
        <time>2021-11-16 13:42:43</time>
      </trkpt>
      <trkpt lat="40.61873" lon="-3.73017">
        <ele>766</ele>
        <time>2021-11-16 13:42:44</time>
      </trkpt>
      <trkpt lat="40.61868" lon="-3.73016">
        <ele>766</ele>
        <time>2021-11-16 13:42:45</time>
      </trkpt>
      <trkpt lat="40.61861" lon="-3.73015">
        <ele>765.8</ele>
        <time>2021-11-16 13:42:46</time>
      </trkpt>
      <trkpt lat="40.61854" lon="-3.73014">
        <ele>766</ele>
        <time>2021-11-16 13:42:47</time>
      </trkpt>
      <trkpt lat="40.61847" lon="-3.73013">
        <ele>765.8</ele>
        <time>2021-11-16 13:42:48</time>
      </trkpt>
      <trkpt lat="40.6184" lon="-3.73012">
        <ele>766</ele>
        <time>2021-11-16 13:42:49</time>
      </trkpt>
      <trkpt lat="40.61832" lon="-3.7301">
        <ele>765.8</ele>
        <time>2021-11-16 13:42:50</time>
      </trkpt>
      <trkpt lat="40.61824" lon="-3.73009">
        <ele>765.8</ele>
        <time>2021-11-16 13:42:51</time>
      </trkpt>
      <trkpt lat="40.61816" lon="-3.73007">
        <ele>765.6</ele>
        <time>2021-11-16 13:42:52</time>
      </trkpt>
      <trkpt lat="40.61809" lon="-3.73005">
        <ele>765.4</ele>
        <time>2021-11-16 13:42:53</time>
      </trkpt>
      <trkpt lat="40.61802" lon="-3.73003">
        <ele>765.4</ele>
        <time>2021-11-16 13:42:54</time>
      </trkpt>
      <trkpt lat="40.61795" lon="-3.73001">
        <ele>765.2</ele>
        <time>2021-11-16 13:42:55</time>
      </trkpt>
      <trkpt lat="40.61788" lon="-3.72999">
        <ele>764.8</ele>
        <time>2021-11-16 13:42:56</time>
      </trkpt>
      <trkpt lat="40.61782" lon="-3.72997">
        <ele>764.8</ele>
        <time>2021-11-16 13:42:57</time>
      </trkpt>
      <trkpt lat="40.61776" lon="-3.72995">
        <ele>764.4</ele>
        <time>2021-11-16 13:42:58</time>
      </trkpt>
      <trkpt lat="40.61771" lon="-3.72992">
        <ele>764.6</ele>
        <time>2021-11-16 13:42:59</time>
      </trkpt>
      <trkpt lat="40.61765" lon="-3.7299">
        <ele>764.6</ele>
        <time>2021-11-16 13:43:00</time>
      </trkpt>
      <trkpt lat="40.6176" lon="-3.72988">
        <ele>764.4</ele>
        <time>2021-11-16 13:43:01</time>
      </trkpt>
      <trkpt lat="40.61755" lon="-3.72986">
        <ele>764.4</ele>
        <time>2021-11-16 13:43:02</time>
      </trkpt>
      <trkpt lat="40.6175" lon="-3.72984">
        <ele>764.4</ele>
        <time>2021-11-16 13:43:03</time>
      </trkpt>
      <trkpt lat="40.61745" lon="-3.72983">
        <ele>764.6</ele>
        <time>2021-11-16 13:43:04</time>
      </trkpt>
      <trkpt lat="40.6174" lon="-3.72981">
        <ele>764.4</ele>
        <time>2021-11-16 13:43:05</time>
      </trkpt>
      <trkpt lat="40.61734" lon="-3.72978">
        <ele>764.4</ele>
        <time>2021-11-16 13:43:06</time>
      </trkpt>
      <trkpt lat="40.61729" lon="-3.72975">
        <ele>764.6</ele>
        <time>2021-11-16 13:43:07</time>
      </trkpt>
      <trkpt lat="40.61723" lon="-3.72972">
        <ele>764.6</ele>
        <time>2021-11-16 13:43:08</time>
      </trkpt>
      <trkpt lat="40.61717" lon="-3.72969">
        <ele>764.6</ele>
        <time>2021-11-16 13:43:09</time>
      </trkpt>
      <trkpt lat="40.61711" lon="-3.72967">
        <ele>765</ele>
        <time>2021-11-16 13:43:10</time>
      </trkpt>
      <trkpt lat="40.61704" lon="-3.72964">
        <ele>765</ele>
        <time>2021-11-16 13:43:11</time>
      </trkpt>
      <trkpt lat="40.61698" lon="-3.72961">
        <ele>765</ele>
        <time>2021-11-16 13:43:12</time>
      </trkpt>
      <trkpt lat="40.61691" lon="-3.72959">
        <ele>765.2</ele>
        <time>2021-11-16 13:43:13</time>
      </trkpt>
      <trkpt lat="40.61684" lon="-3.72957">
        <ele>765.4</ele>
        <time>2021-11-16 13:43:14</time>
      </trkpt>
      <trkpt lat="40.61677" lon="-3.72954">
        <ele>765.4</ele>
        <time>2021-11-16 13:43:15</time>
      </trkpt>
      <trkpt lat="40.61671" lon="-3.72949">
        <ele>765.4</ele>
        <time>2021-11-16 13:43:16</time>
      </trkpt>
      <trkpt lat="40.61665" lon="-3.72945">
        <ele>765.4</ele>
        <time>2021-11-16 13:43:17</time>
      </trkpt>
      <trkpt lat="40.61659" lon="-3.72941">
        <ele>765.4</ele>
        <time>2021-11-16 13:43:18</time>
      </trkpt>
      <trkpt lat="40.61653" lon="-3.72938">
        <ele>765.4</ele>
        <time>2021-11-16 13:43:19</time>
      </trkpt>
      <trkpt lat="40.61646" lon="-3.72934">
        <ele>765.4</ele>
        <time>2021-11-16 13:43:20</time>
      </trkpt>
      <trkpt lat="40.61641" lon="-3.72929">
        <ele>765.4</ele>
        <time>2021-11-16 13:43:21</time>
      </trkpt>
      <trkpt lat="40.61635" lon="-3.72923">
        <ele>765.2</ele>
        <time>2021-11-16 13:43:22</time>
      </trkpt>
      <trkpt lat="40.61629" lon="-3.72919">
        <ele>765</ele>
        <time>2021-11-16 13:43:23</time>
      </trkpt>
      <trkpt lat="40.61623" lon="-3.72915">
        <ele>765</ele>
        <time>2021-11-16 13:43:24</time>
      </trkpt>
      <trkpt lat="40.61617" lon="-3.72911">
        <ele>764.8</ele>
        <time>2021-11-16 13:43:25</time>
      </trkpt>
      <trkpt lat="40.61611" lon="-3.72907">
        <ele>764.6</ele>
        <time>2021-11-16 13:43:26</time>
      </trkpt>
      <trkpt lat="40.61605" lon="-3.72902">
        <ele>764.6</ele>
        <time>2021-11-16 13:43:27</time>
      </trkpt>
      <trkpt lat="40.61599" lon="-3.72898">
        <ele>764.4</ele>
        <time>2021-11-16 13:43:28</time>
      </trkpt>
      <trkpt lat="40.61593" lon="-3.72893">
        <ele>764</ele>
        <time>2021-11-16 13:43:29</time>
      </trkpt>
      <trkpt lat="40.61587" lon="-3.72888">
        <ele>763.8</ele>
        <time>2021-11-16 13:43:30</time>
      </trkpt>
      <trkpt lat="40.61582" lon="-3.72882">
        <ele>763.8</ele>
        <time>2021-11-16 13:43:31</time>
      </trkpt>
      <trkpt lat="40.61576" lon="-3.72876">
        <ele>763.8</ele>
        <time>2021-11-16 13:43:32</time>
      </trkpt>
      <trkpt lat="40.61571" lon="-3.7287">
        <ele>763.6</ele>
        <time>2021-11-16 13:43:33</time>
      </trkpt>
      <trkpt lat="40.61566" lon="-3.72864">
        <ele>763.6</ele>
        <time>2021-11-16 13:43:34</time>
      </trkpt>
      <trkpt lat="40.61561" lon="-3.72857">
        <ele>763.6</ele>
        <time>2021-11-16 13:43:35</time>
      </trkpt>
      <trkpt lat="40.61556" lon="-3.72851">
        <ele>763.6</ele>
        <time>2021-11-16 13:43:36</time>
      </trkpt>
      <trkpt lat="40.61551" lon="-3.72844">
        <ele>763.6</ele>
        <time>2021-11-16 13:43:37</time>
      </trkpt>
      <trkpt lat="40.61547" lon="-3.72837">
        <ele>763.6</ele>
        <time>2021-11-16 13:43:38</time>
      </trkpt>
      <trkpt lat="40.61542" lon="-3.72829">
        <ele>763.4</ele>
        <time>2021-11-16 13:43:39</time>
      </trkpt>
      <trkpt lat="40.61538" lon="-3.72822">
        <ele>763.2</ele>
        <time>2021-11-16 13:43:40</time>
      </trkpt>
      <trkpt lat="40.61534" lon="-3.72814">
        <ele>763.2</ele>
        <time>2021-11-16 13:43:41</time>
      </trkpt>
      <trkpt lat="40.6153" lon="-3.72807">
        <ele>763.2</ele>
        <time>2021-11-16 13:43:42</time>
      </trkpt>
      <trkpt lat="40.61527" lon="-3.72798">
        <ele>763.2</ele>
        <time>2021-11-16 13:43:43</time>
      </trkpt>
      <trkpt lat="40.61523" lon="-3.7279">
        <ele>763</ele>
        <time>2021-11-16 13:43:44</time>
      </trkpt>
      <trkpt lat="40.6152" lon="-3.72782">
        <ele>762.8</ele>
        <time>2021-11-16 13:43:45</time>
      </trkpt>
      <trkpt lat="40.61517" lon="-3.72774">
        <ele>762.6</ele>
        <time>2021-11-16 13:43:46</time>
      </trkpt>
      <trkpt lat="40.61513" lon="-3.72765">
        <ele>762.2</ele>
        <time>2021-11-16 13:43:47</time>
      </trkpt>
      <trkpt lat="40.6151" lon="-3.72757">
        <ele>762.2</ele>
        <time>2021-11-16 13:43:48</time>
      </trkpt>
      <trkpt lat="40.61505" lon="-3.7275">
        <ele>762.2</ele>
        <time>2021-11-16 13:43:49</time>
      </trkpt>
      <trkpt lat="40.61499" lon="-3.72744">
        <ele>762.2</ele>
        <time>2021-11-16 13:43:50</time>
      </trkpt>
      <trkpt lat="40.61492" lon="-3.72739">
        <ele>762.2</ele>
        <time>2021-11-16 13:43:51</time>
      </trkpt>
      <trkpt lat="40.61485" lon="-3.72736">
        <ele>762.2</ele>
        <time>2021-11-16 13:43:52</time>
      </trkpt>
      <trkpt lat="40.61477" lon="-3.72734">
        <ele>762.2</ele>
        <time>2021-11-16 13:43:53</time>
      </trkpt>
      <trkpt lat="40.6147" lon="-3.72731">
        <ele>761.8</ele>
        <time>2021-11-16 13:43:54</time>
      </trkpt>
      <trkpt lat="40.61462" lon="-3.72729">
        <ele>762</ele>
        <time>2021-11-16 13:43:55</time>
      </trkpt>
      <trkpt lat="40.61454" lon="-3.72726">
        <ele>761.8</ele>
        <time>2021-11-16 13:43:56</time>
      </trkpt>
      <trkpt lat="40.61447" lon="-3.72724">
        <ele>761.4</ele>
        <time>2021-11-16 13:43:57</time>
      </trkpt>
      <trkpt lat="40.6144" lon="-3.72721">
        <ele>761</ele>
        <time>2021-11-16 13:43:58</time>
      </trkpt>
      <trkpt lat="40.61433" lon="-3.72717">
        <ele>761</ele>
        <time>2021-11-16 13:43:59</time>
      </trkpt>
      <trkpt lat="40.61428" lon="-3.72712">
        <ele>761</ele>
        <time>2021-11-16 13:44:00</time>
      </trkpt>
      <trkpt lat="40.61423" lon="-3.72705">
        <ele>760.8</ele>
        <time>2021-11-16 13:44:01</time>
      </trkpt>
      <trkpt lat="40.61421" lon="-3.72697">
        <ele>760.8</ele>
        <time>2021-11-16 13:44:02</time>
      </trkpt>
      <trkpt lat="40.6142" lon="-3.72689">
        <ele>760.8</ele>
        <time>2021-11-16 13:44:03</time>
      </trkpt>
      <trkpt lat="40.6142" lon="-3.72681">
        <ele>761.4</ele>
        <time>2021-11-16 13:44:04</time>
      </trkpt>
      <trkpt lat="40.61421" lon="-3.72672">
        <ele>761.6</ele>
        <time>2021-11-16 13:44:05</time>
      </trkpt>
      <trkpt lat="40.61423" lon="-3.72664">
        <ele>761.8</ele>
        <time>2021-11-16 13:44:06</time>
      </trkpt>
      <trkpt lat="40.61424" lon="-3.72655">
        <ele>761.8</ele>
        <time>2021-11-16 13:44:07</time>
      </trkpt>
      <trkpt lat="40.61426" lon="-3.72646">
        <ele>761.8</ele>
        <time>2021-11-16 13:44:08</time>
      </trkpt>
      <trkpt lat="40.61427" lon="-3.72637">
        <ele>762</ele>
        <time>2021-11-16 13:44:09</time>
      </trkpt>
      <trkpt lat="40.61428" lon="-3.72628">
        <ele>761.8</ele>
        <time>2021-11-16 13:44:10</time>
      </trkpt>
      <trkpt lat="40.61429" lon="-3.72618">
        <ele>761.8</ele>
        <time>2021-11-16 13:44:11</time>
      </trkpt>
      <trkpt lat="40.61429" lon="-3.72607">
        <ele>762</ele>
        <time>2021-11-16 13:44:12</time>
      </trkpt>
      <trkpt lat="40.61428" lon="-3.72597">
        <ele>761.8</ele>
        <time>2021-11-16 13:44:13</time>
      </trkpt>
      <trkpt lat="40.61425" lon="-3.72586">
        <ele>761.8</ele>
        <time>2021-11-16 13:44:14</time>
      </trkpt>
      <trkpt lat="40.61421" lon="-3.72575">
        <ele>761.8</ele>
        <time>2021-11-16 13:44:15</time>
      </trkpt>
      <trkpt lat="40.61416" lon="-3.72565">
        <ele>761.8</ele>
        <time>2021-11-16 13:44:16</time>
      </trkpt>
      <trkpt lat="40.61409" lon="-3.72555">
        <ele>761.8</ele>
        <time>2021-11-16 13:44:17</time>
      </trkpt>
      <trkpt lat="40.61402" lon="-3.72546">
        <ele>761.8</ele>
        <time>2021-11-16 13:44:18</time>
      </trkpt>
      <trkpt lat="40.61394" lon="-3.72537">
        <ele>761.8</ele>
        <time>2021-11-16 13:44:19</time>
      </trkpt>
      <trkpt lat="40.61386" lon="-3.72528">
        <ele>761.8</ele>
        <time>2021-11-16 13:44:20</time>
      </trkpt>
      <trkpt lat="40.61377" lon="-3.7252">
        <ele>761.2</ele>
        <time>2021-11-16 13:44:21</time>
      </trkpt>
      <trkpt lat="40.61368" lon="-3.72512">
        <ele>760.2</ele>
        <time>2021-11-16 13:44:22</time>
      </trkpt>
      <trkpt lat="40.61358" lon="-3.72504">
        <ele>759</ele>
        <time>2021-11-16 13:44:23</time>
      </trkpt>
      <trkpt lat="40.61349" lon="-3.72496">
        <ele>758.2</ele>
        <time>2021-11-16 13:44:24</time>
      </trkpt>
      <trkpt lat="40.61339" lon="-3.72488">
        <ele>756.6</ele>
        <time>2021-11-16 13:44:25</time>
      </trkpt>
      <trkpt lat="40.61329" lon="-3.7248">
        <ele>755.8</ele>
        <time>2021-11-16 13:44:26</time>
      </trkpt>
      <trkpt lat="40.6132" lon="-3.72472">
        <ele>754.8</ele>
        <time>2021-11-16 13:44:27</time>
      </trkpt>
      <trkpt lat="40.6131" lon="-3.72465">
        <ele>754.4</ele>
        <time>2021-11-16 13:44:28</time>
      </trkpt>
      <trkpt lat="40.61301" lon="-3.72458">
        <ele>752.8</ele>
        <time>2021-11-16 13:44:29</time>
      </trkpt>
      <trkpt lat="40.61292" lon="-3.72451">
        <ele>751.6</ele>
        <time>2021-11-16 13:44:30</time>
      </trkpt>
      <trkpt lat="40.61284" lon="-3.72444">
        <ele>750.8</ele>
        <time>2021-11-16 13:44:31</time>
      </trkpt>
      <trkpt lat="40.61275" lon="-3.72438">
        <ele>749.8</ele>
        <time>2021-11-16 13:44:32</time>
      </trkpt>
      <trkpt lat="40.61267" lon="-3.72432">
        <ele>749.4</ele>
        <time>2021-11-16 13:44:33</time>
      </trkpt>
      <trkpt lat="40.61259" lon="-3.72425">
        <ele>749.2</ele>
        <time>2021-11-16 13:44:34</time>
      </trkpt>
      <trkpt lat="40.61251" lon="-3.72419">
        <ele>749</ele>
        <time>2021-11-16 13:44:35</time>
      </trkpt>
      <trkpt lat="40.61244" lon="-3.72413">
        <ele>749</ele>
        <time>2021-11-16 13:44:36</time>
      </trkpt>
      <trkpt lat="40.61237" lon="-3.72407">
        <ele>748.8</ele>
        <time>2021-11-16 13:44:37</time>
      </trkpt>
      <trkpt lat="40.6123" lon="-3.72401">
        <ele>748.8</ele>
        <time>2021-11-16 13:44:38</time>
      </trkpt>
      <trkpt lat="40.61223" lon="-3.72395">
        <ele>748.8</ele>
        <time>2021-11-16 13:44:39</time>
      </trkpt>
      <trkpt lat="40.61215" lon="-3.7239">
        <ele>749</ele>
        <time>2021-11-16 13:44:40</time>
      </trkpt>
      <trkpt lat="40.61209" lon="-3.72386">
        <ele>749</ele>
        <time>2021-11-16 13:44:41</time>
      </trkpt>
      <trkpt lat="40.61202" lon="-3.72381">
        <ele>749</ele>
        <time>2021-11-16 13:44:42</time>
      </trkpt>
      <trkpt lat="40.61196" lon="-3.72375">
        <ele>749.2</ele>
        <time>2021-11-16 13:44:43</time>
      </trkpt>
      <trkpt lat="40.61191" lon="-3.72371">
        <ele>749.4</ele>
        <time>2021-11-16 13:44:44</time>
      </trkpt>
      <trkpt lat="40.61185" lon="-3.72366">
        <ele>749.6</ele>
        <time>2021-11-16 13:44:45</time>
      </trkpt>
      <trkpt lat="40.61179" lon="-3.72362">
        <ele>749.8</ele>
        <time>2021-11-16 13:44:46</time>
      </trkpt>
      <trkpt lat="40.61174" lon="-3.72359">
        <ele>749.8</ele>
        <time>2021-11-16 13:44:47</time>
      </trkpt>
      <trkpt lat="40.61168" lon="-3.72356">
        <ele>750</ele>
        <time>2021-11-16 13:44:48</time>
      </trkpt>
      <trkpt lat="40.61163" lon="-3.72353">
        <ele>750.2</ele>
        <time>2021-11-16 13:44:49</time>
      </trkpt>
      <trkpt lat="40.61158" lon="-3.72349">
        <ele>750.4</ele>
        <time>2021-11-16 13:44:50</time>
      </trkpt>
      <trkpt lat="40.61153" lon="-3.72346">
        <ele>751.2</ele>
        <time>2021-11-16 13:44:51</time>
      </trkpt>
      <trkpt lat="40.61148" lon="-3.72344">
        <ele>751.6</ele>
        <time>2021-11-16 13:44:52</time>
      </trkpt>
      <trkpt lat="40.61142" lon="-3.72341">
        <ele>752</ele>
        <time>2021-11-16 13:44:53</time>
      </trkpt>
      <trkpt lat="40.61137" lon="-3.72338">
        <ele>752.4</ele>
        <time>2021-11-16 13:44:54</time>
      </trkpt>
      <trkpt lat="40.61131" lon="-3.72336">
        <ele>752.6</ele>
        <time>2021-11-16 13:44:55</time>
      </trkpt>
      <trkpt lat="40.61126" lon="-3.72334">
        <ele>753</ele>
        <time>2021-11-16 13:44:56</time>
      </trkpt>
      <trkpt lat="40.61121" lon="-3.72331">
        <ele>753.6</ele>
        <time>2021-11-16 13:44:57</time>
      </trkpt>
      <trkpt lat="40.61115" lon="-3.72328">
        <ele>753.8</ele>
        <time>2021-11-16 13:44:58</time>
      </trkpt>
      <trkpt lat="40.6111" lon="-3.72325">
        <ele>754.6</ele>
        <time>2021-11-16 13:44:59</time>
      </trkpt>
      <trkpt lat="40.61104" lon="-3.72321">
        <ele>754.6</ele>
        <time>2021-11-16 13:45:00</time>
      </trkpt>
      <trkpt lat="40.61098" lon="-3.72317">
        <ele>755</ele>
        <time>2021-11-16 13:45:01</time>
      </trkpt>
      <trkpt lat="40.61092" lon="-3.72313">
        <ele>755</ele>
        <time>2021-11-16 13:45:02</time>
      </trkpt>
      <trkpt lat="40.61086" lon="-3.72309">
        <ele>755</ele>
        <time>2021-11-16 13:45:03</time>
      </trkpt>
      <trkpt lat="40.61079" lon="-3.72305">
        <ele>755</ele>
        <time>2021-11-16 13:45:04</time>
      </trkpt>
      <trkpt lat="40.61072" lon="-3.72302">
        <ele>755</ele>
        <time>2021-11-16 13:45:05</time>
      </trkpt>
      <trkpt lat="40.61066" lon="-3.72298">
        <ele>755.2</ele>
        <time>2021-11-16 13:45:06</time>
      </trkpt>
      <trkpt lat="40.6106" lon="-3.72293">
        <ele>755.2</ele>
        <time>2021-11-16 13:45:07</time>
      </trkpt>
      <trkpt lat="40.61055" lon="-3.72287">
        <ele>755.2</ele>
        <time>2021-11-16 13:45:08</time>
      </trkpt>
      <trkpt lat="40.6105" lon="-3.7228">
        <ele>755</ele>
        <time>2021-11-16 13:45:09</time>
      </trkpt>
      <trkpt lat="40.61046" lon="-3.72272">
        <ele>755</ele>
        <time>2021-11-16 13:45:10</time>
      </trkpt>
      <trkpt lat="40.61042" lon="-3.72265">
        <ele>754.8</ele>
        <time>2021-11-16 13:45:11</time>
      </trkpt>
      <trkpt lat="40.61037" lon="-3.7226">
        <ele>754.8</ele>
        <time>2021-11-16 13:45:12</time>
      </trkpt>
      <trkpt lat="40.61032" lon="-3.72255">
        <ele>754.6</ele>
        <time>2021-11-16 13:45:13</time>
      </trkpt>
      <trkpt lat="40.61027" lon="-3.72251">
        <ele>754.6</ele>
        <time>2021-11-16 13:45:14</time>
      </trkpt>
      <trkpt lat="40.61022" lon="-3.72246">
        <ele>754.8</ele>
        <time>2021-11-16 13:45:15</time>
      </trkpt>
      <trkpt lat="40.61018" lon="-3.72242">
        <ele>754.8</ele>
        <time>2021-11-16 13:45:16</time>
      </trkpt>
      <trkpt lat="40.61014" lon="-3.72238">
        <ele>754.8</ele>
        <time>2021-11-16 13:45:17</time>
      </trkpt>
      <trkpt lat="40.6101" lon="-3.72235">
        <ele>754.8</ele>
        <time>2021-11-16 13:45:18</time>
      </trkpt>
      <trkpt lat="40.61007" lon="-3.72231">
        <ele>754.6</ele>
        <time>2021-11-16 13:45:19</time>
      </trkpt>
      <trkpt lat="40.61004" lon="-3.72226">
        <ele>754.6</ele>
        <time>2021-11-16 13:45:20</time>
      </trkpt>
      <trkpt lat="40.61001" lon="-3.72222">
        <ele>754.8</ele>
        <time>2021-11-16 13:45:21</time>
      </trkpt>
      <trkpt lat="40.60999" lon="-3.72218">
        <ele>754.8</ele>
        <time>2021-11-16 13:45:22</time>
      </trkpt>
      <trkpt lat="40.60996" lon="-3.72214">
        <ele>755.4</ele>
        <time>2021-11-16 13:45:23</time>
      </trkpt>
      <trkpt lat="40.60993" lon="-3.7221">
        <ele>756.2</ele>
        <time>2021-11-16 13:45:24</time>
      </trkpt>
      <trkpt lat="40.60989" lon="-3.72206">
        <ele>757</ele>
        <time>2021-11-16 13:45:25</time>
      </trkpt>
      <trkpt lat="40.60986" lon="-3.72202">
        <ele>757.6</ele>
        <time>2021-11-16 13:45:26</time>
      </trkpt>
      <trkpt lat="40.60982" lon="-3.72198">
        <ele>758</ele>
        <time>2021-11-16 13:45:27</time>
      </trkpt>
      <trkpt lat="40.60978" lon="-3.72195">
        <ele>758.4</ele>
        <time>2021-11-16 13:45:28</time>
      </trkpt>
      <trkpt lat="40.60973" lon="-3.72191">
        <ele>758.6</ele>
        <time>2021-11-16 13:45:29</time>
      </trkpt>
      <trkpt lat="40.60968" lon="-3.72188">
        <ele>758.4</ele>
        <time>2021-11-16 13:45:30</time>
      </trkpt>
      <trkpt lat="40.60963" lon="-3.72185">
        <ele>758.6</ele>
        <time>2021-11-16 13:45:31</time>
      </trkpt>
      <trkpt lat="40.60957" lon="-3.72182">
        <ele>758.8</ele>
        <time>2021-11-16 13:45:32</time>
      </trkpt>
      <trkpt lat="40.60951" lon="-3.72179">
        <ele>759</ele>
        <time>2021-11-16 13:45:33</time>
      </trkpt>
      <trkpt lat="40.60945" lon="-3.72177">
        <ele>759</ele>
        <time>2021-11-16 13:45:34</time>
      </trkpt>
      <trkpt lat="40.6094" lon="-3.72175">
        <ele>759.2</ele>
        <time>2021-11-16 13:45:35</time>
      </trkpt>
      <trkpt lat="40.60935" lon="-3.72175">
        <ele>759.2</ele>
        <time>2021-11-16 13:45:36</time>
      </trkpt>
      <trkpt lat="40.60931" lon="-3.72175">
        <ele>759.4</ele>
        <time>2021-11-16 13:45:37</time>
      </trkpt>
      <trkpt lat="40.60926" lon="-3.72175">
        <ele>759.4</ele>
        <time>2021-11-16 13:45:38</time>
      </trkpt>
      <trkpt lat="40.60922" lon="-3.72175">
        <ele>759.4</ele>
        <time>2021-11-16 13:45:39</time>
      </trkpt>
      <trkpt lat="40.60918" lon="-3.72175">
        <ele>759.6</ele>
        <time>2021-11-16 13:45:40</time>
      </trkpt>
      <trkpt lat="40.60915" lon="-3.72175">
        <ele>759.8</ele>
        <time>2021-11-16 13:45:41</time>
      </trkpt>
      <trkpt lat="40.60911" lon="-3.72174">
        <ele>759.8</ele>
        <time>2021-11-16 13:45:42</time>
      </trkpt>
      <trkpt lat="40.60907" lon="-3.72174">
        <ele>760</ele>
        <time>2021-11-16 13:45:43</time>
      </trkpt>
      <trkpt lat="40.60902" lon="-3.72174">
        <ele>760.2</ele>
        <time>2021-11-16 13:45:44</time>
      </trkpt>
      <trkpt lat="40.60898" lon="-3.72173">
        <ele>760.8</ele>
        <time>2021-11-16 13:45:45</time>
      </trkpt>
      <trkpt lat="40.60894" lon="-3.72172">
        <ele>761.6</ele>
        <time>2021-11-16 13:45:46</time>
      </trkpt>
      <trkpt lat="40.6089" lon="-3.72172">
        <ele>762.2</ele>
        <time>2021-11-16 13:45:47</time>
      </trkpt>
      <trkpt lat="40.60885" lon="-3.72171">
        <ele>762.6</ele>
        <time>2021-11-16 13:45:48</time>
      </trkpt>
      <trkpt lat="40.60881" lon="-3.72171">
        <ele>762.8</ele>
        <time>2021-11-16 13:45:49</time>
      </trkpt>
      <trkpt lat="40.60877" lon="-3.7217">
        <ele>763.2</ele>
        <time>2021-11-16 13:45:50</time>
      </trkpt>
      <trkpt lat="40.60873" lon="-3.72169">
        <ele>763.4</ele>
        <time>2021-11-16 13:45:51</time>
      </trkpt>
      <trkpt lat="40.60869" lon="-3.72168">
        <ele>763.8</ele>
        <time>2021-11-16 13:45:52</time>
      </trkpt>
      <trkpt lat="40.60865" lon="-3.72167">
        <ele>763.8</ele>
        <time>2021-11-16 13:45:53</time>
      </trkpt>
      <trkpt lat="40.6086" lon="-3.72166">
        <ele>763.8</ele>
        <time>2021-11-16 13:45:54</time>
      </trkpt>
      <trkpt lat="40.60856" lon="-3.72165">
        <ele>764</ele>
        <time>2021-11-16 13:45:55</time>
      </trkpt>
      <trkpt lat="40.60851" lon="-3.72164">
        <ele>764.2</ele>
        <time>2021-11-16 13:45:56</time>
      </trkpt>
      <trkpt lat="40.60846" lon="-3.72164">
        <ele>764.2</ele>
        <time>2021-11-16 13:45:57</time>
      </trkpt>
      <trkpt lat="40.60842" lon="-3.72163">
        <ele>764</ele>
        <time>2021-11-16 13:45:58</time>
      </trkpt>
      <trkpt lat="40.60837" lon="-3.72163">
        <ele>764</ele>
        <time>2021-11-16 13:45:59</time>
      </trkpt>
      <trkpt lat="40.60832" lon="-3.72163">
        <ele>764</ele>
        <time>2021-11-16 13:46:00</time>
      </trkpt>
      <trkpt lat="40.60827" lon="-3.72161">
        <ele>764.2</ele>
        <time>2021-11-16 13:46:01</time>
      </trkpt>
      <trkpt lat="40.60822" lon="-3.72158">
        <ele>764.2</ele>
        <time>2021-11-16 13:46:02</time>
      </trkpt>
      <trkpt lat="40.60818" lon="-3.72153">
        <ele>764.2</ele>
        <time>2021-11-16 13:46:03</time>
      </trkpt>
      <trkpt lat="40.60813" lon="-3.72147">
        <ele>764.2</ele>
        <time>2021-11-16 13:46:04</time>
      </trkpt>
      <trkpt lat="40.60808" lon="-3.72141">
        <ele>764</ele>
        <time>2021-11-16 13:46:05</time>
      </trkpt>
      <trkpt lat="40.60802" lon="-3.72135">
        <ele>763.8</ele>
        <time>2021-11-16 13:46:06</time>
      </trkpt>
      <trkpt lat="40.60796" lon="-3.72129">
        <ele>763.6</ele>
        <time>2021-11-16 13:46:07</time>
      </trkpt>
      <trkpt lat="40.60789" lon="-3.72124">
        <ele>763.4</ele>
        <time>2021-11-16 13:46:08</time>
      </trkpt>
      <trkpt lat="40.60781" lon="-3.7212">
        <ele>763</ele>
        <time>2021-11-16 13:46:09</time>
      </trkpt>
      <trkpt lat="40.60772" lon="-3.72117">
        <ele>762.6</ele>
        <time>2021-11-16 13:46:10</time>
      </trkpt>
      <trkpt lat="40.60763" lon="-3.72115">
        <ele>761.8</ele>
        <time>2021-11-16 13:46:11</time>
      </trkpt>
      <trkpt lat="40.60753" lon="-3.72113">
        <ele>761.4</ele>
        <time>2021-11-16 13:46:12</time>
      </trkpt>
      <trkpt lat="40.60744" lon="-3.72112">
        <ele>761</ele>
        <time>2021-11-16 13:46:13</time>
      </trkpt>
      <trkpt lat="40.60735" lon="-3.72111">
        <ele>760.4</ele>
        <time>2021-11-16 13:46:14</time>
      </trkpt>
      <trkpt lat="40.60726" lon="-3.72114">
        <ele>760.2</ele>
        <time>2021-11-16 13:46:15</time>
      </trkpt>
      <trkpt lat="40.60718" lon="-3.7212">
        <ele>760.2</ele>
        <time>2021-11-16 13:46:16</time>
      </trkpt>
      <trkpt lat="40.60711" lon="-3.72125">
        <ele>759.6</ele>
        <time>2021-11-16 13:46:17</time>
      </trkpt>
      <trkpt lat="40.60703" lon="-3.72129">
        <ele>758.4</ele>
        <time>2021-11-16 13:46:18</time>
      </trkpt>
      <trkpt lat="40.60695" lon="-3.72132">
        <ele>757.2</ele>
        <time>2021-11-16 13:46:19</time>
      </trkpt>
      <trkpt lat="40.60687" lon="-3.72132">
        <ele>756.6</ele>
        <time>2021-11-16 13:46:20</time>
      </trkpt>
      <trkpt lat="40.6068" lon="-3.72132">
        <ele>755</ele>
        <time>2021-11-16 13:46:21</time>
      </trkpt>
      <trkpt lat="40.60672" lon="-3.72132">
        <ele>754.2</ele>
        <time>2021-11-16 13:46:22</time>
      </trkpt>
      <trkpt lat="40.60664" lon="-3.72131">
        <ele>753.6</ele>
        <time>2021-11-16 13:46:23</time>
      </trkpt>
      <trkpt lat="40.60657" lon="-3.7213">
        <ele>753.2</ele>
        <time>2021-11-16 13:46:24</time>
      </trkpt>
      <trkpt lat="40.60649" lon="-3.72129">
        <ele>753</ele>
        <time>2021-11-16 13:46:25</time>
      </trkpt>
      <trkpt lat="40.60642" lon="-3.72128">
        <ele>753</ele>
        <time>2021-11-16 13:46:26</time>
      </trkpt>
      <trkpt lat="40.60635" lon="-3.72127">
        <ele>753</ele>
        <time>2021-11-16 13:46:27</time>
      </trkpt>
      <trkpt lat="40.60628" lon="-3.72126">
        <ele>753</ele>
        <time>2021-11-16 13:46:28</time>
      </trkpt>
      <trkpt lat="40.60621" lon="-3.72126">
        <ele>753</ele>
        <time>2021-11-16 13:46:29</time>
      </trkpt>
      <trkpt lat="40.60614" lon="-3.72125">
        <ele>753</ele>
        <time>2021-11-16 13:46:30</time>
      </trkpt>
      <trkpt lat="40.60607" lon="-3.72124">
        <ele>752.8</ele>
        <time>2021-11-16 13:46:31</time>
      </trkpt>
      <trkpt lat="40.606" lon="-3.72123">
        <ele>752.8</ele>
        <time>2021-11-16 13:46:32</time>
      </trkpt>
      <trkpt lat="40.60593" lon="-3.72122">
        <ele>752.6</ele>
        <time>2021-11-16 13:46:33</time>
      </trkpt>
      <trkpt lat="40.60586" lon="-3.72121">
        <ele>752.8</ele>
        <time>2021-11-16 13:46:34</time>
      </trkpt>
      <trkpt lat="40.60579" lon="-3.7212">
        <ele>752.8</ele>
        <time>2021-11-16 13:46:35</time>
      </trkpt>
      <trkpt lat="40.60572" lon="-3.7212">
        <ele>753</ele>
        <time>2021-11-16 13:46:36</time>
      </trkpt>
      <trkpt lat="40.60565" lon="-3.72118">
        <ele>753.4</ele>
        <time>2021-11-16 13:46:37</time>
      </trkpt>
      <trkpt lat="40.60558" lon="-3.72117">
        <ele>753.6</ele>
        <time>2021-11-16 13:46:38</time>
      </trkpt>
      <trkpt lat="40.60551" lon="-3.72116">
        <ele>753.8</ele>
        <time>2021-11-16 13:46:39</time>
      </trkpt>
      <trkpt lat="40.60543" lon="-3.72115">
        <ele>754.2</ele>
        <time>2021-11-16 13:46:40</time>
      </trkpt>
      <trkpt lat="40.60536" lon="-3.72115">
        <ele>754.4</ele>
        <time>2021-11-16 13:46:41</time>
      </trkpt>
      <trkpt lat="40.60529" lon="-3.72114">
        <ele>754.6</ele>
        <time>2021-11-16 13:46:42</time>
      </trkpt>
      <trkpt lat="40.60521" lon="-3.72113">
        <ele>754.6</ele>
        <time>2021-11-16 13:46:43</time>
      </trkpt>
      <trkpt lat="40.60514" lon="-3.72112">
        <ele>754.8</ele>
        <time>2021-11-16 13:46:44</time>
      </trkpt>
      <trkpt lat="40.60507" lon="-3.72112">
        <ele>754.8</ele>
        <time>2021-11-16 13:46:45</time>
      </trkpt>
      <trkpt lat="40.60499" lon="-3.72111">
        <ele>754.8</ele>
        <time>2021-11-16 13:46:46</time>
      </trkpt>
      <trkpt lat="40.60492" lon="-3.7211">
        <ele>754.6</ele>
        <time>2021-11-16 13:46:47</time>
      </trkpt>
      <trkpt lat="40.60484" lon="-3.72109">
        <ele>754.8</ele>
        <time>2021-11-16 13:46:48</time>
      </trkpt>
      <trkpt lat="40.60477" lon="-3.72108">
        <ele>754.2</ele>
        <time>2021-11-16 13:46:49</time>
      </trkpt>
      <trkpt lat="40.60469" lon="-3.72107">
        <ele>754</ele>
        <time>2021-11-16 13:46:50</time>
      </trkpt>
      <trkpt lat="40.60462" lon="-3.72106">
        <ele>754</ele>
        <time>2021-11-16 13:46:51</time>
      </trkpt>
      <trkpt lat="40.60454" lon="-3.72105">
        <ele>753.8</ele>
        <time>2021-11-16 13:46:52</time>
      </trkpt>
      <trkpt lat="40.60447" lon="-3.72104">
        <ele>753.8</ele>
        <time>2021-11-16 13:46:53</time>
      </trkpt>
      <trkpt lat="40.60439" lon="-3.72103">
        <ele>753.8</ele>
        <time>2021-11-16 13:46:54</time>
      </trkpt>
      <trkpt lat="40.60432" lon="-3.72102">
        <ele>753.6</ele>
        <time>2021-11-16 13:46:55</time>
      </trkpt>
      <trkpt lat="40.60424" lon="-3.72102">
        <ele>753.8</ele>
        <time>2021-11-16 13:46:56</time>
      </trkpt>
      <trkpt lat="40.60417" lon="-3.72101">
        <ele>753.8</ele>
        <time>2021-11-16 13:46:57</time>
      </trkpt>
      <trkpt lat="40.60409" lon="-3.721">
        <ele>753.6</ele>
        <time>2021-11-16 13:46:58</time>
      </trkpt>
      <trkpt lat="40.60402" lon="-3.721">
        <ele>753.4</ele>
        <time>2021-11-16 13:46:59</time>
      </trkpt>
      <trkpt lat="40.60394" lon="-3.72099">
        <ele>753.2</ele>
        <time>2021-11-16 13:47:00</time>
      </trkpt>
      <trkpt lat="40.60387" lon="-3.72098">
        <ele>753.2</ele>
        <time>2021-11-16 13:47:01</time>
      </trkpt>
      <trkpt lat="40.60379" lon="-3.72097">
        <ele>753.2</ele>
        <time>2021-11-16 13:47:02</time>
      </trkpt>
      <trkpt lat="40.60372" lon="-3.72096">
        <ele>753.2</ele>
        <time>2021-11-16 13:47:03</time>
      </trkpt>
      <trkpt lat="40.60364" lon="-3.72095">
        <ele>753.2</ele>
        <time>2021-11-16 13:47:04</time>
      </trkpt>
      <trkpt lat="40.60357" lon="-3.72094">
        <ele>753.2</ele>
        <time>2021-11-16 13:47:05</time>
      </trkpt>
      <trkpt lat="40.6035" lon="-3.72093">
        <ele>753.2</ele>
        <time>2021-11-16 13:47:06</time>
      </trkpt>
      <trkpt lat="40.60342" lon="-3.72092">
        <ele>753.2</ele>
        <time>2021-11-16 13:47:07</time>
      </trkpt>
      <trkpt lat="40.60335" lon="-3.72091">
        <ele>753.2</ele>
        <time>2021-11-16 13:47:08</time>
      </trkpt>
      <trkpt lat="40.60327" lon="-3.7209">
        <ele>753.2</ele>
        <time>2021-11-16 13:47:09</time>
      </trkpt>
      <trkpt lat="40.6032" lon="-3.72089">
        <ele>753</ele>
        <time>2021-11-16 13:47:10</time>
      </trkpt>
      <trkpt lat="40.60313" lon="-3.72087">
        <ele>753.2</ele>
        <time>2021-11-16 13:47:11</time>
      </trkpt>
      <trkpt lat="40.60305" lon="-3.72086">
        <ele>753</ele>
        <time>2021-11-16 13:47:12</time>
      </trkpt>
      <trkpt lat="40.60298" lon="-3.72085">
        <ele>753</ele>
        <time>2021-11-16 13:47:13</time>
      </trkpt>
      <trkpt lat="40.6029" lon="-3.72083">
        <ele>753.2</ele>
        <time>2021-11-16 13:47:14</time>
      </trkpt>
      <trkpt lat="40.60283" lon="-3.72082">
        <ele>753.2</ele>
        <time>2021-11-16 13:47:15</time>
      </trkpt>
      <trkpt lat="40.60275" lon="-3.72081">
        <ele>753</ele>
        <time>2021-11-16 13:47:16</time>
      </trkpt>
      <trkpt lat="40.60268" lon="-3.7208">
        <ele>753</ele>
        <time>2021-11-16 13:47:17</time>
      </trkpt>
      <trkpt lat="40.6026" lon="-3.72078">
        <ele>752.8</ele>
        <time>2021-11-16 13:47:18</time>
      </trkpt>
      <trkpt lat="40.60253" lon="-3.72077">
        <ele>752.8</ele>
        <time>2021-11-16 13:47:19</time>
      </trkpt>
      <trkpt lat="40.60245" lon="-3.72075">
        <ele>752.8</ele>
        <time>2021-11-16 13:47:20</time>
      </trkpt>
      <trkpt lat="40.60238" lon="-3.72074">
        <ele>752.8</ele>
        <time>2021-11-16 13:47:21</time>
      </trkpt>
      <trkpt lat="40.6023" lon="-3.72073">
        <ele>752.8</ele>
        <time>2021-11-16 13:47:22</time>
      </trkpt>
      <trkpt lat="40.60222" lon="-3.72071">
        <ele>752.8</ele>
        <time>2021-11-16 13:47:23</time>
      </trkpt>
      <trkpt lat="40.60215" lon="-3.7207">
        <ele>752.6</ele>
        <time>2021-11-16 13:47:24</time>
      </trkpt>
      <trkpt lat="40.60207" lon="-3.72069">
        <ele>752.6</ele>
        <time>2021-11-16 13:47:25</time>
      </trkpt>
      <trkpt lat="40.60199" lon="-3.72067">
        <ele>752.6</ele>
        <time>2021-11-16 13:47:26</time>
      </trkpt>
      <trkpt lat="40.60191" lon="-3.72066">
        <ele>752.6</ele>
        <time>2021-11-16 13:47:27</time>
      </trkpt>
      <trkpt lat="40.60183" lon="-3.72065">
        <ele>752.4</ele>
        <time>2021-11-16 13:47:28</time>
      </trkpt>
      <trkpt lat="40.60176" lon="-3.72063">
        <ele>752.4</ele>
        <time>2021-11-16 13:47:29</time>
      </trkpt>
      <trkpt lat="40.60168" lon="-3.72062">
        <ele>752.2</ele>
        <time>2021-11-16 13:47:30</time>
      </trkpt>
      <trkpt lat="40.6016" lon="-3.72061">
        <ele>752.2</ele>
        <time>2021-11-16 13:47:31</time>
      </trkpt>
      <trkpt lat="40.60152" lon="-3.72059">
        <ele>752.2</ele>
        <time>2021-11-16 13:47:32</time>
      </trkpt>
      <trkpt lat="40.60144" lon="-3.72058">
        <ele>752</ele>
        <time>2021-11-16 13:47:33</time>
      </trkpt>
      <trkpt lat="40.60136" lon="-3.72056">
        <ele>752</ele>
        <time>2021-11-16 13:47:34</time>
      </trkpt>
      <trkpt lat="40.60127" lon="-3.72055">
        <ele>752</ele>
        <time>2021-11-16 13:47:35</time>
      </trkpt>
      <trkpt lat="40.60119" lon="-3.72054">
        <ele>751.8</ele>
        <time>2021-11-16 13:47:36</time>
      </trkpt>
      <trkpt lat="40.60111" lon="-3.72053">
        <ele>751.8</ele>
        <time>2021-11-16 13:47:37</time>
      </trkpt>
      <trkpt lat="40.60102" lon="-3.72052">
        <ele>751.8</ele>
        <time>2021-11-16 13:47:38</time>
      </trkpt>
      <trkpt lat="40.60094" lon="-3.72051">
        <ele>751.8</ele>
        <time>2021-11-16 13:47:39</time>
      </trkpt>
      <trkpt lat="40.60086" lon="-3.72051">
        <ele>751.8</ele>
        <time>2021-11-16 13:47:40</time>
      </trkpt>
      <trkpt lat="40.60078" lon="-3.7205">
        <ele>751.6</ele>
        <time>2021-11-16 13:47:41</time>
      </trkpt>
      <trkpt lat="40.60071" lon="-3.72049">
        <ele>751.8</ele>
        <time>2021-11-16 13:47:42</time>
      </trkpt>
      <trkpt lat="40.60064" lon="-3.72047">
        <ele>751.6</ele>
        <time>2021-11-16 13:47:43</time>
      </trkpt>
      <trkpt lat="40.60057" lon="-3.72046">
        <ele>751.6</ele>
        <time>2021-11-16 13:47:44</time>
      </trkpt>
      <trkpt lat="40.6005" lon="-3.72045">
        <ele>751.6</ele>
        <time>2021-11-16 13:47:45</time>
      </trkpt>
      <trkpt lat="40.60044" lon="-3.72043">
        <ele>751.6</ele>
        <time>2021-11-16 13:47:46</time>
      </trkpt>
      <trkpt lat="40.60039" lon="-3.72042">
        <ele>751.8</ele>
        <time>2021-11-16 13:47:47</time>
      </trkpt>
      <trkpt lat="40.60033" lon="-3.7204">
        <ele>751.8</ele>
        <time>2021-11-16 13:47:48</time>
      </trkpt>
      <trkpt lat="40.60028" lon="-3.72039">
        <ele>751.6</ele>
        <time>2021-11-16 13:47:49</time>
      </trkpt>
      <trkpt lat="40.60022" lon="-3.72037">
        <ele>752</ele>
        <time>2021-11-16 13:47:50</time>
      </trkpt>
      <trkpt lat="40.60017" lon="-3.72035">
        <ele>752</ele>
        <time>2021-11-16 13:47:51</time>
      </trkpt>
      <trkpt lat="40.60011" lon="-3.72032">
        <ele>752.4</ele>
        <time>2021-11-16 13:47:52</time>
      </trkpt>
      <trkpt lat="40.60006" lon="-3.72029">
        <ele>753</ele>
        <time>2021-11-16 13:47:53</time>
      </trkpt>
      <trkpt lat="40.6" lon="-3.72027">
        <ele>753.4</ele>
        <time>2021-11-16 13:47:54</time>
      </trkpt>
      <trkpt lat="40.59994" lon="-3.72024">
        <ele>753.8</ele>
        <time>2021-11-16 13:47:55</time>
      </trkpt>
      <trkpt lat="40.59989" lon="-3.7202">
        <ele>754.2</ele>
        <time>2021-11-16 13:47:56</time>
      </trkpt>
      <trkpt lat="40.59983" lon="-3.72017">
        <ele>754.8</ele>
        <time>2021-11-16 13:47:57</time>
      </trkpt>
      <trkpt lat="40.59977" lon="-3.72014">
        <ele>755</ele>
        <time>2021-11-16 13:47:58</time>
      </trkpt>
      <trkpt lat="40.59971" lon="-3.7201">
        <ele>755.2</ele>
        <time>2021-11-16 13:47:59</time>
      </trkpt>
      <trkpt lat="40.59965" lon="-3.72007">
        <ele>755.4</ele>
        <time>2021-11-16 13:48:00</time>
      </trkpt>
      <trkpt lat="40.59959" lon="-3.72003">
        <ele>755.4</ele>
        <time>2021-11-16 13:48:01</time>
      </trkpt>
      <trkpt lat="40.59953" lon="-3.71999">
        <ele>755.2</ele>
        <time>2021-11-16 13:48:02</time>
      </trkpt>
      <trkpt lat="40.59947" lon="-3.71996">
        <ele>755.4</ele>
        <time>2021-11-16 13:48:03</time>
      </trkpt>
      <trkpt lat="40.5994" lon="-3.71992">
        <ele>755.4</ele>
        <time>2021-11-16 13:48:04</time>
      </trkpt>
      <trkpt lat="40.59934" lon="-3.71988">
        <ele>755.4</ele>
        <time>2021-11-16 13:48:05</time>
      </trkpt>
      <trkpt lat="40.59927" lon="-3.71985">
        <ele>755.4</ele>
        <time>2021-11-16 13:48:06</time>
      </trkpt>
      <trkpt lat="40.59921" lon="-3.71981">
        <ele>755.4</ele>
        <time>2021-11-16 13:48:07</time>
      </trkpt>
      <trkpt lat="40.59914" lon="-3.71977">
        <ele>755.4</ele>
        <time>2021-11-16 13:48:08</time>
      </trkpt>
      <trkpt lat="40.59907" lon="-3.71973">
        <ele>755.2</ele>
        <time>2021-11-16 13:48:09</time>
      </trkpt>
      <trkpt lat="40.599" lon="-3.71969">
        <ele>755.2</ele>
        <time>2021-11-16 13:48:10</time>
      </trkpt>
      <trkpt lat="40.59894" lon="-3.71965">
        <ele>755.2</ele>
        <time>2021-11-16 13:48:11</time>
      </trkpt>
      <trkpt lat="40.59887" lon="-3.71961">
        <ele>755</ele>
        <time>2021-11-16 13:48:12</time>
      </trkpt>
      <trkpt lat="40.5988" lon="-3.71957">
        <ele>754.8</ele>
        <time>2021-11-16 13:48:13</time>
      </trkpt>
      <trkpt lat="40.59874" lon="-3.71954">
        <ele>754.8</ele>
        <time>2021-11-16 13:48:14</time>
      </trkpt>
      <trkpt lat="40.59867" lon="-3.7195">
        <ele>754.6</ele>
        <time>2021-11-16 13:48:15</time>
      </trkpt>
      <trkpt lat="40.59861" lon="-3.71946">
        <ele>754.6</ele>
        <time>2021-11-16 13:48:16</time>
      </trkpt>
      <trkpt lat="40.59854" lon="-3.71941">
        <ele>754.4</ele>
        <time>2021-11-16 13:48:17</time>
      </trkpt>
      <trkpt lat="40.59848" lon="-3.71937">
        <ele>754.2</ele>
        <time>2021-11-16 13:48:18</time>
      </trkpt>
      <trkpt lat="40.59842" lon="-3.71933">
        <ele>754.4</ele>
        <time>2021-11-16 13:48:19</time>
      </trkpt>
      <trkpt lat="40.59836" lon="-3.71929">
        <ele>754.4</ele>
        <time>2021-11-16 13:48:20</time>
      </trkpt>
      <trkpt lat="40.5983" lon="-3.71925">
        <ele>754.2</ele>
        <time>2021-11-16 13:48:21</time>
      </trkpt>
      <trkpt lat="40.59824" lon="-3.71921">
        <ele>754.4</ele>
        <time>2021-11-16 13:48:22</time>
      </trkpt>
      <trkpt lat="40.59818" lon="-3.71916">
        <ele>754.4</ele>
        <time>2021-11-16 13:48:23</time>
      </trkpt>
      <trkpt lat="40.59812" lon="-3.71912">
        <ele>754.4</ele>
        <time>2021-11-16 13:48:24</time>
      </trkpt>
      <trkpt lat="40.59806" lon="-3.71908">
        <ele>754.2</ele>
        <time>2021-11-16 13:48:25</time>
      </trkpt>
      <trkpt lat="40.59801" lon="-3.71904">
        <ele>754.4</ele>
        <time>2021-11-16 13:48:26</time>
      </trkpt>
      <trkpt lat="40.59795" lon="-3.71899">
        <ele>754.4</ele>
        <time>2021-11-16 13:48:27</time>
      </trkpt>
      <trkpt lat="40.59789" lon="-3.71895">
        <ele>754.6</ele>
        <time>2021-11-16 13:48:28</time>
      </trkpt>
      <trkpt lat="40.59783" lon="-3.71891">
        <ele>754.6</ele>
        <time>2021-11-16 13:48:29</time>
      </trkpt>
      <trkpt lat="40.59778" lon="-3.71887">
        <ele>754.6</ele>
        <time>2021-11-16 13:48:30</time>
      </trkpt>
      <trkpt lat="40.59772" lon="-3.71883">
        <ele>754.8</ele>
        <time>2021-11-16 13:48:31</time>
      </trkpt>
      <trkpt lat="40.59768" lon="-3.71877">
        <ele>755.2</ele>
        <time>2021-11-16 13:48:32</time>
      </trkpt>
      <trkpt lat="40.59764" lon="-3.7187">
        <ele>755.2</ele>
        <time>2021-11-16 13:48:33</time>
      </trkpt>
      <trkpt lat="40.59762" lon="-3.71862">
        <ele>755.4</ele>
        <time>2021-11-16 13:48:34</time>
      </trkpt>
      <trkpt lat="40.5976" lon="-3.71853">
        <ele>755.6</ele>
        <time>2021-11-16 13:48:35</time>
      </trkpt>
      <trkpt lat="40.59757" lon="-3.71846">
        <ele>755.6</ele>
        <time>2021-11-16 13:48:36</time>
      </trkpt>
      <trkpt lat="40.59752" lon="-3.7184">
        <ele>755.6</ele>
        <time>2021-11-16 13:48:37</time>
      </trkpt>
      <trkpt lat="40.59746" lon="-3.71836">
        <ele>755.8</ele>
        <time>2021-11-16 13:48:38</time>
      </trkpt>
      <trkpt lat="40.59739" lon="-3.71835">
        <ele>755.8</ele>
        <time>2021-11-16 13:48:39</time>
      </trkpt>
      <trkpt lat="40.59732" lon="-3.71837">
        <ele>755.8</ele>
        <time>2021-11-16 13:48:40</time>
      </trkpt>
      <trkpt lat="40.59726" lon="-3.71843">
        <ele>755.6</ele>
        <time>2021-11-16 13:48:41</time>
      </trkpt>
      <trkpt lat="40.59721" lon="-3.7185">
        <ele>755.8</ele>
        <time>2021-11-16 13:48:42</time>
      </trkpt>
      <trkpt lat="40.59716" lon="-3.71857">
        <ele>755.8</ele>
        <time>2021-11-16 13:48:43</time>
      </trkpt>
      <trkpt lat="40.59711" lon="-3.71865">
        <ele>755.8</ele>
        <time>2021-11-16 13:48:44</time>
      </trkpt>
      <trkpt lat="40.59706" lon="-3.71872">
        <ele>755.8</ele>
        <time>2021-11-16 13:48:45</time>
      </trkpt>
      <trkpt lat="40.59701" lon="-3.71878">
        <ele>756</ele>
        <time>2021-11-16 13:48:46</time>
      </trkpt>
      <trkpt lat="40.59697" lon="-3.71884">
        <ele>755.8</ele>
        <time>2021-11-16 13:48:47</time>
      </trkpt>
      <trkpt lat="40.59692" lon="-3.71888">
        <ele>756</ele>
        <time>2021-11-16 13:48:48</time>
      </trkpt>
      <trkpt lat="40.59687" lon="-3.7189">
        <ele>756</ele>
        <time>2021-11-16 13:48:49</time>
      </trkpt>
      <trkpt lat="40.59683" lon="-3.7189">
        <ele>756.2</ele>
        <time>2021-11-16 13:48:50</time>
      </trkpt>
      <trkpt lat="40.59679" lon="-3.71889">
        <ele>756</ele>
        <time>2021-11-16 13:48:51</time>
      </trkpt>
      <trkpt lat="40.59675" lon="-3.71887">
        <ele>756.2</ele>
        <time>2021-11-16 13:48:52</time>
      </trkpt>
      <trkpt lat="40.59671" lon="-3.71884">
        <ele>756.2</ele>
        <time>2021-11-16 13:48:53</time>
      </trkpt>
      <trkpt lat="40.59668" lon="-3.7188">
        <ele>756</ele>
        <time>2021-11-16 13:48:54</time>
      </trkpt>
      <trkpt lat="40.59666" lon="-3.71875">
        <ele>756.2</ele>
        <time>2021-11-16 13:48:55</time>
      </trkpt>
      <trkpt lat="40.59664" lon="-3.7187">
        <ele>756.4</ele>
        <time>2021-11-16 13:48:56</time>
      </trkpt>
      <trkpt lat="40.59662" lon="-3.71865">
        <ele>756.8</ele>
        <time>2021-11-16 13:48:57</time>
      </trkpt>
      <trkpt lat="40.5966" lon="-3.7186">
        <ele>757.2</ele>
        <time>2021-11-16 13:48:58</time>
      </trkpt>
      <trkpt lat="40.59658" lon="-3.71854">
        <ele>758</ele>
        <time>2021-11-16 13:48:59</time>
      </trkpt>
      <trkpt lat="40.59657" lon="-3.71848">
        <ele>758.6</ele>
        <time>2021-11-16 13:49:00</time>
      </trkpt>
      <trkpt lat="40.59655" lon="-3.71841">
        <ele>759.2</ele>
        <time>2021-11-16 13:49:01</time>
      </trkpt>
      <trkpt lat="40.59654" lon="-3.71835">
        <ele>759.4</ele>
        <time>2021-11-16 13:49:02</time>
      </trkpt>
      <trkpt lat="40.59652" lon="-3.71829">
        <ele>759.8</ele>
        <time>2021-11-16 13:49:03</time>
      </trkpt>
      <trkpt lat="40.5965" lon="-3.71822">
        <ele>759.8</ele>
        <time>2021-11-16 13:49:04</time>
      </trkpt>
      <trkpt lat="40.59647" lon="-3.71816">
        <ele>760</ele>
        <time>2021-11-16 13:49:05</time>
      </trkpt>
      <trkpt lat="40.59644" lon="-3.71811">
        <ele>760</ele>
        <time>2021-11-16 13:49:06</time>
      </trkpt>
      <trkpt lat="40.5964" lon="-3.71805">
        <ele>760.2</ele>
        <time>2021-11-16 13:49:07</time>
      </trkpt>
      <trkpt lat="40.59638" lon="-3.71799">
        <ele>760.2</ele>
        <time>2021-11-16 13:49:08</time>
      </trkpt>
      <trkpt lat="40.59635" lon="-3.71793">
        <ele>760.2</ele>
        <time>2021-11-16 13:49:09</time>
      </trkpt>
      <trkpt lat="40.59633" lon="-3.71787">
        <ele>760.4</ele>
        <time>2021-11-16 13:49:10</time>
      </trkpt>
      <trkpt lat="40.59631" lon="-3.7178">
        <ele>760.6</ele>
        <time>2021-11-16 13:49:11</time>
      </trkpt>
      <trkpt lat="40.59629" lon="-3.71774">
        <ele>760.8</ele>
        <time>2021-11-16 13:49:12</time>
      </trkpt>
      <trkpt lat="40.59627" lon="-3.71767">
        <ele>760.8</ele>
        <time>2021-11-16 13:49:13</time>
      </trkpt>
      <trkpt lat="40.59625" lon="-3.71761">
        <ele>761</ele>
        <time>2021-11-16 13:49:14</time>
      </trkpt>
      <trkpt lat="40.59623" lon="-3.71754">
        <ele>761.2</ele>
        <time>2021-11-16 13:49:15</time>
      </trkpt>
      <trkpt lat="40.59622" lon="-3.71747">
        <ele>761.4</ele>
        <time>2021-11-16 13:49:16</time>
      </trkpt>
      <trkpt lat="40.5962" lon="-3.7174">
        <ele>761.4</ele>
        <time>2021-11-16 13:49:17</time>
      </trkpt>
      <trkpt lat="40.59619" lon="-3.71733">
        <ele>761.4</ele>
        <time>2021-11-16 13:49:18</time>
      </trkpt>
      <trkpt lat="40.59617" lon="-3.71726">
        <ele>761.6</ele>
        <time>2021-11-16 13:49:19</time>
      </trkpt>
      <trkpt lat="40.59615" lon="-3.71719">
        <ele>761.6</ele>
        <time>2021-11-16 13:49:20</time>
      </trkpt>
      <trkpt lat="40.59613" lon="-3.71712">
        <ele>761.6</ele>
        <time>2021-11-16 13:49:21</time>
      </trkpt>
      <trkpt lat="40.59611" lon="-3.71705">
        <ele>762</ele>
        <time>2021-11-16 13:49:22</time>
      </trkpt>
      <trkpt lat="40.59609" lon="-3.71698">
        <ele>762</ele>
        <time>2021-11-16 13:49:23</time>
      </trkpt>
      <trkpt lat="40.59607" lon="-3.71691">
        <ele>762.2</ele>
        <time>2021-11-16 13:49:24</time>
      </trkpt>
      <trkpt lat="40.59606" lon="-3.71684">
        <ele>762.4</ele>
        <time>2021-11-16 13:49:25</time>
      </trkpt>
      <trkpt lat="40.59604" lon="-3.71677">
        <ele>762.6</ele>
        <time>2021-11-16 13:49:26</time>
      </trkpt>
      <trkpt lat="40.59602" lon="-3.7167">
        <ele>762.6</ele>
        <time>2021-11-16 13:49:27</time>
      </trkpt>
      <trkpt lat="40.596" lon="-3.71663">
        <ele>762.6</ele>
        <time>2021-11-16 13:49:28</time>
      </trkpt>
      <trkpt lat="40.59598" lon="-3.71656">
        <ele>762.6</ele>
        <time>2021-11-16 13:49:29</time>
      </trkpt>
      <trkpt lat="40.59596" lon="-3.71649">
        <ele>762.6</ele>
        <time>2021-11-16 13:49:30</time>
      </trkpt>
      <trkpt lat="40.59594" lon="-3.71641">
        <ele>762.6</ele>
        <time>2021-11-16 13:49:31</time>
      </trkpt>
      <trkpt lat="40.59592" lon="-3.71634">
        <ele>762.6</ele>
        <time>2021-11-16 13:49:32</time>
      </trkpt>
      <trkpt lat="40.5959" lon="-3.71626">
        <ele>762.6</ele>
        <time>2021-11-16 13:49:33</time>
      </trkpt>
      <trkpt lat="40.59588" lon="-3.71618">
        <ele>762.6</ele>
        <time>2021-11-16 13:49:34</time>
      </trkpt>
      <trkpt lat="40.59586" lon="-3.7161">
        <ele>762.6</ele>
        <time>2021-11-16 13:49:35</time>
      </trkpt>
      <trkpt lat="40.59584" lon="-3.71603">
        <ele>762.6</ele>
        <time>2021-11-16 13:49:36</time>
      </trkpt>
      <trkpt lat="40.59582" lon="-3.71595">
        <ele>762.6</ele>
        <time>2021-11-16 13:49:37</time>
      </trkpt>
      <trkpt lat="40.5958" lon="-3.71587">
        <ele>762.6</ele>
        <time>2021-11-16 13:49:38</time>
      </trkpt>
      <trkpt lat="40.59577" lon="-3.71579">
        <ele>762.4</ele>
        <time>2021-11-16 13:49:39</time>
      </trkpt>
      <trkpt lat="40.59575" lon="-3.71571">
        <ele>762.6</ele>
        <time>2021-11-16 13:49:40</time>
      </trkpt>
      <trkpt lat="40.59572" lon="-3.71564">
        <ele>762.4</ele>
        <time>2021-11-16 13:49:41</time>
      </trkpt>
      <trkpt lat="40.59568" lon="-3.71556">
        <ele>762.2</ele>
        <time>2021-11-16 13:49:42</time>
      </trkpt>
      <trkpt lat="40.59564" lon="-3.71549">
        <ele>762</ele>
        <time>2021-11-16 13:49:43</time>
      </trkpt>
      <trkpt lat="40.59559" lon="-3.71542">
        <ele>761.6</ele>
        <time>2021-11-16 13:49:44</time>
      </trkpt>
      <trkpt lat="40.59555" lon="-3.71536">
        <ele>761.8</ele>
        <time>2021-11-16 13:49:45</time>
      </trkpt>
      <trkpt lat="40.5955" lon="-3.71529">
        <ele>761.8</ele>
        <time>2021-11-16 13:49:46</time>
      </trkpt>
      <trkpt lat="40.59546" lon="-3.71522">
        <ele>761.6</ele>
        <time>2021-11-16 13:49:47</time>
      </trkpt>
      <trkpt lat="40.59541" lon="-3.71515">
        <ele>761.6</ele>
        <time>2021-11-16 13:49:48</time>
      </trkpt>
      <trkpt lat="40.59537" lon="-3.71508">
        <ele>761.4</ele>
        <time>2021-11-16 13:49:49</time>
      </trkpt>
      <trkpt lat="40.59532" lon="-3.71502">
        <ele>761.2</ele>
        <time>2021-11-16 13:49:50</time>
      </trkpt>
      <trkpt lat="40.59528" lon="-3.71495">
        <ele>761</ele>
        <time>2021-11-16 13:49:51</time>
      </trkpt>
      <trkpt lat="40.59524" lon="-3.71488">
        <ele>761</ele>
        <time>2021-11-16 13:49:52</time>
      </trkpt>
      <trkpt lat="40.59519" lon="-3.71481">
        <ele>761.2</ele>
        <time>2021-11-16 13:49:53</time>
      </trkpt>
      <trkpt lat="40.59515" lon="-3.71474">
        <ele>761</ele>
        <time>2021-11-16 13:49:54</time>
      </trkpt>
      <trkpt lat="40.5951" lon="-3.71468">
        <ele>761.2</ele>
        <time>2021-11-16 13:49:55</time>
      </trkpt>
      <trkpt lat="40.59506" lon="-3.71461">
        <ele>761.2</ele>
        <time>2021-11-16 13:49:56</time>
      </trkpt>
      <trkpt lat="40.59501" lon="-3.71456">
        <ele>761</ele>
        <time>2021-11-16 13:49:57</time>
      </trkpt>
      <trkpt lat="40.59495" lon="-3.7145">
        <ele>761</ele>
        <time>2021-11-16 13:49:58</time>
      </trkpt>
      <trkpt lat="40.5949" lon="-3.71445">
        <ele>761</ele>
        <time>2021-11-16 13:49:59</time>
      </trkpt>
      <trkpt lat="40.59485" lon="-3.71439">
        <ele>761.2</ele>
        <time>2021-11-16 13:50:00</time>
      </trkpt>
      <trkpt lat="40.59479" lon="-3.71434">
        <ele>761</ele>
        <time>2021-11-16 13:50:01</time>
      </trkpt>
      <trkpt lat="40.59474" lon="-3.71429">
        <ele>761.2</ele>
        <time>2021-11-16 13:50:02</time>
      </trkpt>
      <trkpt lat="40.59469" lon="-3.71423">
        <ele>761.2</ele>
        <time>2021-11-16 13:50:03</time>
      </trkpt>
      <trkpt lat="40.59464" lon="-3.71418">
        <ele>761.2</ele>
        <time>2021-11-16 13:50:04</time>
      </trkpt>
      <trkpt lat="40.59459" lon="-3.71413">
        <ele>761.2</ele>
        <time>2021-11-16 13:50:05</time>
      </trkpt>
      <trkpt lat="40.59454" lon="-3.71407">
        <ele>761.2</ele>
        <time>2021-11-16 13:50:06</time>
      </trkpt>
      <trkpt lat="40.59449" lon="-3.71402">
        <ele>761.4</ele>
        <time>2021-11-16 13:50:07</time>
      </trkpt>
      <trkpt lat="40.59444" lon="-3.71397">
        <ele>761.4</ele>
        <time>2021-11-16 13:50:08</time>
      </trkpt>
      <trkpt lat="40.59439" lon="-3.71391">
        <ele>761.4</ele>
        <time>2021-11-16 13:50:09</time>
      </trkpt>
      <trkpt lat="40.59433" lon="-3.71386">
        <ele>761.4</ele>
        <time>2021-11-16 13:50:10</time>
      </trkpt>
      <trkpt lat="40.59428" lon="-3.71382">
        <ele>761.6</ele>
        <time>2021-11-16 13:50:11</time>
      </trkpt>
      <trkpt lat="40.59422" lon="-3.71378">
        <ele>761.4</ele>
        <time>2021-11-16 13:50:12</time>
      </trkpt>
      <trkpt lat="40.59416" lon="-3.71375">
        <ele>761.4</ele>
        <time>2021-11-16 13:50:13</time>
      </trkpt>
      <trkpt lat="40.59409" lon="-3.71373">
        <ele>761.6</ele>
        <time>2021-11-16 13:50:14</time>
      </trkpt>
      <trkpt lat="40.59403" lon="-3.71371">
        <ele>761.6</ele>
        <time>2021-11-16 13:50:15</time>
      </trkpt>
      <trkpt lat="40.59397" lon="-3.71369">
        <ele>761.8</ele>
        <time>2021-11-16 13:50:16</time>
      </trkpt>
      <trkpt lat="40.59391" lon="-3.71365">
        <ele>761.8</ele>
        <time>2021-11-16 13:50:17</time>
      </trkpt>
      <trkpt lat="40.59386" lon="-3.71361">
        <ele>762</ele>
        <time>2021-11-16 13:50:18</time>
      </trkpt>
      <trkpt lat="40.5938" lon="-3.71357">
        <ele>761.8</ele>
        <time>2021-11-16 13:50:19</time>
      </trkpt>
      <trkpt lat="40.59375" lon="-3.71352">
        <ele>762</ele>
        <time>2021-11-16 13:50:20</time>
      </trkpt>
      <trkpt lat="40.59369" lon="-3.71348">
        <ele>762</ele>
        <time>2021-11-16 13:50:21</time>
      </trkpt>
      <trkpt lat="40.59364" lon="-3.71344">
        <ele>762.2</ele>
        <time>2021-11-16 13:50:22</time>
      </trkpt>
      <trkpt lat="40.59358" lon="-3.71341">
        <ele>762.2</ele>
        <time>2021-11-16 13:50:23</time>
      </trkpt>
      <trkpt lat="40.59352" lon="-3.71338">
        <ele>762.2</ele>
        <time>2021-11-16 13:50:24</time>
      </trkpt>
      <trkpt lat="40.59347" lon="-3.71334">
        <ele>762.4</ele>
        <time>2021-11-16 13:50:25</time>
      </trkpt>
      <trkpt lat="40.59341" lon="-3.71332">
        <ele>762.4</ele>
        <time>2021-11-16 13:50:26</time>
      </trkpt>
      <trkpt lat="40.59335" lon="-3.7133">
        <ele>762.6</ele>
        <time>2021-11-16 13:50:27</time>
      </trkpt>
      <trkpt lat="40.59329" lon="-3.71329">
        <ele>762.6</ele>
        <time>2021-11-16 13:50:28</time>
      </trkpt>
      <trkpt lat="40.59323" lon="-3.71328">
        <ele>762.8</ele>
        <time>2021-11-16 13:50:29</time>
      </trkpt>
      <trkpt lat="40.59317" lon="-3.71328">
        <ele>762.8</ele>
        <time>2021-11-16 13:50:30</time>
      </trkpt>
      <trkpt lat="40.59311" lon="-3.71327">
        <ele>762.8</ele>
        <time>2021-11-16 13:50:31</time>
      </trkpt>
      <trkpt lat="40.59306" lon="-3.71325">
        <ele>763</ele>
        <time>2021-11-16 13:50:32</time>
      </trkpt>
      <trkpt lat="40.593" lon="-3.71323">
        <ele>763.2</ele>
        <time>2021-11-16 13:50:33</time>
      </trkpt>
      <trkpt lat="40.59294" lon="-3.71321">
        <ele>763.4</ele>
        <time>2021-11-16 13:50:34</time>
      </trkpt>
      <trkpt lat="40.59288" lon="-3.71319">
        <ele>763.6</ele>
        <time>2021-11-16 13:50:35</time>
      </trkpt>
      <trkpt lat="40.59282" lon="-3.71318">
        <ele>763.6</ele>
        <time>2021-11-16 13:50:36</time>
      </trkpt>
      <trkpt lat="40.59275" lon="-3.71316">
        <ele>763.6</ele>
        <time>2021-11-16 13:50:37</time>
      </trkpt>
      <trkpt lat="40.59269" lon="-3.71314">
        <ele>763.8</ele>
        <time>2021-11-16 13:50:38</time>
      </trkpt>
      <trkpt lat="40.59262" lon="-3.71313">
        <ele>763.8</ele>
        <time>2021-11-16 13:50:39</time>
      </trkpt>
      <trkpt lat="40.59256" lon="-3.71312">
        <ele>763.8</ele>
        <time>2021-11-16 13:50:40</time>
      </trkpt>
      <trkpt lat="40.59249" lon="-3.71311">
        <ele>763.8</ele>
        <time>2021-11-16 13:50:41</time>
      </trkpt>
      <trkpt lat="40.59243" lon="-3.71309">
        <ele>764</ele>
        <time>2021-11-16 13:50:42</time>
      </trkpt>
      <trkpt lat="40.59236" lon="-3.71307">
        <ele>764</ele>
        <time>2021-11-16 13:50:43</time>
      </trkpt>
      <trkpt lat="40.59229" lon="-3.71305">
        <ele>764</ele>
        <time>2021-11-16 13:50:44</time>
      </trkpt>
      <trkpt lat="40.59223" lon="-3.71303">
        <ele>764</ele>
        <time>2021-11-16 13:50:45</time>
      </trkpt>
      <trkpt lat="40.59216" lon="-3.71301">
        <ele>764</ele>
        <time>2021-11-16 13:50:46</time>
      </trkpt>
      <trkpt lat="40.5921" lon="-3.71299">
        <ele>763.8</ele>
        <time>2021-11-16 13:50:47</time>
      </trkpt>
      <trkpt lat="40.59203" lon="-3.71298">
        <ele>764</ele>
        <time>2021-11-16 13:50:48</time>
      </trkpt>
      <trkpt lat="40.59197" lon="-3.71296">
        <ele>763.8</ele>
        <time>2021-11-16 13:50:49</time>
      </trkpt>
      <trkpt lat="40.5919" lon="-3.71294">
        <ele>763.6</ele>
        <time>2021-11-16 13:50:50</time>
      </trkpt>
      <trkpt lat="40.59184" lon="-3.71292">
        <ele>763.8</ele>
        <time>2021-11-16 13:50:51</time>
      </trkpt>
      <trkpt lat="40.59178" lon="-3.7129">
        <ele>763.8</ele>
        <time>2021-11-16 13:50:52</time>
      </trkpt>
      <trkpt lat="40.59171" lon="-3.71288">
        <ele>763.8</ele>
        <time>2021-11-16 13:50:53</time>
      </trkpt>
      <trkpt lat="40.59165" lon="-3.71286">
        <ele>763.8</ele>
        <time>2021-11-16 13:50:54</time>
      </trkpt>
      <trkpt lat="40.59159" lon="-3.71284">
        <ele>763.6</ele>
        <time>2021-11-16 13:50:55</time>
      </trkpt>
      <trkpt lat="40.59153" lon="-3.71282">
        <ele>763.4</ele>
        <time>2021-11-16 13:50:56</time>
      </trkpt>
      <trkpt lat="40.59147" lon="-3.7128">
        <ele>763.4</ele>
        <time>2021-11-16 13:50:57</time>
      </trkpt>
      <trkpt lat="40.59141" lon="-3.71277">
        <ele>763.2</ele>
        <time>2021-11-16 13:50:58</time>
      </trkpt>
      <trkpt lat="40.59134" lon="-3.71274">
        <ele>763.4</ele>
        <time>2021-11-16 13:50:59</time>
      </trkpt>
      <trkpt lat="40.59128" lon="-3.71271">
        <ele>763.2</ele>
        <time>2021-11-16 13:51:00</time>
      </trkpt>
      <trkpt lat="40.59121" lon="-3.71267">
        <ele>763.2</ele>
        <time>2021-11-16 13:51:01</time>
      </trkpt>
      <trkpt lat="40.59114" lon="-3.71263">
        <ele>763.2</ele>
        <time>2021-11-16 13:51:02</time>
      </trkpt>
      <trkpt lat="40.59107" lon="-3.71259">
        <ele>763</ele>
        <time>2021-11-16 13:51:03</time>
      </trkpt>
      <trkpt lat="40.59099" lon="-3.71255">
        <ele>763.2</ele>
        <time>2021-11-16 13:51:04</time>
      </trkpt>
      <trkpt lat="40.59092" lon="-3.71251">
        <ele>763.2</ele>
        <time>2021-11-16 13:51:05</time>
      </trkpt>
      <trkpt lat="40.59084" lon="-3.71247">
        <ele>763.2</ele>
        <time>2021-11-16 13:51:06</time>
      </trkpt>
      <trkpt lat="40.59077" lon="-3.71243">
        <ele>763.2</ele>
        <time>2021-11-16 13:51:07</time>
      </trkpt>
      <trkpt lat="40.59069" lon="-3.71239">
        <ele>763</ele>
        <time>2021-11-16 13:51:08</time>
      </trkpt>
      <trkpt lat="40.59061" lon="-3.71235">
        <ele>763</ele>
        <time>2021-11-16 13:51:09</time>
      </trkpt>
      <trkpt lat="40.59053" lon="-3.71232">
        <ele>762.8</ele>
        <time>2021-11-16 13:51:10</time>
      </trkpt>
      <trkpt lat="40.59045" lon="-3.71228">
        <ele>762</ele>
        <time>2021-11-16 13:51:11</time>
      </trkpt>
      <trkpt lat="40.59037" lon="-3.71224">
        <ele>761.8</ele>
        <time>2021-11-16 13:51:12</time>
      </trkpt>
      <trkpt lat="40.59029" lon="-3.7122">
        <ele>761.6</ele>
        <time>2021-11-16 13:51:13</time>
      </trkpt>
      <trkpt lat="40.59021" lon="-3.71215">
        <ele>761.2</ele>
        <time>2021-11-16 13:51:14</time>
      </trkpt>
      <trkpt lat="40.59014" lon="-3.71211">
        <ele>761.2</ele>
        <time>2021-11-16 13:51:15</time>
      </trkpt>
      <trkpt lat="40.59006" lon="-3.71207">
        <ele>761</ele>
        <time>2021-11-16 13:51:16</time>
      </trkpt>
      <trkpt lat="40.58998" lon="-3.71202">
        <ele>760.8</ele>
        <time>2021-11-16 13:51:17</time>
      </trkpt>
      <trkpt lat="40.5899" lon="-3.71197">
        <ele>760.4</ele>
        <time>2021-11-16 13:51:18</time>
      </trkpt>
      <trkpt lat="40.58983" lon="-3.71192">
        <ele>760.2</ele>
        <time>2021-11-16 13:51:19</time>
      </trkpt>
      <trkpt lat="40.58975" lon="-3.71187">
        <ele>760</ele>
        <time>2021-11-16 13:51:20</time>
      </trkpt>
      <trkpt lat="40.58967" lon="-3.71182">
        <ele>760</ele>
        <time>2021-11-16 13:51:21</time>
      </trkpt>
      <trkpt lat="40.5896" lon="-3.71177">
        <ele>760</ele>
        <time>2021-11-16 13:51:22</time>
      </trkpt>
      <trkpt lat="40.58953" lon="-3.71172">
        <ele>759.8</ele>
        <time>2021-11-16 13:51:23</time>
      </trkpt>
      <trkpt lat="40.58945" lon="-3.71166">
        <ele>759.8</ele>
        <time>2021-11-16 13:51:24</time>
      </trkpt>
      <trkpt lat="40.58938" lon="-3.71161">
        <ele>759.8</ele>
        <time>2021-11-16 13:51:25</time>
      </trkpt>
      <trkpt lat="40.58931" lon="-3.71155">
        <ele>759.6</ele>
        <time>2021-11-16 13:51:26</time>
      </trkpt>
      <trkpt lat="40.58924" lon="-3.71149">
        <ele>759.2</ele>
        <time>2021-11-16 13:51:27</time>
      </trkpt>
      <trkpt lat="40.58917" lon="-3.71143">
        <ele>759.2</ele>
        <time>2021-11-16 13:51:28</time>
      </trkpt>
      <trkpt lat="40.5891" lon="-3.71137">
        <ele>759.2</ele>
        <time>2021-11-16 13:51:29</time>
      </trkpt>
      <trkpt lat="40.58904" lon="-3.71131">
        <ele>759</ele>
        <time>2021-11-16 13:51:30</time>
      </trkpt>
      <trkpt lat="40.58897" lon="-3.71125">
        <ele>759.2</ele>
        <time>2021-11-16 13:51:31</time>
      </trkpt>
      <trkpt lat="40.58891" lon="-3.71119">
        <ele>759</ele>
        <time>2021-11-16 13:51:32</time>
      </trkpt>
      <trkpt lat="40.58885" lon="-3.71113">
        <ele>759.2</ele>
        <time>2021-11-16 13:51:33</time>
      </trkpt>
      <trkpt lat="40.58879" lon="-3.71107">
        <ele>759.2</ele>
        <time>2021-11-16 13:51:34</time>
      </trkpt>
      <trkpt lat="40.58874" lon="-3.71101">
        <ele>759.4</ele>
        <time>2021-11-16 13:51:35</time>
      </trkpt>
      <trkpt lat="40.58868" lon="-3.71094">
        <ele>759.2</ele>
        <time>2021-11-16 13:51:36</time>
      </trkpt>
      <trkpt lat="40.58862" lon="-3.71088">
        <ele>759.4</ele>
        <time>2021-11-16 13:51:37</time>
      </trkpt>
      <trkpt lat="40.58856" lon="-3.71081">
        <ele>759.2</ele>
        <time>2021-11-16 13:51:38</time>
      </trkpt>
      <trkpt lat="40.5885" lon="-3.71073">
        <ele>759.2</ele>
        <time>2021-11-16 13:51:39</time>
      </trkpt>
      <trkpt lat="40.58844" lon="-3.71065">
        <ele>759.2</ele>
        <time>2021-11-16 13:51:40</time>
      </trkpt>
      <trkpt lat="40.58838" lon="-3.71057">
        <ele>759.2</ele>
        <time>2021-11-16 13:51:41</time>
      </trkpt>
      <trkpt lat="40.58832" lon="-3.71049">
        <ele>759.2</ele>
        <time>2021-11-16 13:51:42</time>
      </trkpt>
      <trkpt lat="40.58826" lon="-3.71041">
        <ele>759.2</ele>
        <time>2021-11-16 13:51:43</time>
      </trkpt>
      <trkpt lat="40.5882" lon="-3.71032">
        <ele>759.2</ele>
        <time>2021-11-16 13:51:44</time>
      </trkpt>
      <trkpt lat="40.58814" lon="-3.71024">
        <ele>759.2</ele>
        <time>2021-11-16 13:51:45</time>
      </trkpt>
      <trkpt lat="40.58808" lon="-3.71015">
        <ele>759.2</ele>
        <time>2021-11-16 13:51:46</time>
      </trkpt>
      <trkpt lat="40.58803" lon="-3.71007">
        <ele>759.2</ele>
        <time>2021-11-16 13:51:47</time>
      </trkpt>
      <trkpt lat="40.58797" lon="-3.70998">
        <ele>759.2</ele>
        <time>2021-11-16 13:51:48</time>
      </trkpt>
      <trkpt lat="40.58791" lon="-3.7099">
        <ele>759.4</ele>
        <time>2021-11-16 13:51:49</time>
      </trkpt>
      <trkpt lat="40.58786" lon="-3.70982">
        <ele>759.2</ele>
        <time>2021-11-16 13:51:50</time>
      </trkpt>
      <trkpt lat="40.5878" lon="-3.70973">
        <ele>759</ele>
        <time>2021-11-16 13:51:51</time>
      </trkpt>
      <trkpt lat="40.58774" lon="-3.70965">
        <ele>758.8</ele>
        <time>2021-11-16 13:51:52</time>
      </trkpt>
      <trkpt lat="40.58769" lon="-3.70957">
        <ele>758.6</ele>
        <time>2021-11-16 13:51:53</time>
      </trkpt>
      <trkpt lat="40.58763" lon="-3.70949">
        <ele>758.4</ele>
        <time>2021-11-16 13:51:54</time>
      </trkpt>
      <trkpt lat="40.58757" lon="-3.70941">
        <ele>758.2</ele>
        <time>2021-11-16 13:51:55</time>
      </trkpt>
      <trkpt lat="40.58752" lon="-3.70933">
        <ele>758.2</ele>
        <time>2021-11-16 13:51:56</time>
      </trkpt>
      <trkpt lat="40.58746" lon="-3.70926">
        <ele>758</ele>
        <time>2021-11-16 13:51:57</time>
      </trkpt>
      <trkpt lat="40.5874" lon="-3.70919">
        <ele>757.6</ele>
        <time>2021-11-16 13:51:58</time>
      </trkpt>
      <trkpt lat="40.58735" lon="-3.70912">
        <ele>757.8</ele>
        <time>2021-11-16 13:51:59</time>
      </trkpt>
      <trkpt lat="40.58729" lon="-3.70904">
        <ele>757.6</ele>
        <time>2021-11-16 13:52:00</time>
      </trkpt>
      <trkpt lat="40.58723" lon="-3.70897">
        <ele>757.6</ele>
        <time>2021-11-16 13:52:01</time>
      </trkpt>
      <trkpt lat="40.58717" lon="-3.7089">
        <ele>757.4</ele>
        <time>2021-11-16 13:52:02</time>
      </trkpt>
      <trkpt lat="40.58712" lon="-3.70883">
        <ele>757.6</ele>
        <time>2021-11-16 13:52:03</time>
      </trkpt>
      <trkpt lat="40.58706" lon="-3.70876">
        <ele>757.8</ele>
        <time>2021-11-16 13:52:04</time>
      </trkpt>
      <trkpt lat="40.587" lon="-3.70869">
        <ele>757.8</ele>
        <time>2021-11-16 13:52:05</time>
      </trkpt>
      <trkpt lat="40.58694" lon="-3.70863">
        <ele>758</ele>
        <time>2021-11-16 13:52:06</time>
      </trkpt>
      <trkpt lat="40.58688" lon="-3.70857">
        <ele>758</ele>
        <time>2021-11-16 13:52:07</time>
      </trkpt>
      <trkpt lat="40.58682" lon="-3.7085">
        <ele>758</ele>
        <time>2021-11-16 13:52:08</time>
      </trkpt>
      <trkpt lat="40.58676" lon="-3.70844">
        <ele>758</ele>
        <time>2021-11-16 13:52:09</time>
      </trkpt>
      <trkpt lat="40.5867" lon="-3.70837">
        <ele>757.8</ele>
        <time>2021-11-16 13:52:10</time>
      </trkpt>
      <trkpt lat="40.58664" lon="-3.70831">
        <ele>757.8</ele>
        <time>2021-11-16 13:52:11</time>
      </trkpt>
      <trkpt lat="40.58657" lon="-3.70826">
        <ele>757.8</ele>
        <time>2021-11-16 13:52:12</time>
      </trkpt>
      <trkpt lat="40.58651" lon="-3.7082">
        <ele>757.8</ele>
        <time>2021-11-16 13:52:13</time>
      </trkpt>
      <trkpt lat="40.58645" lon="-3.70815">
        <ele>757.8</ele>
        <time>2021-11-16 13:52:14</time>
      </trkpt>
      <trkpt lat="40.58639" lon="-3.70809">
        <ele>757.8</ele>
        <time>2021-11-16 13:52:15</time>
      </trkpt>
      <trkpt lat="40.58633" lon="-3.70803">
        <ele>757.8</ele>
        <time>2021-11-16 13:52:16</time>
      </trkpt>
      <trkpt lat="40.58627" lon="-3.70798">
        <ele>757.8</ele>
        <time>2021-11-16 13:52:17</time>
      </trkpt>
      <trkpt lat="40.58621" lon="-3.70793">
        <ele>757.8</ele>
        <time>2021-11-16 13:52:18</time>
      </trkpt>
      <trkpt lat="40.58614" lon="-3.70788">
        <ele>757.8</ele>
        <time>2021-11-16 13:52:19</time>
      </trkpt>
      <trkpt lat="40.58608" lon="-3.70784">
        <ele>757.8</ele>
        <time>2021-11-16 13:52:20</time>
      </trkpt>
      <trkpt lat="40.58602" lon="-3.7078">
        <ele>757.8</ele>
        <time>2021-11-16 13:52:21</time>
      </trkpt>
      <trkpt lat="40.58596" lon="-3.70775">
        <ele>757.8</ele>
        <time>2021-11-16 13:52:22</time>
      </trkpt>
      <trkpt lat="40.5859" lon="-3.70771">
        <ele>757.8</ele>
        <time>2021-11-16 13:52:23</time>
      </trkpt>
      <trkpt lat="40.58584" lon="-3.70766">
        <ele>757.8</ele>
        <time>2021-11-16 13:52:24</time>
      </trkpt>
      <trkpt lat="40.58579" lon="-3.70762">
        <ele>757.8</ele>
        <time>2021-11-16 13:52:25</time>
      </trkpt>
      <trkpt lat="40.58573" lon="-3.70759">
        <ele>758</ele>
        <time>2021-11-16 13:52:26</time>
      </trkpt>
      <trkpt lat="40.58568" lon="-3.70756">
        <ele>757.8</ele>
        <time>2021-11-16 13:52:27</time>
      </trkpt>
      <trkpt lat="40.58563" lon="-3.70752">
        <ele>757.8</ele>
        <time>2021-11-16 13:52:28</time>
      </trkpt>
      <trkpt lat="40.58558" lon="-3.70749">
        <ele>758.2</ele>
        <time>2021-11-16 13:52:29</time>
      </trkpt>
      <trkpt lat="40.58554" lon="-3.70745">
        <ele>758.6</ele>
        <time>2021-11-16 13:52:30</time>
      </trkpt>
      <trkpt lat="40.58549" lon="-3.70742">
        <ele>759</ele>
        <time>2021-11-16 13:52:31</time>
      </trkpt>
      <trkpt lat="40.58544" lon="-3.70738">
        <ele>759.2</ele>
        <time>2021-11-16 13:52:32</time>
      </trkpt>
      <trkpt lat="40.58539" lon="-3.70735">
        <ele>759.6</ele>
        <time>2021-11-16 13:52:33</time>
      </trkpt>
      <trkpt lat="40.58534" lon="-3.70732">
        <ele>760</ele>
        <time>2021-11-16 13:52:34</time>
      </trkpt>
      <trkpt lat="40.58529" lon="-3.70728">
        <ele>760.4</ele>
        <time>2021-11-16 13:52:35</time>
      </trkpt>
      <trkpt lat="40.58523" lon="-3.70725">
        <ele>760.6</ele>
        <time>2021-11-16 13:52:36</time>
      </trkpt>
      <trkpt lat="40.58518" lon="-3.70721">
        <ele>761</ele>
        <time>2021-11-16 13:52:37</time>
      </trkpt>
      <trkpt lat="40.58513" lon="-3.70717">
        <ele>761</ele>
        <time>2021-11-16 13:52:38</time>
      </trkpt>
      <trkpt lat="40.58507" lon="-3.70713">
        <ele>761</ele>
        <time>2021-11-16 13:52:39</time>
      </trkpt>
      <trkpt lat="40.58501" lon="-3.70709">
        <ele>761.4</ele>
        <time>2021-11-16 13:52:40</time>
      </trkpt>
      <trkpt lat="40.58495" lon="-3.70706">
        <ele>761.2</ele>
        <time>2021-11-16 13:52:41</time>
      </trkpt>
      <trkpt lat="40.58489" lon="-3.70703">
        <ele>761.4</ele>
        <time>2021-11-16 13:52:42</time>
      </trkpt>
      <trkpt lat="40.58483" lon="-3.70699">
        <ele>761.4</ele>
        <time>2021-11-16 13:52:43</time>
      </trkpt>
      <trkpt lat="40.58478" lon="-3.70695">
        <ele>761.4</ele>
        <time>2021-11-16 13:52:44</time>
      </trkpt>
      <trkpt lat="40.58472" lon="-3.70692">
        <ele>761.4</ele>
        <time>2021-11-16 13:52:45</time>
      </trkpt>
      <trkpt lat="40.58466" lon="-3.70688">
        <ele>761.2</ele>
        <time>2021-11-16 13:52:46</time>
      </trkpt>
      <trkpt lat="40.5846" lon="-3.70685">
        <ele>761.4</ele>
        <time>2021-11-16 13:52:47</time>
      </trkpt>
      <trkpt lat="40.58454" lon="-3.70682">
        <ele>761.4</ele>
        <time>2021-11-16 13:52:48</time>
      </trkpt>
      <trkpt lat="40.58448" lon="-3.70682">
        <ele>761.6</ele>
        <time>2021-11-16 13:52:49</time>
      </trkpt>
      <trkpt lat="40.58443" lon="-3.70684">
        <ele>761.4</ele>
        <time>2021-11-16 13:52:50</time>
      </trkpt>
      <trkpt lat="40.58439" lon="-3.70689">
        <ele>761.6</ele>
        <time>2021-11-16 13:52:51</time>
      </trkpt>
      <trkpt lat="40.58435" lon="-3.70694">
        <ele>761.6</ele>
        <time>2021-11-16 13:52:52</time>
      </trkpt>
      <trkpt lat="40.58431" lon="-3.70699">
        <ele>761.6</ele>
        <time>2021-11-16 13:52:53</time>
      </trkpt>
      <trkpt lat="40.58427" lon="-3.70704">
        <ele>761.6</ele>
        <time>2021-11-16 13:52:54</time>
      </trkpt>
      <trkpt lat="40.58422" lon="-3.70709">
        <ele>761.6</ele>
        <time>2021-11-16 13:52:55</time>
      </trkpt>
      <trkpt lat="40.58417" lon="-3.70712">
        <ele>761.8</ele>
        <time>2021-11-16 13:52:56</time>
      </trkpt>
      <trkpt lat="40.58413" lon="-3.70715">
        <ele>762</ele>
        <time>2021-11-16 13:52:57</time>
      </trkpt>
      <trkpt lat="40.58408" lon="-3.70718">
        <ele>762</ele>
        <time>2021-11-16 13:52:58</time>
      </trkpt>
      <trkpt lat="40.58404" lon="-3.7072">
        <ele>761.8</ele>
        <time>2021-11-16 13:52:59</time>
      </trkpt>
      <trkpt lat="40.584" lon="-3.70722">
        <ele>762</ele>
        <time>2021-11-16 13:53:00</time>
      </trkpt>
      <trkpt lat="40.58396" lon="-3.70724">
        <ele>762.2</ele>
        <time>2021-11-16 13:53:01</time>
      </trkpt>
      <trkpt lat="40.58392" lon="-3.70725">
        <ele>762.8</ele>
        <time>2021-11-16 13:53:02</time>
      </trkpt>
      <trkpt lat="40.58387" lon="-3.70727">
        <ele>763.2</ele>
        <time>2021-11-16 13:53:03</time>
      </trkpt>
      <trkpt lat="40.58383" lon="-3.70727">
        <ele>763.6</ele>
        <time>2021-11-16 13:53:04</time>
      </trkpt>
      <trkpt lat="40.58377" lon="-3.70728">
        <ele>764</ele>
        <time>2021-11-16 13:53:05</time>
      </trkpt>
      <trkpt lat="40.58372" lon="-3.70729">
        <ele>764.2</ele>
        <time>2021-11-16 13:53:06</time>
      </trkpt>
      <trkpt lat="40.58366" lon="-3.70729">
        <ele>764.6</ele>
        <time>2021-11-16 13:53:07</time>
      </trkpt>
      <trkpt lat="40.5836" lon="-3.70729">
        <ele>765.2</ele>
        <time>2021-11-16 13:53:08</time>
      </trkpt>
      <trkpt lat="40.58354" lon="-3.70728">
        <ele>765.4</ele>
        <time>2021-11-16 13:53:09</time>
      </trkpt>
      <trkpt lat="40.58347" lon="-3.70726">
        <ele>765.6</ele>
        <time>2021-11-16 13:53:10</time>
      </trkpt>
      <trkpt lat="40.58341" lon="-3.70724">
        <ele>765.6</ele>
        <time>2021-11-16 13:53:11</time>
      </trkpt>
      <trkpt lat="40.58335" lon="-3.70722">
        <ele>765.6</ele>
        <time>2021-11-16 13:53:12</time>
      </trkpt>
      <trkpt lat="40.58328" lon="-3.70719">
        <ele>765.6</ele>
        <time>2021-11-16 13:53:13</time>
      </trkpt>
      <trkpt lat="40.58322" lon="-3.70714">
        <ele>765.6</ele>
        <time>2021-11-16 13:53:14</time>
      </trkpt>
      <trkpt lat="40.58316" lon="-3.7071">
        <ele>765.6</ele>
        <time>2021-11-16 13:53:15</time>
      </trkpt>
      <trkpt lat="40.5831" lon="-3.70704">
        <ele>765.8</ele>
        <time>2021-11-16 13:53:16</time>
      </trkpt>
      <trkpt lat="40.58304" lon="-3.70698">
        <ele>765.8</ele>
        <time>2021-11-16 13:53:17</time>
      </trkpt>
      <trkpt lat="40.58298" lon="-3.70691">
        <ele>765.6</ele>
        <time>2021-11-16 13:53:18</time>
      </trkpt>
      <trkpt lat="40.58292" lon="-3.70685">
        <ele>765.6</ele>
        <time>2021-11-16 13:53:19</time>
      </trkpt>
      <trkpt lat="40.58286" lon="-3.70679">
        <ele>765.2</ele>
        <time>2021-11-16 13:53:20</time>
      </trkpt>
      <trkpt lat="40.58279" lon="-3.70672">
        <ele>765.2</ele>
        <time>2021-11-16 13:53:21</time>
      </trkpt>
      <trkpt lat="40.58273" lon="-3.70666">
        <ele>764.6</ele>
        <time>2021-11-16 13:53:22</time>
      </trkpt>
      <trkpt lat="40.58266" lon="-3.70659">
        <ele>764</ele>
        <time>2021-11-16 13:53:23</time>
      </trkpt>
      <trkpt lat="40.5826" lon="-3.70653">
        <ele>763.8</ele>
        <time>2021-11-16 13:53:24</time>
      </trkpt>
      <trkpt lat="40.58253" lon="-3.70647">
        <ele>763.8</ele>
        <time>2021-11-16 13:53:25</time>
      </trkpt>
      <trkpt lat="40.58245" lon="-3.70641">
        <ele>763.6</ele>
        <time>2021-11-16 13:53:26</time>
      </trkpt>
      <trkpt lat="40.58238" lon="-3.70635">
        <ele>763.4</ele>
        <time>2021-11-16 13:53:27</time>
      </trkpt>
      <trkpt lat="40.5823" lon="-3.7063">
        <ele>763.4</ele>
        <time>2021-11-16 13:53:28</time>
      </trkpt>
      <trkpt lat="40.58222" lon="-3.70626">
        <ele>762.6</ele>
        <time>2021-11-16 13:53:29</time>
      </trkpt>
      <trkpt lat="40.58214" lon="-3.70621">
        <ele>762.2</ele>
        <time>2021-11-16 13:53:30</time>
      </trkpt>
      <trkpt lat="40.58205" lon="-3.70617">
        <ele>762</ele>
        <time>2021-11-16 13:53:31</time>
      </trkpt>
      <trkpt lat="40.58197" lon="-3.70613">
        <ele>761.4</ele>
        <time>2021-11-16 13:53:32</time>
      </trkpt>
      <trkpt lat="40.58188" lon="-3.7061">
        <ele>761</ele>
        <time>2021-11-16 13:53:33</time>
      </trkpt>
      <trkpt lat="40.5818" lon="-3.70607">
        <ele>761</ele>
        <time>2021-11-16 13:53:34</time>
      </trkpt>
      <trkpt lat="40.58172" lon="-3.70605">
        <ele>761</ele>
        <time>2021-11-16 13:53:35</time>
      </trkpt>
      <trkpt lat="40.58163" lon="-3.70604">
        <ele>760.6</ele>
        <time>2021-11-16 13:53:36</time>
      </trkpt>
      <trkpt lat="40.58155" lon="-3.70603">
        <ele>760.6</ele>
        <time>2021-11-16 13:53:37</time>
      </trkpt>
      <trkpt lat="40.58148" lon="-3.70602">
        <ele>760.6</ele>
        <time>2021-11-16 13:53:38</time>
      </trkpt>
      <trkpt lat="40.5814" lon="-3.70602">
        <ele>760.6</ele>
        <time>2021-11-16 13:53:39</time>
      </trkpt>
      <trkpt lat="40.58132" lon="-3.70601">
        <ele>760.6</ele>
        <time>2021-11-16 13:53:40</time>
      </trkpt>
      <trkpt lat="40.58125" lon="-3.70601">
        <ele>760.6</ele>
        <time>2021-11-16 13:53:41</time>
      </trkpt>
      <trkpt lat="40.58118" lon="-3.70601">
        <ele>760.6</ele>
        <time>2021-11-16 13:53:42</time>
      </trkpt>
      <trkpt lat="40.5811" lon="-3.70601">
        <ele>760.6</ele>
        <time>2021-11-16 13:53:43</time>
      </trkpt>
      <trkpt lat="40.58103" lon="-3.70601">
        <ele>760.4</ele>
        <time>2021-11-16 13:53:44</time>
      </trkpt>
      <trkpt lat="40.58095" lon="-3.70601">
        <ele>760.6</ele>
        <time>2021-11-16 13:53:45</time>
      </trkpt>
      <trkpt lat="40.58087" lon="-3.70602">
        <ele>760.6</ele>
        <time>2021-11-16 13:53:46</time>
      </trkpt>
      <trkpt lat="40.5808" lon="-3.70602">
        <ele>760.6</ele>
        <time>2021-11-16 13:53:47</time>
      </trkpt>
      <trkpt lat="40.58073" lon="-3.70602">
        <ele>760.6</ele>
        <time>2021-11-16 13:53:48</time>
      </trkpt>
      <trkpt lat="40.58065" lon="-3.70602">
        <ele>760.6</ele>
        <time>2021-11-16 13:53:49</time>
      </trkpt>
      <trkpt lat="40.58058" lon="-3.70603">
        <ele>760.8</ele>
        <time>2021-11-16 13:53:50</time>
      </trkpt>
      <trkpt lat="40.58051" lon="-3.70603">
        <ele>760.8</ele>
        <time>2021-11-16 13:53:51</time>
      </trkpt>
      <trkpt lat="40.58044" lon="-3.70603">
        <ele>761</ele>
        <time>2021-11-16 13:53:52</time>
      </trkpt>
      <trkpt lat="40.58037" lon="-3.70603">
        <ele>761</ele>
        <time>2021-11-16 13:53:53</time>
      </trkpt>
      <trkpt lat="40.5803" lon="-3.70603">
        <ele>761.2</ele>
        <time>2021-11-16 13:53:54</time>
      </trkpt>
      <trkpt lat="40.58023" lon="-3.70603">
        <ele>761</ele>
        <time>2021-11-16 13:53:55</time>
      </trkpt>
      <trkpt lat="40.58017" lon="-3.70603">
        <ele>761.4</ele>
        <time>2021-11-16 13:53:56</time>
      </trkpt>
      <trkpt lat="40.5801" lon="-3.70602">
        <ele>761.4</ele>
        <time>2021-11-16 13:53:57</time>
      </trkpt>
      <trkpt lat="40.58003" lon="-3.70601">
        <ele>761.4</ele>
        <time>2021-11-16 13:53:58</time>
      </trkpt>
      <trkpt lat="40.57996" lon="-3.70601">
        <ele>761.6</ele>
        <time>2021-11-16 13:53:59</time>
      </trkpt>
      <trkpt lat="40.5799" lon="-3.706">
        <ele>761.6</ele>
        <time>2021-11-16 13:54:00</time>
      </trkpt>
      <trkpt lat="40.57982" lon="-3.706">
        <ele>761.8</ele>
        <time>2021-11-16 13:54:01</time>
      </trkpt>
      <trkpt lat="40.57975" lon="-3.70599">
        <ele>761.8</ele>
        <time>2021-11-16 13:54:02</time>
      </trkpt>
      <trkpt lat="40.57967" lon="-3.70599">
        <ele>761.8</ele>
        <time>2021-11-16 13:54:03</time>
      </trkpt>
      <trkpt lat="40.57959" lon="-3.70599">
        <ele>761.8</ele>
        <time>2021-11-16 13:54:04</time>
      </trkpt>
      <trkpt lat="40.57952" lon="-3.706">
        <ele>761.6</ele>
        <time>2021-11-16 13:54:05</time>
      </trkpt>
      <trkpt lat="40.57944" lon="-3.70601">
        <ele>761.8</ele>
        <time>2021-11-16 13:54:06</time>
      </trkpt>
      <trkpt lat="40.57936" lon="-3.70602">
        <ele>761.4</ele>
        <time>2021-11-16 13:54:07</time>
      </trkpt>
      <trkpt lat="40.57928" lon="-3.70604">
        <ele>761.6</ele>
        <time>2021-11-16 13:54:08</time>
      </trkpt>
      <trkpt lat="40.57921" lon="-3.70607">
        <ele>761.4</ele>
        <time>2021-11-16 13:54:09</time>
      </trkpt>
      <trkpt lat="40.57913" lon="-3.70609">
        <ele>761.4</ele>
        <time>2021-11-16 13:54:10</time>
      </trkpt>
      <trkpt lat="40.57905" lon="-3.70612">
        <ele>761.4</ele>
        <time>2021-11-16 13:54:11</time>
      </trkpt>
      <trkpt lat="40.57898" lon="-3.70614">
        <ele>761.4</ele>
        <time>2021-11-16 13:54:12</time>
      </trkpt>
      <trkpt lat="40.57891" lon="-3.70617">
        <ele>761.2</ele>
        <time>2021-11-16 13:54:13</time>
      </trkpt>
      <trkpt lat="40.57884" lon="-3.7062">
        <ele>760.6</ele>
        <time>2021-11-16 13:54:14</time>
      </trkpt>
      <trkpt lat="40.57877" lon="-3.70624">
        <ele>760.4</ele>
        <time>2021-11-16 13:54:15</time>
      </trkpt>
      <trkpt lat="40.57871" lon="-3.70627">
        <ele>760.4</ele>
        <time>2021-11-16 13:54:16</time>
      </trkpt>
      <trkpt lat="40.57864" lon="-3.70631">
        <ele>760.2</ele>
        <time>2021-11-16 13:54:17</time>
      </trkpt>
      <trkpt lat="40.57857" lon="-3.70634">
        <ele>759.8</ele>
        <time>2021-11-16 13:54:18</time>
      </trkpt>
      <trkpt lat="40.57851" lon="-3.70638">
        <ele>759.8</ele>
        <time>2021-11-16 13:54:19</time>
      </trkpt>
      <trkpt lat="40.57845" lon="-3.70642">
        <ele>759.4</ele>
        <time>2021-11-16 13:54:20</time>
      </trkpt>
      <trkpt lat="40.57838" lon="-3.70646">
        <ele>759.4</ele>
        <time>2021-11-16 13:54:21</time>
      </trkpt>
      <trkpt lat="40.57832" lon="-3.70649">
        <ele>759.2</ele>
        <time>2021-11-16 13:54:22</time>
      </trkpt>
      <trkpt lat="40.57826" lon="-3.70653">
        <ele>759.2</ele>
        <time>2021-11-16 13:54:23</time>
      </trkpt>
      <trkpt lat="40.57819" lon="-3.70657">
        <ele>759.4</ele>
        <time>2021-11-16 13:54:24</time>
      </trkpt>
      <trkpt lat="40.57813" lon="-3.70661">
        <ele>759.2</ele>
        <time>2021-11-16 13:54:25</time>
      </trkpt>
      <trkpt lat="40.57806" lon="-3.70664">
        <ele>759.4</ele>
        <time>2021-11-16 13:54:26</time>
      </trkpt>
      <trkpt lat="40.578" lon="-3.70668">
        <ele>759.2</ele>
        <time>2021-11-16 13:54:27</time>
      </trkpt>
      <trkpt lat="40.57794" lon="-3.70672">
        <ele>759.2</ele>
        <time>2021-11-16 13:54:28</time>
      </trkpt>
      <trkpt lat="40.57787" lon="-3.70676">
        <ele>759.2</ele>
        <time>2021-11-16 13:54:29</time>
      </trkpt>
      <trkpt lat="40.57781" lon="-3.7068">
        <ele>759.2</ele>
        <time>2021-11-16 13:54:30</time>
      </trkpt>
      <trkpt lat="40.57775" lon="-3.70684">
        <ele>759.4</ele>
        <time>2021-11-16 13:54:31</time>
      </trkpt>
      <trkpt lat="40.57768" lon="-3.70689">
        <ele>759.4</ele>
        <time>2021-11-16 13:54:32</time>
      </trkpt>
      <trkpt lat="40.57763" lon="-3.70694">
        <ele>759.4</ele>
        <time>2021-11-16 13:54:33</time>
      </trkpt>
      <trkpt lat="40.57757" lon="-3.70699">
        <ele>759.4</ele>
        <time>2021-11-16 13:54:34</time>
      </trkpt>
      <trkpt lat="40.57751" lon="-3.70704">
        <ele>759.4</ele>
        <time>2021-11-16 13:54:35</time>
      </trkpt>
      <trkpt lat="40.57745" lon="-3.70709">
        <ele>759.4</ele>
        <time>2021-11-16 13:54:36</time>
      </trkpt>
      <trkpt lat="40.57739" lon="-3.70713">
        <ele>759.6</ele>
        <time>2021-11-16 13:54:37</time>
      </trkpt>
      <trkpt lat="40.57732" lon="-3.70718">
        <ele>759.8</ele>
        <time>2021-11-16 13:54:38</time>
      </trkpt>
      <trkpt lat="40.57726" lon="-3.70723">
        <ele>760.2</ele>
        <time>2021-11-16 13:54:39</time>
      </trkpt>
      <trkpt lat="40.5772" lon="-3.70727">
        <ele>760.4</ele>
        <time>2021-11-16 13:54:40</time>
      </trkpt>
      <trkpt lat="40.57713" lon="-3.70731">
        <ele>760.6</ele>
        <time>2021-11-16 13:54:41</time>
      </trkpt>
      <trkpt lat="40.57706" lon="-3.70734">
        <ele>760.4</ele>
        <time>2021-11-16 13:54:42</time>
      </trkpt>
      <trkpt lat="40.57699" lon="-3.70737">
        <ele>760.4</ele>
        <time>2021-11-16 13:54:43</time>
      </trkpt>
      <trkpt lat="40.57691" lon="-3.7074">
        <ele>760.4</ele>
        <time>2021-11-16 13:54:44</time>
      </trkpt>
      <trkpt lat="40.57684" lon="-3.70743">
        <ele>760.4</ele>
        <time>2021-11-16 13:54:45</time>
      </trkpt>
      <trkpt lat="40.57676" lon="-3.70747">
        <ele>760.4</ele>
        <time>2021-11-16 13:54:46</time>
      </trkpt>
      <trkpt lat="40.57669" lon="-3.7075">
        <ele>760.2</ele>
        <time>2021-11-16 13:54:47</time>
      </trkpt>
      <trkpt lat="40.57661" lon="-3.70754">
        <ele>760.2</ele>
        <time>2021-11-16 13:54:48</time>
      </trkpt>
      <trkpt lat="40.57654" lon="-3.70759">
        <ele>760</ele>
        <time>2021-11-16 13:54:49</time>
      </trkpt>
      <trkpt lat="40.57646" lon="-3.70764">
        <ele>759.8</ele>
        <time>2021-11-16 13:54:50</time>
      </trkpt>
      <trkpt lat="40.5764" lon="-3.7077">
        <ele>759.8</ele>
        <time>2021-11-16 13:54:51</time>
      </trkpt>
      <trkpt lat="40.57633" lon="-3.70777">
        <ele>759.8</ele>
        <time>2021-11-16 13:54:52</time>
      </trkpt>
      <trkpt lat="40.57627" lon="-3.70784">
        <ele>759.6</ele>
        <time>2021-11-16 13:54:53</time>
      </trkpt>
      <trkpt lat="40.57621" lon="-3.70791">
        <ele>759.6</ele>
        <time>2021-11-16 13:54:54</time>
      </trkpt>
      <trkpt lat="40.57615" lon="-3.70798">
        <ele>759.6</ele>
        <time>2021-11-16 13:54:55</time>
      </trkpt>
      <trkpt lat="40.57609" lon="-3.70805">
        <ele>759.8</ele>
        <time>2021-11-16 13:54:56</time>
      </trkpt>
      <trkpt lat="40.57604" lon="-3.70812">
        <ele>759.6</ele>
        <time>2021-11-16 13:54:57</time>
      </trkpt>
      <trkpt lat="40.57598" lon="-3.70818">
        <ele>759.4</ele>
        <time>2021-11-16 13:54:58</time>
      </trkpt>
      <trkpt lat="40.57592" lon="-3.70825">
        <ele>759.4</ele>
        <time>2021-11-16 13:54:59</time>
      </trkpt>
      <trkpt lat="40.57586" lon="-3.70831">
        <ele>759.4</ele>
        <time>2021-11-16 13:55:00</time>
      </trkpt>
      <trkpt lat="40.57581" lon="-3.70837">
        <ele>759.2</ele>
        <time>2021-11-16 13:55:01</time>
      </trkpt>
      <trkpt lat="40.57575" lon="-3.70844">
        <ele>759.2</ele>
        <time>2021-11-16 13:55:02</time>
      </trkpt>
      <trkpt lat="40.5757" lon="-3.7085">
        <ele>759.2</ele>
        <time>2021-11-16 13:55:03</time>
      </trkpt>
      <trkpt lat="40.57564" lon="-3.70856">
        <ele>759.2</ele>
        <time>2021-11-16 13:55:04</time>
      </trkpt>
      <trkpt lat="40.57558" lon="-3.70861">
        <ele>759.2</ele>
        <time>2021-11-16 13:55:05</time>
      </trkpt>
      <trkpt lat="40.57552" lon="-3.70867">
        <ele>759.2</ele>
        <time>2021-11-16 13:55:06</time>
      </trkpt>
      <trkpt lat="40.57546" lon="-3.70872">
        <ele>759</ele>
        <time>2021-11-16 13:55:07</time>
      </trkpt>
      <trkpt lat="40.5754" lon="-3.70878">
        <ele>759.2</ele>
        <time>2021-11-16 13:55:08</time>
      </trkpt>
      <trkpt lat="40.57534" lon="-3.70883">
        <ele>759.4</ele>
        <time>2021-11-16 13:55:09</time>
      </trkpt>
      <trkpt lat="40.57528" lon="-3.70888">
        <ele>759.4</ele>
        <time>2021-11-16 13:55:10</time>
      </trkpt>
      <trkpt lat="40.57522" lon="-3.70893">
        <ele>759.6</ele>
        <time>2021-11-16 13:55:11</time>
      </trkpt>
      <trkpt lat="40.57515" lon="-3.70897">
        <ele>759.8</ele>
        <time>2021-11-16 13:55:12</time>
      </trkpt>
      <trkpt lat="40.57509" lon="-3.70902">
        <ele>759.8</ele>
        <time>2021-11-16 13:55:13</time>
      </trkpt>
      <trkpt lat="40.57502" lon="-3.70906">
        <ele>759.8</ele>
        <time>2021-11-16 13:55:14</time>
      </trkpt>
      <trkpt lat="40.57495" lon="-3.7091">
        <ele>759.8</ele>
        <time>2021-11-16 13:55:15</time>
      </trkpt>
      <trkpt lat="40.57489" lon="-3.70913">
        <ele>760.2</ele>
        <time>2021-11-16 13:55:16</time>
      </trkpt>
      <trkpt lat="40.57482" lon="-3.70916">
        <ele>760.6</ele>
        <time>2021-11-16 13:55:17</time>
      </trkpt>
      <trkpt lat="40.57475" lon="-3.70919">
        <ele>760.8</ele>
        <time>2021-11-16 13:55:18</time>
      </trkpt>
      <trkpt lat="40.57468" lon="-3.70922">
        <ele>761</ele>
        <time>2021-11-16 13:55:19</time>
      </trkpt>
      <trkpt lat="40.57461" lon="-3.70925">
        <ele>761.6</ele>
        <time>2021-11-16 13:55:20</time>
      </trkpt>
      <trkpt lat="40.57453" lon="-3.70928">
        <ele>761.8</ele>
        <time>2021-11-16 13:55:21</time>
      </trkpt>
      <trkpt lat="40.57446" lon="-3.70931">
        <ele>761.6</ele>
        <time>2021-11-16 13:55:22</time>
      </trkpt>
      <trkpt lat="40.5744" lon="-3.70936">
        <ele>761.8</ele>
        <time>2021-11-16 13:55:23</time>
      </trkpt>
      <trkpt lat="40.57433" lon="-3.70942">
        <ele>761.8</ele>
        <time>2021-11-16 13:55:24</time>
      </trkpt>
      <trkpt lat="40.57427" lon="-3.70948">
        <ele>761.8</ele>
        <time>2021-11-16 13:55:25</time>
      </trkpt>
      <trkpt lat="40.57422" lon="-3.70955">
        <ele>761.8</ele>
        <time>2021-11-16 13:55:26</time>
      </trkpt>
      <trkpt lat="40.57416" lon="-3.70962">
        <ele>761.8</ele>
        <time>2021-11-16 13:55:27</time>
      </trkpt>
      <trkpt lat="40.5741" lon="-3.70967">
        <ele>761.8</ele>
        <time>2021-11-16 13:55:28</time>
      </trkpt>
      <trkpt lat="40.57403" lon="-3.70972">
        <ele>761.4</ele>
        <time>2021-11-16 13:55:29</time>
      </trkpt>
      <trkpt lat="40.57396" lon="-3.70975">
        <ele>761.2</ele>
        <time>2021-11-16 13:55:30</time>
      </trkpt>
      <trkpt lat="40.57388" lon="-3.70976">
        <ele>761</ele>
        <time>2021-11-16 13:55:31</time>
      </trkpt>
      <trkpt lat="40.57381" lon="-3.70977">
        <ele>761.2</ele>
        <time>2021-11-16 13:55:32</time>
      </trkpt>
      <trkpt lat="40.57374" lon="-3.70978">
        <ele>761.2</ele>
        <time>2021-11-16 13:55:33</time>
      </trkpt>
      <trkpt lat="40.57366" lon="-3.70979">
        <ele>761.4</ele>
        <time>2021-11-16 13:55:34</time>
      </trkpt>
      <trkpt lat="40.57359" lon="-3.7098">
        <ele>761.2</ele>
        <time>2021-11-16 13:55:35</time>
      </trkpt>
      <trkpt lat="40.57352" lon="-3.70981">
        <ele>761.2</ele>
        <time>2021-11-16 13:55:36</time>
      </trkpt>
      <trkpt lat="40.57344" lon="-3.70982">
        <ele>761</ele>
        <time>2021-11-16 13:55:37</time>
      </trkpt>
      <trkpt lat="40.57337" lon="-3.70982">
        <ele>761</ele>
        <time>2021-11-16 13:55:38</time>
      </trkpt>
      <trkpt lat="40.57329" lon="-3.70983">
        <ele>761</ele>
        <time>2021-11-16 13:55:39</time>
      </trkpt>
      <trkpt lat="40.57322" lon="-3.70982">
        <ele>760.8</ele>
        <time>2021-11-16 13:55:40</time>
      </trkpt>
      <trkpt lat="40.57314" lon="-3.70981">
        <ele>761</ele>
        <time>2021-11-16 13:55:41</time>
      </trkpt>
      <trkpt lat="40.57306" lon="-3.70981">
        <ele>760.8</ele>
        <time>2021-11-16 13:55:42</time>
      </trkpt>
      <trkpt lat="40.57297" lon="-3.70981">
        <ele>760.8</ele>
        <time>2021-11-16 13:55:43</time>
      </trkpt>
      <trkpt lat="40.57289" lon="-3.70982">
        <ele>760.8</ele>
        <time>2021-11-16 13:55:44</time>
      </trkpt>
      <trkpt lat="40.57281" lon="-3.70984">
        <ele>760.6</ele>
        <time>2021-11-16 13:55:45</time>
      </trkpt>
      <trkpt lat="40.57273" lon="-3.70986">
        <ele>760.4</ele>
        <time>2021-11-16 13:55:46</time>
      </trkpt>
      <trkpt lat="40.57265" lon="-3.70988">
        <ele>760.2</ele>
        <time>2021-11-16 13:55:47</time>
      </trkpt>
      <trkpt lat="40.57257" lon="-3.70991">
        <ele>759.8</ele>
        <time>2021-11-16 13:55:48</time>
      </trkpt>
      <trkpt lat="40.57249" lon="-3.70993">
        <ele>759.4</ele>
        <time>2021-11-16 13:55:49</time>
      </trkpt>
      <trkpt lat="40.57242" lon="-3.70995">
        <ele>759.2</ele>
        <time>2021-11-16 13:55:50</time>
      </trkpt>
      <trkpt lat="40.57235" lon="-3.70997">
        <ele>759.2</ele>
        <time>2021-11-16 13:55:51</time>
      </trkpt>
      <trkpt lat="40.57227" lon="-3.71">
        <ele>759.2</ele>
        <time>2021-11-16 13:55:52</time>
      </trkpt>
      <trkpt lat="40.57221" lon="-3.71003">
        <ele>759</ele>
        <time>2021-11-16 13:55:53</time>
      </trkpt>
      <trkpt lat="40.57214" lon="-3.71005">
        <ele>759</ele>
        <time>2021-11-16 13:55:54</time>
      </trkpt>
      <trkpt lat="40.57207" lon="-3.71007">
        <ele>758.8</ele>
        <time>2021-11-16 13:55:55</time>
      </trkpt>
      <trkpt lat="40.572" lon="-3.71009">
        <ele>758.8</ele>
        <time>2021-11-16 13:55:56</time>
      </trkpt>
      <trkpt lat="40.57192" lon="-3.71012">
        <ele>758.6</ele>
        <time>2021-11-16 13:55:57</time>
      </trkpt>
      <trkpt lat="40.57185" lon="-3.71014">
        <ele>758.6</ele>
        <time>2021-11-16 13:55:58</time>
      </trkpt>
      <trkpt lat="40.57177" lon="-3.71017">
        <ele>758.4</ele>
        <time>2021-11-16 13:55:59</time>
      </trkpt>
      <trkpt lat="40.5717" lon="-3.7102">
        <ele>758.4</ele>
        <time>2021-11-16 13:56:00</time>
      </trkpt>
      <trkpt lat="40.57162" lon="-3.71023">
        <ele>758.4</ele>
        <time>2021-11-16 13:56:01</time>
      </trkpt>
      <trkpt lat="40.57154" lon="-3.71026">
        <ele>758.4</ele>
        <time>2021-11-16 13:56:02</time>
      </trkpt>
      <trkpt lat="40.57146" lon="-3.7103">
        <ele>758.4</ele>
        <time>2021-11-16 13:56:03</time>
      </trkpt>
      <trkpt lat="40.57138" lon="-3.71033">
        <ele>758.4</ele>
        <time>2021-11-16 13:56:04</time>
      </trkpt>
      <trkpt lat="40.5713" lon="-3.71036">
        <ele>758.4</ele>
        <time>2021-11-16 13:56:05</time>
      </trkpt>
      <trkpt lat="40.57122" lon="-3.71038">
        <ele>758.4</ele>
        <time>2021-11-16 13:56:06</time>
      </trkpt>
      <trkpt lat="40.57113" lon="-3.71042">
        <ele>758.4</ele>
        <time>2021-11-16 13:56:07</time>
      </trkpt>
      <trkpt lat="40.57105" lon="-3.71045">
        <ele>758.4</ele>
        <time>2021-11-16 13:56:08</time>
      </trkpt>
      <trkpt lat="40.57097" lon="-3.7105">
        <ele>758</ele>
        <time>2021-11-16 13:56:09</time>
      </trkpt>
      <trkpt lat="40.5709" lon="-3.71055">
        <ele>758</ele>
        <time>2021-11-16 13:56:10</time>
      </trkpt>
      <trkpt lat="40.57082" lon="-3.7106">
        <ele>757.8</ele>
        <time>2021-11-16 13:56:11</time>
      </trkpt>
      <trkpt lat="40.57075" lon="-3.71064">
        <ele>757.6</ele>
        <time>2021-11-16 13:56:12</time>
      </trkpt>
      <trkpt lat="40.57067" lon="-3.71069">
        <ele>757.2</ele>
        <time>2021-11-16 13:56:13</time>
      </trkpt>
      <trkpt lat="40.5706" lon="-3.71073">
        <ele>757.2</ele>
        <time>2021-11-16 13:56:14</time>
      </trkpt>
      <trkpt lat="40.57053" lon="-3.71078">
        <ele>757</ele>
        <time>2021-11-16 13:56:15</time>
      </trkpt>
      <trkpt lat="40.57047" lon="-3.71082">
        <ele>756.8</ele>
        <time>2021-11-16 13:56:16</time>
      </trkpt>
      <trkpt lat="40.5704" lon="-3.71086">
        <ele>756.6</ele>
        <time>2021-11-16 13:56:17</time>
      </trkpt>
      <trkpt lat="40.57033" lon="-3.7109">
        <ele>756.6</ele>
        <time>2021-11-16 13:56:18</time>
      </trkpt>
      <trkpt lat="40.57027" lon="-3.71094">
        <ele>756.8</ele>
        <time>2021-11-16 13:56:19</time>
      </trkpt>
      <trkpt lat="40.5702" lon="-3.71098">
        <ele>756.6</ele>
        <time>2021-11-16 13:56:20</time>
      </trkpt>
      <trkpt lat="40.57014" lon="-3.71102">
        <ele>756.6</ele>
        <time>2021-11-16 13:56:21</time>
      </trkpt>
      <trkpt lat="40.57008" lon="-3.71106">
        <ele>756.8</ele>
        <time>2021-11-16 13:56:22</time>
      </trkpt>
      <trkpt lat="40.57001" lon="-3.71109">
        <ele>756.8</ele>
        <time>2021-11-16 13:56:23</time>
      </trkpt>
      <trkpt lat="40.56995" lon="-3.71113">
        <ele>757</ele>
        <time>2021-11-16 13:56:24</time>
      </trkpt>
      <trkpt lat="40.56989" lon="-3.71117">
        <ele>757</ele>
        <time>2021-11-16 13:56:25</time>
      </trkpt>
      <trkpt lat="40.56983" lon="-3.71121">
        <ele>757.2</ele>
        <time>2021-11-16 13:56:26</time>
      </trkpt>
      <trkpt lat="40.56977" lon="-3.71124">
        <ele>757.4</ele>
        <time>2021-11-16 13:56:27</time>
      </trkpt>
      <trkpt lat="40.56971" lon="-3.71128">
        <ele>757.4</ele>
        <time>2021-11-16 13:56:28</time>
      </trkpt>
      <trkpt lat="40.56965" lon="-3.71133">
        <ele>757.4</ele>
        <time>2021-11-16 13:56:29</time>
      </trkpt>
      <trkpt lat="40.56959" lon="-3.71137">
        <ele>758</ele>
        <time>2021-11-16 13:56:30</time>
      </trkpt>
      <trkpt lat="40.56953" lon="-3.71142">
        <ele>758.2</ele>
        <time>2021-11-16 13:56:31</time>
      </trkpt>
      <trkpt lat="40.56948" lon="-3.71146">
        <ele>758.4</ele>
        <time>2021-11-16 13:56:32</time>
      </trkpt>
      <trkpt lat="40.56942" lon="-3.71149">
        <ele>758.6</ele>
        <time>2021-11-16 13:56:33</time>
      </trkpt>
      <trkpt lat="40.56936" lon="-3.71153">
        <ele>758.8</ele>
        <time>2021-11-16 13:56:34</time>
      </trkpt>
      <trkpt lat="40.56929" lon="-3.71156">
        <ele>759.2</ele>
        <time>2021-11-16 13:56:35</time>
      </trkpt>
      <trkpt lat="40.56923" lon="-3.71158">
        <ele>759.2</ele>
        <time>2021-11-16 13:56:36</time>
      </trkpt>
      <trkpt lat="40.56917" lon="-3.71161">
        <ele>759.4</ele>
        <time>2021-11-16 13:56:37</time>
      </trkpt>
      <trkpt lat="40.56911" lon="-3.71163">
        <ele>759.6</ele>
        <time>2021-11-16 13:56:38</time>
      </trkpt>
      <trkpt lat="40.56905" lon="-3.71166">
        <ele>759.6</ele>
        <time>2021-11-16 13:56:39</time>
      </trkpt>
      <trkpt lat="40.56898" lon="-3.71168">
        <ele>759.6</ele>
        <time>2021-11-16 13:56:40</time>
      </trkpt>
      <trkpt lat="40.56892" lon="-3.71171">
        <ele>759.6</ele>
        <time>2021-11-16 13:56:41</time>
      </trkpt>
      <trkpt lat="40.56886" lon="-3.71174">
        <ele>759.8</ele>
        <time>2021-11-16 13:56:42</time>
      </trkpt>
      <trkpt lat="40.5688" lon="-3.71177">
        <ele>759.8</ele>
        <time>2021-11-16 13:56:43</time>
      </trkpt>
      <trkpt lat="40.56874" lon="-3.71179">
        <ele>760.2</ele>
        <time>2021-11-16 13:56:44</time>
      </trkpt>
      <trkpt lat="40.56868" lon="-3.71182">
        <ele>760.4</ele>
        <time>2021-11-16 13:56:45</time>
      </trkpt>
      <trkpt lat="40.56863" lon="-3.71186">
        <ele>761</ele>
        <time>2021-11-16 13:56:46</time>
      </trkpt>
      <trkpt lat="40.56858" lon="-3.7119">
        <ele>761.4</ele>
        <time>2021-11-16 13:56:47</time>
      </trkpt>
      <trkpt lat="40.56852" lon="-3.71194">
        <ele>761.4</ele>
        <time>2021-11-16 13:56:48</time>
      </trkpt>
      <trkpt lat="40.56847" lon="-3.71197">
        <ele>761.4</ele>
        <time>2021-11-16 13:56:49</time>
      </trkpt>
      <trkpt lat="40.56842" lon="-3.71201">
        <ele>761.6</ele>
        <time>2021-11-16 13:56:50</time>
      </trkpt>
      <trkpt lat="40.56837" lon="-3.71205">
        <ele>761.6</ele>
        <time>2021-11-16 13:56:51</time>
      </trkpt>
      <trkpt lat="40.56832" lon="-3.71208">
        <ele>761.8</ele>
        <time>2021-11-16 13:56:52</time>
      </trkpt>
      <trkpt lat="40.56827" lon="-3.71212">
        <ele>761.8</ele>
        <time>2021-11-16 13:56:53</time>
      </trkpt>
      <trkpt lat="40.56822" lon="-3.71216">
        <ele>762.2</ele>
        <time>2021-11-16 13:56:54</time>
      </trkpt>
      <trkpt lat="40.56817" lon="-3.71219">
        <ele>762.4</ele>
        <time>2021-11-16 13:56:55</time>
      </trkpt>
      <trkpt lat="40.56812" lon="-3.71223">
        <ele>762.6</ele>
        <time>2021-11-16 13:56:56</time>
      </trkpt>
      <trkpt lat="40.56806" lon="-3.71226">
        <ele>762.4</ele>
        <time>2021-11-16 13:56:57</time>
      </trkpt>
      <trkpt lat="40.56801" lon="-3.71229">
        <ele>763</ele>
        <time>2021-11-16 13:56:58</time>
      </trkpt>
      <trkpt lat="40.56796" lon="-3.71233">
        <ele>763</ele>
        <time>2021-11-16 13:56:59</time>
      </trkpt>
      <trkpt lat="40.5679" lon="-3.71236">
        <ele>763.2</ele>
        <time>2021-11-16 13:57:00</time>
      </trkpt>
      <trkpt lat="40.56785" lon="-3.7124">
        <ele>763.6</ele>
        <time>2021-11-16 13:57:01</time>
      </trkpt>
      <trkpt lat="40.5678" lon="-3.71243">
        <ele>763.8</ele>
        <time>2021-11-16 13:57:02</time>
      </trkpt>
      <trkpt lat="40.56774" lon="-3.71247">
        <ele>764</ele>
        <time>2021-11-16 13:57:03</time>
      </trkpt>
      <trkpt lat="40.56769" lon="-3.71251">
        <ele>764.2</ele>
        <time>2021-11-16 13:57:04</time>
      </trkpt>
      <trkpt lat="40.56764" lon="-3.71254">
        <ele>764.2</ele>
        <time>2021-11-16 13:57:05</time>
      </trkpt>
      <trkpt lat="40.56759" lon="-3.71258">
        <ele>764.4</ele>
        <time>2021-11-16 13:57:06</time>
      </trkpt>
      <trkpt lat="40.56753" lon="-3.71261">
        <ele>764.4</ele>
        <time>2021-11-16 13:57:07</time>
      </trkpt>
      <trkpt lat="40.56748" lon="-3.71265">
        <ele>764.4</ele>
        <time>2021-11-16 13:57:08</time>
      </trkpt>
      <trkpt lat="40.56551" lon="-3.71444">
        <ele>775.2</ele>
        <time>2021-11-16 13:58:15</time>
      </trkpt>
      <trkpt lat="40.56546" lon="-3.71447">
        <ele>775</ele>
        <time>2021-11-16 13:58:16</time>
      </trkpt>
      <trkpt lat="40.56541" lon="-3.7145">
        <ele>775.2</ele>
        <time>2021-11-16 13:58:17</time>
      </trkpt>
      <trkpt lat="40.56535" lon="-3.71453">
        <ele>775</ele>
        <time>2021-11-16 13:58:18</time>
      </trkpt>
      <trkpt lat="40.56528" lon="-3.71455">
        <ele>774.8</ele>
        <time>2021-11-16 13:58:19</time>
      </trkpt>
      <trkpt lat="40.56521" lon="-3.71457">
        <ele>774.4</ele>
        <time>2021-11-16 13:58:20</time>
      </trkpt>
      <trkpt lat="40.56514" lon="-3.71458">
        <ele>774</ele>
        <time>2021-11-16 13:58:21</time>
      </trkpt>
      <trkpt lat="40.56506" lon="-3.7146">
        <ele>773.8</ele>
        <time>2021-11-16 13:58:22</time>
      </trkpt>
      <trkpt lat="40.56498" lon="-3.71461">
        <ele>773.6</ele>
        <time>2021-11-16 13:58:23</time>
      </trkpt>
      <trkpt lat="40.5649" lon="-3.71463">
        <ele>773.6</ele>
        <time>2021-11-16 13:58:24</time>
      </trkpt>
      <trkpt lat="40.56481" lon="-3.71464">
        <ele>773.2</ele>
        <time>2021-11-16 13:58:25</time>
      </trkpt>
      <trkpt lat="40.56473" lon="-3.71464">
        <ele>772.2</ele>
        <time>2021-11-16 13:58:26</time>
      </trkpt>
      <trkpt lat="40.56465" lon="-3.71465">
        <ele>771.6</ele>
        <time>2021-11-16 13:58:27</time>
      </trkpt>
      <trkpt lat="40.56457" lon="-3.71465">
        <ele>771.2</ele>
        <time>2021-11-16 13:58:28</time>
      </trkpt>
      <trkpt lat="40.56449" lon="-3.71465">
        <ele>770.6</ele>
        <time>2021-11-16 13:58:29</time>
      </trkpt>
      <trkpt lat="40.56441" lon="-3.71465">
        <ele>769.4</ele>
        <time>2021-11-16 13:58:30</time>
      </trkpt>
      <trkpt lat="40.56434" lon="-3.71465">
        <ele>769</ele>
        <time>2021-11-16 13:58:31</time>
      </trkpt>
      <trkpt lat="40.56426" lon="-3.71465">
        <ele>768.6</ele>
        <time>2021-11-16 13:58:32</time>
      </trkpt>
      <trkpt lat="40.56418" lon="-3.71463">
        <ele>768.4</ele>
        <time>2021-11-16 13:58:33</time>
      </trkpt>
      <trkpt lat="40.56411" lon="-3.7146">
        <ele>768.6</ele>
        <time>2021-11-16 13:58:34</time>
      </trkpt>
      <trkpt lat="40.56403" lon="-3.71458">
        <ele>768.4</ele>
        <time>2021-11-16 13:58:35</time>
      </trkpt>
      <trkpt lat="40.56396" lon="-3.71456">
        <ele>768.4</ele>
        <time>2021-11-16 13:58:36</time>
      </trkpt>
      <trkpt lat="40.56388" lon="-3.71454">
        <ele>768.2</ele>
        <time>2021-11-16 13:58:37</time>
      </trkpt>
      <trkpt lat="40.56381" lon="-3.71453">
        <ele>768.2</ele>
        <time>2021-11-16 13:58:38</time>
      </trkpt>
      <trkpt lat="40.56373" lon="-3.71452">
        <ele>768.2</ele>
        <time>2021-11-16 13:58:39</time>
      </trkpt>
      <trkpt lat="40.56365" lon="-3.71451">
        <ele>768.2</ele>
        <time>2021-11-16 13:58:40</time>
      </trkpt>
      <trkpt lat="40.56357" lon="-3.7145">
        <ele>768.2</ele>
        <time>2021-11-16 13:58:41</time>
      </trkpt>
      <trkpt lat="40.56349" lon="-3.71449">
        <ele>768.2</ele>
        <time>2021-11-16 13:58:42</time>
      </trkpt>
      <trkpt lat="40.56341" lon="-3.71448">
        <ele>768.2</ele>
        <time>2021-11-16 13:58:43</time>
      </trkpt>
      <trkpt lat="40.56333" lon="-3.71448">
        <ele>768.2</ele>
        <time>2021-11-16 13:58:44</time>
      </trkpt>
      <trkpt lat="40.56325" lon="-3.71448">
        <ele>768</ele>
        <time>2021-11-16 13:58:45</time>
      </trkpt>
      <trkpt lat="40.56316" lon="-3.71449">
        <ele>768.2</ele>
        <time>2021-11-16 13:58:46</time>
      </trkpt>
      <trkpt lat="40.56308" lon="-3.7145">
        <ele>768</ele>
        <time>2021-11-16 13:58:47</time>
      </trkpt>
      <trkpt lat="40.563" lon="-3.7145">
        <ele>768.2</ele>
        <time>2021-11-16 13:58:48</time>
      </trkpt>
      <trkpt lat="40.56291" lon="-3.71449">
        <ele>768</ele>
        <time>2021-11-16 13:58:49</time>
      </trkpt>
      <trkpt lat="40.56282" lon="-3.71448">
        <ele>768</ele>
        <time>2021-11-16 13:58:50</time>
      </trkpt>
      <trkpt lat="40.56273" lon="-3.71446">
        <ele>767.8</ele>
        <time>2021-11-16 13:58:51</time>
      </trkpt>
      <trkpt lat="40.56264" lon="-3.71443">
        <ele>767.6</ele>
        <time>2021-11-16 13:58:52</time>
      </trkpt>
      <trkpt lat="40.56256" lon="-3.71439">
        <ele>767.4</ele>
        <time>2021-11-16 13:58:53</time>
      </trkpt>
      <trkpt lat="40.56247" lon="-3.71437">
        <ele>766.6</ele>
        <time>2021-11-16 13:58:54</time>
      </trkpt>
      <trkpt lat="40.56237" lon="-3.71435">
        <ele>766</ele>
        <time>2021-11-16 13:58:55</time>
      </trkpt>
      <trkpt lat="40.56228" lon="-3.71432">
        <ele>765.8</ele>
        <time>2021-11-16 13:58:56</time>
      </trkpt>
      <trkpt lat="40.56219" lon="-3.71429">
        <ele>765.6</ele>
        <time>2021-11-16 13:58:57</time>
      </trkpt>
      <trkpt lat="40.5621" lon="-3.71427">
        <ele>765.2</ele>
        <time>2021-11-16 13:58:58</time>
      </trkpt>
      <trkpt lat="40.56201" lon="-3.71424">
        <ele>764.2</ele>
        <time>2021-11-16 13:58:59</time>
      </trkpt>
      <trkpt lat="40.56192" lon="-3.71422">
        <ele>763.8</ele>
        <time>2021-11-16 13:59:00</time>
      </trkpt>
      <trkpt lat="40.56182" lon="-3.7142">
        <ele>763</ele>
        <time>2021-11-16 13:59:01</time>
      </trkpt>
      <trkpt lat="40.56173" lon="-3.71418">
        <ele>763</ele>
        <time>2021-11-16 13:59:02</time>
      </trkpt>
      <trkpt lat="40.56163" lon="-3.71416">
        <ele>762.4</ele>
        <time>2021-11-16 13:59:03</time>
      </trkpt>
      <trkpt lat="40.56154" lon="-3.71415">
        <ele>762.2</ele>
        <time>2021-11-16 13:59:04</time>
      </trkpt>
      <trkpt lat="40.56145" lon="-3.71415">
        <ele>762</ele>
        <time>2021-11-16 13:59:05</time>
      </trkpt>
      <trkpt lat="40.56135" lon="-3.71414">
        <ele>761.8</ele>
        <time>2021-11-16 13:59:06</time>
      </trkpt>
      <trkpt lat="40.56126" lon="-3.71413">
        <ele>761.4</ele>
        <time>2021-11-16 13:59:07</time>
      </trkpt>
      <trkpt lat="40.56118" lon="-3.71413">
        <ele>761</ele>
        <time>2021-11-16 13:59:08</time>
      </trkpt>
      <trkpt lat="40.56109" lon="-3.71412">
        <ele>760.8</ele>
        <time>2021-11-16 13:59:09</time>
      </trkpt>
      <trkpt lat="40.56101" lon="-3.71412">
        <ele>760.2</ele>
        <time>2021-11-16 13:59:10</time>
      </trkpt>
      <trkpt lat="40.56093" lon="-3.71413">
        <ele>760.2</ele>
        <time>2021-11-16 13:59:11</time>
      </trkpt>
      <trkpt lat="40.56086" lon="-3.71413">
        <ele>760</ele>
        <time>2021-11-16 13:59:12</time>
      </trkpt>
      <trkpt lat="40.56078" lon="-3.71413">
        <ele>760.2</ele>
        <time>2021-11-16 13:59:13</time>
      </trkpt>
      <trkpt lat="40.56071" lon="-3.71413">
        <ele>760</ele>
        <time>2021-11-16 13:59:14</time>
      </trkpt>
      <trkpt lat="40.56064" lon="-3.71412">
        <ele>760</ele>
        <time>2021-11-16 13:59:15</time>
      </trkpt>
      <trkpt lat="40.56057" lon="-3.71411">
        <ele>760</ele>
        <time>2021-11-16 13:59:16</time>
      </trkpt>
      <trkpt lat="40.5605" lon="-3.7141">
        <ele>760</ele>
        <time>2021-11-16 13:59:17</time>
      </trkpt>
      <trkpt lat="40.56043" lon="-3.71409">
        <ele>760</ele>
        <time>2021-11-16 13:59:18</time>
      </trkpt>
      <trkpt lat="40.56036" lon="-3.71408">
        <ele>760</ele>
        <time>2021-11-16 13:59:19</time>
      </trkpt>
      <trkpt lat="40.56029" lon="-3.71407">
        <ele>760</ele>
        <time>2021-11-16 13:59:20</time>
      </trkpt>
      <trkpt lat="40.56023" lon="-3.71405">
        <ele>760</ele>
        <time>2021-11-16 13:59:21</time>
      </trkpt>
      <trkpt lat="40.56016" lon="-3.71404">
        <ele>760</ele>
        <time>2021-11-16 13:59:22</time>
      </trkpt>
      <trkpt lat="40.56009" lon="-3.71403">
        <ele>760</ele>
        <time>2021-11-16 13:59:23</time>
      </trkpt>
      <trkpt lat="40.56002" lon="-3.71402">
        <ele>759.8</ele>
        <time>2021-11-16 13:59:24</time>
      </trkpt>
      <trkpt lat="40.55995" lon="-3.714">
        <ele>760</ele>
        <time>2021-11-16 13:59:25</time>
      </trkpt>
      <trkpt lat="40.55988" lon="-3.71396">
        <ele>760</ele>
        <time>2021-11-16 13:59:26</time>
      </trkpt>
      <trkpt lat="40.55982" lon="-3.71391">
        <ele>760</ele>
        <time>2021-11-16 13:59:27</time>
      </trkpt>
      <trkpt lat="40.55976" lon="-3.71385">
        <ele>760</ele>
        <time>2021-11-16 13:59:28</time>
      </trkpt>
      <trkpt lat="40.5597" lon="-3.71377">
        <ele>760</ele>
        <time>2021-11-16 13:59:29</time>
      </trkpt>
      <trkpt lat="40.55965" lon="-3.71368">
        <ele>760</ele>
        <time>2021-11-16 13:59:30</time>
      </trkpt>
      <trkpt lat="40.5596" lon="-3.71359">
        <ele>760</ele>
        <time>2021-11-16 13:59:31</time>
      </trkpt>
      <trkpt lat="40.55953" lon="-3.7135">
        <ele>759.8</ele>
        <time>2021-11-16 13:59:32</time>
      </trkpt>
      <trkpt lat="40.55946" lon="-3.71341">
        <ele>759.8</ele>
        <time>2021-11-16 13:59:33</time>
      </trkpt>
      <trkpt lat="40.55937" lon="-3.71334">
        <ele>759.6</ele>
        <time>2021-11-16 13:59:34</time>
      </trkpt>
      <trkpt lat="40.55928" lon="-3.71328">
        <ele>759.2</ele>
        <time>2021-11-16 13:59:35</time>
      </trkpt>
      <trkpt lat="40.55917" lon="-3.71323">
        <ele>758.4</ele>
        <time>2021-11-16 13:59:36</time>
      </trkpt>
      <trkpt lat="40.55907" lon="-3.71317">
        <ele>758.2</ele>
        <time>2021-11-16 13:59:37</time>
      </trkpt>
      <trkpt lat="40.55896" lon="-3.71311">
        <ele>758</ele>
        <time>2021-11-16 13:59:38</time>
      </trkpt>
      <trkpt lat="40.55886" lon="-3.71305">
        <ele>758</ele>
        <time>2021-11-16 13:59:39</time>
      </trkpt>
      <trkpt lat="40.55877" lon="-3.713">
        <ele>757.6</ele>
        <time>2021-11-16 13:59:40</time>
      </trkpt>
      <trkpt lat="40.55868" lon="-3.71294">
        <ele>755.8</ele>
        <time>2021-11-16 13:59:41</time>
      </trkpt>
      <trkpt lat="40.5586" lon="-3.71288">
        <ele>754.4</ele>
        <time>2021-11-16 13:59:42</time>
      </trkpt>
      <trkpt lat="40.55853" lon="-3.71282">
        <ele>752.6</ele>
        <time>2021-11-16 13:59:43</time>
      </trkpt>
      <trkpt lat="40.55846" lon="-3.71277">
        <ele>751.8</ele>
        <time>2021-11-16 13:59:44</time>
      </trkpt>
      <trkpt lat="40.55839" lon="-3.71272">
        <ele>751.4</ele>
        <time>2021-11-16 13:59:45</time>
      </trkpt>
      <trkpt lat="40.55833" lon="-3.71268">
        <ele>751.2</ele>
        <time>2021-11-16 13:59:46</time>
      </trkpt>
      <trkpt lat="40.55827" lon="-3.71263">
        <ele>751</ele>
        <time>2021-11-16 13:59:47</time>
      </trkpt>
      <trkpt lat="40.55822" lon="-3.71258">
        <ele>751</ele>
        <time>2021-11-16 13:59:48</time>
      </trkpt>
      <trkpt lat="40.55816" lon="-3.71252">
        <ele>751.2</ele>
        <time>2021-11-16 13:59:49</time>
      </trkpt>
      <trkpt lat="40.55811" lon="-3.71245">
        <ele>751</ele>
        <time>2021-11-16 13:59:50</time>
      </trkpt>
      <trkpt lat="40.55806" lon="-3.71239">
        <ele>751</ele>
        <time>2021-11-16 13:59:51</time>
      </trkpt>
      <trkpt lat="40.558" lon="-3.71233">
        <ele>751</ele>
        <time>2021-11-16 13:59:52</time>
      </trkpt>
      <trkpt lat="40.55794" lon="-3.71227">
        <ele>751.2</ele>
        <time>2021-11-16 13:59:53</time>
      </trkpt>
      <trkpt lat="40.55788" lon="-3.71221">
        <ele>751.2</ele>
        <time>2021-11-16 13:59:54</time>
      </trkpt>
      <trkpt lat="40.55781" lon="-3.71216">
        <ele>751.4</ele>
        <time>2021-11-16 13:59:55</time>
      </trkpt>
      <trkpt lat="40.55775" lon="-3.71209">
        <ele>751.6</ele>
        <time>2021-11-16 13:59:56</time>
      </trkpt>
      <trkpt lat="40.55768" lon="-3.71204">
        <ele>751.6</ele>
        <time>2021-11-16 13:59:57</time>
      </trkpt>
      <trkpt lat="40.55761" lon="-3.71198">
        <ele>751.6</ele>
        <time>2021-11-16 13:59:58</time>
      </trkpt>
      <trkpt lat="40.55754" lon="-3.71193">
        <ele>752</ele>
        <time>2021-11-16 13:59:59</time>
      </trkpt>
      <trkpt lat="40.55747" lon="-3.71188">
        <ele>752</ele>
        <time>2021-11-16 14:00:00</time>
      </trkpt>
      <trkpt lat="40.5574" lon="-3.71182">
        <ele>752</ele>
        <time>2021-11-16 14:00:01</time>
      </trkpt>
      <trkpt lat="40.55733" lon="-3.71177">
        <ele>752</ele>
        <time>2021-11-16 14:00:02</time>
      </trkpt>
      <trkpt lat="40.55726" lon="-3.71171">
        <ele>752</ele>
        <time>2021-11-16 14:00:03</time>
      </trkpt>
      <trkpt lat="40.55719" lon="-3.71165">
        <ele>752</ele>
        <time>2021-11-16 14:00:04</time>
      </trkpt>
      <trkpt lat="40.55712" lon="-3.7116">
        <ele>752</ele>
        <time>2021-11-16 14:00:05</time>
      </trkpt>
      <trkpt lat="40.55705" lon="-3.71154">
        <ele>751.8</ele>
        <time>2021-11-16 14:00:06</time>
      </trkpt>
      <trkpt lat="40.55698" lon="-3.71149">
        <ele>751.6</ele>
        <time>2021-11-16 14:00:07</time>
      </trkpt>
      <trkpt lat="40.55691" lon="-3.71143">
        <ele>751.4</ele>
        <time>2021-11-16 14:00:08</time>
      </trkpt>
      <trkpt lat="40.55684" lon="-3.71138">
        <ele>751</ele>
        <time>2021-11-16 14:00:09</time>
      </trkpt>
      <trkpt lat="40.55677" lon="-3.71132">
        <ele>750.8</ele>
        <time>2021-11-16 14:00:10</time>
      </trkpt>
      <trkpt lat="40.5567" lon="-3.71127">
        <ele>750.6</ele>
        <time>2021-11-16 14:00:11</time>
      </trkpt>
      <trkpt lat="40.55663" lon="-3.71121">
        <ele>750.6</ele>
        <time>2021-11-16 14:00:12</time>
      </trkpt>
      <trkpt lat="40.55655" lon="-3.71115">
        <ele>750.6</ele>
        <time>2021-11-16 14:00:13</time>
      </trkpt>
      <trkpt lat="40.55648" lon="-3.7111">
        <ele>750.6</ele>
        <time>2021-11-16 14:00:14</time>
      </trkpt>
      <trkpt lat="40.55641" lon="-3.71104">
        <ele>750.4</ele>
        <time>2021-11-16 14:00:15</time>
      </trkpt>
      <trkpt lat="40.55634" lon="-3.71099">
        <ele>750.4</ele>
        <time>2021-11-16 14:00:16</time>
      </trkpt>
      <trkpt lat="40.55627" lon="-3.71093">
        <ele>750.4</ele>
        <time>2021-11-16 14:00:17</time>
      </trkpt>
      <trkpt lat="40.5562" lon="-3.71087">
        <ele>750.4</ele>
        <time>2021-11-16 14:00:18</time>
      </trkpt>
      <trkpt lat="40.55613" lon="-3.71082">
        <ele>750.2</ele>
        <time>2021-11-16 14:00:19</time>
      </trkpt>
      <trkpt lat="40.55605" lon="-3.71076">
        <ele>749.8</ele>
        <time>2021-11-16 14:00:20</time>
      </trkpt>
      <trkpt lat="40.55598" lon="-3.71071">
        <ele>749.6</ele>
        <time>2021-11-16 14:00:21</time>
      </trkpt>
      <trkpt lat="40.55591" lon="-3.71066">
        <ele>749.6</ele>
        <time>2021-11-16 14:00:22</time>
      </trkpt>
      <trkpt lat="40.55584" lon="-3.71062">
        <ele>749.6</ele>
        <time>2021-11-16 14:00:23</time>
      </trkpt>
      <trkpt lat="40.55578" lon="-3.71058">
        <ele>749.6</ele>
        <time>2021-11-16 14:00:24</time>
      </trkpt>
      <trkpt lat="40.55572" lon="-3.71055">
        <ele>749.6</ele>
        <time>2021-11-16 14:00:25</time>
      </trkpt>
      <trkpt lat="40.55567" lon="-3.71051">
        <ele>749.6</ele>
        <time>2021-11-16 14:00:26</time>
      </trkpt>
      <trkpt lat="40.55562" lon="-3.71048">
        <ele>749.6</ele>
        <time>2021-11-16 14:00:27</time>
      </trkpt>
      <trkpt lat="40.55557" lon="-3.71044">
        <ele>749.6</ele>
        <time>2021-11-16 14:00:28</time>
      </trkpt>
      <trkpt lat="40.55552" lon="-3.71041">
        <ele>749.8</ele>
        <time>2021-11-16 14:00:29</time>
      </trkpt>
      <trkpt lat="40.55548" lon="-3.71038">
        <ele>750</ele>
        <time>2021-11-16 14:00:30</time>
      </trkpt>
      <trkpt lat="40.55544" lon="-3.71035">
        <ele>750.2</ele>
        <time>2021-11-16 14:00:31</time>
      </trkpt>
      <trkpt lat="40.5554" lon="-3.71032">
        <ele>750.4</ele>
        <time>2021-11-16 14:00:32</time>
      </trkpt>
      <trkpt lat="40.55537" lon="-3.71029">
        <ele>751.6</ele>
        <time>2021-11-16 14:00:33</time>
      </trkpt>
      <trkpt lat="40.55533" lon="-3.71026">
        <ele>752</ele>
        <time>2021-11-16 14:00:34</time>
      </trkpt>
      <trkpt lat="40.55529" lon="-3.71024">
        <ele>752.4</ele>
        <time>2021-11-16 14:00:35</time>
      </trkpt>
      <trkpt lat="40.55526" lon="-3.71022">
        <ele>752.4</ele>
        <time>2021-11-16 14:00:36</time>
      </trkpt>
      <trkpt lat="40.55522" lon="-3.71019">
        <ele>753</ele>
        <time>2021-11-16 14:00:37</time>
      </trkpt>
      <trkpt lat="40.55519" lon="-3.71017">
        <ele>753.4</ele>
        <time>2021-11-16 14:00:38</time>
      </trkpt>
      <trkpt lat="40.55515" lon="-3.71014">
        <ele>753.6</ele>
        <time>2021-11-16 14:00:39</time>
      </trkpt>
      <trkpt lat="40.55512" lon="-3.71011">
        <ele>754.8</ele>
        <time>2021-11-16 14:00:40</time>
      </trkpt>
      <trkpt lat="40.55509" lon="-3.71008">
        <ele>755.4</ele>
        <time>2021-11-16 14:00:41</time>
      </trkpt>
      <trkpt lat="40.55507" lon="-3.71005">
        <ele>755.8</ele>
        <time>2021-11-16 14:00:42</time>
      </trkpt>
      <trkpt lat="40.55507" lon="-3.71">
        <ele>756</ele>
        <time>2021-11-16 14:00:43</time>
      </trkpt>
      <trkpt lat="40.55507" lon="-3.70995">
        <ele>756.2</ele>
        <time>2021-11-16 14:00:44</time>
      </trkpt>
      <trkpt lat="40.55508" lon="-3.7099">
        <ele>756.6</ele>
        <time>2021-11-16 14:00:45</time>
      </trkpt>
      <trkpt lat="40.55509" lon="-3.70985">
        <ele>757</ele>
        <time>2021-11-16 14:00:46</time>
      </trkpt>
      <trkpt lat="40.5551" lon="-3.7098">
        <ele>757.2</ele>
        <time>2021-11-16 14:00:47</time>
      </trkpt>
      <trkpt lat="40.55511" lon="-3.70975">
        <ele>757.6</ele>
        <time>2021-11-16 14:00:48</time>
      </trkpt>
      <trkpt lat="40.55512" lon="-3.70969">
        <ele>758</ele>
        <time>2021-11-16 14:00:49</time>
      </trkpt>
      <trkpt lat="40.55513" lon="-3.70964">
        <ele>758.4</ele>
        <time>2021-11-16 14:00:50</time>
      </trkpt>
      <trkpt lat="40.55514" lon="-3.70958">
        <ele>758.4</ele>
        <time>2021-11-16 14:00:51</time>
      </trkpt>
      <trkpt lat="40.55515" lon="-3.70953">
        <ele>758.6</ele>
        <time>2021-11-16 14:00:52</time>
      </trkpt>
      <trkpt lat="40.55514" lon="-3.70948">
        <ele>758.6</ele>
        <time>2021-11-16 14:00:53</time>
      </trkpt>
      <trkpt lat="40.55512" lon="-3.70944">
        <ele>758.6</ele>
        <time>2021-11-16 14:00:54</time>
      </trkpt>
      <trkpt lat="40.55508" lon="-3.70941">
        <ele>758.6</ele>
        <time>2021-11-16 14:00:55</time>
      </trkpt>
      <trkpt lat="40.55505" lon="-3.70938">
        <ele>758.6</ele>
        <time>2021-11-16 14:00:56</time>
      </trkpt>
      <trkpt lat="40.55501" lon="-3.70934">
        <ele>758.8</ele>
        <time>2021-11-16 14:00:57</time>
      </trkpt>
      <trkpt lat="40.55496" lon="-3.70931">
        <ele>758.8</ele>
        <time>2021-11-16 14:00:58</time>
      </trkpt>
      <trkpt lat="40.55491" lon="-3.70927">
        <ele>758.8</ele>
        <time>2021-11-16 14:00:59</time>
      </trkpt>
      <trkpt lat="40.55486" lon="-3.70923">
        <ele>758.8</ele>
        <time>2021-11-16 14:01:00</time>
      </trkpt>
      <trkpt lat="40.55481" lon="-3.70919">
        <ele>759</ele>
        <time>2021-11-16 14:01:01</time>
      </trkpt>
      <trkpt lat="40.55475" lon="-3.70914">
        <ele>759</ele>
        <time>2021-11-16 14:01:02</time>
      </trkpt>
      <trkpt lat="40.55469" lon="-3.70909">
        <ele>758.8</ele>
        <time>2021-11-16 14:01:03</time>
      </trkpt>
      <trkpt lat="40.55462" lon="-3.70904">
        <ele>758.8</ele>
        <time>2021-11-16 14:01:04</time>
      </trkpt>
      <trkpt lat="40.55455" lon="-3.70899">
        <ele>758.8</ele>
        <time>2021-11-16 14:01:05</time>
      </trkpt>
      <trkpt lat="40.55449" lon="-3.70894">
        <ele>758.6</ele>
        <time>2021-11-16 14:01:06</time>
      </trkpt>
      <trkpt lat="40.55442" lon="-3.70889">
        <ele>758.4</ele>
        <time>2021-11-16 14:01:07</time>
      </trkpt>
      <trkpt lat="40.55437" lon="-3.70885">
        <ele>758.6</ele>
        <time>2021-11-16 14:01:08</time>
      </trkpt>
      <trkpt lat="40.55431" lon="-3.7088">
        <ele>758.4</ele>
        <time>2021-11-16 14:01:09</time>
      </trkpt>
      <trkpt lat="40.55426" lon="-3.70876">
        <ele>758.2</ele>
        <time>2021-11-16 14:01:10</time>
      </trkpt>
      <trkpt lat="40.55421" lon="-3.70872">
        <ele>757.8</ele>
        <time>2021-11-16 14:01:11</time>
      </trkpt>
      <trkpt lat="40.55416" lon="-3.70869">
        <ele>757</ele>
        <time>2021-11-16 14:01:12</time>
      </trkpt>
      <trkpt lat="40.55411" lon="-3.70865">
        <ele>756.8</ele>
        <time>2021-11-16 14:01:13</time>
      </trkpt>
      <trkpt lat="40.55407" lon="-3.70861">
        <ele>756.8</ele>
        <time>2021-11-16 14:01:14</time>
      </trkpt>
      <trkpt lat="40.55402" lon="-3.70858">
        <ele>756.4</ele>
        <time>2021-11-16 14:01:15</time>
      </trkpt>
      <trkpt lat="40.55398" lon="-3.70854">
        <ele>756.4</ele>
        <time>2021-11-16 14:01:16</time>
      </trkpt>
      <trkpt lat="40.55394" lon="-3.7085">
        <ele>756.2</ele>
        <time>2021-11-16 14:01:17</time>
      </trkpt>
      <trkpt lat="40.55389" lon="-3.70847">
        <ele>756.2</ele>
        <time>2021-11-16 14:01:18</time>
      </trkpt>
      <trkpt lat="40.55385" lon="-3.70843">
        <ele>756.2</ele>
        <time>2021-11-16 14:01:19</time>
      </trkpt>
      <trkpt lat="40.55381" lon="-3.70839">
        <ele>756.2</ele>
        <time>2021-11-16 14:01:20</time>
      </trkpt>
      <trkpt lat="40.55377" lon="-3.70836">
        <ele>756.4</ele>
        <time>2021-11-16 14:01:21</time>
      </trkpt>
      <trkpt lat="40.55373" lon="-3.70832">
        <ele>756.2</ele>
        <time>2021-11-16 14:01:22</time>
      </trkpt>
      <trkpt lat="40.55369" lon="-3.70827">
        <ele>756.6</ele>
        <time>2021-11-16 14:01:23</time>
      </trkpt>
      <trkpt lat="40.55365" lon="-3.70823">
        <ele>756.6</ele>
        <time>2021-11-16 14:01:24</time>
      </trkpt>
      <trkpt lat="40.55361" lon="-3.70819">
        <ele>757.4</ele>
        <time>2021-11-16 14:01:25</time>
      </trkpt>
      <trkpt lat="40.55357" lon="-3.70816">
        <ele>757.8</ele>
        <time>2021-11-16 14:01:26</time>
      </trkpt>
      <trkpt lat="40.55353" lon="-3.70812">
        <ele>758.2</ele>
        <time>2021-11-16 14:01:27</time>
      </trkpt>
      <trkpt lat="40.55349" lon="-3.70808">
        <ele>758.2</ele>
        <time>2021-11-16 14:01:28</time>
      </trkpt>
      <trkpt lat="40.55345" lon="-3.70804">
        <ele>758.6</ele>
        <time>2021-11-16 14:01:29</time>
      </trkpt>
      <trkpt lat="40.55341" lon="-3.708">
        <ele>758.8</ele>
        <time>2021-11-16 14:01:30</time>
      </trkpt>
      <trkpt lat="40.55338" lon="-3.70796">
        <ele>759</ele>
        <time>2021-11-16 14:01:31</time>
      </trkpt>
      <trkpt lat="40.55334" lon="-3.70791">
        <ele>759</ele>
        <time>2021-11-16 14:01:32</time>
      </trkpt>
      <trkpt lat="40.55331" lon="-3.70787">
        <ele>759.2</ele>
        <time>2021-11-16 14:01:33</time>
      </trkpt>
      <trkpt lat="40.55327" lon="-3.70783">
        <ele>759.2</ele>
        <time>2021-11-16 14:01:34</time>
      </trkpt>
      <trkpt lat="40.55323" lon="-3.70779">
        <ele>759.2</ele>
        <time>2021-11-16 14:01:35</time>
      </trkpt>
      <trkpt lat="40.5532" lon="-3.70775">
        <ele>759.4</ele>
        <time>2021-11-16 14:01:36</time>
      </trkpt>
      <trkpt lat="40.55316" lon="-3.70771">
        <ele>759.6</ele>
        <time>2021-11-16 14:01:37</time>
      </trkpt>
      <trkpt lat="40.55313" lon="-3.70767">
        <ele>760</ele>
        <time>2021-11-16 14:01:38</time>
      </trkpt>
      <trkpt lat="40.5531" lon="-3.70763">
        <ele>760</ele>
        <time>2021-11-16 14:01:39</time>
      </trkpt>
      <trkpt lat="40.55306" lon="-3.70759">
        <ele>760.6</ele>
        <time>2021-11-16 14:01:40</time>
      </trkpt>
      <trkpt lat="40.55303" lon="-3.70754">
        <ele>761.4</ele>
        <time>2021-11-16 14:01:41</time>
      </trkpt>
      <trkpt lat="40.553" lon="-3.7075">
        <ele>762</ele>
        <time>2021-11-16 14:01:42</time>
      </trkpt>
      <trkpt lat="40.55297" lon="-3.70746">
        <ele>762.4</ele>
        <time>2021-11-16 14:01:43</time>
      </trkpt>
      <trkpt lat="40.55294" lon="-3.70742">
        <ele>763</ele>
        <time>2021-11-16 14:01:44</time>
      </trkpt>
      <trkpt lat="40.55291" lon="-3.70738">
        <ele>763</ele>
        <time>2021-11-16 14:01:45</time>
      </trkpt>
      <trkpt lat="40.55288" lon="-3.70734">
        <ele>763.2</ele>
        <time>2021-11-16 14:01:46</time>
      </trkpt>
      <trkpt lat="40.55284" lon="-3.70731">
        <ele>763.4</ele>
        <time>2021-11-16 14:01:47</time>
      </trkpt>
      <trkpt lat="40.55281" lon="-3.70727">
        <ele>763.6</ele>
        <time>2021-11-16 14:01:48</time>
      </trkpt>
      <trkpt lat="40.55278" lon="-3.70723">
        <ele>764</ele>
        <time>2021-11-16 14:01:49</time>
      </trkpt>
      <trkpt lat="40.55274" lon="-3.70719">
        <ele>764.2</ele>
        <time>2021-11-16 14:01:50</time>
      </trkpt>
      <trkpt lat="40.55271" lon="-3.70715">
        <ele>764.2</ele>
        <time>2021-11-16 14:01:51</time>
      </trkpt>
      <trkpt lat="40.55268" lon="-3.70711">
        <ele>764.4</ele>
        <time>2021-11-16 14:01:52</time>
      </trkpt>
      <trkpt lat="40.55265" lon="-3.70707">
        <ele>764.6</ele>
        <time>2021-11-16 14:01:53</time>
      </trkpt>
      <trkpt lat="40.55262" lon="-3.70703">
        <ele>764.8</ele>
        <time>2021-11-16 14:01:54</time>
      </trkpt>
      <trkpt lat="40.55258" lon="-3.70699">
        <ele>765</ele>
        <time>2021-11-16 14:01:55</time>
      </trkpt>
      <trkpt lat="40.55255" lon="-3.70695">
        <ele>765.4</ele>
        <time>2021-11-16 14:01:56</time>
      </trkpt>
      <trkpt lat="40.55252" lon="-3.70692">
        <ele>765.4</ele>
        <time>2021-11-16 14:01:57</time>
      </trkpt>
      <trkpt lat="40.55249" lon="-3.70688">
        <ele>765.4</ele>
        <time>2021-11-16 14:01:58</time>
      </trkpt>
      <trkpt lat="40.55245" lon="-3.70684">
        <ele>765.8</ele>
        <time>2021-11-16 14:01:59</time>
      </trkpt>
      <trkpt lat="40.55242" lon="-3.7068">
        <ele>766</ele>
        <time>2021-11-16 14:02:00</time>
      </trkpt>
      <trkpt lat="40.55238" lon="-3.70676">
        <ele>766</ele>
        <time>2021-11-16 14:02:01</time>
      </trkpt>
      <trkpt lat="40.55235" lon="-3.70673">
        <ele>766.2</ele>
        <time>2021-11-16 14:02:02</time>
      </trkpt>
      <trkpt lat="40.55232" lon="-3.70669">
        <ele>766.4</ele>
        <time>2021-11-16 14:02:03</time>
      </trkpt>
      <trkpt lat="40.55228" lon="-3.70665">
        <ele>766.6</ele>
        <time>2021-11-16 14:02:04</time>
      </trkpt>
      <trkpt lat="40.55224" lon="-3.70661">
        <ele>766.8</ele>
        <time>2021-11-16 14:02:05</time>
      </trkpt>
      <trkpt lat="40.55221" lon="-3.70658">
        <ele>767</ele>
        <time>2021-11-16 14:02:06</time>
      </trkpt>
      <trkpt lat="40.55217" lon="-3.70654">
        <ele>767</ele>
        <time>2021-11-16 14:02:07</time>
      </trkpt>
      <trkpt lat="40.55214" lon="-3.7065">
        <ele>767.2</ele>
        <time>2021-11-16 14:02:08</time>
      </trkpt>
      <trkpt lat="40.5521" lon="-3.70647">
        <ele>767.2</ele>
        <time>2021-11-16 14:02:09</time>
      </trkpt>
      <trkpt lat="40.55206" lon="-3.70643">
        <ele>767.2</ele>
        <time>2021-11-16 14:02:10</time>
      </trkpt>
      <trkpt lat="40.55202" lon="-3.7064">
        <ele>767.6</ele>
        <time>2021-11-16 14:02:11</time>
      </trkpt>
      <trkpt lat="40.55198" lon="-3.70636">
        <ele>767.8</ele>
        <time>2021-11-16 14:02:12</time>
      </trkpt>
      <trkpt lat="40.55194" lon="-3.70633">
        <ele>767.8</ele>
        <time>2021-11-16 14:02:13</time>
      </trkpt>
      <trkpt lat="40.55189" lon="-3.70629">
        <ele>768.2</ele>
        <time>2021-11-16 14:02:14</time>
      </trkpt>
      <trkpt lat="40.55185" lon="-3.70626">
        <ele>768</ele>
        <time>2021-11-16 14:02:15</time>
      </trkpt>
      <trkpt lat="40.55181" lon="-3.70623">
        <ele>768.2</ele>
        <time>2021-11-16 14:02:16</time>
      </trkpt>
      <trkpt lat="40.55176" lon="-3.70619">
        <ele>768.4</ele>
        <time>2021-11-16 14:02:17</time>
      </trkpt>
      <trkpt lat="40.55171" lon="-3.70616">
        <ele>768.2</ele>
        <time>2021-11-16 14:02:18</time>
      </trkpt>
      <trkpt lat="40.55166" lon="-3.70613">
        <ele>768.4</ele>
        <time>2021-11-16 14:02:19</time>
      </trkpt>
      <trkpt lat="40.55161" lon="-3.7061">
        <ele>768.4</ele>
        <time>2021-11-16 14:02:20</time>
      </trkpt>
      <trkpt lat="40.55156" lon="-3.70607">
        <ele>768.4</ele>
        <time>2021-11-16 14:02:21</time>
      </trkpt>
      <trkpt lat="40.55151" lon="-3.70603">
        <ele>768.2</ele>
        <time>2021-11-16 14:02:22</time>
      </trkpt>
      <trkpt lat="40.55146" lon="-3.706">
        <ele>768.4</ele>
        <time>2021-11-16 14:02:23</time>
      </trkpt>
      <trkpt lat="40.5514" lon="-3.70598">
        <ele>768.2</ele>
        <time>2021-11-16 14:02:24</time>
      </trkpt>
      <trkpt lat="40.55134" lon="-3.70595">
        <ele>768.4</ele>
        <time>2021-11-16 14:02:25</time>
      </trkpt>
      <trkpt lat="40.55128" lon="-3.70592">
        <ele>768.4</ele>
        <time>2021-11-16 14:02:26</time>
      </trkpt>
      <trkpt lat="40.55123" lon="-3.70588">
        <ele>768.4</ele>
        <time>2021-11-16 14:02:27</time>
      </trkpt>
      <trkpt lat="40.55117" lon="-3.70585">
        <ele>768.2</ele>
        <time>2021-11-16 14:02:28</time>
      </trkpt>
      <trkpt lat="40.5511" lon="-3.70582">
        <ele>768.2</ele>
        <time>2021-11-16 14:02:29</time>
      </trkpt>
      <trkpt lat="40.55104" lon="-3.70579">
        <ele>768</ele>
        <time>2021-11-16 14:02:30</time>
      </trkpt>
      <trkpt lat="40.55097" lon="-3.70576">
        <ele>767.8</ele>
        <time>2021-11-16 14:02:31</time>
      </trkpt>
      <trkpt lat="40.5509" lon="-3.70573">
        <ele>767.8</ele>
        <time>2021-11-16 14:02:32</time>
      </trkpt>
      <trkpt lat="40.55083" lon="-3.70569">
        <ele>767.6</ele>
        <time>2021-11-16 14:02:33</time>
      </trkpt>
      <trkpt lat="40.55076" lon="-3.70566">
        <ele>767.4</ele>
        <time>2021-11-16 14:02:34</time>
      </trkpt>
      <trkpt lat="40.55069" lon="-3.70563">
        <ele>767.4</ele>
        <time>2021-11-16 14:02:35</time>
      </trkpt>
      <trkpt lat="40.55062" lon="-3.7056">
        <ele>767.2</ele>
        <time>2021-11-16 14:02:36</time>
      </trkpt>
      <trkpt lat="40.55054" lon="-3.70556">
        <ele>767.4</ele>
        <time>2021-11-16 14:02:37</time>
      </trkpt>
      <trkpt lat="40.55047" lon="-3.70553">
        <ele>767.2</ele>
        <time>2021-11-16 14:02:38</time>
      </trkpt>
      <trkpt lat="40.5504" lon="-3.7055">
        <ele>767</ele>
        <time>2021-11-16 14:02:39</time>
      </trkpt>
      <trkpt lat="40.55032" lon="-3.70546">
        <ele>766.4</ele>
        <time>2021-11-16 14:02:40</time>
      </trkpt>
      <trkpt lat="40.55025" lon="-3.70543">
        <ele>765.4</ele>
        <time>2021-11-16 14:02:41</time>
      </trkpt>
      <trkpt lat="40.55017" lon="-3.7054">
        <ele>765.2</ele>
        <time>2021-11-16 14:02:42</time>
      </trkpt>
      <trkpt lat="40.5501" lon="-3.70537">
        <ele>764.8</ele>
        <time>2021-11-16 14:02:43</time>
      </trkpt>
      <trkpt lat="40.55003" lon="-3.70533">
        <ele>764.6</ele>
        <time>2021-11-16 14:02:44</time>
      </trkpt>
      <trkpt lat="40.54996" lon="-3.7053">
        <ele>764.2</ele>
        <time>2021-11-16 14:02:45</time>
      </trkpt>
      <trkpt lat="40.54989" lon="-3.70527">
        <ele>764.2</ele>
        <time>2021-11-16 14:02:46</time>
      </trkpt>
      <trkpt lat="40.54982" lon="-3.70524">
        <ele>764</ele>
        <time>2021-11-16 14:02:47</time>
      </trkpt>
      <trkpt lat="40.54975" lon="-3.70521">
        <ele>764</ele>
        <time>2021-11-16 14:02:48</time>
      </trkpt>
      <trkpt lat="40.54968" lon="-3.70518">
        <ele>764</ele>
        <time>2021-11-16 14:02:49</time>
      </trkpt>
      <trkpt lat="40.54961" lon="-3.70516">
        <ele>763.4</ele>
        <time>2021-11-16 14:02:50</time>
      </trkpt>
      <trkpt lat="40.54954" lon="-3.70513">
        <ele>763.2</ele>
        <time>2021-11-16 14:02:51</time>
      </trkpt>
      <trkpt lat="40.54947" lon="-3.70511">
        <ele>763.2</ele>
        <time>2021-11-16 14:02:52</time>
      </trkpt>
      <trkpt lat="40.54941" lon="-3.70508">
        <ele>763</ele>
        <time>2021-11-16 14:02:53</time>
      </trkpt>
      <trkpt lat="40.54934" lon="-3.70506">
        <ele>763</ele>
        <time>2021-11-16 14:02:54</time>
      </trkpt>
      <trkpt lat="40.54927" lon="-3.70503">
        <ele>763</ele>
        <time>2021-11-16 14:02:55</time>
      </trkpt>
      <trkpt lat="40.54921" lon="-3.70499">
        <ele>762.8</ele>
        <time>2021-11-16 14:02:56</time>
      </trkpt>
      <trkpt lat="40.54915" lon="-3.70496">
        <ele>763</ele>
        <time>2021-11-16 14:02:57</time>
      </trkpt>
      <trkpt lat="40.54908" lon="-3.70493">
        <ele>763</ele>
        <time>2021-11-16 14:02:58</time>
      </trkpt>
      <trkpt lat="40.54902" lon="-3.7049">
        <ele>763</ele>
        <time>2021-11-16 14:02:59</time>
      </trkpt>
      <trkpt lat="40.54896" lon="-3.70487">
        <ele>763.2</ele>
        <time>2021-11-16 14:03:00</time>
      </trkpt>
      <trkpt lat="40.54889" lon="-3.70484">
        <ele>763</ele>
        <time>2021-11-16 14:03:01</time>
      </trkpt>
      <trkpt lat="40.54883" lon="-3.70482">
        <ele>763.2</ele>
        <time>2021-11-16 14:03:02</time>
      </trkpt>
      <trkpt lat="40.54876" lon="-3.70481">
        <ele>763.2</ele>
        <time>2021-11-16 14:03:03</time>
      </trkpt>
      <trkpt lat="40.5487" lon="-3.70479">
        <ele>763.2</ele>
        <time>2021-11-16 14:03:04</time>
      </trkpt>
      <trkpt lat="40.54863" lon="-3.70477">
        <ele>763.2</ele>
        <time>2021-11-16 14:03:05</time>
      </trkpt>
      <trkpt lat="40.54857" lon="-3.70474">
        <ele>763.2</ele>
        <time>2021-11-16 14:03:06</time>
      </trkpt>
      <trkpt lat="40.54852" lon="-3.70468">
        <ele>763.4</ele>
        <time>2021-11-16 14:03:07</time>
      </trkpt>
      <trkpt lat="40.54848" lon="-3.70461">
        <ele>763.2</ele>
        <time>2021-11-16 14:03:08</time>
      </trkpt>
      <trkpt lat="40.54844" lon="-3.70453">
        <ele>763.4</ele>
        <time>2021-11-16 14:03:09</time>
      </trkpt>
      <trkpt lat="40.54841" lon="-3.70446">
        <ele>763.4</ele>
        <time>2021-11-16 14:03:10</time>
      </trkpt>
      <trkpt lat="40.54838" lon="-3.70438">
        <ele>763.6</ele>
        <time>2021-11-16 14:03:11</time>
      </trkpt>
      <trkpt lat="40.54835" lon="-3.70431">
        <ele>763.4</ele>
        <time>2021-11-16 14:03:12</time>
      </trkpt>
      <trkpt lat="40.54831" lon="-3.70423">
        <ele>763.6</ele>
        <time>2021-11-16 14:03:13</time>
      </trkpt>
      <trkpt lat="40.54827" lon="-3.70416">
        <ele>763.6</ele>
        <time>2021-11-16 14:03:14</time>
      </trkpt>
      <trkpt lat="40.54823" lon="-3.70408">
        <ele>763.4</ele>
        <time>2021-11-16 14:03:15</time>
      </trkpt>
      <trkpt lat="40.5482" lon="-3.704">
        <ele>763.6</ele>
        <time>2021-11-16 14:03:16</time>
      </trkpt>
      <trkpt lat="40.54816" lon="-3.70393">
        <ele>763.4</ele>
        <time>2021-11-16 14:03:17</time>
      </trkpt>
      <trkpt lat="40.54811" lon="-3.70385">
        <ele>763.6</ele>
        <time>2021-11-16 14:03:18</time>
      </trkpt>
      <trkpt lat="40.54806" lon="-3.70376">
        <ele>763.4</ele>
        <time>2021-11-16 14:03:19</time>
      </trkpt>
      <trkpt lat="40.54801" lon="-3.70366">
        <ele>763.4</ele>
        <time>2021-11-16 14:03:20</time>
      </trkpt>
      <trkpt lat="40.54797" lon="-3.70356">
        <ele>763.4</ele>
        <time>2021-11-16 14:03:21</time>
      </trkpt>
      <trkpt lat="40.54791" lon="-3.70348">
        <ele>763.2</ele>
        <time>2021-11-16 14:03:22</time>
      </trkpt>
      <trkpt lat="40.54784" lon="-3.70341">
        <ele>763.4</ele>
        <time>2021-11-16 14:03:23</time>
      </trkpt>
      <trkpt lat="40.54776" lon="-3.70338">
        <ele>763.2</ele>
        <time>2021-11-16 14:03:24</time>
      </trkpt>
      <trkpt lat="40.5477" lon="-3.70339">
        <ele>762.8</ele>
        <time>2021-11-16 14:03:25</time>
      </trkpt>
      <trkpt lat="40.54765" lon="-3.70345">
        <ele>762.8</ele>
        <time>2021-11-16 14:03:26</time>
      </trkpt>
      <trkpt lat="40.54761" lon="-3.70353">
        <ele>762.2</ele>
        <time>2021-11-16 14:03:27</time>
      </trkpt>
      <trkpt lat="40.54759" lon="-3.70361">
        <ele>761.2</ele>
        <time>2021-11-16 14:03:28</time>
      </trkpt>
      <trkpt lat="40.54756" lon="-3.70368">
        <ele>760.6</ele>
        <time>2021-11-16 14:03:29</time>
      </trkpt>
      <trkpt lat="40.54752" lon="-3.70374">
        <ele>760.4</ele>
        <time>2021-11-16 14:03:30</time>
      </trkpt>
      <trkpt lat="40.54748" lon="-3.7038">
        <ele>760.4</ele>
        <time>2021-11-16 14:03:31</time>
      </trkpt>
      <trkpt lat="40.54744" lon="-3.70385">
        <ele>760.2</ele>
        <time>2021-11-16 14:03:32</time>
      </trkpt>
      <trkpt lat="40.54739" lon="-3.70388">
        <ele>760</ele>
        <time>2021-11-16 14:03:33</time>
      </trkpt>
      <trkpt lat="40.54734" lon="-3.70391">
        <ele>760.2</ele>
        <time>2021-11-16 14:03:34</time>
      </trkpt>
      <trkpt lat="40.54729" lon="-3.70393">
        <ele>760</ele>
        <time>2021-11-16 14:03:35</time>
      </trkpt>
      <trkpt lat="40.54723" lon="-3.70394">
        <ele>760</ele>
        <time>2021-11-16 14:03:36</time>
      </trkpt>
      <trkpt lat="40.54718" lon="-3.70395">
        <ele>760</ele>
        <time>2021-11-16 14:03:37</time>
      </trkpt>
      <trkpt lat="40.54713" lon="-3.70395">
        <ele>760.2</ele>
        <time>2021-11-16 14:03:38</time>
      </trkpt>
      <trkpt lat="40.54708" lon="-3.70394">
        <ele>760.4</ele>
        <time>2021-11-16 14:03:39</time>
      </trkpt>
      <trkpt lat="40.54703" lon="-3.70393">
        <ele>761</ele>
        <time>2021-11-16 14:03:40</time>
      </trkpt>
      <trkpt lat="40.54697" lon="-3.70391">
        <ele>761.6</ele>
        <time>2021-11-16 14:03:41</time>
      </trkpt>
      <trkpt lat="40.54692" lon="-3.7039">
        <ele>761.8</ele>
        <time>2021-11-16 14:03:42</time>
      </trkpt>
      <trkpt lat="40.54687" lon="-3.70388">
        <ele>762.2</ele>
        <time>2021-11-16 14:03:43</time>
      </trkpt>
      <trkpt lat="40.54683" lon="-3.70386">
        <ele>762.2</ele>
        <time>2021-11-16 14:03:44</time>
      </trkpt>
      <trkpt lat="40.54678" lon="-3.70384">
        <ele>762.2</ele>
        <time>2021-11-16 14:03:45</time>
      </trkpt>
      <trkpt lat="40.54673" lon="-3.70382">
        <ele>762.4</ele>
        <time>2021-11-16 14:03:46</time>
      </trkpt>
      <trkpt lat="40.54668" lon="-3.7038">
        <ele>762.4</ele>
        <time>2021-11-16 14:03:47</time>
      </trkpt>
      <trkpt lat="40.54663" lon="-3.70379">
        <ele>762.4</ele>
        <time>2021-11-16 14:03:48</time>
      </trkpt>
      <trkpt lat="40.54658" lon="-3.70376">
        <ele>762.8</ele>
        <time>2021-11-16 14:03:49</time>
      </trkpt>
      <trkpt lat="40.54653" lon="-3.70374">
        <ele>763</ele>
        <time>2021-11-16 14:03:50</time>
      </trkpt>
      <trkpt lat="40.54648" lon="-3.70372">
        <ele>763.2</ele>
        <time>2021-11-16 14:03:51</time>
      </trkpt>
      <trkpt lat="40.54643" lon="-3.70369">
        <ele>763.6</ele>
        <time>2021-11-16 14:03:52</time>
      </trkpt>
      <trkpt lat="40.54638" lon="-3.70367">
        <ele>764</ele>
        <time>2021-11-16 14:03:53</time>
      </trkpt>
      <trkpt lat="40.54632" lon="-3.70364">
        <ele>764.2</ele>
        <time>2021-11-16 14:03:54</time>
      </trkpt>
      <trkpt lat="40.54626" lon="-3.70362">
        <ele>764.4</ele>
        <time>2021-11-16 14:03:55</time>
      </trkpt>
      <trkpt lat="40.54621" lon="-3.70359">
        <ele>764.6</ele>
        <time>2021-11-16 14:03:56</time>
      </trkpt>
      <trkpt lat="40.54615" lon="-3.70357">
        <ele>764.6</ele>
        <time>2021-11-16 14:03:57</time>
      </trkpt>
      <trkpt lat="40.54609" lon="-3.70354">
        <ele>764.6</ele>
        <time>2021-11-16 14:03:58</time>
      </trkpt>
      <trkpt lat="40.54603" lon="-3.70351">
        <ele>764.6</ele>
        <time>2021-11-16 14:03:59</time>
      </trkpt>
      <trkpt lat="40.54597" lon="-3.70348">
        <ele>764.6</ele>
        <time>2021-11-16 14:04:00</time>
      </trkpt>
      <trkpt lat="40.54591" lon="-3.70345">
        <ele>764.6</ele>
        <time>2021-11-16 14:04:01</time>
      </trkpt>
      <trkpt lat="40.54585" lon="-3.70342">
        <ele>764.6</ele>
        <time>2021-11-16 14:04:02</time>
      </trkpt>
      <trkpt lat="40.54578" lon="-3.70339">
        <ele>764.6</ele>
        <time>2021-11-16 14:04:03</time>
      </trkpt>
      <trkpt lat="40.54572" lon="-3.70337">
        <ele>764.6</ele>
        <time>2021-11-16 14:04:04</time>
      </trkpt>
      <trkpt lat="40.54566" lon="-3.70334">
        <ele>764.4</ele>
        <time>2021-11-16 14:04:05</time>
      </trkpt>
      <trkpt lat="40.5456" lon="-3.7033">
        <ele>764.6</ele>
        <time>2021-11-16 14:04:06</time>
      </trkpt>
      <trkpt lat="40.54554" lon="-3.70327">
        <ele>764.4</ele>
        <time>2021-11-16 14:04:07</time>
      </trkpt>
      <trkpt lat="40.54547" lon="-3.70324">
        <ele>764.2</ele>
        <time>2021-11-16 14:04:08</time>
      </trkpt>
      <trkpt lat="40.54541" lon="-3.70321">
        <ele>764</ele>
        <time>2021-11-16 14:04:09</time>
      </trkpt>
      <trkpt lat="40.54535" lon="-3.70318">
        <ele>763.8</ele>
        <time>2021-11-16 14:04:10</time>
      </trkpt>
      <trkpt lat="40.54528" lon="-3.70315">
        <ele>763.8</ele>
        <time>2021-11-16 14:04:11</time>
      </trkpt>
      <trkpt lat="40.54522" lon="-3.70311">
        <ele>763.6</ele>
        <time>2021-11-16 14:04:12</time>
      </trkpt>
      <trkpt lat="40.54515" lon="-3.70308">
        <ele>763.2</ele>
        <time>2021-11-16 14:04:13</time>
      </trkpt>
      <trkpt lat="40.54508" lon="-3.70304">
        <ele>763</ele>
        <time>2021-11-16 14:04:14</time>
      </trkpt>
      <trkpt lat="40.54502" lon="-3.70301">
        <ele>763</ele>
        <time>2021-11-16 14:04:15</time>
      </trkpt>
      <trkpt lat="40.54495" lon="-3.70297">
        <ele>762.8</ele>
        <time>2021-11-16 14:04:16</time>
      </trkpt>
      <trkpt lat="40.54488" lon="-3.70293">
        <ele>762.8</ele>
        <time>2021-11-16 14:04:17</time>
      </trkpt>
      <trkpt lat="40.54482" lon="-3.7029">
        <ele>762.6</ele>
        <time>2021-11-16 14:04:18</time>
      </trkpt>
      <trkpt lat="40.54475" lon="-3.70286">
        <ele>762.6</ele>
        <time>2021-11-16 14:04:19</time>
      </trkpt>
      <trkpt lat="40.54468" lon="-3.70283">
        <ele>762.4</ele>
        <time>2021-11-16 14:04:20</time>
      </trkpt>
      <trkpt lat="40.54462" lon="-3.70279">
        <ele>762.2</ele>
        <time>2021-11-16 14:04:21</time>
      </trkpt>
      <trkpt lat="40.54455" lon="-3.70276">
        <ele>762.2</ele>
        <time>2021-11-16 14:04:22</time>
      </trkpt>
      <trkpt lat="40.54449" lon="-3.70272">
        <ele>762</ele>
        <time>2021-11-16 14:04:23</time>
      </trkpt>
      <trkpt lat="40.54443" lon="-3.70269">
        <ele>762</ele>
        <time>2021-11-16 14:04:24</time>
      </trkpt>
      <trkpt lat="40.54436" lon="-3.70265">
        <ele>761.8</ele>
        <time>2021-11-16 14:04:25</time>
      </trkpt>
      <trkpt lat="40.5443" lon="-3.70262">
        <ele>761.8</ele>
        <time>2021-11-16 14:04:26</time>
      </trkpt>
      <trkpt lat="40.54423" lon="-3.70258">
        <ele>761.6</ele>
        <time>2021-11-16 14:04:27</time>
      </trkpt>
      <trkpt lat="40.54417" lon="-3.70254">
        <ele>761.4</ele>
        <time>2021-11-16 14:04:28</time>
      </trkpt>
      <trkpt lat="40.5441" lon="-3.7025">
        <ele>761.2</ele>
        <time>2021-11-16 14:04:29</time>
      </trkpt>
      <trkpt lat="40.54404" lon="-3.70246">
        <ele>761.2</ele>
        <time>2021-11-16 14:04:30</time>
      </trkpt>
      <trkpt lat="40.54397" lon="-3.70242">
        <ele>760.6</ele>
        <time>2021-11-16 14:04:31</time>
      </trkpt>
      <trkpt lat="40.5439" lon="-3.70237">
        <ele>760.2</ele>
        <time>2021-11-16 14:04:32</time>
      </trkpt>
      <trkpt lat="40.54384" lon="-3.70233">
        <ele>760</ele>
        <time>2021-11-16 14:04:33</time>
      </trkpt>
      <trkpt lat="40.54377" lon="-3.70228">
        <ele>760</ele>
        <time>2021-11-16 14:04:34</time>
      </trkpt>
      <trkpt lat="40.54371" lon="-3.70223">
        <ele>759.8</ele>
        <time>2021-11-16 14:04:35</time>
      </trkpt>
      <trkpt lat="40.54364" lon="-3.70218">
        <ele>759.8</ele>
        <time>2021-11-16 14:04:36</time>
      </trkpt>
      <trkpt lat="40.54358" lon="-3.70213">
        <ele>759.4</ele>
        <time>2021-11-16 14:04:37</time>
      </trkpt>
      <trkpt lat="40.54352" lon="-3.70208">
        <ele>759.4</ele>
        <time>2021-11-16 14:04:38</time>
      </trkpt>
      <trkpt lat="40.54345" lon="-3.70202">
        <ele>759.4</ele>
        <time>2021-11-16 14:04:39</time>
      </trkpt>
      <trkpt lat="40.54339" lon="-3.70196">
        <ele>759</ele>
        <time>2021-11-16 14:04:40</time>
      </trkpt>
      <trkpt lat="40.54333" lon="-3.7019">
        <ele>759</ele>
        <time>2021-11-16 14:04:41</time>
      </trkpt>
      <trkpt lat="40.54327" lon="-3.70184">
        <ele>758.8</ele>
        <time>2021-11-16 14:04:42</time>
      </trkpt>
      <trkpt lat="40.54321" lon="-3.70177">
        <ele>758.8</ele>
        <time>2021-11-16 14:04:43</time>
      </trkpt>
      <trkpt lat="40.54315" lon="-3.70171">
        <ele>758.8</ele>
        <time>2021-11-16 14:04:44</time>
      </trkpt>
      <trkpt lat="40.54309" lon="-3.70164">
        <ele>758.8</ele>
        <time>2021-11-16 14:04:45</time>
      </trkpt>
      <trkpt lat="40.54304" lon="-3.70157">
        <ele>758.6</ele>
        <time>2021-11-16 14:04:46</time>
      </trkpt>
      <trkpt lat="40.54298" lon="-3.7015">
        <ele>758.4</ele>
        <time>2021-11-16 14:04:47</time>
      </trkpt>
      <trkpt lat="40.54293" lon="-3.70143">
        <ele>758.4</ele>
        <time>2021-11-16 14:04:48</time>
      </trkpt>
      <trkpt lat="40.54287" lon="-3.70136">
        <ele>758.4</ele>
        <time>2021-11-16 14:04:49</time>
      </trkpt>
      <trkpt lat="40.54282" lon="-3.70128">
        <ele>758</ele>
        <time>2021-11-16 14:04:50</time>
      </trkpt>
      <trkpt lat="40.54277" lon="-3.70121">
        <ele>758.2</ele>
        <time>2021-11-16 14:04:51</time>
      </trkpt>
      <trkpt lat="40.54271" lon="-3.70113">
        <ele>758</ele>
        <time>2021-11-16 14:04:52</time>
      </trkpt>
      <trkpt lat="40.54266" lon="-3.70105">
        <ele>757.8</ele>
        <time>2021-11-16 14:04:53</time>
      </trkpt>
      <trkpt lat="40.54262" lon="-3.70097">
        <ele>757.8</ele>
        <time>2021-11-16 14:04:54</time>
      </trkpt>
      <trkpt lat="40.54257" lon="-3.70089">
        <ele>757.8</ele>
        <time>2021-11-16 14:04:55</time>
      </trkpt>
      <trkpt lat="40.54252" lon="-3.70081">
        <ele>757.6</ele>
        <time>2021-11-16 14:04:56</time>
      </trkpt>
      <trkpt lat="40.54247" lon="-3.70073">
        <ele>757.2</ele>
        <time>2021-11-16 14:04:57</time>
      </trkpt>
      <trkpt lat="40.54242" lon="-3.70065">
        <ele>757.2</ele>
        <time>2021-11-16 14:04:58</time>
      </trkpt>
      <trkpt lat="40.54238" lon="-3.70057">
        <ele>756.8</ele>
        <time>2021-11-16 14:04:59</time>
      </trkpt>
      <trkpt lat="40.54233" lon="-3.70048">
        <ele>756.6</ele>
        <time>2021-11-16 14:05:00</time>
      </trkpt>
      <trkpt lat="40.54228" lon="-3.7004">
        <ele>756.2</ele>
        <time>2021-11-16 14:05:01</time>
      </trkpt>
      <trkpt lat="40.54224" lon="-3.70032">
        <ele>756</ele>
        <time>2021-11-16 14:05:02</time>
      </trkpt>
      <trkpt lat="40.54219" lon="-3.70023">
        <ele>756</ele>
        <time>2021-11-16 14:05:03</time>
      </trkpt>
      <trkpt lat="40.54214" lon="-3.70015">
        <ele>755.8</ele>
        <time>2021-11-16 14:05:04</time>
      </trkpt>
      <trkpt lat="40.5421" lon="-3.70007">
        <ele>755.6</ele>
        <time>2021-11-16 14:05:05</time>
      </trkpt>
      <trkpt lat="40.54205" lon="-3.69998">
        <ele>755.6</ele>
        <time>2021-11-16 14:05:06</time>
      </trkpt>
      <trkpt lat="40.54201" lon="-3.6999">
        <ele>755.6</ele>
        <time>2021-11-16 14:05:07</time>
      </trkpt>
      <trkpt lat="40.54196" lon="-3.69982">
        <ele>755.6</ele>
        <time>2021-11-16 14:05:08</time>
      </trkpt>
      <trkpt lat="40.54192" lon="-3.69974">
        <ele>755.4</ele>
        <time>2021-11-16 14:05:09</time>
      </trkpt>
      <trkpt lat="40.54187" lon="-3.69966">
        <ele>755.4</ele>
        <time>2021-11-16 14:05:10</time>
      </trkpt>
      <trkpt lat="40.54183" lon="-3.69958">
        <ele>755.2</ele>
        <time>2021-11-16 14:05:11</time>
      </trkpt>
      <trkpt lat="40.54178" lon="-3.6995">
        <ele>755</ele>
        <time>2021-11-16 14:05:12</time>
      </trkpt>
      <trkpt lat="40.54174" lon="-3.69941">
        <ele>754.8</ele>
        <time>2021-11-16 14:05:13</time>
      </trkpt>
      <trkpt lat="40.54171" lon="-3.69932">
        <ele>754.6</ele>
        <time>2021-11-16 14:05:14</time>
      </trkpt>
      <trkpt lat="40.54167" lon="-3.69923">
        <ele>754.6</ele>
        <time>2021-11-16 14:05:15</time>
      </trkpt>
      <trkpt lat="40.54163" lon="-3.69914">
        <ele>754.4</ele>
        <time>2021-11-16 14:05:16</time>
      </trkpt>
      <trkpt lat="40.54159" lon="-3.69904">
        <ele>754.4</ele>
        <time>2021-11-16 14:05:17</time>
      </trkpt>
      <trkpt lat="40.54155" lon="-3.69893">
        <ele>754.2</ele>
        <time>2021-11-16 14:05:18</time>
      </trkpt>
      <trkpt lat="40.54151" lon="-3.69882">
        <ele>753.8</ele>
        <time>2021-11-16 14:05:19</time>
      </trkpt>
      <trkpt lat="40.54147" lon="-3.69871">
        <ele>753.2</ele>
        <time>2021-11-16 14:05:20</time>
      </trkpt>
      <trkpt lat="40.54142" lon="-3.6986">
        <ele>753.2</ele>
        <time>2021-11-16 14:05:21</time>
      </trkpt>
      <trkpt lat="40.54137" lon="-3.6985">
        <ele>752.8</ele>
        <time>2021-11-16 14:05:22</time>
      </trkpt>
      <trkpt lat="40.54131" lon="-3.69842">
        <ele>752.4</ele>
        <time>2021-11-16 14:05:23</time>
      </trkpt>
      <trkpt lat="40.54125" lon="-3.69835">
        <ele>751.4</ele>
        <time>2021-11-16 14:05:24</time>
      </trkpt>
      <trkpt lat="40.54119" lon="-3.69828">
        <ele>751.2</ele>
        <time>2021-11-16 14:05:25</time>
      </trkpt>
      <trkpt lat="40.54114" lon="-3.6982">
        <ele>750.4</ele>
        <time>2021-11-16 14:05:26</time>
      </trkpt>
      <trkpt lat="40.54109" lon="-3.69813">
        <ele>750.2</ele>
        <time>2021-11-16 14:05:27</time>
      </trkpt>
      <trkpt lat="40.54105" lon="-3.69805">
        <ele>749.8</ele>
        <time>2021-11-16 14:05:28</time>
      </trkpt>
      <trkpt lat="40.541" lon="-3.69798">
        <ele>749.4</ele>
        <time>2021-11-16 14:05:29</time>
      </trkpt>
      <trkpt lat="40.54095" lon="-3.69791">
        <ele>749.4</ele>
        <time>2021-11-16 14:05:30</time>
      </trkpt>
      <trkpt lat="40.54091" lon="-3.69785">
        <ele>749.2</ele>
        <time>2021-11-16 14:05:31</time>
      </trkpt>
      <trkpt lat="40.54086" lon="-3.69779">
        <ele>749.2</ele>
        <time>2021-11-16 14:05:32</time>
      </trkpt>
      <trkpt lat="40.54081" lon="-3.69774">
        <ele>749.2</ele>
        <time>2021-11-16 14:05:33</time>
      </trkpt>
      <trkpt lat="40.54077" lon="-3.69769">
        <ele>749.2</ele>
        <time>2021-11-16 14:05:34</time>
      </trkpt>
      <trkpt lat="40.54073" lon="-3.69764">
        <ele>749.2</ele>
        <time>2021-11-16 14:05:35</time>
      </trkpt>
      <trkpt lat="40.54068" lon="-3.69758">
        <ele>749.2</ele>
        <time>2021-11-16 14:05:36</time>
      </trkpt>
      <trkpt lat="40.54064" lon="-3.69753">
        <ele>749</ele>
        <time>2021-11-16 14:05:37</time>
      </trkpt>
      <trkpt lat="40.54059" lon="-3.69747">
        <ele>749.2</ele>
        <time>2021-11-16 14:05:38</time>
      </trkpt>
      <trkpt lat="40.54055" lon="-3.69741">
        <ele>749.2</ele>
        <time>2021-11-16 14:05:39</time>
      </trkpt>
      <trkpt lat="40.54051" lon="-3.69735">
        <ele>749.2</ele>
        <time>2021-11-16 14:05:40</time>
      </trkpt>
      <trkpt lat="40.54047" lon="-3.69729">
        <ele>750.2</ele>
        <time>2021-11-16 14:05:41</time>
      </trkpt>
      <trkpt lat="40.54043" lon="-3.69723">
        <ele>750.8</ele>
        <time>2021-11-16 14:05:42</time>
      </trkpt>
      <trkpt lat="40.54039" lon="-3.69717">
        <ele>751.2</ele>
        <time>2021-11-16 14:05:43</time>
      </trkpt>
      <trkpt lat="40.54035" lon="-3.69711">
        <ele>751.4</ele>
        <time>2021-11-16 14:05:44</time>
      </trkpt>
      <trkpt lat="40.54031" lon="-3.69704">
        <ele>751.6</ele>
        <time>2021-11-16 14:05:45</time>
      </trkpt>
      <trkpt lat="40.54027" lon="-3.69697">
        <ele>751.8</ele>
        <time>2021-11-16 14:05:46</time>
      </trkpt>
      <trkpt lat="40.54023" lon="-3.6969">
        <ele>751.8</ele>
        <time>2021-11-16 14:05:47</time>
      </trkpt>
      <trkpt lat="40.54019" lon="-3.69684">
        <ele>751.8</ele>
        <time>2021-11-16 14:05:48</time>
      </trkpt>
      <trkpt lat="40.54015" lon="-3.69678">
        <ele>752</ele>
        <time>2021-11-16 14:05:49</time>
      </trkpt>
      <trkpt lat="40.5401" lon="-3.69671">
        <ele>752</ele>
        <time>2021-11-16 14:05:50</time>
      </trkpt>
      <trkpt lat="40.54006" lon="-3.69665">
        <ele>752</ele>
        <time>2021-11-16 14:05:51</time>
      </trkpt>
      <trkpt lat="40.54002" lon="-3.69659">
        <ele>752</ele>
        <time>2021-11-16 14:05:52</time>
      </trkpt>
      <trkpt lat="40.53997" lon="-3.69653">
        <ele>752</ele>
        <time>2021-11-16 14:05:53</time>
      </trkpt>
      <trkpt lat="40.53993" lon="-3.69648">
        <ele>752</ele>
        <time>2021-11-16 14:05:54</time>
      </trkpt>
      <trkpt lat="40.53988" lon="-3.69642">
        <ele>752</ele>
        <time>2021-11-16 14:05:55</time>
      </trkpt>
      <trkpt lat="40.53984" lon="-3.69636">
        <ele>752</ele>
        <time>2021-11-16 14:05:56</time>
      </trkpt>
      <trkpt lat="40.53979" lon="-3.69631">
        <ele>752</ele>
        <time>2021-11-16 14:05:57</time>
      </trkpt>
      <trkpt lat="40.53974" lon="-3.69626">
        <ele>752</ele>
        <time>2021-11-16 14:05:58</time>
      </trkpt>
      <trkpt lat="40.53969" lon="-3.69621">
        <ele>752</ele>
        <time>2021-11-16 14:05:59</time>
      </trkpt>
      <trkpt lat="40.53965" lon="-3.69617">
        <ele>752</ele>
        <time>2021-11-16 14:06:00</time>
      </trkpt>
      <trkpt lat="40.5396" lon="-3.69613">
        <ele>752.2</ele>
        <time>2021-11-16 14:06:01</time>
      </trkpt>
      <trkpt lat="40.53956" lon="-3.6961">
        <ele>752.2</ele>
        <time>2021-11-16 14:06:02</time>
      </trkpt>
      <trkpt lat="40.53953" lon="-3.69607">
        <ele>752.2</ele>
        <time>2021-11-16 14:06:03</time>
      </trkpt>
      <trkpt lat="40.5395" lon="-3.69605">
        <ele>752.4</ele>
        <time>2021-11-16 14:06:04</time>
      </trkpt>
      <trkpt lat="40.53947" lon="-3.69603">
        <ele>752.4</ele>
        <time>2021-11-16 14:06:05</time>
      </trkpt>
      <trkpt lat="40.53945" lon="-3.69602">
        <ele>752.4</ele>
        <time>2021-11-16 14:06:06</time>
      </trkpt>
      <trkpt lat="40.53943" lon="-3.69601">
        <ele>752.2</ele>
        <time>2021-11-16 14:06:07</time>
      </trkpt>
      <trkpt lat="40.53942" lon="-3.69601">
        <ele>752.4</ele>
        <time>2021-11-16 14:06:08</time>
      </trkpt>
      <trkpt lat="40.53942" lon="-3.69601">
        <ele>752.6</ele>
        <time>2021-11-16 14:06:09</time>
      </trkpt>
      <trkpt lat="40.53942" lon="-3.69601">
        <ele>753</ele>
        <time>2021-11-16 14:06:15</time>
      </trkpt>
      <trkpt lat="40.53942" lon="-3.69601">
        <ele>753</ele>
        <time>2021-11-16 14:06:16</time>
      </trkpt>
      <trkpt lat="40.53942" lon="-3.69601">
        <ele>753</ele>
        <time>2021-11-16 14:06:17</time>
      </trkpt>
      <trkpt lat="40.53942" lon="-3.69601">
        <ele>753.2</ele>
        <time>2021-11-16 14:06:18</time>
      </trkpt>
      <trkpt lat="40.53942" lon="-3.69601">
        <ele>753</ele>
        <time>2021-11-16 14:06:19</time>
      </trkpt>
      <trkpt lat="40.53942" lon="-3.69601">
        <ele>753</ele>
        <time>2021-11-16 14:06:20</time>
      </trkpt>
      <trkpt lat="40.53942" lon="-3.69601">
        <ele>753</ele>
        <time>2021-11-16 14:06:21</time>
      </trkpt>
      <trkpt lat="40.53942" lon="-3.69601">
        <ele>753.2</ele>
        <time>2021-11-16 14:06:22</time>
      </trkpt>
      <trkpt lat="40.53942" lon="-3.69601">
        <ele>753.2</ele>
        <time>2021-11-16 14:06:23</time>
      </trkpt>
      <trkpt lat="40.53942" lon="-3.69601">
        <ele>753</ele>
        <time>2021-11-16 14:06:24</time>
      </trkpt>
      <trkpt lat="40.53942" lon="-3.69601">
        <ele>753</ele>
        <time>2021-11-16 14:06:25</time>
      </trkpt>
      <trkpt lat="40.53942" lon="-3.69601">
        <ele>753</ele>
        <time>2021-11-16 14:06:26</time>
      </trkpt>
      <trkpt lat="40.53942" lon="-3.69601">
        <ele>753</ele>
        <time>2021-11-16 14:06:27</time>
      </trkpt>
      <trkpt lat="40.53942" lon="-3.69601">
        <ele>753</ele>
        <time>2021-11-16 14:06:28</time>
      </trkpt>
      <trkpt lat="40.53942" lon="-3.69601">
        <ele>753</ele>
        <time>2021-11-16 14:06:29</time>
      </trkpt>
      <trkpt lat="40.53942" lon="-3.69601">
        <ele>753</ele>
        <time>2021-11-16 14:06:30</time>
      </trkpt>
      <trkpt lat="40.53942" lon="-3.69601">
        <ele>753</ele>
        <time>2021-11-16 14:06:31</time>
      </trkpt>
      <trkpt lat="40.53942" lon="-3.69601">
        <ele>753</ele>
        <time>2021-11-16 14:06:32</time>
      </trkpt>
      <trkpt lat="40.53942" lon="-3.69601">
        <ele>753.2</ele>
        <time>2021-11-16 14:06:33</time>
      </trkpt>
      <trkpt lat="40.53942" lon="-3.69601">
        <ele>753</ele>
        <time>2021-11-16 14:06:34</time>
      </trkpt>
      <trkpt lat="40.53942" lon="-3.69601">
        <ele>753</ele>
        <time>2021-11-16 14:06:35</time>
      </trkpt>
      <trkpt lat="40.53942" lon="-3.69601">
        <ele>753</ele>
        <time>2021-11-16 14:06:36</time>
      </trkpt>
      <trkpt lat="40.53942" lon="-3.69601">
        <ele>753</ele>
        <time>2021-11-16 14:06:37</time>
      </trkpt>
      <trkpt lat="40.53942" lon="-3.69601">
        <ele>753.2</ele>
        <time>2021-11-16 14:06:38</time>
      </trkpt>
      <trkpt lat="40.53942" lon="-3.69601">
        <ele>753.2</ele>
        <time>2021-11-16 14:06:39</time>
      </trkpt>
      <trkpt lat="40.53942" lon="-3.69601">
        <ele>753</ele>
        <time>2021-11-16 14:06:40</time>
      </trkpt>
      <trkpt lat="40.53942" lon="-3.69601">
        <ele>753</ele>
        <time>2021-11-16 14:06:41</time>
      </trkpt>
      <trkpt lat="40.53942" lon="-3.69601">
        <ele>753.2</ele>
        <time>2021-11-16 14:06:42</time>
      </trkpt>
      <trkpt lat="40.53942" lon="-3.69601">
        <ele>753.2</ele>
        <time>2021-11-16 14:06:43</time>
      </trkpt>
      <trkpt lat="40.53942" lon="-3.69601">
        <ele>753</ele>
        <time>2021-11-16 14:06:44</time>
      </trkpt>
      <trkpt lat="40.53942" lon="-3.69601">
        <ele>753.2</ele>
        <time>2021-11-16 14:06:45</time>
      </trkpt>
      <trkpt lat="40.53942" lon="-3.69601">
        <ele>753.2</ele>
        <time>2021-11-16 14:06:46</time>
      </trkpt>
      <trkpt lat="40.53942" lon="-3.69601">
        <ele>753.2</ele>
        <time>2021-11-16 14:06:47</time>
      </trkpt>
      <trkpt lat="40.53942" lon="-3.69601">
        <ele>753.2</ele>
        <time>2021-11-16 14:06:48</time>
      </trkpt>
      <trkpt lat="40.53942" lon="-3.69601">
        <ele>753.2</ele>
        <time>2021-11-16 14:06:49</time>
      </trkpt>
      <trkpt lat="40.53942" lon="-3.69601">
        <ele>753</ele>
        <time>2021-11-16 14:06:50</time>
      </trkpt>
      <trkpt lat="40.53942" lon="-3.69601">
        <ele>753.2</ele>
        <time>2021-11-16 14:06:51</time>
      </trkpt>
      <trkpt lat="40.53942" lon="-3.69601">
        <ele>753.2</ele>
        <time>2021-11-16 14:06:52</time>
      </trkpt>
      <trkpt lat="40.53942" lon="-3.69601">
        <ele>753.2</ele>
        <time>2021-11-16 14:06:53</time>
      </trkpt>
      <trkpt lat="40.53942" lon="-3.69601">
        <ele>753.2</ele>
        <time>2021-11-16 14:06:54</time>
      </trkpt>
      <trkpt lat="40.53942" lon="-3.69601">
        <ele>753.2</ele>
        <time>2021-11-16 14:06:55</time>
      </trkpt>
      <trkpt lat="40.53942" lon="-3.69601">
        <ele>753.2</ele>
        <time>2021-11-16 14:06:56</time>
      </trkpt>
      <trkpt lat="40.53942" lon="-3.69601">
        <ele>753.2</ele>
        <time>2021-11-16 14:06:57</time>
      </trkpt>
      <trkpt lat="40.53942" lon="-3.69601">
        <ele>753.2</ele>
        <time>2021-11-16 14:06:58</time>
      </trkpt>
      <trkpt lat="40.53942" lon="-3.69601">
        <ele>753.2</ele>
        <time>2021-11-16 14:06:59</time>
      </trkpt>
      <trkpt lat="40.53942" lon="-3.69601">
        <ele>753.2</ele>
        <time>2021-11-16 14:07:00</time>
      </trkpt>
      <trkpt lat="40.53942" lon="-3.69601">
        <ele>753.2</ele>
        <time>2021-11-16 14:07:01</time>
      </trkpt>
      <trkpt lat="40.53942" lon="-3.69601">
        <ele>753.2</ele>
        <time>2021-11-16 14:07:02</time>
      </trkpt>
      <trkpt lat="40.53942" lon="-3.69601">
        <ele>753.2</ele>
        <time>2021-11-16 14:07:03</time>
      </trkpt>
      <trkpt lat="40.53942" lon="-3.69601">
        <ele>753.2</ele>
        <time>2021-11-16 14:07:04</time>
      </trkpt>
      <trkpt lat="40.53942" lon="-3.69601">
        <ele>753.2</ele>
        <time>2021-11-16 14:07:05</time>
      </trkpt>
      <trkpt lat="40.53942" lon="-3.69601">
        <ele>753.4</ele>
        <time>2021-11-16 14:07:06</time>
      </trkpt>
      <trkpt lat="40.53942" lon="-3.69602">
        <ele>753.6</ele>
        <time>2021-11-16 14:07:07</time>
      </trkpt>
      <trkpt lat="40.53942" lon="-3.69602">
        <ele>753.6</ele>
        <time>2021-11-16 14:07:08</time>
      </trkpt>
      <trkpt lat="40.53942" lon="-3.69602">
        <ele>753.6</ele>
        <time>2021-11-16 14:07:09</time>
      </trkpt>
      <trkpt lat="40.53942" lon="-3.69602">
        <ele>753.6</ele>
        <time>2021-11-16 14:07:10</time>
      </trkpt>
      <trkpt lat="40.53942" lon="-3.69602">
        <ele>753.6</ele>
        <time>2021-11-16 14:07:11</time>
      </trkpt>
      <trkpt lat="40.53942" lon="-3.69602">
        <ele>753.6</ele>
        <time>2021-11-16 14:07:12</time>
      </trkpt>
      <trkpt lat="40.53942" lon="-3.69602">
        <ele>753.8</ele>
        <time>2021-11-16 14:07:13</time>
      </trkpt>
      <trkpt lat="40.53942" lon="-3.69602">
        <ele>753.8</ele>
        <time>2021-11-16 14:07:14</time>
      </trkpt>
      <trkpt lat="40.53942" lon="-3.69602">
        <ele>753.8</ele>
        <time>2021-11-16 14:07:15</time>
      </trkpt>
      <trkpt lat="40.53942" lon="-3.69602">
        <ele>753.8</ele>
        <time>2021-11-16 14:07:16</time>
      </trkpt>
      <trkpt lat="40.53942" lon="-3.69602">
        <ele>753.8</ele>
        <time>2021-11-16 14:07:17</time>
      </trkpt>
      <trkpt lat="40.53942" lon="-3.69602">
        <ele>753.8</ele>
        <time>2021-11-16 14:07:18</time>
      </trkpt>
      <trkpt lat="40.53942" lon="-3.69602">
        <ele>753.8</ele>
        <time>2021-11-16 14:07:19</time>
      </trkpt>
      <trkpt lat="40.53942" lon="-3.69602">
        <ele>753.8</ele>
        <time>2021-11-16 14:07:20</time>
      </trkpt>
      <trkpt lat="40.53942" lon="-3.69602">
        <ele>753.8</ele>
        <time>2021-11-16 14:07:21</time>
      </trkpt>
      <trkpt lat="40.53942" lon="-3.69602">
        <ele>753.8</ele>
        <time>2021-11-16 14:07:22</time>
      </trkpt>
      <trkpt lat="40.53942" lon="-3.69602">
        <ele>753.8</ele>
        <time>2021-11-16 14:07:23</time>
      </trkpt>
      <trkpt lat="40.53942" lon="-3.69602">
        <ele>753.8</ele>
        <time>2021-11-16 14:07:24</time>
      </trkpt>
      <trkpt lat="40.53942" lon="-3.69602">
        <ele>753.8</ele>
        <time>2021-11-16 14:07:25</time>
      </trkpt>
      <trkpt lat="40.53942" lon="-3.69602">
        <ele>753.8</ele>
        <time>2021-11-16 14:07:26</time>
      </trkpt>
      <trkpt lat="40.53942" lon="-3.69602">
        <ele>753.6</ele>
        <time>2021-11-16 14:07:27</time>
      </trkpt>
      <trkpt lat="40.53942" lon="-3.69602">
        <ele>753.6</ele>
        <time>2021-11-16 14:07:28</time>
      </trkpt>
      <trkpt lat="40.53942" lon="-3.69602">
        <ele>753.6</ele>
        <time>2021-11-16 14:07:29</time>
      </trkpt>
      <trkpt lat="40.53942" lon="-3.69602">
        <ele>753.8</ele>
        <time>2021-11-16 14:07:30</time>
      </trkpt>
      <trkpt lat="40.53943" lon="-3.69602">
        <ele>753.6</ele>
        <time>2021-11-16 14:07:31</time>
      </trkpt>
      <trkpt lat="40.53943" lon="-3.69602">
        <ele>753.8</ele>
        <time>2021-11-16 14:07:32</time>
      </trkpt>
      <trkpt lat="40.53943" lon="-3.69602">
        <ele>753.8</ele>
        <time>2021-11-16 14:07:33</time>
      </trkpt>
      <trkpt lat="40.53943" lon="-3.69602">
        <ele>753.8</ele>
        <time>2021-11-16 14:07:34</time>
      </trkpt>
      <trkpt lat="40.53943" lon="-3.69602">
        <ele>753.8</ele>
        <time>2021-11-16 14:07:35</time>
      </trkpt>
      <trkpt lat="40.53943" lon="-3.69602">
        <ele>753.6</ele>
        <time>2021-11-16 14:07:36</time>
      </trkpt>
      <trkpt lat="40.53943" lon="-3.69602">
        <ele>753.6</ele>
        <time>2021-11-16 14:07:37</time>
      </trkpt>
      <trkpt lat="40.53943" lon="-3.69602">
        <ele>753.6</ele>
        <time>2021-11-16 14:07:38</time>
      </trkpt>
      <trkpt lat="40.53943" lon="-3.69602">
        <ele>753.6</ele>
        <time>2021-11-16 14:07:39</time>
      </trkpt>
      <trkpt lat="40.53943" lon="-3.69602">
        <ele>753.8</ele>
        <time>2021-11-16 14:07:40</time>
      </trkpt>
      <trkpt lat="40.53943" lon="-3.69602">
        <ele>753.6</ele>
        <time>2021-11-16 14:07:41</time>
      </trkpt>
      <trkpt lat="40.53942" lon="-3.69602">
        <ele>753.6</ele>
        <time>2021-11-16 14:07:42</time>
      </trkpt>
      <trkpt lat="40.53942" lon="-3.69602">
        <ele>753.6</ele>
        <time>2021-11-16 14:07:43</time>
      </trkpt>
      <trkpt lat="40.53943" lon="-3.69602">
        <ele>753.6</ele>
        <time>2021-11-16 14:07:44</time>
      </trkpt>
      <trkpt lat="40.53943" lon="-3.69602">
        <ele>753.4</ele>
        <time>2021-11-16 14:07:45</time>
      </trkpt>
      <trkpt lat="40.53943" lon="-3.69602">
        <ele>753.6</ele>
        <time>2021-11-16 14:07:46</time>
      </trkpt>
      <trkpt lat="40.53943" lon="-3.69602">
        <ele>753.6</ele>
        <time>2021-11-16 14:07:47</time>
      </trkpt>
      <trkpt lat="40.53943" lon="-3.69602">
        <ele>753.6</ele>
        <time>2021-11-16 14:07:48</time>
      </trkpt>
      <trkpt lat="40.53943" lon="-3.69602">
        <ele>753.6</ele>
        <time>2021-11-16 14:07:49</time>
      </trkpt>
      <trkpt lat="40.53943" lon="-3.69602">
        <ele>753.6</ele>
        <time>2021-11-16 14:07:50</time>
      </trkpt>
      <trkpt lat="40.53943" lon="-3.69602">
        <ele>753.6</ele>
        <time>2021-11-16 14:07:51</time>
      </trkpt>
      <trkpt lat="40.53943" lon="-3.69602">
        <ele>753.4</ele>
        <time>2021-11-16 14:07:52</time>
      </trkpt>
      <trkpt lat="40.53943" lon="-3.69602">
        <ele>753.6</ele>
        <time>2021-11-16 14:07:53</time>
      </trkpt>
      <trkpt lat="40.53943" lon="-3.69602">
        <ele>753.6</ele>
        <time>2021-11-16 14:07:54</time>
      </trkpt>
      <trkpt lat="40.53943" lon="-3.69602">
        <ele>753.6</ele>
        <time>2021-11-16 14:07:55</time>
      </trkpt>
      <trkpt lat="40.53943" lon="-3.69602">
        <ele>753.6</ele>
        <time>2021-11-16 14:07:56</time>
      </trkpt>
      <trkpt lat="40.53943" lon="-3.69602">
        <ele>753.4</ele>
        <time>2021-11-16 14:07:57</time>
      </trkpt>
      <trkpt lat="40.53943" lon="-3.69602">
        <ele>753.4</ele>
        <time>2021-11-16 14:07:58</time>
      </trkpt>
      <trkpt lat="40.53943" lon="-3.69602">
        <ele>753.6</ele>
        <time>2021-11-16 14:07:59</time>
      </trkpt>
      <trkpt lat="40.53943" lon="-3.69602">
        <ele>753.6</ele>
        <time>2021-11-16 14:08:00</time>
      </trkpt>
      <trkpt lat="40.53943" lon="-3.69602">
        <ele>753.4</ele>
        <time>2021-11-16 14:08:01</time>
      </trkpt>
      <trkpt lat="40.53943" lon="-3.69602">
        <ele>753.4</ele>
        <time>2021-11-16 14:08:02</time>
      </trkpt>
      <trkpt lat="40.53943" lon="-3.69602">
        <ele>753.4</ele>
        <time>2021-11-16 14:08:03</time>
      </trkpt>
      <trkpt lat="40.53943" lon="-3.69602">
        <ele>753.4</ele>
        <time>2021-11-16 14:08:04</time>
      </trkpt>
      <trkpt lat="40.53943" lon="-3.69602">
        <ele>753.6</ele>
        <time>2021-11-16 14:08:05</time>
      </trkpt>
      <trkpt lat="40.53943" lon="-3.69602">
        <ele>753.4</ele>
        <time>2021-11-16 14:08:06</time>
      </trkpt>
      <trkpt lat="40.53943" lon="-3.69602">
        <ele>753.4</ele>
        <time>2021-11-16 14:08:07</time>
      </trkpt>
      <trkpt lat="40.53943" lon="-3.69602">
        <ele>753.4</ele>
        <time>2021-11-16 14:08:08</time>
      </trkpt>
      <trkpt lat="40.53943" lon="-3.69602">
        <ele>753.4</ele>
        <time>2021-11-16 14:08:09</time>
      </trkpt>
      <trkpt lat="40.53943" lon="-3.69602">
        <ele>753.4</ele>
        <time>2021-11-16 14:08:10</time>
      </trkpt>
      <trkpt lat="40.53943" lon="-3.69603">
        <ele>753.4</ele>
        <time>2021-11-16 14:08:11</time>
      </trkpt>
      <trkpt lat="40.53942" lon="-3.69603">
        <ele>753.4</ele>
        <time>2021-11-16 14:08:12</time>
      </trkpt>
      <trkpt lat="40.53942" lon="-3.69603">
        <ele>753.4</ele>
        <time>2021-11-16 14:08:13</time>
      </trkpt>
      <trkpt lat="40.53942" lon="-3.69603">
        <ele>753.4</ele>
        <time>2021-11-16 14:08:14</time>
      </trkpt>
      <trkpt lat="40.53942" lon="-3.69603">
        <ele>753.4</ele>
        <time>2021-11-16 14:08:15</time>
      </trkpt>
      <trkpt lat="40.53942" lon="-3.69603">
        <ele>753.4</ele>
        <time>2021-11-16 14:08:16</time>
      </trkpt>
      <trkpt lat="40.53942" lon="-3.69603">
        <ele>753.4</ele>
        <time>2021-11-16 14:08:17</time>
      </trkpt>
      <trkpt lat="40.53942" lon="-3.69603">
        <ele>753.4</ele>
        <time>2021-11-16 14:08:18</time>
      </trkpt>
      <trkpt lat="40.53942" lon="-3.69603">
        <ele>753.4</ele>
        <time>2021-11-16 14:08:19</time>
      </trkpt>
      <trkpt lat="40.53942" lon="-3.69603">
        <ele>753.4</ele>
        <time>2021-11-16 14:08:20</time>
      </trkpt>
      <trkpt lat="40.53942" lon="-3.69603">
        <ele>753.4</ele>
        <time>2021-11-16 14:08:21</time>
      </trkpt>
      <trkpt lat="40.53942" lon="-3.69603">
        <ele>753.4</ele>
        <time>2021-11-16 14:08:22</time>
      </trkpt>
      <trkpt lat="40.53942" lon="-3.69603">
        <ele>753.4</ele>
        <time>2021-11-16 14:08:23</time>
      </trkpt>
      <trkpt lat="40.53942" lon="-3.69603">
        <ele>753.4</ele>
        <time>2021-11-16 14:08:24</time>
      </trkpt>
      <trkpt lat="40.53942" lon="-3.69603">
        <ele>753.4</ele>
        <time>2021-11-16 14:08:25</time>
      </trkpt>
      <trkpt lat="40.53942" lon="-3.69603">
        <ele>753.4</ele>
        <time>2021-11-16 14:08:26</time>
      </trkpt>
      <trkpt lat="40.53942" lon="-3.69603">
        <ele>753.4</ele>
        <time>2021-11-16 14:08:27</time>
      </trkpt>
      <trkpt lat="40.53942" lon="-3.69603">
        <ele>753.4</ele>
        <time>2021-11-16 14:08:28</time>
      </trkpt>
      <trkpt lat="40.53942" lon="-3.69603">
        <ele>753.6</ele>
        <time>2021-11-16 14:08:29</time>
      </trkpt>
      <trkpt lat="40.53942" lon="-3.69603">
        <ele>753.4</ele>
        <time>2021-11-16 14:08:30</time>
      </trkpt>
      <trkpt lat="40.53942" lon="-3.69603">
        <ele>753.4</ele>
        <time>2021-11-16 14:08:31</time>
      </trkpt>
      <trkpt lat="40.53942" lon="-3.69603">
        <ele>753.6</ele>
        <time>2021-11-16 14:08:32</time>
      </trkpt>
      <trkpt lat="40.53942" lon="-3.69603">
        <ele>753.4</ele>
        <time>2021-11-16 14:08:33</time>
      </trkpt>
      <trkpt lat="40.53943" lon="-3.69603">
        <ele>753.4</ele>
        <time>2021-11-16 14:08:34</time>
      </trkpt>
      <trkpt lat="40.53943" lon="-3.69603">
        <ele>753.4</ele>
        <time>2021-11-16 14:08:35</time>
      </trkpt>
      <trkpt lat="40.53943" lon="-3.69603">
        <ele>753.4</ele>
        <time>2021-11-16 14:08:36</time>
      </trkpt>
      <trkpt lat="40.53943" lon="-3.69603">
        <ele>753.6</ele>
        <time>2021-11-16 14:08:37</time>
      </trkpt>
      <trkpt lat="40.53942" lon="-3.69603">
        <ele>753.4</ele>
        <time>2021-11-16 14:08:38</time>
      </trkpt>
      <trkpt lat="40.53942" lon="-3.69603">
        <ele>753.4</ele>
        <time>2021-11-16 14:08:39</time>
      </trkpt>
      <trkpt lat="40.53942" lon="-3.69603">
        <ele>753.6</ele>
        <time>2021-11-16 14:08:40</time>
      </trkpt>
      <trkpt lat="40.53942" lon="-3.69603">
        <ele>753.4</ele>
        <time>2021-11-16 14:08:41</time>
      </trkpt>
      <trkpt lat="40.53943" lon="-3.69603">
        <ele>753.4</ele>
        <time>2021-11-16 14:08:42</time>
      </trkpt>
      <trkpt lat="40.53943" lon="-3.69603">
        <ele>753.4</ele>
        <time>2021-11-16 14:08:43</time>
      </trkpt>
      <trkpt lat="40.53942" lon="-3.69603">
        <ele>753.6</ele>
        <time>2021-11-16 14:08:44</time>
      </trkpt>
      <trkpt lat="40.53942" lon="-3.69603">
        <ele>753.6</ele>
        <time>2021-11-16 14:08:45</time>
      </trkpt>
      <trkpt lat="40.53943" lon="-3.69603">
        <ele>753.4</ele>
        <time>2021-11-16 14:08:46</time>
      </trkpt>
      <trkpt lat="40.53943" lon="-3.69603">
        <ele>753.4</ele>
        <time>2021-11-16 14:08:47</time>
      </trkpt>
      <trkpt lat="40.53943" lon="-3.69603">
        <ele>753.4</ele>
        <time>2021-11-16 14:08:48</time>
      </trkpt>
      <trkpt lat="40.53943" lon="-3.69603">
        <ele>753.4</ele>
        <time>2021-11-16 14:08:49</time>
      </trkpt>
      <trkpt lat="40.53942" lon="-3.69603">
        <ele>753.4</ele>
        <time>2021-11-16 14:08:50</time>
      </trkpt>
      <trkpt lat="40.53942" lon="-3.69603">
        <ele>753.6</ele>
        <time>2021-11-16 14:08:51</time>
      </trkpt>
      <trkpt lat="40.53942" lon="-3.69603">
        <ele>753.4</ele>
        <time>2021-11-16 14:08:52</time>
      </trkpt>
      <trkpt lat="40.53942" lon="-3.69603">
        <ele>753.6</ele>
        <time>2021-11-16 14:08:53</time>
      </trkpt>
      <trkpt lat="40.53942" lon="-3.69603">
        <ele>753.4</ele>
        <time>2021-11-16 14:08:54</time>
      </trkpt>
      <trkpt lat="40.53942" lon="-3.69603">
        <ele>753.6</ele>
        <time>2021-11-16 14:08:55</time>
      </trkpt>
      <trkpt lat="40.53942" lon="-3.69603">
        <ele>753.4</ele>
        <time>2021-11-16 14:08:56</time>
      </trkpt>
      <trkpt lat="40.53942" lon="-3.69602">
        <ele>753.4</ele>
        <time>2021-11-16 14:08:57</time>
      </trkpt>
      <trkpt lat="40.53941" lon="-3.69602">
        <ele>753.6</ele>
        <time>2021-11-16 14:08:58</time>
      </trkpt>
      <trkpt lat="40.53941" lon="-3.69601">
        <ele>753.6</ele>
        <time>2021-11-16 14:08:59</time>
      </trkpt>
      <trkpt lat="40.5394" lon="-3.69601">
        <ele>753.6</ele>
        <time>2021-11-16 14:09:00</time>
      </trkpt>
      <trkpt lat="40.5394" lon="-3.696">
        <ele>753.6</ele>
        <time>2021-11-16 14:09:01</time>
      </trkpt>
      <trkpt lat="40.5394" lon="-3.696">
        <ele>753.6</ele>
        <time>2021-11-16 14:09:02</time>
      </trkpt>
      <trkpt lat="40.53939" lon="-3.696">
        <ele>753.4</ele>
        <time>2021-11-16 14:09:03</time>
      </trkpt>
      <trkpt lat="40.53939" lon="-3.696">
        <ele>753.4</ele>
        <time>2021-11-16 14:09:04</time>
      </trkpt>
      <trkpt lat="40.53939" lon="-3.696">
        <ele>753.4</ele>
        <time>2021-11-16 14:09:05</time>
      </trkpt>
      <trkpt lat="40.53939" lon="-3.696">
        <ele>753.4</ele>
        <time>2021-11-16 14:09:06</time>
      </trkpt>
      <trkpt lat="40.53939" lon="-3.696">
        <ele>753.4</ele>
        <time>2021-11-16 14:09:07</time>
      </trkpt>
      <trkpt lat="40.53939" lon="-3.696">
        <ele>753.4</ele>
        <time>2021-11-16 14:09:08</time>
      </trkpt>
      <trkpt lat="40.53939" lon="-3.696">
        <ele>753.4</ele>
        <time>2021-11-16 14:09:09</time>
      </trkpt>
      <trkpt lat="40.53939" lon="-3.696">
        <ele>753.4</ele>
        <time>2021-11-16 14:09:10</time>
      </trkpt>
      <trkpt lat="40.53939" lon="-3.696">
        <ele>753.4</ele>
        <time>2021-11-16 14:09:11</time>
      </trkpt>
      <trkpt lat="40.53939" lon="-3.696">
        <ele>753.2</ele>
        <time>2021-11-16 14:09:12</time>
      </trkpt>
      <trkpt lat="40.53939" lon="-3.696">
        <ele>753.4</ele>
        <time>2021-11-16 14:09:13</time>
      </trkpt>
      <trkpt lat="40.53939" lon="-3.696">
        <ele>753.4</ele>
        <time>2021-11-16 14:09:14</time>
      </trkpt>
      <trkpt lat="40.53939" lon="-3.696">
        <ele>753.2</ele>
        <time>2021-11-16 14:09:15</time>
      </trkpt>
      <trkpt lat="40.53939" lon="-3.696">
        <ele>753.4</ele>
        <time>2021-11-16 14:09:16</time>
      </trkpt>
      <trkpt lat="40.53939" lon="-3.696">
        <ele>753.4</ele>
        <time>2021-11-16 14:09:17</time>
      </trkpt>
    </trkseg>
  </trk>
</gpx>
